<?xml version='1.0' encoding='UTF-8'?><gpx version="1.1" creator="JPX - https://github.com/jenetics/jpx" xmlns="http://www.topografix.com/GPX/1/1"><trk><trkseg><trkpt lat="42.72579013836346" lon="12.540810511550367"><ele>242.00000000000003</ele><time>2026-04-27T10:21:08.999Z</time></trkpt><trkpt lat="42.72580132686275" lon="12.540710598267777"><ele>242.0</ele><time>2026-04-27T10:21:11.999Z</time></trkpt><trkpt lat="42.725804094728964" lon="12.540611749723704"><ele>242.0</ele><time>2026-04-27T10:21:23.999Z</time></trkpt><trkpt lat="42.7258178918154" lon="12.540525065126774"><ele>242.0</ele><time>2026-04-27T10:21:25.999Z</time></trkpt><trkpt lat="42.72588821245717" lon="12.54037218572106"><ele>242.00000000000003</ele><time>2026-04-27T10:21:27.999Z</time></trkpt><trkpt lat="42.725935300034465" lon="12.540271526501215"><ele>242.0</ele><time>2026-04-27T10:21:28.999Z</time></trkpt><trkpt lat="42.72598951649305" lon="12.540155304802054"><ele>242.25</ele><time>2026-04-27T10:21:29.999Z</time></trkpt><trkpt lat="42.72605411117867" lon="12.540026550174128"><ele>242.5</ele><time>2026-04-27T10:21:30.999Z</time></trkpt><trkpt lat="42.72612478823511" lon="12.539886476850905"><ele>242.75</ele><time>2026-04-27T10:21:31.999Z</time></trkpt><trkpt lat="42.726200061603315" lon="12.539743001811022"><ele>243.0</ele><time>2026-04-27T10:21:32.999Z</time></trkpt><trkpt lat="42.726275875149405" lon="12.539604738424837"><ele>242.25</ele><time>2026-04-27T10:21:33.999Z</time></trkpt><trkpt lat="42.72634922917944" lon="12.539466776749851"><ele>241.5</ele><time>2026-04-27T10:21:34.999Z</time></trkpt><trkpt lat="42.72642189000692" lon="12.539329253783771"><ele>240.75</ele><time>2026-04-27T10:21:35.999Z</time></trkpt><trkpt lat="42.72649383436655" lon="12.539193425922024"><ele>240.0</ele><time>2026-04-27T10:21:36.999Z</time></trkpt><trkpt lat="42.72656478590743" lon="12.539065617289001"><ele>240.0</ele><time>2026-04-27T10:21:37.999Z</time></trkpt><trkpt lat="42.726631599668664" lon="12.538944603968226"><ele>240.0</ele><time>2026-04-27T10:21:38.999Z</time></trkpt><trkpt lat="42.726690552861065" lon="12.538845271982037"><ele>240.0</ele><time>2026-04-27T10:21:39.999Z</time></trkpt><trkpt lat="42.72674245375348" lon="12.538765269006763"><ele>240.0</ele><time>2026-04-27T10:21:40.999Z</time></trkpt><trkpt lat="42.72683392362578" lon="12.538659169230067"><ele>240.0</ele><time>2026-04-27T10:21:42.999Z</time></trkpt><trkpt lat="42.726890550329294" lon="12.538616398989781"><ele>239.8</ele><time>2026-04-27T10:21:43.999Z</time></trkpt><trkpt lat="42.726958342373116" lon="12.538570476394169"><ele>239.6</ele><time>2026-04-27T10:21:44.999Z</time></trkpt><trkpt lat="42.727046791051706" lon="12.538552640415514"><ele>239.39999999999998</ele><time>2026-04-27T10:21:45.999Z</time></trkpt><trkpt lat="42.72714972041109" lon="12.538527943559119"><ele>239.2</ele><time>2026-04-27T10:21:46.999Z</time></trkpt><trkpt lat="42.727270791216135" lon="12.53850288585243"><ele>239.0</ele><time>2026-04-27T10:21:47.999Z</time></trkpt><trkpt lat="42.72740717037344" lon="12.538514565491942"><ele>239.0</ele><time>2026-04-27T10:21:48.999Z</time></trkpt><trkpt lat="42.727549025596545" lon="12.53848329868658"><ele>239.0</ele><time>2026-04-27T10:21:49.999Z</time></trkpt><trkpt lat="42.72770228532212" lon="12.538442196390289"><ele>239.0</ele><time>2026-04-27T10:21:50.999Z</time></trkpt><trkpt lat="42.72785997521895" lon="12.538395596979525"><ele>237.66666666666669</ele><time>2026-04-27T10:21:51.999Z</time></trkpt><trkpt lat="42.728016398162616" lon="12.538344333430345"><ele>236.33333333333331</ele><time>2026-04-27T10:21:52.999Z</time></trkpt><trkpt lat="42.7281771235473" lon="12.53828903322461"><ele>235.0</ele><time>2026-04-27T10:21:53.999Z</time></trkpt><trkpt lat="42.728342338061005" lon="12.538226210269782"><ele>235.0</ele><time>2026-04-27T10:21:54.999Z</time></trkpt><trkpt lat="42.72851543986322" lon="12.53815821064179"><ele>235.0</ele><time>2026-04-27T10:21:55.999Z</time></trkpt><trkpt lat="42.728694540488135" lon="12.538088554127198"><ele>235.0</ele><time>2026-04-27T10:21:56.999Z</time></trkpt><trkpt lat="42.72888095821163" lon="12.538018986385154"><ele>235.0</ele><time>2026-04-27T10:21:57.999Z</time></trkpt><trkpt lat="42.72906217134716" lon="12.537951762853139"><ele>235.0</ele><time>2026-04-27T10:21:58.999Z</time></trkpt><trkpt lat="42.7292365763467" lon="12.537866111309995"><ele>235.0</ele><time>2026-04-27T10:21:59.999Z</time></trkpt><trkpt lat="42.729400213498344" lon="12.537812609147544"><ele>237.0</ele><time>2026-04-27T10:22:00.999Z</time></trkpt><trkpt lat="42.72955679665379" lon="12.537774971318406"><ele>239.0</ele><time>2026-04-27T10:22:01.999Z</time></trkpt><trkpt lat="42.729703277308474" lon="12.537757297462026"><ele>241.0</ele><time>2026-04-27T10:22:02.999Z</time></trkpt><trkpt lat="42.72984899586006" lon="12.537763517682285"><ele>241.0</ele><time>2026-04-27T10:22:03.999Z</time></trkpt><trkpt lat="42.73000450100387" lon="12.537792855355368"><ele>241.0</ele><time>2026-04-27T10:22:04.999Z</time></trkpt><trkpt lat="42.73016041600661" lon="12.537831129713505"><ele>241.0</ele><time>2026-04-27T10:22:05.999Z</time></trkpt><trkpt lat="42.73032070191928" lon="12.53787503081847"><ele>241.33333333333331</ele><time>2026-04-27T10:22:06.999Z</time></trkpt><trkpt lat="42.730487391278295" lon="12.537922786223563"><ele>241.66666666666669</ele><time>2026-04-27T10:22:07.999Z</time></trkpt><trkpt lat="42.730654202941984" lon="12.537971375096143"><ele>242.0</ele><time>2026-04-27T10:22:08.999Z</time></trkpt><trkpt lat="42.73082101036637" lon="12.538023066364095"><ele>242.0</ele><time>2026-04-27T10:22:09.999Z</time></trkpt><trkpt lat="42.73098006957531" lon="12.538066162069086"><ele>242.0</ele><time>2026-04-27T10:22:10.999Z</time></trkpt><trkpt lat="42.731131313591014" lon="12.538108715183334"><ele>242.0</ele><time>2026-04-27T10:22:11.999Z</time></trkpt><trkpt lat="42.73126930218292" lon="12.538145301242203"><ele>242.5</ele><time>2026-04-27T10:22:12.999Z</time></trkpt><trkpt lat="42.73139763082289" lon="12.53817363286463"><ele>243.0</ele><time>2026-04-27T10:22:13.999Z</time></trkpt><trkpt lat="42.73151951154963" lon="12.538189352044295"><ele>243.5</ele><time>2026-04-27T10:22:14.999Z</time></trkpt><trkpt lat="42.73163369120024" lon="12.538183614696589"><ele>244.0</ele><time>2026-04-27T10:22:15.999Z</time></trkpt><trkpt lat="42.73174941971616" lon="12.538142590735422"><ele>244.0</ele><time>2026-04-27T10:22:16.999Z</time></trkpt><trkpt lat="42.73186761749194" lon="12.538068416221517"><ele>244.0</ele><time>2026-04-27T10:22:17.999Z</time></trkpt><trkpt lat="42.73198356303215" lon="12.537966431225485"><ele>244.0</ele><time>2026-04-27T10:22:18.999Z</time></trkpt><trkpt lat="42.73210128812041" lon="12.537845335658647"><ele>244.0</ele><time>2026-04-27T10:22:19.999Z</time></trkpt><trkpt lat="42.73222948313685" lon="12.537737075343312"><ele>246.66666666666666</ele><time>2026-04-27T10:22:20.999Z</time></trkpt><trkpt lat="42.73237560822949" lon="12.537654675642706"><ele>249.33333333333331</ele><time>2026-04-27T10:22:21.999Z</time></trkpt><trkpt lat="42.73254279495257" lon="12.53758184633621"><ele>252.0</ele><time>2026-04-27T10:22:22.999Z</time></trkpt><trkpt lat="42.73271978330289" lon="12.537511928469616"><ele>250.66666666666669</ele><time>2026-04-27T10:22:23.999Z</time></trkpt><trkpt lat="42.73290300607457" lon="12.53744088296848"><ele>249.33333333333334</ele><time>2026-04-27T10:22:24.999Z</time></trkpt><trkpt lat="42.7330887243864" lon="12.537370025671489"><ele>248.0</ele><time>2026-04-27T10:22:25.999Z</time></trkpt><trkpt lat="42.733274578053376" lon="12.537301201655422"><ele>248.0</ele><time>2026-04-27T10:22:26.999Z</time></trkpt><trkpt lat="42.73344756461297" lon="12.537239773010539"><ele>248.0</ele><time>2026-04-27T10:22:27.999Z</time></trkpt><trkpt lat="42.7336191059585" lon="12.53720109040479"><ele>248.0</ele><time>2026-04-27T10:22:28.999Z</time></trkpt><trkpt lat="42.73379059180525" lon="12.537186142899749"><ele>248.66666666666669</ele><time>2026-04-27T10:22:29.999Z</time></trkpt><trkpt lat="42.733965056128994" lon="12.537192677516671"><ele>249.33333333333331</ele><time>2026-04-27T10:22:30.999Z</time></trkpt><trkpt lat="42.73414473433092" lon="12.537220023173894"><ele>250.0</ele><time>2026-04-27T10:22:31.999Z</time></trkpt><trkpt lat="42.73433042585344" lon="12.53725367863386"><ele>250.66666666666666</ele><time>2026-04-27T10:22:32.999Z</time></trkpt><trkpt lat="42.73452353302907" lon="12.537286213703716"><ele>251.33333333333331</ele><time>2026-04-27T10:22:33.999Z</time></trkpt><trkpt lat="42.73472831422606" lon="12.537319456825735"><ele>252.0</ele><time>2026-04-27T10:22:34.999Z</time></trkpt><trkpt lat="42.73493710586994" lon="12.5373591719083"><ele>252.0</ele><time>2026-04-27T10:22:35.999Z</time></trkpt><trkpt lat="42.73513945077544" lon="12.537396160304809"><ele>252.0</ele><time>2026-04-27T10:22:36.999Z</time></trkpt><trkpt lat="42.7353291447586" lon="12.537432934999583"><ele>252.0</ele><time>2026-04-27T10:22:37.999Z</time></trkpt><trkpt lat="42.73551153125381" lon="12.537466080638412"><ele>253.0</ele><time>2026-04-27T10:22:38.999Z</time></trkpt><trkpt lat="42.73568941686382" lon="12.53749799556711"><ele>254.0</ele><time>2026-04-27T10:22:39.999Z</time></trkpt><trkpt lat="42.735862751332384" lon="12.537531052559077"><ele>255.0</ele><time>2026-04-27T10:22:40.999Z</time></trkpt><trkpt lat="42.73603362611874" lon="12.537556935614102"><ele>256.6666666666667</ele><time>2026-04-27T10:22:41.999Z</time></trkpt><trkpt lat="42.73619325075752" lon="12.537573064498547"><ele>258.33333333333337</ele><time>2026-04-27T10:22:42.999Z</time></trkpt><trkpt lat="42.73635199871228" lon="12.537571980632258"><ele>260.0</ele><time>2026-04-27T10:22:43.999Z</time></trkpt><trkpt lat="42.73650971519096" lon="12.537547978332123"><ele>260.0</ele><time>2026-04-27T10:22:44.999Z</time></trkpt><trkpt lat="42.73666828478215" lon="12.537499921167443"><ele>260.0</ele><time>2026-04-27T10:22:45.999Z</time></trkpt><trkpt lat="42.73682541261601" lon="12.537437189111664"><ele>260.0</ele><time>2026-04-27T10:22:46.998Z</time></trkpt><trkpt lat="42.73698391524226" lon="12.537370651597042"><ele>260.33333333333337</ele><time>2026-04-27T10:22:47.998Z</time></trkpt><trkpt lat="42.737142135239004" lon="12.537316213571847"><ele>260.6666666666667</ele><time>2026-04-27T10:22:48.998Z</time></trkpt><trkpt lat="42.737298473380974" lon="12.537281787922357"><ele>261.0</ele><time>2026-04-27T10:22:49.998Z</time></trkpt><trkpt lat="42.73745719210092" lon="12.537270646839882"><ele>261.0</ele><time>2026-04-27T10:22:50.998Z</time></trkpt><trkpt lat="42.737623653065945" lon="12.537276454486543"><ele>261.0</ele><time>2026-04-27T10:22:51.998Z</time></trkpt><trkpt lat="42.737800437539654" lon="12.537290948431428"><ele>261.0</ele><time>2026-04-27T10:22:52.998Z</time></trkpt><trkpt lat="42.737983463332824" lon="12.53730560421093"><ele>261.0</ele><time>2026-04-27T10:22:53.998Z</time></trkpt><trkpt lat="42.738176466802585" lon="12.53732003066224"><ele>261.0</ele><time>2026-04-27T10:22:54.998Z</time></trkpt><trkpt lat="42.73837631811456" lon="12.537333909241186"><ele>261.0</ele><time>2026-04-27T10:22:55.999Z</time></trkpt><trkpt lat="42.73857618942254" lon="12.537347054512177"><ele>261.0</ele><time>2026-04-27T10:22:56.999Z</time></trkpt><trkpt lat="42.73877828811024" lon="12.537360075060281"><ele>261.0</ele><time>2026-04-27T10:22:57.999Z</time></trkpt><trkpt lat="42.73898172621346" lon="12.53737125887499"><ele>261.0</ele><time>2026-04-27T10:22:58.999Z</time></trkpt><trkpt lat="42.73918582590901" lon="12.537380805932838"><ele>262.3333333333333</ele><time>2026-04-27T10:22:59.999Z</time></trkpt><trkpt lat="42.73939402599542" lon="12.537391420444418"><ele>263.66666666666663</ele><time>2026-04-27T10:23:00.999Z</time></trkpt><trkpt lat="42.73960458534591" lon="12.537408252893146"><ele>265.0</ele><time>2026-04-27T10:23:01.999Z</time></trkpt><trkpt lat="42.73981821661786" lon="12.537422557249961"><ele>265.0</ele><time>2026-04-27T10:23:02.999Z</time></trkpt><trkpt lat="42.74003373650998" lon="12.537436173145977"><ele>265.0</ele><time>2026-04-27T10:23:03.999Z</time></trkpt><trkpt lat="42.74024889198343" lon="12.537446899093052"><ele>265.0</ele><time>2026-04-27T10:23:04.999Z</time></trkpt><trkpt lat="42.740466738124475" lon="12.53745994927715"><ele>265.3333333333333</ele><time>2026-04-27T10:23:05.999Z</time></trkpt><trkpt lat="42.74068549197987" lon="12.537471888406444"><ele>265.6666666666667</ele><time>2026-04-27T10:23:06.999Z</time></trkpt><trkpt lat="42.74090587762043" lon="12.537485888392307"><ele>266.0</ele><time>2026-04-27T10:23:07.999Z</time></trkpt><trkpt lat="42.74112595774421" lon="12.537502772458902"><ele>267.0</ele><time>2026-04-27T10:23:08.999Z</time></trkpt><trkpt lat="42.7413481989164" lon="12.53751715065107"><ele>268.0</ele><time>2026-04-27T10:23:09.999Z</time></trkpt><trkpt lat="42.74157189603483" lon="12.537532014796446"><ele>269.0</ele><time>2026-04-27T10:23:10.999Z</time></trkpt><trkpt lat="42.741797457775505" lon="12.537545935948419"><ele>270.6666666666667</ele><time>2026-04-27T10:23:11.999Z</time></trkpt><trkpt lat="42.742022215098466" lon="12.5375587742436"><ele>272.3333333333333</ele><time>2026-04-27T10:23:12.999Z</time></trkpt><trkpt lat="42.74224541056647" lon="12.53757212792776"><ele>274.0</ele><time>2026-04-27T10:23:13.999Z</time></trkpt><trkpt lat="42.742459432749726" lon="12.537585542254236"><ele>274.0</ele><time>2026-04-27T10:23:14.999Z</time></trkpt><trkpt lat="42.742661544399674" lon="12.537597426102192"><ele>274.0</ele><time>2026-04-27T10:23:15.999Z</time></trkpt><trkpt lat="42.74285044517802" lon="12.537610470336999"><ele>274.0</ele><time>2026-04-27T10:23:16.999Z</time></trkpt><trkpt lat="42.74302882872344" lon="12.537624647793955"><ele>274.0</ele><time>2026-04-27T10:23:17.999Z</time></trkpt><trkpt lat="42.743198011009746" lon="12.537635212718126"><ele>274.0</ele><time>2026-04-27T10:23:18.999Z</time></trkpt><trkpt lat="42.743365361144804" lon="12.53764606018975"><ele>274.0</ele><time>2026-04-27T10:23:19.999Z</time></trkpt><trkpt lat="42.74352049791867" lon="12.537658892765386"><ele>274.25</ele><time>2026-04-27T10:23:20.999Z</time></trkpt><trkpt lat="42.74366279687647" lon="12.537672526790677"><ele>274.5</ele><time>2026-04-27T10:23:21.999Z</time></trkpt><trkpt lat="42.743797826854696" lon="12.537676813899752"><ele>274.75</ele><time>2026-04-27T10:23:22.999Z</time></trkpt><trkpt lat="42.74393069855607" lon="12.537666407227057"><ele>275.0</ele><time>2026-04-27T10:23:23.999Z</time></trkpt><trkpt lat="42.74406378099002" lon="12.537635773187876"><ele>275.0</ele><time>2026-04-27T10:23:24.999Z</time></trkpt><trkpt lat="42.744195286065526" lon="12.537578911990105"><ele>275.0</ele><time>2026-04-27T10:23:25.999Z</time></trkpt><trkpt lat="42.74431580732453" lon="12.537489669785348"><ele>275.0</ele><time>2026-04-27T10:23:26.999Z</time></trkpt><trkpt lat="42.744419658231266" lon="12.537368568914689"><ele>275.0</ele><time>2026-04-27T10:23:27.999Z</time></trkpt><trkpt lat="42.74451026663108" lon="12.5372199991102"><ele>274.33333333333337</ele><time>2026-04-27T10:23:28.999Z</time></trkpt><trkpt lat="42.744593228924316" lon="12.537053673222687"><ele>273.6666666666667</ele><time>2026-04-27T10:23:29.999Z</time></trkpt><trkpt lat="42.744678661801146" lon="12.536877914511413"><ele>273.0</ele><time>2026-04-27T10:23:30.999Z</time></trkpt><trkpt lat="42.74477269156795" lon="12.536699979639659"><ele>274.3333333333333</ele><time>2026-04-27T10:23:31.999Z</time></trkpt><trkpt lat="42.74488363771834" lon="12.536524652778848"><ele>275.66666666666663</ele><time>2026-04-27T10:23:32.999Z</time></trkpt><trkpt lat="42.74500428378369" lon="12.53635384444432"><ele>277.0</ele><time>2026-04-27T10:23:33.999Z</time></trkpt><trkpt lat="42.74513805253359" lon="12.536204774037328"><ele>278.0</ele><time>2026-04-27T10:23:34.999Z</time></trkpt><trkpt lat="42.74528183634156" lon="12.536075254487915"><ele>279.0</ele><time>2026-04-27T10:23:35.999Z</time></trkpt><trkpt lat="42.74544524099542" lon="12.535951450683546"><ele>280.0</ele><time>2026-04-27T10:23:36.999Z</time></trkpt><trkpt lat="42.745621847805936" lon="12.535828571870795"><ele>280.0</ele><time>2026-04-27T10:23:37.999Z</time></trkpt><trkpt lat="42.74580351057289" lon="12.535701838143574"><ele>280.0</ele><time>2026-04-27T10:23:38.999Z</time></trkpt><trkpt lat="42.745986678262774" lon="12.535571224352795"><ele>280.0</ele><time>2026-04-27T10:23:39.999Z</time></trkpt><trkpt lat="42.7461695844327" lon="12.535439642341641"><ele>281.3333333333333</ele><time>2026-04-27T10:23:40.999Z</time></trkpt><trkpt lat="42.746346104914124" lon="12.53530998590584"><ele>282.6666666666667</ele><time>2026-04-27T10:23:41.999Z</time></trkpt><trkpt lat="42.74651950682191" lon="12.535180928461289"><ele>284.0</ele><time>2026-04-27T10:23:42.999Z</time></trkpt><trkpt lat="42.74669276760924" lon="12.535049533759173"><ele>284.0</ele><time>2026-04-27T10:23:43.999Z</time></trkpt><trkpt lat="42.74686785732308" lon="12.534922201585026"><ele>284.0</ele><time>2026-04-27T10:23:44.999Z</time></trkpt><trkpt lat="42.747043455664894" lon="12.534794142294867"><ele>284.0</ele><time>2026-04-27T10:23:45.999Z</time></trkpt><trkpt lat="42.747217634316165" lon="12.534665580848339"><ele>283.6666666666667</ele><time>2026-04-27T10:23:46.999Z</time></trkpt><trkpt lat="42.747391899024954" lon="12.53454228970092"><ele>283.3333333333333</ele><time>2026-04-27T10:23:47.999Z</time></trkpt><trkpt lat="42.747563751580934" lon="12.53442171336131"><ele>283.0</ele><time>2026-04-27T10:23:48.999Z</time></trkpt><trkpt lat="42.74772961925611" lon="12.534302695139308"><ele>281.3333333333333</ele><time>2026-04-27T10:23:49.999Z</time></trkpt><trkpt lat="42.747894096265654" lon="12.534182490932048"><ele>279.6666666666667</ele><time>2026-04-27T10:23:50.999Z</time></trkpt><trkpt lat="42.748056740066204" lon="12.534065044535526"><ele>278.0</ele><time>2026-04-27T10:23:51.999Z</time></trkpt><trkpt lat="42.74821647792518" lon="12.533949391763047"><ele>278.0</ele><time>2026-04-27T10:23:52.999Z</time></trkpt><trkpt lat="42.74837351017605" lon="12.533833555972896"><ele>278.0</ele><time>2026-04-27T10:23:53.999Z</time></trkpt><trkpt lat="42.74852039152251" lon="12.533725962268958"><ele>278.0</ele><time>2026-04-27T10:23:54.999Z</time></trkpt><trkpt lat="42.748662605791424" lon="12.533623044590778"><ele>279.33333333333337</ele><time>2026-04-27T10:23:55.999Z</time></trkpt><trkpt lat="42.74880269878323" lon="12.53351679377019"><ele>280.6666666666667</ele><time>2026-04-27T10:23:56.999Z</time></trkpt><trkpt lat="42.74893203639597" lon="12.533409968479598"><ele>282.0</ele><time>2026-04-27T10:23:57.999Z</time></trkpt><trkpt lat="42.74904582238797" lon="12.533294771512384"><ele>282.0</ele><time>2026-04-27T10:23:58.999Z</time></trkpt><trkpt lat="42.74914441432907" lon="12.533164671502284"><ele>282.0</ele><time>2026-04-27T10:23:59.999Z</time></trkpt><trkpt lat="42.749236613353915" lon="12.533012415454992"><ele>282.0</ele><time>2026-04-27T10:24:00.999Z</time></trkpt><trkpt lat="42.74933434409516" lon="12.53285585367376"><ele>282.0</ele><time>2026-04-27T10:24:01.999Z</time></trkpt><trkpt lat="42.74944267934816" lon="12.532706028460675"><ele>280.3333333333333</ele><time>2026-04-27T10:24:02.999Z</time></trkpt><trkpt lat="42.749564442599116" lon="12.532573801517112"><ele>278.66666666666663</ele><time>2026-04-27T10:24:03.999Z</time></trkpt><trkpt lat="42.74970216021071" lon="12.532464908122122"><ele>277.0</ele><time>2026-04-27T10:24:04.999Z</time></trkpt><trkpt lat="42.74985063645181" lon="12.532372595440354"><ele>277.0</ele><time>2026-04-27T10:24:05.999Z</time></trkpt><trkpt lat="42.750007252824346" lon="12.53228008402668"><ele>277.0</ele><time>2026-04-27T10:24:06.999Z</time></trkpt><trkpt lat="42.75017386438357" lon="12.532185844300955"><ele>277.0</ele><time>2026-04-27T10:24:07.999Z</time></trkpt><trkpt lat="42.75034265251977" lon="12.532086532294404"><ele>277.0</ele><time>2026-04-27T10:24:08.999Z</time></trkpt><trkpt lat="42.75051575962602" lon="12.531981563750685"><ele>277.0</ele><time>2026-04-27T10:24:09.999Z</time></trkpt><trkpt lat="42.75069145203202" lon="12.53187294312732"><ele>277.0</ele><time>2026-04-27T10:24:10.999Z</time></trkpt><trkpt lat="42.75088695663923" lon="12.531782457205566"><ele>276.66666666666663</ele><time>2026-04-27T10:24:11.999Z</time></trkpt><trkpt lat="42.7510841106618" lon="12.531670103906277"><ele>276.3333333333333</ele><time>2026-04-27T10:24:12.999Z</time></trkpt><trkpt lat="42.75127750421746" lon="12.531535429588393"><ele>276.0</ele><time>2026-04-27T10:24:13.999Z</time></trkpt><trkpt lat="42.75147652201011" lon="12.531427359023905"><ele>276.0</ele><time>2026-04-27T10:24:14.999Z</time></trkpt><trkpt lat="42.75167315336248" lon="12.531317730308764"><ele>276.0</ele><time>2026-04-27T10:24:15.999Z</time></trkpt><trkpt lat="42.75187264550282" lon="12.531206015534934"><ele>276.0</ele><time>2026-04-27T10:24:16.999Z</time></trkpt><trkpt lat="42.75206862022304" lon="12.531094075936732"><ele>276.0</ele><time>2026-04-27T10:24:17.999Z</time></trkpt><trkpt lat="42.7522644965498" lon="12.530978281028188"><ele>276.0</ele><time>2026-04-27T10:24:18.999Z</time></trkpt><trkpt lat="42.752457515816445" lon="12.530860105846978"><ele>276.0</ele><time>2026-04-27T10:24:19.999Z</time></trkpt><trkpt lat="42.752656232749665" lon="12.530765547618413"><ele>276.3333333333333</ele><time>2026-04-27T10:24:20.999Z</time></trkpt><trkpt lat="42.752853080987975" lon="12.530650648337055"><ele>276.66666666666663</ele><time>2026-04-27T10:24:21.999Z</time></trkpt><trkpt lat="42.75305473309251" lon="12.530533221701461"><ele>277.0</ele><time>2026-04-27T10:24:22.999Z</time></trkpt><trkpt lat="42.75326698747459" lon="12.530412737585385"><ele>277.0</ele><time>2026-04-27T10:24:23.999Z</time></trkpt><trkpt lat="42.753483967513844" lon="12.530289571071267"><ele>277.0</ele><time>2026-04-27T10:24:24.999Z</time></trkpt><trkpt lat="42.7537065938066" lon="12.530163199568985"><ele>277.0</ele><time>2026-04-27T10:24:25.999Z</time></trkpt><trkpt lat="42.75393224408714" lon="12.53003393841176"><ele>277.0</ele><time>2026-04-27T10:24:26.999Z</time></trkpt><trkpt lat="42.75415755339233" lon="12.529891386075333"><ele>279.0</ele><time>2026-04-27T10:24:27.999Z</time></trkpt><trkpt lat="42.75438633099205" lon="12.529768186517783"><ele>281.0</ele><time>2026-04-27T10:24:28.999Z</time></trkpt><trkpt lat="42.754610475984094" lon="12.529643444967006"><ele>280.5</ele><time>2026-04-27T10:24:29.999Z</time></trkpt><trkpt lat="42.754825320876186" lon="12.529519348150833"><ele>280.0</ele><time>2026-04-27T10:24:30.999Z</time></trkpt><trkpt lat="42.75503500594131" lon="12.529399062146062"><ele>280.3333333333333</ele><time>2026-04-27T10:24:31.999Z</time></trkpt><trkpt lat="42.755238332101285" lon="12.529282161246998"><ele>280.6666666666667</ele><time>2026-04-27T10:24:32.999Z</time></trkpt><trkpt lat="42.75544073844318" lon="12.529165862578004"><ele>281.0</ele><time>2026-04-27T10:24:33.999Z</time></trkpt><trkpt lat="42.755615875577796" lon="12.529063573541164"><ele>281.0</ele><time>2026-04-27T10:24:34.999Z</time></trkpt><trkpt lat="42.75574702471138" lon="12.528985980595248"><ele>281.0</ele><time>2026-04-27T10:24:35.999Z</time></trkpt><trkpt lat="42.75588764946296" lon="12.528907119437012"><ele>281.0</ele><time>2026-04-27T10:24:36.999Z</time></trkpt><trkpt lat="42.75603962597549" lon="12.528818954865526"><ele>281.6666666666667</ele><time>2026-04-27T10:24:37.999Z</time></trkpt><trkpt lat="42.75619803776403" lon="12.528730232043285"><ele>282.3333333333333</ele><time>2026-04-27T10:24:38.999Z</time></trkpt><trkpt lat="42.756361092906154" lon="12.528638574458208"><ele>283.0</ele><time>2026-04-27T10:24:39.999Z</time></trkpt><trkpt lat="42.756530294515244" lon="12.528543019423521"><ele>283.0</ele><time>2026-04-27T10:24:40.999Z</time></trkpt><trkpt lat="42.75670376770607" lon="12.528443040663172"><ele>283.0</ele><time>2026-04-27T10:24:41.999Z</time></trkpt><trkpt lat="42.75687957514391" lon="12.52834192955753"><ele>283.0</ele><time>2026-04-27T10:24:42.999Z</time></trkpt><trkpt lat="42.757057070806674" lon="12.528242725758842"><ele>283.66666666666663</ele><time>2026-04-27T10:24:43.999Z</time></trkpt><trkpt lat="42.75723582155654" lon="12.528141536856781"><ele>284.3333333333333</ele><time>2026-04-27T10:24:44.999Z</time></trkpt><trkpt lat="42.757410860042945" lon="12.528038922263933"><ele>285.0</ele><time>2026-04-27T10:24:45.999Z</time></trkpt><trkpt lat="42.75758637853146" lon="12.527940852033705"><ele>285.3333333333333</ele><time>2026-04-27T10:24:46.999Z</time></trkpt><trkpt lat="42.757760389793354" lon="12.527840311514613"><ele>285.66666666666663</ele><time>2026-04-27T10:24:47.999Z</time></trkpt><trkpt lat="42.75793314920796" lon="12.527742236264652"><ele>286.0</ele><time>2026-04-27T10:24:48.999Z</time></trkpt><trkpt lat="42.75810336549375" lon="12.527641545812106"><ele>286.0</ele><time>2026-04-27T10:24:49.999Z</time></trkpt><trkpt lat="42.758273070158666" lon="12.527542537412616"><ele>286.0</ele><time>2026-04-27T10:24:50.999Z</time></trkpt><trkpt lat="42.75844137282162" lon="12.527447565160813"><ele>286.0</ele><time>2026-04-27T10:24:51.999Z</time></trkpt><trkpt lat="42.75861026993475" lon="12.527351534969904"><ele>287.0</ele><time>2026-04-27T10:24:52.999Z</time></trkpt><trkpt lat="42.758778624689036" lon="12.527256623928299"><ele>288.0</ele><time>2026-04-27T10:24:53.999Z</time></trkpt><trkpt lat="42.758943367138755" lon="12.527161058854585"><ele>289.0</ele><time>2026-04-27T10:24:54.999Z</time></trkpt><trkpt lat="42.75910912729926" lon="12.527066707824844"><ele>289.66666666666663</ele><time>2026-04-27T10:24:55.999Z</time></trkpt><trkpt lat="42.75927228369653" lon="12.526973235819206"><ele>290.3333333333333</ele><time>2026-04-27T10:24:56.999Z</time></trkpt><trkpt lat="42.75943452985234" lon="12.526880495301466"><ele>291.0</ele><time>2026-04-27T10:24:57.999Z</time></trkpt><trkpt lat="42.75959460272067" lon="12.526787400117142"><ele>291.0</ele><time>2026-04-27T10:24:58.999Z</time></trkpt><trkpt lat="42.759755450418886" lon="12.526690781446312"><ele>291.0</ele><time>2026-04-27T10:25:00Z</time></trkpt><trkpt lat="42.759915727795864" lon="12.526599815158852"><ele>291.0</ele><time>2026-04-27T10:25:01Z</time></trkpt><trkpt lat="42.760079731676306" lon="12.526507838470739"><ele>293.3333333333333</ele><time>2026-04-27T10:25:02Z</time></trkpt><trkpt lat="42.76024310351149" lon="12.526416840068835"><ele>295.66666666666663</ele><time>2026-04-27T10:25:03Z</time></trkpt><trkpt lat="42.760404394427326" lon="12.526323518171777"><ele>298.0</ele><time>2026-04-27T10:25:04Z</time></trkpt><trkpt lat="42.76056381254457" lon="12.52623201199335"><ele>297.66666666666663</ele><time>2026-04-27T10:25:05Z</time></trkpt><trkpt lat="42.76072591679814" lon="12.526136198784544"><ele>297.3333333333333</ele><time>2026-04-27T10:25:06Z</time></trkpt><trkpt lat="42.76088670250512" lon="12.526043908516254"><ele>297.0</ele><time>2026-04-27T10:25:07Z</time></trkpt><trkpt lat="42.761048094600206" lon="12.525953408385414"><ele>297.0</ele><time>2026-04-27T10:25:08Z</time></trkpt><trkpt lat="42.76120946097101" lon="12.525861460714"><ele>297.0</ele><time>2026-04-27T10:25:09Z</time></trkpt><trkpt lat="42.7613715729539" lon="12.525768509264777"><ele>297.0</ele><time>2026-04-27T10:25:10Z</time></trkpt><trkpt lat="42.76153352636415" lon="12.525674042310232"><ele>297.0</ele><time>2026-04-27T10:25:11Z</time></trkpt><trkpt lat="42.76169537240402" lon="12.525579755851153"><ele>297.0</ele><time>2026-04-27T10:25:12Z</time></trkpt><trkpt lat="42.76185632544724" lon="12.525486758882373"><ele>297.0</ele><time>2026-04-27T10:25:13Z</time></trkpt><trkpt lat="42.76201676838176" lon="12.525395678354315"><ele>298.0</ele><time>2026-04-27T10:25:14Z</time></trkpt><trkpt lat="42.762177810225026" lon="12.525305075714682"><ele>299.0</ele><time>2026-04-27T10:25:15Z</time></trkpt><trkpt lat="42.76233762336328" lon="12.525212967403817"><ele>300.0</ele><time>2026-04-27T10:25:16Z</time></trkpt><trkpt lat="42.76250002273481" lon="12.525120063954244"><ele>300.0</ele><time>2026-04-27T10:25:17Z</time></trkpt><trkpt lat="42.76266332809237" lon="12.525028062282258"><ele>300.0</ele><time>2026-04-27T10:25:18Z</time></trkpt><trkpt lat="42.76283012668467" lon="12.524932459555144"><ele>300.0</ele><time>2026-04-27T10:25:19Z</time></trkpt><trkpt lat="42.76299714255148" lon="12.5248354426115"><ele>301.6666666666667</ele><time>2026-04-27T10:25:20Z</time></trkpt><trkpt lat="42.763167147972545" lon="12.52473823742662"><ele>303.33333333333337</ele><time>2026-04-27T10:25:21Z</time></trkpt><trkpt lat="42.76334029799936" lon="12.524636775789716"><ele>305.0</ele><time>2026-04-27T10:25:22Z</time></trkpt><trkpt lat="42.763515516666" lon="12.524537776699137"><ele>304.6666666666667</ele><time>2026-04-27T10:25:23Z</time></trkpt><trkpt lat="42.76369076308574" lon="12.524437293021307"><ele>304.3333333333333</ele><time>2026-04-27T10:25:24Z</time></trkpt><trkpt lat="42.763868679197024" lon="12.524337575902836"><ele>304.0</ele><time>2026-04-27T10:25:25Z</time></trkpt><trkpt lat="42.7640471038481" lon="12.524234764025929"><ele>304.0</ele><time>2026-04-27T10:25:26Z</time></trkpt><trkpt lat="42.764227933431386" lon="12.524130840266766"><ele>304.0</ele><time>2026-04-27T10:25:27Z</time></trkpt><trkpt lat="42.76440914484078" lon="12.5240259595453"><ele>304.0</ele><time>2026-04-27T10:25:28Z</time></trkpt><trkpt lat="42.76459145327281" lon="12.523921003055172"><ele>304.3333333333333</ele><time>2026-04-27T10:25:29Z</time></trkpt><trkpt lat="42.76477466114728" lon="12.523814495493982"><ele>304.6666666666667</ele><time>2026-04-27T10:25:30Z</time></trkpt><trkpt lat="42.764962771202796" lon="12.523707470475271"><ele>305.0</ele><time>2026-04-27T10:25:31Z</time></trkpt><trkpt lat="42.765148310271314" lon="12.523603303062078"><ele>306.33333333333337</ele><time>2026-04-27T10:25:32Z</time></trkpt><trkpt lat="42.76533280906393" lon="12.523497578742155"><ele>307.6666666666667</ele><time>2026-04-27T10:25:33Z</time></trkpt><trkpt lat="42.76551531174753" lon="12.523390886677532"><ele>309.0</ele><time>2026-04-27T10:25:34Z</time></trkpt><trkpt lat="42.76569700674195" lon="12.523284865625646"><ele>309.0</ele><time>2026-04-27T10:25:35Z</time></trkpt><trkpt lat="42.76587384890396" lon="12.523182556755534"><ele>309.0</ele><time>2026-04-27T10:25:36Z</time></trkpt><trkpt lat="42.766041990484155" lon="12.523082958216017"><ele>309.0</ele><time>2026-04-27T10:25:37Z</time></trkpt><trkpt lat="42.76620021594239" lon="12.52298937062713"><ele>309.6666666666667</ele><time>2026-04-27T10:25:38Z</time></trkpt><trkpt lat="42.76634999205842" lon="12.52289961504675"><ele>310.33333333333337</ele><time>2026-04-27T10:25:39Z</time></trkpt><trkpt lat="42.76648787041769" lon="12.522817337732208"><ele>311.0</ele><time>2026-04-27T10:25:40Z</time></trkpt><trkpt lat="42.766617063628445" lon="12.522739675286758"><ele>311.0</ele><time>2026-04-27T10:25:41Z</time></trkpt><trkpt lat="42.76674269767055" lon="12.522673473097905"><ele>311.0</ele><time>2026-04-27T10:25:42Z</time></trkpt><trkpt lat="42.76687276058264" lon="12.522618460718382"><ele>311.0</ele><time>2026-04-27T10:25:43Z</time></trkpt><trkpt lat="42.76701116812139" lon="12.52258432266414"><ele>311.0</ele><time>2026-04-27T10:25:44Z</time></trkpt><trkpt lat="42.767154549688925" lon="12.522582776270202"><ele>312.33333333333337</ele><time>2026-04-27T10:25:45Z</time></trkpt><trkpt lat="42.76730241290309" lon="12.52260398586157"><ele>313.6666666666667</ele><time>2026-04-27T10:25:46Z</time></trkpt><trkpt lat="42.7674524810993" lon="12.522645649732475"><ele>315.0</ele><time>2026-04-27T10:25:47Z</time></trkpt><trkpt lat="42.76760100315757" lon="12.522706157335806"><ele>316.3333333333333</ele><time>2026-04-27T10:25:48Z</time></trkpt><trkpt lat="42.767747995691515" lon="12.522771343852048"><ele>317.66666666666663</ele><time>2026-04-27T10:25:49Z</time></trkpt><trkpt lat="42.76789773890043" lon="12.522836982070366"><ele>319.0</ele><time>2026-04-27T10:25:50Z</time></trkpt><trkpt lat="42.76804762426462" lon="12.522903792221467"><ele>319.66666666666663</ele><time>2026-04-27T10:25:51Z</time></trkpt><trkpt lat="42.76819972669835" lon="12.522973988444248"><ele>320.3333333333333</ele><time>2026-04-27T10:25:52Z</time></trkpt><trkpt lat="42.76835217925531" lon="12.523044143772399"><ele>321.0</ele><time>2026-04-27T10:25:53Z</time></trkpt><trkpt lat="42.76850515466784" lon="12.523112066588213"><ele>321.6666666666667</ele><time>2026-04-27T10:25:54Z</time></trkpt><trkpt lat="42.768659347656126" lon="12.523180507784293"><ele>322.33333333333337</ele><time>2026-04-27T10:25:55Z</time></trkpt><trkpt lat="42.76881171894709" lon="12.523246141274297"><ele>323.0</ele><time>2026-04-27T10:25:56Z</time></trkpt><trkpt lat="42.76896339143108" lon="12.523313058667041"><ele>323.0</ele><time>2026-04-27T10:25:57Z</time></trkpt><trkpt lat="42.769115414549596" lon="12.523380000688478"><ele>323.0</ele><time>2026-04-27T10:25:58Z</time></trkpt><trkpt lat="42.76926523482857" lon="12.523447495316066"><ele>323.0</ele><time>2026-04-27T10:25:59Z</time></trkpt><trkpt lat="42.769415142007226" lon="12.52351413107049"><ele>324.0</ele><time>2026-04-27T10:26:00Z</time></trkpt><trkpt lat="42.76956107030561" lon="12.523579529901887"><ele>325.0</ele><time>2026-04-27T10:26:01Z</time></trkpt><trkpt lat="42.76970416818578" lon="12.523642482265577"><ele>326.0</ele><time>2026-04-27T10:26:02Z</time></trkpt><trkpt lat="42.76984241662164" lon="12.523702632396455"><ele>327.0</ele><time>2026-04-27T10:26:03Z</time></trkpt><trkpt lat="42.76997650732452" lon="12.523763253520167"><ele>327.25</ele><time>2026-04-27T10:26:04Z</time></trkpt><trkpt lat="42.77010648753138" lon="12.52381914973594"><ele>327.5</ele><time>2026-04-27T10:26:05Z</time></trkpt><trkpt lat="42.77023016319499" lon="12.523874156149384"><ele>327.75</ele><time>2026-04-27T10:26:06Z</time></trkpt><trkpt lat="42.77034190098657" lon="12.52392644382163"><ele>328.0</ele><time>2026-04-27T10:26:07Z</time></trkpt><trkpt lat="42.77044319625688" lon="12.523975069327903"><ele>328.3333333333333</ele><time>2026-04-27T10:26:08Z</time></trkpt><trkpt lat="42.77053399090265" lon="12.524019759260598"><ele>328.66666666666663</ele><time>2026-04-27T10:26:09Z</time></trkpt><trkpt lat="42.770611307028894" lon="12.524067892803219"><ele>329.0</ele><time>2026-04-27T10:26:10Z</time></trkpt><trkpt lat="42.77066766327505" lon="12.524123951065695"><ele>329.3333333333333</ele><time>2026-04-27T10:26:11Z</time></trkpt><trkpt lat="42.7707088197658" lon="12.524195125791147"><ele>329.6666666666667</ele><time>2026-04-27T10:26:12Z</time></trkpt><trkpt lat="42.77073942767003" lon="12.52427629637303"><ele>330.0</ele><time>2026-04-27T10:26:13Z</time></trkpt><trkpt lat="42.770772650263005" lon="12.524358318714993"><ele>330.0</ele><time>2026-04-27T10:26:14Z</time></trkpt><trkpt lat="42.77082688112505" lon="12.524406532597789"><ele>330.0</ele><time>2026-04-27T10:26:15Z</time></trkpt><trkpt lat="42.7708892118844" lon="12.524421786024396"><ele>330.0</ele><time>2026-04-27T10:26:16Z</time></trkpt><trkpt lat="42.77095899897439" lon="12.524403843748518"><ele>330.0</ele><time>2026-04-27T10:26:17Z</time></trkpt><trkpt lat="42.77103570500142" lon="12.524355735441347"><ele>330.0</ele><time>2026-04-27T10:26:18Z</time></trkpt><trkpt lat="42.77107169643342" lon="12.524266921473007"><ele>330.0</ele><time>2026-04-27T10:26:19Z</time></trkpt><trkpt lat="42.771204485688905" lon="12.52430924261311"><ele>330.2</ele><time>2026-04-27T10:26:20Z</time></trkpt><trkpt lat="42.77129305012452" lon="12.524325015332897"><ele>330.4</ele><time>2026-04-27T10:26:21Z</time></trkpt><trkpt lat="42.77137881004233" lon="12.524367742757445"><ele>330.6</ele><time>2026-04-27T10:26:22Z</time></trkpt><trkpt lat="42.77147347551166" lon="12.524414597121334"><ele>330.8</ele><time>2026-04-27T10:26:23Z</time></trkpt><trkpt lat="42.77157628331452" lon="12.52446298876355"><ele>331.0</ele><time>2026-04-27T10:26:24Z</time></trkpt><trkpt lat="42.77168229429745" lon="12.524510500498694"><ele>331.0</ele><time>2026-04-27T10:26:25Z</time></trkpt><trkpt lat="42.771791525839376" lon="12.524561062268258"><ele>331.0</ele><time>2026-04-27T10:26:26Z</time></trkpt><trkpt lat="42.77189938907402" lon="12.524612698974412"><ele>331.0</ele><time>2026-04-27T10:26:27Z</time></trkpt><trkpt lat="42.77200773177282" lon="12.524662067621662"><ele>331.0</ele><time>2026-04-27T10:26:28Z</time></trkpt><trkpt lat="42.77211527293892" lon="12.524708249301582"><ele>331.66666666666663</ele><time>2026-04-27T10:26:29Z</time></trkpt><trkpt lat="42.77221538577998" lon="12.524747981152988"><ele>332.3333333333333</ele><time>2026-04-27T10:26:30Z</time></trkpt><trkpt lat="42.77231038940171" lon="12.52478656024989"><ele>333.0</ele><time>2026-04-27T10:26:31Z</time></trkpt><trkpt lat="42.772395850531375" lon="12.524815791568178"><ele>333.6666666666667</ele><time>2026-04-27T10:26:32Z</time></trkpt><trkpt lat="42.772471996658275" lon="12.524843253160174"><ele>334.33333333333337</ele><time>2026-04-27T10:26:33Z</time></trkpt><trkpt lat="42.77253353591138" lon="12.524879893643378"><ele>335.0</ele><time>2026-04-27T10:26:34Z</time></trkpt><trkpt lat="42.772595591260135" lon="12.524930243348457"><ele>335.0</ele><time>2026-04-27T10:26:35Z</time></trkpt><trkpt lat="42.77265854440268" lon="12.52498742755014"><ele>335.0</ele><time>2026-04-27T10:26:36Z</time></trkpt><trkpt lat="42.772732073079446" lon="12.525018417742944"><ele>335.0</ele><time>2026-04-27T10:26:37Z</time></trkpt><trkpt lat="42.77282211881755" lon="12.525025479262675"><ele>335.0</ele><time>2026-04-27T10:26:38Z</time></trkpt><trkpt lat="42.77291929423209" lon="12.525050746401014"><ele>335.0</ele><time>2026-04-27T10:26:39Z</time></trkpt><trkpt lat="42.77303380948242" lon="12.525100044091543"><ele>335.75</ele><time>2026-04-27T10:26:40Z</time></trkpt><trkpt lat="42.7731540341605" lon="12.525155044724116"><ele>336.5</ele><time>2026-04-27T10:26:41Z</time></trkpt><trkpt lat="42.77327430625727" lon="12.525206948675242"><ele>337.25</ele><time>2026-04-27T10:26:42Z</time></trkpt><trkpt lat="42.77339495811552" lon="12.525259352691442"><ele>338.0</ele><time>2026-04-27T10:26:43Z</time></trkpt><trkpt lat="42.773516489202756" lon="12.52531185718198"><ele>338.75</ele><time>2026-04-27T10:26:44Z</time></trkpt><trkpt lat="42.7736390516189" lon="12.525366592666316"><ele>339.5</ele><time>2026-04-27T10:26:45Z</time></trkpt><trkpt lat="42.77376191613499" lon="12.525422475757674"><ele>340.25</ele><time>2026-04-27T10:26:46Z</time></trkpt><trkpt lat="42.77388456614243" lon="12.525477977820362"><ele>341.0</ele><time>2026-04-27T10:26:47Z</time></trkpt><trkpt lat="42.77400992560918" lon="12.5255336059007"><ele>341.5</ele><time>2026-04-27T10:26:48Z</time></trkpt><trkpt lat="42.77413444611706" lon="12.525590155579271"><ele>342.0</ele><time>2026-04-27T10:26:49Z</time></trkpt><trkpt lat="42.77426102142979" lon="12.52564634138732"><ele>342.5</ele><time>2026-04-27T10:26:50Z</time></trkpt><trkpt lat="42.7743868708737" lon="12.52570132047571"><ele>343.0</ele><time>2026-04-27T10:26:51Z</time></trkpt><trkpt lat="42.774512718282885" lon="12.525755806476111"><ele>343.5</ele><time>2026-04-27T10:26:52Z</time></trkpt><trkpt lat="42.77463885587706" lon="12.525811277648693"><ele>344.0</ele><time>2026-04-27T10:26:53Z</time></trkpt><trkpt lat="42.77476680303537" lon="12.525869143931802"><ele>344.5</ele><time>2026-04-27T10:26:54Z</time></trkpt><trkpt lat="42.77489474552603" lon="12.525926135981111"><ele>345.0</ele><time>2026-04-27T10:26:55Z</time></trkpt><trkpt lat="42.77502307636881" lon="12.525982938164196"><ele>345.0</ele><time>2026-04-27T10:26:56Z</time></trkpt><trkpt lat="42.775152363129635" lon="12.526041028665784"><ele>345.0</ele><time>2026-04-27T10:26:57Z</time></trkpt><trkpt lat="42.77528062932981" lon="12.52609689890276"><ele>345.0</ele><time>2026-04-27T10:26:58Z</time></trkpt><trkpt lat="42.77540627763726" lon="12.526152049625317"><ele>345.0</ele><time>2026-04-27T10:26:59Z</time></trkpt><trkpt lat="42.775527348518075" lon="12.526206661774554"><ele>346.0</ele><time>2026-04-27T10:27:00Z</time></trkpt><trkpt lat="42.77563559095638" lon="12.526256780114265"><ele>347.0</ele><time>2026-04-27T10:27:01Z</time></trkpt><trkpt lat="42.77573313313306" lon="12.526298530640222"><ele>348.0</ele><time>2026-04-27T10:27:02Z</time></trkpt><trkpt lat="42.775821616881586" lon="12.526328839413168"><ele>349.0</ele><time>2026-04-27T10:27:03Z</time></trkpt><trkpt lat="42.775910321440996" lon="12.526340020945009"><ele>350.0</ele><time>2026-04-27T10:27:04Z</time></trkpt><trkpt lat="42.77599526654706" lon="12.526319847179321"><ele>350.4</ele><time>2026-04-27T10:27:05Z</time></trkpt><trkpt lat="42.77608172891958" lon="12.526265649181232"><ele>350.8</ele><time>2026-04-27T10:27:06Z</time></trkpt><trkpt lat="42.77615741020023" lon="12.526176614847513"><ele>351.20000000000005</ele><time>2026-04-27T10:27:07Z</time></trkpt><trkpt lat="42.7762202188796" lon="12.526075640473415"><ele>351.6</ele><time>2026-04-27T10:27:08Z</time></trkpt><trkpt lat="42.77628862165458" lon="12.5259648947328"><ele>352.0</ele><time>2026-04-27T10:27:09Z</time></trkpt><trkpt lat="42.77636153481776" lon="12.525857488128816"><ele>352.0</ele><time>2026-04-27T10:27:10Z</time></trkpt><trkpt lat="42.776431956657554" lon="12.52575035845956"><ele>352.0</ele><time>2026-04-27T10:27:11Z</time></trkpt><trkpt lat="42.77649734217027" lon="12.525648112637596"><ele>352.0</ele><time>2026-04-27T10:27:12Z</time></trkpt><trkpt lat="42.77655229439731" lon="12.525545240740362"><ele>352.0</ele><time>2026-04-27T10:27:13Z</time></trkpt><trkpt lat="42.776588084604946" lon="12.52543387915381"><ele>352.0</ele><time>2026-04-27T10:27:14Z</time></trkpt><trkpt lat="42.77660820921501" lon="12.525319892723477"><ele>351.8333333333333</ele><time>2026-04-27T10:27:15Z</time></trkpt><trkpt lat="42.776609510632646" lon="12.525205565090241"><ele>351.66666666666663</ele><time>2026-04-27T10:27:16Z</time></trkpt><trkpt lat="42.77659769517411" lon="12.52509575679283"><ele>351.5</ele><time>2026-04-27T10:27:17Z</time></trkpt><trkpt lat="42.77658030612065" lon="12.524994613767154"><ele>351.3333333333333</ele><time>2026-04-27T10:27:18Z</time></trkpt><trkpt lat="42.776562130452895" lon="12.524904384104598"><ele>351.1666666666667</ele><time>2026-04-27T10:27:19Z</time></trkpt><trkpt lat="42.776543155339546" lon="12.524768926026761"><ele>351.0</ele><time>2026-04-27T10:27:21Z</time></trkpt><trkpt lat="42.77660311277595" lon="12.524695900816575"><ele>351.0</ele><time>2026-04-27T10:27:24Z</time></trkpt><trkpt lat="42.77665003637589" lon="12.524768845407896"><ele>351.0</ele><time>2026-04-27T10:27:26Z</time></trkpt><trkpt lat="42.77669739271185" lon="12.52482803760959"><ele>351.0</ele><time>2026-04-27T10:27:27Z</time></trkpt><trkpt lat="42.77673607575377" lon="12.52490040482285"><ele>351.0</ele><time>2026-04-27T10:27:28Z</time></trkpt><trkpt lat="42.776781610705946" lon="12.524975476185892"><ele>351.0</ele><time>2026-04-27T10:27:29Z</time></trkpt><trkpt lat="42.77684479901292" lon="12.525090530929232"><ele>351.0</ele><time>2026-04-27T10:27:31Z</time></trkpt><trkpt lat="42.77687144733689" lon="12.52519850580315"><ele>351.0</ele><time>2026-04-27T10:27:34Z</time></trkpt><trkpt lat="42.776810950675824" lon="12.52530571107001"><ele>351.0</ele><time>2026-04-27T10:27:36Z</time></trkpt><trkpt lat="42.77677755136324" lon="12.525391601923632"><ele>351.0</ele><time>2026-04-27T10:27:38Z</time></trkpt><trkpt lat="42.7767275053877" lon="12.525446291599232"><ele>351.0</ele><time>2026-04-27T10:27:41Z</time></trkpt><trkpt lat="42.7766633440276" lon="12.525462053980583"><ele>351.0</ele><time>2026-04-27T10:27:44Z</time></trkpt><trkpt lat="42.77661060245711" lon="12.525355734259927"><ele>351.0</ele><time>2026-04-27T10:27:46Z</time></trkpt><trkpt lat="42.776606073154646" lon="12.525233571628098"><ele>351.0</ele><time>2026-04-27T10:27:48Z</time></trkpt><trkpt lat="42.77660010043938" lon="12.525145702497401"><ele>351.0</ele><time>2026-04-27T10:27:49Z</time></trkpt><trkpt lat="42.776582391916904" lon="12.524979289766394"><ele>351.0</ele><time>2026-04-27T10:27:51Z</time></trkpt><trkpt lat="42.77657161942065" lon="12.524892679461745"><ele>351.0</ele><time>2026-04-27T10:27:52Z</time></trkpt><trkpt lat="42.77655711372704" lon="12.524806020945267"><ele>351.0</ele><time>2026-04-27T10:27:53Z</time></trkpt><trkpt lat="42.77654472576824" lon="12.524715726621288"><ele>351.0</ele><time>2026-04-27T10:27:54Z</time></trkpt><trkpt lat="42.77653064745196" lon="12.524619897635366"><ele>351.1666666666667</ele><time>2026-04-27T10:27:55Z</time></trkpt><trkpt lat="42.776517805645135" lon="12.524527448965758"><ele>351.3333333333333</ele><time>2026-04-27T10:27:56Z</time></trkpt><trkpt lat="42.77650847075144" lon="12.5244387297924"><ele>351.5</ele><time>2026-04-27T10:27:57Z</time></trkpt><trkpt lat="42.77650973687427" lon="12.524351419004862"><ele>351.66666666666663</ele><time>2026-04-27T10:27:58Z</time></trkpt><trkpt lat="42.776570030693975" lon="12.52420294478326"><ele>351.8333333333333</ele><time>2026-04-27T10:28:00Z</time></trkpt><trkpt lat="42.776686041606716" lon="12.524161034489232"><ele>352.0</ele><time>2026-04-27T10:28:02Z</time></trkpt><trkpt lat="42.77675490665137" lon="12.524199210419889"><ele>352.0</ele><time>2026-04-27T10:28:03Z</time></trkpt><trkpt lat="42.77682519412342" lon="12.524270585330878"><ele>352.0</ele><time>2026-04-27T10:28:04Z</time></trkpt><trkpt lat="42.77689691156923" lon="12.524355628407976"><ele>352.0</ele><time>2026-04-27T10:28:05Z</time></trkpt><trkpt lat="42.77698229166962" lon="12.524452627603413"><ele>352.0</ele><time>2026-04-27T10:28:06Z</time></trkpt><trkpt lat="42.77708136539739" lon="12.524561738621646"><ele>352.0</ele><time>2026-04-27T10:28:07Z</time></trkpt><trkpt lat="42.777183271730145" lon="12.524678553393368"><ele>353.25</ele><time>2026-04-27T10:28:08Z</time></trkpt><trkpt lat="42.77729102347167" lon="12.524802233630844"><ele>354.5</ele><time>2026-04-27T10:28:09Z</time></trkpt><trkpt lat="42.77740619963895" lon="12.524930985019726"><ele>355.75</ele><time>2026-04-27T10:28:10Z</time></trkpt><trkpt lat="42.77752415859744" lon="12.525063862842874"><ele>357.0</ele><time>2026-04-27T10:28:11Z</time></trkpt><trkpt lat="42.77764214139446" lon="12.525195398014601"><ele>357.25</ele><time>2026-04-27T10:28:12Z</time></trkpt><trkpt lat="42.77775486012583" lon="12.52531840986808"><ele>357.5</ele><time>2026-04-27T10:28:13Z</time></trkpt><trkpt lat="42.77785903058752" lon="12.525435182728433"><ele>357.75</ele><time>2026-04-27T10:28:14Z</time></trkpt><trkpt lat="42.777956945915044" lon="12.525544818477968"><ele>358.0</ele><time>2026-04-27T10:28:15Z</time></trkpt><trkpt lat="42.778051005902675" lon="12.525649458476964"><ele>358.75</ele><time>2026-04-27T10:28:16Z</time></trkpt><trkpt lat="42.778141904838336" lon="12.525750564594345"><ele>359.5</ele><time>2026-04-27T10:28:17Z</time></trkpt><trkpt lat="42.778232572842114" lon="12.525851678548722"><ele>360.25</ele><time>2026-04-27T10:28:18Z</time></trkpt><trkpt lat="42.77832677050309" lon="12.52595461195786"><ele>361.0</ele><time>2026-04-27T10:28:19Z</time></trkpt><trkpt lat="42.77842041265832" lon="12.52605962859298"><ele>361.0</ele><time>2026-04-27T10:28:20Z</time></trkpt><trkpt lat="42.77851546899603" lon="12.526166748615953"><ele>361.0</ele><time>2026-04-27T10:28:21Z</time></trkpt><trkpt lat="42.77861159375932" lon="12.526276743689003"><ele>361.0</ele><time>2026-04-27T10:28:22Z</time></trkpt><trkpt lat="42.7787094151996" lon="12.526386830752465"><ele>361.0</ele><time>2026-04-27T10:28:23Z</time></trkpt><trkpt lat="42.778807666300835" lon="12.52649845431969"><ele>363.0</ele><time>2026-04-27T10:28:24Z</time></trkpt><trkpt lat="42.778906326658124" lon="12.526609004850595"><ele>365.0</ele><time>2026-04-27T10:28:25Z</time></trkpt><trkpt lat="42.77900583518071" lon="12.52672315937084"><ele>367.0</ele><time>2026-04-27T10:28:26Z</time></trkpt><trkpt lat="42.7791079101653" lon="12.526835844653629"><ele>369.0</ele><time>2026-04-27T10:28:27Z</time></trkpt><trkpt lat="42.77920991322534" lon="12.526945762724393"><ele>369.0</ele><time>2026-04-27T10:28:28Z</time></trkpt><trkpt lat="42.7793108255549" lon="12.527056462198468"><ele>369.0</ele><time>2026-04-27T10:28:29Z</time></trkpt><trkpt lat="42.779405778763724" lon="12.527164421833284"><ele>369.0</ele><time>2026-04-27T10:28:30Z</time></trkpt><trkpt lat="42.77949757801502" lon="12.527265974921711"><ele>369.0</ele><time>2026-04-27T10:28:31Z</time></trkpt><trkpt lat="42.779591270342145" lon="12.527358876917342"><ele>371.0</ele><time>2026-04-27T10:28:32Z</time></trkpt><trkpt lat="42.779694941597704" lon="12.527440938380108"><ele>373.0</ele><time>2026-04-27T10:28:33Z</time></trkpt><trkpt lat="42.779806068388275" lon="12.527513140068924"><ele>375.0</ele><time>2026-04-27T10:28:34Z</time></trkpt><trkpt lat="42.77992501204574" lon="12.527577964134702"><ele>377.0</ele><time>2026-04-27T10:28:35Z</time></trkpt><trkpt lat="42.78005174739539" lon="12.527632139245085"><ele>378.0</ele><time>2026-04-27T10:28:36Z</time></trkpt><trkpt lat="42.78018453684374" lon="12.527681061728902"><ele>379.0</ele><time>2026-04-27T10:28:37Z</time></trkpt><trkpt lat="42.78031999576485" lon="12.527729189552316"><ele>380.0</ele><time>2026-04-27T10:28:38Z</time></trkpt><trkpt lat="42.78046112431737" lon="12.527780910810657"><ele>381.0</ele><time>2026-04-27T10:28:39Z</time></trkpt><trkpt lat="42.78060540103044" lon="12.527834418738577"><ele>381.0</ele><time>2026-04-27T10:28:40Z</time></trkpt><trkpt lat="42.7807561842302" lon="12.52789052480666"><ele>381.0</ele><time>2026-04-27T10:28:41Z</time></trkpt><trkpt lat="42.78091517935634" lon="12.52795517662213"><ele>381.0</ele><time>2026-04-27T10:28:42Z</time></trkpt><trkpt lat="42.781080217694246" lon="12.52802013480409"><ele>384.0</ele><time>2026-04-27T10:28:43Z</time></trkpt><trkpt lat="42.78123971984952" lon="12.528078061703178"><ele>387.0</ele><time>2026-04-27T10:28:44Z</time></trkpt><trkpt lat="42.78139249327086" lon="12.52813810694752"><ele>390.0</ele><time>2026-04-27T10:28:45Z</time></trkpt><trkpt lat="42.7815381959569" lon="12.5281941344017"><ele>390.0</ele><time>2026-04-27T10:28:46Z</time></trkpt><trkpt lat="42.78167863783851" lon="12.528250300131651"><ele>390.0</ele><time>2026-04-27T10:28:47Z</time></trkpt><trkpt lat="42.78181146509622" lon="12.528304084969555"><ele>390.0</ele><time>2026-04-27T10:28:48Z</time></trkpt><trkpt lat="42.781937116919465" lon="12.528356033838278"><ele>390.0</ele><time>2026-04-27T10:28:49Z</time></trkpt><trkpt lat="42.78205269977242" lon="12.528405322752285"><ele>390.4</ele><time>2026-04-27T10:28:50Z</time></trkpt><trkpt lat="42.78215943986473" lon="12.528440546741944"><ele>390.8</ele><time>2026-04-27T10:28:51Z</time></trkpt><trkpt lat="42.7822535699403" lon="12.528461527297585"><ele>391.20000000000005</ele><time>2026-04-27T10:28:52Z</time></trkpt><trkpt lat="42.78233702723709" lon="12.528458975697882"><ele>391.6</ele><time>2026-04-27T10:28:53Z</time></trkpt><trkpt lat="42.78241649739708" lon="12.528425613849146"><ele>392.0</ele><time>2026-04-27T10:28:54Z</time></trkpt><trkpt lat="42.782486111967216" lon="12.52835592783908"><ele>392.0</ele><time>2026-04-27T10:28:55Z</time></trkpt><trkpt lat="42.78254496554847" lon="12.528253006249109"><ele>392.0</ele><time>2026-04-27T10:28:56Z</time></trkpt><trkpt lat="42.7825932380668" lon="12.528119029170018"><ele>392.0</ele><time>2026-04-27T10:28:57Z</time></trkpt><trkpt lat="42.782637764315034" lon="12.527958154750756"><ele>392.0</ele><time>2026-04-27T10:28:58Z</time></trkpt><trkpt lat="42.782686916507565" lon="12.527788876410261"><ele>394.25</ele><time>2026-04-27T10:28:59Z</time></trkpt><trkpt lat="42.7827427007948" lon="12.52761634064466"><ele>396.5</ele><time>2026-04-27T10:29:00Z</time></trkpt><trkpt lat="42.78280753371313" lon="12.527455745483671"><ele>398.75</ele><time>2026-04-27T10:29:01Z</time></trkpt><trkpt lat="42.78288495787861" lon="12.527309012194316"><ele>401.0</ele><time>2026-04-27T10:29:02Z</time></trkpt><trkpt lat="42.7829780590995" lon="12.52717652988869"><ele>399.75</ele><time>2026-04-27T10:29:03Z</time></trkpt><trkpt lat="42.78308804673866" lon="12.527055797678827"><ele>398.5</ele><time>2026-04-27T10:29:04Z</time></trkpt><trkpt lat="42.783210990100734" lon="12.52694383841137"><ele>397.25</ele><time>2026-04-27T10:29:05.001Z</time></trkpt><trkpt lat="42.7833391818137" lon="12.52683135306523"><ele>396.0</ele><time>2026-04-27T10:29:06.001Z</time></trkpt><trkpt lat="42.78346926657937" lon="12.526711606198004"><ele>399.25</ele><time>2026-04-27T10:29:07.001Z</time></trkpt><trkpt lat="42.78359934448" lon="12.526593518724818"><ele>402.5</ele><time>2026-04-27T10:29:08.001Z</time></trkpt><trkpt lat="42.783714577879906" lon="12.52648545888533"><ele>405.75</ele><time>2026-04-27T10:29:09.001Z</time></trkpt><trkpt lat="42.78381878583329" lon="12.526387062032658"><ele>409.0</ele><time>2026-04-27T10:29:10.001Z</time></trkpt><trkpt lat="42.78392416035829" lon="12.526297230962344"><ele>408.5</ele><time>2026-04-27T10:29:11.001Z</time></trkpt><trkpt lat="42.78403522726841" lon="12.526224671985023"><ele>408.0</ele><time>2026-04-27T10:29:12.001Z</time></trkpt><trkpt lat="42.78415712913589" lon="12.52616555362537"><ele>407.5</ele><time>2026-04-27T10:29:13.001Z</time></trkpt><trkpt lat="42.78429261048329" lon="12.526134842106547"><ele>407.0</ele><time>2026-04-27T10:29:14.001Z</time></trkpt><trkpt lat="42.784439217605915" lon="12.526133745744144"><ele>407.0</ele><time>2026-04-27T10:29:15.001Z</time></trkpt><trkpt lat="42.78459068025091" lon="12.526151540656866"><ele>407.0</ele><time>2026-04-27T10:29:16.001Z</time></trkpt><trkpt lat="42.784744450811445" lon="12.52619038966617"><ele>407.0</ele><time>2026-04-27T10:29:17.001Z</time></trkpt><trkpt lat="42.78489918466822" lon="12.526230653799313"><ele>409.25</ele><time>2026-04-27T10:29:18.001Z</time></trkpt><trkpt lat="42.78504712394836" lon="12.526264294548785"><ele>411.5</ele><time>2026-04-27T10:29:19.001Z</time></trkpt><trkpt lat="42.78518907484246" lon="12.526288300151586"><ele>413.75</ele><time>2026-04-27T10:29:20.001Z</time></trkpt><trkpt lat="42.78532392529487" lon="12.526292249142019"><ele>416.0</ele><time>2026-04-27T10:29:21.001Z</time></trkpt><trkpt lat="42.785449683909576" lon="12.526264229288987"><ele>416.0</ele><time>2026-04-27T10:29:22.001Z</time></trkpt><trkpt lat="42.78557050529212" lon="12.526210452663404"><ele>416.0</ele><time>2026-04-27T10:29:23.001Z</time></trkpt><trkpt lat="42.78567885741254" lon="12.526125400870354"><ele>416.0</ele><time>2026-04-27T10:29:24.001Z</time></trkpt><trkpt lat="42.78577166885424" lon="12.52600614023074"><ele>416.0</ele><time>2026-04-27T10:29:25.001Z</time></trkpt><trkpt lat="42.78585237780896" lon="12.525865187326971"><ele>416.0</ele><time>2026-04-27T10:29:26.001Z</time></trkpt><trkpt lat="42.78591095289748" lon="12.525702426484413"><ele>416.0</ele><time>2026-04-27T10:29:27.001Z</time></trkpt><trkpt lat="42.785952802672064" lon="12.525541985948356"><ele>416.0</ele><time>2026-04-27T10:29:28.001Z</time></trkpt><trkpt lat="42.785965972889706" lon="12.52538081257521"><ele>416.0</ele><time>2026-04-27T10:29:29.001Z</time></trkpt><trkpt lat="42.78596270184675" lon="12.525222093102899"><ele>416.75</ele><time>2026-04-27T10:29:30.001Z</time></trkpt><trkpt lat="42.78594473703249" lon="12.52505736104061"><ele>417.5</ele><time>2026-04-27T10:29:31.001Z</time></trkpt><trkpt lat="42.785927785112165" lon="12.524882138749978"><ele>418.25</ele><time>2026-04-27T10:29:32.001Z</time></trkpt><trkpt lat="42.78591031799399" lon="12.52469759950056"><ele>419.0</ele><time>2026-04-27T10:29:33.001Z</time></trkpt><trkpt lat="42.785898326211665" lon="12.524514231123208"><ele>419.0</ele><time>2026-04-27T10:29:34.001Z</time></trkpt><trkpt lat="42.78590215058631" lon="12.524354515225257"><ele>419.0</ele><time>2026-04-27T10:29:35.001Z</time></trkpt><trkpt lat="42.78593330227703" lon="12.52422014819263"><ele>419.0</ele><time>2026-04-27T10:29:36.001Z</time></trkpt><trkpt lat="42.78598761946292" lon="12.524115123025883"><ele>419.0</ele><time>2026-04-27T10:29:37.001Z</time></trkpt><trkpt lat="42.78606747867596" lon="12.524038246675996"><ele>419.0</ele><time>2026-04-27T10:29:38.001Z</time></trkpt><trkpt lat="42.786169889821316" lon="12.523984876305118"><ele>420.0</ele><time>2026-04-27T10:29:39.001Z</time></trkpt><trkpt lat="42.786294405018694" lon="12.523972028469307"><ele>421.0</ele><time>2026-04-27T10:29:40Z</time></trkpt><trkpt lat="42.786427261233925" lon="12.523984200312578"><ele>422.0</ele><time>2026-04-27T10:29:41Z</time></trkpt><trkpt lat="42.78657084495662" lon="12.524028298511551"><ele>423.0</ele><time>2026-04-27T10:29:42Z</time></trkpt><trkpt lat="42.78671811362574" lon="12.524079853758016"><ele>423.66666666666663</ele><time>2026-04-27T10:29:43Z</time></trkpt><trkpt lat="42.78686818571345" lon="12.524137527558638"><ele>424.3333333333333</ele><time>2026-04-27T10:29:44Z</time></trkpt><trkpt lat="42.787011225680935" lon="12.524203518346543"><ele>425.0</ele><time>2026-04-27T10:29:45Z</time></trkpt><trkpt lat="42.78714296258964" lon="12.52427858123882"><ele>425.0</ele><time>2026-04-27T10:29:46Z</time></trkpt><trkpt lat="42.787266032075486" lon="12.524358982409131"><ele>425.0</ele><time>2026-04-27T10:29:47Z</time></trkpt><trkpt lat="42.78738583031341" lon="12.524439306499644"><ele>425.0</ele><time>2026-04-27T10:29:48Z</time></trkpt><trkpt lat="42.78750477445755" lon="12.524518195128113"><ele>425.0</ele><time>2026-04-27T10:29:49Z</time></trkpt><trkpt lat="42.787628862075316" lon="12.524587094064742"><ele>427.75</ele><time>2026-04-27T10:29:50Z</time></trkpt><trkpt lat="42.78775780024062" lon="12.52463389754714"><ele>430.5</ele><time>2026-04-27T10:29:51Z</time></trkpt><trkpt lat="42.78788910187125" lon="12.5246627324881"><ele>433.25</ele><time>2026-04-27T10:29:52Z</time></trkpt><trkpt lat="42.78801913384881" lon="12.524690097979091"><ele>436.0</ele><time>2026-04-27T10:29:53Z</time></trkpt><trkpt lat="42.78814683105268" lon="12.524715731069733"><ele>436.0</ele><time>2026-04-27T10:29:54Z</time></trkpt><trkpt lat="42.788268237224464" lon="12.52473322688567"><ele>436.0</ele><time>2026-04-27T10:29:55Z</time></trkpt><trkpt lat="42.788381634044065" lon="12.524751028334931"><ele>436.0</ele><time>2026-04-27T10:29:56Z</time></trkpt><trkpt lat="42.78848521084417" lon="12.52477163275555"><ele>436.0</ele><time>2026-04-27T10:29:57Z</time></trkpt><trkpt lat="42.788580578674875" lon="12.524800566079909"><ele>436.0</ele><time>2026-04-27T10:29:58Z</time></trkpt><trkpt lat="42.78867202395523" lon="12.524845400036567"><ele>437.0</ele><time>2026-04-27T10:29:59Z</time></trkpt><trkpt lat="42.78875727064543" lon="12.524915693685172"><ele>438.0</ele><time>2026-04-27T10:30:00Z</time></trkpt><trkpt lat="42.78883453500665" lon="12.525000867615368"><ele>439.0</ele><time>2026-04-27T10:30:01Z</time></trkpt><trkpt lat="42.788903792731375" lon="12.525102693016434"><ele>440.0</ele><time>2026-04-27T10:30:02Z</time></trkpt><trkpt lat="42.788970513367374" lon="12.525213682211222"><ele>441.0</ele><time>2026-04-27T10:30:03Z</time></trkpt><trkpt lat="42.789040289518006" lon="12.525325288172622"><ele>441.8</ele><time>2026-04-27T10:30:04Z</time></trkpt><trkpt lat="42.789109694573" lon="12.525438628378591"><ele>442.6</ele><time>2026-04-27T10:30:05Z</time></trkpt><trkpt lat="42.78917670442282" lon="12.525552761291761"><ele>443.4</ele><time>2026-04-27T10:30:06Z</time></trkpt><trkpt lat="42.78924742211647" lon="12.525660996812157"><ele>444.2</ele><time>2026-04-27T10:30:07Z</time></trkpt><trkpt lat="42.789323872359475" lon="12.525761139648848"><ele>445.0</ele><time>2026-04-27T10:30:08Z</time></trkpt><trkpt lat="42.78940699548173" lon="12.525849469570273"><ele>445.8</ele><time>2026-04-27T10:30:09Z</time></trkpt><trkpt lat="42.78950174927287" lon="12.525923592443547"><ele>446.6</ele><time>2026-04-27T10:30:10Z</time></trkpt><trkpt lat="42.789603704658184" lon="12.525980998578321"><ele>447.4</ele><time>2026-04-27T10:30:11Z</time></trkpt><trkpt lat="42.78970929820354" lon="12.526014671362097"><ele>448.2</ele><time>2026-04-27T10:30:12Z</time></trkpt><trkpt lat="42.78982025242325" lon="12.52602562646034"><ele>449.0</ele><time>2026-04-27T10:30:13Z</time></trkpt><trkpt lat="42.78994065860486" lon="12.52604560615219"><ele>449.0</ele><time>2026-04-27T10:30:14Z</time></trkpt><trkpt lat="42.79007451929722" lon="12.526036486382399"><ele>449.0</ele><time>2026-04-27T10:30:15Z</time></trkpt><trkpt lat="42.79022673445593" lon="12.526021021990456"><ele>449.0</ele><time>2026-04-27T10:30:16Z</time></trkpt><trkpt lat="42.79039176725844" lon="12.526001458888777"><ele>451.0</ele><time>2026-04-27T10:30:17Z</time></trkpt><trkpt lat="42.79056291947506" lon="12.525978856007454"><ele>453.0</ele><time>2026-04-27T10:30:18Z</time></trkpt><trkpt lat="42.79073935781373" lon="12.52593082885165"><ele>455.0</ele><time>2026-04-27T10:30:19Z</time></trkpt><trkpt lat="42.79091754015374" lon="12.52591072430619"><ele>457.66666666666663</ele><time>2026-04-27T10:30:20Z</time></trkpt><trkpt lat="42.79109562625007" lon="12.525891059934962"><ele>460.33333333333337</ele><time>2026-04-27T10:30:21Z</time></trkpt><trkpt lat="42.79126690268759" lon="12.525867056548403"><ele>463.0</ele><time>2026-04-27T10:30:22Z</time></trkpt><trkpt lat="42.79143291593491" lon="12.52584572539627"><ele>463.0</ele><time>2026-04-27T10:30:23Z</time></trkpt><trkpt lat="42.791597579435475" lon="12.525827627951267"><ele>463.0</ele><time>2026-04-27T10:30:24Z</time></trkpt><trkpt lat="42.791757022741514" lon="12.52581880459227"><ele>463.0</ele><time>2026-04-27T10:30:25Z</time></trkpt><trkpt lat="42.79191261695115" lon="12.525823271988678"><ele>464.33333333333337</ele><time>2026-04-27T10:30:26Z</time></trkpt><trkpt lat="42.79206557695731" lon="12.525843109019128"><ele>465.66666666666663</ele><time>2026-04-27T10:30:27Z</time></trkpt><trkpt lat="42.792212375331765" lon="12.52589359601678"><ele>467.0</ele><time>2026-04-27T10:30:28Z</time></trkpt><trkpt lat="42.79235435952103" lon="12.525966480223767"><ele>467.0</ele><time>2026-04-27T10:30:29Z</time></trkpt><trkpt lat="42.792503464829835" lon="12.526049308587579"><ele>467.0</ele><time>2026-04-27T10:30:30Z</time></trkpt><trkpt lat="42.792653700898704" lon="12.526138809258407"><ele>467.0</ele><time>2026-04-27T10:30:31Z</time></trkpt><trkpt lat="42.79281110463017" lon="12.526214493871686"><ele>469.0</ele><time>2026-04-27T10:30:32Z</time></trkpt><trkpt lat="42.79297237895176" lon="12.52627614012433"><ele>471.0</ele><time>2026-04-27T10:30:33Z</time></trkpt><trkpt lat="42.793119403277494" lon="12.526314077043928"><ele>473.0</ele><time>2026-04-27T10:30:34Z</time></trkpt><trkpt lat="42.7932577534304" lon="12.526327390094195"><ele>473.0</ele><time>2026-04-27T10:30:35Z</time></trkpt><trkpt lat="42.79340158368769" lon="12.526319777001216"><ele>473.0</ele><time>2026-04-27T10:30:36Z</time></trkpt><trkpt lat="42.79354658560052" lon="12.526289725471214"><ele>473.0</ele><time>2026-04-27T10:30:37Z</time></trkpt><trkpt lat="42.79368974986564" lon="12.526237577886894"><ele>473.0</ele><time>2026-04-27T10:30:38Z</time></trkpt><trkpt lat="42.79382837907312" lon="12.526165322705694"><ele>472.25</ele><time>2026-04-27T10:30:39Z</time></trkpt><trkpt lat="42.79396697441373" lon="12.526082194327556"><ele>471.5</ele><time>2026-04-27T10:30:40Z</time></trkpt><trkpt lat="42.794104861798154" lon="12.526000985031354"><ele>470.75</ele><time>2026-04-27T10:30:41Z</time></trkpt><trkpt lat="42.794227367481014" lon="12.525929893625007"><ele>470.0</ele><time>2026-04-27T10:30:42Z</time></trkpt><trkpt lat="42.79433803581062" lon="12.525869862845159"><ele>470.8</ele><time>2026-04-27T10:30:43Z</time></trkpt><trkpt lat="42.794438250660136" lon="12.525835756300733"><ele>471.6</ele><time>2026-04-27T10:30:44Z</time></trkpt><trkpt lat="42.79453245852224" lon="12.525836040098547"><ele>472.4</ele><time>2026-04-27T10:30:45Z</time></trkpt><trkpt lat="42.794610770153696" lon="12.525885306524117"><ele>473.2</ele><time>2026-04-27T10:30:46Z</time></trkpt><trkpt lat="42.79467883799045" lon="12.525978516812048"><ele>474.0</ele><time>2026-04-27T10:30:47Z</time></trkpt><trkpt lat="42.794738584435734" lon="12.526116818763368"><ele>475.5</ele><time>2026-04-27T10:30:48Z</time></trkpt><trkpt lat="42.794802377297316" lon="12.526264956021414"><ele>477.0</ele><time>2026-04-27T10:30:49Z</time></trkpt><trkpt lat="42.7948846445329" lon="12.526405128470412"><ele>478.5</ele><time>2026-04-27T10:30:50Z</time></trkpt><trkpt lat="42.79498769828774" lon="12.52651430654116"><ele>480.0</ele><time>2026-04-27T10:30:51Z</time></trkpt><trkpt lat="42.795114707291084" lon="12.526594661329618"><ele>480.0</ele><time>2026-04-27T10:30:52Z</time></trkpt><trkpt lat="42.79526113920177" lon="12.52666506396405"><ele>480.0</ele><time>2026-04-27T10:30:53Z</time></trkpt><trkpt lat="42.79541735966135" lon="12.526735850457765"><ele>480.0</ele><time>2026-04-27T10:30:54Z</time></trkpt><trkpt lat="42.795579663797454" lon="12.52681106462807"><ele>480.0</ele><time>2026-04-27T10:30:55Z</time></trkpt><trkpt lat="42.79574573161838" lon="12.52688723190896"><ele>480.0</ele><time>2026-04-27T10:30:56Z</time></trkpt><trkpt lat="42.79590627176005" lon="12.526964637016878"><ele>480.0</ele><time>2026-04-27T10:30:57Z</time></trkpt><trkpt lat="42.79606445347634" lon="12.527040671126636"><ele>484.33333333333337</ele><time>2026-04-27T10:30:58Z</time></trkpt><trkpt lat="42.7962228314941" lon="12.527113441495754"><ele>488.6666666666667</ele><time>2026-04-27T10:30:59Z</time></trkpt><trkpt lat="42.796379723324364" lon="12.527177897469716"><ele>493.0</ele><time>2026-04-27T10:31:00Z</time></trkpt><trkpt lat="42.79653444938404" lon="12.52722624385473"><ele>493.0</ele><time>2026-04-27T10:31:01Z</time></trkpt><trkpt lat="42.79668809266678" lon="12.527255689714327"><ele>493.0</ele><time>2026-04-27T10:31:02Z</time></trkpt><trkpt lat="42.796840110053715" lon="12.527257894387754"><ele>493.0</ele><time>2026-04-27T10:31:03Z</time></trkpt><trkpt lat="42.79699372900226" lon="12.527234403469274"><ele>491.6666666666667</ele><time>2026-04-27T10:31:04Z</time></trkpt><trkpt lat="42.797147795123145" lon="12.527190263902849"><ele>490.33333333333337</ele><time>2026-04-27T10:31:05Z</time></trkpt><trkpt lat="42.79729990857381" lon="12.527121909573498"><ele>489.0</ele><time>2026-04-27T10:31:06Z</time></trkpt><trkpt lat="42.79744951918556" lon="12.527032068075936"><ele>489.0</ele><time>2026-04-27T10:31:07Z</time></trkpt><trkpt lat="42.79759445473159" lon="12.52692029534423"><ele>489.0</ele><time>2026-04-27T10:31:08Z</time></trkpt><trkpt lat="42.79773700843832" lon="12.526799398417582"><ele>489.0</ele><time>2026-04-27T10:31:09Z</time></trkpt><trkpt lat="42.79788231779151" lon="12.526679247129556"><ele>493.33333333333337</ele><time>2026-04-27T10:31:10.001Z</time></trkpt><trkpt lat="42.79801694314854" lon="12.526565933884264"><ele>497.6666666666667</ele><time>2026-04-27T10:31:11.001Z</time></trkpt><trkpt lat="42.798153113747226" lon="12.526449588019995"><ele>502.0</ele><time>2026-04-27T10:31:12.001Z</time></trkpt><trkpt lat="42.79829932236977" lon="12.5263380866489"><ele>502.0</ele><time>2026-04-27T10:31:13.001Z</time></trkpt><trkpt lat="42.79844631960604" lon="12.52623060386859"><ele>502.0</ele><time>2026-04-27T10:31:14.001Z</time></trkpt><trkpt lat="42.79859305031295" lon="12.526124398645985"><ele>502.0</ele><time>2026-04-27T10:31:15.001Z</time></trkpt><trkpt lat="42.798744275664916" lon="12.526030695789325"><ele>501.0</ele><time>2026-04-27T10:31:16.001Z</time></trkpt><trkpt lat="42.79890119884039" lon="12.525951759543242"><ele>500.0</ele><time>2026-04-27T10:31:17.001Z</time></trkpt><trkpt lat="42.799061706806164" lon="12.525872275407961"><ele>499.0</ele><time>2026-04-27T10:31:18.001Z</time></trkpt><trkpt lat="42.79922676945216" lon="12.525803697037835"><ele>503.33333333333337</ele><time>2026-04-27T10:31:19.001Z</time></trkpt><trkpt lat="42.79940192527046" lon="12.525744784135338"><ele>507.66666666666663</ele><time>2026-04-27T10:31:20.001Z</time></trkpt><trkpt lat="42.799571888103685" lon="12.525688082139355"><ele>512.0</ele><time>2026-04-27T10:31:21.001Z</time></trkpt><trkpt lat="42.799746521179145" lon="12.525635463412872"><ele>512.0</ele><time>2026-04-27T10:31:22.001Z</time></trkpt><trkpt lat="42.7999090367618" lon="12.525581128031217"><ele>512.0</ele><time>2026-04-27T10:31:23.001Z</time></trkpt><trkpt lat="42.80006425843594" lon="12.525528777606505"><ele>512.0</ele><time>2026-04-27T10:31:24.001Z</time></trkpt><trkpt lat="42.80021215351131" lon="12.525482059362766"><ele>513.25</ele><time>2026-04-27T10:31:25.001Z</time></trkpt><trkpt lat="42.80035539212364" lon="12.525439316304594"><ele>514.5</ele><time>2026-04-27T10:31:26.001Z</time></trkpt><trkpt lat="42.800495867971996" lon="12.525398234167001"><ele>515.75</ele><time>2026-04-27T10:31:27.001Z</time></trkpt><trkpt lat="42.80063203091967" lon="12.52536190170147"><ele>517.0</ele><time>2026-04-27T10:31:28.001Z</time></trkpt><trkpt lat="42.80077121931266" lon="12.525330361204453"><ele>512.75</ele><time>2026-04-27T10:31:29.001Z</time></trkpt><trkpt lat="42.80089942128349" lon="12.525311116715306"><ele>508.5</ele><time>2026-04-27T10:31:30.001Z</time></trkpt><trkpt lat="42.80101842657548" lon="12.525315461296007"><ele>504.25</ele><time>2026-04-27T10:31:31.001Z</time></trkpt><trkpt lat="42.80114178145364" lon="12.525337017600235"><ele>500.0</ele><time>2026-04-27T10:31:32.001Z</time></trkpt><trkpt lat="42.801263532054904" lon="12.525388765224786"><ele>503.25</ele><time>2026-04-27T10:31:33.001Z</time></trkpt><trkpt lat="42.80138372456409" lon="12.525465031679014"><ele>506.5</ele><time>2026-04-27T10:31:34.001Z</time></trkpt><trkpt lat="42.80149579455351" lon="12.525553275462325"><ele>509.75</ele><time>2026-04-27T10:31:35.001Z</time></trkpt><trkpt lat="42.80159635354148" lon="12.525645368711649"><ele>513.0</ele><time>2026-04-27T10:31:36.001Z</time></trkpt><trkpt lat="42.801689969965224" lon="12.525721588250198"><ele>513.0</ele><time>2026-04-27T10:31:37.001Z</time></trkpt><trkpt lat="42.80178005954314" lon="12.525768975487692"><ele>513.0</ele><time>2026-04-27T10:31:38.001Z</time></trkpt><trkpt lat="42.80186324847488" lon="12.525783815433766"><ele>513.0</ele><time>2026-04-27T10:31:39.001Z</time></trkpt><trkpt lat="42.801935447924585" lon="12.525766814010359"><ele>513.0</ele><time>2026-04-27T10:31:40.001Z</time></trkpt><trkpt lat="42.80201741037537" lon="12.525718759249452"><ele>513.0</ele><time>2026-04-27T10:31:41.001Z</time></trkpt><trkpt lat="42.802095333785715" lon="12.525637143125145"><ele>513.0</ele><time>2026-04-27T10:31:42.001Z</time></trkpt><trkpt lat="42.80216085931316" lon="12.525525900521151"><ele>513.4</ele><time>2026-04-27T10:31:43.001Z</time></trkpt><trkpt lat="42.802204333726024" lon="12.525395576642431"><ele>513.8</ele><time>2026-04-27T10:31:44.001Z</time></trkpt><trkpt lat="42.802225544777514" lon="12.52526098196956"><ele>514.2</ele><time>2026-04-27T10:31:45.001Z</time></trkpt><trkpt lat="42.80224476656023" lon="12.52511844888747"><ele>514.6</ele><time>2026-04-27T10:31:46.001Z</time></trkpt><trkpt lat="42.802267881776" lon="12.524974478901685"><ele>515.0</ele><time>2026-04-27T10:31:47.001Z</time></trkpt><trkpt lat="42.802307381812206" lon="12.524837281982657"><ele>515.0</ele><time>2026-04-27T10:31:48Z</time></trkpt><trkpt lat="42.802365347591255" lon="12.524720304386635"><ele>515.0</ele><time>2026-04-27T10:31:49Z</time></trkpt><trkpt lat="42.80244314013914" lon="12.524621147642547"><ele>515.0</ele><time>2026-04-27T10:31:50Z</time></trkpt><trkpt lat="42.802539177619494" lon="12.524540831332926"><ele>515.0</ele><time>2026-04-27T10:31:51Z</time></trkpt><trkpt lat="42.802671974740434" lon="12.524495553318694"><ele>515.0</ele><time>2026-04-27T10:31:52Z</time></trkpt><trkpt lat="42.80282294660887" lon="12.524460381537589"><ele>515.0</ele><time>2026-04-27T10:31:53Z</time></trkpt><trkpt lat="42.802984134492355" lon="12.524430172799118"><ele>515.0</ele><time>2026-04-27T10:31:54Z</time></trkpt><trkpt lat="42.80315349487239" lon="12.524396154699227"><ele>515.0</ele><time>2026-04-27T10:31:55Z</time></trkpt><trkpt lat="42.803323430175425" lon="12.524363312956805"><ele>515.0</ele><time>2026-04-27T10:31:56Z</time></trkpt><trkpt lat="42.803493249159786" lon="12.524327410078595"><ele>515.0</ele><time>2026-04-27T10:31:57Z</time></trkpt><trkpt lat="42.80366021122793" lon="12.524296798987493"><ele>518.0</ele><time>2026-04-27T10:31:58Z</time></trkpt><trkpt lat="42.80382083648304" lon="12.524263910375865"><ele>521.0</ele><time>2026-04-27T10:31:59Z</time></trkpt><trkpt lat="42.80397779087878" lon="12.52422782493511"><ele>524.0</ele><time>2026-04-27T10:32:00Z</time></trkpt><trkpt lat="42.80412944580624" lon="12.524174294166306"><ele>524.0</ele><time>2026-04-27T10:32:01Z</time></trkpt><trkpt lat="42.80427606993648" lon="12.524090639036766"><ele>524.0</ele><time>2026-04-27T10:32:02Z</time></trkpt><trkpt lat="42.80441576071681" lon="12.523985705487494"><ele>524.0</ele><time>2026-04-27T10:32:03Z</time></trkpt><trkpt lat="42.80454992460917" lon="12.523876614996087"><ele>522.0</ele><time>2026-04-27T10:32:04Z</time></trkpt><trkpt lat="42.804685277438885" lon="12.523776375582784"><ele>520.0</ele><time>2026-04-27T10:32:05Z</time></trkpt><trkpt lat="42.804826415037944" lon="12.5236848915321"><ele>518.0</ele><time>2026-04-27T10:32:06Z</time></trkpt><trkpt lat="42.80497278865742" lon="12.523603621578797"><ele>518.0</ele><time>2026-04-27T10:32:07Z</time></trkpt><trkpt lat="42.80512105530228" lon="12.523528314966367"><ele>518.0</ele><time>2026-04-27T10:32:08Z</time></trkpt><trkpt lat="42.80527063995955" lon="12.523460361683034"><ele>518.0</ele><time>2026-04-27T10:32:09Z</time></trkpt><trkpt lat="42.80542410436489" lon="12.523404134864727"><ele>521.0</ele><time>2026-04-27T10:32:10Z</time></trkpt><trkpt lat="42.80558565254768" lon="12.523353707608464"><ele>524.0</ele><time>2026-04-27T10:32:11Z</time></trkpt><trkpt lat="42.805753875286385" lon="12.523309832520587"><ele>527.0</ele><time>2026-04-27T10:32:12Z</time></trkpt><trkpt lat="42.805927751956176" lon="12.523272885308641"><ele>527.6666666666666</ele><time>2026-04-27T10:32:13Z</time></trkpt><trkpt lat="42.80610511638292" lon="12.523250603929903"><ele>528.3333333333334</ele><time>2026-04-27T10:32:14Z</time></trkpt><trkpt lat="42.80628364342871" lon="12.523244724159472"><ele>529.0</ele><time>2026-04-27T10:32:15Z</time></trkpt><trkpt lat="42.806465157009136" lon="12.523250020258835"><ele>529.0</ele><time>2026-04-27T10:32:16Z</time></trkpt><trkpt lat="42.806646229326034" lon="12.52326201413848"><ele>529.0</ele><time>2026-04-27T10:32:17Z</time></trkpt><trkpt lat="42.806827095699035" lon="12.523280241280426"><ele>529.0</ele><time>2026-04-27T10:32:18Z</time></trkpt><trkpt lat="42.8070052591865" lon="12.523308172330891"><ele>527.3333333333334</ele><time>2026-04-27T10:32:19Z</time></trkpt><trkpt lat="42.807175949077376" lon="12.523349844236373"><ele>525.6666666666666</ele><time>2026-04-27T10:32:20Z</time></trkpt><trkpt lat="42.80735026961563" lon="12.5234072653936"><ele>524.0</ele><time>2026-04-27T10:32:21Z</time></trkpt><trkpt lat="42.80752780305998" lon="12.523473714020321"><ele>522.3333333333333</ele><time>2026-04-27T10:32:22Z</time></trkpt><trkpt lat="42.8077084729183" lon="12.523539731700945"><ele>520.6666666666666</ele><time>2026-04-27T10:32:23Z</time></trkpt><trkpt lat="42.80788841649411" lon="12.52360367975116"><ele>519.0</ele><time>2026-04-27T10:32:24Z</time></trkpt><trkpt lat="42.80805665242724" lon="12.523665120155536"><ele>519.0</ele><time>2026-04-27T10:32:25Z</time></trkpt><trkpt lat="42.80821260395097" lon="12.52372239723991"><ele>519.0</ele><time>2026-04-27T10:32:26Z</time></trkpt><trkpt lat="42.80835954909038" lon="12.523774199991756"><ele>519.0</ele><time>2026-04-27T10:32:27Z</time></trkpt><trkpt lat="42.808495193844244" lon="12.52382307533958"><ele>520.5</ele><time>2026-04-27T10:32:28Z</time></trkpt><trkpt lat="42.80862037383362" lon="12.523870364351149"><ele>522.0</ele><time>2026-04-27T10:32:29Z</time></trkpt><trkpt lat="42.80873971788365" lon="12.523930405330924"><ele>523.5</ele><time>2026-04-27T10:32:30Z</time></trkpt><trkpt lat="42.80885144005246" lon="12.524016091439188"><ele>525.0</ele><time>2026-04-27T10:32:31Z</time></trkpt><trkpt lat="42.80894804073231" lon="12.52412923546932"><ele>525.0</ele><time>2026-04-27T10:32:32Z</time></trkpt><trkpt lat="42.809029357442995" lon="12.524270642187332"><ele>525.0</ele><time>2026-04-27T10:32:33Z</time></trkpt><trkpt lat="42.809091959916586" lon="12.524434716654717"><ele>525.0</ele><time>2026-04-27T10:32:34Z</time></trkpt><trkpt lat="42.80913423092611" lon="12.52460841330648"><ele>525.0</ele><time>2026-04-27T10:32:35Z</time></trkpt><trkpt lat="42.80916940348414" lon="12.524779957185967"><ele>527.2</ele><time>2026-04-27T10:32:36Z</time></trkpt><trkpt lat="42.809198899809786" lon="12.524932379227238"><ele>529.4</ele><time>2026-04-27T10:32:37Z</time></trkpt><trkpt lat="42.809236315360934" lon="12.525059061646923"><ele>531.6</ele><time>2026-04-27T10:32:38Z</time></trkpt><trkpt lat="42.80928928675356" lon="12.525152260413783"><ele>533.8</ele><time>2026-04-27T10:32:39Z</time></trkpt><trkpt lat="42.80936151415088" lon="12.525212779869006"><ele>536.0</ele><time>2026-04-27T10:32:40Z</time></trkpt><trkpt lat="42.80945029937757" lon="12.525238196626846"><ele>537.0</ele><time>2026-04-27T10:32:41Z</time></trkpt><trkpt lat="42.80954504220503" lon="12.525217236479554"><ele>538.0</ele><time>2026-04-27T10:32:42Z</time></trkpt><trkpt lat="42.809636458543494" lon="12.525151976728191"><ele>539.0</ele><time>2026-04-27T10:32:43Z</time></trkpt><trkpt lat="42.809733085164616" lon="12.52504984822254"><ele>540.0</ele><time>2026-04-27T10:32:44Z</time></trkpt><trkpt lat="42.80983839154368" lon="12.524924546612747"><ele>540.0</ele><time>2026-04-27T10:32:45Z</time></trkpt><trkpt lat="42.809959958629904" lon="12.524790739778988"><ele>540.0</ele><time>2026-04-27T10:32:46Z</time></trkpt><trkpt lat="42.810091193773815" lon="12.524651854430095"><ele>540.0</ele><time>2026-04-27T10:32:47Z</time></trkpt><trkpt lat="42.81022865558375" lon="12.524505419575469"><ele>540.3333333333334</ele><time>2026-04-27T10:32:48Z</time></trkpt><trkpt lat="42.81037031019258" lon="12.524354738244927"><ele>540.6666666666667</ele><time>2026-04-27T10:32:49Z</time></trkpt><trkpt lat="42.81051178681286" lon="12.524206124397086"><ele>541.0</ele><time>2026-04-27T10:32:50Z</time></trkpt><trkpt lat="42.81064778797674" lon="12.52406118344018"><ele>541.0</ele><time>2026-04-27T10:32:51Z</time></trkpt><trkpt lat="42.81076988359972" lon="12.523928892737398"><ele>541.0</ele><time>2026-04-27T10:32:52Z</time></trkpt><trkpt lat="42.81088311581782" lon="12.52380589054708"><ele>541.0</ele><time>2026-04-27T10:32:53Z</time></trkpt><trkpt lat="42.810989779186684" lon="12.52370206180999"><ele>541.0</ele><time>2026-04-27T10:32:54Z</time></trkpt><trkpt lat="42.81110114314279" lon="12.523622164145825"><ele>540.25</ele><time>2026-04-27T10:32:55Z</time></trkpt><trkpt lat="42.81121902227235" lon="12.52358038142402"><ele>539.5</ele><time>2026-04-27T10:32:56Z</time></trkpt><trkpt lat="42.811344005546076" lon="12.523572773704892"><ele>538.75</ele><time>2026-04-27T10:32:57Z</time></trkpt><trkpt lat="42.811470610340045" lon="12.523601584996985"><ele>538.0</ele><time>2026-04-27T10:32:58Z</time></trkpt><trkpt lat="42.811596198585576" lon="12.52366353056905"><ele>537.0</ele><time>2026-04-27T10:32:59Z</time></trkpt><trkpt lat="42.81169856722947" lon="12.52378084266284"><ele>536.0</ele><time>2026-04-27T10:33:00Z</time></trkpt><trkpt lat="42.811814265392705" lon="12.523895561140774"><ele>535.0</ele><time>2026-04-27T10:33:01Z</time></trkpt><trkpt lat="42.811923683389594" lon="12.524045720859764"><ele>534.0</ele><time>2026-04-27T10:33:02Z</time></trkpt><trkpt lat="42.812039835587214" lon="12.524203088051943"><ele>534.0</ele><time>2026-04-27T10:33:03Z</time></trkpt><trkpt lat="42.81216330617535" lon="12.524368432687567"><ele>534.0</ele><time>2026-04-27T10:33:04Z</time></trkpt><trkpt lat="42.812293038070614" lon="12.524539380780881"><ele>534.0</ele><time>2026-04-27T10:33:05Z</time></trkpt><trkpt lat="42.81242515142854" lon="12.524714828398844"><ele>534.3333333333334</ele><time>2026-04-27T10:33:06Z</time></trkpt><trkpt lat="42.812552578115536" lon="12.524884956027915"><ele>534.6666666666667</ele><time>2026-04-27T10:33:07Z</time></trkpt><trkpt lat="42.812667829549625" lon="12.52504152522818"><ele>535.0</ele><time>2026-04-27T10:33:08Z</time></trkpt><trkpt lat="42.81277351662518" lon="12.525187549641515"><ele>535.0</ele><time>2026-04-27T10:33:09Z</time></trkpt><trkpt lat="42.81286731984845" lon="12.525328479457666"><ele>535.0</ele><time>2026-04-27T10:33:10Z</time></trkpt><trkpt lat="42.812952325669784" lon="12.525484375627533"><ele>535.0</ele><time>2026-04-27T10:33:11Z</time></trkpt><trkpt lat="42.81300679807158" lon="12.52567435790695"><ele>535.0</ele><time>2026-04-27T10:33:12Z</time></trkpt><trkpt lat="42.81306237310515" lon="12.525871942576355"><ele>537.0</ele><time>2026-04-27T10:33:13Z</time></trkpt><trkpt lat="42.81313068301074" lon="12.526074259423947"><ele>539.0</ele><time>2026-04-27T10:33:14Z</time></trkpt><trkpt lat="42.813167816816154" lon="12.526287610669684"><ele>541.0</ele><time>2026-04-27T10:33:15.001Z</time></trkpt><trkpt lat="42.81318255975282" lon="12.52649893085974"><ele>543.3333333333334</ele><time>2026-04-27T10:33:16.001Z</time></trkpt><trkpt lat="42.81317696618939" lon="12.526710210656983"><ele>545.6666666666666</ele><time>2026-04-27T10:33:17.001Z</time></trkpt><trkpt lat="42.81315759790177" lon="12.526921943391555"><ele>548.0</ele><time>2026-04-27T10:33:18.001Z</time></trkpt><trkpt lat="42.813133057967114" lon="12.52713005465579"><ele>548.0</ele><time>2026-04-27T10:33:19.001Z</time></trkpt><trkpt lat="42.81310650652063" lon="12.527329160627044"><ele>548.0</ele><time>2026-04-27T10:33:20.001Z</time></trkpt><trkpt lat="42.81308368321954" lon="12.527510451794631"><ele>548.0</ele><time>2026-04-27T10:33:21.001Z</time></trkpt><trkpt lat="42.81306995430541" lon="12.527676161368216"><ele>548.0</ele><time>2026-04-27T10:33:22.001Z</time></trkpt><trkpt lat="42.813073038493066" lon="12.527824132694791"><ele>548.4</ele><time>2026-04-27T10:33:23.001Z</time></trkpt><trkpt lat="42.813093874535355" lon="12.52794991027339"><ele>548.8</ele><time>2026-04-27T10:33:24.001Z</time></trkpt><trkpt lat="42.81314087475479" lon="12.528056335321187"><ele>549.2</ele><time>2026-04-27T10:33:25.001Z</time></trkpt><trkpt lat="42.81321374898123" lon="12.528158579049402"><ele>549.6</ele><time>2026-04-27T10:33:26.001Z</time></trkpt><trkpt lat="42.813304030668995" lon="12.528247997834523"><ele>550.0</ele><time>2026-04-27T10:33:27.001Z</time></trkpt><trkpt lat="42.813394779581365" lon="12.528319115509996"><ele>550.0</ele><time>2026-04-27T10:33:28.001Z</time></trkpt><trkpt lat="42.813483818726375" lon="12.528350436281658"><ele>550.0</ele><time>2026-04-27T10:33:29.001Z</time></trkpt><trkpt lat="42.81356902191912" lon="12.528336643199355"><ele>550.0</ele><time>2026-04-27T10:33:30.001Z</time></trkpt><trkpt lat="42.81365243239729" lon="12.52828431185422"><ele>550.0</ele><time>2026-04-27T10:33:31.001Z</time></trkpt><trkpt lat="42.813720397387506" lon="12.528192586812583"><ele>550.0</ele><time>2026-04-27T10:33:32.001Z</time></trkpt><trkpt lat="42.813778324136" lon="12.528069912343735"><ele>550.25</ele><time>2026-04-27T10:33:33.001Z</time></trkpt><trkpt lat="42.813837343273924" lon="12.527934924519302"><ele>550.5</ele><time>2026-04-27T10:33:34.001Z</time></trkpt><trkpt lat="42.81390689620809" lon="12.527802159630946"><ele>550.75</ele><time>2026-04-27T10:33:35.001Z</time></trkpt><trkpt lat="42.8139838447728" lon="12.527692441898767"><ele>551.0</ele><time>2026-04-27T10:33:36.001Z</time></trkpt><trkpt lat="42.814074909196925" lon="12.527604508468047"><ele>551.0</ele><time>2026-04-27T10:33:37.001Z</time></trkpt><trkpt lat="42.81417005223674" lon="12.527558142229914"><ele>551.0</ele><time>2026-04-27T10:33:38.001Z</time></trkpt><trkpt lat="42.814260064029895" lon="12.527561388311307"><ele>551.0</ele><time>2026-04-27T10:33:39.001Z</time></trkpt><trkpt lat="42.81436214380615" lon="12.527594579502107"><ele>551.0</ele><time>2026-04-27T10:33:40.001Z</time></trkpt><trkpt lat="42.81447642234204" lon="12.52764698466607"><ele>551.0</ele><time>2026-04-27T10:33:41.001Z</time></trkpt><trkpt lat="42.8145986672511" lon="12.52770388950731"><ele>551.5</ele><time>2026-04-27T10:33:42Z</time></trkpt><trkpt lat="42.81473105004953" lon="12.527768849882483"><ele>552.0</ele><time>2026-04-27T10:33:43Z</time></trkpt><trkpt lat="42.814865466456965" lon="12.527833332795902"><ele>552.5</ele><time>2026-04-27T10:33:44Z</time></trkpt><trkpt lat="42.8149765265541" lon="12.527904629980135"><ele>553.0</ele><time>2026-04-27T10:33:45Z</time></trkpt><trkpt lat="42.815080506263946" lon="12.5279573623959"><ele>553.4</ele><time>2026-04-27T10:33:46Z</time></trkpt><trkpt lat="42.815178785866784" lon="12.52799615276524"><ele>553.8</ele><time>2026-04-27T10:33:47Z</time></trkpt><trkpt lat="42.81524703702624" lon="12.528086366553385"><ele>554.2</ele><time>2026-04-27T10:33:48Z</time></trkpt><trkpt lat="42.8152914545788" lon="12.528209514236135"><ele>554.6</ele><time>2026-04-27T10:33:49Z</time></trkpt><trkpt lat="42.81530444068457" lon="12.52835669686132"><ele>555.0</ele><time>2026-04-27T10:33:50Z</time></trkpt><trkpt lat="42.815291137354876" lon="12.528514588024036"><ele>555.0</ele><time>2026-04-27T10:33:51Z</time></trkpt><trkpt lat="42.81523573261123" lon="12.528664492564237"><ele>555.0</ele><time>2026-04-27T10:33:52Z</time></trkpt><trkpt lat="42.81520220537756" lon="12.528836674780358"><ele>555.0</ele><time>2026-04-27T10:33:53Z</time></trkpt><trkpt lat="42.81515544666991" lon="12.529006266362593"><ele>555.0</ele><time>2026-04-27T10:33:54Z</time></trkpt><trkpt lat="42.81511339651246" lon="12.52916094808877"><ele>555.0</ele><time>2026-04-27T10:33:55Z</time></trkpt><trkpt lat="42.81507622990058" lon="12.529304578997198"><ele>555.0</ele><time>2026-04-27T10:33:56Z</time></trkpt><trkpt lat="42.81504768007377" lon="12.529440500323446"><ele>555.0</ele><time>2026-04-27T10:33:57Z</time></trkpt><trkpt lat="42.815037174914146" lon="12.52957178062868"><ele>555.0</ele><time>2026-04-27T10:33:58Z</time></trkpt><trkpt lat="42.81504978295098" lon="12.52971786903693"><ele>555.0</ele><time>2026-04-27T10:33:59Z</time></trkpt><trkpt lat="42.81508817055797" lon="12.52986202913822"><ele>554.8</ele><time>2026-04-27T10:34:00Z</time></trkpt><trkpt lat="42.815149775256536" lon="12.530002167639191"><ele>554.6</ele><time>2026-04-27T10:34:01Z</time></trkpt><trkpt lat="42.81522216226604" lon="12.530115246677894"><ele>554.4</ele><time>2026-04-27T10:34:02Z</time></trkpt><trkpt lat="42.81530684913194" lon="12.530191352404694"><ele>554.2</ele><time>2026-04-27T10:34:03Z</time></trkpt><trkpt lat="42.81541111300813" lon="12.530240581405684"><ele>554.0</ele><time>2026-04-27T10:34:04Z</time></trkpt><trkpt lat="42.81553339865838" lon="12.530251276253958"><ele>553.3333333333333</ele><time>2026-04-27T10:34:05Z</time></trkpt><trkpt lat="42.81566558315662" lon="12.530230639232835"><ele>552.6666666666666</ele><time>2026-04-27T10:34:06Z</time></trkpt><trkpt lat="42.81581684465348" lon="12.530194169265137"><ele>552.0</ele><time>2026-04-27T10:34:07Z</time></trkpt><trkpt lat="42.8159827897828" lon="12.53015599810718"><ele>551.0</ele><time>2026-04-27T10:34:08Z</time></trkpt><trkpt lat="42.81615742147176" lon="12.53011612792033"><ele>550.0</ele><time>2026-04-27T10:34:09Z</time></trkpt><trkpt lat="42.816336036793736" lon="12.530074586208949"><ele>549.0</ele><time>2026-04-27T10:34:10Z</time></trkpt><trkpt lat="42.81651417186988" lon="12.530030933311984"><ele>549.0</ele><time>2026-04-27T10:34:11Z</time></trkpt><trkpt lat="42.81669063946254" lon="12.529988820866269"><ele>549.0</ele><time>2026-04-27T10:34:12Z</time></trkpt><trkpt lat="42.81687050626693" lon="12.529946806241586"><ele>549.0</ele><time>2026-04-27T10:34:13Z</time></trkpt><trkpt lat="42.81705659865572" lon="12.529911507668325"><ele>549.3333333333334</ele><time>2026-04-27T10:34:14Z</time></trkpt><trkpt lat="42.817248077185134" lon="12.529883429907569"><ele>549.6666666666667</ele><time>2026-04-27T10:34:15Z</time></trkpt><trkpt lat="42.81743544365948" lon="12.52986348270161"><ele>550.0</ele><time>2026-04-27T10:34:16Z</time></trkpt><trkpt lat="42.817616374182364" lon="12.529850948997385"><ele>549.6666666666667</ele><time>2026-04-27T10:34:17Z</time></trkpt><trkpt lat="42.817793089581215" lon="12.529843359551206"><ele>549.3333333333334</ele><time>2026-04-27T10:34:18Z</time></trkpt><trkpt lat="42.81796081547486" lon="12.529842250961604"><ele>549.0</ele><time>2026-04-27T10:34:19Z</time></trkpt><trkpt lat="42.81812243120825" lon="12.529875132954958"><ele>549.0</ele><time>2026-04-27T10:34:20Z</time></trkpt><trkpt lat="42.818288131172736" lon="12.529879186903997"><ele>549.0</ele><time>2026-04-27T10:34:21Z</time></trkpt><trkpt lat="42.81845680522355" lon="12.529929447205763"><ele>549.0</ele><time>2026-04-27T10:34:22Z</time></trkpt><trkpt lat="42.81863214954984" lon="12.530002600691946"><ele>545.6666666666666</ele><time>2026-04-27T10:34:23Z</time></trkpt><trkpt lat="42.81881254666827" lon="12.530083326560877"><ele>542.3333333333333</ele><time>2026-04-27T10:34:24Z</time></trkpt><trkpt lat="42.81899689220396" lon="12.530165210234712"><ele>539.0</ele><time>2026-04-27T10:34:25Z</time></trkpt><trkpt lat="42.81918625492322" lon="12.530249828441535"><ele>540.3333333333333</ele><time>2026-04-27T10:34:26Z</time></trkpt><trkpt lat="42.81937359323099" lon="12.530335522767587"><ele>541.6666666666666</ele><time>2026-04-27T10:34:27Z</time></trkpt><trkpt lat="42.819554767062016" lon="12.530420147557589"><ele>543.0</ele><time>2026-04-27T10:34:28Z</time></trkpt><trkpt lat="42.81972626974272" lon="12.530496776878744"><ele>543.0</ele><time>2026-04-27T10:34:29Z</time></trkpt><trkpt lat="42.819893234131804" lon="12.530566209787626"><ele>543.0</ele><time>2026-04-27T10:34:30Z</time></trkpt><trkpt lat="42.82004721491973" lon="12.530624895534364"><ele>543.0</ele><time>2026-04-27T10:34:31Z</time></trkpt><trkpt lat="42.82019061115275" lon="12.530667975583363"><ele>541.5</ele><time>2026-04-27T10:34:32Z</time></trkpt><trkpt lat="42.82033472313865" lon="12.530684966059997"><ele>540.0</ele><time>2026-04-27T10:34:33Z</time></trkpt><trkpt lat="42.82047784017209" lon="12.530669079399207"><ele>538.5</ele><time>2026-04-27T10:34:34Z</time></trkpt><trkpt lat="42.82063064191862" lon="12.530634917773162"><ele>537.0</ele><time>2026-04-27T10:34:35Z</time></trkpt><trkpt lat="42.820803847754895" lon="12.53059232102724"><ele>537.0</ele><time>2026-04-27T10:34:36Z</time></trkpt><trkpt lat="42.82098229941823" lon="12.530543395833472"><ele>537.0</ele><time>2026-04-27T10:34:37Z</time></trkpt><trkpt lat="42.82116523588237" lon="12.530489430981977"><ele>537.0</ele><time>2026-04-27T10:34:38Z</time></trkpt><trkpt lat="42.82135105332093" lon="12.530433466591218"><ele>533.3333333333334</ele><time>2026-04-27T10:34:39Z</time></trkpt><trkpt lat="42.82153287233916" lon="12.530377398373018"><ele>529.6666666666667</ele><time>2026-04-27T10:34:40Z</time></trkpt><trkpt lat="42.82171167131862" lon="12.53032392404966"><ele>526.0</ele><time>2026-04-27T10:34:41Z</time></trkpt><trkpt lat="42.82188617125325" lon="12.530278906026142"><ele>526.0</ele><time>2026-04-27T10:34:42Z</time></trkpt><trkpt lat="42.82206415022594" lon="12.530248637289098"><ele>526.0</ele><time>2026-04-27T10:34:43Z</time></trkpt><trkpt lat="42.82224156261254" lon="12.53023248167449"><ele>526.0</ele><time>2026-04-27T10:34:44Z</time></trkpt><trkpt lat="42.822421394519104" lon="12.53023381865682"><ele>526.0</ele><time>2026-04-27T10:34:45Z</time></trkpt><trkpt lat="42.82260504534415" lon="12.530248679070956"><ele>526.0</ele><time>2026-04-27T10:34:46Z</time></trkpt><trkpt lat="42.82279388354233" lon="12.530266699034355"><ele>526.0</ele><time>2026-04-27T10:34:47Z</time></trkpt><trkpt lat="42.82298467930153" lon="12.530283648004191"><ele>524.6666666666667</ele><time>2026-04-27T10:34:48Z</time></trkpt><trkpt lat="42.82317669504955" lon="12.530301938067765"><ele>523.3333333333334</ele><time>2026-04-27T10:34:49Z</time></trkpt><trkpt lat="42.8233701414629" lon="12.530322788421"><ele>522.0</ele><time>2026-04-27T10:34:50Z</time></trkpt><trkpt lat="42.823562727791185" lon="12.530344583528064"><ele>522.0</ele><time>2026-04-27T10:34:51Z</time></trkpt><trkpt lat="42.82375527057734" lon="12.53036401290264"><ele>522.0</ele><time>2026-04-27T10:34:52Z</time></trkpt><trkpt lat="42.823945964227235" lon="12.530383176874002"><ele>522.0</ele><time>2026-04-27T10:34:53Z</time></trkpt><trkpt lat="42.82413646436031" lon="12.530402597243675"><ele>524.6666666666666</ele><time>2026-04-27T10:34:54Z</time></trkpt><trkpt lat="42.824324107375894" lon="12.530419779803543"><ele>527.3333333333333</ele><time>2026-04-27T10:34:55Z</time></trkpt><trkpt lat="42.82451032435674" lon="12.530435016842974"><ele>530.0</ele><time>2026-04-27T10:34:56Z</time></trkpt><trkpt lat="42.82469547973847" lon="12.530450747847995"><ele>530.0</ele><time>2026-04-27T10:34:57Z</time></trkpt><trkpt lat="42.82487774231911" lon="12.530467509733962"><ele>530.0</ele><time>2026-04-27T10:34:58Z</time></trkpt><trkpt lat="42.8250586354799" lon="12.530487181136497"><ele>530.0</ele><time>2026-04-27T10:34:59Z</time></trkpt><trkpt lat="42.82522935390884" lon="12.530505193274458"><ele>528.3333333333333</ele><time>2026-04-27T10:35:00Z</time></trkpt><trkpt lat="42.825391409836364" lon="12.530522358065602"><ele>526.6666666666666</ele><time>2026-04-27T10:35:01Z</time></trkpt><trkpt lat="42.825543217764206" lon="12.530537507658783"><ele>525.0</ele><time>2026-04-27T10:35:02Z</time></trkpt><trkpt lat="42.82568942893306" lon="12.53055611061693"><ele>525.0</ele><time>2026-04-27T10:35:03Z</time></trkpt><trkpt lat="42.82583772174225" lon="12.530588062046652"><ele>525.0</ele><time>2026-04-27T10:35:04Z</time></trkpt><trkpt lat="42.825985847344825" lon="12.530643666270658"><ele>525.0</ele><time>2026-04-27T10:35:05Z</time></trkpt><trkpt lat="42.82612797527285" lon="12.530727886833791"><ele>524.3333333333334</ele><time>2026-04-27T10:35:06Z</time></trkpt><trkpt lat="42.826264567985746" lon="12.530829612806563"><ele>523.6666666666667</ele><time>2026-04-27T10:35:07Z</time></trkpt><trkpt lat="42.82639700010111" lon="12.530948459942369"><ele>523.0</ele><time>2026-04-27T10:35:08Z</time></trkpt><trkpt lat="42.82653022535925" lon="12.531073029343439"><ele>523.0</ele><time>2026-04-27T10:35:09Z</time></trkpt><trkpt lat="42.826665843976954" lon="12.531196471496106"><ele>523.0</ele><time>2026-04-27T10:35:10Z</time></trkpt><trkpt lat="42.826797181143945" lon="12.531314186487101"><ele>523.0</ele><time>2026-04-27T10:35:11Z</time></trkpt><trkpt lat="42.82692822882967" lon="12.531434491451593"><ele>522.6666666666667</ele><time>2026-04-27T10:35:12Z</time></trkpt><trkpt lat="42.827058141393586" lon="12.531554693973234"><ele>522.3333333333334</ele><time>2026-04-27T10:35:13Z</time></trkpt><trkpt lat="42.82719099739843" lon="12.531663063791031"><ele>522.0</ele><time>2026-04-27T10:35:14Z</time></trkpt><trkpt lat="42.827333117221364" lon="12.531744810038788"><ele>522.0</ele><time>2026-04-27T10:35:15Z</time></trkpt><trkpt lat="42.82749085656493" lon="12.531795346589632"><ele>522.0</ele><time>2026-04-27T10:35:16Z</time></trkpt><trkpt lat="42.82765212539465" lon="12.5318217059813"><ele>522.0</ele><time>2026-04-27T10:35:17Z</time></trkpt><trkpt lat="42.82781755244687" lon="12.531827138432277"><ele>519.6666666666666</ele><time>2026-04-27T10:35:18Z</time></trkpt><trkpt lat="42.827984986912696" lon="12.531832493496353"><ele>517.3333333333333</ele><time>2026-04-27T10:35:19Z</time></trkpt><trkpt lat="42.828153340966395" lon="12.53184021425623"><ele>515.0</ele><time>2026-04-27T10:35:20Z</time></trkpt><trkpt lat="42.82831636144957" lon="12.531862545356537"><ele>515.0</ele><time>2026-04-27T10:35:21.001Z</time></trkpt><trkpt lat="42.828474114154524" lon="12.531901618672716"><ele>515.0</ele><time>2026-04-27T10:35:22.001Z</time></trkpt><trkpt lat="42.82862215732527" lon="12.531953300242474"><ele>515.0</ele><time>2026-04-27T10:35:23.001Z</time></trkpt><trkpt lat="42.828763135146325" lon="12.532009497251519"><ele>515.25</ele><time>2026-04-27T10:35:24.001Z</time></trkpt><trkpt lat="42.828892823560835" lon="12.532079439457359"><ele>515.5</ele><time>2026-04-27T10:35:25.001Z</time></trkpt><trkpt lat="42.82900849671913" lon="12.532177058503303"><ele>515.75</ele><time>2026-04-27T10:35:26.001Z</time></trkpt><trkpt lat="42.829117862592035" lon="12.532308366455217"><ele>516.0</ele><time>2026-04-27T10:35:27.001Z</time></trkpt><trkpt lat="42.829218182499446" lon="12.532465277743892"><ele>516.0</ele><time>2026-04-27T10:35:28.001Z</time></trkpt><trkpt lat="42.82930371107977" lon="12.53263819415188"><ele>516.0</ele><time>2026-04-27T10:35:29.001Z</time></trkpt><trkpt lat="42.82937737044903" lon="12.532815201336177"><ele>516.0</ele><time>2026-04-27T10:35:30.001Z</time></trkpt><trkpt lat="42.82945860810463" lon="12.532981326985068"><ele>516.0</ele><time>2026-04-27T10:35:31.001Z</time></trkpt><trkpt lat="42.829555851957345" lon="12.5331306689178"><ele>515.75</ele><time>2026-04-27T10:35:32.001Z</time></trkpt><trkpt lat="42.82966306204332" lon="12.533249589300082"><ele>515.5</ele><time>2026-04-27T10:35:33.001Z</time></trkpt><trkpt lat="42.82977885113817" lon="12.533342011036332"><ele>515.25</ele><time>2026-04-27T10:35:34.001Z</time></trkpt><trkpt lat="42.82989696350294" lon="12.533398210590297"><ele>515.0</ele><time>2026-04-27T10:35:35.001Z</time></trkpt><trkpt lat="42.83001551320722" lon="12.533409156364339"><ele>515.0</ele><time>2026-04-27T10:35:36.001Z</time></trkpt><trkpt lat="42.830126104737055" lon="12.533369244161989"><ele>515.0</ele><time>2026-04-27T10:35:37Z</time></trkpt><trkpt lat="42.83023993647343" lon="12.533299321787899"><ele>515.0</ele><time>2026-04-27T10:35:38Z</time></trkpt><trkpt lat="42.830361645999716" lon="12.533243815202017"><ele>515.0</ele><time>2026-04-27T10:35:39Z</time></trkpt><trkpt lat="42.83048488571346" lon="12.533224026677223"><ele>514.0</ele><time>2026-04-27T10:35:40Z</time></trkpt><trkpt lat="42.83061547519136" lon="12.533245192900173"><ele>513.0</ele><time>2026-04-27T10:35:41Z</time></trkpt><trkpt lat="42.83074023442397" lon="12.533308846623795"><ele>512.0</ele><time>2026-04-27T10:35:42Z</time></trkpt><trkpt lat="42.83085762817578" lon="12.533395953773518"><ele>511.0</ele><time>2026-04-27T10:35:43Z</time></trkpt><trkpt lat="42.83097409611855" lon="12.533489384982653"><ele>511.25</ele><time>2026-04-27T10:35:44Z</time></trkpt><trkpt lat="42.831092808392725" lon="12.53357964272362"><ele>511.5</ele><time>2026-04-27T10:35:45Z</time></trkpt><trkpt lat="42.83121338359096" lon="12.533667543693168"><ele>511.75</ele><time>2026-04-27T10:35:46Z</time></trkpt><trkpt lat="42.831341954792805" lon="12.533740423656672"><ele>512.0</ele><time>2026-04-27T10:35:47Z</time></trkpt><trkpt lat="42.83147763434015" lon="12.533791079491268"><ele>512.0</ele><time>2026-04-27T10:35:48Z</time></trkpt><trkpt lat="42.83161749976251" lon="12.533812460178137"><ele>512.0</ele><time>2026-04-27T10:35:49Z</time></trkpt><trkpt lat="42.83176136490029" lon="12.533802384404115"><ele>512.0</ele><time>2026-04-27T10:35:50Z</time></trkpt><trkpt lat="42.83190515271445" lon="12.533764778991353"><ele>512.0</ele><time>2026-04-27T10:35:51Z</time></trkpt><trkpt lat="42.83204681693824" lon="12.533706289673589"><ele>506.3333333333333</ele><time>2026-04-27T10:35:52Z</time></trkpt><trkpt lat="42.83218848963461" lon="12.533637283133261"><ele>500.66666666666663</ele><time>2026-04-27T10:35:53Z</time></trkpt><trkpt lat="42.83233549508568" lon="12.533574712820407"><ele>495.0</ele><time>2026-04-27T10:35:54Z</time></trkpt><trkpt lat="42.83248701531496" lon="12.533529196215605"><ele>494.33333333333337</ele><time>2026-04-27T10:35:55Z</time></trkpt><trkpt lat="42.8326404152722" lon="12.533510786539397"><ele>493.6666666666667</ele><time>2026-04-27T10:35:56Z</time></trkpt><trkpt lat="42.83279471419674" lon="12.533519865160526"><ele>493.0</ele><time>2026-04-27T10:35:57Z</time></trkpt><trkpt lat="42.832948365799425" lon="12.533557934854194"><ele>493.0</ele><time>2026-04-27T10:35:58Z</time></trkpt><trkpt lat="42.833089439726244" lon="12.533614603428326"><ele>493.0</ele><time>2026-04-27T10:35:59Z</time></trkpt><trkpt lat="42.8332133216092" lon="12.533698675377542"><ele>493.0</ele><time>2026-04-27T10:36:00Z</time></trkpt><trkpt lat="42.83332255640957" lon="12.533802072189886"><ele>493.0</ele><time>2026-04-27T10:36:01Z</time></trkpt><trkpt lat="42.83342513585231" lon="12.533899904025892"><ele>493.75</ele><time>2026-04-27T10:36:02Z</time></trkpt><trkpt lat="42.83353666171945" lon="12.533966681392348"><ele>494.5</ele><time>2026-04-27T10:36:03Z</time></trkpt><trkpt lat="42.833665310735995" lon="12.534004020894539"><ele>495.25</ele><time>2026-04-27T10:36:04Z</time></trkpt><trkpt lat="42.8338043608817" lon="12.533993950329872"><ele>496.0</ele><time>2026-04-27T10:36:05Z</time></trkpt><trkpt lat="42.83394347018465" lon="12.533962743141307"><ele>496.0</ele><time>2026-04-27T10:36:06Z</time></trkpt><trkpt lat="42.83407015800379" lon="12.533922340244938"><ele>496.0</ele><time>2026-04-27T10:36:07Z</time></trkpt><trkpt lat="42.83418679820676" lon="12.533878002513207"><ele>496.0</ele><time>2026-04-27T10:36:08Z</time></trkpt><trkpt lat="42.834287099439294" lon="12.533829058336845"><ele>496.0</ele><time>2026-04-27T10:36:09Z</time></trkpt><trkpt lat="42.83436523879118" lon="12.533759063410757"><ele>493.25</ele><time>2026-04-27T10:36:10Z</time></trkpt><trkpt lat="42.83443071131039" lon="12.533645999037395"><ele>490.5</ele><time>2026-04-27T10:36:11Z</time></trkpt><trkpt lat="42.83446780475582" lon="12.533500385621185"><ele>487.75</ele><time>2026-04-27T10:36:12Z</time></trkpt><trkpt lat="42.834482220065084" lon="12.533341203039871"><ele>485.0</ele><time>2026-04-27T10:36:13Z</time></trkpt><trkpt lat="42.83449432159347" lon="12.53318047647413"><ele>485.0</ele><time>2026-04-27T10:36:14Z</time></trkpt><trkpt lat="42.83451527393231" lon="12.533034426531623"><ele>485.0</ele><time>2026-04-27T10:36:15Z</time></trkpt><trkpt lat="42.83455333531126" lon="12.532902579889"><ele>485.0</ele><time>2026-04-27T10:36:16Z</time></trkpt><trkpt lat="42.834620430853626" lon="12.532800160726591"><ele>485.0</ele><time>2026-04-27T10:36:17Z</time></trkpt><trkpt lat="42.834719424821124" lon="12.532741141099608"><ele>485.0</ele><time>2026-04-27T10:36:18Z</time></trkpt><trkpt lat="42.83483555893502" lon="12.532718280722747"><ele>484.5</ele><time>2026-04-27T10:36:19Z</time></trkpt><trkpt lat="42.834963162554665" lon="12.532709389670874"><ele>484.0</ele><time>2026-04-27T10:36:20Z</time></trkpt><trkpt lat="42.83509665232947" lon="12.532689575948917"><ele>483.5</ele><time>2026-04-27T10:36:21Z</time></trkpt><trkpt lat="42.83523561783348" lon="12.532660298082162"><ele>483.0</ele><time>2026-04-27T10:36:22Z</time></trkpt><trkpt lat="42.835382629609924" lon="12.532628674643442"><ele>482.0</ele><time>2026-04-27T10:36:23Z</time></trkpt><trkpt lat="42.83552477517123" lon="12.532601181572954"><ele>481.0</ele><time>2026-04-27T10:36:24Z</time></trkpt><trkpt lat="42.83565651747978" lon="12.532575395087246"><ele>480.0</ele><time>2026-04-27T10:36:25Z</time></trkpt><trkpt lat="42.83578175856057" lon="12.532550913240277"><ele>479.0</ele><time>2026-04-27T10:36:26Z</time></trkpt><trkpt lat="42.83590025515412" lon="12.532548389048182"><ele>477.5</ele><time>2026-04-27T10:36:27Z</time></trkpt><trkpt lat="42.83601985173673" lon="12.532586401868313"><ele>476.0</ele><time>2026-04-27T10:36:28Z</time></trkpt><trkpt lat="42.83613585921314" lon="12.532667792125247"><ele>474.5</ele><time>2026-04-27T10:36:29Z</time></trkpt><trkpt lat="42.83624468503574" lon="12.532768224183606"><ele>473.0</ele><time>2026-04-27T10:36:30Z</time></trkpt><trkpt lat="42.83635043699261" lon="12.532869433753236"><ele>472.75</ele><time>2026-04-27T10:36:31Z</time></trkpt><trkpt lat="42.836452740205985" lon="12.532961334142696"><ele>472.5</ele><time>2026-04-27T10:36:32Z</time></trkpt><trkpt lat="42.83655217050033" lon="12.53305209541589"><ele>472.25</ele><time>2026-04-27T10:36:33Z</time></trkpt><trkpt lat="42.83663698387671" lon="12.533154632821146"><ele>472.0</ele><time>2026-04-27T10:36:34Z</time></trkpt><trkpt lat="42.8366942541836" lon="12.533280508163568"><ele>472.0</ele><time>2026-04-27T10:36:35Z</time></trkpt><trkpt lat="42.836713022070775" lon="12.533422291884571"><ele>472.0</ele><time>2026-04-27T10:36:36Z</time></trkpt><trkpt lat="42.836692081100225" lon="12.53356490627534"><ele>472.0</ele><time>2026-04-27T10:36:37Z</time></trkpt><trkpt lat="42.83664423396512" lon="12.533710520947144"><ele>472.0</ele><time>2026-04-27T10:36:38Z</time></trkpt><trkpt lat="42.8365708893163" lon="12.533851313416916"><ele>471.6</ele><time>2026-04-27T10:36:39Z</time></trkpt><trkpt lat="42.83649154427682" lon="12.533980520805306"><ele>471.20000000000005</ele><time>2026-04-27T10:36:40Z</time></trkpt><trkpt lat="42.836416001807095" lon="12.534101146980486"><ele>470.8</ele><time>2026-04-27T10:36:41Z</time></trkpt><trkpt lat="42.83635340160257" lon="12.534220068294337"><ele>470.4</ele><time>2026-04-27T10:36:42Z</time></trkpt><trkpt lat="42.83630128857247" lon="12.534327465121995"><ele>470.0</ele><time>2026-04-27T10:36:43Z</time></trkpt><trkpt lat="42.83630660205872" lon="12.534446696431276"><ele>470.0</ele><time>2026-04-27T10:36:44Z</time></trkpt><trkpt lat="42.8363303424345" lon="12.534548666675887"><ele>470.0</ele><time>2026-04-27T10:36:45Z</time></trkpt><trkpt lat="42.83638959801254" lon="12.534639346556167"><ele>470.0</ele><time>2026-04-27T10:36:46Z</time></trkpt><trkpt lat="42.8364766037525" lon="12.534706096591325"><ele>470.0</ele><time>2026-04-27T10:36:47Z</time></trkpt><trkpt lat="42.836578393320664" lon="12.534734526222804"><ele>470.0</ele><time>2026-04-27T10:36:48Z</time></trkpt><trkpt lat="42.8366874827579" lon="12.534719493902353"><ele>468.75</ele><time>2026-04-27T10:36:49Z</time></trkpt><trkpt lat="42.83680416733788" lon="12.534674558699825"><ele>467.5</ele><time>2026-04-27T10:36:50Z</time></trkpt><trkpt lat="42.8369248188657" lon="12.534612211193942"><ele>466.25</ele><time>2026-04-27T10:36:51Z</time></trkpt><trkpt lat="42.837044339210486" lon="12.534545088837215"><ele>465.0</ele><time>2026-04-27T10:36:52Z</time></trkpt><trkpt lat="42.83715730129101" lon="12.534479558789572"><ele>465.0</ele><time>2026-04-27T10:36:53Z</time></trkpt><trkpt lat="42.8372735061665" lon="12.53441936467609"><ele>465.0</ele><time>2026-04-27T10:36:54Z</time></trkpt><trkpt lat="42.83738972268847" lon="12.534364231906224"><ele>465.0</ele><time>2026-04-27T10:36:55Z</time></trkpt><trkpt lat="42.83751172934035" lon="12.534321264890002"><ele>465.0</ele><time>2026-04-27T10:36:56Z</time></trkpt><trkpt lat="42.83763965063656" lon="12.534304581040454"><ele>463.75</ele><time>2026-04-27T10:36:57Z</time></trkpt><trkpt lat="42.837772564886926" lon="12.534308342731066"><ele>462.5</ele><time>2026-04-27T10:36:58Z</time></trkpt><trkpt lat="42.83790819118643" lon="12.534322218446126"><ele>461.25</ele><time>2026-04-27T10:36:59Z</time></trkpt><trkpt lat="42.83804657477133" lon="12.534337947799226"><ele>460.0</ele><time>2026-04-27T10:37:00Z</time></trkpt><trkpt lat="42.83818810773488" lon="12.534353875757448"><ele>460.0</ele><time>2026-04-27T10:37:01Z</time></trkpt><trkpt lat="42.838334128968384" lon="12.53437088261259"><ele>460.0</ele><time>2026-04-27T10:37:02Z</time></trkpt><trkpt lat="42.83848277895898" lon="12.534388060177793"><ele>460.0</ele><time>2026-04-27T10:37:03Z</time></trkpt><trkpt lat="42.838633261758716" lon="12.534407942089546"><ele>460.0</ele><time>2026-04-27T10:37:04Z</time></trkpt><trkpt lat="42.838785804416844" lon="12.53443771121987"><ele>460.0</ele><time>2026-04-27T10:37:05Z</time></trkpt><trkpt lat="42.83893172475919" lon="12.534475093327904"><ele>460.0</ele><time>2026-04-27T10:37:06Z</time></trkpt><trkpt lat="42.839072472219534" lon="12.534525888558877"><ele>460.0</ele><time>2026-04-27T10:37:07Z</time></trkpt><trkpt lat="42.83920805264921" lon="12.534583871912107"><ele>460.0</ele><time>2026-04-27T10:37:08Z</time></trkpt><trkpt lat="42.839340058026316" lon="12.534641112073544"><ele>459.0</ele><time>2026-04-27T10:37:09Z</time></trkpt><trkpt lat="42.83946354041869" lon="12.534702536205767"><ele>458.0</ele><time>2026-04-27T10:37:10Z</time></trkpt><trkpt lat="42.83957095790814" lon="12.534776867396266"><ele>457.0</ele><time>2026-04-27T10:37:11Z</time></trkpt><trkpt lat="42.839648020934796" lon="12.534858568765703"><ele>456.0</ele><time>2026-04-27T10:37:12Z</time></trkpt><trkpt lat="42.839702746543665" lon="12.534954383770362"><ele>455.0</ele><time>2026-04-27T10:37:13Z</time></trkpt><trkpt lat="42.839730262091265" lon="12.53506822754487"><ele>455.0</ele><time>2026-04-27T10:37:14Z</time></trkpt><trkpt lat="42.83970361967339" lon="12.535191652726033"><ele>455.0</ele><time>2026-04-27T10:37:15Z</time></trkpt><trkpt lat="42.83966940749381" lon="12.535330918355273"><ele>455.0</ele><time>2026-04-27T10:37:16Z</time></trkpt><trkpt lat="42.83962119837031" lon="12.535486845629444"><ele>455.0</ele><time>2026-04-27T10:37:17Z</time></trkpt><trkpt lat="42.83958207446652" lon="12.535667228181207"><ele>453.25</ele><time>2026-04-27T10:37:18Z</time></trkpt><trkpt lat="42.83952719189376" lon="12.53583946244936"><ele>451.5</ele><time>2026-04-27T10:37:19Z</time></trkpt><trkpt lat="42.83947140208428" lon="12.5360091489412"><ele>449.75</ele><time>2026-04-27T10:37:20Z</time></trkpt><trkpt lat="42.83941934565774" lon="12.536168588809181"><ele>448.0</ele><time>2026-04-27T10:37:21Z</time></trkpt><trkpt lat="42.83937391382853" lon="12.536322485731606"><ele>447.2</ele><time>2026-04-27T10:37:22Z</time></trkpt><trkpt lat="42.8393429291915" lon="12.536473052285418"><ele>446.4</ele><time>2026-04-27T10:37:23Z</time></trkpt><trkpt lat="42.83933471808007" lon="12.536622889902052"><ele>445.59999999999997</ele><time>2026-04-27T10:37:24Z</time></trkpt><trkpt lat="42.839355561878186" lon="12.536768264765362"><ele>444.79999999999995</ele><time>2026-04-27T10:37:25Z</time></trkpt><trkpt lat="42.83940819767799" lon="12.53690131911839"><ele>444.0</ele><time>2026-04-27T10:37:26Z</time></trkpt><trkpt lat="42.839485113851616" lon="12.537025693980345"><ele>444.5</ele><time>2026-04-27T10:37:27Z</time></trkpt><trkpt lat="42.83957490484012" lon="12.537147479875058"><ele>445.0</ele><time>2026-04-27T10:37:28Z</time></trkpt><trkpt lat="42.83967045175741" lon="12.537276252558337"><ele>445.5</ele><time>2026-04-27T10:37:29Z</time></trkpt><trkpt lat="42.83976776357776" lon="12.537414703640737"><ele>446.0</ele><time>2026-04-27T10:37:30Z</time></trkpt><trkpt lat="42.8398682672087" lon="12.537555219771363"><ele>446.0</ele><time>2026-04-27T10:37:31Z</time></trkpt><trkpt lat="42.839970785928536" lon="12.537698112412551"><ele>446.0</ele><time>2026-04-27T10:37:32Z</time></trkpt><trkpt lat="42.84007067626658" lon="12.537838774414578"><ele>446.0</ele><time>2026-04-27T10:37:33Z</time></trkpt><trkpt lat="42.840173253265924" lon="12.537978485902475"><ele>446.0</ele><time>2026-04-27T10:37:34Z</time></trkpt><trkpt lat="42.84027867767688" lon="12.538114488354537"><ele>444.0</ele><time>2026-04-27T10:37:35Z</time></trkpt><trkpt lat="42.84039055753578" lon="12.538250501192772"><ele>442.0</ele><time>2026-04-27T10:37:36Z</time></trkpt><trkpt lat="42.84050298645981" lon="12.538373482054727"><ele>440.0</ele><time>2026-04-27T10:37:37Z</time></trkpt><trkpt lat="42.84062111769196" lon="12.538482253642552"><ele>438.0</ele><time>2026-04-27T10:37:38Z</time></trkpt><trkpt lat="42.84075039647165" lon="12.538572588447401"><ele>438.0</ele><time>2026-04-27T10:37:39Z</time></trkpt><trkpt lat="42.840892023844695" lon="12.5386448381809"><ele>438.0</ele><time>2026-04-27T10:37:40Z</time></trkpt><trkpt lat="42.841038638707126" lon="12.538706662590732"><ele>438.0</ele><time>2026-04-27T10:37:41Z</time></trkpt><trkpt lat="42.84118783089833" lon="12.538767441584373"><ele>437.66666666666663</ele><time>2026-04-27T10:37:42Z</time></trkpt><trkpt lat="42.8413378927315" lon="12.538823161835221"><ele>437.3333333333333</ele><time>2026-04-27T10:37:43Z</time></trkpt><trkpt lat="42.841486465011435" lon="12.538877451571466"><ele>437.0</ele><time>2026-04-27T10:37:44Z</time></trkpt><trkpt lat="42.841630389249026" lon="12.538936185505055"><ele>437.0</ele><time>2026-04-27T10:37:45Z</time></trkpt><trkpt lat="42.84177107692543" lon="12.538999896568667"><ele>437.0</ele><time>2026-04-27T10:37:46Z</time></trkpt><trkpt lat="42.84190738560472" lon="12.539067191709224"><ele>437.0</ele><time>2026-04-27T10:37:47Z</time></trkpt><trkpt lat="42.842040599407106" lon="12.539143873555313"><ele>437.0</ele><time>2026-04-27T10:37:48Z</time></trkpt><trkpt lat="42.84217631018338" lon="12.53923924538035"><ele>436.0</ele><time>2026-04-27T10:37:49Z</time></trkpt><trkpt lat="42.842308084829" lon="12.53934718328395"><ele>435.0</ele><time>2026-04-27T10:37:50Z</time></trkpt><trkpt lat="42.84243440544932" lon="12.539467518666878"><ele>434.0</ele><time>2026-04-27T10:37:51Z</time></trkpt><trkpt lat="42.84255715366371" lon="12.539598518722732"><ele>431.66666666666663</ele><time>2026-04-27T10:37:52Z</time></trkpt><trkpt lat="42.842679415805854" lon="12.539738350240352"><ele>429.33333333333337</ele><time>2026-04-27T10:37:53Z</time></trkpt><trkpt lat="42.842802432830595" lon="12.53988015859257"><ele>427.0</ele><time>2026-04-27T10:37:54Z</time></trkpt><trkpt lat="42.84292811712214" lon="12.5400227213072"><ele>427.0</ele><time>2026-04-27T10:37:55Z</time></trkpt><trkpt lat="42.84305768774927" lon="12.54016936857685"><ele>427.0</ele><time>2026-04-27T10:37:56Z</time></trkpt><trkpt lat="42.84318951323966" lon="12.540316893206706"><ele>427.0</ele><time>2026-04-27T10:37:57Z</time></trkpt><trkpt lat="42.84332113466286" lon="12.540463595320068"><ele>427.0</ele><time>2026-04-27T10:37:58Z</time></trkpt><trkpt lat="42.84345151949514" lon="12.540609934786398"><ele>427.0</ele><time>2026-04-27T10:37:59Z</time></trkpt><trkpt lat="42.84358195133342" lon="12.540754957166255"><ele>427.0</ele><time>2026-04-27T10:38:00Z</time></trkpt><trkpt lat="42.843711176089094" lon="12.540900253104892"><ele>427.0</ele><time>2026-04-27T10:38:01Z</time></trkpt><trkpt lat="42.8438338085684" lon="12.541051727660784"><ele>427.0</ele><time>2026-04-27T10:38:02Z</time></trkpt><trkpt lat="42.84394641586823" lon="12.541216441508828"><ele>427.0</ele><time>2026-04-27T10:38:03Z</time></trkpt><trkpt lat="42.84404637839491" lon="12.541388843234913"><ele>427.0</ele><time>2026-04-27T10:38:04Z</time></trkpt><trkpt lat="42.84413504355772" lon="12.541565620393254"><ele>427.0</ele><time>2026-04-27T10:38:05Z</time></trkpt><trkpt lat="42.84420998912155" lon="12.541748025525617"><ele>427.0</ele><time>2026-04-27T10:38:06Z</time></trkpt><trkpt lat="42.84427352714674" lon="12.541934492658028"><ele>425.33333333333337</ele><time>2026-04-27T10:38:07Z</time></trkpt><trkpt lat="42.844332162347534" lon="12.542130830514585"><ele>423.66666666666663</ele><time>2026-04-27T10:38:08Z</time></trkpt><trkpt lat="42.844387191254896" lon="12.542339569926167"><ele>422.0</ele><time>2026-04-27T10:38:09Z</time></trkpt><trkpt lat="42.8444430137976" lon="12.542549704060281"><ele>422.0</ele><time>2026-04-27T10:38:10Z</time></trkpt><trkpt lat="42.84449956399704" lon="12.542761664190746"><ele>422.0</ele><time>2026-04-27T10:38:11Z</time></trkpt><trkpt lat="42.8445541566308" lon="12.54297478971864"><ele>422.0</ele><time>2026-04-27T10:38:12Z</time></trkpt><trkpt lat="42.84460737121134" lon="12.543182144825225"><ele>421.25</ele><time>2026-04-27T10:38:13Z</time></trkpt><trkpt lat="42.84465830127004" lon="12.543381909825602"><ele>420.5</ele><time>2026-04-27T10:38:14Z</time></trkpt><trkpt lat="42.84468575914774" lon="12.54358005294114"><ele>419.75</ele><time>2026-04-27T10:38:15Z</time></trkpt><trkpt lat="42.84473654315262" lon="12.543758425024357"><ele>419.0</ele><time>2026-04-27T10:38:16Z</time></trkpt><trkpt lat="42.84475864185847" lon="12.54393577699185"><ele>418.75</ele><time>2026-04-27T10:38:17Z</time></trkpt><trkpt lat="42.84476795350926" lon="12.54408978265862"><ele>418.5</ele><time>2026-04-27T10:38:18Z</time></trkpt><trkpt lat="42.84476158563014" lon="12.544229186317699"><ele>418.25</ele><time>2026-04-27T10:38:19Z</time></trkpt><trkpt lat="42.8447353413522" lon="12.544371633258843"><ele>418.0</ele><time>2026-04-27T10:38:20Z</time></trkpt><trkpt lat="42.844666979251194" lon="12.544530491202476"><ele>417.5</ele><time>2026-04-27T10:38:21Z</time></trkpt><trkpt lat="42.84460894514327" lon="12.544654987823911"><ele>417.0</ele><time>2026-04-27T10:38:22Z</time></trkpt><trkpt lat="42.844548576727036" lon="12.544815350249394"><ele>416.5</ele><time>2026-04-27T10:38:23Z</time></trkpt><trkpt lat="42.84450195610182" lon="12.544988277591838"><ele>416.0</ele><time>2026-04-27T10:38:24Z</time></trkpt><trkpt lat="42.84447476253257" lon="12.545162691068322"><ele>416.0</ele><time>2026-04-27T10:38:25Z</time></trkpt><trkpt lat="42.84446589738482" lon="12.545325641683378"><ele>416.0</ele><time>2026-04-27T10:38:26Z</time></trkpt><trkpt lat="42.844477914119814" lon="12.545482422204042"><ele>416.0</ele><time>2026-04-27T10:38:27Z</time></trkpt><trkpt lat="42.84451572379779" lon="12.545637226921173"><ele>416.0</ele><time>2026-04-27T10:38:28Z</time></trkpt><trkpt lat="42.84457567654157" lon="12.545782942223786"><ele>416.5</ele><time>2026-04-27T10:38:29Z</time></trkpt><trkpt lat="42.84465695522474" lon="12.545925368653359"><ele>417.0</ele><time>2026-04-27T10:38:30Z</time></trkpt><trkpt lat="42.84475520325454" lon="12.546070455957839"><ele>417.5</ele><time>2026-04-27T10:38:31Z</time></trkpt><trkpt lat="42.844864220153084" lon="12.546218576365025"><ele>418.0</ele><time>2026-04-27T10:38:32Z</time></trkpt><trkpt lat="42.844981904214066" lon="12.546370785602562"><ele>417.6666666666667</ele><time>2026-04-27T10:38:33Z</time></trkpt><trkpt lat="42.84510293697974" lon="12.54652306841424"><ele>417.33333333333337</ele><time>2026-04-27T10:38:34Z</time></trkpt><trkpt lat="42.8452285844795" lon="12.546683404182218"><ele>417.0</ele><time>2026-04-27T10:38:35Z</time></trkpt><trkpt lat="42.845351789074876" lon="12.54684958535396"><ele>417.0</ele><time>2026-04-27T10:38:36Z</time></trkpt><trkpt lat="42.84547148574049" lon="12.547010874082407"><ele>417.0</ele><time>2026-04-27T10:38:37Z</time></trkpt><trkpt lat="42.84559380510584" lon="12.547171953143101"><ele>417.0</ele><time>2026-04-27T10:38:38Z</time></trkpt><trkpt lat="42.84571756841576" lon="12.54732941994913"><ele>417.33333333333337</ele><time>2026-04-27T10:38:39Z</time></trkpt><trkpt lat="42.845840323096304" lon="12.547485495970182"><ele>417.6666666666667</ele><time>2026-04-27T10:38:40Z</time></trkpt><trkpt lat="42.84595789575555" lon="12.547631139350742"><ele>418.0</ele><time>2026-04-27T10:38:41Z</time></trkpt><trkpt lat="42.84606960964303" lon="12.547768490665824"><ele>419.0</ele><time>2026-04-27T10:38:42Z</time></trkpt><trkpt lat="42.84617868358347" lon="12.547913837388776"><ele>420.0</ele><time>2026-04-27T10:38:43Z</time></trkpt><trkpt lat="42.84628206804342" lon="12.548072499072264"><ele>421.0</ele><time>2026-04-27T10:38:44Z</time></trkpt><trkpt lat="42.84637795618561" lon="12.548247081598475"><ele>421.0</ele><time>2026-04-27T10:38:45Z</time></trkpt><trkpt lat="42.84647024817237" lon="12.548434141618193"><ele>421.0</ele><time>2026-04-27T10:38:46Z</time></trkpt><trkpt lat="42.84656718409896" lon="12.548623975689033"><ele>421.0</ele><time>2026-04-27T10:38:47Z</time></trkpt><trkpt lat="42.84666884627107" lon="12.54881175866486"><ele>423.0</ele><time>2026-04-27T10:38:48Z</time></trkpt><trkpt lat="42.8467797399917" lon="12.548993611507228"><ele>425.0</ele><time>2026-04-27T10:38:49Z</time></trkpt><trkpt lat="42.846899279689765" lon="12.549170531588652"><ele>427.0</ele><time>2026-04-27T10:38:50Z</time></trkpt><trkpt lat="42.84702452864303" lon="12.54934134430423"><ele>424.6666666666667</ele><time>2026-04-27T10:38:51Z</time></trkpt><trkpt lat="42.84714885807119" lon="12.549506633421622"><ele>422.33333333333337</ele><time>2026-04-27T10:38:52Z</time></trkpt><trkpt lat="42.84727121331821" lon="12.549668167119991"><ele>420.0</ele><time>2026-04-27T10:38:53Z</time></trkpt><trkpt lat="42.847390504400025" lon="12.549819822433841"><ele>420.0</ele><time>2026-04-27T10:38:54Z</time></trkpt><trkpt lat="42.847504293839414" lon="12.549958896158536"><ele>420.0</ele><time>2026-04-27T10:38:55Z</time></trkpt><trkpt lat="42.847615227700025" lon="12.55009227417565"><ele>420.0</ele><time>2026-04-27T10:38:56Z</time></trkpt><trkpt lat="42.84770389930207" lon="12.550231595964789"><ele>420.0</ele><time>2026-04-27T10:38:57Z</time></trkpt><trkpt lat="42.84778907148956" lon="12.550347237702617"><ele>417.75</ele><time>2026-04-27T10:38:58Z</time></trkpt><trkpt lat="42.84787659974437" lon="12.550459412442038"><ele>415.5</ele><time>2026-04-27T10:38:59Z</time></trkpt><trkpt lat="42.847943252608594" lon="12.550614642707698"><ele>413.25</ele><time>2026-04-27T10:39:00Z</time></trkpt><trkpt lat="42.84799568478137" lon="12.550793250675445"><ele>411.0</ele><time>2026-04-27T10:39:01Z</time></trkpt><trkpt lat="42.84803525180832" lon="12.550992915764382"><ele>411.0</ele><time>2026-04-27T10:39:02Z</time></trkpt><trkpt lat="42.84807211342089" lon="12.551202400242106"><ele>411.0</ele><time>2026-04-27T10:39:03Z</time></trkpt><trkpt lat="42.84811417284245" lon="12.551419635110063"><ele>411.0</ele><time>2026-04-27T10:39:04Z</time></trkpt><trkpt lat="42.848164633730775" lon="12.55162944224807"><ele>411.75</ele><time>2026-04-27T10:39:05Z</time></trkpt><trkpt lat="42.84821885376808" lon="12.5518182342524"><ele>412.5</ele><time>2026-04-27T10:39:06Z</time></trkpt><trkpt lat="42.848276820169424" lon="12.551985386746"><ele>413.25</ele><time>2026-04-27T10:39:07Z</time></trkpt><trkpt lat="42.84833523176316" lon="12.552136925347078"><ele>414.0</ele><time>2026-04-27T10:39:08Z</time></trkpt><trkpt lat="42.848398579661435" lon="12.552272005597999"><ele>414.0</ele><time>2026-04-27T10:39:09Z</time></trkpt><trkpt lat="42.848470570701394" lon="12.552383585922392"><ele>414.0</ele><time>2026-04-27T10:39:10Z</time></trkpt><trkpt lat="42.84856418846916" lon="12.552475838959829"><ele>414.0</ele><time>2026-04-27T10:39:11Z</time></trkpt><trkpt lat="42.84867979584444" lon="12.552536178601411"><ele>414.0</ele><time>2026-04-27T10:39:12Z</time></trkpt><trkpt lat="42.84880548825254" lon="12.552565185212451"><ele>414.0</ele><time>2026-04-27T10:39:13Z</time></trkpt><trkpt lat="42.84893533568665" lon="12.552569789999101"><ele>414.0</ele><time>2026-04-27T10:39:14Z</time></trkpt><trkpt lat="42.84905948621753" lon="12.552556560323724"><ele>414.0</ele><time>2026-04-27T10:39:15Z</time></trkpt><trkpt lat="42.849174586981825" lon="12.55251970720702"><ele>414.0</ele><time>2026-04-27T10:39:16Z</time></trkpt><trkpt lat="42.849282200772564" lon="12.552446119202243"><ele>412.75</ele><time>2026-04-27T10:39:17Z</time></trkpt><trkpt lat="42.849379954071786" lon="12.552336785421806"><ele>411.5</ele><time>2026-04-27T10:39:18Z</time></trkpt><trkpt lat="42.849467204299735" lon="12.55218500167226"><ele>410.25</ele><time>2026-04-27T10:39:19Z</time></trkpt><trkpt lat="42.849556867509904" lon="12.552011631890334"><ele>409.0</ele><time>2026-04-27T10:39:20Z</time></trkpt><trkpt lat="42.84965530226499" lon="12.551825625144874"><ele>408.0</ele><time>2026-04-27T10:39:21Z</time></trkpt><trkpt lat="42.84975651433983" lon="12.551638372810686"><ele>407.0</ele><time>2026-04-27T10:39:22Z</time></trkpt><trkpt lat="42.849868950357006" lon="12.551455709650138"><ele>406.0</ele><time>2026-04-27T10:39:23Z</time></trkpt><trkpt lat="42.849992303723496" lon="12.55128608900208"><ele>405.0</ele><time>2026-04-27T10:39:24Z</time></trkpt><trkpt lat="42.85012632037058" lon="12.551126055654544"><ele>404.0</ele><time>2026-04-27T10:39:25Z</time></trkpt><trkpt lat="42.85026260900241" lon="12.55096940549762"><ele>403.0</ele><time>2026-04-27T10:39:26Z</time></trkpt><trkpt lat="42.85040182652322" lon="12.550817576554362"><ele>403.0</ele><time>2026-04-27T10:39:27Z</time></trkpt><trkpt lat="42.850546387866906" lon="12.55067245994042"><ele>403.0</ele><time>2026-04-27T10:39:28Z</time></trkpt><trkpt lat="42.850695097099404" lon="12.550531918597821"><ele>403.0</ele><time>2026-04-27T10:39:29Z</time></trkpt><trkpt lat="42.850846547804665" lon="12.550392178697647"><ele>403.33333333333337</ele><time>2026-04-27T10:39:30Z</time></trkpt><trkpt lat="42.850998184923334" lon="12.550249178034933"><ele>403.66666666666663</ele><time>2026-04-27T10:39:31Z</time></trkpt><trkpt lat="42.85115022672405" lon="12.550107198995239"><ele>404.0</ele><time>2026-04-27T10:39:32Z</time></trkpt><trkpt lat="42.851306238753914" lon="12.549967509085832"><ele>404.0</ele><time>2026-04-27T10:39:33Z</time></trkpt><trkpt lat="42.851462812240264" lon="12.549826003473056"><ele>404.0</ele><time>2026-04-27T10:39:34Z</time></trkpt><trkpt lat="42.851614405598454" lon="12.549686619587748"><ele>404.0</ele><time>2026-04-27T10:39:35Z</time></trkpt><trkpt lat="42.85176074772414" lon="12.54955223300072"><ele>402.0</ele><time>2026-04-27T10:39:36Z</time></trkpt><trkpt lat="42.851902809899215" lon="12.54942956166752"><ele>400.0</ele><time>2026-04-27T10:39:37Z</time></trkpt><trkpt lat="42.85205323314478" lon="12.54932096339922"><ele>398.0</ele><time>2026-04-27T10:39:38Z</time></trkpt><trkpt lat="42.85221523000967" lon="12.549220487228586"><ele>398.0</ele><time>2026-04-27T10:39:39Z</time></trkpt><trkpt lat="42.85238847421732" lon="12.549122549602943"><ele>398.0</ele><time>2026-04-27T10:39:40Z</time></trkpt><trkpt lat="42.852569632690916" lon="12.549027724813925"><ele>398.0</ele><time>2026-04-27T10:39:41Z</time></trkpt><trkpt lat="42.85275048558928" lon="12.548937567887583"><ele>397.3333333333333</ele><time>2026-04-27T10:39:42Z</time></trkpt><trkpt lat="42.8529294839684" lon="12.548848933369245"><ele>396.66666666666663</ele><time>2026-04-27T10:39:43Z</time></trkpt><trkpt lat="42.85310624391961" lon="12.548758545591639"><ele>396.0</ele><time>2026-04-27T10:39:44Z</time></trkpt><trkpt lat="42.85327916194974" lon="12.548672026093412"><ele>396.0</ele><time>2026-04-27T10:39:45Z</time></trkpt><trkpt lat="42.853446035549474" lon="12.548592193268053"><ele>396.0</ele><time>2026-04-27T10:39:46Z</time></trkpt><trkpt lat="42.85360461533997" lon="12.548514915622677"><ele>396.0</ele><time>2026-04-27T10:39:47Z</time></trkpt><trkpt lat="42.85375791847061" lon="12.548437210417616"><ele>392.66666666666663</ele><time>2026-04-27T10:39:48Z</time></trkpt><trkpt lat="42.85390617308042" lon="12.5483639827041"><ele>389.3333333333333</ele><time>2026-04-27T10:39:49Z</time></trkpt><trkpt lat="42.85405838386345" lon="12.548296238128662"><ele>386.0</ele><time>2026-04-27T10:39:50Z</time></trkpt><trkpt lat="42.854213751866034" lon="12.548236307486434"><ele>383.66666666666663</ele><time>2026-04-27T10:39:51Z</time></trkpt><trkpt lat="42.854374111344555" lon="12.548197264236574"><ele>381.3333333333333</ele><time>2026-04-27T10:39:52Z</time></trkpt><trkpt lat="42.85453754860444" lon="12.54817075277067"><ele>379.0</ele><time>2026-04-27T10:39:53Z</time></trkpt><trkpt lat="42.854704860004944" lon="12.548156931527588"><ele>379.0</ele><time>2026-04-27T10:39:54Z</time></trkpt><trkpt lat="42.85487661964425" lon="12.548153490291954"><ele>379.0</ele><time>2026-04-27T10:39:55Z</time></trkpt><trkpt lat="42.855049471685696" lon="12.548160238294507"><ele>379.0</ele><time>2026-04-27T10:39:56Z</time></trkpt><trkpt lat="42.85522383513213" lon="12.548185174448296"><ele>377.0</ele><time>2026-04-27T10:39:57Z</time></trkpt><trkpt lat="42.85539653211199" lon="12.548222239614699"><ele>375.0</ele><time>2026-04-27T10:39:58Z</time></trkpt><trkpt lat="42.85556460375585" lon="12.548273552364426"><ele>373.0</ele><time>2026-04-27T10:39:59Z</time></trkpt><trkpt lat="42.8557282243195" lon="12.548337798973183"><ele>373.0</ele><time>2026-04-27T10:40:00Z</time></trkpt><trkpt lat="42.85588972017554" lon="12.548416315531062"><ele>373.0</ele><time>2026-04-27T10:40:01Z</time></trkpt><trkpt lat="42.85604658739939" lon="12.548517459479246"><ele>373.0</ele><time>2026-04-27T10:40:02Z</time></trkpt><trkpt lat="42.856197434402105" lon="12.5486451102135"><ele>371.0</ele><time>2026-04-27T10:40:03Z</time></trkpt><trkpt lat="42.856350794784234" lon="12.548780593345235"><ele>369.0</ele><time>2026-04-27T10:40:04Z</time></trkpt><trkpt lat="42.856511410446274" lon="12.548915643346588"><ele>367.0</ele><time>2026-04-27T10:40:05Z</time></trkpt><trkpt lat="42.856679035351654" lon="12.54905291333831"><ele>366.0</ele><time>2026-04-27T10:40:06Z</time></trkpt><trkpt lat="42.856855679086415" lon="12.549175913480735"><ele>365.0</ele><time>2026-04-27T10:40:07Z</time></trkpt><trkpt lat="42.85703670045212" lon="12.549286634959477"><ele>364.0</ele><time>2026-04-27T10:40:08Z</time></trkpt><trkpt lat="42.85721956122717" lon="12.549398328038551"><ele>364.0</ele><time>2026-04-27T10:40:09Z</time></trkpt><trkpt lat="42.85739956050402" lon="12.549507417940967"><ele>364.0</ele><time>2026-04-27T10:40:10Z</time></trkpt><trkpt lat="42.857576676906135" lon="12.549613521850782"><ele>364.0</ele><time>2026-04-27T10:40:11Z</time></trkpt><trkpt lat="42.85775102259368" lon="12.54971903122285"><ele>362.66666666666663</ele><time>2026-04-27T10:40:12Z</time></trkpt><trkpt lat="42.85792269192209" lon="12.549821527676473"><ele>361.3333333333333</ele><time>2026-04-27T10:40:13Z</time></trkpt><trkpt lat="42.858094536263415" lon="12.549919357946132"><ele>360.0</ele><time>2026-04-27T10:40:14Z</time></trkpt><trkpt lat="42.85826947018561" lon="12.550010258001844"><ele>360.0</ele><time>2026-04-27T10:40:15Z</time></trkpt><trkpt lat="42.85844772382548" lon="12.550088683852811"><ele>360.0</ele><time>2026-04-27T10:40:16Z</time></trkpt><trkpt lat="42.858625918628995" lon="12.550154578877272"><ele>360.0</ele><time>2026-04-27T10:40:17Z</time></trkpt><trkpt lat="42.85879503041431" lon="12.550216572465454"><ele>359.6666666666667</ele><time>2026-04-27T10:40:18Z</time></trkpt><trkpt lat="42.8589559222203" lon="12.55027305150866"><ele>359.33333333333337</ele><time>2026-04-27T10:40:19Z</time></trkpt><trkpt lat="42.859108564373436" lon="12.550339732658506"><ele>359.0</ele><time>2026-04-27T10:40:20Z</time></trkpt><trkpt lat="42.859260202320634" lon="12.550416031633798"><ele>359.0</ele><time>2026-04-27T10:40:21Z</time></trkpt><trkpt lat="42.85940446560181" lon="12.550498685075631"><ele>359.0</ele><time>2026-04-27T10:40:22Z</time></trkpt><trkpt lat="42.85953271646926" lon="12.550588482488083"><ele>359.0</ele><time>2026-04-27T10:40:23Z</time></trkpt><trkpt lat="42.85964963545053" lon="12.550688157064082"><ele>359.0</ele><time>2026-04-27T10:40:24Z</time></trkpt><trkpt lat="42.859747651335645" lon="12.55082172094372"><ele>359.0</ele><time>2026-04-27T10:40:25Z</time></trkpt><trkpt lat="42.85985798641213" lon="12.550939473472955"><ele>359.0</ele><time>2026-04-27T10:40:26Z</time></trkpt><trkpt lat="42.85994302957219" lon="12.551093113596659"><ele>359.0</ele><time>2026-04-27T10:40:27Z</time></trkpt><trkpt lat="42.86001899258785" lon="12.551262133342902"><ele>359.0</ele><time>2026-04-27T10:40:28Z</time></trkpt><trkpt lat="42.860084986139945" lon="12.551436919454282"><ele>357.33333333333337</ele><time>2026-04-27T10:40:29Z</time></trkpt><trkpt lat="42.860138954015106" lon="12.551625617279079"><ele>355.6666666666667</ele><time>2026-04-27T10:40:30Z</time></trkpt><trkpt lat="42.86018536268622" lon="12.551822176145729"><ele>354.0</ele><time>2026-04-27T10:40:31Z</time></trkpt><trkpt lat="42.86022398770041" lon="12.552023747071138"><ele>354.6666666666667</ele><time>2026-04-27T10:40:32Z</time></trkpt><trkpt lat="42.860261117163354" lon="12.55223406971023"><ele>355.33333333333337</ele><time>2026-04-27T10:40:33Z</time></trkpt><trkpt lat="42.86030201708962" lon="12.552447455225654"><ele>356.0</ele><time>2026-04-27T10:40:34Z</time></trkpt><trkpt lat="42.86034292024991" lon="12.552661589906835"><ele>355.6666666666667</ele><time>2026-04-27T10:40:35Z</time></trkpt><trkpt lat="42.860385320579915" lon="12.55288241053413"><ele>355.3333333333333</ele><time>2026-04-27T10:40:36Z</time></trkpt><trkpt lat="42.860427692954964" lon="12.553096129984983"><ele>355.0</ele><time>2026-04-27T10:40:37Z</time></trkpt><trkpt lat="42.86047129250906" lon="12.553313304117772"><ele>355.0</ele><time>2026-04-27T10:40:38Z</time></trkpt><trkpt lat="42.86051815957446" lon="12.553521619951422"><ele>355.0</ele><time>2026-04-27T10:40:39Z</time></trkpt><trkpt lat="42.86056983260663" lon="12.553729787950143"><ele>355.0</ele><time>2026-04-27T10:40:40Z</time></trkpt><trkpt lat="42.86062321467805" lon="12.55392981973466"><ele>354.0</ele><time>2026-04-27T10:40:41Z</time></trkpt><trkpt lat="42.860681566403066" lon="12.554130109385296"><ele>353.0</ele><time>2026-04-27T10:40:42Z</time></trkpt><trkpt lat="42.8607351538453" lon="12.554321306684068"><ele>352.0</ele><time>2026-04-27T10:40:43Z</time></trkpt><trkpt lat="42.86079333156098" lon="12.55452023844075"><ele>351.5</ele><time>2026-04-27T10:40:44Z</time></trkpt><trkpt lat="42.86085412749812" lon="12.554708134321373"><ele>351.0</ele><time>2026-04-27T10:40:45Z</time></trkpt><trkpt lat="42.86092585033565" lon="12.554891310230426"><ele>350.5</ele><time>2026-04-27T10:40:46Z</time></trkpt><trkpt lat="42.86100299158354" lon="12.55506013633345"><ele>350.0</ele><time>2026-04-27T10:40:47Z</time></trkpt><trkpt lat="42.86110063826443" lon="12.555220215276542"><ele>348.6666666666667</ele><time>2026-04-27T10:40:48Z</time></trkpt><trkpt lat="42.86120533563458" lon="12.555374667651211"><ele>347.3333333333333</ele><time>2026-04-27T10:40:49Z</time></trkpt><trkpt lat="42.86131315295418" lon="12.555526699625977"><ele>346.0</ele><time>2026-04-27T10:40:50Z</time></trkpt><trkpt lat="42.86141760175529" lon="12.555678697209736"><ele>346.0</ele><time>2026-04-27T10:40:51Z</time></trkpt><trkpt lat="42.86151120193182" lon="12.555842222694022"><ele>346.0</ele><time>2026-04-27T10:40:52Z</time></trkpt><trkpt lat="42.86159416442539" lon="12.55602359072936"><ele>346.0</ele><time>2026-04-27T10:40:53Z</time></trkpt><trkpt lat="42.86164916911192" lon="12.556224150850984"><ele>345.0</ele><time>2026-04-27T10:40:54Z</time></trkpt><trkpt lat="42.86172465510725" lon="12.55639810746778"><ele>344.0</ele><time>2026-04-27T10:40:55Z</time></trkpt><trkpt lat="42.8617825008675" lon="12.556571832356383"><ele>343.0</ele><time>2026-04-27T10:40:56Z</time></trkpt><trkpt lat="42.86184644587784" lon="12.556735597048993"><ele>342.0</ele><time>2026-04-27T10:40:57Z</time></trkpt><trkpt lat="42.86192141408997" lon="12.55688058087849"><ele>342.0</ele><time>2026-04-27T10:40:58Z</time></trkpt><trkpt lat="42.8620084879101" lon="12.557000337540371"><ele>342.0</ele><time>2026-04-27T10:40:59Z</time></trkpt><trkpt lat="42.86210022942378" lon="12.557102642223857"><ele>342.0</ele><time>2026-04-27T10:41:00Z</time></trkpt><trkpt lat="42.86220267559128" lon="12.55717424334533"><ele>342.0</ele><time>2026-04-27T10:41:01Z</time></trkpt><trkpt lat="42.8623211220657" lon="12.557223993001784"><ele>340.5</ele><time>2026-04-27T10:41:02Z</time></trkpt><trkpt lat="42.86245231577476" lon="12.55724010005339"><ele>339.0</ele><time>2026-04-27T10:41:03Z</time></trkpt><trkpt lat="42.86259795664406" lon="12.557235820627211"><ele>337.5</ele><time>2026-04-27T10:41:04Z</time></trkpt><trkpt lat="42.86275225297839" lon="12.557232819162207"><ele>336.0</ele><time>2026-04-27T10:41:05Z</time></trkpt><trkpt lat="42.86291606156708" lon="12.557256289049114"><ele>336.0</ele><time>2026-04-27T10:41:06Z</time></trkpt><trkpt lat="42.86308519673886" lon="12.55730763294545"><ele>336.0</ele><time>2026-04-27T10:41:07Z</time></trkpt><trkpt lat="42.86325215444281" lon="12.557368396657747"><ele>336.0</ele><time>2026-04-27T10:41:08Z</time></trkpt><trkpt lat="42.863406749556944" lon="12.557431232791338"><ele>335.3333333333333</ele><time>2026-04-27T10:41:09Z</time></trkpt><trkpt lat="42.86355869206509" lon="12.557502242483759"><ele>334.66666666666663</ele><time>2026-04-27T10:41:10Z</time></trkpt><trkpt lat="42.86369587525269" lon="12.557601542484305"><ele>334.0</ele><time>2026-04-27T10:41:11Z</time></trkpt><trkpt lat="42.863825858615684" lon="12.557691093972307"><ele>334.0</ele><time>2026-04-27T10:41:12Z</time></trkpt><trkpt lat="42.86395279539922" lon="12.557781096276399"><ele>334.0</ele><time>2026-04-27T10:41:13Z</time></trkpt><trkpt lat="42.86406044737278" lon="12.557905392368122"><ele>334.0</ele><time>2026-04-27T10:41:14Z</time></trkpt><trkpt lat="42.86414718225892" lon="12.558044351695779"><ele>334.0</ele><time>2026-04-27T10:41:15Z</time></trkpt><trkpt lat="42.86421987244608" lon="12.558196997444625"><ele>333.75</ele><time>2026-04-27T10:41:16Z</time></trkpt><trkpt lat="42.86428481161637" lon="12.558360377886935"><ele>333.5</ele><time>2026-04-27T10:41:17Z</time></trkpt><trkpt lat="42.864350671862056" lon="12.558522779367195"><ele>333.25</ele><time>2026-04-27T10:41:18Z</time></trkpt><trkpt lat="42.86442519101011" lon="12.558673073297845"><ele>333.0</ele><time>2026-04-27T10:41:19Z</time></trkpt><trkpt lat="42.86451144611839" lon="12.558807559170035"><ele>330.75</ele><time>2026-04-27T10:41:20Z</time></trkpt><trkpt lat="42.864604033638216" lon="12.55893216382015"><ele>328.5</ele><time>2026-04-27T10:41:21Z</time></trkpt><trkpt lat="42.86470513421276" lon="12.559044538072373"><ele>326.25</ele><time>2026-04-27T10:41:22Z</time></trkpt><trkpt lat="42.86481415925998" lon="12.559145949359863"><ele>324.0</ele><time>2026-04-27T10:41:23Z</time></trkpt><trkpt lat="42.8649348483903" lon="12.559232886328168"><ele>324.0</ele><time>2026-04-27T10:41:24Z</time></trkpt><trkpt lat="42.86506417563729" lon="12.559292694197945"><ele>324.0</ele><time>2026-04-27T10:41:25Z</time></trkpt><trkpt lat="42.8652021370637" lon="12.559335564877086"><ele>324.0</ele><time>2026-04-27T10:41:26Z</time></trkpt><trkpt lat="42.86534673649549" lon="12.55937101218765"><ele>324.0</ele><time>2026-04-27T10:41:27Z</time></trkpt><trkpt lat="42.865494512155664" lon="12.559406806520627"><ele>323.0</ele><time>2026-04-27T10:41:28Z</time></trkpt><trkpt lat="42.865645844716504" lon="12.559444288266128"><ele>322.0</ele><time>2026-04-27T10:41:29Z</time></trkpt><trkpt lat="42.86579816816892" lon="12.559473893453696"><ele>321.0</ele><time>2026-04-27T10:41:30Z</time></trkpt><trkpt lat="42.86595449154316" lon="12.559483592604206"><ele>318.6666666666667</ele><time>2026-04-27T10:41:31Z</time></trkpt><trkpt lat="42.866113321614925" lon="12.55947255078158"><ele>316.33333333333337</ele><time>2026-04-27T10:41:32Z</time></trkpt><trkpt lat="42.86627457159682" lon="12.55945325092591"><ele>314.0</ele><time>2026-04-27T10:41:33Z</time></trkpt><trkpt lat="42.86643703577999" lon="12.559432138475477"><ele>314.0</ele><time>2026-04-27T10:41:34Z</time></trkpt><trkpt lat="42.86659270897891" lon="12.559409490444354"><ele>314.0</ele><time>2026-04-27T10:41:35Z</time></trkpt><trkpt lat="42.866742004374764" lon="12.559384359579719"><ele>314.0</ele><time>2026-04-27T10:41:36Z</time></trkpt><trkpt lat="42.86688588732508" lon="12.559360885061276"><ele>312.5</ele><time>2026-04-27T10:41:36.999Z</time></trkpt><trkpt lat="42.867024893496854" lon="12.559345803189963"><ele>311.0</ele><time>2026-04-27T10:41:37.999Z</time></trkpt><trkpt lat="42.86716053852514" lon="12.559326694205692"><ele>309.5</ele><time>2026-04-27T10:41:39Z</time></trkpt><trkpt lat="42.86729773444925" lon="12.559295828130784"><ele>308.0</ele><time>2026-04-27T10:41:40Z</time></trkpt><trkpt lat="42.867444459633006" lon="12.559249733445073"><ele>308.0</ele><time>2026-04-27T10:41:41Z</time></trkpt><trkpt lat="42.867590842032236" lon="12.559189579730997"><ele>308.0</ele><time>2026-04-27T10:41:42Z</time></trkpt><trkpt lat="42.86774011173279" lon="12.559121737737573"><ele>308.0</ele><time>2026-04-27T10:41:43Z</time></trkpt><trkpt lat="42.86788944720861" lon="12.559050792291451"><ele>306.25</ele><time>2026-04-27T10:41:44Z</time></trkpt><trkpt lat="42.86803109517907" lon="12.55898093679864"><ele>304.5</ele><time>2026-04-27T10:41:45Z</time></trkpt><trkpt lat="42.868168014015154" lon="12.558913526744636"><ele>302.75</ele><time>2026-04-27T10:41:46Z</time></trkpt><trkpt lat="42.868298750943666" lon="12.558845915563492"><ele>301.0</ele><time>2026-04-27T10:41:47Z</time></trkpt><trkpt lat="42.86842562597883" lon="12.558781501689733"><ele>300.0</ele><time>2026-04-27T10:41:48Z</time></trkpt><trkpt lat="42.868551626751405" lon="12.558710375158755"><ele>299.0</ele><time>2026-04-27T10:41:49Z</time></trkpt><trkpt lat="42.86867283823391" lon="12.558625652248855"><ele>298.0</ele><time>2026-04-27T10:41:50Z</time></trkpt><trkpt lat="42.86878927390938" lon="12.558526484145691"><ele>297.0</ele><time>2026-04-27T10:41:51Z</time></trkpt><trkpt lat="42.86889951475301" lon="12.558411461085411"><ele>297.0</ele><time>2026-04-27T10:41:52Z</time></trkpt><trkpt lat="42.86900392940248" lon="12.558284469725214"><ele>297.0</ele><time>2026-04-27T10:41:53Z</time></trkpt><trkpt lat="42.869108855661004" lon="12.558156634256603"><ele>297.0</ele><time>2026-04-27T10:41:54Z</time></trkpt><trkpt lat="42.8692089939434" lon="12.55803083473233"><ele>297.0</ele><time>2026-04-27T10:41:55Z</time></trkpt><trkpt lat="42.86930622883287" lon="12.55790980443645"><ele>296.25</ele><time>2026-04-27T10:41:56Z</time></trkpt><trkpt lat="42.8693995911071" lon="12.55779137896822"><ele>295.5</ele><time>2026-04-27T10:41:57Z</time></trkpt><trkpt lat="42.86949032199723" lon="12.557676387612041"><ele>294.75</ele><time>2026-04-27T10:41:58Z</time></trkpt><trkpt lat="42.86957626608654" lon="12.557564635680093"><ele>294.0</ele><time>2026-04-27T10:41:59Z</time></trkpt><trkpt lat="42.86966001004501" lon="12.557455026669228"><ele>294.0</ele><time>2026-04-27T10:42:00Z</time></trkpt><trkpt lat="42.869742096416495" lon="12.55735167190821"><ele>294.0</ele><time>2026-04-27T10:42:01Z</time></trkpt><trkpt lat="42.86981562224668" lon="12.557254552887752"><ele>294.0</ele><time>2026-04-27T10:42:02Z</time></trkpt><trkpt lat="42.86987474362853" lon="12.557178034763862"><ele>294.0</ele><time>2026-04-27T10:42:03Z</time></trkpt><trkpt lat="42.869923263504305" lon="12.557121415200879"><ele>294.0</ele><time>2026-04-27T10:42:04Z</time></trkpt><trkpt lat="42.87001275727509" lon="12.557064266775283"><ele>293.3333333333333</ele><time>2026-04-27T10:42:06Z</time></trkpt><trkpt lat="42.87012483144761" lon="12.557078064219258"><ele>292.6666666666667</ele><time>2026-04-27T10:42:08Z</time></trkpt><trkpt lat="42.87017355155891" lon="12.557135789468646"><ele>292.0</ele><time>2026-04-27T10:42:09Z</time></trkpt><trkpt lat="42.87021009094127" lon="12.557232003773619"><ele>291.33333333333337</ele><time>2026-04-27T10:42:10Z</time></trkpt><trkpt lat="42.8702264958295" lon="12.557353026344469"><ele>290.6666666666667</ele><time>2026-04-27T10:42:11Z</time></trkpt><trkpt lat="42.870225134379666" lon="12.557486364265928"><ele>290.0</ele><time>2026-04-27T10:42:12Z</time></trkpt><trkpt lat="42.87021898119866" lon="12.557629597288955"><ele>290.0</ele><time>2026-04-27T10:42:13Z</time></trkpt><trkpt lat="42.8702151990109" lon="12.557786560447056"><ele>290.0</ele><time>2026-04-27T10:42:14Z</time></trkpt><trkpt lat="42.870209191563504" lon="12.557944950676672"><ele>290.0</ele><time>2026-04-27T10:42:15Z</time></trkpt><trkpt lat="42.87020554436828" lon="12.558094883686248"><ele>290.0</ele><time>2026-04-27T10:42:16Z</time></trkpt><trkpt lat="42.87020711607242" lon="12.558238289627223"><ele>290.0</ele><time>2026-04-27T10:42:17Z</time></trkpt><trkpt lat="42.870217468762505" lon="12.558381749611444"><ele>290.0</ele><time>2026-04-27T10:42:18Z</time></trkpt><trkpt lat="42.870242664844135" lon="12.558522079855932"><ele>290.0</ele><time>2026-04-27T10:42:19Z</time></trkpt><trkpt lat="42.87028345743054" lon="12.558661979246756"><ele>290.0</ele><time>2026-04-27T10:42:20Z</time></trkpt><trkpt lat="42.870333426978945" lon="12.558799987140473"><ele>290.0</ele><time>2026-04-27T10:42:21Z</time></trkpt><trkpt lat="42.87039139478931" lon="12.558936488141825"><ele>290.0</ele><time>2026-04-27T10:42:22Z</time></trkpt><trkpt lat="42.8704517408281" lon="12.559069323451034"><ele>289.5</ele><time>2026-04-27T10:42:23Z</time></trkpt><trkpt lat="42.87051685459467" lon="12.559201695275169"><ele>289.0</ele><time>2026-04-27T10:42:24Z</time></trkpt><trkpt lat="42.87058336741733" lon="12.559334663175134"><ele>288.5</ele><time>2026-04-27T10:42:25Z</time></trkpt><trkpt lat="42.8706459815033" lon="12.559463478026364"><ele>288.0</ele><time>2026-04-27T10:42:26Z</time></trkpt><trkpt lat="42.87070951251372" lon="12.559583449885318"><ele>288.0</ele><time>2026-04-27T10:42:27Z</time></trkpt><trkpt lat="42.87077610467802" lon="12.559697219936478"><ele>288.0</ele><time>2026-04-27T10:42:28Z</time></trkpt><trkpt lat="42.870845524253674" lon="12.559798484090031"><ele>288.0</ele><time>2026-04-27T10:42:29Z</time></trkpt><trkpt lat="42.870915908004896" lon="12.559886385139649"><ele>288.0</ele><time>2026-04-27T10:42:30Z</time></trkpt><trkpt lat="42.8709903933458" lon="12.559964472231426"><ele>288.0</ele><time>2026-04-27T10:42:31Z</time></trkpt><trkpt lat="42.87106184083517" lon="12.560032814475885"><ele>288.0</ele><time>2026-04-27T10:42:32Z</time></trkpt><trkpt lat="42.87113199452207" lon="12.560097142359062"><ele>288.0</ele><time>2026-04-27T10:42:33Z</time></trkpt><trkpt lat="42.87119897741089" lon="12.560157486051782"><ele>288.0</ele><time>2026-04-27T10:42:34Z</time></trkpt><trkpt lat="42.87125785630573" lon="12.560212070135046"><ele>288.0</ele><time>2026-04-27T10:42:35Z</time></trkpt><trkpt lat="42.87130887881062" lon="12.560262780776851"><ele>288.0</ele><time>2026-04-27T10:42:36Z</time></trkpt><trkpt lat="42.87138775634407" lon="12.560367629521622"><ele>288.0</ele><time>2026-04-27T10:42:38Z</time></trkpt><trkpt lat="42.87149169353217" lon="12.560449216118858"><ele>288.4</ele><time>2026-04-27T10:42:40Z</time></trkpt><trkpt lat="42.87159842704597" lon="12.560523341220309"><ele>288.8</ele><time>2026-04-27T10:42:42Z</time></trkpt><trkpt lat="42.871703365387546" lon="12.560605805074427"><ele>289.2</ele><time>2026-04-27T10:42:44Z</time></trkpt><trkpt lat="42.8717868477245" lon="12.560682321816254"><ele>289.6</ele><time>2026-04-27T10:42:46Z</time></trkpt><trkpt lat="42.87188563707141" lon="12.5607210053206"><ele>290.0</ele><time>2026-04-27T10:42:48Z</time></trkpt><trkpt lat="42.87200916348905" lon="12.56068488620275"><ele>290.0</ele><time>2026-04-27T10:42:50Z</time></trkpt><trkpt lat="42.872087408439825" lon="12.560709656151397"><ele>290.0</ele><time>2026-04-27T10:42:51Z</time></trkpt><trkpt lat="42.87216751759946" lon="12.560766028832457"><ele>290.0</ele><time>2026-04-27T10:42:52Z</time></trkpt><trkpt lat="42.87225700309677" lon="12.560835462805748"><ele>290.0</ele><time>2026-04-27T10:42:53Z</time></trkpt><trkpt lat="42.87235374189482" lon="12.560908323807086"><ele>290.0</ele><time>2026-04-27T10:42:54Z</time></trkpt><trkpt lat="42.872454041138056" lon="12.56098377098941"><ele>290.0</ele><time>2026-04-27T10:42:55Z</time></trkpt><trkpt lat="42.872550751462036" lon="12.561059045713762"><ele>290.0</ele><time>2026-04-27T10:42:56Z</time></trkpt><trkpt lat="42.87265176723927" lon="12.561139443028358"><ele>290.0</ele><time>2026-04-27T10:42:57Z</time></trkpt><trkpt lat="42.87275613604539" lon="12.561215298324484"><ele>290.0</ele><time>2026-04-27T10:42:58Z</time></trkpt><trkpt lat="42.87286103684899" lon="12.561291614618627"><ele>289.25</ele><time>2026-04-27T10:42:59Z</time></trkpt><trkpt lat="42.87296503573309" lon="12.561371549365598"><ele>288.5</ele><time>2026-04-27T10:43:00Z</time></trkpt><trkpt lat="42.8730659841658" lon="12.56144836568784"><ele>287.75</ele><time>2026-04-27T10:43:01Z</time></trkpt><trkpt lat="42.87316547227472" lon="12.561523786938164"><ele>287.0</ele><time>2026-04-27T10:43:02Z</time></trkpt><trkpt lat="42.873264571148674" lon="12.56159797456266"><ele>287.0</ele><time>2026-04-27T10:43:03Z</time></trkpt><trkpt lat="42.87336177856951" lon="12.561673562814914"><ele>287.0</ele><time>2026-04-27T10:43:04Z</time></trkpt><trkpt lat="42.8734587374297" lon="12.561747095210226"><ele>287.0</ele><time>2026-04-27T10:43:05Z</time></trkpt><trkpt lat="42.873553415188056" lon="12.561823325663925"><ele>287.0</ele><time>2026-04-27T10:43:06Z</time></trkpt><trkpt lat="42.87364674240324" lon="12.561897205192698"><ele>287.0</ele><time>2026-04-27T10:43:07Z</time></trkpt><trkpt lat="42.873739575527715" lon="12.561967055772085"><ele>286.4</ele><time>2026-04-27T10:43:08Z</time></trkpt><trkpt lat="42.87383292288537" lon="12.562038400063688"><ele>285.79999999999995</ele><time>2026-04-27T10:43:09Z</time></trkpt><trkpt lat="42.87392769329216" lon="12.562109593844461"><ele>285.2</ele><time>2026-04-27T10:43:10Z</time></trkpt><trkpt lat="42.87402210298403" lon="12.56218033092799"><ele>284.59999999999997</ele><time>2026-04-27T10:43:11Z</time></trkpt><trkpt lat="42.87411710625499" lon="12.562251515789567"><ele>284.0</ele><time>2026-04-27T10:43:12Z</time></trkpt><trkpt lat="42.87421405488845" lon="12.562327143286112"><ele>283.5</ele><time>2026-04-27T10:43:13Z</time></trkpt><trkpt lat="42.87431269923807" lon="12.562403749030704"><ele>283.0</ele><time>2026-04-27T10:43:14Z</time></trkpt><trkpt lat="42.8744145634514" lon="12.562479327762734"><ele>282.5</ele><time>2026-04-27T10:43:15Z</time></trkpt><trkpt lat="42.874515554907816" lon="12.562558624366668"><ele>282.0</ele><time>2026-04-27T10:43:16Z</time></trkpt><trkpt lat="42.87461101368519" lon="12.562641289694538"><ele>282.0</ele><time>2026-04-27T10:43:16.999Z</time></trkpt><trkpt lat="42.87469887660105" lon="12.562732795855647"><ele>282.0</ele><time>2026-04-27T10:43:17.999Z</time></trkpt><trkpt lat="42.87478092184416" lon="12.562829391057388"><ele>282.0</ele><time>2026-04-27T10:43:18.999Z</time></trkpt><trkpt lat="42.87485397195268" lon="12.562923363654503"><ele>282.0</ele><time>2026-04-27T10:43:19.999Z</time></trkpt><trkpt lat="42.87491768007292" lon="12.563016521941444"><ele>282.0</ele><time>2026-04-27T10:43:20.999Z</time></trkpt><trkpt lat="42.87496584165415" lon="12.563095466718229"><ele>281.6</ele><time>2026-04-27T10:43:21.999Z</time></trkpt><trkpt lat="42.875019414146486" lon="12.563233005082632"><ele>281.2</ele><time>2026-04-27T10:43:23.999Z</time></trkpt><trkpt lat="42.8750375716131" lon="12.563399371135247"><ele>280.8</ele><time>2026-04-27T10:43:25.999Z</time></trkpt><trkpt lat="42.87506779363738" lon="12.563484781402112"><ele>280.4</ele><time>2026-04-27T10:43:26.999Z</time></trkpt><trkpt lat="42.87510443400441" lon="12.563566942495592"><ele>280.0</ele><time>2026-04-27T10:43:27.999Z</time></trkpt><trkpt lat="42.87518487187974" lon="12.563584651916505"><ele>279.8</ele><time>2026-04-27T10:43:28.999Z</time></trkpt><trkpt lat="42.875266503205225" lon="12.563608450247225"><ele>279.6</ele><time>2026-04-27T10:43:29.999Z</time></trkpt><trkpt lat="42.87534545293201" lon="12.563663057615559"><ele>279.4</ele><time>2026-04-27T10:43:30.999Z</time></trkpt><trkpt lat="42.87542868146808" lon="12.5637461035315"><ele>279.2</ele><time>2026-04-27T10:43:31.999Z</time></trkpt><trkpt lat="42.875509473085785" lon="12.563855848357749"><ele>279.0</ele><time>2026-04-27T10:43:32.999Z</time></trkpt><trkpt lat="42.87559926012374" lon="12.563985942154158"><ele>279.0</ele><time>2026-04-27T10:43:33.999Z</time></trkpt><trkpt lat="42.875700456840924" lon="12.564124517326036"><ele>279.0</ele><time>2026-04-27T10:43:34.999Z</time></trkpt><trkpt lat="42.87580518138438" lon="12.564268386805566"><ele>279.0</ele><time>2026-04-27T10:43:35.999Z</time></trkpt><trkpt lat="42.87591151487209" lon="12.564418589271272"><ele>279.0</ele><time>2026-04-27T10:43:36.999Z</time></trkpt><trkpt lat="42.87602188859561" lon="12.564574955144112"><ele>279.25</ele><time>2026-04-27T10:43:37.999Z</time></trkpt><trkpt lat="42.876127889100665" lon="12.564726880405049"><ele>279.5</ele><time>2026-04-27T10:43:38.999Z</time></trkpt><trkpt lat="42.876229783501245" lon="12.564868585880284"><ele>279.75</ele><time>2026-04-27T10:43:39.999Z</time></trkpt><trkpt lat="42.87633227789552" lon="12.565010735987597"><ele>280.0</ele><time>2026-04-27T10:43:40.999Z</time></trkpt><trkpt lat="42.87643351729112" lon="12.565151809914223"><ele>280.0</ele><time>2026-04-27T10:43:41.999Z</time></trkpt><trkpt lat="42.87653480902683" lon="12.565291951670767"><ele>280.0</ele><time>2026-04-27T10:43:42.999Z</time></trkpt><trkpt lat="42.876636321081804" lon="12.565432616777493"><ele>280.0</ele><time>2026-04-27T10:43:43.999Z</time></trkpt><trkpt lat="42.87673822551532" lon="12.565573261383829"><ele>280.0</ele><time>2026-04-27T10:43:45Z</time></trkpt><trkpt lat="42.87684005232728" lon="12.565717401772032"><ele>280.25</ele><time>2026-04-27T10:43:46Z</time></trkpt><trkpt lat="42.87694097844262" lon="12.565865786436015"><ele>280.5</ele><time>2026-04-27T10:43:47Z</time></trkpt><trkpt lat="42.87704484811729" lon="12.566012463847844"><ele>280.75</ele><time>2026-04-27T10:43:48Z</time></trkpt><trkpt lat="42.87715124637942" lon="12.566157962288672"><ele>281.0</ele><time>2026-04-27T10:43:49Z</time></trkpt><trkpt lat="42.87725531395307" lon="12.56630533734003"><ele>281.0</ele><time>2026-04-27T10:43:50Z</time></trkpt><trkpt lat="42.877355283725024" lon="12.56644889539005"><ele>281.0</ele><time>2026-04-27T10:43:51Z</time></trkpt><trkpt lat="42.87745270031634" lon="12.566582050612464"><ele>281.0</ele><time>2026-04-27T10:43:52Z</time></trkpt><trkpt lat="42.87754342161326" lon="12.566706044494406"><ele>281.0</ele><time>2026-04-27T10:43:53Z</time></trkpt><trkpt lat="42.87763362583949" lon="12.56681050668895"><ele>281.75</ele><time>2026-04-27T10:43:54Z</time></trkpt><trkpt lat="42.87773913053359" lon="12.566888318803652"><ele>282.5</ele><time>2026-04-27T10:43:55Z</time></trkpt><trkpt lat="42.87787089711591" lon="12.566936615328078"><ele>283.25</ele><time>2026-04-27T10:43:56Z</time></trkpt><trkpt lat="42.87801579191353" lon="12.566953877740724"><ele>284.0</ele><time>2026-04-27T10:43:57Z</time></trkpt><trkpt lat="42.87817058535312" lon="12.56694394380443"><ele>284.0</ele><time>2026-04-27T10:43:58Z</time></trkpt><trkpt lat="42.87834317180332" lon="12.56692395751904"><ele>284.0</ele><time>2026-04-27T10:43:59Z</time></trkpt><trkpt lat="42.878528894757274" lon="12.566909424047587"><ele>284.0</ele><time>2026-04-27T10:44:00Z</time></trkpt><trkpt lat="42.87871742555543" lon="12.566896879189658"><ele>284.6666666666667</ele><time>2026-04-27T10:44:01Z</time></trkpt><trkpt lat="42.878915823800035" lon="12.566878434701698"><ele>285.3333333333333</ele><time>2026-04-27T10:44:02Z</time></trkpt><trkpt lat="42.87911364026377" lon="12.566860896332358"><ele>286.0</ele><time>2026-04-27T10:44:03Z</time></trkpt><trkpt lat="42.879309873696016" lon="12.566848404262691"><ele>286.66666666666663</ele><time>2026-04-27T10:44:04Z</time></trkpt><trkpt lat="42.87950152624438" lon="12.566834310712757"><ele>287.3333333333333</ele><time>2026-04-27T10:44:05Z</time></trkpt><trkpt lat="42.87968227436681" lon="12.566821162885622"><ele>288.0</ele><time>2026-04-27T10:44:06Z</time></trkpt><trkpt lat="42.87985340925811" lon="12.566806278082364"><ele>288.0</ele><time>2026-04-27T10:44:07Z</time></trkpt><trkpt lat="42.88001519442028" lon="12.566795987658175"><ele>288.0</ele><time>2026-04-27T10:44:08Z</time></trkpt><trkpt lat="42.88016733655725" lon="12.56678316676663"><ele>288.0</ele><time>2026-04-27T10:44:09Z</time></trkpt><trkpt lat="42.88030612239623" lon="12.56676628358672"><ele>288.5</ele><time>2026-04-27T10:44:10Z</time></trkpt><trkpt lat="42.88043537497745" lon="12.566756392932241"><ele>289.0</ele><time>2026-04-27T10:44:11Z</time></trkpt><trkpt lat="42.880563765092155" lon="12.566756198522226"><ele>289.5</ele><time>2026-04-27T10:44:12Z</time></trkpt><trkpt lat="42.880695781101494" lon="12.56677942728228"><ele>290.0</ele><time>2026-04-27T10:44:13Z</time></trkpt><trkpt lat="42.880828918568916" lon="12.566833374515292"><ele>290.0</ele><time>2026-04-27T10:44:14Z</time></trkpt><trkpt lat="42.88096517632352" lon="12.566911645272743"><ele>290.0</ele><time>2026-04-27T10:44:15Z</time></trkpt><trkpt lat="42.88110629438998" lon="12.567001098748802"><ele>290.0</ele><time>2026-04-27T10:44:16Z</time></trkpt><trkpt lat="42.88125151240066" lon="12.567097206866807"><ele>292.0</ele><time>2026-04-27T10:44:17Z</time></trkpt><trkpt lat="42.88139867504538" lon="12.567195769200886"><ele>294.0</ele><time>2026-04-27T10:44:18Z</time></trkpt><trkpt lat="42.88154895671286" lon="12.567292314573871"><ele>296.0</ele><time>2026-04-27T10:44:19Z</time></trkpt><trkpt lat="42.881699705059006" lon="12.567388560181502"><ele>295.0</ele><time>2026-04-27T10:44:20Z</time></trkpt><trkpt lat="42.8818502551886" lon="12.567487696336958"><ele>294.0</ele><time>2026-04-27T10:44:21Z</time></trkpt><trkpt lat="42.88199791238476" lon="12.567589298734404"><ele>293.0</ele><time>2026-04-27T10:44:22Z</time></trkpt><trkpt lat="42.88214522891128" lon="12.567690662418881"><ele>293.0</ele><time>2026-04-27T10:44:23Z</time></trkpt><trkpt lat="42.88229163100527" lon="12.567789457667397"><ele>293.0</ele><time>2026-04-27T10:44:24Z</time></trkpt><trkpt lat="42.882434204883076" lon="12.567881477613437"><ele>293.0</ele><time>2026-04-27T10:44:25Z</time></trkpt><trkpt lat="42.88257228979438" lon="12.567973313876832"><ele>292.25</ele><time>2026-04-27T10:44:26Z</time></trkpt><trkpt lat="42.88270095317938" lon="12.5680591375115"><ele>291.5</ele><time>2026-04-27T10:44:27Z</time></trkpt><trkpt lat="42.88282157921906" lon="12.568137838764292"><ele>290.75</ele><time>2026-04-27T10:44:28Z</time></trkpt><trkpt lat="42.88293630912615" lon="12.568217793260091"><ele>290.0</ele><time>2026-04-27T10:44:29Z</time></trkpt><trkpt lat="42.88303220096732" lon="12.56830582121618"><ele>290.0</ele><time>2026-04-27T10:44:30Z</time></trkpt><trkpt lat="42.883117098959325" lon="12.568411339861308"><ele>290.0</ele><time>2026-04-27T10:44:31Z</time></trkpt><trkpt lat="42.883186595597095" lon="12.568542028004376"><ele>290.0</ele><time>2026-04-27T10:44:32Z</time></trkpt><trkpt lat="42.883234804062525" lon="12.568696749260814"><ele>290.0</ele><time>2026-04-27T10:44:33Z</time></trkpt><trkpt lat="42.883261022514986" lon="12.568862604402266"><ele>290.75</ele><time>2026-04-27T10:44:34Z</time></trkpt><trkpt lat="42.883273305971215" lon="12.569048455022358"><ele>291.5</ele><time>2026-04-27T10:44:35Z</time></trkpt><trkpt lat="42.88328608759347" lon="12.569247585300824"><ele>292.25</ele><time>2026-04-27T10:44:36Z</time></trkpt><trkpt lat="42.88330087691722" lon="12.569456457574352"><ele>293.0</ele><time>2026-04-27T10:44:37Z</time></trkpt><trkpt lat="42.883317253279984" lon="12.569672374840472"><ele>293.25</ele><time>2026-04-27T10:44:38Z</time></trkpt><trkpt lat="42.8833335762676" lon="12.569869401764436"><ele>293.5</ele><time>2026-04-27T10:44:39Z</time></trkpt><trkpt lat="42.88334771887112" lon="12.57006141761523"><ele>293.75</ele><time>2026-04-27T10:44:40Z</time></trkpt><trkpt lat="42.88336027248899" lon="12.570254238590547"><ele>294.0</ele><time>2026-04-27T10:44:41Z</time></trkpt><trkpt lat="42.883372549515535" lon="12.570452139244797"><ele>294.0</ele><time>2026-04-27T10:44:42Z</time></trkpt><trkpt lat="42.88338887555654" lon="12.57065680806193"><ele>294.0</ele><time>2026-04-27T10:44:43Z</time></trkpt><trkpt lat="42.88340241467851" lon="12.570859748911007"><ele>294.0</ele><time>2026-04-27T10:44:44Z</time></trkpt><trkpt lat="42.883415049091354" lon="12.571067474073542"><ele>291.25</ele><time>2026-04-27T10:44:45Z</time></trkpt><trkpt lat="42.88343095270894" lon="12.571272540900008"><ele>288.5</ele><time>2026-04-27T10:44:46Z</time></trkpt><trkpt lat="42.88344682772211" lon="12.57147300759945"><ele>285.75</ele><time>2026-04-27T10:44:47Z</time></trkpt><trkpt lat="42.88346171710139" lon="12.571670396716632"><ele>283.0</ele><time>2026-04-27T10:44:48Z</time></trkpt><trkpt lat="42.88347725014477" lon="12.571866500405912"><ele>283.25</ele><time>2026-04-27T10:44:49Z</time></trkpt><trkpt lat="42.88349051760238" lon="12.572068831331766"><ele>283.5</ele><time>2026-04-27T10:44:50Z</time></trkpt><trkpt lat="42.88350451472623" lon="12.572268557646188"><ele>283.75</ele><time>2026-04-27T10:44:51Z</time></trkpt><trkpt lat="42.8835215192652" lon="12.572466933086512"><ele>284.0</ele><time>2026-04-27T10:44:52Z</time></trkpt><trkpt lat="42.88353788465003" lon="12.57266464760907"><ele>283.25</ele><time>2026-04-27T10:44:53Z</time></trkpt><trkpt lat="42.88355431384274" lon="12.57286260553132"><ele>282.5</ele><time>2026-04-27T10:44:54Z</time></trkpt><trkpt lat="42.883570861813844" lon="12.573061511145944"><ele>281.75</ele><time>2026-04-27T10:44:55Z</time></trkpt><trkpt lat="42.88358574586945" lon="12.57325996835151"><ele>281.0</ele><time>2026-04-27T10:44:56Z</time></trkpt><trkpt lat="42.883600687666416" lon="12.573454206823216"><ele>281.0</ele><time>2026-04-27T10:44:57Z</time></trkpt><trkpt lat="42.88361215885239" lon="12.573637576324407"><ele>281.0</ele><time>2026-04-27T10:44:58Z</time></trkpt><trkpt lat="42.88361161698001" lon="12.573814984538867"><ele>281.0</ele><time>2026-04-27T10:44:59Z</time></trkpt><trkpt lat="42.88359179454374" lon="12.574004430166683"><ele>281.0</ele><time>2026-04-27T10:45:00Z</time></trkpt><trkpt lat="42.88355831852171" lon="12.574197318045359"><ele>280.0</ele><time>2026-04-27T10:45:01Z</time></trkpt><trkpt lat="42.88351335365255" lon="12.574393192849083"><ele>279.0</ele><time>2026-04-27T10:45:01.999Z</time></trkpt><trkpt lat="42.88346349557812" lon="12.574585865043439"><ele>278.0</ele><time>2026-04-27T10:45:02.999Z</time></trkpt><trkpt lat="42.883416117942275" lon="12.574783767951637"><ele>279.6666666666667</ele><time>2026-04-27T10:45:03.999Z</time></trkpt><trkpt lat="42.883368102328426" lon="12.57498808995397"><ele>281.3333333333333</ele><time>2026-04-27T10:45:04.999Z</time></trkpt><trkpt lat="42.88331767369111" lon="12.575191766538902"><ele>283.0</ele><time>2026-04-27T10:45:05.999Z</time></trkpt><trkpt lat="42.88326439559634" lon="12.575395998663023"><ele>283.0</ele><time>2026-04-27T10:45:06.999Z</time></trkpt><trkpt lat="42.88321096083135" lon="12.575604378302353"><ele>283.0</ele><time>2026-04-27T10:45:07.999Z</time></trkpt><trkpt lat="42.883157149237334" lon="12.575817858544763"><ele>283.0</ele><time>2026-04-27T10:45:08.999Z</time></trkpt><trkpt lat="42.88310404848853" lon="12.57603051352454"><ele>282.0</ele><time>2026-04-27T10:45:09.999Z</time></trkpt><trkpt lat="42.88304892797439" lon="12.576245562252593"><ele>281.0</ele><time>2026-04-27T10:45:10.999Z</time></trkpt><trkpt lat="42.88299302928545" lon="12.57646174345051"><ele>280.0</ele><time>2026-04-27T10:45:11.999Z</time></trkpt><trkpt lat="42.88293870554608" lon="12.576677723494527"><ele>280.0</ele><time>2026-04-27T10:45:12.999Z</time></trkpt><trkpt lat="42.88288463373843" lon="12.576896657597269"><ele>280.0</ele><time>2026-04-27T10:45:13.999Z</time></trkpt><trkpt lat="42.8828310632291" lon="12.577114924209821"><ele>280.0</ele><time>2026-04-27T10:45:14.999Z</time></trkpt><trkpt lat="42.88277490282406" lon="12.577337680641097"><ele>279.66666666666663</ele><time>2026-04-27T10:45:15.999Z</time></trkpt><trkpt lat="42.88271907185513" lon="12.577559912772593"><ele>279.3333333333333</ele><time>2026-04-27T10:45:16.999Z</time></trkpt><trkpt lat="42.882663271746566" lon="12.57778552564766"><ele>279.0</ele><time>2026-04-27T10:45:17.999Z</time></trkpt><trkpt lat="42.882605201761336" lon="12.578013337635458"><ele>279.6666666666667</ele><time>2026-04-27T10:45:18.999Z</time></trkpt><trkpt lat="42.88254695740248" lon="12.57824283967963"><ele>280.33333333333337</ele><time>2026-04-27T10:45:19.999Z</time></trkpt><trkpt lat="42.88249320115453" lon="12.578464869434761"><ele>281.0</ele><time>2026-04-27T10:45:20.999Z</time></trkpt><trkpt lat="42.88244056057751" lon="12.578676589452954"><ele>281.0</ele><time>2026-04-27T10:45:21.999Z</time></trkpt><trkpt lat="42.88239115110679" lon="12.578877795688243"><ele>281.0</ele><time>2026-04-27T10:45:22.999Z</time></trkpt><trkpt lat="42.882341031697536" lon="12.57908171356668"><ele>281.0</ele><time>2026-04-27T10:45:23.999Z</time></trkpt><trkpt lat="42.88229147480987" lon="12.579278492191179"><ele>281.0</ele><time>2026-04-27T10:45:24.999Z</time></trkpt><trkpt lat="42.882241925739116" lon="12.579479631030795"><ele>281.0</ele><time>2026-04-27T10:45:25.999Z</time></trkpt><trkpt lat="42.88219084366234" lon="12.579685483999997"><ele>281.0</ele><time>2026-04-27T10:45:26.999Z</time></trkpt><trkpt lat="42.88213695212385" lon="12.57989270625498"><ele>281.33333333333337</ele><time>2026-04-27T10:45:27.999Z</time></trkpt><trkpt lat="42.882077365585324" lon="12.580104749658506"><ele>281.6666666666667</ele><time>2026-04-27T10:45:28.999Z</time></trkpt><trkpt lat="42.88201037467036" lon="12.580314044019948"><ele>282.0</ele><time>2026-04-27T10:45:29.999Z</time></trkpt><trkpt lat="42.88193461402509" lon="12.580520614810379"><ele>282.0</ele><time>2026-04-27T10:45:30.999Z</time></trkpt><trkpt lat="42.881853757195245" lon="12.58072301537156"><ele>282.0</ele><time>2026-04-27T10:45:31.999Z</time></trkpt><trkpt lat="42.881769293563984" lon="12.580922106215167"><ele>282.0</ele><time>2026-04-27T10:45:32.999Z</time></trkpt><trkpt lat="42.8816838638093" lon="12.581123143584847"><ele>282.3333333333333</ele><time>2026-04-27T10:45:33.999Z</time></trkpt><trkpt lat="42.881598054072455" lon="12.581321961924267"><ele>282.66666666666663</ele><time>2026-04-27T10:45:34.999Z</time></trkpt><trkpt lat="42.88151270102918" lon="12.581523227255422"><ele>283.0</ele><time>2026-04-27T10:45:35.999Z</time></trkpt><trkpt lat="42.88143070849197" lon="12.581725659072646"><ele>283.0</ele><time>2026-04-27T10:45:36.999Z</time></trkpt><trkpt lat="42.88134676928242" lon="12.581907376210351"><ele>283.0</ele><time>2026-04-27T10:45:37.999Z</time></trkpt><trkpt lat="42.881288407199875" lon="12.582111910928004"><ele>283.0</ele><time>2026-04-27T10:45:38.999Z</time></trkpt><trkpt lat="42.88126605463493" lon="12.582339579714377"><ele>283.0</ele><time>2026-04-27T10:45:39.999Z</time></trkpt><trkpt lat="42.88123954559452" lon="12.582573440895704"><ele>283.0</ele><time>2026-04-27T10:45:40.999Z</time></trkpt><trkpt lat="42.881217839012244" lon="12.582823200792463"><ele>283.0</ele><time>2026-04-27T10:45:41.999Z</time></trkpt><trkpt lat="42.881198521224746" lon="12.583079684435255"><ele>283.66666666666663</ele><time>2026-04-27T10:45:42.999Z</time></trkpt><trkpt lat="42.881177244791395" lon="12.583346132045632"><ele>284.3333333333333</ele><time>2026-04-27T10:45:43.999Z</time></trkpt><trkpt lat="42.881157040980995" lon="12.583621667900369"><ele>285.0</ele><time>2026-04-27T10:45:44.999Z</time></trkpt><trkpt lat="42.88113604066341" lon="12.583905095107918"><ele>285.0</ele><time>2026-04-27T10:45:45.999Z</time></trkpt><trkpt lat="42.88111359477306" lon="12.584195635549204"><ele>285.0</ele><time>2026-04-27T10:45:46.999Z</time></trkpt><trkpt lat="42.881093463517715" lon="12.584486411836576"><ele>285.0</ele><time>2026-04-27T10:45:47.999Z</time></trkpt><trkpt lat="42.881072025774394" lon="12.584781634771677"><ele>285.6666666666667</ele><time>2026-04-27T10:45:48.999Z</time></trkpt><trkpt lat="42.8810499550083" lon="12.585079823765497"><ele>286.33333333333337</ele><time>2026-04-27T10:45:49.999Z</time></trkpt><trkpt lat="42.88102781654658" lon="12.585377457027247"><ele>287.0</ele><time>2026-04-27T10:45:51Z</time></trkpt><trkpt lat="42.88100660954987" lon="12.585675686576657"><ele>288.33333333333337</ele><time>2026-04-27T10:45:52Z</time></trkpt><trkpt lat="42.880984313157775" lon="12.585974182387494"><ele>289.6666666666667</ele><time>2026-04-27T10:45:53Z</time></trkpt><trkpt lat="42.88096153883763" lon="12.586267450522561"><ele>291.0</ele><time>2026-04-27T10:45:54Z</time></trkpt><trkpt lat="42.88093877769324" lon="12.586546362747292"><ele>291.3333333333333</ele><time>2026-04-27T10:45:55Z</time></trkpt><trkpt lat="42.88091893654048" lon="12.586805133441333"><ele>291.66666666666663</ele><time>2026-04-27T10:45:56Z</time></trkpt><trkpt lat="42.880900497945696" lon="12.587047060769226"><ele>292.0</ele><time>2026-04-27T10:45:57Z</time></trkpt><trkpt lat="42.88088458292532" lon="12.587267142460139"><ele>292.75</ele><time>2026-04-27T10:45:58Z</time></trkpt><trkpt lat="42.88087079234538" lon="12.587465107882426"><ele>293.5</ele><time>2026-04-27T10:45:59Z</time></trkpt><trkpt lat="42.880866153561044" lon="12.587639247503962"><ele>294.25</ele><time>2026-04-27T10:46:00Z</time></trkpt><trkpt lat="42.88085786772384" lon="12.587794857455744"><ele>295.0</ele><time>2026-04-27T10:46:01Z</time></trkpt><trkpt lat="42.8808990070824" lon="12.587936591322176"><ele>297.25</ele><time>2026-04-27T10:46:02Z</time></trkpt><trkpt lat="42.88094315737616" lon="12.588065327902953"><ele>299.5</ele><time>2026-04-27T10:46:03Z</time></trkpt><trkpt lat="42.88102009611405" lon="12.588172525284236"><ele>301.75</ele><time>2026-04-27T10:46:04Z</time></trkpt><trkpt lat="42.881124012956256" lon="12.588253142055496"><ele>304.0</ele><time>2026-04-27T10:46:05Z</time></trkpt><trkpt lat="42.88124919785325" lon="12.58830204824556"><ele>304.0</ele><time>2026-04-27T10:46:06Z</time></trkpt><trkpt lat="42.8813884558755" lon="12.588350069624047"><ele>304.0</ele><time>2026-04-27T10:46:07Z</time></trkpt><trkpt lat="42.88154006302782" lon="12.588403771234697"><ele>304.0</ele><time>2026-04-27T10:46:08Z</time></trkpt><trkpt lat="42.881698465015916" lon="12.588457847484174"><ele>305.0</ele><time>2026-04-27T10:46:09Z</time></trkpt><trkpt lat="42.88185223147181" lon="12.588508721185844"><ele>306.0</ele><time>2026-04-27T10:46:10Z</time></trkpt><trkpt lat="42.881991325802986" lon="12.588565124053396"><ele>307.0</ele><time>2026-04-27T10:46:11Z</time></trkpt><trkpt lat="42.882115651664485" lon="12.588631182508776"><ele>308.0</ele><time>2026-04-27T10:46:12Z</time></trkpt><trkpt lat="42.88222771745633" lon="12.588720733781585"><ele>308.0</ele><time>2026-04-27T10:46:13Z</time></trkpt><trkpt lat="42.88232875836939" lon="12.588840612652621"><ele>308.0</ele><time>2026-04-27T10:46:14Z</time></trkpt><trkpt lat="42.882418257212386" lon="12.588986489087272"><ele>308.0</ele><time>2026-04-27T10:46:15Z</time></trkpt><trkpt lat="42.88249285601233" lon="12.58915549956859"><ele>308.0</ele><time>2026-04-27T10:46:16Z</time></trkpt><trkpt lat="42.88254756048588" lon="12.589338918464408"><ele>307.25</ele><time>2026-04-27T10:46:17Z</time></trkpt><trkpt lat="42.88256350815463" lon="12.589512073392962"><ele>306.5</ele><time>2026-04-27T10:46:18Z</time></trkpt><trkpt lat="42.88257576305629" lon="12.589674502061555"><ele>305.75</ele><time>2026-04-27T10:46:19Z</time></trkpt><trkpt lat="42.88256183580009" lon="12.589827384399435"><ele>305.0</ele><time>2026-04-27T10:46:20Z</time></trkpt><trkpt lat="42.88255806953313" lon="12.590015571334908"><ele>305.0</ele><time>2026-04-27T10:46:21Z</time></trkpt><trkpt lat="42.88253711558722" lon="12.590226920590814"><ele>305.0</ele><time>2026-04-27T10:46:22Z</time></trkpt><trkpt lat="42.8825208694935" lon="12.590458892960049"><ele>305.0</ele><time>2026-04-27T10:46:23Z</time></trkpt><trkpt lat="42.882500918486066" lon="12.590702597436064"><ele>303.6666666666667</ele><time>2026-04-27T10:46:24Z</time></trkpt><trkpt lat="42.88248198950189" lon="12.590955767725728"><ele>302.3333333333333</ele><time>2026-04-27T10:46:25Z</time></trkpt><trkpt lat="42.882464619262926" lon="12.591217699001119"><ele>301.0</ele><time>2026-04-27T10:46:26Z</time></trkpt><trkpt lat="42.8824471471292" lon="12.591482070377035"><ele>299.66666666666663</ele><time>2026-04-27T10:46:27Z</time></trkpt><trkpt lat="42.882428725810136" lon="12.591748262173793"><ele>298.3333333333333</ele><time>2026-04-27T10:46:28Z</time></trkpt><trkpt lat="42.882408755707566" lon="12.592015939042945"><ele>297.0</ele><time>2026-04-27T10:46:29Z</time></trkpt><trkpt lat="42.88238893834852" lon="12.592284827545399"><ele>296.0</ele><time>2026-04-27T10:46:30Z</time></trkpt><trkpt lat="42.882368816564096" lon="12.592554675069685"><ele>295.0</ele><time>2026-04-27T10:46:31Z</time></trkpt><trkpt lat="42.882348904877134" lon="12.59281347704472"><ele>294.0</ele><time>2026-04-27T10:46:32Z</time></trkpt><trkpt lat="42.882329036612056" lon="12.59306410765227"><ele>294.0</ele><time>2026-04-27T10:46:33Z</time></trkpt><trkpt lat="42.88231051839142" lon="12.593305427562228"><ele>294.0</ele><time>2026-04-27T10:46:34Z</time></trkpt><trkpt lat="42.88229287540407" lon="12.593528288932555"><ele>294.0</ele><time>2026-04-27T10:46:35Z</time></trkpt><trkpt lat="42.882277072956924" lon="12.593719249074683"><ele>293.59999999999997</ele><time>2026-04-27T10:46:36Z</time></trkpt><trkpt lat="42.88226282793752" lon="12.593885683837504"><ele>293.2</ele><time>2026-04-27T10:46:37Z</time></trkpt><trkpt lat="42.88225699863362" lon="12.594032971565618"><ele>292.79999999999995</ele><time>2026-04-27T10:46:38Z</time></trkpt><trkpt lat="42.88226514009858" lon="12.594170945875993"><ele>292.4</ele><time>2026-04-27T10:46:39Z</time></trkpt><trkpt lat="42.88229747528935" lon="12.594293070195354"><ele>292.0</ele><time>2026-04-27T10:46:40Z</time></trkpt><trkpt lat="42.88235331097397" lon="12.594391166344854"><ele>292.0</ele><time>2026-04-27T10:46:41Z</time></trkpt><trkpt lat="42.88243845604718" lon="12.594481712285775"><ele>292.0</ele><time>2026-04-27T10:46:42Z</time></trkpt><trkpt lat="42.882538827772926" lon="12.594565649002199"><ele>292.0</ele><time>2026-04-27T10:46:43Z</time></trkpt><trkpt lat="42.882641492496106" lon="12.594646102513861"><ele>292.0</ele><time>2026-04-27T10:46:44Z</time></trkpt><trkpt lat="42.882739212281784" lon="12.59471949215264"><ele>292.75</ele><time>2026-04-27T10:46:45Z</time></trkpt><trkpt lat="42.88284269190191" lon="12.594771829402024"><ele>293.5</ele><time>2026-04-27T10:46:46Z</time></trkpt><trkpt lat="42.88295002619311" lon="12.594773981085865"><ele>294.25</ele><time>2026-04-27T10:46:46.999Z</time></trkpt><trkpt lat="42.883060758200536" lon="12.594727697676266"><ele>295.0</ele><time>2026-04-27T10:46:47.999Z</time></trkpt><trkpt lat="42.88316063145158" lon="12.594629039638699"><ele>295.0</ele><time>2026-04-27T10:46:48.999Z</time></trkpt><trkpt lat="42.88325527115809" lon="12.594500089396172"><ele>295.0</ele><time>2026-04-27T10:46:49.999Z</time></trkpt><trkpt lat="42.88335179927638" lon="12.594350847594939"><ele>295.0</ele><time>2026-04-27T10:46:50.999Z</time></trkpt><trkpt lat="42.88345062093271" lon="12.59419066435203"><ele>295.0</ele><time>2026-04-27T10:46:51.999Z</time></trkpt><trkpt lat="42.88355028883546" lon="12.594037649777057"><ele>295.0</ele><time>2026-04-27T10:46:52.999Z</time></trkpt><trkpt lat="42.88364246358022" lon="12.593899783148483"><ele>295.0</ele><time>2026-04-27T10:46:53.999Z</time></trkpt><trkpt lat="42.883729888677465" lon="12.593768758177676"><ele>295.0</ele><time>2026-04-27T10:46:54.999Z</time></trkpt><trkpt lat="42.88382143000048" lon="12.593659800340971"><ele>295.0</ele><time>2026-04-27T10:46:55.999Z</time></trkpt><trkpt lat="42.8839216257456" lon="12.593574395521037"><ele>294.0</ele><time>2026-04-27T10:46:56.999Z</time></trkpt><trkpt lat="42.884035037082505" lon="12.59351436912391"><ele>293.0</ele><time>2026-04-27T10:46:57.999Z</time></trkpt><trkpt lat="42.88415834399231" lon="12.593489088355238"><ele>292.0</ele><time>2026-04-27T10:46:58.999Z</time></trkpt><trkpt lat="42.884284940894766" lon="12.593495644208735"><ele>291.0</ele><time>2026-04-27T10:46:59.999Z</time></trkpt><trkpt lat="42.884419732847924" lon="12.59354513187657"><ele>290.3333333333333</ele><time>2026-04-27T10:47:00.999Z</time></trkpt><trkpt lat="42.88455866483599" lon="12.59362348930638"><ele>289.66666666666663</ele><time>2026-04-27T10:47:01.999Z</time></trkpt><trkpt lat="42.88470528465247" lon="12.593720983379107"><ele>289.0</ele><time>2026-04-27T10:47:02.999Z</time></trkpt><trkpt lat="42.88485779506154" lon="12.593828374151233"><ele>291.0</ele><time>2026-04-27T10:47:03.999Z</time></trkpt><trkpt lat="42.88500814191578" lon="12.593959299941028"><ele>293.0</ele><time>2026-04-27T10:47:04.999Z</time></trkpt><trkpt lat="42.885154682702556" lon="12.59410654887727"><ele>295.0</ele><time>2026-04-27T10:47:05.999Z</time></trkpt><trkpt lat="42.88530362250853" lon="12.594261802670157"><ele>295.0</ele><time>2026-04-27T10:47:06.999Z</time></trkpt><trkpt lat="42.88545088572065" lon="12.59441477749405"><ele>295.0</ele><time>2026-04-27T10:47:07.999Z</time></trkpt><trkpt lat="42.885585367493405" lon="12.594556629143627"><ele>295.0</ele><time>2026-04-27T10:47:08.999Z</time></trkpt><trkpt lat="42.885710688523986" lon="12.594707277396479"><ele>295.66666666666663</ele><time>2026-04-27T10:47:09.999Z</time></trkpt><trkpt lat="42.88582660514764" lon="12.594878765592677"><ele>296.3333333333333</ele><time>2026-04-27T10:47:10.999Z</time></trkpt><trkpt lat="42.88592709095914" lon="12.595081330419143"><ele>297.0</ele><time>2026-04-27T10:47:11.999Z</time></trkpt><trkpt lat="42.88601508905503" lon="12.595309530139131"><ele>297.0</ele><time>2026-04-27T10:47:12.999Z</time></trkpt><trkpt lat="42.88610066556278" lon="12.595549478189302"><ele>297.0</ele><time>2026-04-27T10:47:13.999Z</time></trkpt><trkpt lat="42.886189278688036" lon="12.595803189121385"><ele>297.0</ele><time>2026-04-27T10:47:14.999Z</time></trkpt><trkpt lat="42.88627914817339" lon="12.596059370790126"><ele>297.3333333333333</ele><time>2026-04-27T10:47:15.999Z</time></trkpt><trkpt lat="42.88636988440354" lon="12.596317476527698"><ele>297.66666666666663</ele><time>2026-04-27T10:47:16.999Z</time></trkpt><trkpt lat="42.88645716151885" lon="12.596564286932582"><ele>298.0</ele><time>2026-04-27T10:47:17.999Z</time></trkpt><trkpt lat="42.88653881579463" lon="12.59679638836194"><ele>299.66666666666663</ele><time>2026-04-27T10:47:18.999Z</time></trkpt><trkpt lat="42.886615236274714" lon="12.597009025201052"><ele>301.3333333333333</ele><time>2026-04-27T10:47:19.999Z</time></trkpt><trkpt lat="42.88668684417459" lon="12.597206748964398"><ele>303.0</ele><time>2026-04-27T10:47:20.999Z</time></trkpt><trkpt lat="42.8867542014539" lon="12.597375809149806"><ele>302.5</ele><time>2026-04-27T10:47:21.999Z</time></trkpt><trkpt lat="42.88682749026197" lon="12.597516099972836"><ele>302.0</ele><time>2026-04-27T10:47:22.999Z</time></trkpt><trkpt lat="42.88691330227165" lon="12.597628671941589"><ele>301.5</ele><time>2026-04-27T10:47:23.999Z</time></trkpt><trkpt lat="42.887018786165974" lon="12.597716369839931"><ele>301.0</ele><time>2026-04-27T10:47:24.999Z</time></trkpt><trkpt lat="42.88713143218023" lon="12.597783963721136"><ele>301.0</ele><time>2026-04-27T10:47:25.999Z</time></trkpt><trkpt lat="42.88723672382464" lon="12.597828332386051"><ele>301.0</ele><time>2026-04-27T10:47:26.999Z</time></trkpt><trkpt lat="42.88734171208018" lon="12.597846116301255"><ele>301.0</ele><time>2026-04-27T10:47:27.999Z</time></trkpt><trkpt lat="42.887453067011464" lon="12.597819712967421"><ele>301.0</ele><time>2026-04-27T10:47:28.999Z</time></trkpt><trkpt lat="42.8875530059359" lon="12.59776100748059"><ele>301.0</ele><time>2026-04-27T10:47:29.999Z</time></trkpt><trkpt lat="42.88762370667307" lon="12.597649823920797"><ele>304.25</ele><time>2026-04-27T10:47:30.999Z</time></trkpt><trkpt lat="42.887664769395414" lon="12.597506584416884"><ele>307.5</ele><time>2026-04-27T10:47:31.999Z</time></trkpt><trkpt lat="42.88767596215157" lon="12.597337663551569"><ele>310.75</ele><time>2026-04-27T10:47:32.999Z</time></trkpt><trkpt lat="42.88766715015984" lon="12.597135161196176"><ele>314.0</ele><time>2026-04-27T10:47:33.999Z</time></trkpt><trkpt lat="42.88765248483897" lon="12.596904407085555"><ele>314.6666666666667</ele><time>2026-04-27T10:47:34.999Z</time></trkpt><trkpt lat="42.88764109061289" lon="12.596645299923036"><ele>315.3333333333333</ele><time>2026-04-27T10:47:35.999Z</time></trkpt><trkpt lat="42.88763216950367" lon="12.596372197852071"><ele>316.0</ele><time>2026-04-27T10:47:36.999Z</time></trkpt><trkpt lat="42.88761963099432" lon="12.596107955075416"><ele>316.66666666666663</ele><time>2026-04-27T10:47:37.999Z</time></trkpt><trkpt lat="42.887607475159555" lon="12.595877595115876"><ele>317.3333333333333</ele><time>2026-04-27T10:47:38.999Z</time></trkpt><trkpt lat="42.88759821250739" lon="12.59567005901617"><ele>318.0</ele><time>2026-04-27T10:47:39.999Z</time></trkpt><trkpt lat="42.88759251775722" lon="12.595480656339426"><ele>318.0</ele><time>2026-04-27T10:47:40.999Z</time></trkpt><trkpt lat="42.88758966124073" lon="12.595311352169476"><ele>318.0</ele><time>2026-04-27T10:47:41.999Z</time></trkpt><trkpt lat="42.887597660110195" lon="12.595152254733994"><ele>318.0</ele><time>2026-04-27T10:47:42.999Z</time></trkpt><trkpt lat="42.88762809242317" lon="12.594994571498855"><ele>318.0</ele><time>2026-04-27T10:47:43.999Z</time></trkpt><trkpt lat="42.887687258144645" lon="12.59484114955574"><ele>318.0</ele><time>2026-04-27T10:47:44.999Z</time></trkpt><trkpt lat="42.88777245868049" lon="12.594706643301128"><ele>318.0</ele><time>2026-04-27T10:47:45.999Z</time></trkpt><trkpt lat="42.887878129489586" lon="12.59459728905276"><ele>318.0</ele><time>2026-04-27T10:47:46.999Z</time></trkpt><trkpt lat="42.88800159016525" lon="12.594507135977388"><ele>318.0</ele><time>2026-04-27T10:47:47.999Z</time></trkpt><trkpt lat="42.88813881637861" lon="12.59443435887898"><ele>317.3333333333333</ele><time>2026-04-27T10:47:48.999Z</time></trkpt><trkpt lat="42.88828804094328" lon="12.594379789024229"><ele>316.66666666666663</ele><time>2026-04-27T10:47:49.999Z</time></trkpt><trkpt lat="42.88845142123505" lon="12.594345690794956"><ele>316.0</ele><time>2026-04-27T10:47:50.999Z</time></trkpt><trkpt lat="42.888627299692466" lon="12.594330045959817"><ele>316.0</ele><time>2026-04-27T10:47:51.999Z</time></trkpt><trkpt lat="42.88880720017565" lon="12.594335477323892"><ele>316.0</ele><time>2026-04-27T10:47:52.999Z</time></trkpt><trkpt lat="42.888987284632464" lon="12.594366289891925"><ele>316.0</ele><time>2026-04-27T10:47:53.999Z</time></trkpt><trkpt lat="42.889169463477465" lon="12.594416992029288"><ele>316.0</ele><time>2026-04-27T10:47:54.999Z</time></trkpt><trkpt lat="42.889350511729226" lon="12.594477782841146"><ele>316.0</ele><time>2026-04-27T10:47:55.999Z</time></trkpt><trkpt lat="42.88953463183129" lon="12.594539839173768"><ele>316.0</ele><time>2026-04-27T10:47:57Z</time></trkpt><trkpt lat="42.889718486513466" lon="12.594598815844076"><ele>319.0</ele><time>2026-04-27T10:47:58Z</time></trkpt><trkpt lat="42.88990064176318" lon="12.594655076838343"><ele>322.0</ele><time>2026-04-27T10:47:59Z</time></trkpt><trkpt lat="42.89008000637357" lon="12.594716088496163"><ele>325.0</ele><time>2026-04-27T10:48:00Z</time></trkpt><trkpt lat="42.89025855215603" lon="12.594775576899258"><ele>326.3333333333333</ele><time>2026-04-27T10:48:01Z</time></trkpt><trkpt lat="42.890421630668726" lon="12.594829129966271"><ele>327.6666666666667</ele><time>2026-04-27T10:48:02Z</time></trkpt><trkpt lat="42.890581406903145" lon="12.59488186195104"><ele>329.0</ele><time>2026-04-27T10:48:03Z</time></trkpt><trkpt lat="42.89073379043827" lon="12.594938950645679"><ele>329.0</ele><time>2026-04-27T10:48:04Z</time></trkpt><trkpt lat="42.890867804970796" lon="12.59501064280901"><ele>329.0</ele><time>2026-04-27T10:48:05Z</time></trkpt><trkpt lat="42.890995469843354" lon="12.5951125753776"><ele>329.0</ele><time>2026-04-27T10:48:06Z</time></trkpt><trkpt lat="42.89111817424584" lon="12.595250823690371"><ele>330.33333333333337</ele><time>2026-04-27T10:48:07Z</time></trkpt><trkpt lat="42.891238133187436" lon="12.595405303257952"><ele>331.6666666666667</ele><time>2026-04-27T10:48:08Z</time></trkpt><trkpt lat="42.89135995301185" lon="12.595566064419822"><ele>333.0</ele><time>2026-04-27T10:48:09Z</time></trkpt><trkpt lat="42.891485497380735" lon="12.595728303981685"><ele>333.0</ele><time>2026-04-27T10:48:10Z</time></trkpt><trkpt lat="42.89161342837713" lon="12.595893796666996"><ele>333.0</ele><time>2026-04-27T10:48:11Z</time></trkpt><trkpt lat="42.891740248074306" lon="12.596061355981865"><ele>333.0</ele><time>2026-04-27T10:48:12Z</time></trkpt><trkpt lat="42.891864298784505" lon="12.596224239048558"><ele>335.0</ele><time>2026-04-27T10:48:13Z</time></trkpt><trkpt lat="42.89198444596587" lon="12.59637912441689"><ele>337.0</ele><time>2026-04-27T10:48:14Z</time></trkpt><trkpt lat="42.89209544922884" lon="12.596521372399636"><ele>339.0</ele><time>2026-04-27T10:48:15Z</time></trkpt><trkpt lat="42.89220375363199" lon="12.59664445152727"><ele>339.0</ele><time>2026-04-27T10:48:16Z</time></trkpt><trkpt lat="42.89232070554542" lon="12.596739866836314"><ele>339.0</ele><time>2026-04-27T10:48:17Z</time></trkpt><trkpt lat="42.89244687805217" lon="12.596803308958537"><ele>339.0</ele><time>2026-04-27T10:48:18Z</time></trkpt><trkpt lat="42.892584519862325" lon="12.596839496078154"><ele>339.0</ele><time>2026-04-27T10:48:19Z</time></trkpt><trkpt lat="42.892733881724844" lon="12.596857248741086"><ele>340.3333333333333</ele><time>2026-04-27T10:48:20Z</time></trkpt><trkpt lat="42.89289538628812" lon="12.596875070237429"><ele>341.66666666666663</ele><time>2026-04-27T10:48:21Z</time></trkpt><trkpt lat="42.89306478642219" lon="12.596906248210306"><ele>343.0</ele><time>2026-04-27T10:48:22Z</time></trkpt><trkpt lat="42.893236057042444" lon="12.596932168979373"><ele>343.0</ele><time>2026-04-27T10:48:23Z</time></trkpt><trkpt lat="42.893404575581535" lon="12.596957941793962"><ele>343.0</ele><time>2026-04-27T10:48:24Z</time></trkpt><trkpt lat="42.89356222881706" lon="12.596981617254288"><ele>343.0</ele><time>2026-04-27T10:48:25Z</time></trkpt><trkpt lat="42.89370415950783" lon="12.596998026163659"><ele>344.5</ele><time>2026-04-27T10:48:26Z</time></trkpt><trkpt lat="42.89383276311483" lon="12.597014567727323"><ele>346.0</ele><time>2026-04-27T10:48:27Z</time></trkpt><trkpt lat="42.89395535745105" lon="12.597042717551199"><ele>347.5</ele><time>2026-04-27T10:48:28Z</time></trkpt><trkpt lat="42.89407241004732" lon="12.59709677763685"><ele>349.0</ele><time>2026-04-27T10:48:29Z</time></trkpt><trkpt lat="42.89417977326594" lon="12.597184089510163"><ele>349.0</ele><time>2026-04-27T10:48:30Z</time></trkpt><trkpt lat="42.894267522108265" lon="12.597306417886522"><ele>349.0</ele><time>2026-04-27T10:48:31Z</time></trkpt><trkpt lat="42.894333777506034" lon="12.597463414589857"><ele>349.0</ele><time>2026-04-27T10:48:32Z</time></trkpt><trkpt lat="42.89434903209039" lon="12.597650829531089"><ele>349.0</ele><time>2026-04-27T10:48:33Z</time></trkpt><trkpt lat="42.89438119117469" lon="12.597846971190389"><ele>350.0</ele><time>2026-04-27T10:48:34Z</time></trkpt><trkpt lat="42.89438872582623" lon="12.598058378142692"><ele>351.0</ele><time>2026-04-27T10:48:35Z</time></trkpt><trkpt lat="42.89440325359711" lon="12.598271275113204"><ele>352.0</ele><time>2026-04-27T10:48:36Z</time></trkpt><trkpt lat="42.894420905875194" lon="12.598483111160785"><ele>352.25</ele><time>2026-04-27T10:48:37Z</time></trkpt><trkpt lat="42.894433356865584" lon="12.598683364244282"><ele>352.5</ele><time>2026-04-27T10:48:38Z</time></trkpt><trkpt lat="42.894439274906894" lon="12.59886697924616"><ele>352.75</ele><time>2026-04-27T10:48:39Z</time></trkpt><trkpt lat="42.89443802505551" lon="12.599043404949443"><ele>353.0</ele><time>2026-04-27T10:48:40Z</time></trkpt><trkpt lat="42.89442284722381" lon="12.599218508688981"><ele>353.0</ele><time>2026-04-27T10:48:40.999Z</time></trkpt><trkpt lat="42.89438847000134" lon="12.59939791557685"><ele>353.0</ele><time>2026-04-27T10:48:41.999Z</time></trkpt><trkpt lat="42.894341575675334" lon="12.599579430546077"><ele>353.0</ele><time>2026-04-27T10:48:42.999Z</time></trkpt><trkpt lat="42.89429281106048" lon="12.599765324652052"><ele>353.0</ele><time>2026-04-27T10:48:43.999Z</time></trkpt><trkpt lat="42.89424617110173" lon="12.59995506336984"><ele>356.6666666666667</ele><time>2026-04-27T10:48:44.999Z</time></trkpt><trkpt lat="42.89419792512289" lon="12.60015021573294"><ele>360.3333333333333</ele><time>2026-04-27T10:48:45.999Z</time></trkpt><trkpt lat="42.89414916693683" lon="12.600344103024606"><ele>364.0</ele><time>2026-04-27T10:48:46.999Z</time></trkpt><trkpt lat="42.89410260963299" lon="12.60054001014921"><ele>364.75</ele><time>2026-04-27T10:48:47.999Z</time></trkpt><trkpt lat="42.89406726477242" lon="12.60073818351687"><ele>365.5</ele><time>2026-04-27T10:48:48.999Z</time></trkpt><trkpt lat="42.89404879515784" lon="12.60093813386934"><ele>366.25</ele><time>2026-04-27T10:48:49.999Z</time></trkpt><trkpt lat="42.894038469808564" lon="12.601139999407867"><ele>367.0</ele><time>2026-04-27T10:48:50.999Z</time></trkpt><trkpt lat="42.89403085848718" lon="12.601343321512374"><ele>367.66666666666663</ele><time>2026-04-27T10:48:51.999Z</time></trkpt><trkpt lat="42.894021191899654" lon="12.601556485079485"><ele>368.3333333333333</ele><time>2026-04-27T10:48:52.999Z</time></trkpt><trkpt lat="42.894014122476385" lon="12.6017728165514"><ele>369.0</ele><time>2026-04-27T10:48:53.999Z</time></trkpt><trkpt lat="42.894008251529705" lon="12.601993990433094"><ele>369.6666666666667</ele><time>2026-04-27T10:48:54.999Z</time></trkpt><trkpt lat="42.894001557509206" lon="12.602213711585893"><ele>370.33333333333337</ele><time>2026-04-27T10:48:55.999Z</time></trkpt><trkpt lat="42.893994352094296" lon="12.6024338762187"><ele>371.0</ele><time>2026-04-27T10:48:56.999Z</time></trkpt><trkpt lat="42.893987698348965" lon="12.60265223508528"><ele>372.33333333333337</ele><time>2026-04-27T10:48:57.999Z</time></trkpt><trkpt lat="42.89398209860128" lon="12.602872680334714"><ele>373.6666666666667</ele><time>2026-04-27T10:48:58.999Z</time></trkpt><trkpt lat="42.89397615797028" lon="12.603091810371406"><ele>375.0</ele><time>2026-04-27T10:48:59.999Z</time></trkpt><trkpt lat="42.89396939172005" lon="12.603310385562148"><ele>375.0</ele><time>2026-04-27T10:49:00.999Z</time></trkpt><trkpt lat="42.89396403033427" lon="12.603516784580163"><ele>375.0</ele><time>2026-04-27T10:49:01.999Z</time></trkpt><trkpt lat="42.89395908257088" lon="12.60371858139193"><ele>375.0</ele><time>2026-04-27T10:49:02.999Z</time></trkpt><trkpt lat="42.89394929674559" lon="12.603919928347981"><ele>375.0</ele><time>2026-04-27T10:49:03.999Z</time></trkpt><trkpt lat="42.89392938419721" lon="12.604124307352299"><ele>375.3333333333333</ele><time>2026-04-27T10:49:04.999Z</time></trkpt><trkpt lat="42.893890737591626" lon="12.604331682801417"><ele>375.66666666666663</ele><time>2026-04-27T10:49:05.999Z</time></trkpt><trkpt lat="42.89383952335615" lon="12.604538351723866"><ele>376.0</ele><time>2026-04-27T10:49:06.999Z</time></trkpt><trkpt lat="42.89377822522752" lon="12.604732737836732"><ele>375.5</ele><time>2026-04-27T10:49:07.999Z</time></trkpt><trkpt lat="42.89371511288397" lon="12.604901860165683"><ele>375.0</ele><time>2026-04-27T10:49:08.999Z</time></trkpt><trkpt lat="42.89365652438008" lon="12.60505549218577"><ele>374.5</ele><time>2026-04-27T10:49:09.999Z</time></trkpt><trkpt lat="42.89360028741457" lon="12.605207740788629"><ele>374.0</ele><time>2026-04-27T10:49:10.999Z</time></trkpt><trkpt lat="42.89354487344081" lon="12.605360021662062"><ele>375.5</ele><time>2026-04-27T10:49:11.999Z</time></trkpt><trkpt lat="42.89349668952118" lon="12.605514232413437"><ele>377.0</ele><time>2026-04-27T10:49:12.999Z</time></trkpt><trkpt lat="42.89346004554479" lon="12.60567613539835"><ele>378.5</ele><time>2026-04-27T10:49:13.999Z</time></trkpt><trkpt lat="42.893427343608785" lon="12.605842059411014"><ele>380.0</ele><time>2026-04-27T10:49:14.999Z</time></trkpt><trkpt lat="42.89345170566781" lon="12.606012068766937"><ele>381.5</ele><time>2026-04-27T10:49:15.999Z</time></trkpt><trkpt lat="42.893480265330524" lon="12.606177553548262"><ele>383.0</ele><time>2026-04-27T10:49:16.999Z</time></trkpt><trkpt lat="42.89354519576448" lon="12.60635020001406"><ele>384.5</ele><time>2026-04-27T10:49:17.999Z</time></trkpt><trkpt lat="42.8936241392919" lon="12.606528570182348"><ele>386.0</ele><time>2026-04-27T10:49:18.999Z</time></trkpt><trkpt lat="42.89370676311621" lon="12.606715858666684"><ele>386.0</ele><time>2026-04-27T10:49:19.999Z</time></trkpt><trkpt lat="42.89379242177045" lon="12.606903510795407"><ele>386.0</ele><time>2026-04-27T10:49:20.999Z</time></trkpt><trkpt lat="42.893880595258516" lon="12.607080270575299"><ele>386.0</ele><time>2026-04-27T10:49:21.999Z</time></trkpt><trkpt lat="42.89396711299963" lon="12.607247334046916"><ele>387.5</ele><time>2026-04-27T10:49:22.999Z</time></trkpt><trkpt lat="42.894056685608334" lon="12.607411001616114"><ele>389.0</ele><time>2026-04-27T10:49:23.999Z</time></trkpt><trkpt lat="42.89414869543537" lon="12.607563909794882"><ele>390.5</ele><time>2026-04-27T10:49:24.999Z</time></trkpt><trkpt lat="42.89424623116428" lon="12.6077116847011"><ele>392.0</ele><time>2026-04-27T10:49:25.999Z</time></trkpt><trkpt lat="42.89434673991906" lon="12.607854612207168"><ele>392.75</ele><time>2026-04-27T10:49:26.999Z</time></trkpt><trkpt lat="42.89444776567448" lon="12.607994740611616"><ele>393.5</ele><time>2026-04-27T10:49:27.999Z</time></trkpt><trkpt lat="42.89455408106031" lon="12.608131527933972"><ele>394.25</ele><time>2026-04-27T10:49:28.999Z</time></trkpt><trkpt lat="42.89466510704058" lon="12.608264868242628"><ele>395.0</ele><time>2026-04-27T10:49:29.999Z</time></trkpt><trkpt lat="42.89478609360093" lon="12.608394124311713"><ele>395.0</ele><time>2026-04-27T10:49:30.999Z</time></trkpt><trkpt lat="42.89491226589788" lon="12.608518075795992"><ele>395.0</ele><time>2026-04-27T10:49:31.999Z</time></trkpt><trkpt lat="42.89504356759163" lon="12.60863395827816"><ele>395.0</ele><time>2026-04-27T10:49:32.999Z</time></trkpt><trkpt lat="42.89517857780158" lon="12.608744878248109"><ele>396.0</ele><time>2026-04-27T10:49:33.999Z</time></trkpt><trkpt lat="42.895310262945564" lon="12.608852548683698"><ele>397.0</ele><time>2026-04-27T10:49:34.999Z</time></trkpt><trkpt lat="42.895436573901414" lon="12.608959338784372"><ele>398.0</ele><time>2026-04-27T10:49:35.999Z</time></trkpt><trkpt lat="42.895565839514276" lon="12.60906966586227"><ele>398.0</ele><time>2026-04-27T10:49:36.999Z</time></trkpt><trkpt lat="42.89570044552821" lon="12.609174726206598"><ele>398.0</ele><time>2026-04-27T10:49:37.999Z</time></trkpt><trkpt lat="42.89584150115964" lon="12.609262100736313"><ele>398.0</ele><time>2026-04-27T10:49:38.999Z</time></trkpt><trkpt lat="42.895987253485714" lon="12.609333954908955"><ele>399.0</ele><time>2026-04-27T10:49:39.999Z</time></trkpt><trkpt lat="42.896134433581906" lon="12.609395562460406"><ele>400.0</ele><time>2026-04-27T10:49:40.999Z</time></trkpt><trkpt lat="42.89628373667042" lon="12.609450734767872"><ele>401.0</ele><time>2026-04-27T10:49:41.999Z</time></trkpt><trkpt lat="42.896433395551306" lon="12.609503613957527"><ele>401.0</ele><time>2026-04-27T10:49:42.999Z</time></trkpt><trkpt lat="42.89658512359372" lon="12.609560046249566"><ele>401.0</ele><time>2026-04-27T10:49:43.999Z</time></trkpt><trkpt lat="42.89673809386834" lon="12.609624325506186"><ele>401.0</ele><time>2026-04-27T10:49:44.999Z</time></trkpt><trkpt lat="42.89688811352394" lon="12.609692848601691"><ele>399.0</ele><time>2026-04-27T10:49:45.999Z</time></trkpt><trkpt lat="42.89703013358023" lon="12.609762326470737"><ele>397.0</ele><time>2026-04-27T10:49:46.999Z</time></trkpt><trkpt lat="42.89716284279567" lon="12.609823615657254"><ele>395.0</ele><time>2026-04-27T10:49:47.999Z</time></trkpt><trkpt lat="42.897301216962596" lon="12.609869793957733"><ele>393.0</ele><time>2026-04-27T10:49:48.999Z</time></trkpt><trkpt lat="42.89743462758428" lon="12.60989278951807"><ele>393.0</ele><time>2026-04-27T10:49:49.999Z</time></trkpt><trkpt lat="42.897569132201816" lon="12.609880592359234"><ele>393.0</ele><time>2026-04-27T10:49:50.999Z</time></trkpt><trkpt lat="42.897702916924324" lon="12.609837398330917"><ele>393.0</ele><time>2026-04-27T10:49:51.999Z</time></trkpt><trkpt lat="42.897833275191985" lon="12.609760022057953"><ele>393.0</ele><time>2026-04-27T10:49:52.999Z</time></trkpt><trkpt lat="42.897963014328404" lon="12.609653700051298"><ele>391.33333333333337</ele><time>2026-04-27T10:49:53.999Z</time></trkpt><trkpt lat="42.89809583270243" lon="12.609536525396317"><ele>389.6666666666667</ele><time>2026-04-27T10:49:54.999Z</time></trkpt><trkpt lat="42.898233909324645" lon="12.609416506290406"><ele>388.0</ele><time>2026-04-27T10:49:55.999Z</time></trkpt><trkpt lat="42.89837544438154" lon="12.609293738843318"><ele>386.6666666666667</ele><time>2026-04-27T10:49:56.999Z</time></trkpt><trkpt lat="42.89852066245302" lon="12.609166816051294"><ele>385.33333333333337</ele><time>2026-04-27T10:49:57.999Z</time></trkpt><trkpt lat="42.89866864191842" lon="12.609041146490258"><ele>384.0</ele><time>2026-04-27T10:49:58.999Z</time></trkpt><trkpt lat="42.89881896714194" lon="12.608912949849902"><ele>384.0</ele><time>2026-04-27T10:49:59.999Z</time></trkpt><trkpt lat="42.89897003327597" lon="12.608784071063042"><ele>384.0</ele><time>2026-04-27T10:50:00.999Z</time></trkpt><trkpt lat="42.899122705130154" lon="12.608651891835974"><ele>384.0</ele><time>2026-04-27T10:50:01.999Z</time></trkpt><trkpt lat="42.899273374110116" lon="12.60852132713552"><ele>384.66666666666663</ele><time>2026-04-27T10:50:03Z</time></trkpt><trkpt lat="42.89942479684691" lon="12.608391771098963"><ele>385.3333333333333</ele><time>2026-04-27T10:50:04Z</time></trkpt><trkpt lat="42.89957368554087" lon="12.60826175795443"><ele>386.0</ele><time>2026-04-27T10:50:05Z</time></trkpt><trkpt lat="42.89972176098512" lon="12.608131488979959"><ele>386.0</ele><time>2026-04-27T10:50:06Z</time></trkpt><trkpt lat="42.899866915099395" lon="12.60800418522436"><ele>386.0</ele><time>2026-04-27T10:50:07Z</time></trkpt><trkpt lat="42.900009596584965" lon="12.607880351125486"><ele>386.0</ele><time>2026-04-27T10:50:08Z</time></trkpt><trkpt lat="42.90015083583736" lon="12.607756552920488"><ele>384.25</ele><time>2026-04-27T10:50:09Z</time></trkpt><trkpt lat="42.900288880023425" lon="12.607638890715"><ele>382.5</ele><time>2026-04-27T10:50:10Z</time></trkpt><trkpt lat="42.90041270562491" lon="12.60753140230776"><ele>380.75</ele><time>2026-04-27T10:50:11Z</time></trkpt><trkpt lat="42.900510139779286" lon="12.607446642222303"><ele>379.0</ele><time>2026-04-27T10:50:12Z</time></trkpt><trkpt lat="42.90057667380836" lon="12.607386846719438"><ele>379.0</ele><time>2026-04-27T10:50:13Z</time></trkpt><trkpt lat="42.900639800377924" lon="12.607332301843465"><ele>379.0</ele><time>2026-04-27T10:50:15Z</time></trkpt><trkpt lat="42.90072725805086" lon="12.60726294010747"><ele>379.0</ele><time>2026-04-27T10:50:18Z</time></trkpt><trkpt lat="42.90079131086581" lon="12.607211410939906"><ele>379.0</ele><time>2026-04-27T10:50:19Z</time></trkpt><trkpt lat="42.90087576377486" lon="12.607145133612054"><ele>379.0</ele><time>2026-04-27T10:50:20Z</time></trkpt><trkpt lat="42.9009774345451" lon="12.607077827661374"><ele>378.0</ele><time>2026-04-27T10:50:21Z</time></trkpt><trkpt lat="42.90110555292497" lon="12.60701564014605"><ele>377.0</ele><time>2026-04-27T10:50:22Z</time></trkpt><trkpt lat="42.901246409051524" lon="12.606967878824742"><ele>376.0</ele><time>2026-04-27T10:50:23Z</time></trkpt><trkpt lat="42.90140199284056" lon="12.606937113836757"><ele>375.0</ele><time>2026-04-27T10:50:24Z</time></trkpt><trkpt lat="42.90156759041048" lon="12.606912695505423"><ele>375.0</ele><time>2026-04-27T10:50:25Z</time></trkpt><trkpt lat="42.90173947466543" lon="12.606886546315145"><ele>375.0</ele><time>2026-04-27T10:50:26Z</time></trkpt><trkpt lat="42.90191280932967" lon="12.606860199762854"><ele>375.0</ele><time>2026-04-27T10:50:27Z</time></trkpt><trkpt lat="42.902085909233826" lon="12.606836490977475"><ele>374.0</ele><time>2026-04-27T10:50:28Z</time></trkpt><trkpt lat="42.90225696772807" lon="12.606811538204028"><ele>373.0</ele><time>2026-04-27T10:50:29Z</time></trkpt><trkpt lat="42.90242058369649" lon="12.606788912384685"><ele>372.0</ele><time>2026-04-27T10:50:30Z</time></trkpt><trkpt lat="42.902575960163134" lon="12.606767078041305"><ele>370.5</ele><time>2026-04-27T10:50:31Z</time></trkpt><trkpt lat="42.902727722890624" lon="12.606748648322878"><ele>369.0</ele><time>2026-04-27T10:50:32Z</time></trkpt><trkpt lat="42.90287182508305" lon="12.606727133186544"><ele>367.5</ele><time>2026-04-27T10:50:33Z</time></trkpt><trkpt lat="42.90301014795816" lon="12.60670202148299"><ele>366.0</ele><time>2026-04-27T10:50:34Z</time></trkpt><trkpt lat="42.903150407613005" lon="12.606682314446221"><ele>366.0</ele><time>2026-04-27T10:50:34.999Z</time></trkpt><trkpt lat="42.90329272000868" lon="12.60667870029766"><ele>366.0</ele><time>2026-04-27T10:50:35.999Z</time></trkpt><trkpt lat="42.90344008169404" lon="12.60670219070646"><ele>366.0</ele><time>2026-04-27T10:50:36.999Z</time></trkpt><trkpt lat="42.90358512051127" lon="12.606764231255784"><ele>366.0</ele><time>2026-04-27T10:50:37.999Z</time></trkpt><trkpt lat="42.903723673569914" lon="12.606856833017007"><ele>365.3333333333333</ele><time>2026-04-27T10:50:38.999Z</time></trkpt><trkpt lat="42.90386135061171" lon="12.606961887811275"><ele>364.66666666666663</ele><time>2026-04-27T10:50:39.999Z</time></trkpt><trkpt lat="42.903985917600565" lon="12.60710696096201"><ele>364.0</ele><time>2026-04-27T10:50:40.999Z</time></trkpt><trkpt lat="42.9041263640528" lon="12.607215010377567"><ele>365.0</ele><time>2026-04-27T10:50:41.999Z</time></trkpt><trkpt lat="42.904253497134086" lon="12.607343283126847"><ele>366.0</ele><time>2026-04-27T10:50:42.999Z</time></trkpt><trkpt lat="42.90437730037203" lon="12.607462904064858"><ele>367.0</ele><time>2026-04-27T10:50:43.999Z</time></trkpt><trkpt lat="42.90450075873339" lon="12.607581069902572"><ele>367.0</ele><time>2026-04-27T10:50:44.999Z</time></trkpt><trkpt lat="42.904621614334275" lon="12.607695445913462"><ele>367.0</ele><time>2026-04-27T10:50:45.999Z</time></trkpt><trkpt lat="42.904740317003885" lon="12.607799620312644"><ele>367.0</ele><time>2026-04-27T10:50:46.999Z</time></trkpt><trkpt lat="42.90485606573513" lon="12.607882905905331"><ele>367.0</ele><time>2026-04-27T10:50:47.999Z</time></trkpt><trkpt lat="42.904973166254294" lon="12.607945883494455"><ele>363.25</ele><time>2026-04-27T10:50:48.999Z</time></trkpt><trkpt lat="42.905101816063265" lon="12.607981006819525"><ele>359.5</ele><time>2026-04-27T10:50:49.999Z</time></trkpt><trkpt lat="42.905239170718865" lon="12.607982688065887"><ele>355.75</ele><time>2026-04-27T10:50:50.999Z</time></trkpt><trkpt lat="42.90537964587808" lon="12.607946700116639"><ele>352.0</ele><time>2026-04-27T10:50:51.999Z</time></trkpt><trkpt lat="42.905519606799814" lon="12.607871467083612"><ele>351.66666666666663</ele><time>2026-04-27T10:50:52.999Z</time></trkpt><trkpt lat="42.905656892573006" lon="12.607762639278468"><ele>351.3333333333333</ele><time>2026-04-27T10:50:53.999Z</time></trkpt><trkpt lat="42.90579833438706" lon="12.607626376296816"><ele>351.0</ele><time>2026-04-27T10:50:54.999Z</time></trkpt><trkpt lat="42.905946624598684" lon="12.607483465156351"><ele>351.0</ele><time>2026-04-27T10:50:55.999Z</time></trkpt><trkpt lat="42.90610053792804" lon="12.60733702901596"><ele>351.0</ele><time>2026-04-27T10:50:56.999Z</time></trkpt><trkpt lat="42.906259568848974" lon="12.60719000260482"><ele>351.0</ele><time>2026-04-27T10:50:57.999Z</time></trkpt><trkpt lat="42.90641576147062" lon="12.60706153545731"><ele>352.0</ele><time>2026-04-27T10:50:58.999Z</time></trkpt><trkpt lat="42.906575406783425" lon="12.606956898087311"><ele>353.0</ele><time>2026-04-27T10:50:59.999Z</time></trkpt><trkpt lat="42.9067416262733" lon="12.606878423010706"><ele>354.0</ele><time>2026-04-27T10:51:00.999Z</time></trkpt><trkpt lat="42.90691375564555" lon="12.606828403038865"><ele>354.0</ele><time>2026-04-27T10:51:01.999Z</time></trkpt><trkpt lat="42.907095364351896" lon="12.60680240467499"><ele>354.0</ele><time>2026-04-27T10:51:02.999Z</time></trkpt><trkpt lat="42.907281960256" lon="12.606796240034004"><ele>354.0</ele><time>2026-04-27T10:51:03.999Z</time></trkpt><trkpt lat="42.90746220663689" lon="12.606799381525612"><ele>354.0</ele><time>2026-04-27T10:51:04.999Z</time></trkpt><trkpt lat="42.90762185138083" lon="12.606811551300964"><ele>354.0</ele><time>2026-04-27T10:51:05.999Z</time></trkpt><trkpt lat="42.907753253859994" lon="12.60683726691202"><ele>354.0</ele><time>2026-04-27T10:51:06.999Z</time></trkpt><trkpt lat="42.90787409943556" lon="12.606898001935749"><ele>354.0</ele><time>2026-04-27T10:51:07.999Z</time></trkpt><trkpt lat="42.90799431656916" lon="12.607000573911614"><ele>354.75</ele><time>2026-04-27T10:51:08.999Z</time></trkpt><trkpt lat="42.90809473682303" lon="12.60713946319583"><ele>355.5</ele><time>2026-04-27T10:51:09.999Z</time></trkpt><trkpt lat="42.90814667367334" lon="12.607309701462727"><ele>356.25</ele><time>2026-04-27T10:51:10.999Z</time></trkpt><trkpt lat="42.908191652424826" lon="12.607482977283992"><ele>357.0</ele><time>2026-04-27T10:51:11.999Z</time></trkpt><trkpt lat="42.90819744103683" lon="12.607686042949808"><ele>357.0</ele><time>2026-04-27T10:51:12.999Z</time></trkpt><trkpt lat="42.90816979761559" lon="12.607900096783338"><ele>357.0</ele><time>2026-04-27T10:51:13.999Z</time></trkpt><trkpt lat="42.90809367307147" lon="12.608099491025936"><ele>357.0</ele><time>2026-04-27T10:51:14.999Z</time></trkpt><trkpt lat="42.90801934030986" lon="12.608318853113518"><ele>357.0</ele><time>2026-04-27T10:51:15.999Z</time></trkpt><trkpt lat="42.907919941764014" lon="12.608538697232415"><ele>357.0</ele><time>2026-04-27T10:51:16.999Z</time></trkpt><trkpt lat="42.90782545192433" lon="12.608770249922982"><ele>357.0</ele><time>2026-04-27T10:51:17.999Z</time></trkpt><trkpt lat="42.907734848681905" lon="12.60900412076296"><ele>356.0</ele><time>2026-04-27T10:51:18.999Z</time></trkpt><trkpt lat="42.907648699796525" lon="12.609217141150681"><ele>355.0</ele><time>2026-04-27T10:51:19.999Z</time></trkpt><trkpt lat="42.90755104648198" lon="12.609399307385063"><ele>354.0</ele><time>2026-04-27T10:51:20.999Z</time></trkpt><trkpt lat="42.90746167023112" lon="12.60956755221238"><ele>351.6666666666667</ele><time>2026-04-27T10:51:21.999Z</time></trkpt><trkpt lat="42.9073576539023" lon="12.609725801274946"><ele>349.33333333333337</ele><time>2026-04-27T10:51:22.999Z</time></trkpt><trkpt lat="42.907220518603204" lon="12.609839654279805"><ele>347.0</ele><time>2026-04-27T10:51:23.999Z</time></trkpt><trkpt lat="42.90707275001914" lon="12.60992670723124"><ele>347.0</ele><time>2026-04-27T10:51:24.999Z</time></trkpt><trkpt lat="42.9069375196997" lon="12.610003003530524"><ele>347.0</ele><time>2026-04-27T10:51:25.999Z</time></trkpt><trkpt lat="42.90681089144245" lon="12.610077910131693"><ele>347.0</ele><time>2026-04-27T10:51:26.999Z</time></trkpt><trkpt lat="42.90669976119809" lon="12.610151300664002"><ele>347.0</ele><time>2026-04-27T10:51:27.999Z</time></trkpt><trkpt lat="42.90661122534912" lon="12.610233494260857"><ele>345.8</ele><time>2026-04-27T10:51:28.999Z</time></trkpt><trkpt lat="42.906543506466036" lon="12.610339201415108"><ele>344.6</ele><time>2026-04-27T10:51:29.999Z</time></trkpt><trkpt lat="42.90650725236623" lon="12.61045779635189"><ele>343.40000000000003</ele><time>2026-04-27T10:51:30.999Z</time></trkpt><trkpt lat="42.90651243893176" lon="12.610590199928945"><ele>342.20000000000005</ele><time>2026-04-27T10:51:31.999Z</time></trkpt><trkpt lat="42.90655855439942" lon="12.610715948688199"><ele>341.0</ele><time>2026-04-27T10:51:32.999Z</time></trkpt><trkpt lat="42.90665286982605" lon="12.610807014868795"><ele>340.0</ele><time>2026-04-27T10:51:33.999Z</time></trkpt><trkpt lat="42.9067713928504" lon="12.610851025037736"><ele>339.0</ele><time>2026-04-27T10:51:34.999Z</time></trkpt><trkpt lat="42.906904787307866" lon="12.610855179921455"><ele>338.0</ele><time>2026-04-27T10:51:35.999Z</time></trkpt><trkpt lat="42.90704953047317" lon="12.610811412086484"><ele>337.0</ele><time>2026-04-27T10:51:36.999Z</time></trkpt><trkpt lat="42.90720689898497" lon="12.610738399761772"><ele>337.0</ele><time>2026-04-27T10:51:37.999Z</time></trkpt><trkpt lat="42.907375637589446" lon="12.610655155917343"><ele>337.0</ele><time>2026-04-27T10:51:38.999Z</time></trkpt><trkpt lat="42.90755376728682" lon="12.61057214090945"><ele>337.0</ele><time>2026-04-27T10:51:39.999Z</time></trkpt><trkpt lat="42.90773175221456" lon="12.610503192185526"><ele>334.0</ele><time>2026-04-27T10:51:40.999Z</time></trkpt><trkpt lat="42.90789842741355" lon="12.610446401790234"><ele>331.0</ele><time>2026-04-27T10:51:41.999Z</time></trkpt><trkpt lat="42.90806331971293" lon="12.610400338958327"><ele>328.0</ele><time>2026-04-27T10:51:42.999Z</time></trkpt><trkpt lat="42.908223751912786" lon="12.610362677045604"><ele>328.0</ele><time>2026-04-27T10:51:43.999Z</time></trkpt><trkpt lat="42.90838868640047" lon="12.610331740762467"><ele>328.0</ele><time>2026-04-27T10:51:44.999Z</time></trkpt><trkpt lat="42.908553101198734" lon="12.610298119808405"><ele>328.0</ele><time>2026-04-27T10:51:45.999Z</time></trkpt><trkpt lat="42.90871169320446" lon="12.610235193747043"><ele>329.0</ele><time>2026-04-27T10:51:46.999Z</time></trkpt><trkpt lat="42.90886356369384" lon="12.610151523317166"><ele>330.0</ele><time>2026-04-27T10:51:47.999Z</time></trkpt><trkpt lat="42.90901785968656" lon="12.610053005928886"><ele>331.0</ele><time>2026-04-27T10:51:48.999Z</time></trkpt><trkpt lat="42.909172173981226" lon="12.609957585345406"><ele>327.66666666666663</ele><time>2026-04-27T10:51:49.999Z</time></trkpt><trkpt lat="42.909330098374355" lon="12.609872842571766"><ele>324.3333333333333</ele><time>2026-04-27T10:51:50.999Z</time></trkpt><trkpt lat="42.90949366216548" lon="12.609812312011838"><ele>321.0</ele><time>2026-04-27T10:51:51.999Z</time></trkpt><trkpt lat="42.909655092828366" lon="12.60976875061349"><ele>321.0</ele><time>2026-04-27T10:51:52.999Z</time></trkpt><trkpt lat="42.90981371027148" lon="12.609725066077981"><ele>321.0</ele><time>2026-04-27T10:51:53.999Z</time></trkpt><trkpt lat="42.90997194060793" lon="12.60967571229288"><ele>321.0</ele><time>2026-04-27T10:51:54.999Z</time></trkpt><trkpt lat="42.91012603583653" lon="12.609623321198162"><ele>322.0</ele><time>2026-04-27T10:51:55.999Z</time></trkpt><trkpt lat="42.91027890669157" lon="12.609564040046546"><ele>323.0</ele><time>2026-04-27T10:51:56.999Z</time></trkpt><trkpt lat="42.91042320164231" lon="12.609482250708723"><ele>324.0</ele><time>2026-04-27T10:51:57.999Z</time></trkpt><trkpt lat="42.91056342040735" lon="12.609386116097111"><ele>324.0</ele><time>2026-04-27T10:51:58.999Z</time></trkpt><trkpt lat="42.91070023013245" lon="12.609284244266828"><ele>324.0</ele><time>2026-04-27T10:51:59.999Z</time></trkpt><trkpt lat="42.91083066880701" lon="12.609182478463408"><ele>324.0</ele><time>2026-04-27T10:52:00.999Z</time></trkpt><trkpt lat="42.910961231711845" lon="12.609093986447423"><ele>322.75</ele><time>2026-04-27T10:52:01.999Z</time></trkpt><trkpt lat="42.91109365478253" lon="12.609026485905773"><ele>321.5</ele><time>2026-04-27T10:52:02.999Z</time></trkpt><trkpt lat="42.911227935618" lon="12.608989936820887"><ele>320.25</ele><time>2026-04-27T10:52:03.999Z</time></trkpt><trkpt lat="42.911366674649635" lon="12.609002946773025"><ele>319.0</ele><time>2026-04-27T10:52:04.999Z</time></trkpt><trkpt lat="42.91150044458462" lon="12.60905814705959"><ele>319.0</ele><time>2026-04-27T10:52:05.999Z</time></trkpt><trkpt lat="42.91162885543613" lon="12.609134241111853"><ele>319.0</ele><time>2026-04-27T10:52:06.999Z</time></trkpt><trkpt lat="42.91175709278861" lon="12.609207166578532"><ele>319.0</ele><time>2026-04-27T10:52:07.999Z</time></trkpt><trkpt lat="42.9118947329461" lon="12.609248699896861"><ele>319.0</ele><time>2026-04-27T10:52:09Z</time></trkpt><trkpt lat="42.912037879341966" lon="12.6092509085728"><ele>317.5</ele><time>2026-04-27T10:52:10Z</time></trkpt><trkpt lat="42.91218025159474" lon="12.60920799237809"><ele>316.0</ele><time>2026-04-27T10:52:11Z</time></trkpt><trkpt lat="42.912305809075924" lon="12.60913276068139"><ele>314.5</ele><time>2026-04-27T10:52:12Z</time></trkpt><trkpt lat="42.912427827843494" lon="12.609033046867312"><ele>313.0</ele><time>2026-04-27T10:52:13Z</time></trkpt><trkpt lat="42.912546636145564" lon="12.608930602792789"><ele>311.4</ele><time>2026-04-27T10:52:14Z</time></trkpt><trkpt lat="42.912658368786815" lon="12.608844380199699"><ele>309.8</ele><time>2026-04-27T10:52:15Z</time></trkpt><trkpt lat="42.91276210841379" lon="12.608788038731008"><ele>308.2</ele><time>2026-04-27T10:52:16.001Z</time></trkpt><trkpt lat="42.91285974422589" lon="12.608774106585454"><ele>306.6</ele><time>2026-04-27T10:52:17.001Z</time></trkpt><trkpt lat="42.912959847148414" lon="12.608812379116355"><ele>305.0</ele><time>2026-04-27T10:52:18.001Z</time></trkpt><trkpt lat="42.91304107313556" lon="12.608907393666255"><ele>305.0</ele><time>2026-04-27T10:52:19.001Z</time></trkpt><trkpt lat="42.91308553387222" lon="12.60905542927243"><ele>305.0</ele><time>2026-04-27T10:52:20.001Z</time></trkpt><trkpt lat="42.91312494903657" lon="12.609222883449736"><ele>305.0</ele><time>2026-04-27T10:52:21.001Z</time></trkpt><trkpt lat="42.91318375516691" lon="12.609412183289328"><ele>305.0</ele><time>2026-04-27T10:52:22.001Z</time></trkpt><trkpt lat="42.91322900888064" lon="12.609625134594602"><ele>304.33333333333337</ele><time>2026-04-27T10:52:23.001Z</time></trkpt><trkpt lat="42.913278126447864" lon="12.609847724047848"><ele>303.6666666666667</ele><time>2026-04-27T10:52:24.001Z</time></trkpt><trkpt lat="42.913326903359675" lon="12.610077188170754"><ele>303.0</ele><time>2026-04-27T10:52:25.001Z</time></trkpt><trkpt lat="42.913375454711314" lon="12.610297216334628"><ele>301.0</ele><time>2026-04-27T10:52:26.001Z</time></trkpt><trkpt lat="42.91342293876175" lon="12.610509725547727"><ele>299.0</ele><time>2026-04-27T10:52:27.001Z</time></trkpt><trkpt lat="42.91347269370072" lon="12.610712963490718"><ele>297.0</ele><time>2026-04-27T10:52:28Z</time></trkpt><trkpt lat="42.91353098130911" lon="12.610904723862586"><ele>297.0</ele><time>2026-04-27T10:52:29Z</time></trkpt><trkpt lat="42.91360379969672" lon="12.611080093393984"><ele>297.0</ele><time>2026-04-27T10:52:30Z</time></trkpt><trkpt lat="42.91368864450531" lon="12.611238293200172"><ele>297.0</ele><time>2026-04-27T10:52:31Z</time></trkpt><trkpt lat="42.913784983531556" lon="12.61137575931189"><ele>297.0</ele><time>2026-04-27T10:52:32Z</time></trkpt><trkpt lat="42.913890978397525" lon="12.611494825951734"><ele>296.25</ele><time>2026-04-27T10:52:33Z</time></trkpt><trkpt lat="42.91400270660702" lon="12.611600753619571"><ele>295.5</ele><time>2026-04-27T10:52:34Z</time></trkpt><trkpt lat="42.91411937449499" lon="12.611699355436926"><ele>294.75</ele><time>2026-04-27T10:52:35Z</time></trkpt><trkpt lat="42.91423853448563" lon="12.611794933506497"><ele>294.0</ele><time>2026-04-27T10:52:36Z</time></trkpt><trkpt lat="42.914356222272076" lon="12.611894377753437"><ele>292.5</ele><time>2026-04-27T10:52:37Z</time></trkpt><trkpt lat="42.9144701025956" lon="12.611992984848301"><ele>291.0</ele><time>2026-04-27T10:52:38Z</time></trkpt><trkpt lat="42.91457765397327" lon="12.612083494108173"><ele>289.5</ele><time>2026-04-27T10:52:39Z</time></trkpt><trkpt lat="42.914676821944035" lon="12.61215582108697"><ele>288.0</ele><time>2026-04-27T10:52:40Z</time></trkpt><trkpt lat="42.9147704538784" lon="12.612206793725036"><ele>288.0</ele><time>2026-04-27T10:52:41Z</time></trkpt><trkpt lat="42.914866000786176" lon="12.612222788150335"><ele>288.0</ele><time>2026-04-27T10:52:42Z</time></trkpt><trkpt lat="42.914961861414966" lon="12.612202094693936"><ele>288.0</ele><time>2026-04-27T10:52:43Z</time></trkpt><trkpt lat="42.91505007953802" lon="12.61213754970355"><ele>288.0</ele><time>2026-04-27T10:52:44Z</time></trkpt><trkpt lat="42.915122444888276" lon="12.61203685971068"><ele>288.0</ele><time>2026-04-27T10:52:45Z</time></trkpt><trkpt lat="42.915170497552054" lon="12.61191360880588"><ele>285.75</ele><time>2026-04-27T10:52:46Z</time></trkpt><trkpt lat="42.91519514891719" lon="12.611772827225995"><ele>283.5</ele><time>2026-04-27T10:52:47Z</time></trkpt><trkpt lat="42.915195322277405" lon="12.611621929146573"><ele>281.25</ele><time>2026-04-27T10:52:48Z</time></trkpt><trkpt lat="42.91517710520826" lon="12.611462948499728"><ele>279.0</ele><time>2026-04-27T10:52:49Z</time></trkpt><trkpt lat="42.91515182855188" lon="12.611292015915812"><ele>277.5</ele><time>2026-04-27T10:52:50Z</time></trkpt><trkpt lat="42.915127509484435" lon="12.611113017085732"><ele>276.0</ele><time>2026-04-27T10:52:51Z</time></trkpt><trkpt lat="42.91510234562802" lon="12.610932206828307"><ele>274.5</ele><time>2026-04-27T10:52:52Z</time></trkpt><trkpt lat="42.91507701325862" lon="12.610759589263905"><ele>273.0</ele><time>2026-04-27T10:52:53Z</time></trkpt><trkpt lat="42.915053873466775" lon="12.610597267379315"><ele>272.6</ele><time>2026-04-27T10:52:54Z</time></trkpt><trkpt lat="42.91503407354371" lon="12.610441498522938"><ele>272.20000000000005</ele><time>2026-04-27T10:52:55Z</time></trkpt><trkpt lat="42.91502490001568" lon="12.610303810076363"><ele>271.8</ele><time>2026-04-27T10:52:56Z</time></trkpt><trkpt lat="42.91503072973246" lon="12.61017978005225"><ele>271.40000000000003</ele><time>2026-04-27T10:52:57Z</time></trkpt><trkpt lat="42.91506185594714" lon="12.610064235291043"><ele>271.0</ele><time>2026-04-27T10:52:58Z</time></trkpt><trkpt lat="42.915119108786655" lon="12.609972038134252"><ele>271.0</ele><time>2026-04-27T10:52:59Z</time></trkpt><trkpt lat="42.91520286641901" lon="12.609919802568115"><ele>271.0</ele><time>2026-04-27T10:53:00Z</time></trkpt><trkpt lat="42.91530021031213" lon="12.609918737412645"><ele>271.0</ele><time>2026-04-27T10:53:01Z</time></trkpt><trkpt lat="42.91538429313343" lon="12.609997044296652"><ele>271.0</ele><time>2026-04-27T10:53:02Z</time></trkpt><trkpt lat="42.9154802108197" lon="12.610082424895754"><ele>271.0</ele><time>2026-04-27T10:53:03Z</time></trkpt><trkpt lat="42.91555612419047" lon="12.610216271798798"><ele>271.5</ele><time>2026-04-27T10:53:04Z</time></trkpt><trkpt lat="42.91561592409043" lon="12.610373389477024"><ele>272.0</ele><time>2026-04-27T10:53:05Z</time></trkpt><trkpt lat="42.915656811561455" lon="12.61053951667105"><ele>272.5</ele><time>2026-04-27T10:53:06Z</time></trkpt><trkpt lat="42.9156952488817" lon="12.610688756507797"><ele>273.0</ele><time>2026-04-27T10:53:07Z</time></trkpt><trkpt lat="42.915749121316566" lon="12.61082260184218"><ele>273.0</ele><time>2026-04-27T10:53:08Z</time></trkpt><trkpt lat="42.91582517510081" lon="12.61092827502092"><ele>273.0</ele><time>2026-04-27T10:53:09Z</time></trkpt><trkpt lat="42.91593499086635" lon="12.611001480655782"><ele>273.0</ele><time>2026-04-27T10:53:10Z</time></trkpt><trkpt lat="42.916068552419894" lon="12.611049409685673"><ele>273.0</ele><time>2026-04-27T10:53:11Z</time></trkpt><trkpt lat="42.91621076297712" lon="12.611097519758948"><ele>271.25</ele><time>2026-04-27T10:53:12Z</time></trkpt><trkpt lat="42.91633860667393" lon="12.611175318659011"><ele>269.5</ele><time>2026-04-27T10:53:13Z</time></trkpt><trkpt lat="42.9164454461492" lon="12.611287213112941"><ele>267.75</ele><time>2026-04-27T10:53:14Z</time></trkpt><trkpt lat="42.91652911926348" lon="12.611451064593302"><ele>266.0</ele><time>2026-04-27T10:53:15Z</time></trkpt><trkpt lat="42.916612125380055" lon="12.611638867895632"><ele>266.0</ele><time>2026-04-27T10:53:16Z</time></trkpt><trkpt lat="42.91669254237442" lon="12.611851462797834"><ele>266.0</ele><time>2026-04-27T10:53:17Z</time></trkpt><trkpt lat="42.916765121089526" lon="12.61207794470836"><ele>266.0</ele><time>2026-04-27T10:53:18Z</time></trkpt><trkpt lat="42.916832735623174" lon="12.612307137608818"><ele>262.0</ele><time>2026-04-27T10:53:19Z</time></trkpt><trkpt lat="42.91689527929751" lon="12.612533771935066"><ele>258.0</ele><time>2026-04-27T10:53:20Z</time></trkpt><trkpt lat="42.916954703034506" lon="12.612750265439736"><ele>254.0</ele><time>2026-04-27T10:53:21Z</time></trkpt><trkpt lat="42.91701376376286" lon="12.612959409699787"><ele>254.0</ele><time>2026-04-27T10:53:22Z</time></trkpt><trkpt lat="42.91706911107967" lon="12.61316120871275"><ele>254.0</ele><time>2026-04-27T10:53:23Z</time></trkpt><trkpt lat="42.91712174487311" lon="12.613354644490169"><ele>254.0</ele><time>2026-04-27T10:53:24Z</time></trkpt><trkpt lat="42.91717574843979" lon="12.613542145209527"><ele>254.75</ele><time>2026-04-27T10:53:25Z</time></trkpt><trkpt lat="42.91723157151377" lon="12.613720267653223"><ele>255.5</ele><time>2026-04-27T10:53:26Z</time></trkpt><trkpt lat="42.91729458228939" lon="12.613882301362262"><ele>256.25</ele><time>2026-04-27T10:53:27Z</time></trkpt><trkpt lat="42.917379436779896" lon="12.614012532079872"><ele>257.0</ele><time>2026-04-27T10:53:28Z</time></trkpt><trkpt lat="42.91748739116502" lon="12.614107113210713"><ele>254.5</ele><time>2026-04-27T10:53:29Z</time></trkpt><trkpt lat="42.91761436818596" lon="12.614167965835868"><ele>252.0</ele><time>2026-04-27T10:53:30Z</time></trkpt><trkpt lat="42.917756389573476" lon="12.614199854106943"><ele>249.5</ele><time>2026-04-27T10:53:31Z</time></trkpt><trkpt lat="42.91790986540801" lon="12.61421654210532"><ele>247.0</ele><time>2026-04-27T10:53:32Z</time></trkpt><trkpt lat="42.91807276683119" lon="12.614233177985618"><ele>247.0</ele><time>2026-04-27T10:53:33Z</time></trkpt><trkpt lat="42.91823475780331" lon="12.614254848566624"><ele>247.0</ele><time>2026-04-27T10:53:34Z</time></trkpt><trkpt lat="42.91839747110105" lon="12.614280933894117"><ele>247.0</ele><time>2026-04-27T10:53:35Z</time></trkpt><trkpt lat="42.918564109444404" lon="12.614295972823216"><ele>245.66666666666666</ele><time>2026-04-27T10:53:36Z</time></trkpt><trkpt lat="42.91873523691039" lon="12.614313858324742"><ele>244.33333333333331</ele><time>2026-04-27T10:53:37Z</time></trkpt><trkpt lat="42.91890640651991" lon="12.61432891946272"><ele>243.0</ele><time>2026-04-27T10:53:38Z</time></trkpt><trkpt lat="42.91907110621701" lon="12.61431513097421"><ele>242.66666666666669</ele><time>2026-04-27T10:53:39Z</time></trkpt><trkpt lat="42.91923936525028" lon="12.614275253057494"><ele>242.33333333333334</ele><time>2026-04-27T10:53:40Z</time></trkpt><trkpt lat="42.919412548509385" lon="12.614226931175399"><ele>242.0</ele><time>2026-04-27T10:53:41Z</time></trkpt><trkpt lat="42.91958637467955" lon="12.614172763868376"><ele>242.0</ele><time>2026-04-27T10:53:42Z</time></trkpt><trkpt lat="42.91975787566252" lon="12.614109085962852"><ele>242.0</ele><time>2026-04-27T10:53:43Z</time></trkpt><trkpt lat="42.91993149212602" lon="12.61404374094483"><ele>242.0</ele><time>2026-04-27T10:53:44Z</time></trkpt><trkpt lat="42.92010781802223" lon="12.613983745918912"><ele>240.0</ele><time>2026-04-27T10:53:45Z</time></trkpt><trkpt lat="42.92028564133184" lon="12.613928563778067"><ele>238.0</ele><time>2026-04-27T10:53:46Z</time></trkpt><trkpt lat="42.92046605728822" lon="12.613878824376863"><ele>236.0</ele><time>2026-04-27T10:53:47Z</time></trkpt><trkpt lat="42.92064796507546" lon="12.613835519597899"><ele>236.0</ele><time>2026-04-27T10:53:48Z</time></trkpt><trkpt lat="42.92082980541458" lon="12.61380056683811"><ele>236.0</ele><time>2026-04-27T10:53:49Z</time></trkpt><trkpt lat="42.921004473124846" lon="12.613773023572124"><ele>236.0</ele><time>2026-04-27T10:53:50Z</time></trkpt><trkpt lat="42.92117377084987" lon="12.613746547946906"><ele>234.66666666666669</ele><time>2026-04-27T10:53:51Z</time></trkpt><trkpt lat="42.92133813282192" lon="12.61372336033567"><ele>233.33333333333331</ele><time>2026-04-27T10:53:52Z</time></trkpt><trkpt lat="42.92149702938336" lon="12.613707522935401"><ele>232.0</ele><time>2026-04-27T10:53:53Z</time></trkpt><trkpt lat="42.921651711978775" lon="12.61370637751559"><ele>230.0</ele><time>2026-04-27T10:53:54Z</time></trkpt><trkpt lat="42.921803597547196" lon="12.613730998024687"><ele>228.0</ele><time>2026-04-27T10:53:55Z</time></trkpt><trkpt lat="42.921959137528894" lon="12.613783976131792"><ele>226.0</ele><time>2026-04-27T10:53:56Z</time></trkpt><trkpt lat="42.922116590810774" lon="12.613866318917909"><ele>226.0</ele><time>2026-04-27T10:53:57Z</time></trkpt><trkpt lat="42.92227638221896" lon="12.613977841820926"><ele>226.0</ele><time>2026-04-27T10:53:58Z</time></trkpt><trkpt lat="42.92244358486849" lon="12.614100578286527"><ele>226.0</ele><time>2026-04-27T10:53:59Z</time></trkpt><trkpt lat="42.9226133911217" lon="12.614224582971636"><ele>224.66666666666666</ele><time>2026-04-27T10:54:00Z</time></trkpt><trkpt lat="42.922775413766445" lon="12.614343422280234"><ele>223.33333333333331</ele><time>2026-04-27T10:54:01Z</time></trkpt><trkpt lat="42.922932743689294" lon="12.614457070723537"><ele>222.0</ele><time>2026-04-27T10:54:02Z</time></trkpt><trkpt lat="42.92308571413099" lon="12.614570006220871"><ele>222.0</ele><time>2026-04-27T10:54:03Z</time></trkpt><trkpt lat="42.923233227972204" lon="12.614680891569206"><ele>222.0</ele><time>2026-04-27T10:54:04Z</time></trkpt><trkpt lat="42.923376104376445" lon="12.614789225956457"><ele>222.0</ele><time>2026-04-27T10:54:05Z</time></trkpt><trkpt lat="42.92351495010876" lon="12.614896189367514"><ele>220.25</ele><time>2026-04-27T10:54:06Z</time></trkpt><trkpt lat="42.92364988892455" lon="12.61499788787308"><ele>218.5</ele><time>2026-04-27T10:54:07Z</time></trkpt><trkpt lat="42.92378147048117" lon="12.61509663164205"><ele>216.75</ele><time>2026-04-27T10:54:08Z</time></trkpt><trkpt lat="42.923909149757826" lon="12.615190394232263"><ele>215.0</ele><time>2026-04-27T10:54:09Z</time></trkpt><trkpt lat="42.92403622516056" lon="12.61527388521621"><ele>215.5</ele><time>2026-04-27T10:54:10Z</time></trkpt><trkpt lat="42.924162043408046" lon="12.615340333748879"><ele>216.0</ele><time>2026-04-27T10:54:11Z</time></trkpt><trkpt lat="42.92429148966507" lon="12.615385221906374"><ele>216.5</ele><time>2026-04-27T10:54:12Z</time></trkpt><trkpt lat="42.924428379058845" lon="12.615407047021348"><ele>217.0</ele><time>2026-04-27T10:54:13Z</time></trkpt><trkpt lat="42.924566647592634" lon="12.615398072106666"><ele>216.0</ele><time>2026-04-27T10:54:14Z</time></trkpt><trkpt lat="42.92469804162544" lon="12.615364834825906"><ele>215.0</ele><time>2026-04-27T10:54:15Z</time></trkpt><trkpt lat="42.92481372454374" lon="12.615310270669928"><ele>214.0</ele><time>2026-04-27T10:54:16Z</time></trkpt><trkpt lat="42.9249065859093" lon="12.615246689650856"><ele>213.0</ele><time>2026-04-27T10:54:17Z</time></trkpt><trkpt lat="42.92498175421348" lon="12.615183151299261"><ele>212.0</ele><time>2026-04-27T10:54:18Z</time></trkpt><trkpt lat="42.92504469366966" lon="12.61512655618333"><ele>210.83333333333334</ele><time>2026-04-27T10:54:19Z</time></trkpt><trkpt lat="42.925137145968776" lon="12.615038417990137"><ele>209.66666666666669</ele><time>2026-04-27T10:54:21Z</time></trkpt><trkpt lat="42.925201006456874" lon="12.61497444335092"><ele>208.5</ele><time>2026-04-27T10:54:23Z</time></trkpt><trkpt lat="42.925257206113436" lon="12.61491528674418"><ele>207.33333333333331</ele><time>2026-04-27T10:54:26Z</time></trkpt><trkpt lat="42.925313499259445" lon="12.614861822849837"><ele>206.16666666666666</ele><time>2026-04-27T10:54:28Z</time></trkpt><trkpt lat="42.925374643347546" lon="12.614803038499554"><ele>205.0</ele><time>2026-04-27T10:54:30Z</time></trkpt><trkpt lat="42.925438418528756" lon="12.614745628078765"><ele>205.0</ele><time>2026-04-27T10:54:32Z</time></trkpt><trkpt lat="42.925511764640085" lon="12.614681367475068"><ele>205.0</ele><time>2026-04-27T10:54:35Z</time></trkpt><trkpt lat="42.925625132404626" lon="12.614585546658647"><ele>205.0</ele><time>2026-04-27T10:54:37Z</time></trkpt><trkpt lat="42.92569911623711" lon="12.614532293418364"><ele>205.0</ele><time>2026-04-27T10:54:38Z</time></trkpt><trkpt lat="42.925783775509224" lon="12.614467005083602"><ele>205.0</ele><time>2026-04-27T10:54:39Z</time></trkpt><trkpt lat="42.92587386938641" lon="12.614389959936323"><ele>205.0</ele><time>2026-04-27T10:54:40Z</time></trkpt><trkpt lat="42.925965157205006" lon="12.614308640365122"><ele>205.0</ele><time>2026-04-27T10:54:41Z</time></trkpt><trkpt lat="42.92605271611265" lon="12.614231320226274"><ele>205.0</ele><time>2026-04-27T10:54:42Z</time></trkpt><trkpt lat="42.926138759751694" lon="12.61415391193825"><ele>205.0</ele><time>2026-04-27T10:54:43Z</time></trkpt><trkpt lat="42.92622460369842" lon="12.614077823265148"><ele>205.0</ele><time>2026-04-27T10:54:44Z</time></trkpt><trkpt lat="42.92630983825749" lon="12.61400236547339"><ele>205.0</ele><time>2026-04-27T10:54:45Z</time></trkpt><trkpt lat="42.92639357971756" lon="12.613927711468605"><ele>205.0</ele><time>2026-04-27T10:54:46Z</time></trkpt><trkpt lat="42.92647629242775" lon="12.613854416217531"><ele>205.0</ele><time>2026-04-27T10:54:47Z</time></trkpt><trkpt lat="42.926560203623836" lon="12.613780496630815"><ele>205.0</ele><time>2026-04-27T10:54:48Z</time></trkpt><trkpt lat="42.926644295577674" lon="12.613704732001093"><ele>205.0</ele><time>2026-04-27T10:54:49Z</time></trkpt><trkpt lat="42.92672862782102" lon="12.613627463558982"><ele>204.8</ele><time>2026-04-27T10:54:50Z</time></trkpt><trkpt lat="42.92681446915018" lon="12.613550246226389"><ele>204.6</ele><time>2026-04-27T10:54:51Z</time></trkpt><trkpt lat="42.926900828434974" lon="12.613470931660522"><ele>204.39999999999998</ele><time>2026-04-27T10:54:52Z</time></trkpt><trkpt lat="42.92698947727715" lon="12.613392313340219"><ele>204.2</ele><time>2026-04-27T10:54:53Z</time></trkpt><trkpt lat="42.92707697416339" lon="12.613311301024247"><ele>204.0</ele><time>2026-04-27T10:54:54Z</time></trkpt><trkpt lat="42.92716477276532" lon="12.613229733042349"><ele>204.0</ele><time>2026-04-27T10:54:55Z</time></trkpt><trkpt lat="42.92725064611988" lon="12.613142391559858"><ele>204.0</ele><time>2026-04-27T10:54:56Z</time></trkpt><trkpt lat="42.92733517651556" lon="12.613052448739289"><ele>204.0</ele><time>2026-04-27T10:54:57Z</time></trkpt><trkpt lat="42.927436691241624" lon="12.612977031583132"><ele>204.0</ele><time>2026-04-27T10:54:58Z</time></trkpt><trkpt lat="42.92752748937809" lon="12.612896646844588"><ele>204.0</ele><time>2026-04-27T10:54:59Z</time></trkpt><trkpt lat="42.92761959845365" lon="12.61281722644828"><ele>203.83333333333334</ele><time>2026-04-27T10:55:00Z</time></trkpt><trkpt lat="42.92770679085272" lon="12.61273743490883"><ele>203.66666666666669</ele><time>2026-04-27T10:55:01Z</time></trkpt><trkpt lat="42.92778669840083" lon="12.61266565608805"><ele>203.5</ele><time>2026-04-27T10:55:02Z</time></trkpt><trkpt lat="42.927859429687686" lon="12.612598795987996"><ele>203.33333333333334</ele><time>2026-04-27T10:55:03Z</time></trkpt><trkpt lat="42.9279267220458" lon="12.612538314221547"><ele>203.16666666666669</ele><time>2026-04-27T10:55:04Z</time></trkpt><trkpt lat="42.9279889657403" lon="12.61248219022888"><ele>203.0</ele><time>2026-04-27T10:55:05Z</time></trkpt><trkpt lat="42.92805342127773" lon="12.612423045198714"><ele>203.00000000000003</ele><time>2026-04-27T10:55:06Z</time></trkpt><trkpt lat="42.92811905111751" lon="12.612360692508796"><ele>203.0</ele><time>2026-04-27T10:55:07Z</time></trkpt><trkpt lat="42.92818508842231" lon="12.612301747883716"><ele>203.0</ele><time>2026-04-27T10:55:08Z</time></trkpt><trkpt lat="42.928251318432864" lon="12.612243374338052"><ele>203.0</ele><time>2026-04-27T10:55:09Z</time></trkpt><trkpt lat="42.92831816359006" lon="12.612183754325837"><ele>203.00000000000003</ele><time>2026-04-27T10:55:10Z</time></trkpt><trkpt lat="42.92838475326935" lon="12.612124930916641"><ele>203.0</ele><time>2026-04-27T10:55:11Z</time></trkpt><trkpt lat="42.928453251342745" lon="12.612064862068957"><ele>202.83333333333334</ele><time>2026-04-27T10:55:12Z</time></trkpt><trkpt lat="42.92852102621412" lon="12.612002779835668"><ele>202.66666666666669</ele><time>2026-04-27T10:55:13Z</time></trkpt><trkpt lat="42.92859137098087" lon="12.61193772414885"><ele>202.5</ele><time>2026-04-27T10:55:14Z</time></trkpt><trkpt lat="42.92865996187885" lon="12.61187406231093"><ele>202.33333333333331</ele><time>2026-04-27T10:55:15Z</time></trkpt><trkpt lat="42.92872453899228" lon="12.611815648842601"><ele>202.16666666666666</ele><time>2026-04-27T10:55:16Z</time></trkpt><trkpt lat="42.92879210966081" lon="12.611757355666064"><ele>202.0</ele><time>2026-04-27T10:55:17Z</time></trkpt><trkpt lat="42.92886143489267" lon="12.611703688268381"><ele>202.0</ele><time>2026-04-27T10:55:18Z</time></trkpt><trkpt lat="42.9289349110664" lon="12.611651790148331"><ele>202.0</ele><time>2026-04-27T10:55:19Z</time></trkpt><trkpt lat="42.92900829203185" lon="12.611584970082555"><ele>202.0</ele><time>2026-04-27T10:55:20Z</time></trkpt><trkpt lat="42.92908753383504" lon="12.611514615760864"><ele>202.0</ele><time>2026-04-27T10:55:21Z</time></trkpt><trkpt lat="42.92917070823045" lon="12.611440767826481"><ele>202.0</ele><time>2026-04-27T10:55:22Z</time></trkpt><trkpt lat="42.92925763798227" lon="12.611363135330796"><ele>202.0</ele><time>2026-04-27T10:55:23Z</time></trkpt><trkpt lat="42.929347216748425" lon="12.611283012425234"><ele>202.0</ele><time>2026-04-27T10:55:24Z</time></trkpt><trkpt lat="42.92943772767592" lon="12.611199951161629"><ele>202.0</ele><time>2026-04-27T10:55:25Z</time></trkpt><trkpt lat="42.92952934148761" lon="12.611116388142737"><ele>202.0</ele><time>2026-04-27T10:55:26Z</time></trkpt><trkpt lat="42.92962126052609" lon="12.611033004592572"><ele>202.0</ele><time>2026-04-27T10:55:27Z</time></trkpt><trkpt lat="42.92971348813537" lon="12.610951435768708"><ele>202.2</ele><time>2026-04-27T10:55:28Z</time></trkpt><trkpt lat="42.92980601564038" lon="12.61087138470572"><ele>202.39999999999998</ele><time>2026-04-27T10:55:29Z</time></trkpt><trkpt lat="42.929898447723936" lon="12.610787660003808"><ele>202.60000000000002</ele><time>2026-04-27T10:55:30Z</time></trkpt><trkpt lat="42.929988679261925" lon="12.610704183373592"><ele>202.8</ele><time>2026-04-27T10:55:31Z</time></trkpt><trkpt lat="42.93007886994197" lon="12.610620283761778"><ele>203.0</ele><time>2026-04-27T10:55:32Z</time></trkpt><trkpt lat="42.93016978336965" lon="12.610539588792728"><ele>203.0</ele><time>2026-04-27T10:55:33Z</time></trkpt><trkpt lat="42.93025937647999" lon="12.610459937357987"><ele>203.0</ele><time>2026-04-27T10:55:34Z</time></trkpt><trkpt lat="42.930347024761645" lon="12.610379490620415"><ele>203.0</ele><time>2026-04-27T10:55:35Z</time></trkpt><trkpt lat="42.930434092999356" lon="12.610300616435094"><ele>203.0</ele><time>2026-04-27T10:55:36Z</time></trkpt><trkpt lat="42.93052039591115" lon="12.61022431836072"><ele>203.0</ele><time>2026-04-27T10:55:37Z</time></trkpt><trkpt lat="42.930606400032616" lon="12.610147040461712"><ele>203.4</ele><time>2026-04-27T10:55:38Z</time></trkpt><trkpt lat="42.93069686986962" lon="12.610078788082289"><ele>203.8</ele><time>2026-04-27T10:55:39Z</time></trkpt><trkpt lat="42.93079589527939" lon="12.610030457349382"><ele>204.2</ele><time>2026-04-27T10:55:40Z</time></trkpt><trkpt lat="42.930902533822774" lon="12.610016675910003"><ele>204.6</ele><time>2026-04-27T10:55:41Z</time></trkpt><trkpt lat="42.93100704932755" lon="12.610039722886722"><ele>205.0</ele><time>2026-04-27T10:55:42Z</time></trkpt><trkpt lat="42.93111154108125" lon="12.610090746072553"><ele>205.0</ele><time>2026-04-27T10:55:43Z</time></trkpt><trkpt lat="42.93121826068357" lon="12.610157888002721"><ele>205.0</ele><time>2026-04-27T10:55:44Z</time></trkpt><trkpt lat="42.931328443841664" lon="12.610227982522577"><ele>205.0</ele><time>2026-04-27T10:55:45Z</time></trkpt><trkpt lat="42.93144445771631" lon="12.610294558855696"><ele>205.0</ele><time>2026-04-27T10:55:46Z</time></trkpt><trkpt lat="42.93156233873123" lon="12.610362182903028"><ele>204.75</ele><time>2026-04-27T10:55:47Z</time></trkpt><trkpt lat="42.93168486039557" lon="12.610431359352752"><ele>204.5</ele><time>2026-04-27T10:55:48Z</time></trkpt><trkpt lat="42.93180930123005" lon="12.610502577003254"><ele>204.25</ele><time>2026-04-27T10:55:49Z</time></trkpt><trkpt lat="42.931930586790486" lon="12.610572237522735"><ele>204.0</ele><time>2026-04-27T10:55:50Z</time></trkpt><trkpt lat="42.93205347974782" lon="12.610642542427222"><ele>204.0</ele><time>2026-04-27T10:55:51Z</time></trkpt><trkpt lat="42.93217665052337" lon="12.610712846513582"><ele>204.0</ele><time>2026-04-27T10:55:52Z</time></trkpt><trkpt lat="42.93229951505344" lon="12.6107834103469"><ele>204.0</ele><time>2026-04-27T10:55:53Z</time></trkpt><trkpt lat="42.93242204227735" lon="12.610854762570852"><ele>204.0</ele><time>2026-04-27T10:55:54Z</time></trkpt><trkpt lat="42.93254526408362" lon="12.610925323853605"><ele>205.0</ele><time>2026-04-27T10:55:55Z</time></trkpt><trkpt lat="42.93266684594526" lon="12.610995506390823"><ele>206.0</ele><time>2026-04-27T10:55:56Z</time></trkpt><trkpt lat="42.93278780551255" lon="12.611066692780387"><ele>207.0</ele><time>2026-04-27T10:55:57Z</time></trkpt><trkpt lat="42.93290862936573" lon="12.61113527973206"><ele>208.0</ele><time>2026-04-27T10:55:58Z</time></trkpt><trkpt lat="42.93302944797601" lon="12.611206499372628"><ele>208.0</ele><time>2026-04-27T10:55:59Z</time></trkpt><trkpt lat="42.9331501264002" lon="12.611274371908294"><ele>208.0</ele><time>2026-04-27T10:56:00Z</time></trkpt><trkpt lat="42.93327255151877" lon="12.611341781963613"><ele>208.0</ele><time>2026-04-27T10:56:01Z</time></trkpt><trkpt lat="42.93339406073338" lon="12.611410269074069"><ele>208.0</ele><time>2026-04-27T10:56:02Z</time></trkpt><trkpt lat="42.933517083246656" lon="12.611481539130915"><ele>209.25</ele><time>2026-04-27T10:56:03Z</time></trkpt><trkpt lat="42.93364082945061" lon="12.61155296214375"><ele>210.5</ele><time>2026-04-27T10:56:04Z</time></trkpt><trkpt lat="42.93376600267667" lon="12.611626455322885"><ele>211.75</ele><time>2026-04-27T10:56:05Z</time></trkpt><trkpt lat="42.93389067505912" lon="12.611701550369547"><ele>213.0</ele><time>2026-04-27T10:56:06Z</time></trkpt><trkpt lat="42.93401561251491" lon="12.61177740784861"><ele>213.0</ele><time>2026-04-27T10:56:07Z</time></trkpt><trkpt lat="42.934140725967985" lon="12.611851788228332"><ele>213.0</ele><time>2026-04-27T10:56:08Z</time></trkpt><trkpt lat="42.93426336531248" lon="12.611923275298452"><ele>213.0</ele><time>2026-04-27T10:56:09Z</time></trkpt><trkpt lat="42.93438316817287" lon="12.61198961492286"><ele>213.0</ele><time>2026-04-27T10:56:10Z</time></trkpt><trkpt lat="42.934498875828616" lon="12.612051278197416"><ele>213.4</ele><time>2026-04-27T10:56:11Z</time></trkpt><trkpt lat="42.93461136346582" lon="12.612114988554588"><ele>213.8</ele><time>2026-04-27T10:56:12Z</time></trkpt><trkpt lat="42.93471327082899" lon="12.612177371017204"><ele>214.2</ele><time>2026-04-27T10:56:13Z</time></trkpt><trkpt lat="42.93481025187154" lon="12.612240899570619"><ele>214.6</ele><time>2026-04-27T10:56:14Z</time></trkpt><trkpt lat="42.934899926578446" lon="12.612306165346219"><ele>215.0</ele><time>2026-04-27T10:56:15Z</time></trkpt><trkpt lat="42.93498047171663" lon="12.612374782834882"><ele>215.0</ele><time>2026-04-27T10:56:16Z</time></trkpt><trkpt lat="42.93505087209105" lon="12.612456060790741"><ele>215.0</ele><time>2026-04-27T10:56:17Z</time></trkpt><trkpt lat="42.93511667780575" lon="12.612557707447456"><ele>215.0</ele><time>2026-04-27T10:56:18Z</time></trkpt><trkpt lat="42.93517680523355" lon="12.612674137365907"><ele>215.0</ele><time>2026-04-27T10:56:19Z</time></trkpt><trkpt lat="42.935209557457775" lon="12.61281765052075"><ele>215.0</ele><time>2026-04-27T10:56:20Z</time></trkpt><trkpt lat="42.935267596850316" lon="12.612954979513011"><ele>216.25</ele><time>2026-04-27T10:56:21Z</time></trkpt><trkpt lat="42.93530994601136" lon="12.613108328285929"><ele>217.5</ele><time>2026-04-27T10:56:22Z</time></trkpt><trkpt lat="42.93535395347403" lon="12.613267554793305"><ele>218.75</ele><time>2026-04-27T10:56:23Z</time></trkpt><trkpt lat="42.93539995726653" lon="12.613429375097299"><ele>220.0</ele><time>2026-04-27T10:56:24Z</time></trkpt><trkpt lat="42.935444947385015" lon="12.6135930777305"><ele>219.75</ele><time>2026-04-27T10:56:25Z</time></trkpt><trkpt lat="42.93549185030268" lon="12.613753002420685"><ele>219.5</ele><time>2026-04-27T10:56:26Z</time></trkpt><trkpt lat="42.935535977630934" lon="12.613908774789607"><ele>219.25</ele><time>2026-04-27T10:56:27Z</time></trkpt><trkpt lat="42.935579734407064" lon="12.614062398261455"><ele>219.0</ele><time>2026-04-27T10:56:28Z</time></trkpt><trkpt lat="42.935624731197" lon="12.61421721565854"><ele>219.0</ele><time>2026-04-27T10:56:29Z</time></trkpt><trkpt lat="42.93567098973751" lon="12.614377955400187"><ele>219.0</ele><time>2026-04-27T10:56:30Z</time></trkpt><trkpt lat="42.935716318296855" lon="12.614544094822255"><ele>219.0</ele><time>2026-04-27T10:56:31Z</time></trkpt><trkpt lat="42.93576754055453" lon="12.614711182546758"><ele>219.0</ele><time>2026-04-27T10:56:32Z</time></trkpt><trkpt lat="42.93581553531795" lon="12.614880970981993"><ele>219.25</ele><time>2026-04-27T10:56:33Z</time></trkpt><trkpt lat="42.93586632532611" lon="12.615052415108098"><ele>219.5</ele><time>2026-04-27T10:56:34Z</time></trkpt><trkpt lat="42.93591753709889" lon="12.61522188002197"><ele>219.75</ele><time>2026-04-27T10:56:35Z</time></trkpt><trkpt lat="42.93596634141976" lon="12.615389760932691"><ele>220.0</ele><time>2026-04-27T10:56:36Z</time></trkpt><trkpt lat="42.935999798500724" lon="12.615564302983142"><ele>220.5</ele><time>2026-04-27T10:56:37Z</time></trkpt><trkpt lat="42.936062140552345" lon="12.615723059770847"><ele>221.0</ele><time>2026-04-27T10:56:38Z</time></trkpt><trkpt lat="42.9361088621273" lon="12.6158864694768"><ele>221.5</ele><time>2026-04-27T10:56:39Z</time></trkpt><trkpt lat="42.93615270376675" lon="12.616042407539606"><ele>222.0</ele><time>2026-04-27T10:56:40Z</time></trkpt><trkpt lat="42.936195809461104" lon="12.616194102574417"><ele>221.0</ele><time>2026-04-27T10:56:41Z</time></trkpt><trkpt lat="42.936239571408294" lon="12.616348194525779"><ele>220.0</ele><time>2026-04-27T10:56:42Z</time></trkpt><trkpt lat="42.936287116567485" lon="12.61651047885985"><ele>219.0</ele><time>2026-04-27T10:56:43Z</time></trkpt><trkpt lat="42.93633784098112" lon="12.616676396808515"><ele>218.0</ele><time>2026-04-27T10:56:44Z</time></trkpt><trkpt lat="42.93638893058306" lon="12.61683985896101"><ele>217.0</ele><time>2026-04-27T10:56:45Z</time></trkpt><trkpt lat="42.93644095722709" lon="12.61700841050398"><ele>216.0</ele><time>2026-04-27T10:56:46Z</time></trkpt><trkpt lat="42.93649413951813" lon="12.617176934414518"><ele>215.0</ele><time>2026-04-27T10:56:47Z</time></trkpt><trkpt lat="42.93654895086344" lon="12.617348042874307"><ele>214.0</ele><time>2026-04-27T10:56:48Z</time></trkpt><trkpt lat="42.93660477308911" lon="12.617521502790616"><ele>214.0</ele><time>2026-04-27T10:56:49Z</time></trkpt><trkpt lat="42.93666017551025" lon="12.61769795777416"><ele>214.0</ele><time>2026-04-27T10:56:50Z</time></trkpt><trkpt lat="42.936700311826414" lon="12.61788321611721"><ele>214.0</ele><time>2026-04-27T10:56:51Z</time></trkpt><trkpt lat="42.9367690002619" lon="12.618053113964454"><ele>214.0</ele><time>2026-04-27T10:56:52Z</time></trkpt><trkpt lat="42.93682546747414" lon="12.618232253379983"><ele>214.0</ele><time>2026-04-27T10:56:53Z</time></trkpt><trkpt lat="42.93688328714058" lon="12.618412154704222"><ele>214.0</ele><time>2026-04-27T10:56:54Z</time></trkpt><trkpt lat="42.936938829458626" lon="12.618594155454472"><ele>214.0</ele><time>2026-04-27T10:56:55Z</time></trkpt><trkpt lat="42.936994546864305" lon="12.618776630951686"><ele>214.0</ele><time>2026-04-27T10:56:56Z</time></trkpt><trkpt lat="42.9370494370376" lon="12.618959805970052"><ele>213.75</ele><time>2026-04-27T10:56:57Z</time></trkpt><trkpt lat="42.93710636811085" lon="12.619141279953622"><ele>213.5</ele><time>2026-04-27T10:56:58Z</time></trkpt><trkpt lat="42.93716107541783" lon="12.61932246097085"><ele>213.25</ele><time>2026-04-27T10:56:59Z</time></trkpt><trkpt lat="42.9372189861695" lon="12.619508338975512"><ele>213.0</ele><time>2026-04-27T10:57:00Z</time></trkpt><trkpt lat="42.93727815264613" lon="12.619691913010415"><ele>212.33333333333331</ele><time>2026-04-27T10:57:01Z</time></trkpt><trkpt lat="42.93733618159653" lon="12.619878107220407"><ele>211.66666666666666</ele><time>2026-04-27T10:57:02Z</time></trkpt><trkpt lat="42.93739722741648" lon="12.620064805548983"><ele>211.0</ele><time>2026-04-27T10:57:03Z</time></trkpt><trkpt lat="42.93745686252286" lon="12.620259452228728"><ele>210.33333333333331</ele><time>2026-04-27T10:57:04Z</time></trkpt><trkpt lat="42.93751938149154" lon="12.620456942321557"><ele>209.66666666666669</ele><time>2026-04-27T10:57:05Z</time></trkpt><trkpt lat="42.93758213112601" lon="12.620656025722734"><ele>209.0</ele><time>2026-04-27T10:57:06Z</time></trkpt><trkpt lat="42.9376422665849" lon="12.620856104290713"><ele>211.33333333333334</ele><time>2026-04-27T10:57:07Z</time></trkpt><trkpt lat="42.937700264065974" lon="12.621060365198774"><ele>213.66666666666669</ele><time>2026-04-27T10:57:08Z</time></trkpt><trkpt lat="42.937767580020015" lon="12.621261995318765"><ele>216.0</ele><time>2026-04-27T10:57:09Z</time></trkpt><trkpt lat="42.93781707243592" lon="12.621445708133063"><ele>216.0</ele><time>2026-04-27T10:57:10Z</time></trkpt><trkpt lat="42.93787916498313" lon="12.62164086974014"><ele>216.0</ele><time>2026-04-27T10:57:11Z</time></trkpt><trkpt lat="42.937941750027086" lon="12.621833224777848"><ele>216.0</ele><time>2026-04-27T10:57:12Z</time></trkpt><trkpt lat="42.93800176160196" lon="12.622021871191945"><ele>214.75</ele><time>2026-04-27T10:57:13Z</time></trkpt><trkpt lat="42.93805937271756" lon="12.622209696090218"><ele>213.5</ele><time>2026-04-27T10:57:14Z</time></trkpt><trkpt lat="42.93811343020688" lon="12.622392262482238"><ele>212.25</ele><time>2026-04-27T10:57:15Z</time></trkpt><trkpt lat="42.93816792953252" lon="12.622575812428991"><ele>211.0</ele><time>2026-04-27T10:57:16Z</time></trkpt><trkpt lat="42.93822386976937" lon="12.622754338786834"><ele>210.75</ele><time>2026-04-27T10:57:17Z</time></trkpt><trkpt lat="42.93827716536018" lon="12.622925703959059"><ele>210.5</ele><time>2026-04-27T10:57:18Z</time></trkpt><trkpt lat="42.93832944395777" lon="12.62309074847636"><ele>210.25</ele><time>2026-04-27T10:57:19Z</time></trkpt><trkpt lat="42.9383812794435" lon="12.62324446757127"><ele>210.0</ele><time>2026-04-27T10:57:20Z</time></trkpt><trkpt lat="42.93842942399279" lon="12.623387497618385"><ele>210.0</ele><time>2026-04-27T10:57:21Z</time></trkpt><trkpt lat="42.93848534148257" lon="12.623516905135837"><ele>210.0</ele><time>2026-04-27T10:57:22Z</time></trkpt><trkpt lat="42.9385434476602" lon="12.623636869100332"><ele>210.0</ele><time>2026-04-27T10:57:23Z</time></trkpt><trkpt lat="42.93859601797525" lon="12.623754087935032"><ele>210.0</ele><time>2026-04-27T10:57:24Z</time></trkpt><trkpt lat="42.938650529122334" lon="12.623858897722773"><ele>210.0</ele><time>2026-04-27T10:57:25Z</time></trkpt><trkpt lat="42.9386945959136" lon="12.623968308806765"><ele>209.0</ele><time>2026-04-27T10:57:26Z</time></trkpt><trkpt lat="42.93872484341722" lon="12.624086532070882"><ele>208.0</ele><time>2026-04-27T10:57:27Z</time></trkpt><trkpt lat="42.93874580974505" lon="12.624197883932101"><ele>207.0</ele><time>2026-04-27T10:57:28Z</time></trkpt><trkpt lat="42.93874761289039" lon="12.624307725031091"><ele>206.0</ele><time>2026-04-27T10:57:29Z</time></trkpt><trkpt lat="42.938736143290114" lon="12.62440657615896"><ele>205.0</ele><time>2026-04-27T10:57:30Z</time></trkpt><trkpt lat="42.938735676144056" lon="12.62450385783024"><ele>204.0</ele><time>2026-04-27T10:57:31Z</time></trkpt><trkpt lat="42.93882810014272" lon="12.624612262032"><ele>204.0</ele><time>2026-04-27T10:57:33Z</time></trkpt><trkpt lat="42.93895215079999" lon="12.62459894081671"><ele>204.0</ele><time>2026-04-27T10:57:35Z</time></trkpt><trkpt lat="42.93900916649641" lon="12.62453283078834"><ele>204.0</ele><time>2026-04-27T10:57:36Z</time></trkpt><trkpt lat="42.93903701082783" lon="12.624442603311588"><ele>204.0</ele><time>2026-04-27T10:57:37Z</time></trkpt><trkpt lat="42.939028770928566" lon="12.624335065066498"><ele>204.0</ele><time>2026-04-27T10:57:38Z</time></trkpt><trkpt lat="42.938990782971295" lon="12.624245379048586"><ele>204.0</ele><time>2026-04-27T10:57:39Z</time></trkpt><trkpt lat="42.93892592311006" lon="12.624165021085696"><ele>204.0</ele><time>2026-04-27T10:57:40Z</time></trkpt><trkpt lat="42.938853940264295" lon="12.624082578381982"><ele>204.0</ele><time>2026-04-27T10:57:41Z</time></trkpt><trkpt lat="42.93878763487978" lon="12.623976849637552"><ele>204.0</ele><time>2026-04-27T10:57:42Z</time></trkpt><trkpt lat="42.93872413474273" lon="12.623851025501743"><ele>204.0</ele><time>2026-04-27T10:57:43Z</time></trkpt><trkpt lat="42.93865422618493" lon="12.623716464132679"><ele>204.0</ele><time>2026-04-27T10:57:44Z</time></trkpt><trkpt lat="42.93857919166248" lon="12.623583706155914"><ele>204.5</ele><time>2026-04-27T10:57:45Z</time></trkpt><trkpt lat="42.93850806792861" lon="12.623451115749896"><ele>205.0</ele><time>2026-04-27T10:57:46Z</time></trkpt><trkpt lat="42.93844343220574" lon="12.623311157012228"><ele>205.5</ele><time>2026-04-27T10:57:47Z</time></trkpt><trkpt lat="42.938386836370604" lon="12.623167462444895"><ele>206.0</ele><time>2026-04-27T10:57:48Z</time></trkpt><trkpt lat="42.93833784264552" lon="12.623008994994125"><ele>206.0</ele><time>2026-04-27T10:57:49Z</time></trkpt><trkpt lat="42.938288973091055" lon="12.622849097500637"><ele>206.0</ele><time>2026-04-27T10:57:50Z</time></trkpt><trkpt lat="42.93823708894437" lon="12.622687636760327"><ele>206.0</ele><time>2026-04-27T10:57:51Z</time></trkpt><trkpt lat="42.93818540032466" lon="12.622523913640407"><ele>206.0</ele><time>2026-04-27T10:57:52Z</time></trkpt><trkpt lat="42.938132904292274" lon="12.622357656275803"><ele>207.25</ele><time>2026-04-27T10:57:53Z</time></trkpt><trkpt lat="42.938079740363065" lon="12.622191912891031"><ele>208.5</ele><time>2026-04-27T10:57:54Z</time></trkpt><trkpt lat="42.93802604365206" lon="12.622028247748613"><ele>209.75</ele><time>2026-04-27T10:57:55Z</time></trkpt><trkpt lat="42.93797521667049" lon="12.621864332137099"><ele>211.0</ele><time>2026-04-27T10:57:56Z</time></trkpt><trkpt lat="42.937923394117725" lon="12.62170117970791"><ele>212.25</ele><time>2026-04-27T10:57:57Z</time></trkpt><trkpt lat="42.9378712009455" lon="12.621536428815674"><ele>213.5</ele><time>2026-04-27T10:57:58Z</time></trkpt><trkpt lat="42.937819372088605" lon="12.621369483690088"><ele>214.75</ele><time>2026-04-27T10:57:59Z</time></trkpt><trkpt lat="42.93776985211909" lon="12.621203080895564"><ele>216.0</ele><time>2026-04-27T10:58:00Z</time></trkpt><trkpt lat="42.93772220497677" lon="12.621042229403635"><ele>216.25</ele><time>2026-04-27T10:58:01Z</time></trkpt><trkpt lat="42.9376712962854" lon="12.620884269563565"><ele>216.5</ele><time>2026-04-27T10:58:02Z</time></trkpt><trkpt lat="42.937623524974924" lon="12.620732140722135"><ele>216.75</ele><time>2026-04-27T10:58:03Z</time></trkpt><trkpt lat="42.93757288303794" lon="12.620578094525547"><ele>217.0</ele><time>2026-04-27T10:58:04Z</time></trkpt><trkpt lat="42.93752587869486" lon="12.620425112298182"><ele>215.5</ele><time>2026-04-27T10:58:05Z</time></trkpt><trkpt lat="42.93747756427846" lon="12.62027219576129"><ele>214.0</ele><time>2026-04-27T10:58:06Z</time></trkpt><trkpt lat="42.93742868204367" lon="12.620114801162094"><ele>212.5</ele><time>2026-04-27T10:58:07Z</time></trkpt><trkpt lat="42.93737982880873" lon="12.619956950529748"><ele>211.0</ele><time>2026-04-27T10:58:08Z</time></trkpt><trkpt lat="42.93733068305255" lon="12.619798375829209"><ele>211.0</ele><time>2026-04-27T10:58:09Z</time></trkpt><trkpt lat="42.937282273134116" lon="12.619638021946972"><ele>211.0</ele><time>2026-04-27T10:58:10Z</time></trkpt><trkpt lat="42.9372337603826" lon="12.61947874330786"><ele>211.0</ele><time>2026-04-27T10:58:11Z</time></trkpt><trkpt lat="42.937184936997504" lon="12.61932795408874"><ele>211.0</ele><time>2026-04-27T10:58:12Z</time></trkpt><trkpt lat="42.93713834483986" lon="12.61918600485366"><ele>211.4</ele><time>2026-04-27T10:58:13Z</time></trkpt><trkpt lat="42.93709487172091" lon="12.619049579258157"><ele>211.8</ele><time>2026-04-27T10:58:14Z</time></trkpt><trkpt lat="42.93705413098862" lon="12.618914788187427"><ele>212.20000000000002</ele><time>2026-04-27T10:58:15Z</time></trkpt><trkpt lat="42.937011939351514" lon="12.618783121958375"><ele>212.60000000000002</ele><time>2026-04-27T10:58:16Z</time></trkpt><trkpt lat="42.936970996707316" lon="12.618650616170601"><ele>213.0</ele><time>2026-04-27T10:58:17Z</time></trkpt><trkpt lat="42.93692553407129" lon="12.618519226259892"><ele>213.2</ele><time>2026-04-27T10:58:18Z</time></trkpt><trkpt lat="42.93687957082961" lon="12.618385485949025"><ele>213.4</ele><time>2026-04-27T10:58:19Z</time></trkpt><trkpt lat="42.93683913992163" lon="12.61825023946606"><ele>213.59999999999997</ele><time>2026-04-27T10:58:20Z</time></trkpt><trkpt lat="42.936797052927695" lon="12.618115125106618"><ele>213.79999999999998</ele><time>2026-04-27T10:58:21Z</time></trkpt><trkpt lat="42.93675382199829" lon="12.617976674083797"><ele>214.0</ele><time>2026-04-27T10:58:22Z</time></trkpt><trkpt lat="42.936712637200976" lon="12.617835010178446"><ele>214.0</ele><time>2026-04-27T10:58:23Z</time></trkpt><trkpt lat="42.93667156762708" lon="12.617696626856757"><ele>213.99999999999997</ele><time>2026-04-27T10:58:24Z</time></trkpt><trkpt lat="42.93662928441531" lon="12.617556229869638"><ele>213.99999999999997</ele><time>2026-04-27T10:58:25Z</time></trkpt><trkpt lat="42.936584680952414" lon="12.617414813925057"><ele>214.0</ele><time>2026-04-27T10:58:26Z</time></trkpt><trkpt lat="42.93653893170737" lon="12.61727003448493"><ele>214.0</ele><time>2026-04-27T10:58:27Z</time></trkpt><trkpt lat="42.936495258271634" lon="12.617125774939655"><ele>215.0</ele><time>2026-04-27T10:58:28Z</time></trkpt><trkpt lat="42.93644768663581" lon="12.616980145563891"><ele>216.0</ele><time>2026-04-27T10:58:29Z</time></trkpt><trkpt lat="42.93640152762227" lon="12.61683664964102"><ele>217.0</ele><time>2026-04-27T10:58:30Z</time></trkpt><trkpt lat="42.93635604790384" lon="12.616690097337147"><ele>218.0</ele><time>2026-04-27T10:58:31Z</time></trkpt><trkpt lat="42.93630948616947" lon="12.616545209597735"><ele>218.0</ele><time>2026-04-27T10:58:32Z</time></trkpt><trkpt lat="42.93626390594745" lon="12.616399049566967"><ele>218.0</ele><time>2026-04-27T10:58:33Z</time></trkpt><trkpt lat="42.9362185856176" lon="12.616254625146604"><ele>218.0</ele><time>2026-04-27T10:58:34Z</time></trkpt><trkpt lat="42.93617642277944" lon="12.616103992426321"><ele>218.0</ele><time>2026-04-27T10:58:35Z</time></trkpt><trkpt lat="42.93613369426242" lon="12.615954604102132"><ele>219.0</ele><time>2026-04-27T10:58:36Z</time></trkpt><trkpt lat="42.93609261208332" lon="12.615805289205598"><ele>220.0</ele><time>2026-04-27T10:58:37Z</time></trkpt><trkpt lat="42.93604934108312" lon="12.615652279923538"><ele>221.0</ele><time>2026-04-27T10:58:38Z</time></trkpt><trkpt lat="42.93600918045201" lon="12.61550059355641"><ele>222.0</ele><time>2026-04-27T10:58:39Z</time></trkpt><trkpt lat="42.93596309356244" lon="12.615353880142903"><ele>221.8</ele><time>2026-04-27T10:58:40Z</time></trkpt><trkpt lat="42.935922928223526" lon="12.615209616346771"><ele>221.6</ele><time>2026-04-27T10:58:41Z</time></trkpt><trkpt lat="42.935884596981175" lon="12.615066567653532"><ele>221.40000000000003</ele><time>2026-04-27T10:58:42Z</time></trkpt><trkpt lat="42.93584709171268" lon="12.614928787314659"><ele>221.20000000000002</ele><time>2026-04-27T10:58:43Z</time></trkpt><trkpt lat="42.935806288654724" lon="12.614794551627087"><ele>221.0</ele><time>2026-04-27T10:58:44Z</time></trkpt><trkpt lat="42.93577149372236" lon="12.614665772204093"><ele>220.83333333333334</ele><time>2026-04-27T10:58:45Z</time></trkpt><trkpt lat="42.93573718807086" lon="12.614540991895783"><ele>220.66666666666669</ele><time>2026-04-27T10:58:46Z</time></trkpt><trkpt lat="42.93570410965202" lon="12.614430891411505"><ele>220.5</ele><time>2026-04-27T10:58:47Z</time></trkpt><trkpt lat="42.93567433729281" lon="12.614329974457966"><ele>220.33333333333331</ele><time>2026-04-27T10:58:48Z</time></trkpt><trkpt lat="42.93564862014314" lon="12.614232911342198"><ele>220.16666666666666</ele><time>2026-04-27T10:58:49Z</time></trkpt><trkpt lat="42.935621848775945" lon="12.614105039881062"><ele>220.0</ele><time>2026-04-27T10:58:51Z</time></trkpt><trkpt lat="42.93563230446004" lon="12.614006715047074"><ele>219.99999999999997</ele><time>2026-04-27T10:58:53Z</time></trkpt><trkpt lat="42.935629361690175" lon="12.613905195133789"><ele>220.0</ele><time>2026-04-27T10:58:55Z</time></trkpt><trkpt lat="42.93560399562126" lon="12.613806009586003"><ele>220.0</ele><time>2026-04-27T10:58:57Z</time></trkpt><trkpt lat="42.935601599940114" lon="12.613688569180352"><ele>220.0</ele><time>2026-04-27T10:59:00Z</time></trkpt><trkpt lat="42.935546436941344" lon="12.61363999732315"><ele>219.99999999999997</ele><time>2026-04-27T11:02:19Z</time></trkpt><trkpt lat="42.93550580707907" lon="12.613743697386985"><ele>220.0</ele><time>2026-04-27T11:02:31.999Z</time></trkpt><trkpt lat="42.9355389655855" lon="12.613829055310397"><ele>219.75</ele><time>2026-04-27T11:02:32.999Z</time></trkpt><trkpt lat="42.935565463621316" lon="12.613924518501193"><ele>219.5</ele><time>2026-04-27T11:02:33.999Z</time></trkpt><trkpt lat="42.935596955626394" lon="12.614035502035813"><ele>219.25</ele><time>2026-04-27T11:02:34.999Z</time></trkpt><trkpt lat="42.93569910064361" lon="12.614230747882717"><ele>219.0</ele><time>2026-04-27T11:02:35.999Z</time></trkpt><trkpt lat="42.93567833013166" lon="12.614417801047885"><ele>219.25</ele><time>2026-04-27T11:02:36.999Z</time></trkpt><trkpt lat="42.935726174018306" lon="12.614580043173914"><ele>219.5</ele><time>2026-04-27T11:02:38Z</time></trkpt><trkpt lat="42.935777748190766" lon="12.614746779833728"><ele>219.75</ele><time>2026-04-27T11:02:39Z</time></trkpt><trkpt lat="42.93582880285126" lon="12.614918264458014"><ele>220.0</ele><time>2026-04-27T11:02:40Z</time></trkpt><trkpt lat="42.935880086240175" lon="12.615094378656435"><ele>220.25</ele><time>2026-04-27T11:02:41Z</time></trkpt><trkpt lat="42.935930755901374" lon="12.615275615615273"><ele>220.5</ele><time>2026-04-27T11:02:42Z</time></trkpt><trkpt lat="42.935980361483715" lon="12.615453038821938"><ele>220.75</ele><time>2026-04-27T11:02:43Z</time></trkpt><trkpt lat="42.93602818724387" lon="12.615609979116309"><ele>221.0</ele><time>2026-04-27T11:02:44Z</time></trkpt><trkpt lat="42.936065353506464" lon="12.615745779248213"><ele>221.20000000000002</ele><time>2026-04-27T11:02:45Z</time></trkpt><trkpt lat="42.936096769928106" lon="12.615861306352949"><ele>221.40000000000003</ele><time>2026-04-27T11:02:46Z</time></trkpt><trkpt lat="42.93612360666085" lon="12.615958069499492"><ele>221.6</ele><time>2026-04-27T11:02:47Z</time></trkpt><trkpt lat="42.93616261089618" lon="12.616102788967323"><ele>221.8</ele><time>2026-04-27T11:02:49Z</time></trkpt><trkpt lat="42.936194351040264" lon="12.616222466893552"><ele>222.0</ele><time>2026-04-27T11:02:51Z</time></trkpt><trkpt lat="42.93622327343088" lon="12.616323661061916"><ele>221.0</ele><time>2026-04-27T11:02:53Z</time></trkpt><trkpt lat="42.93627841693105" lon="12.616497935471259"><ele>220.0</ele><time>2026-04-27T11:02:55Z</time></trkpt><trkpt lat="42.936315848019554" lon="12.616615378980262"><ele>219.0</ele><time>2026-04-27T11:02:56Z</time></trkpt><trkpt lat="42.936357103025514" lon="12.616747125895948"><ele>218.0</ele><time>2026-04-27T11:02:57Z</time></trkpt><trkpt lat="42.9364054097326" lon="12.616903175016436"><ele>217.0</ele><time>2026-04-27T11:02:58Z</time></trkpt><trkpt lat="42.93645657711773" lon="12.617068321879362"><ele>216.0</ele><time>2026-04-27T11:02:59Z</time></trkpt><trkpt lat="42.93651239681106" lon="12.61724493273882"><ele>215.0</ele><time>2026-04-27T11:03:00Z</time></trkpt><trkpt lat="42.93657077038153" lon="12.617431987262947"><ele>214.0</ele><time>2026-04-27T11:03:01Z</time></trkpt><trkpt lat="42.936630859964815" lon="12.617630537051001"><ele>214.0</ele><time>2026-04-27T11:03:02Z</time></trkpt><trkpt lat="42.93669326328576" lon="12.617837715556453"><ele>214.0</ele><time>2026-04-27T11:03:03Z</time></trkpt><trkpt lat="42.93675945600179" lon="12.618052545773017"><ele>214.0</ele><time>2026-04-27T11:03:04Z</time></trkpt><trkpt lat="42.93683030281665" lon="12.618272289268843"><ele>214.0</ele><time>2026-04-27T11:03:05Z</time></trkpt><trkpt lat="42.9368993979522" lon="12.61849381936617"><ele>214.0</ele><time>2026-04-27T11:03:06Z</time></trkpt><trkpt lat="42.93696810729722" lon="12.618714936903634"><ele>214.0</ele><time>2026-04-27T11:03:07Z</time></trkpt><trkpt lat="42.937036181179465" lon="12.618936542814632"><ele>213.66666666666666</ele><time>2026-04-27T11:03:08Z</time></trkpt><trkpt lat="42.93710352844323" lon="12.619156483071537"><ele>213.33333333333331</ele><time>2026-04-27T11:03:09Z</time></trkpt><trkpt lat="42.93717034996204" lon="12.619374060777766"><ele>213.0</ele><time>2026-04-27T11:03:10Z</time></trkpt><trkpt lat="42.937236803798626" lon="12.619590728406267"><ele>212.33333333333331</ele><time>2026-04-27T11:03:11Z</time></trkpt><trkpt lat="42.93730519587912" lon="12.619805664218012"><ele>211.66666666666666</ele><time>2026-04-27T11:03:12Z</time></trkpt><trkpt lat="42.9373726858867" lon="12.62001840486436"><ele>211.0</ele><time>2026-04-27T11:03:13Z</time></trkpt><trkpt lat="42.937438868743776" lon="12.620230884330933"><ele>210.33333333333331</ele><time>2026-04-27T11:03:14Z</time></trkpt><trkpt lat="42.93750399809692" lon="12.620441116897556"><ele>209.66666666666669</ele><time>2026-04-27T11:03:15Z</time></trkpt><trkpt lat="42.93757187288002" lon="12.620654621846116"><ele>209.0</ele><time>2026-04-27T11:03:16Z</time></trkpt><trkpt lat="42.93763755931419" lon="12.620866670239334"><ele>211.33333333333334</ele><time>2026-04-27T11:03:17Z</time></trkpt><trkpt lat="42.93770517448393" lon="12.621079908248593"><ele>213.66666666666669</ele><time>2026-04-27T11:03:18Z</time></trkpt><trkpt lat="42.937770760168604" lon="12.621291933774133"><ele>216.0</ele><time>2026-04-27T11:03:19Z</time></trkpt><trkpt lat="42.93783746118836" lon="12.621503308061847"><ele>216.0</ele><time>2026-04-27T11:03:20Z</time></trkpt><trkpt lat="42.93790374592997" lon="12.621715561150445"><ele>216.0</ele><time>2026-04-27T11:03:21Z</time></trkpt><trkpt lat="42.93796771030414" lon="12.621920953245564"><ele>216.0</ele><time>2026-04-27T11:03:22Z</time></trkpt><trkpt lat="42.93803107592379" lon="12.622125885395679"><ele>214.33333333333331</ele><time>2026-04-27T11:03:23Z</time></trkpt><trkpt lat="42.93809293546207" lon="12.622330460048858"><ele>212.66666666666666</ele><time>2026-04-27T11:03:24Z</time></trkpt><trkpt lat="42.938155451272195" lon="12.622533019543042"><ele>211.0</ele><time>2026-04-27T11:03:25Z</time></trkpt><trkpt lat="42.93821708415076" lon="12.62273050163109"><ele>210.75</ele><time>2026-04-27T11:03:26Z</time></trkpt><trkpt lat="42.938275281986215" lon="12.622920000137043"><ele>210.5</ele><time>2026-04-27T11:03:27Z</time></trkpt><trkpt lat="42.938333219197034" lon="12.6230972147351"><ele>210.25</ele><time>2026-04-27T11:03:28Z</time></trkpt><trkpt lat="42.93839296291498" lon="12.623265358079294"><ele>210.0</ele><time>2026-04-27T11:03:29Z</time></trkpt><trkpt lat="42.93845482960982" lon="12.623421757311226"><ele>210.0</ele><time>2026-04-27T11:03:30Z</time></trkpt><trkpt lat="42.93851929915366" lon="12.623567119672305"><ele>210.0</ele><time>2026-04-27T11:03:31Z</time></trkpt><trkpt lat="42.93858134513348" lon="12.623703697890853"><ele>210.0</ele><time>2026-04-27T11:03:32Z</time></trkpt><trkpt lat="42.93863553080327" lon="12.623837962452896"><ele>210.0</ele><time>2026-04-27T11:03:33Z</time></trkpt><trkpt lat="42.93867869633608" lon="12.62396221423006"><ele>209.0</ele><time>2026-04-27T11:03:34Z</time></trkpt><trkpt lat="42.93870857104388" lon="12.624069070548057"><ele>208.0</ele><time>2026-04-27T11:03:35Z</time></trkpt><trkpt lat="42.938724955874925" lon="12.62416034320785"><ele>207.0</ele><time>2026-04-27T11:03:36Z</time></trkpt><trkpt lat="42.938728483782846" lon="12.624265099880713"><ele>206.0</ele><time>2026-04-27T11:03:37Z</time></trkpt><trkpt lat="42.93873602073941" lon="12.624386150252016"><ele>205.0</ele><time>2026-04-27T11:03:38Z</time></trkpt><trkpt lat="42.93873791119937" lon="12.624519751172741"><ele>204.0</ele><time>2026-04-27T11:03:39Z</time></trkpt><trkpt lat="42.93880321326057" lon="12.624642815940872"><ele>204.0</ele><time>2026-04-27T11:03:40Z</time></trkpt><trkpt lat="42.93885166784016" lon="12.624792836296859"><ele>204.0</ele><time>2026-04-27T11:03:41Z</time></trkpt><trkpt lat="42.9388971062001" lon="12.624966778393786"><ele>204.0</ele><time>2026-04-27T11:03:42Z</time></trkpt><trkpt lat="42.938947544817104" lon="12.62515243916821"><ele>204.0</ele><time>2026-04-27T11:03:43Z</time></trkpt><trkpt lat="42.93900531458903" lon="12.625344207419987"><ele>204.33333333333331</ele><time>2026-04-27T11:03:44Z</time></trkpt><trkpt lat="42.93906954435871" lon="12.625537164972457"><ele>204.66666666666666</ele><time>2026-04-27T11:03:45Z</time></trkpt><trkpt lat="42.93913620757535" lon="12.625732987662076"><ele>205.0</ele><time>2026-04-27T11:03:46Z</time></trkpt><trkpt lat="42.93920286922175" lon="12.625932209427898"><ele>205.0</ele><time>2026-04-27T11:03:47Z</time></trkpt><trkpt lat="42.93927047812057" lon="12.626134644303026"><ele>205.0</ele><time>2026-04-27T11:03:48Z</time></trkpt><trkpt lat="42.93933795719597" lon="12.626341440431634"><ele>205.0</ele><time>2026-04-27T11:03:49Z</time></trkpt><trkpt lat="42.93940363769905" lon="12.626552763417184"><ele>205.0</ele><time>2026-04-27T11:03:50Z</time></trkpt><trkpt lat="42.93946942003619" lon="12.626766371964697"><ele>205.0</ele><time>2026-04-27T11:03:51Z</time></trkpt><trkpt lat="42.939537054181294" lon="12.626981844450853"><ele>205.0</ele><time>2026-04-27T11:03:52Z</time></trkpt><trkpt lat="42.93960617056934" lon="12.627198380616802"><ele>205.0</ele><time>2026-04-27T11:03:53Z</time></trkpt><trkpt lat="42.93967556586582" lon="12.627417759211708"><ele>205.0</ele><time>2026-04-27T11:03:54Z</time></trkpt><trkpt lat="42.93974601792432" lon="12.627638120242434"><ele>205.0</ele><time>2026-04-27T11:03:55Z</time></trkpt><trkpt lat="42.939817999264584" lon="12.627858241665887"><ele>205.33333333333331</ele><time>2026-04-27T11:03:56Z</time></trkpt><trkpt lat="42.939889868555895" lon="12.62808100195702"><ele>205.66666666666669</ele><time>2026-04-27T11:03:57Z</time></trkpt><trkpt lat="42.93996418559589" lon="12.628301329290338"><ele>206.0</ele><time>2026-04-27T11:03:58Z</time></trkpt><trkpt lat="42.940044945308934" lon="12.628523769519031"><ele>205.0</ele><time>2026-04-27T11:03:59Z</time></trkpt><trkpt lat="42.94012808913485" lon="12.628754056824862"><ele>204.0</ele><time>2026-04-27T11:04:00Z</time></trkpt><trkpt lat="42.94021383871477" lon="12.628988265481436"><ele>203.0</ele><time>2026-04-27T11:04:01Z</time></trkpt><trkpt lat="42.9403014347643" lon="12.62922592234337"><ele>203.0</ele><time>2026-04-27T11:04:02Z</time></trkpt><trkpt lat="42.940389286564354" lon="12.629464586170489"><ele>203.0</ele><time>2026-04-27T11:04:03Z</time></trkpt><trkpt lat="42.94047842716939" lon="12.62970110177249"><ele>203.0</ele><time>2026-04-27T11:04:04Z</time></trkpt><trkpt lat="42.94056721315554" lon="12.629936553909005"><ele>203.33333333333334</ele><time>2026-04-27T11:04:05Z</time></trkpt><trkpt lat="42.940655365967146" lon="12.630174178692593"><ele>203.66666666666669</ele><time>2026-04-27T11:04:06Z</time></trkpt><trkpt lat="42.94074193210414" lon="12.630412682734304"><ele>204.0</ele><time>2026-04-27T11:04:07Z</time></trkpt><trkpt lat="42.940827982230765" lon="12.63064921522943"><ele>204.0</ele><time>2026-04-27T11:04:08Z</time></trkpt><trkpt lat="42.940915342425775" lon="12.630884240885447"><ele>204.0</ele><time>2026-04-27T11:04:09Z</time></trkpt><trkpt lat="42.94100354844872" lon="12.631118937031923"><ele>204.0</ele><time>2026-04-27T11:04:10Z</time></trkpt><trkpt lat="42.94109081691127" lon="12.63135094868325"><ele>204.33333333333331</ele><time>2026-04-27T11:04:11Z</time></trkpt><trkpt lat="42.94117843708931" lon="12.631585333092827"><ele>204.66666666666666</ele><time>2026-04-27T11:04:12Z</time></trkpt><trkpt lat="42.94126609838883" lon="12.631820495431718"><ele>205.0</ele><time>2026-04-27T11:04:13Z</time></trkpt><trkpt lat="42.94135389571445" lon="12.632058457276402"><ele>205.0</ele><time>2026-04-27T11:04:14Z</time></trkpt><trkpt lat="42.941440857981334" lon="12.63229873523357"><ele>205.0</ele><time>2026-04-27T11:04:14.999Z</time></trkpt><trkpt lat="42.94152771469383" lon="12.632541898211409"><ele>205.0</ele><time>2026-04-27T11:04:15.999Z</time></trkpt><trkpt lat="42.94161612017213" lon="12.632785935998587"><ele>205.0</ele><time>2026-04-27T11:04:16.999Z</time></trkpt><trkpt lat="42.941706530744035" lon="12.63303130817728"><ele>205.0</ele><time>2026-04-27T11:04:17.999Z</time></trkpt><trkpt lat="42.94179728387677" lon="12.633277332867484"><ele>205.0</ele><time>2026-04-27T11:04:18.999Z</time></trkpt><trkpt lat="42.9418872035325" lon="12.633525065725147"><ele>205.33333333333331</ele><time>2026-04-27T11:04:19.999Z</time></trkpt><trkpt lat="42.94197873157125" lon="12.633772500961788"><ele>205.66666666666669</ele><time>2026-04-27T11:04:20.999Z</time></trkpt><trkpt lat="42.942070946348196" lon="12.634020769908176"><ele>206.0</ele><time>2026-04-27T11:04:21.999Z</time></trkpt><trkpt lat="42.9421625147799" lon="12.634269940080575"><ele>206.0</ele><time>2026-04-27T11:04:22.999Z</time></trkpt><trkpt lat="42.94225479681493" lon="12.634519650270056"><ele>206.0</ele><time>2026-04-27T11:04:23.999Z</time></trkpt><trkpt lat="42.94234745409793" lon="12.634770079158606"><ele>206.0</ele><time>2026-04-27T11:04:24.999Z</time></trkpt><trkpt lat="42.94243976329606" lon="12.635022488049758"><ele>206.0</ele><time>2026-04-27T11:04:25.999Z</time></trkpt><trkpt lat="42.94253137795924" lon="12.635268545040818"><ele>206.0</ele><time>2026-04-27T11:04:26.999Z</time></trkpt><trkpt lat="42.942618922532574" lon="12.635510388490694"><ele>206.0</ele><time>2026-04-27T11:04:27.999Z</time></trkpt><trkpt lat="42.94270568550511" lon="12.63574935832556"><ele>206.66666666666669</ele><time>2026-04-27T11:04:28.999Z</time></trkpt><trkpt lat="42.94279077609496" lon="12.635985466978415"><ele>207.33333333333331</ele><time>2026-04-27T11:04:29.999Z</time></trkpt><trkpt lat="42.942876112202285" lon="12.636217131154561"><ele>208.0</ele><time>2026-04-27T11:04:30.999Z</time></trkpt><trkpt lat="42.94296004802512" lon="12.63644571442869"><ele>208.0</ele><time>2026-04-27T11:04:31.999Z</time></trkpt><trkpt lat="42.943042111372634" lon="12.636670569135216"><ele>208.0</ele><time>2026-04-27T11:04:32.999Z</time></trkpt><trkpt lat="42.94312317669782" lon="12.636893313040895"><ele>208.0</ele><time>2026-04-27T11:04:33.999Z</time></trkpt><trkpt lat="42.94320261780429" lon="12.637113984431458"><ele>208.0</ele><time>2026-04-27T11:04:34.999Z</time></trkpt><trkpt lat="42.94328082366162" lon="12.637332036161654"><ele>208.0</ele><time>2026-04-27T11:04:35.999Z</time></trkpt><trkpt lat="42.943358642543124" lon="12.63754635259301"><ele>208.0</ele><time>2026-04-27T11:04:36.999Z</time></trkpt><trkpt lat="42.943434076097155" lon="12.63774939408613"><ele>207.66666666666666</ele><time>2026-04-27T11:04:37.999Z</time></trkpt><trkpt lat="42.94350994056442" lon="12.637945409613396"><ele>207.33333333333331</ele><time>2026-04-27T11:04:38.999Z</time></trkpt><trkpt lat="42.94358907871167" lon="12.638129545406143"><ele>207.0</ele><time>2026-04-27T11:04:39.999Z</time></trkpt><trkpt lat="42.94367773397419" lon="12.638296579556993"><ele>207.0</ele><time>2026-04-27T11:04:40.999Z</time></trkpt><trkpt lat="42.943778434474474" lon="12.638447331567738"><ele>207.0</ele><time>2026-04-27T11:04:41.999Z</time></trkpt><trkpt lat="42.94388376225848" lon="12.63858344491639"><ele>207.0</ele><time>2026-04-27T11:04:42.999Z</time></trkpt><trkpt lat="42.9439936353997" lon="12.638715490723309"><ele>207.0</ele><time>2026-04-27T11:04:44Z</time></trkpt><trkpt lat="42.9441005322117" lon="12.638852163343753"><ele>207.0</ele><time>2026-04-27T11:04:45Z</time></trkpt><trkpt lat="42.944209507480984" lon="12.638996485473411"><ele>207.0</ele><time>2026-04-27T11:04:46Z</time></trkpt><trkpt lat="42.94431435812431" lon="12.63915468493484"><ele>207.0</ele><time>2026-04-27T11:04:47Z</time></trkpt><trkpt lat="42.944410316120475" lon="12.639330015705946"><ele>206.33333333333331</ele><time>2026-04-27T11:04:48Z</time></trkpt><trkpt lat="42.94449922253637" lon="12.639519967227312"><ele>205.66666666666666</ele><time>2026-04-27T11:04:49Z</time></trkpt><trkpt lat="42.94458162642845" lon="12.639716582660768"><ele>205.0</ele><time>2026-04-27T11:04:50Z</time></trkpt><trkpt lat="42.94466343865626" lon="12.639918834956966"><ele>205.0</ele><time>2026-04-27T11:04:51Z</time></trkpt><trkpt lat="42.94474461107104" lon="12.64012427930506"><ele>205.0</ele><time>2026-04-27T11:04:52Z</time></trkpt><trkpt lat="42.94482712511847" lon="12.640327186187811"><ele>205.0</ele><time>2026-04-27T11:04:53Z</time></trkpt><trkpt lat="42.944908473732696" lon="12.640532339847267"><ele>205.0</ele><time>2026-04-27T11:04:54Z</time></trkpt><trkpt lat="42.94499263368735" lon="12.640735772165764"><ele>205.0</ele><time>2026-04-27T11:04:55Z</time></trkpt><trkpt lat="42.94507532063915" lon="12.640939405601976"><ele>205.0</ele><time>2026-04-27T11:04:56Z</time></trkpt><trkpt lat="42.94515477350207" lon="12.641144970492977"><ele>204.66666666666666</ele><time>2026-04-27T11:04:57Z</time></trkpt><trkpt lat="42.945232765066066" lon="12.641350787408253"><ele>204.33333333333331</ele><time>2026-04-27T11:04:58Z</time></trkpt><trkpt lat="42.94531402482944" lon="12.64155444868198"><ele>204.0</ele><time>2026-04-27T11:04:59Z</time></trkpt><trkpt lat="42.94539678369874" lon="12.641759954446176"><ele>204.0</ele><time>2026-04-27T11:05:00Z</time></trkpt><trkpt lat="42.94548081517882" lon="12.641962664435"><ele>204.0</ele><time>2026-04-27T11:05:01Z</time></trkpt><trkpt lat="42.94556548989466" lon="12.642168489178344"><ele>204.0</ele><time>2026-04-27T11:05:02Z</time></trkpt><trkpt lat="42.945649249984925" lon="12.642372777784306"><ele>204.33333333333331</ele><time>2026-04-27T11:05:03Z</time></trkpt><trkpt lat="42.94573307768858" lon="12.64257850359895"><ele>204.66666666666666</ele><time>2026-04-27T11:05:04Z</time></trkpt><trkpt lat="42.94581556790671" lon="12.642785543848527"><ele>205.0</ele><time>2026-04-27T11:05:05Z</time></trkpt><trkpt lat="42.94589838590448" lon="12.642993657841123"><ele>205.0</ele><time>2026-04-27T11:05:06Z</time></trkpt><trkpt lat="42.94598139543257" lon="12.643202249822913"><ele>205.0</ele><time>2026-04-27T11:05:07Z</time></trkpt><trkpt lat="42.94606394256529" lon="12.643412373993053"><ele>205.0</ele><time>2026-04-27T11:05:08Z</time></trkpt><trkpt lat="42.946147786172894" lon="12.643623169204147"><ele>205.33333333333331</ele><time>2026-04-27T11:05:09Z</time></trkpt><trkpt lat="42.946232609112776" lon="12.643832344886913"><ele>205.66666666666669</ele><time>2026-04-27T11:05:10Z</time></trkpt><trkpt lat="42.946319710932706" lon="12.64404043362291"><ele>206.0</ele><time>2026-04-27T11:05:11Z</time></trkpt><trkpt lat="42.94640580665291" lon="12.644247859169301"><ele>206.0</ele><time>2026-04-27T11:05:12Z</time></trkpt><trkpt lat="42.94648994235371" lon="12.644455538790886"><ele>206.0</ele><time>2026-04-27T11:05:13Z</time></trkpt><trkpt lat="42.946573436992196" lon="12.644664955991345"><ele>206.0</ele><time>2026-04-27T11:05:14Z</time></trkpt><trkpt lat="42.9466555190229" lon="12.644876643082043"><ele>206.0</ele><time>2026-04-27T11:05:15Z</time></trkpt><trkpt lat="42.94673914179958" lon="12.645088557177449"><ele>206.0</ele><time>2026-04-27T11:05:16Z</time></trkpt><trkpt lat="42.94682453827404" lon="12.645301569473634"><ele>206.0</ele><time>2026-04-27T11:05:17Z</time></trkpt><trkpt lat="42.94691058581108" lon="12.645514579068097"><ele>206.33333333333334</ele><time>2026-04-27T11:05:18Z</time></trkpt><trkpt lat="42.94699717590652" lon="12.645730469036867"><ele>206.66666666666669</ele><time>2026-04-27T11:05:19Z</time></trkpt><trkpt lat="42.94708296102046" lon="12.64594490592339"><ele>207.0</ele><time>2026-04-27T11:05:20Z</time></trkpt><trkpt lat="42.947169394871175" lon="12.646158976335624"><ele>207.0</ele><time>2026-04-27T11:05:21Z</time></trkpt><trkpt lat="42.947255121785766" lon="12.646370620075482"><ele>207.0</ele><time>2026-04-27T11:05:22Z</time></trkpt><trkpt lat="42.94734030060108" lon="12.646581238066437"><ele>207.0</ele><time>2026-04-27T11:05:23Z</time></trkpt><trkpt lat="42.947423967240255" lon="12.646787942186252"><ele>206.66666666666669</ele><time>2026-04-27T11:05:24Z</time></trkpt><trkpt lat="42.947507629197574" lon="12.646995265672624"><ele>206.33333333333334</ele><time>2026-04-27T11:05:25Z</time></trkpt><trkpt lat="42.947592558726214" lon="12.64720339553607"><ele>206.0</ele><time>2026-04-27T11:05:26Z</time></trkpt><trkpt lat="42.9476773825554" lon="12.647414450835077"><ele>206.0</ele><time>2026-04-27T11:05:27Z</time></trkpt><trkpt lat="42.947762820805366" lon="12.647627899090445"><ele>206.0</ele><time>2026-04-27T11:05:28Z</time></trkpt><trkpt lat="42.94784807751901" lon="12.647841017109807"><ele>206.0</ele><time>2026-04-27T11:05:29Z</time></trkpt><trkpt lat="42.94793364353859" lon="12.648054794854849"><ele>206.33333333333334</ele><time>2026-04-27T11:05:30Z</time></trkpt><trkpt lat="42.94802010938761" lon="12.648267395240415"><ele>206.66666666666669</ele><time>2026-04-27T11:05:31Z</time></trkpt><trkpt lat="42.9481070299579" lon="12.648479658954143"><ele>207.0</ele><time>2026-04-27T11:05:32Z</time></trkpt><trkpt lat="42.94819446443064" lon="12.648693177054204"><ele>207.0</ele><time>2026-04-27T11:05:33Z</time></trkpt><trkpt lat="42.94828017297955" lon="12.64890540965301"><ele>207.0</ele><time>2026-04-27T11:05:34Z</time></trkpt><trkpt lat="42.94836433180258" lon="12.649117043483022"><ele>207.0</ele><time>2026-04-27T11:05:35Z</time></trkpt><trkpt lat="42.94844909368006" lon="12.649329038285451"><ele>206.66666666666669</ele><time>2026-04-27T11:05:36Z</time></trkpt><trkpt lat="42.94853441505799" lon="12.649541588414277"><ele>206.33333333333334</ele><time>2026-04-27T11:05:37Z</time></trkpt><trkpt lat="42.94861996511168" lon="12.649753589487224"><ele>206.0</ele><time>2026-04-27T11:05:38Z</time></trkpt><trkpt lat="42.948704873088374" lon="12.649965504737436"><ele>206.0</ele><time>2026-04-27T11:05:39Z</time></trkpt><trkpt lat="42.94878936809975" lon="12.650178510125741"><ele>206.0</ele><time>2026-04-27T11:05:40Z</time></trkpt><trkpt lat="42.94887434516656" lon="12.650389813388482"><ele>206.0</ele><time>2026-04-27T11:05:41Z</time></trkpt><trkpt lat="42.94895858036471" lon="12.650601269791977"><ele>206.0</ele><time>2026-04-27T11:05:42Z</time></trkpt><trkpt lat="42.94640580665291" lon="12.644247859169301"><ele>206.0</ele><time>2026-04-27T11:05:12Z</time></trkpt><trkpt lat="42.94648994235371" lon="12.644455538790886"><ele>206.0</ele><time>2026-04-27T11:05:13Z</time></trkpt><trkpt lat="42.946573436992196" lon="12.644664955991345"><ele>206.0</ele><time>2026-04-27T11:05:14Z</time></trkpt><trkpt lat="42.9466555190229" lon="12.644876643082043"><ele>206.0</ele><time>2026-04-27T11:05:15Z</time></trkpt><trkpt lat="42.94673914179958" lon="12.645088557177449"><ele>206.0</ele><time>2026-04-27T11:05:16Z</time></trkpt><trkpt lat="42.94682453827404" lon="12.645301569473634"><ele>206.0</ele><time>2026-04-27T11:05:17Z</time></trkpt><trkpt lat="42.94691058581108" lon="12.645514579068097"><ele>206.33333333333334</ele><time>2026-04-27T11:05:18Z</time></trkpt><trkpt lat="42.94699717590652" lon="12.645730469036867"><ele>206.66666666666669</ele><time>2026-04-27T11:05:19Z</time></trkpt><trkpt lat="42.94708296102046" lon="12.64594490592339"><ele>207.0</ele><time>2026-04-27T11:05:20Z</time></trkpt><trkpt lat="42.947169394871175" lon="12.646158976335624"><ele>207.0</ele><time>2026-04-27T11:05:21Z</time></trkpt><trkpt lat="42.947255121785766" lon="12.646370620075482"><ele>207.0</ele><time>2026-04-27T11:05:22Z</time></trkpt><trkpt lat="42.94734030060108" lon="12.646581238066437"><ele>207.0</ele><time>2026-04-27T11:05:23Z</time></trkpt><trkpt lat="42.947423967240255" lon="12.646787942186252"><ele>206.66666666666669</ele><time>2026-04-27T11:05:24Z</time></trkpt><trkpt lat="42.947507629197574" lon="12.646995265672624"><ele>206.33333333333334</ele><time>2026-04-27T11:05:25Z</time></trkpt><trkpt lat="42.947592558726214" lon="12.64720339553607"><ele>206.0</ele><time>2026-04-27T11:05:26Z</time></trkpt><trkpt lat="42.9476773825554" lon="12.647414450835077"><ele>206.0</ele><time>2026-04-27T11:05:27Z</time></trkpt><trkpt lat="42.947762820805366" lon="12.647627899090445"><ele>206.0</ele><time>2026-04-27T11:05:28Z</time></trkpt><trkpt lat="42.94784807751901" lon="12.647841017109807"><ele>206.0</ele><time>2026-04-27T11:05:29Z</time></trkpt><trkpt lat="42.94793364353859" lon="12.648054794854849"><ele>206.33333333333334</ele><time>2026-04-27T11:05:30Z</time></trkpt><trkpt lat="42.94802010938761" lon="12.648267395240415"><ele>206.66666666666669</ele><time>2026-04-27T11:05:31Z</time></trkpt><trkpt lat="42.9481070299579" lon="12.648479658954143"><ele>207.0</ele><time>2026-04-27T11:05:32Z</time></trkpt><trkpt lat="42.94819446443064" lon="12.648693177054204"><ele>207.0</ele><time>2026-04-27T11:05:33Z</time></trkpt><trkpt lat="42.94828017297955" lon="12.64890540965301"><ele>207.0</ele><time>2026-04-27T11:05:34Z</time></trkpt><trkpt lat="42.94836433180258" lon="12.649117043483022"><ele>207.0</ele><time>2026-04-27T11:05:35Z</time></trkpt><trkpt lat="42.94844909368006" lon="12.649329038285451"><ele>206.66666666666669</ele><time>2026-04-27T11:05:36Z</time></trkpt><trkpt lat="42.94853441505799" lon="12.649541588414277"><ele>206.33333333333334</ele><time>2026-04-27T11:05:37Z</time></trkpt><trkpt lat="42.94861996511168" lon="12.649753589487224"><ele>206.0</ele><time>2026-04-27T11:05:38Z</time></trkpt><trkpt lat="42.948704873088374" lon="12.649965504737436"><ele>206.0</ele><time>2026-04-27T11:05:39Z</time></trkpt><trkpt lat="42.94878936809975" lon="12.650178510125741"><ele>206.0</ele><time>2026-04-27T11:05:40Z</time></trkpt><trkpt lat="42.94887434516656" lon="12.650389813388482"><ele>206.0</ele><time>2026-04-27T11:05:41Z</time></trkpt><trkpt lat="42.94895858036471" lon="12.650601269791977"><ele>206.33333333333334</ele><time>2026-04-27T11:05:42Z</time></trkpt><trkpt lat="42.94904333136655" lon="12.650812933698845"><ele>206.66666666666669</ele><time>2026-04-27T11:05:43Z</time></trkpt><trkpt lat="42.9491279668737" lon="12.651023643194959"><ele>207.0</ele><time>2026-04-27T11:05:44Z</time></trkpt><trkpt lat="42.949212832527564" lon="12.65123394021368"><ele>207.0</ele><time>2026-04-27T11:05:45Z</time></trkpt><trkpt lat="42.9492972378939" lon="12.65144404771172"><ele>207.0</ele><time>2026-04-27T11:05:46Z</time></trkpt><trkpt lat="42.949382216367134" lon="12.65165482052288"><ele>207.0</ele><time>2026-04-27T11:05:47Z</time></trkpt><trkpt lat="42.949467644502846" lon="12.651865278567477"><ele>207.0</ele><time>2026-04-27T11:05:48Z</time></trkpt><trkpt lat="42.94955144102271" lon="12.652074421222174"><ele>207.0</ele><time>2026-04-27T11:05:49Z</time></trkpt><trkpt lat="42.949635464025874" lon="12.652283137654171"><ele>207.0</ele><time>2026-04-27T11:05:50Z</time></trkpt><trkpt lat="42.9497193321166" lon="12.652492259691968"><ele>207.0</ele><time>2026-04-27T11:05:51Z</time></trkpt><trkpt lat="42.94980321445561" lon="12.652702275541216"><ele>207.0</ele><time>2026-04-27T11:05:52Z</time></trkpt><trkpt lat="42.94988735421738" lon="12.652912621233993"><ele>207.0</ele><time>2026-04-27T11:05:53Z</time></trkpt><trkpt lat="42.94997280184534" lon="12.653122724757294"><ele>207.0</ele><time>2026-04-27T11:05:54Z</time></trkpt><trkpt lat="42.95005802836565" lon="12.653332692866822"><ele>207.0</ele><time>2026-04-27T11:05:55Z</time></trkpt><trkpt lat="42.9501419663372" lon="12.65354150621175"><ele>207.0</ele><time>2026-04-27T11:05:56Z</time></trkpt><trkpt lat="42.95022646547311" lon="12.65375055653644"><ele>207.0</ele><time>2026-04-27T11:05:57Z</time></trkpt><trkpt lat="42.95031134562885" lon="12.653957413567847"><ele>207.0</ele><time>2026-04-27T11:05:58Z</time></trkpt><trkpt lat="42.95039470889154" lon="12.654168114456894"><ele>207.0</ele><time>2026-04-27T11:05:59Z</time></trkpt><trkpt lat="42.95047872575515" lon="12.654376793794595"><ele>207.33333333333331</ele><time>2026-04-27T11:06:00Z</time></trkpt><trkpt lat="42.950562933579555" lon="12.654584872085376"><ele>207.66666666666666</ele><time>2026-04-27T11:06:01Z</time></trkpt><trkpt lat="42.95064801399697" lon="12.654793650031419"><ele>208.0</ele><time>2026-04-27T11:06:02Z</time></trkpt><trkpt lat="42.95073119992174" lon="12.655001963325887"><ele>208.0</ele><time>2026-04-27T11:06:03Z</time></trkpt><trkpt lat="42.95081286920647" lon="12.655205551040288"><ele>208.0</ele><time>2026-04-27T11:06:04Z</time></trkpt><trkpt lat="42.9508926887835" lon="12.655401961178919"><ele>208.0</ele><time>2026-04-27T11:06:05Z</time></trkpt><trkpt lat="42.950970061673964" lon="12.655593591406081"><ele>208.33333333333331</ele><time>2026-04-27T11:06:06Z</time></trkpt><trkpt lat="42.95104676124853" lon="12.655787593738985"><ele>208.66666666666669</ele><time>2026-04-27T11:06:07Z</time></trkpt><trkpt lat="42.95112425508974" lon="12.655983081950515"><ele>209.0</ele><time>2026-04-27T11:06:08Z</time></trkpt><trkpt lat="42.951202050074016" lon="12.656177623654278"><ele>209.33333333333334</ele><time>2026-04-27T11:06:09Z</time></trkpt><trkpt lat="42.95128217460952" lon="12.656373514285201"><ele>209.66666666666669</ele><time>2026-04-27T11:06:10Z</time></trkpt><trkpt lat="42.95136215345884" lon="12.656573215846127"><ele>210.0</ele><time>2026-04-27T11:06:11Z</time></trkpt><trkpt lat="42.951442292964906" lon="12.65676948360183"><ele>210.66666666666669</ele><time>2026-04-27T11:06:12Z</time></trkpt><trkpt lat="42.95152110180508" lon="12.656965674358837"><ele>211.33333333333334</ele><time>2026-04-27T11:06:13Z</time></trkpt><trkpt lat="42.95160051596563" lon="12.657164367715893"><ele>212.0</ele><time>2026-04-27T11:06:14Z</time></trkpt><trkpt lat="42.95168015387767" lon="12.657361158863235"><ele>211.33333333333334</ele><time>2026-04-27T11:06:15Z</time></trkpt><trkpt lat="42.95176002900849" lon="12.65755821736485"><ele>210.66666666666669</ele><time>2026-04-27T11:06:16Z</time></trkpt><trkpt lat="42.951839406775335" lon="12.657758371245745"><ele>210.0</ele><time>2026-04-27T11:06:17Z</time></trkpt><trkpt lat="42.9519187369311" lon="12.657957722212803"><ele>210.0</ele><time>2026-04-27T11:06:18Z</time></trkpt><trkpt lat="42.95199822362037" lon="12.658157831969794"><ele>210.0</ele><time>2026-04-27T11:06:19Z</time></trkpt><trkpt lat="42.952078265964275" lon="12.658356133503567"><ele>210.0</ele><time>2026-04-27T11:06:20Z</time></trkpt><trkpt lat="42.952158212003326" lon="12.658553068347802"><ele>210.66666666666669</ele><time>2026-04-27T11:06:21Z</time></trkpt><trkpt lat="42.95223884651189" lon="12.658750999160523"><ele>211.33333333333334</ele><time>2026-04-27T11:06:22Z</time></trkpt><trkpt lat="42.952317809051905" lon="12.658945645489524"><ele>212.0</ele><time>2026-04-27T11:06:23Z</time></trkpt><trkpt lat="42.952394824345056" lon="12.659136273561327"><ele>212.0</ele><time>2026-04-27T11:06:24Z</time></trkpt><trkpt lat="42.95247099072236" lon="12.659327178560831"><ele>212.0</ele><time>2026-04-27T11:06:25Z</time></trkpt><trkpt lat="42.952548577285484" lon="12.65951378665118"><ele>212.0</ele><time>2026-04-27T11:06:25.999Z</time></trkpt><trkpt lat="42.952623467188296" lon="12.659698880384333"><ele>212.0</ele><time>2026-04-27T11:06:26.999Z</time></trkpt><trkpt lat="42.95269647540643" lon="12.659879550037557"><ele>212.0</ele><time>2026-04-27T11:06:27.999Z</time></trkpt><trkpt lat="42.95276791098482" lon="12.66005712968378"><ele>212.0</ele><time>2026-04-27T11:06:28.999Z</time></trkpt><trkpt lat="42.952840018260275" lon="12.660235952054984"><ele>212.0</ele><time>2026-04-27T11:06:29.999Z</time></trkpt><trkpt lat="42.95291084162048" lon="12.66041373180049"><ele>212.5</ele><time>2026-04-27T11:06:30.999Z</time></trkpt><trkpt lat="42.95298115780034" lon="12.660590499491668"><ele>213.0</ele><time>2026-04-27T11:06:31.999Z</time></trkpt><trkpt lat="42.953046916237426" lon="12.660766411670867"><ele>213.5</ele><time>2026-04-27T11:06:32.999Z</time></trkpt><trkpt lat="42.95311134894715" lon="12.660937471291764"><ele>214.0</ele><time>2026-04-27T11:06:33.999Z</time></trkpt><trkpt lat="42.95317000310509" lon="12.661101702419462"><ele>214.0</ele><time>2026-04-27T11:06:34.999Z</time></trkpt><trkpt lat="42.95322123754685" lon="12.661259106102108"><ele>214.0</ele><time>2026-04-27T11:06:35.999Z</time></trkpt><trkpt lat="42.95326732415813" lon="12.661410816813053"><ele>214.0</ele><time>2026-04-27T11:06:36.999Z</time></trkpt><trkpt lat="42.9533091525424" lon="12.661561132487394"><ele>214.0</ele><time>2026-04-27T11:06:37.999Z</time></trkpt><trkpt lat="42.953348902531296" lon="12.6617115931308"><ele>213.75</ele><time>2026-04-27T11:06:38.999Z</time></trkpt><trkpt lat="42.95338635823528" lon="12.661867863959108"><ele>213.5</ele><time>2026-04-27T11:06:39.999Z</time></trkpt><trkpt lat="42.953425528484" lon="12.662022985461855"><ele>213.25</ele><time>2026-04-27T11:06:40.999Z</time></trkpt><trkpt lat="42.953463481836955" lon="12.66217243141608"><ele>213.0</ele><time>2026-04-27T11:06:41.999Z</time></trkpt><trkpt lat="42.95349969974704" lon="12.662315961191737"><ele>212.75</ele><time>2026-04-27T11:06:42.999Z</time></trkpt><trkpt lat="42.95353640954469" lon="12.662461178020159"><ele>212.5</ele><time>2026-04-27T11:06:43.999Z</time></trkpt><trkpt lat="42.9535740099401" lon="12.66260742399245"><ele>212.25</ele><time>2026-04-27T11:06:44.999Z</time></trkpt><trkpt lat="42.95361259990502" lon="12.66275380755807"><ele>212.0</ele><time>2026-04-27T11:06:45.999Z</time></trkpt><trkpt lat="42.953650717772746" lon="12.662902250499954"><ele>212.5</ele><time>2026-04-27T11:06:46.999Z</time></trkpt><trkpt lat="42.9536892635414" lon="12.663056849220853"><ele>213.0</ele><time>2026-04-27T11:06:47.999Z</time></trkpt><trkpt lat="42.953727603062056" lon="12.663213925857953"><ele>213.5</ele><time>2026-04-27T11:06:49Z</time></trkpt><trkpt lat="42.95376792661663" lon="12.663372879032911"><ele>214.0</ele><time>2026-04-27T11:06:50Z</time></trkpt><trkpt lat="42.95380789213286" lon="12.663534615932036"><ele>214.25</ele><time>2026-04-27T11:06:51Z</time></trkpt><trkpt lat="42.953851411193085" lon="12.663695550566567"><ele>214.5</ele><time>2026-04-27T11:06:52Z</time></trkpt><trkpt lat="42.95389684311476" lon="12.663857648714178"><ele>214.75</ele><time>2026-04-27T11:06:53Z</time></trkpt><trkpt lat="42.953946512591216" lon="12.664017331849374"><ele>215.0</ele><time>2026-04-27T11:06:54Z</time></trkpt><trkpt lat="42.95400271184379" lon="12.664176904994317"><ele>215.0</ele><time>2026-04-27T11:06:55Z</time></trkpt><trkpt lat="42.954066047738145" lon="12.664333310637867"><ele>215.0</ele><time>2026-04-27T11:06:56Z</time></trkpt><trkpt lat="42.9541342176709" lon="12.664489042364252"><ele>215.0</ele><time>2026-04-27T11:06:57Z</time></trkpt><trkpt lat="42.954207162098946" lon="12.664641287619224"><ele>215.0</ele><time>2026-04-27T11:06:58Z</time></trkpt><trkpt lat="42.9542791975497" lon="12.664797116058358"><ele>215.25</ele><time>2026-04-27T11:06:59Z</time></trkpt><trkpt lat="42.95434854187646" lon="12.664973571402973"><ele>215.5</ele><time>2026-04-27T11:07:00Z</time></trkpt><trkpt lat="42.95442192261314" lon="12.665123932795016"><ele>215.75</ele><time>2026-04-27T11:07:01Z</time></trkpt><trkpt lat="42.954500233475656" lon="12.665285597996071"><ele>216.0</ele><time>2026-04-27T11:07:02Z</time></trkpt><trkpt lat="42.95457655510918" lon="12.665426113504596"><ele>216.0</ele><time>2026-04-27T11:07:03Z</time></trkpt><trkpt lat="42.95465986351531" lon="12.665559549389723"><ele>216.0</ele><time>2026-04-27T11:07:04Z</time></trkpt><trkpt lat="42.954754627664016" lon="12.665698264441042"><ele>216.0</ele><time>2026-04-27T11:07:05Z</time></trkpt><trkpt lat="42.95485012634351" lon="12.665831147706355"><ele>216.0</ele><time>2026-04-27T11:07:06Z</time></trkpt><trkpt lat="42.95494858108335" lon="12.665964702157064"><ele>215.75</ele><time>2026-04-27T11:07:07Z</time></trkpt><trkpt lat="42.95504607379353" lon="12.666102696278404"><ele>215.5</ele><time>2026-04-27T11:07:08Z</time></trkpt><trkpt lat="42.95514138636515" lon="12.666234771083284"><ele>215.25</ele><time>2026-04-27T11:07:09Z</time></trkpt><trkpt lat="42.95524133834391" lon="12.666374823999348"><ele>215.0</ele><time>2026-04-27T11:07:10Z</time></trkpt><trkpt lat="42.9553361498233" lon="12.666504079487764"><ele>214.75</ele><time>2026-04-27T11:07:11Z</time></trkpt><trkpt lat="42.9554220390982" lon="12.66664824033266"><ele>214.5</ele><time>2026-04-27T11:07:12Z</time></trkpt><trkpt lat="42.95549762985938" lon="12.666791153093607"><ele>214.25</ele><time>2026-04-27T11:07:13Z</time></trkpt><trkpt lat="42.955554248119846" lon="12.666966165773184"><ele>214.0</ele><time>2026-04-27T11:07:14Z</time></trkpt><trkpt lat="42.95562791125066" lon="12.667112592932893"><ele>214.0</ele><time>2026-04-27T11:07:15Z</time></trkpt><trkpt lat="42.955694598805955" lon="12.667264634574487"><ele>214.0</ele><time>2026-04-27T11:07:16Z</time></trkpt><trkpt lat="42.955751528630394" lon="12.667430550875567"><ele>214.0</ele><time>2026-04-27T11:07:17Z</time></trkpt><trkpt lat="42.95581892932414" lon="12.667591184432025"><ele>214.0</ele><time>2026-04-27T11:07:18Z</time></trkpt><trkpt lat="42.95588323674802" lon="12.66774498262883"><ele>214.0</ele><time>2026-04-27T11:07:19Z</time></trkpt><trkpt lat="42.9559495517613" lon="12.667903845039822"><ele>214.0</ele><time>2026-04-27T11:07:20Z</time></trkpt><trkpt lat="42.95601482852256" lon="12.668060800977434"><ele>214.0</ele><time>2026-04-27T11:07:21Z</time></trkpt><trkpt lat="42.95608019799271" lon="12.66821593593937"><ele>214.0</ele><time>2026-04-27T11:07:22Z</time></trkpt><trkpt lat="42.95616013314094" lon="12.668400763682985"><ele>214.0</ele><time>2026-04-27T11:07:23Z</time></trkpt><trkpt lat="42.95622519124029" lon="12.66856111654933"><ele>214.0</ele><time>2026-04-27T11:07:24Z</time></trkpt><trkpt lat="42.95629629818795" lon="12.6687194613878"><ele>214.0</ele><time>2026-04-27T11:07:25Z</time></trkpt><trkpt lat="42.95636272489152" lon="12.66888581663145"><ele>214.0</ele><time>2026-04-27T11:07:26Z</time></trkpt><trkpt lat="42.95643491190183" lon="12.669050870097827"><ele>214.75</ele><time>2026-04-27T11:07:27Z</time></trkpt><trkpt lat="42.95650628472163" lon="12.669217102135432"><ele>215.5</ele><time>2026-04-27T11:07:28Z</time></trkpt><trkpt lat="42.95657268048037" lon="12.669388133408033"><ele>216.25</ele><time>2026-04-27T11:07:29Z</time></trkpt><trkpt lat="42.95664154457085" lon="12.66955615205777"><ele>217.0</ele><time>2026-04-27T11:07:30Z</time></trkpt><trkpt lat="42.95671371814665" lon="12.669730888126871"><ele>217.0</ele><time>2026-04-27T11:07:31Z</time></trkpt><trkpt lat="42.95678552306942" lon="12.669905716479066"><ele>217.0</ele><time>2026-04-27T11:07:32Z</time></trkpt><trkpt lat="42.95685380778847" lon="12.670079882149496"><ele>217.0</ele><time>2026-04-27T11:07:33Z</time></trkpt><trkpt lat="42.95692303540696" lon="12.67025553493"><ele>217.0</ele><time>2026-04-27T11:07:34Z</time></trkpt><trkpt lat="42.956997843205265" lon="12.670431600969689"><ele>217.0</ele><time>2026-04-27T11:07:35Z</time></trkpt><trkpt lat="42.95706967852578" lon="12.670604057855524"><ele>217.0</ele><time>2026-04-27T11:07:36Z</time></trkpt><trkpt lat="42.9571381615326" lon="12.67077977048754"><ele>217.0</ele><time>2026-04-27T11:07:37Z</time></trkpt><trkpt lat="42.9572095239164" lon="12.67095436638762"><ele>217.0</ele><time>2026-04-27T11:07:38Z</time></trkpt><trkpt lat="42.95728070355626" lon="12.671130846855238"><ele>216.66666666666666</ele><time>2026-04-27T11:07:39Z</time></trkpt><trkpt lat="42.95735378691289" lon="12.671310447048205"><ele>216.33333333333331</ele><time>2026-04-27T11:07:40Z</time></trkpt><trkpt lat="42.957426292339726" lon="12.671490251447086"><ele>216.0</ele><time>2026-04-27T11:07:41Z</time></trkpt><trkpt lat="42.95750219322739" lon="12.67167273495435"><ele>216.0</ele><time>2026-04-27T11:07:42Z</time></trkpt><trkpt lat="42.957577223044325" lon="12.671859220186679"><ele>216.0</ele><time>2026-04-27T11:07:43Z</time></trkpt><trkpt lat="42.95765441598605" lon="12.672046244123562"><ele>216.0</ele><time>2026-04-27T11:07:44Z</time></trkpt><trkpt lat="42.95773092260439" lon="12.672235951249933"><ele>216.0</ele><time>2026-04-27T11:07:45Z</time></trkpt><trkpt lat="42.95780840736568" lon="12.672427200714397"><ele>216.0</ele><time>2026-04-27T11:07:46Z</time></trkpt><trkpt lat="42.95788647989702" lon="12.672620323390714"><ele>216.0</ele><time>2026-04-27T11:07:47Z</time></trkpt><trkpt lat="42.957962730772934" lon="12.672808512483305"><ele>216.0</ele><time>2026-04-27T11:07:48Z</time></trkpt><trkpt lat="42.95804339646783" lon="12.673007244042878"><ele>216.0</ele><time>2026-04-27T11:07:49Z</time></trkpt><trkpt lat="42.95811938877755" lon="12.673197054741237"><ele>216.0</ele><time>2026-04-27T11:07:50Z</time></trkpt><trkpt lat="42.958198758990704" lon="12.673392540956517"><ele>216.0</ele><time>2026-04-27T11:07:51Z</time></trkpt><trkpt lat="42.958276449876855" lon="12.67358934482401"><ele>216.0</ele><time>2026-04-27T11:07:52Z</time></trkpt><trkpt lat="42.95835711124417" lon="12.673783759767707"><ele>216.0</ele><time>2026-04-27T11:07:53Z</time></trkpt><trkpt lat="42.958434726740215" lon="12.673980172109022"><ele>216.33333333333331</ele><time>2026-04-27T11:07:54Z</time></trkpt><trkpt lat="42.9585128099483" lon="12.674175435237576"><ele>216.66666666666666</ele><time>2026-04-27T11:07:55Z</time></trkpt><trkpt lat="42.95859336792057" lon="12.674370629510998"><ele>217.0</ele><time>2026-04-27T11:07:56Z</time></trkpt><trkpt lat="42.95867268538994" lon="12.67456238838191"><ele>217.33333333333331</ele><time>2026-04-27T11:07:57Z</time></trkpt><trkpt lat="42.958750607574686" lon="12.674762085372816"><ele>217.66666666666669</ele><time>2026-04-27T11:07:58Z</time></trkpt><trkpt lat="42.9588294539088" lon="12.674958937865936"><ele>218.0</ele><time>2026-04-27T11:07:59Z</time></trkpt><trkpt lat="42.95890824948555" lon="12.675154483272294"><ele>217.66666666666669</ele><time>2026-04-27T11:08:00Z</time></trkpt><trkpt lat="42.95898769974891" lon="12.675349376688434"><ele>217.33333333333331</ele><time>2026-04-27T11:08:01Z</time></trkpt><trkpt lat="42.95906679941866" lon="12.67554967590898"><ele>217.0</ele><time>2026-04-27T11:08:02Z</time></trkpt><trkpt lat="42.95914695346129" lon="12.67574358628734"><ele>217.33333333333331</ele><time>2026-04-27T11:08:03Z</time></trkpt><trkpt lat="42.95922513863455" lon="12.675942203976737"><ele>217.66666666666669</ele><time>2026-04-27T11:08:04Z</time></trkpt><trkpt lat="42.959304364725064" lon="12.676136855616402"><ele>218.0</ele><time>2026-04-27T11:08:05Z</time></trkpt><trkpt lat="42.95938254829706" lon="12.676333556553368"><ele>218.0</ele><time>2026-04-27T11:08:06Z</time></trkpt><trkpt lat="42.95946021657589" lon="12.676523421367042"><ele>218.0</ele><time>2026-04-27T11:08:07Z</time></trkpt><trkpt lat="42.959535595664896" lon="12.676711006745723"><ele>218.0</ele><time>2026-04-27T11:08:08Z</time></trkpt><trkpt lat="42.95961106489872" lon="12.67688973025754"><ele>218.75</ele><time>2026-04-27T11:08:09Z</time></trkpt><trkpt lat="42.95967675217894" lon="12.677055776489675"><ele>219.5</ele><time>2026-04-27T11:08:10Z</time></trkpt><trkpt lat="42.95973850666669" lon="12.677210588155981"><ele>220.25</ele><time>2026-04-27T11:08:11Z</time></trkpt><trkpt lat="42.95979432949126" lon="12.67735350070639"><ele>221.0</ele><time>2026-04-27T11:08:12Z</time></trkpt><trkpt lat="42.959848870707944" lon="12.67748581787161"><ele>221.0</ele><time>2026-04-27T11:08:13Z</time></trkpt><trkpt lat="42.95989961224417" lon="12.67761464235731"><ele>221.00000000000003</ele><time>2026-04-27T11:08:14Z</time></trkpt><trkpt lat="42.959953385301766" lon="12.677741793251878"><ele>221.00000000000003</ele><time>2026-04-27T11:08:15Z</time></trkpt><trkpt lat="42.960003233223325" lon="12.677870564741529"><ele>221.0</ele><time>2026-04-27T11:08:16Z</time></trkpt><trkpt lat="42.960055269047025" lon="12.678001559388859"><ele>221.0</ele><time>2026-04-27T11:08:17Z</time></trkpt><trkpt lat="42.96010899680229" lon="12.678134218783518"><ele>221.5</ele><time>2026-04-27T11:08:18Z</time></trkpt><trkpt lat="42.960166430585666" lon="12.678268460168997"><ele>222.0</ele><time>2026-04-27T11:08:19Z</time></trkpt><trkpt lat="42.96022199293586" lon="12.678408755927824"><ele>222.5</ele><time>2026-04-27T11:08:20Z</time></trkpt><trkpt lat="42.960281572024066" lon="12.678552121848353"><ele>223.0</ele><time>2026-04-27T11:08:21Z</time></trkpt><trkpt lat="42.96034326633286" lon="12.678701283441605"><ele>223.0</ele><time>2026-04-27T11:08:22Z</time></trkpt><trkpt lat="42.960405703561946" lon="12.678851194821364"><ele>223.0</ele><time>2026-04-27T11:08:23Z</time></trkpt><trkpt lat="42.960468437856925" lon="12.6790056901953"><ele>223.0</ele><time>2026-04-27T11:08:24Z</time></trkpt><trkpt lat="42.960531039805865" lon="12.679162390526443"><ele>223.0</ele><time>2026-04-27T11:08:25Z</time></trkpt><trkpt lat="42.96059793567823" lon="12.679317733516688"><ele>223.25</ele><time>2026-04-27T11:08:26Z</time></trkpt><trkpt lat="42.96065879788941" lon="12.679479502909155"><ele>223.5</ele><time>2026-04-27T11:08:27Z</time></trkpt><trkpt lat="42.96072091666414" lon="12.679641174583484"><ele>223.75</ele><time>2026-04-27T11:08:28Z</time></trkpt><trkpt lat="42.960783733512365" lon="12.679799296746674"><ele>224.0</ele><time>2026-04-27T11:08:29Z</time></trkpt><trkpt lat="42.96084853262938" lon="12.679958921455784"><ele>224.0</ele><time>2026-04-27T11:08:30Z</time></trkpt><trkpt lat="42.96091474823454" lon="12.680117265580375"><ele>224.0</ele><time>2026-04-27T11:08:31Z</time></trkpt><trkpt lat="42.96097870496683" lon="12.680275846596228"><ele>224.0</ele><time>2026-04-27T11:08:32Z</time></trkpt><trkpt lat="42.96104357519521" lon="12.68043495157243"><ele>224.0</ele><time>2026-04-27T11:08:33Z</time></trkpt><trkpt lat="42.961109086759926" lon="12.680592925203369"><ele>224.25</ele><time>2026-04-27T11:08:34Z</time></trkpt><trkpt lat="42.96117385638745" lon="12.680751159190693"><ele>224.5</ele><time>2026-04-27T11:08:35Z</time></trkpt><trkpt lat="42.96123735735455" lon="12.680908639462611"><ele>224.75</ele><time>2026-04-27T11:08:36Z</time></trkpt><trkpt lat="42.96130067469474" lon="12.681066878930395"><ele>225.0</ele><time>2026-04-27T11:08:37Z</time></trkpt><trkpt lat="42.961360534253245" lon="12.681221562803875"><ele>225.0</ele><time>2026-04-27T11:08:38Z</time></trkpt><trkpt lat="42.96142025845672" lon="12.681371651684687"><ele>225.0</ele><time>2026-04-27T11:08:39Z</time></trkpt><trkpt lat="42.961478241835394" lon="12.681518596332701"><ele>225.0</ele><time>2026-04-27T11:08:40Z</time></trkpt><trkpt lat="42.961534261090655" lon="12.681664356202496"><ele>225.0</ele><time>2026-04-27T11:08:41Z</time></trkpt><trkpt lat="42.96159058374508" lon="12.681805345730712"><ele>225.0</ele><time>2026-04-27T11:08:42Z</time></trkpt><trkpt lat="42.961644324442865" lon="12.68194216653411"><ele>225.0</ele><time>2026-04-27T11:08:43Z</time></trkpt><trkpt lat="42.961694970110386" lon="12.682075037173393"><ele>225.0</ele><time>2026-04-27T11:08:44Z</time></trkpt><trkpt lat="42.96174306096983" lon="12.682204957620534"><ele>225.0</ele><time>2026-04-27T11:08:45Z</time></trkpt><trkpt lat="42.961788882982425" lon="12.682326254013171"><ele>225.0</ele><time>2026-04-27T11:08:45.999Z</time></trkpt><trkpt lat="42.961829836108905" lon="12.68244015953306"><ele>225.0</ele><time>2026-04-27T11:08:46.999Z</time></trkpt><trkpt lat="42.96186861168875" lon="12.682543604926328"><ele>225.0</ele><time>2026-04-27T11:08:47.999Z</time></trkpt><trkpt lat="42.96190152726333" lon="12.682635782589283"><ele>225.0</ele><time>2026-04-27T11:08:48.999Z</time></trkpt><trkpt lat="42.96192810800789" lon="12.682756046054035"><ele>225.0</ele><time>2026-04-27T11:08:50.999Z</time></trkpt><trkpt lat="42.961923843158054" lon="12.682871366888092"><ele>225.0</ele><time>2026-04-27T11:09:02Z</time></trkpt><trkpt lat="42.96189572432849" lon="12.683008669099864"><ele>225.0</ele><time>2026-04-27T11:09:04Z</time></trkpt><trkpt lat="42.9618796376194" lon="12.683183618096137"><ele>225.00000000000003</ele><time>2026-04-27T11:09:06Z</time></trkpt><trkpt lat="42.96189875602729" lon="12.683272508601023"><ele>225.0</ele><time>2026-04-27T11:09:07Z</time></trkpt><trkpt lat="42.961936788539646" lon="12.68335313411193"><ele>225.00000000000003</ele><time>2026-04-27T11:09:08Z</time></trkpt><trkpt lat="42.961991062848085" lon="12.68341364941896"><ele>225.00000000000003</ele><time>2026-04-27T11:09:09Z</time></trkpt><trkpt lat="42.962056869246844" lon="12.683459349651882"><ele>225.0</ele><time>2026-04-27T11:09:10Z</time></trkpt><trkpt lat="42.962129166280754" lon="12.683493127463288"><ele>225.00000000000003</ele><time>2026-04-27T11:09:11Z</time></trkpt><trkpt lat="42.962206449916" lon="12.683472241096538"><ele>225.00000000000003</ele><time>2026-04-27T11:09:12Z</time></trkpt><trkpt lat="42.962269537558505" lon="12.683604634121181"><ele>225.6</ele><time>2026-04-27T11:09:13Z</time></trkpt><trkpt lat="42.96232077952589" lon="12.683688965117799"><ele>226.2</ele><time>2026-04-27T11:09:14Z</time></trkpt><trkpt lat="42.962369252079874" lon="12.683801116079788"><ele>226.8</ele><time>2026-04-27T11:09:15Z</time></trkpt><trkpt lat="42.96241734284939" lon="12.68392356873921"><ele>227.4</ele><time>2026-04-27T11:09:16Z</time></trkpt><trkpt lat="42.96247009212179" lon="12.684054670326956"><ele>228.0</ele><time>2026-04-27T11:09:17Z</time></trkpt><trkpt lat="42.96252858247419" lon="12.684191492510593"><ele>227.75</ele><time>2026-04-27T11:09:18Z</time></trkpt><trkpt lat="42.962585513158615" lon="12.684331993041356"><ele>227.5</ele><time>2026-04-27T11:09:19Z</time></trkpt><trkpt lat="42.9626456661133" lon="12.684470008318785"><ele>227.25</ele><time>2026-04-27T11:09:20Z</time></trkpt><trkpt lat="42.96270779840866" lon="12.684612950803313"><ele>227.0</ele><time>2026-04-27T11:09:21Z</time></trkpt><trkpt lat="42.96276801734502" lon="12.684752723846064"><ele>227.0</ele><time>2026-04-27T11:09:22Z</time></trkpt><trkpt lat="42.96282889519866" lon="12.684892683810167"><ele>227.0</ele><time>2026-04-27T11:09:23Z</time></trkpt><trkpt lat="42.96288717194829" lon="12.685034641384227"><ele>227.0</ele><time>2026-04-27T11:09:24Z</time></trkpt><trkpt lat="42.962944433265" lon="12.685177198671926"><ele>227.0</ele><time>2026-04-27T11:09:25Z</time></trkpt><trkpt lat="42.96300096007425" lon="12.685318631811658"><ele>227.25</ele><time>2026-04-27T11:09:26Z</time></trkpt><trkpt lat="42.96305765577521" lon="12.685456610057468"><ele>227.5</ele><time>2026-04-27T11:09:27Z</time></trkpt><trkpt lat="42.963114802092" lon="12.685593652366537"><ele>227.75</ele><time>2026-04-27T11:09:28Z</time></trkpt><trkpt lat="42.963169723750305" lon="12.685729274014275"><ele>228.0</ele><time>2026-04-27T11:09:29Z</time></trkpt><trkpt lat="42.96322549418832" lon="12.685862318219629"><ele>228.0</ele><time>2026-04-27T11:09:30Z</time></trkpt><trkpt lat="42.9632790155276" lon="12.685998995412099"><ele>228.0</ele><time>2026-04-27T11:09:31Z</time></trkpt><trkpt lat="42.96333331436392" lon="12.686130878249374"><ele>228.0</ele><time>2026-04-27T11:09:32Z</time></trkpt><trkpt lat="42.96338439383375" lon="12.68626349977304"><ele>228.0</ele><time>2026-04-27T11:09:33Z</time></trkpt><trkpt lat="42.96343599368847" lon="12.686389106092422"><ele>228.0</ele><time>2026-04-27T11:09:34Z</time></trkpt><trkpt lat="42.96348306494269" lon="12.68651500638514"><ele>228.33333333333334</ele><time>2026-04-27T11:09:35Z</time></trkpt><trkpt lat="42.9635311774102" lon="12.686635657838337"><ele>228.66666666666669</ele><time>2026-04-27T11:09:36Z</time></trkpt><trkpt lat="42.96357880760824" lon="12.686745885964585"><ele>229.0</ele><time>2026-04-27T11:09:37Z</time></trkpt><trkpt lat="42.963622613750566" lon="12.686851958461546"><ele>229.33333333333334</ele><time>2026-04-27T11:09:38Z</time></trkpt><trkpt lat="42.96366274636693" lon="12.686947759280914"><ele>229.66666666666669</ele><time>2026-04-27T11:09:39Z</time></trkpt><trkpt lat="42.96369971505013" lon="12.68703609493329"><ele>230.0</ele><time>2026-04-27T11:09:40Z</time></trkpt><trkpt lat="42.963734409172275" lon="12.687120615989533"><ele>230.16666666666669</ele><time>2026-04-27T11:09:41Z</time></trkpt><trkpt lat="42.96376833135313" lon="12.687203685104404"><ele>230.33333333333334</ele><time>2026-04-27T11:09:42Z</time></trkpt><trkpt lat="42.96380186452505" lon="12.687288835069484"><ele>230.5</ele><time>2026-04-27T11:09:43Z</time></trkpt><trkpt lat="42.96384109743305" lon="12.687395855309756"><ele>230.66666666666669</ele><time>2026-04-27T11:09:44Z</time></trkpt><trkpt lat="42.963879162529246" lon="12.687489396400279"><ele>230.83333333333334</ele><time>2026-04-27T11:09:45Z</time></trkpt><trkpt lat="42.9639215315337" lon="12.687581894519251"><ele>231.0</ele><time>2026-04-27T11:09:46Z</time></trkpt><trkpt lat="42.963960000660414" lon="12.68768090400402"><ele>231.14285714285714</ele><time>2026-04-27T11:09:47Z</time></trkpt><trkpt lat="42.96400216549126" lon="12.687780291014302"><ele>231.28571428571428</ele><time>2026-04-27T11:09:48Z</time></trkpt><trkpt lat="42.96403547310969" lon="12.687859683033917"><ele>231.42857142857144</ele><time>2026-04-27T11:09:49Z</time></trkpt><trkpt lat="42.964064311487384" lon="12.687938527957481"><ele>231.57142857142858</ele><time>2026-04-27T11:09:50Z</time></trkpt><trkpt lat="42.96409186010279" lon="12.688019151396489"><ele>231.71428571428572</ele><time>2026-04-27T11:09:51Z</time></trkpt><trkpt lat="42.96412261282084" lon="12.688094680706609"><ele>231.8571428571429</ele><time>2026-04-27T11:09:53Z</time></trkpt><trkpt lat="42.96416718769279" lon="12.688223527038433"><ele>232.00000000000003</ele><time>2026-04-27T11:10:03Z</time></trkpt><trkpt lat="42.964208655251674" lon="12.688310749564012"><ele>232.0</ele><time>2026-04-27T11:10:05Z</time></trkpt><trkpt lat="42.96426287087195" lon="12.68842428692623"><ele>232.0</ele><time>2026-04-27T11:10:07Z</time></trkpt><trkpt lat="42.96430481361675" lon="12.688529602785815"><ele>232.0</ele><time>2026-04-27T11:10:09Z</time></trkpt><trkpt lat="42.96434297038264" lon="12.688620443483307"><ele>232.0</ele><time>2026-04-27T11:10:11Z</time></trkpt><trkpt lat="42.964385131043414" lon="12.688735758566937"><ele>232.0</ele><time>2026-04-27T11:10:13Z</time></trkpt><trkpt lat="42.96443556253205" lon="12.688853844394473"><ele>231.99999999999997</ele><time>2026-04-27T11:10:15Z</time></trkpt><trkpt lat="42.96448762412125" lon="12.688987341333455"><ele>232.0</ele><time>2026-04-27T11:10:17Z</time></trkpt><trkpt lat="42.96453510504966" lon="12.689108000042017"><ele>232.0</ele><time>2026-04-27T11:10:19Z</time></trkpt><trkpt lat="42.96457163656645" lon="12.689199981697241"><ele>232.0</ele><time>2026-04-27T11:10:21Z</time></trkpt><trkpt lat="42.96461676140413" lon="12.68930207609367"><ele>231.99999999999997</ele><time>2026-04-27T11:10:24Z</time></trkpt><trkpt lat="42.964650350823526" lon="12.68938316461632"><ele>232.0</ele><time>2026-04-27T11:10:35Z</time></trkpt><trkpt lat="42.964675151778636" lon="12.689463983209437"><ele>232.0</ele><time>2026-04-27T11:10:37Z</time></trkpt><trkpt lat="42.96471974052236" lon="12.689586530914626"><ele>232.0</ele><time>2026-04-27T11:10:40Z</time></trkpt><trkpt lat="42.964766721562675" lon="12.689695279226305"><ele>232.0</ele><time>2026-04-27T11:10:42Z</time></trkpt><trkpt lat="42.964821903033176" lon="12.689827053160235"><ele>232.0</ele><time>2026-04-27T11:10:44Z</time></trkpt><trkpt lat="42.964873174610545" lon="12.689948980874243"><ele>232.0</ele><time>2026-04-27T11:10:46Z</time></trkpt><trkpt lat="42.96490637276884" lon="12.690036424704672"><ele>231.99999999999997</ele><time>2026-04-27T11:10:48Z</time></trkpt><trkpt lat="42.96493870904084" lon="12.690128531558365"><ele>232.0</ele><time>2026-04-27T11:10:52Z</time></trkpt><trkpt lat="42.964931993159766" lon="12.69024060502413"><ele>232.0</ele><time>2026-04-27T11:10:54.999Z</time></trkpt><trkpt lat="42.96489618949679" lon="12.69031564145837"><ele>232.0</ele><time>2026-04-27T11:10:56.999Z</time></trkpt><trkpt lat="42.96490013334526" lon="12.690413717258492"><ele>231.99999999999997</ele><time>2026-04-27T11:10:58.999Z</time></trkpt><trkpt lat="42.96494964812299" lon="12.690516753069593"><ele>232.0</ele><time>2026-04-27T11:11:02Z</time></trkpt><trkpt lat="42.96498501725136" lon="12.690601781914884"><ele>231.66666666666666</ele><time>2026-04-27T11:11:05Z</time></trkpt><trkpt lat="42.964932686505364" lon="12.690651442513513"><ele>231.33333333333331</ele><time>2026-04-27T11:11:09Z</time></trkpt><trkpt lat="42.96493475909871" lon="12.690543196468333"><ele>231.0</ele><time>2026-04-27T11:15:47.999Z</time></trkpt><trkpt lat="42.96489831694099" lon="12.690450060915976"><ele>230.66666666666669</ele><time>2026-04-27T11:15:50.999Z</time></trkpt><trkpt lat="42.96486001380792" lon="12.690359943652643"><ele>230.33333333333334</ele><time>2026-04-27T11:15:54.999Z</time></trkpt><trkpt lat="42.96490068346222" lon="12.690459653326998"><ele>230.0</ele><time>2026-04-27T11:16:23.999Z</time></trkpt><trkpt lat="42.964936279046235" lon="12.690546922919191"><ele>230.0</ele><time>2026-04-27T11:16:27.999Z</time></trkpt><trkpt lat="42.96497305381657" lon="12.690637083354318"><ele>230.0</ele><time>2026-04-27T11:16:31.999Z</time></trkpt><trkpt lat="42.96500717112648" lon="12.690720728297741"><ele>230.0</ele><time>2026-04-27T11:16:35.999Z</time></trkpt><trkpt lat="42.96505045515515" lon="12.690826847158458"><ele>230.0</ele><time>2026-04-27T11:16:37.999Z</time></trkpt><trkpt lat="42.96510783437673" lon="12.690967523012379"><ele>230.0</ele><time>2026-04-27T11:16:39.999Z</time></trkpt><trkpt lat="42.96517389702906" lon="12.691129487913534"><ele>230.4</ele><time>2026-04-27T11:16:41.999Z</time></trkpt><trkpt lat="42.96536479081503" lon="12.691111104272862"><ele>230.8</ele><time>2026-04-27T11:16:42.999Z</time></trkpt><trkpt lat="42.965405829942256" lon="12.691215452343922"><ele>231.2</ele><time>2026-04-27T11:16:43.999Z</time></trkpt><trkpt lat="42.96544418646141" lon="12.69131426354388"><ele>231.6</ele><time>2026-04-27T11:16:44.999Z</time></trkpt><trkpt lat="42.965460895992365" lon="12.69142529199285"><ele>232.0</ele><time>2026-04-27T11:16:45.999Z</time></trkpt><trkpt lat="42.96549755249866" lon="12.691516417107813"><ele>232.00000000000003</ele><time>2026-04-27T11:16:46.999Z</time></trkpt><trkpt lat="42.965533144028164" lon="12.691604894761085"><ele>232.0</ele><time>2026-04-27T11:16:47.999Z</time></trkpt><trkpt lat="42.965566817000784" lon="12.6916886030586"><ele>232.00000000000003</ele><time>2026-04-27T11:16:48.999Z</time></trkpt><trkpt lat="42.96559872977192" lon="12.69176762620604"><ele>232.00000000000003</ele><time>2026-04-27T11:16:49.999Z</time></trkpt><trkpt lat="42.96565004586788" lon="12.691827764593748"><ele>232.0</ele><time>2026-04-27T11:16:50.999Z</time></trkpt><trkpt lat="42.965688283431135" lon="12.691909237878235"><ele>232.00000000000003</ele><time>2026-04-27T11:16:51.999Z</time></trkpt><trkpt lat="42.96573125727989" lon="12.692003051310747"><ele>232.00000000000003</ele><time>2026-04-27T11:16:52.999Z</time></trkpt><trkpt lat="42.96577198377196" lon="12.69210299036909"><ele>232.0</ele><time>2026-04-27T11:16:53.999Z</time></trkpt><trkpt lat="42.96578464261747" lon="12.692229098350616"><ele>232.0</ele><time>2026-04-27T11:16:54.999Z</time></trkpt><trkpt lat="42.965828512518605" lon="12.692338001466947"><ele>232.0</ele><time>2026-04-27T11:16:55.999Z</time></trkpt><trkpt lat="42.96587238342359" lon="12.692446519398667"><ele>232.0</ele><time>2026-04-27T11:16:56.999Z</time></trkpt><trkpt lat="42.9659162606963" lon="12.69255505308426"><ele>232.0</ele><time>2026-04-27T11:16:57.999Z</time></trkpt><trkpt lat="42.96596033466794" lon="12.69266407332358"><ele>232.16666666666666</ele><time>2026-04-27T11:16:58.999Z</time></trkpt><trkpt lat="42.966003408633355" lon="12.692770619973196"><ele>232.33333333333331</ele><time>2026-04-27T11:16:59.999Z</time></trkpt><trkpt lat="42.96604501049819" lon="12.69287352524723"><ele>232.5</ele><time>2026-04-27T11:17:00.999Z</time></trkpt><trkpt lat="42.96608648664942" lon="12.692976119602408"><ele>232.66666666666669</ele><time>2026-04-27T11:17:01.999Z</time></trkpt><trkpt lat="42.966126614338975" lon="12.6930753784193"><ele>232.83333333333334</ele><time>2026-04-27T11:17:02.999Z</time></trkpt><trkpt lat="42.96616504899346" lon="12.6931704494094"><ele>233.0</ele><time>2026-04-27T11:17:03.999Z</time></trkpt><trkpt lat="42.96620011184467" lon="12.69325717994954"><ele>233.00000000000003</ele><time>2026-04-27T11:17:04.999Z</time></trkpt><trkpt lat="42.96623088645801" lon="12.693333303230348"><ele>233.0</ele><time>2026-04-27T11:17:05.999Z</time></trkpt><trkpt lat="42.96629022747536" lon="12.693480087636994"><ele>233.0</ele><time>2026-04-27T11:17:07.999Z</time></trkpt><trkpt lat="42.96632196495059" lon="12.693558592635462"><ele>233.0</ele><time>2026-04-27T11:17:08.999Z</time></trkpt><trkpt lat="42.96635469952634" lon="12.693641135488987"><ele>233.00000000000003</ele><time>2026-04-27T11:17:09.999Z</time></trkpt><trkpt lat="42.96638771262106" lon="12.69372511859481"><ele>233.0</ele><time>2026-04-27T11:17:10.999Z</time></trkpt><trkpt lat="42.96642186992328" lon="12.69381342050057"><ele>233.00000000000003</ele><time>2026-04-27T11:17:11.999Z</time></trkpt><trkpt lat="42.96645551390942" lon="12.693901654655347"><ele>233.0</ele><time>2026-04-27T11:17:12.999Z</time></trkpt><trkpt lat="42.966477908296355" lon="12.693984429988632"><ele>233.0</ele><time>2026-04-27T11:17:13.999Z</time></trkpt><trkpt lat="42.96651543944522" lon="12.694126906762888"><ele>233.0</ele><time>2026-04-27T11:17:15.999Z</time></trkpt><trkpt lat="42.96653996006301" lon="12.694212265397226"><ele>233.00000000000003</ele><time>2026-04-27T11:17:17.999Z</time></trkpt><trkpt lat="42.966543054866506" lon="12.694304537899665"><ele>233.0</ele><time>2026-04-27T11:17:20Z</time></trkpt><trkpt lat="42.966532597242136" lon="12.694415795146178"><ele>233.25</ele><time>2026-04-27T11:17:22Z</time></trkpt><trkpt lat="42.96650312125951" lon="12.694568581915954"><ele>233.5</ele><time>2026-04-27T11:17:24Z</time></trkpt><trkpt lat="42.96650680406851" lon="12.694746293248153"><ele>233.75</ele><time>2026-04-27T11:17:26Z</time></trkpt><trkpt lat="42.96663200210657" lon="12.694843442263933"><ele>234.0</ele><time>2026-04-27T11:17:28Z</time></trkpt><trkpt lat="42.96670750288399" lon="12.694854817259742"><ele>234.0</ele><time>2026-04-27T11:17:29Z</time></trkpt><trkpt lat="42.96678814253984" lon="12.694863287711765"><ele>234.0</ele><time>2026-04-27T11:17:30Z</time></trkpt><trkpt lat="42.96686571336243" lon="12.694881671563488"><ele>234.0</ele><time>2026-04-27T11:17:31Z</time></trkpt><trkpt lat="42.966929357143464" lon="12.694935576126115"><ele>234.0</ele><time>2026-04-27T11:17:32Z</time></trkpt><trkpt lat="42.96698884469563" lon="12.69501221534397"><ele>234.0</ele><time>2026-04-27T11:17:33Z</time></trkpt><trkpt lat="42.967042879082435" lon="12.695111264915377"><ele>234.0</ele><time>2026-04-27T11:17:34Z</time></trkpt><trkpt lat="42.967098940455315" lon="12.695223805876301"><ele>233.75</ele><time>2026-04-27T11:17:35Z</time></trkpt><trkpt lat="42.9671551872232" lon="12.695354192554996"><ele>233.5</ele><time>2026-04-27T11:17:36Z</time></trkpt><trkpt lat="42.96721740794919" lon="12.695494731023217"><ele>233.25</ele><time>2026-04-27T11:17:37Z</time></trkpt><trkpt lat="42.967278825756765" lon="12.69562639449953"><ele>233.0</ele><time>2026-04-27T11:17:38Z</time></trkpt><trkpt lat="42.96733615137522" lon="12.695748786245472"><ele>233.0</ele><time>2026-04-27T11:17:39Z</time></trkpt><trkpt lat="42.96738983670323" lon="12.695864847921108"><ele>233.0</ele><time>2026-04-27T11:17:40Z</time></trkpt><trkpt lat="42.96744466682208" lon="12.695981066640943"><ele>233.0</ele><time>2026-04-27T11:17:41Z</time></trkpt><trkpt lat="42.967499126064624" lon="12.696099255123542"><ele>233.0</ele><time>2026-04-27T11:17:42Z</time></trkpt><trkpt lat="42.967552419056105" lon="12.696217737478083"><ele>233.0</ele><time>2026-04-27T11:17:43Z</time></trkpt><trkpt lat="42.967605671570865" lon="12.696333614673886"><ele>233.4</ele><time>2026-04-27T11:17:44Z</time></trkpt><trkpt lat="42.967658907853085" lon="12.696448305062937"><ele>233.8</ele><time>2026-04-27T11:17:45Z</time></trkpt><trkpt lat="42.967712247354164" lon="12.696560416452721"><ele>234.2</ele><time>2026-04-27T11:17:46Z</time></trkpt><trkpt lat="42.96776624284059" lon="12.696673238697095"><ele>234.6</ele><time>2026-04-27T11:17:47Z</time></trkpt><trkpt lat="42.96782220293893" lon="12.696786598375246"><ele>235.0</ele><time>2026-04-27T11:17:48Z</time></trkpt><trkpt lat="42.96787809698992" lon="12.696904554117248"><ele>235.0</ele><time>2026-04-27T11:17:49Z</time></trkpt><trkpt lat="42.96793946677064" lon="12.69702582156922"><ele>235.0</ele><time>2026-04-27T11:17:50Z</time></trkpt><trkpt lat="42.96800165014487" lon="12.697155767042357"><ele>235.0</ele><time>2026-04-27T11:17:51Z</time></trkpt><trkpt lat="42.96806427508571" lon="12.697290972084517"><ele>235.0</ele><time>2026-04-27T11:17:52Z</time></trkpt><trkpt lat="42.96812795906348" lon="12.697427206728122"><ele>235.0</ele><time>2026-04-27T11:17:53Z</time></trkpt><trkpt lat="42.96819153695491" lon="12.697559900948077"><ele>235.0</ele><time>2026-04-27T11:17:54Z</time></trkpt><trkpt lat="42.96825733241455" lon="12.697691544353217"><ele>235.0</ele><time>2026-04-27T11:17:55Z</time></trkpt><trkpt lat="42.96832302480931" lon="12.697822938724592"><ele>235.0</ele><time>2026-04-27T11:17:56Z</time></trkpt><trkpt lat="42.968387532674534" lon="12.69795757731125"><ele>234.5</ele><time>2026-04-27T11:17:57Z</time></trkpt><trkpt lat="42.96845131951219" lon="12.698093350395803"><ele>234.0</ele><time>2026-04-27T11:17:58Z</time></trkpt><trkpt lat="42.9685140693539" lon="12.698230732450766"><ele>233.5</ele><time>2026-04-27T11:17:59Z</time></trkpt><trkpt lat="42.96857972056503" lon="12.698371530166765"><ele>233.0</ele><time>2026-04-27T11:18:00Z</time></trkpt><trkpt lat="42.96865084997858" lon="12.698520058814216"><ele>234.0</ele><time>2026-04-27T11:18:01Z</time></trkpt><trkpt lat="42.96872470333467" lon="12.69867723366106"><ele>235.0</ele><time>2026-04-27T11:18:02Z</time></trkpt><trkpt lat="42.96880278968488" lon="12.698839340208107"><ele>236.0</ele><time>2026-04-27T11:18:03Z</time></trkpt><trkpt lat="42.96888410277923" lon="12.69901214269624"><ele>237.0</ele><time>2026-04-27T11:18:04Z</time></trkpt><trkpt lat="42.96897039172395" lon="12.699191418859785"><ele>237.0</ele><time>2026-04-27T11:18:05Z</time></trkpt><trkpt lat="42.96905942813076" lon="12.69937856321451"><ele>237.0</ele><time>2026-04-27T11:18:06Z</time></trkpt><trkpt lat="42.969150135415106" lon="12.699572515456092"><ele>237.0</ele><time>2026-04-27T11:18:07Z</time></trkpt><trkpt lat="42.96924356127923" lon="12.699775189371701"><ele>237.33333333333331</ele><time>2026-04-27T11:18:08Z</time></trkpt><trkpt lat="42.96933812899775" lon="12.699985445129172"><ele>237.66666666666666</ele><time>2026-04-27T11:18:09Z</time></trkpt><trkpt lat="42.96943454230449" lon="12.700201294858365"><ele>238.0</ele><time>2026-04-27T11:18:10Z</time></trkpt><trkpt lat="42.969532454897205" lon="12.700423381176627"><ele>238.0</ele><time>2026-04-27T11:18:11Z</time></trkpt><trkpt lat="42.96962816525266" lon="12.700641280501836"><ele>238.0</ele><time>2026-04-27T11:18:12Z</time></trkpt><trkpt lat="42.969723942636016" lon="12.700857912858588"><ele>238.0</ele><time>2026-04-27T11:18:13Z</time></trkpt><trkpt lat="42.96981787460834" lon="12.701063765334693"><ele>238.0</ele><time>2026-04-27T11:18:14Z</time></trkpt><trkpt lat="42.96990655399001" lon="12.7012641381958"><ele>238.0</ele><time>2026-04-27T11:18:15Z</time></trkpt><trkpt lat="42.969987831246115" lon="12.701461147991449"><ele>238.0</ele><time>2026-04-27T11:18:16Z</time></trkpt><trkpt lat="42.9700655512092" lon="12.70165908518704"><ele>237.66666666666666</ele><time>2026-04-27T11:18:17Z</time></trkpt><trkpt lat="42.97013917876163" lon="12.701853974791492"><ele>237.33333333333331</ele><time>2026-04-27T11:18:18Z</time></trkpt><trkpt lat="42.970214035853196" lon="12.702045847593507"><ele>237.0</ele><time>2026-04-27T11:18:19Z</time></trkpt><trkpt lat="42.9702888698116" lon="12.702238237486323"><ele>238.0</ele><time>2026-04-27T11:18:20Z</time></trkpt><trkpt lat="42.97036614267762" lon="12.702420406711804"><ele>239.0</ele><time>2026-04-27T11:18:21Z</time></trkpt><trkpt lat="42.97044223290771" lon="12.702600929071709"><ele>240.0</ele><time>2026-04-27T11:18:22Z</time></trkpt><trkpt lat="42.97052139450773" lon="12.702775113160683"><ele>241.0</ele><time>2026-04-27T11:18:23Z</time></trkpt><trkpt lat="42.970605456995" lon="12.70295283722465"><ele>242.0</ele><time>2026-04-27T11:18:24Z</time></trkpt><trkpt lat="42.97069602731863" lon="12.703138353931507"><ele>243.0</ele><time>2026-04-27T11:18:25Z</time></trkpt><trkpt lat="42.970794234454885" lon="12.703344252577493"><ele>243.33333333333331</ele><time>2026-04-27T11:18:26Z</time></trkpt><trkpt lat="42.97089787929004" lon="12.703566518304452"><ele>243.66666666666666</ele><time>2026-04-27T11:18:27Z</time></trkpt><trkpt lat="42.971007408656575" lon="12.703811905067157"><ele>244.0</ele><time>2026-04-27T11:18:28Z</time></trkpt><trkpt lat="42.97112746037971" lon="12.704080421487363"><ele>245.0</ele><time>2026-04-27T11:18:29Z</time></trkpt><trkpt lat="42.97125307500619" lon="12.704360863647526"><ele>246.0</ele><time>2026-04-27T11:18:30Z</time></trkpt><trkpt lat="42.97138156737114" lon="12.704654211566519"><ele>246.0</ele><time>2026-04-27T11:18:31Z</time></trkpt><trkpt lat="42.971517172640624" lon="12.704961934085388"><ele>246.0</ele><time>2026-04-27T11:18:32Z</time></trkpt><trkpt lat="42.97165217218629" lon="12.705269061835367"><ele>247.0</ele><time>2026-04-27T11:18:33Z</time></trkpt><trkpt lat="42.97179106381382" lon="12.70558272757348"><ele>248.0</ele><time>2026-04-27T11:18:34Z</time></trkpt><trkpt lat="42.97193018543768" lon="12.705902877730718"><ele>244.5</ele><time>2026-04-27T11:18:35Z</time></trkpt><trkpt lat="42.972068448597355" lon="12.706226325376914"><ele>241.0</ele><time>2026-04-27T11:18:36Z</time></trkpt><trkpt lat="42.972206741638324" lon="12.706553425467481"><ele>241.0</ele><time>2026-04-27T11:18:37Z</time></trkpt><trkpt lat="42.97234013413012" lon="12.70688260302782"><ele>241.0</ele><time>2026-04-27T11:18:38Z</time></trkpt><trkpt lat="42.972461378099176" lon="12.707207395899767"><ele>242.0</ele><time>2026-04-27T11:18:39Z</time></trkpt><trkpt lat="42.97257075386638" lon="12.707528990834861"><ele>243.0</ele><time>2026-04-27T11:18:40Z</time></trkpt><trkpt lat="42.97267018304967" lon="12.707848822324056"><ele>243.5</ele><time>2026-04-27T11:18:41Z</time></trkpt><trkpt lat="42.97276027488001" lon="12.708169292505971"><ele>244.0</ele><time>2026-04-27T11:18:42Z</time></trkpt><trkpt lat="42.97284251324371" lon="12.708488803377554"><ele>245.5</ele><time>2026-04-27T11:18:43Z</time></trkpt><trkpt lat="42.972917813077736" lon="12.708812625473588"><ele>247.0</ele><time>2026-04-27T11:18:44Z</time></trkpt><trkpt lat="42.97298834222802" lon="12.709131871687756"><ele>247.0</ele><time>2026-04-27T11:18:45Z</time></trkpt><trkpt lat="42.97305202394972" lon="12.7094531347229"><ele>247.0</ele><time>2026-04-27T11:18:46Z</time></trkpt><trkpt lat="42.973109225252735" lon="12.70977037154587"><ele>247.0</ele><time>2026-04-27T11:18:47Z</time></trkpt><trkpt lat="42.97316290064792" lon="12.710086676952567"><ele>247.0</ele><time>2026-04-27T11:18:48Z</time></trkpt><trkpt lat="42.97321301948071" lon="12.71040011362315"><ele>245.5</ele><time>2026-04-27T11:18:49Z</time></trkpt><trkpt lat="42.97326189470682" lon="12.710708295649289"><ele>244.0</ele><time>2026-04-27T11:18:50Z</time></trkpt><trkpt lat="42.973310819020746" lon="12.711013943336765"><ele>245.0</ele><time>2026-04-27T11:18:51Z</time></trkpt><trkpt lat="42.97335722699315" lon="12.711314181345193"><ele>246.0</ele><time>2026-04-27T11:18:52Z</time></trkpt><trkpt lat="42.973402184129164" lon="12.711611576646716"><ele>247.0</ele><time>2026-04-27T11:18:53Z</time></trkpt><trkpt lat="42.97344628440473" lon="12.71190683560439"><ele>247.0</ele><time>2026-04-27T11:18:54Z</time></trkpt><trkpt lat="42.97348986741709" lon="12.712198281128186"><ele>247.0</ele><time>2026-04-27T11:18:55Z</time></trkpt><trkpt lat="42.97353508850191" lon="12.712485850623034"><ele>247.0</ele><time>2026-04-27T11:18:56Z</time></trkpt><trkpt lat="42.97358197226428" lon="12.712766632848458"><ele>247.0</ele><time>2026-04-27T11:18:57Z</time></trkpt><trkpt lat="42.97362819344458" lon="12.71303513570198"><ele>247.0</ele><time>2026-04-27T11:18:58Z</time></trkpt><trkpt lat="42.9736727355547" lon="12.713296429179188"><ele>247.0</ele><time>2026-04-27T11:18:59Z</time></trkpt><trkpt lat="42.97371528384519" lon="12.713554094428682"><ele>246.33333333333331</ele><time>2026-04-27T11:19:00Z</time></trkpt><trkpt lat="42.97375597065759" lon="12.71380585284121"><ele>245.66666666666669</ele><time>2026-04-27T11:19:01Z</time></trkpt><trkpt lat="42.97379323561254" lon="12.714053654138885"><ele>245.0</ele><time>2026-04-27T11:19:02Z</time></trkpt><trkpt lat="42.9738325360643" lon="12.714300707129869"><ele>245.33333333333334</ele><time>2026-04-27T11:19:03Z</time></trkpt><trkpt lat="42.973868053610346" lon="12.714555839389647"><ele>245.66666666666669</ele><time>2026-04-27T11:19:04Z</time></trkpt><trkpt lat="42.973894728365295" lon="12.71481310890763"><ele>246.0</ele><time>2026-04-27T11:19:05Z</time></trkpt><trkpt lat="42.97391216978291" lon="12.715076293337773"><ele>246.33333333333331</ele><time>2026-04-27T11:19:06Z</time></trkpt><trkpt lat="42.97391975956406" lon="12.715336029026915"><ele>246.66666666666666</ele><time>2026-04-27T11:19:07Z</time></trkpt><trkpt lat="42.97391999311493" lon="12.715591917221998"><ele>247.0</ele><time>2026-04-27T11:19:08Z</time></trkpt><trkpt lat="42.97391903905389" lon="12.715837446989031"><ele>247.33333333333331</ele><time>2026-04-27T11:19:09Z</time></trkpt><trkpt lat="42.97391838143895" lon="12.716071177812609"><ele>247.66666666666669</ele><time>2026-04-27T11:19:10Z</time></trkpt><trkpt lat="42.973915860505194" lon="12.716289039316926"><ele>248.0</ele><time>2026-04-27T11:19:11Z</time></trkpt><trkpt lat="42.9739121447974" lon="12.716479370006022"><ele>248.0</ele><time>2026-04-27T11:19:11.999Z</time></trkpt><trkpt lat="42.97389671914133" lon="12.716649812993422"><ele>248.0</ele><time>2026-04-27T11:19:12.999Z</time></trkpt><trkpt lat="42.97386543379834" lon="12.716800703524"><ele>248.0</ele><time>2026-04-27T11:19:13.999Z</time></trkpt><trkpt lat="42.97380826748801" lon="12.71693923834996"><ele>248.0</ele><time>2026-04-27T11:19:14.999Z</time></trkpt><trkpt lat="42.973726474615745" lon="12.717064139024146"><ele>248.0</ele><time>2026-04-27T11:19:15.999Z</time></trkpt><trkpt lat="42.97362506371343" lon="12.71716746227804"><ele>248.0</ele><time>2026-04-27T11:19:16.999Z</time></trkpt><trkpt lat="42.9735143025092" lon="12.71724181472196"><ele>248.0</ele><time>2026-04-27T11:19:17.999Z</time></trkpt><trkpt lat="42.97339391848431" lon="12.717282324404822"><ele>248.0</ele><time>2026-04-27T11:19:18.999Z</time></trkpt><trkpt lat="42.97326375271945" lon="12.717278646607545"><ele>247.25</ele><time>2026-04-27T11:19:19.999Z</time></trkpt><trkpt lat="42.973141972335334" lon="12.717238861761517"><ele>246.5</ele><time>2026-04-27T11:19:20.999Z</time></trkpt><trkpt lat="42.97303477629772" lon="12.717163776204167"><ele>245.75</ele><time>2026-04-27T11:19:21.999Z</time></trkpt><trkpt lat="42.972942137416574" lon="12.717051159538201"><ele>245.0</ele><time>2026-04-27T11:19:22.999Z</time></trkpt><trkpt lat="42.97286700555654" lon="12.716918517963714"><ele>245.0</ele><time>2026-04-27T11:19:23.999Z</time></trkpt><trkpt lat="42.97280916611696" lon="12.716764534749412"><ele>245.0</ele><time>2026-04-27T11:19:25Z</time></trkpt><trkpt lat="42.97277839830759" lon="12.716595456313673"><ele>245.0</ele><time>2026-04-27T11:19:26Z</time></trkpt><trkpt lat="42.972778750683275" lon="12.716419404116815"><ele>245.0</ele><time>2026-04-27T11:19:27Z</time></trkpt><trkpt lat="42.97281234919025" lon="12.716248688127537"><ele>245.0</ele><time>2026-04-27T11:19:28Z</time></trkpt><trkpt lat="42.972877488725636" lon="12.71610221814045"><ele>245.0</ele><time>2026-04-27T11:19:29Z</time></trkpt><trkpt lat="42.972967233281864" lon="12.715982744248242"><ele>245.0</ele><time>2026-04-27T11:19:30Z</time></trkpt><trkpt lat="42.973078434234345" lon="12.715902725034846"><ele>245.0</ele><time>2026-04-27T11:19:31Z</time></trkpt><trkpt lat="42.9732017996663" lon="12.715848716819629"><ele>245.66666666666669</ele><time>2026-04-27T11:19:32Z</time></trkpt><trkpt lat="42.973337797832286" lon="12.715807759050515"><ele>246.33333333333331</ele><time>2026-04-27T11:19:33Z</time></trkpt><trkpt lat="42.97348506256665" lon="12.715765867793845"><ele>247.0</ele><time>2026-04-27T11:19:34Z</time></trkpt><trkpt lat="42.973646184285876" lon="12.715731529409672"><ele>247.0</ele><time>2026-04-27T11:19:35Z</time></trkpt><trkpt lat="42.97382166166073" lon="12.715710126597134"><ele>247.0</ele><time>2026-04-27T11:19:36Z</time></trkpt><trkpt lat="42.97400465907115" lon="12.715705487674153"><ele>247.0</ele><time>2026-04-27T11:19:37Z</time></trkpt><trkpt lat="42.97419341460333" lon="12.71572676763854"><ele>247.0</ele><time>2026-04-27T11:19:38Z</time></trkpt><trkpt lat="42.97438566492714" lon="12.715773482924632"><ele>247.0</ele><time>2026-04-27T11:19:39Z</time></trkpt><trkpt lat="42.97458105471288" lon="12.715845026100048"><ele>247.0</ele><time>2026-04-27T11:19:40Z</time></trkpt><trkpt lat="42.97477453416382" lon="12.71594173156181"><ele>247.33333333333331</ele><time>2026-04-27T11:19:41Z</time></trkpt><trkpt lat="42.97496411872655" lon="12.716070077882648"><ele>247.66666666666669</ele><time>2026-04-27T11:19:42Z</time></trkpt><trkpt lat="42.97515442123124" lon="12.716217689701745"><ele>248.0</ele><time>2026-04-27T11:19:43Z</time></trkpt><trkpt lat="42.97534867490042" lon="12.7163790844043"><ele>249.5</ele><time>2026-04-27T11:19:44Z</time></trkpt><trkpt lat="42.975548070083256" lon="12.71654479133742"><ele>251.0</ele><time>2026-04-27T11:19:45Z</time></trkpt><trkpt lat="42.97575056385649" lon="12.716713216982406"><ele>250.0</ele><time>2026-04-27T11:19:46Z</time></trkpt><trkpt lat="42.97595922214558" lon="12.716880369093479"><ele>249.0</ele><time>2026-04-27T11:19:47Z</time></trkpt><trkpt lat="42.97616632246532" lon="12.717047070987977"><ele>249.0</ele><time>2026-04-27T11:19:48Z</time></trkpt><trkpt lat="42.976372499851536" lon="12.717214077903364"><ele>249.0</ele><time>2026-04-27T11:19:49Z</time></trkpt><trkpt lat="42.976580677765284" lon="12.717379302393734"><ele>248.5</ele><time>2026-04-27T11:19:50Z</time></trkpt><trkpt lat="42.97678846311821" lon="12.717542794300273"><ele>248.0</ele><time>2026-04-27T11:19:51Z</time></trkpt><trkpt lat="42.97699590820264" lon="12.717707615385986"><ele>248.0</ele><time>2026-04-27T11:19:52Z</time></trkpt><trkpt lat="42.97720441608686" lon="12.717870644155065"><ele>248.0</ele><time>2026-04-27T11:19:53Z</time></trkpt><trkpt lat="42.97741367798838" lon="12.718032287066384"><ele>250.0</ele><time>2026-04-27T11:19:54Z</time></trkpt><trkpt lat="42.97762091536441" lon="12.718197167705513"><ele>252.0</ele><time>2026-04-27T11:19:55Z</time></trkpt><trkpt lat="42.97782886864824" lon="12.718364246179766"><ele>252.0</ele><time>2026-04-27T11:19:56Z</time></trkpt><trkpt lat="42.97803847563081" lon="12.718529415582514"><ele>252.0</ele><time>2026-04-27T11:19:57Z</time></trkpt><trkpt lat="42.97824775058771" lon="12.718694687039852"><ele>253.5</ele><time>2026-04-27T11:19:58Z</time></trkpt><trkpt lat="42.97845610263925" lon="12.718860867440634"><ele>255.0</ele><time>2026-04-27T11:19:59Z</time></trkpt><trkpt lat="42.97866473308184" lon="12.719027113054688"><ele>255.0</ele><time>2026-04-27T11:20:00Z</time></trkpt><trkpt lat="42.978870132469844" lon="12.719190812497455"><ele>255.0</ele><time>2026-04-27T11:20:01Z</time></trkpt><trkpt lat="42.97907364035475" lon="12.71935442411945"><ele>256.0</ele><time>2026-04-27T11:20:02Z</time></trkpt><trkpt lat="42.97927868563796" lon="12.719516177616178"><ele>257.0</ele><time>2026-04-27T11:20:03Z</time></trkpt><trkpt lat="42.97948722950441" lon="12.719680338591406"><ele>257.0</ele><time>2026-04-27T11:20:04Z</time></trkpt><trkpt lat="42.97969711958692" lon="12.719846351978692"><ele>257.0</ele><time>2026-04-27T11:20:05Z</time></trkpt><trkpt lat="42.9799078204308" lon="12.720012446768337"><ele>258.0</ele><time>2026-04-27T11:20:06Z</time></trkpt><trkpt lat="42.980117420802905" lon="12.720178742051582"><ele>259.0</ele><time>2026-04-27T11:20:07Z</time></trkpt><trkpt lat="42.98032564047573" lon="12.720342170658977"><ele>259.0</ele><time>2026-04-27T11:20:08Z</time></trkpt><trkpt lat="42.980535783247625" lon="12.720508490305452"><ele>259.0</ele><time>2026-04-27T11:20:09Z</time></trkpt><trkpt lat="42.98074719320747" lon="12.720676598192215"><ele>263.0</ele><time>2026-04-27T11:20:10Z</time></trkpt><trkpt lat="42.980959754518" lon="12.72084535279742"><ele>267.0</ele><time>2026-04-27T11:20:11Z</time></trkpt><trkpt lat="42.981178778801045" lon="12.721018059543633"><ele>264.0</ele><time>2026-04-27T11:20:12Z</time></trkpt><trkpt lat="42.98139809579113" lon="12.72119185831767"><ele>261.0</ele><time>2026-04-27T11:20:13Z</time></trkpt><trkpt lat="42.98161470302035" lon="12.721362797917653"><ele>266.0</ele><time>2026-04-27T11:20:14Z</time></trkpt><trkpt lat="42.981830654973216" lon="12.7215349919619"><ele>271.0</ele><time>2026-04-27T11:20:15Z</time></trkpt><trkpt lat="42.982044435223784" lon="12.721705158448126"><ele>271.0</ele><time>2026-04-27T11:20:16Z</time></trkpt><trkpt lat="42.98225044487302" lon="12.721880016513772"><ele>271.0</ele><time>2026-04-27T11:20:17Z</time></trkpt><trkpt lat="42.982445166050795" lon="12.72205479857476"><ele>272.66666666666663</ele><time>2026-04-27T11:20:18Z</time></trkpt><trkpt lat="42.98262085923115" lon="12.722232218883342"><ele>274.3333333333333</ele><time>2026-04-27T11:20:19Z</time></trkpt><trkpt lat="42.98278264287704" lon="12.722407592866738"><ele>276.0</ele><time>2026-04-27T11:20:20Z</time></trkpt><trkpt lat="42.98293216090087" lon="12.722578208334909"><ele>273.6666666666667</ele><time>2026-04-27T11:20:21Z</time></trkpt><trkpt lat="42.983069557930925" lon="12.722745542955055"><ele>271.33333333333337</ele><time>2026-04-27T11:20:22Z</time></trkpt><trkpt lat="42.98320185304222" lon="12.722923291415404"><ele>269.0</ele><time>2026-04-27T11:20:23Z</time></trkpt><trkpt lat="42.983331103548394" lon="12.723105888706572"><ele>271.33333333333337</ele><time>2026-04-27T11:20:24Z</time></trkpt><trkpt lat="42.983454188080024" lon="12.723291125450782"><ele>273.6666666666667</ele><time>2026-04-27T11:20:25Z</time></trkpt><trkpt lat="42.98357181191259" lon="12.723481494232695"><ele>276.0</ele><time>2026-04-27T11:20:26Z</time></trkpt><trkpt lat="42.98368826166161" lon="12.723666775759524"><ele>276.0</ele><time>2026-04-27T11:20:27Z</time></trkpt><trkpt lat="42.983802759864346" lon="12.723853081764233"><ele>276.0</ele><time>2026-04-27T11:20:28Z</time></trkpt><trkpt lat="42.98391535410544" lon="12.724042040353277"><ele>276.0</ele><time>2026-04-27T11:20:29Z</time></trkpt><trkpt lat="42.984026977667554" lon="12.724235429772278"><ele>274.6666666666667</ele><time>2026-04-27T11:20:30Z</time></trkpt><trkpt lat="42.98413695193468" lon="12.724423657442369"><ele>273.33333333333337</ele><time>2026-04-27T11:20:31Z</time></trkpt><trkpt lat="42.984251511770005" lon="12.724619113165664"><ele>272.0</ele><time>2026-04-27T11:20:32Z</time></trkpt><trkpt lat="42.98436618845891" lon="12.724809786499744"><ele>273.0</ele><time>2026-04-27T11:20:33Z</time></trkpt><trkpt lat="42.98448109905725" lon="12.72500107169281"><ele>274.0</ele><time>2026-04-27T11:20:34Z</time></trkpt><trkpt lat="42.98459882105549" lon="12.725196010168592"><ele>275.0</ele><time>2026-04-27T11:20:35Z</time></trkpt><trkpt lat="42.98471780488236" lon="12.725396082384744"><ele>275.0</ele><time>2026-04-27T11:20:36Z</time></trkpt><trkpt lat="42.98483524576272" lon="12.725595777337235"><ele>275.0</ele><time>2026-04-27T11:20:37Z</time></trkpt><trkpt lat="42.98495572441616" lon="12.725801099911134"><ele>275.0</ele><time>2026-04-27T11:20:38Z</time></trkpt><trkpt lat="42.98507214655722" lon="12.725998682875508"><ele>277.33333333333337</ele><time>2026-04-27T11:20:39Z</time></trkpt><trkpt lat="42.98518346120281" lon="12.726187700101548"><ele>279.6666666666667</ele><time>2026-04-27T11:20:40Z</time></trkpt><trkpt lat="42.985295502890246" lon="12.726373375106656"><ele>282.0</ele><time>2026-04-27T11:20:41Z</time></trkpt><trkpt lat="42.9854083442743" lon="12.726558328111896"><ele>282.0</ele><time>2026-04-27T11:20:42Z</time></trkpt><trkpt lat="42.985520279935834" lon="12.726743345310805"><ele>282.0</ele><time>2026-04-27T11:20:43Z</time></trkpt><trkpt lat="42.985630292201016" lon="12.726932129872116"><ele>282.0</ele><time>2026-04-27T11:20:44Z</time></trkpt><trkpt lat="42.98574135508002" lon="12.727120936236604"><ele>285.6666666666667</ele><time>2026-04-27T11:20:45Z</time></trkpt><trkpt lat="42.985854096629645" lon="12.72730832807057"><ele>289.33333333333337</ele><time>2026-04-27T11:20:46Z</time></trkpt><trkpt lat="42.98596670120959" lon="12.727493799152807"><ele>293.0</ele><time>2026-04-27T11:20:47Z</time></trkpt><trkpt lat="42.986079719093745" lon="12.727677552847009"><ele>291.6666666666667</ele><time>2026-04-27T11:20:48Z</time></trkpt><trkpt lat="42.98619341974112" lon="12.727858313757885"><ele>290.3333333333333</ele><time>2026-04-27T11:20:49Z</time></trkpt><trkpt lat="42.98630939613116" lon="12.728034955169246"><ele>289.0</ele><time>2026-04-27T11:20:50Z</time></trkpt><trkpt lat="42.98642440778128" lon="12.728199487604181"><ele>289.0</ele><time>2026-04-27T11:20:51Z</time></trkpt><trkpt lat="42.98654394966131" lon="12.728359461013373"><ele>289.0</ele><time>2026-04-27T11:20:52Z</time></trkpt><trkpt lat="42.98666485024768" lon="12.728511325832386"><ele>289.0</ele><time>2026-04-27T11:20:53Z</time></trkpt><trkpt lat="42.986788479036605" lon="12.728659041062453"><ele>286.0</ele><time>2026-04-27T11:20:54Z</time></trkpt><trkpt lat="42.98691808073126" lon="12.728804489815964"><ele>283.0</ele><time>2026-04-27T11:20:55Z</time></trkpt><trkpt lat="42.987053358779775" lon="12.728947770533381"><ele>280.0</ele><time>2026-04-27T11:20:56Z</time></trkpt><trkpt lat="42.98718869916097" lon="12.729082637725847"><ele>280.0</ele><time>2026-04-27T11:20:57Z</time></trkpt><trkpt lat="42.987334557831815" lon="12.729218188616013"><ele>280.0</ele><time>2026-04-27T11:20:58Z</time></trkpt><trkpt lat="42.98748243966723" lon="12.729344601573265"><ele>280.0</ele><time>2026-04-27T11:20:59Z</time></trkpt><trkpt lat="42.987629993600486" lon="12.729464463384165"><ele>279.66666666666663</ele><time>2026-04-27T11:21:00Z</time></trkpt><trkpt lat="42.98778265332063" lon="12.729583275925195"><ele>279.3333333333333</ele><time>2026-04-27T11:21:01Z</time></trkpt><trkpt lat="42.987939817636864" lon="12.72969891671273"><ele>279.0</ele><time>2026-04-27T11:21:02Z</time></trkpt><trkpt lat="42.988096957112475" lon="12.729810800731794"><ele>279.0</ele><time>2026-04-27T11:21:03Z</time></trkpt><trkpt lat="42.98825636145677" lon="12.729920630902884"><ele>279.0</ele><time>2026-04-27T11:21:04Z</time></trkpt><trkpt lat="42.98841617299429" lon="12.730031918018483"><ele>279.0</ele><time>2026-04-27T11:21:05Z</time></trkpt><trkpt lat="42.98857300032996" lon="12.730141994660524"><ele>278.6666666666667</ele><time>2026-04-27T11:21:06Z</time></trkpt><trkpt lat="42.98872632279769" lon="12.730251022933562"><ele>278.33333333333337</ele><time>2026-04-27T11:21:07Z</time></trkpt><trkpt lat="42.98887803738392" lon="12.73035833690646"><ele>278.0</ele><time>2026-04-27T11:21:08Z</time></trkpt><trkpt lat="42.98903090527424" lon="12.730466762527836"><ele>280.33333333333337</ele><time>2026-04-27T11:21:09Z</time></trkpt><trkpt lat="42.989182361276946" lon="12.730576997727756"><ele>282.6666666666667</ele><time>2026-04-27T11:21:10Z</time></trkpt><trkpt lat="42.98933578127994" lon="12.730691081570829"><ele>285.0</ele><time>2026-04-27T11:21:11Z</time></trkpt><trkpt lat="42.989489982513625" lon="12.730801695400665"><ele>285.0</ele><time>2026-04-27T11:21:12Z</time></trkpt><trkpt lat="42.989646897388376" lon="12.730912538445347"><ele>285.0</ele><time>2026-04-27T11:21:13Z</time></trkpt><trkpt lat="42.98980560154882" lon="12.731020617693813"><ele>285.0</ele><time>2026-04-27T11:21:14Z</time></trkpt><trkpt lat="42.98996606455519" lon="12.731133152002341"><ele>281.6666666666667</ele><time>2026-04-27T11:21:15Z</time></trkpt><trkpt lat="42.99012545104942" lon="12.731243852605267"><ele>278.33333333333337</ele><time>2026-04-27T11:21:16Z</time></trkpt><trkpt lat="42.99028722623563" lon="12.731356604866516"><ele>275.0</ele><time>2026-04-27T11:21:17Z</time></trkpt><trkpt lat="42.99044206029536" lon="12.731489772924695"><ele>275.0</ele><time>2026-04-27T11:21:18Z</time></trkpt><trkpt lat="42.990615206758086" lon="12.73158747173716"><ele>275.0</ele><time>2026-04-27T11:21:19Z</time></trkpt><trkpt lat="42.9907773852376" lon="12.731706178863973"><ele>275.0</ele><time>2026-04-27T11:21:20Z</time></trkpt><trkpt lat="42.99094041695257" lon="12.731825532386889"><ele>275.33333333333337</ele><time>2026-04-27T11:21:21Z</time></trkpt><trkpt lat="42.99110163219958" lon="12.731944475061379"><ele>275.6666666666667</ele><time>2026-04-27T11:21:22Z</time></trkpt><trkpt lat="42.99126442941622" lon="12.732066091091308"><ele>276.0</ele><time>2026-04-27T11:21:23Z</time></trkpt><trkpt lat="42.99142608178958" lon="12.732188826195156"><ele>276.0</ele><time>2026-04-27T11:21:24Z</time></trkpt><trkpt lat="42.991586474827095" lon="12.732313491597425"><ele>276.0</ele><time>2026-04-27T11:21:25Z</time></trkpt><trkpt lat="42.991735577241265" lon="12.732435821196537"><ele>276.0</ele><time>2026-04-27T11:21:26Z</time></trkpt><trkpt lat="42.991876838422726" lon="12.73255414717079"><ele>276.3333333333333</ele><time>2026-04-27T11:21:27Z</time></trkpt><trkpt lat="42.99201335387003" lon="12.732668222443014"><ele>276.66666666666663</ele><time>2026-04-27T11:21:28Z</time></trkpt><trkpt lat="42.99215109985791" lon="12.732787153867386"><ele>277.0</ele><time>2026-04-27T11:21:29Z</time></trkpt><trkpt lat="42.99229039164983" lon="12.732913626262297"><ele>277.0</ele><time>2026-04-27T11:21:30Z</time></trkpt><trkpt lat="42.992431062444346" lon="12.733041908963108"><ele>277.0</ele><time>2026-04-27T11:21:31Z</time></trkpt><trkpt lat="42.99257286381881" lon="12.73316857781968"><ele>277.0</ele><time>2026-04-27T11:21:32Z</time></trkpt><trkpt lat="42.99271444299576" lon="12.73329534394816"><ele>276.66666666666663</ele><time>2026-04-27T11:21:33Z</time></trkpt><trkpt lat="42.99285806465474" lon="12.733422145099535"><ele>276.3333333333333</ele><time>2026-04-27T11:21:34Z</time></trkpt><trkpt lat="42.99299958261121" lon="12.73354704885729"><ele>276.0</ele><time>2026-04-27T11:21:35Z</time></trkpt><trkpt lat="42.993138850693015" lon="12.733672300262583"><ele>276.0</ele><time>2026-04-27T11:21:36Z</time></trkpt><trkpt lat="42.9932796129064" lon="12.733795729915338"><ele>276.0</ele><time>2026-04-27T11:21:37Z</time></trkpt><trkpt lat="42.9934204286659" lon="12.733920794461701"><ele>276.0</ele><time>2026-04-27T11:21:38Z</time></trkpt><trkpt lat="42.993557743254435" lon="12.734046733876033"><ele>276.3333333333333</ele><time>2026-04-27T11:21:39Z</time></trkpt><trkpt lat="42.99369563776867" lon="12.734172914816105"><ele>276.66666666666663</ele><time>2026-04-27T11:21:40Z</time></trkpt><trkpt lat="42.99383217608741" lon="12.734295538331711"><ele>277.0</ele><time>2026-04-27T11:21:41Z</time></trkpt><trkpt lat="42.99396822394106" lon="12.734414268411298"><ele>277.0</ele><time>2026-04-27T11:21:42Z</time></trkpt><trkpt lat="42.99409965337728" lon="12.734529729004487"><ele>277.0</ele><time>2026-04-27T11:21:43Z</time></trkpt><trkpt lat="42.99422431270339" lon="12.734645418007366"><ele>277.0</ele><time>2026-04-27T11:21:44Z</time></trkpt><trkpt lat="42.994344657537624" lon="12.734757028081383"><ele>278.75</ele><time>2026-04-27T11:21:45Z</time></trkpt><trkpt lat="42.994463465912204" lon="12.734864218354243"><ele>280.5</ele><time>2026-04-27T11:21:46Z</time></trkpt><trkpt lat="42.99457923344267" lon="12.734967104949448"><ele>282.25</ele><time>2026-04-27T11:21:47Z</time></trkpt><trkpt lat="42.994689672573266" lon="12.735064445465166"><ele>284.0</ele><time>2026-04-27T11:21:48Z</time></trkpt><trkpt lat="42.99480346098891" lon="12.735163309730408"><ele>283.25</ele><time>2026-04-27T11:21:49Z</time></trkpt><trkpt lat="42.99491994491963" lon="12.735264840477134"><ele>282.5</ele><time>2026-04-27T11:21:50Z</time></trkpt><trkpt lat="42.99503325812577" lon="12.735369589763497"><ele>281.75</ele><time>2026-04-27T11:21:51Z</time></trkpt><trkpt lat="42.995149184555856" lon="12.73546975100878"><ele>281.0</ele><time>2026-04-27T11:21:52Z</time></trkpt><trkpt lat="42.99526592990484" lon="12.735570255730034"><ele>281.0</ele><time>2026-04-27T11:21:53Z</time></trkpt><trkpt lat="42.995383044377164" lon="12.735668991526332"><ele>281.0</ele><time>2026-04-27T11:21:54Z</time></trkpt><trkpt lat="42.995501558996246" lon="12.73576510787481"><ele>281.0</ele><time>2026-04-27T11:21:55Z</time></trkpt><trkpt lat="42.995621325615716" lon="12.73586223045619"><ele>281.0</ele><time>2026-04-27T11:21:56Z</time></trkpt><trkpt lat="42.99574339997063" lon="12.735957680619876"><ele>280.25</ele><time>2026-04-27T11:21:57Z</time></trkpt><trkpt lat="42.99585570058143" lon="12.736073727551567"><ele>279.5</ele><time>2026-04-27T11:21:58Z</time></trkpt><trkpt lat="42.995985815643394" lon="12.736153366833214"><ele>278.75</ele><time>2026-04-27T11:21:59Z</time></trkpt><trkpt lat="42.996106316794744" lon="12.736253212191798"><ele>278.0</ele><time>2026-04-27T11:22:00Z</time></trkpt><trkpt lat="42.996228901540874" lon="12.736352700610638"><ele>278.0</ele><time>2026-04-27T11:22:01Z</time></trkpt><trkpt lat="42.99634895752992" lon="12.73644659752094"><ele>278.0</ele><time>2026-04-27T11:22:02Z</time></trkpt><trkpt lat="42.99647500222333" lon="12.736544858405432"><ele>278.0</ele><time>2026-04-27T11:22:03Z</time></trkpt><trkpt lat="42.99660296639491" lon="12.73664396040506"><ele>278.0</ele><time>2026-04-27T11:22:04Z</time></trkpt><trkpt lat="42.99673254531877" lon="12.736746248909832"><ele>278.33333333333337</ele><time>2026-04-27T11:22:05Z</time></trkpt><trkpt lat="42.996864870205265" lon="12.736850909878628"><ele>278.6666666666667</ele><time>2026-04-27T11:22:06Z</time></trkpt><trkpt lat="42.99699878917594" lon="12.736955550550654"><ele>279.0</ele><time>2026-04-27T11:22:07Z</time></trkpt><trkpt lat="42.99713109431795" lon="12.737057927618778"><ele>279.0</ele><time>2026-04-27T11:22:08Z</time></trkpt><trkpt lat="42.99726095333718" lon="12.737162699710478"><ele>279.0</ele><time>2026-04-27T11:22:09Z</time></trkpt><trkpt lat="42.99738933501127" lon="12.737267906233562"><ele>279.0</ele><time>2026-04-27T11:22:10Z</time></trkpt><trkpt lat="42.99751776012903" lon="12.73736761460141"><ele>279.0</ele><time>2026-04-27T11:22:11Z</time></trkpt><trkpt lat="42.997645792143416" lon="12.73746620419592"><ele>278.75</ele><time>2026-04-27T11:22:12Z</time></trkpt><trkpt lat="42.99777191539016" lon="12.737562591946428"><ele>278.5</ele><time>2026-04-27T11:22:13Z</time></trkpt><trkpt lat="42.997899771271264" lon="12.737657301936503"><ele>278.25</ele><time>2026-04-27T11:22:14Z</time></trkpt><trkpt lat="42.998030556753015" lon="12.737754199345671"><ele>278.0</ele><time>2026-04-27T11:22:15Z</time></trkpt><trkpt lat="42.99816170860941" lon="12.737851792589831"><ele>278.0</ele><time>2026-04-27T11:22:16Z</time></trkpt><trkpt lat="42.99829481720175" lon="12.737945751719307"><ele>278.0</ele><time>2026-04-27T11:22:17Z</time></trkpt><trkpt lat="42.998427613758736" lon="12.738036378028239"><ele>278.0</ele><time>2026-04-27T11:22:18Z</time></trkpt><trkpt lat="42.99856343724189" lon="12.73812454148288"><ele>278.0</ele><time>2026-04-27T11:22:19Z</time></trkpt><trkpt lat="42.99870088002896" lon="12.738207904925947"><ele>279.33333333333337</ele><time>2026-04-27T11:22:20Z</time></trkpt><trkpt lat="42.998840939433805" lon="12.738290531664719"><ele>280.6666666666667</ele><time>2026-04-27T11:22:21Z</time></trkpt><trkpt lat="42.99898646740346" lon="12.738374854989443"><ele>282.0</ele><time>2026-04-27T11:22:22Z</time></trkpt><trkpt lat="42.99913405107407" lon="12.738459113988666"><ele>283.0</ele><time>2026-04-27T11:22:23Z</time></trkpt><trkpt lat="42.99928863452847" lon="12.738539275899742"><ele>284.0</ele><time>2026-04-27T11:22:24Z</time></trkpt><trkpt lat="42.999443447389226" lon="12.738612356520623"><ele>285.0</ele><time>2026-04-27T11:22:25Z</time></trkpt><trkpt lat="42.99960039428856" lon="12.73868546734645"><ele>282.3333333333333</ele><time>2026-04-27T11:22:26Z</time></trkpt><trkpt lat="42.99975917991653" lon="12.738755796167634"><ele>279.66666666666663</ele><time>2026-04-27T11:22:27Z</time></trkpt><trkpt lat="42.99992091918788" lon="12.738819848354677"><ele>277.0</ele><time>2026-04-27T11:22:28Z</time></trkpt><trkpt lat="43.00008360758806" lon="12.738879139999792"><ele>277.0</ele><time>2026-04-27T11:22:29Z</time></trkpt><trkpt lat="43.000249430401155" lon="12.738934315154541"><ele>277.0</ele><time>2026-04-27T11:22:30Z</time></trkpt><trkpt lat="43.00041716032721" lon="12.738988055318195"><ele>277.0</ele><time>2026-04-27T11:22:31Z</time></trkpt><trkpt lat="43.00059323585253" lon="12.739040737131635"><ele>277.0</ele><time>2026-04-27T11:22:32Z</time></trkpt><trkpt lat="43.000776942495555" lon="12.739091561641764"><ele>277.0</ele><time>2026-04-27T11:22:33Z</time></trkpt><trkpt lat="43.000966435726895" lon="12.739133808534541"><ele>277.0</ele><time>2026-04-27T11:22:34Z</time></trkpt><trkpt lat="43.001164692303966" lon="12.739172381171358"><ele>278.3333333333333</ele><time>2026-04-27T11:22:35Z</time></trkpt><trkpt lat="43.00136866860357" lon="12.739205696079797"><ele>279.6666666666667</ele><time>2026-04-27T11:22:36Z</time></trkpt><trkpt lat="43.001574470525824" lon="12.73923148398635"><ele>281.0</ele><time>2026-04-27T11:22:37Z</time></trkpt><trkpt lat="43.00178067588479" lon="12.739254943059406"><ele>281.0</ele><time>2026-04-27T11:22:38Z</time></trkpt><trkpt lat="43.00198570544447" lon="12.73927626922134"><ele>281.0</ele><time>2026-04-27T11:22:39Z</time></trkpt><trkpt lat="43.00218575044661" lon="12.73929380781463"><ele>281.0</ele><time>2026-04-27T11:22:40Z</time></trkpt><trkpt lat="43.00238115456207" lon="12.739311377483848"><ele>282.33333333333337</ele><time>2026-04-27T11:22:41Z</time></trkpt><trkpt lat="43.00257503906001" lon="12.739329294696885"><ele>283.6666666666667</ele><time>2026-04-27T11:22:42Z</time></trkpt><trkpt lat="43.00276496730552" lon="12.739345607243258"><ele>285.0</ele><time>2026-04-27T11:22:43Z</time></trkpt><trkpt lat="43.00295207135936" lon="12.739365832172911"><ele>285.0</ele><time>2026-04-27T11:22:44Z</time></trkpt><trkpt lat="43.003126898602076" lon="12.739378184765537"><ele>285.0</ele><time>2026-04-27T11:22:45Z</time></trkpt><trkpt lat="43.00329365080196" lon="12.739387889848317"><ele>285.0</ele><time>2026-04-27T11:22:46Z</time></trkpt><trkpt lat="43.003457255544305" lon="12.739402258048859"><ele>284.6666666666667</ele><time>2026-04-27T11:22:47Z</time></trkpt><trkpt lat="43.003617037310136" lon="12.73941721085772"><ele>284.33333333333337</ele><time>2026-04-27T11:22:48Z</time></trkpt><trkpt lat="43.003775836719356" lon="12.739432602214368"><ele>284.0</ele><time>2026-04-27T11:22:49Z</time></trkpt><trkpt lat="43.003937782199145" lon="12.739447406153143"><ele>284.0</ele><time>2026-04-27T11:22:50Z</time></trkpt><trkpt lat="43.00410147627534" lon="12.739458068317214"><ele>284.0</ele><time>2026-04-27T11:22:51Z</time></trkpt><trkpt lat="43.00426588082064" lon="12.73947244973038"><ele>284.0</ele><time>2026-04-27T11:22:52Z</time></trkpt><trkpt lat="43.00443165686619" lon="12.739486122028078"><ele>284.0</ele><time>2026-04-27T11:22:53Z</time></trkpt><trkpt lat="43.00459479922078" lon="12.739500274169629"><ele>284.0</ele><time>2026-04-27T11:22:54Z</time></trkpt><trkpt lat="43.004754498860024" lon="12.739513697757602"><ele>284.0</ele><time>2026-04-27T11:22:55Z</time></trkpt><trkpt lat="43.00491547747971" lon="12.73952907500477"><ele>284.0</ele><time>2026-04-27T11:22:56Z</time></trkpt><trkpt lat="43.005080752720076" lon="12.739547157217656"><ele>284.0</ele><time>2026-04-27T11:22:57Z</time></trkpt><trkpt lat="43.005247294138" lon="12.739562450914052"><ele>284.0</ele><time>2026-04-27T11:22:58Z</time></trkpt><trkpt lat="43.00542151256384" lon="12.739572571318957"><ele>284.0</ele><time>2026-04-27T11:22:59Z</time></trkpt><trkpt lat="43.00559942266502" lon="12.739585420866256"><ele>284.0</ele><time>2026-04-27T11:23:00Z</time></trkpt><trkpt lat="43.00578157981982" lon="12.739601108573057"><ele>284.0</ele><time>2026-04-27T11:23:01Z</time></trkpt><trkpt lat="43.00596712107386" lon="12.73961699792199"><ele>284.33333333333337</ele><time>2026-04-27T11:23:02Z</time></trkpt><trkpt lat="43.00615259263431" lon="12.739635355023173"><ele>284.6666666666667</ele><time>2026-04-27T11:23:03Z</time></trkpt><trkpt lat="43.006340194608164" lon="12.739652029603258"><ele>285.0</ele><time>2026-04-27T11:23:04Z</time></trkpt><trkpt lat="43.00653146209716" lon="12.739668690260832"><ele>285.0</ele><time>2026-04-27T11:23:05Z</time></trkpt><trkpt lat="43.006722776840114" lon="12.73968592131938"><ele>285.0</ele><time>2026-04-27T11:23:06Z</time></trkpt><trkpt lat="43.006914224310755" lon="12.739702165218251"><ele>285.0</ele><time>2026-04-27T11:23:07Z</time></trkpt><trkpt lat="43.00710465270063" lon="12.739716977893616"><ele>285.0</ele><time>2026-04-27T11:23:08Z</time></trkpt><trkpt lat="43.0072937893521" lon="12.739732810346023"><ele>285.0</ele><time>2026-04-27T11:23:09Z</time></trkpt><trkpt lat="43.00748056391757" lon="12.739747752074736"><ele>285.0</ele><time>2026-04-27T11:23:10Z</time></trkpt><trkpt lat="43.00766255438379" lon="12.7397637560484"><ele>285.6666666666667</ele><time>2026-04-27T11:23:11Z</time></trkpt><trkpt lat="43.00784490932118" lon="12.739775922203311"><ele>286.33333333333337</ele><time>2026-04-27T11:23:12Z</time></trkpt><trkpt lat="43.00802750049719" lon="12.739790766235465"><ele>287.0</ele><time>2026-04-27T11:23:13Z</time></trkpt><trkpt lat="43.00820980955303" lon="12.739807910156191"><ele>288.33333333333337</ele><time>2026-04-27T11:23:14Z</time></trkpt><trkpt lat="43.00838925946818" lon="12.739850387781315"><ele>289.6666666666667</ele><time>2026-04-27T11:23:15Z</time></trkpt><trkpt lat="43.00857221436309" lon="12.739853343487672"><ele>291.0</ele><time>2026-04-27T11:23:16Z</time></trkpt><trkpt lat="43.00875547990523" lon="12.739884268396084"><ele>291.0</ele><time>2026-04-27T11:23:17Z</time></trkpt><trkpt lat="43.00893627060407" lon="12.739929947528637"><ele>291.0</ele><time>2026-04-27T11:23:18Z</time></trkpt><trkpt lat="43.00911719500776" lon="12.739988921569944"><ele>291.0</ele><time>2026-04-27T11:23:19Z</time></trkpt><trkpt lat="43.00929674053175" lon="12.74006734857629"><ele>291.6666666666667</ele><time>2026-04-27T11:23:20Z</time></trkpt><trkpt lat="43.00947012348833" lon="12.740155810219898"><ele>292.33333333333337</ele><time>2026-04-27T11:23:21Z</time></trkpt><trkpt lat="43.00963736052834" lon="12.740244976628992"><ele>293.0</ele><time>2026-04-27T11:23:22Z</time></trkpt><trkpt lat="43.009805917965245" lon="12.740347121581438"><ele>293.0</ele><time>2026-04-27T11:23:23Z</time></trkpt><trkpt lat="43.00997505641278" lon="12.740468692225875"><ele>293.0</ele><time>2026-04-27T11:23:24Z</time></trkpt><trkpt lat="43.01014097479122" lon="12.740601575267682"><ele>293.0</ele><time>2026-04-27T11:23:25Z</time></trkpt><trkpt lat="43.01030732079232" lon="12.740740178671333"><ele>293.33333333333337</ele><time>2026-04-27T11:23:26Z</time></trkpt><trkpt lat="43.01047070771129" lon="12.740876449758291"><ele>293.6666666666667</ele><time>2026-04-27T11:23:27Z</time></trkpt><trkpt lat="43.010630550393046" lon="12.74100755406337"><ele>294.0</ele><time>2026-04-27T11:23:28Z</time></trkpt><trkpt lat="43.01078347403978" lon="12.741145203552819"><ele>295.3333333333333</ele><time>2026-04-27T11:23:29Z</time></trkpt><trkpt lat="43.01092564630195" lon="12.741294456411996"><ele>296.66666666666663</ele><time>2026-04-27T11:23:30Z</time></trkpt><trkpt lat="43.011056433533945" lon="12.741458550231792"><ele>298.0</ele><time>2026-04-27T11:23:31Z</time></trkpt><trkpt lat="43.01117014251739" lon="12.741633271378012"><ele>298.0</ele><time>2026-04-27T11:23:32Z</time></trkpt><trkpt lat="43.01127053887233" lon="12.741822751602598"><ele>298.0</ele><time>2026-04-27T11:23:33Z</time></trkpt><trkpt lat="43.01135978011019" lon="12.742024437743032"><ele>298.0</ele><time>2026-04-27T11:23:34Z</time></trkpt><trkpt lat="43.01143710459926" lon="12.742233754364166"><ele>298.0</ele><time>2026-04-27T11:23:35Z</time></trkpt><trkpt lat="43.01150483317875" lon="12.742445325200293"><ele>298.0</ele><time>2026-04-27T11:23:36Z</time></trkpt><trkpt lat="43.01156514136293" lon="12.742662079989609"><ele>298.0</ele><time>2026-04-27T11:23:37Z</time></trkpt><trkpt lat="43.01162295333554" lon="12.742883625319125"><ele>299.0</ele><time>2026-04-27T11:23:38Z</time></trkpt><trkpt lat="43.01168382319964" lon="12.743103000219493"><ele>300.0</ele><time>2026-04-27T11:23:39Z</time></trkpt><trkpt lat="43.01174733936978" lon="12.743326073698816"><ele>301.0</ele><time>2026-04-27T11:23:40Z</time></trkpt><trkpt lat="43.011808941291875" lon="12.743550464392635"><ele>301.0</ele><time>2026-04-27T11:23:41Z</time></trkpt><trkpt lat="43.01186844492593" lon="12.743774070606252"><ele>301.0</ele><time>2026-04-27T11:23:42Z</time></trkpt><trkpt lat="43.011926679026544" lon="12.74399260563538"><ele>301.0</ele><time>2026-04-27T11:23:43Z</time></trkpt><trkpt lat="43.011981024167056" lon="12.744200869853502"><ele>301.66666666666663</ele><time>2026-04-27T11:23:44Z</time></trkpt><trkpt lat="43.012035737602325" lon="12.744409073555751"><ele>302.3333333333333</ele><time>2026-04-27T11:23:45Z</time></trkpt><trkpt lat="43.01209182623581" lon="12.744619296039291"><ele>303.0</ele><time>2026-04-27T11:23:46Z</time></trkpt><trkpt lat="43.012151471589625" lon="12.744823560073833"><ele>303.0</ele><time>2026-04-27T11:23:47Z</time></trkpt><trkpt lat="43.01221951338883" lon="12.745030372958487"><ele>303.0</ele><time>2026-04-27T11:23:48Z</time></trkpt><trkpt lat="43.01229063574112" lon="12.745237317812666"><ele>303.0</ele><time>2026-04-27T11:23:49Z</time></trkpt><trkpt lat="43.012365738215344" lon="12.745439657876037"><ele>303.0</ele><time>2026-04-27T11:23:50Z</time></trkpt><trkpt lat="43.01244678625748" lon="12.745644516755885"><ele>303.0</ele><time>2026-04-27T11:23:51Z</time></trkpt><trkpt lat="43.012530363917136" lon="12.745842370120018"><ele>303.0</ele><time>2026-04-27T11:23:52Z</time></trkpt><trkpt lat="43.012614740653156" lon="12.746032279841764"><ele>303.6666666666667</ele><time>2026-04-27T11:23:53Z</time></trkpt><trkpt lat="43.01270081767628" lon="12.746213839408233"><ele>304.33333333333337</ele><time>2026-04-27T11:23:54Z</time></trkpt><trkpt lat="43.012783763541826" lon="12.746384542908844"><ele>305.0</ele><time>2026-04-27T11:23:55Z</time></trkpt><trkpt lat="43.01287640255782" lon="12.746556045889935"><ele>305.0</ele><time>2026-04-27T11:23:56Z</time></trkpt><trkpt lat="43.01298980564127" lon="12.74673504647333"><ele>305.0</ele><time>2026-04-27T11:23:57Z</time></trkpt><trkpt lat="43.01311362964665" lon="12.74692477782181"><ele>305.0</ele><time>2026-04-27T11:23:58Z</time></trkpt><trkpt lat="43.01324530277081" lon="12.747118097606304"><ele>304.0</ele><time>2026-04-27T11:23:59Z</time></trkpt><trkpt lat="43.01338822745587" lon="12.747314061586634"><ele>303.0</ele><time>2026-04-27T11:24:00Z</time></trkpt><trkpt lat="43.01354542821943" lon="12.747506668714639"><ele>302.0</ele><time>2026-04-27T11:24:01Z</time></trkpt><trkpt lat="43.01371428179038" lon="12.74769329331163"><ele>302.6666666666667</ele><time>2026-04-27T11:24:02Z</time></trkpt><trkpt lat="43.01388877490457" lon="12.747871596741344"><ele>303.3333333333333</ele><time>2026-04-27T11:24:03Z</time></trkpt><trkpt lat="43.01407170722719" lon="12.748039424426992"><ele>304.0</ele><time>2026-04-27T11:24:04Z</time></trkpt><trkpt lat="43.01426181934376" lon="12.748201881787814"><ele>304.0</ele><time>2026-04-27T11:24:05Z</time></trkpt><trkpt lat="43.01445851828887" lon="12.748357552392767"><ele>304.0</ele><time>2026-04-27T11:24:06Z</time></trkpt><trkpt lat="43.014658356453715" lon="12.748487039687811"><ele>304.0</ele><time>2026-04-27T11:24:07Z</time></trkpt><trkpt lat="43.014858183144014" lon="12.748605395008493"><ele>303.5</ele><time>2026-04-27T11:24:08Z</time></trkpt><trkpt lat="43.015073372965105" lon="12.748724436749356"><ele>303.0</ele><time>2026-04-27T11:24:09Z</time></trkpt><trkpt lat="43.01529082161294" lon="12.748830632320066"><ele>303.0</ele><time>2026-04-27T11:24:10Z</time></trkpt><trkpt lat="43.01551171840936" lon="12.748935603149528"><ele>303.0</ele><time>2026-04-27T11:24:11Z</time></trkpt><trkpt lat="43.01573321066779" lon="12.74903778340748"><ele>303.5</ele><time>2026-04-27T11:24:12Z</time></trkpt><trkpt lat="43.01595512513082" lon="12.749136165305304"><ele>304.0</ele><time>2026-04-27T11:24:13Z</time></trkpt><trkpt lat="43.01617795612234" lon="12.749235778232004"><ele>304.0</ele><time>2026-04-27T11:24:14Z</time></trkpt><trkpt lat="43.016399869569" lon="12.749337278242722"><ele>304.0</ele><time>2026-04-27T11:24:15Z</time></trkpt><trkpt lat="43.01662091144798" lon="12.74944197313342"><ele>308.0</ele><time>2026-04-27T11:24:16Z</time></trkpt><trkpt lat="43.016841441399464" lon="12.749549922123089"><ele>312.0</ele><time>2026-04-27T11:24:17Z</time></trkpt><trkpt lat="43.0170600634073" lon="12.749668466499033"><ele>312.0</ele><time>2026-04-27T11:24:18Z</time></trkpt><trkpt lat="43.01727193389428" lon="12.749799335940047"><ele>312.0</ele><time>2026-04-27T11:24:19Z</time></trkpt><trkpt lat="43.01748019853956" lon="12.749944116137682"><ele>310.5</ele><time>2026-04-27T11:24:20Z</time></trkpt><trkpt lat="43.01768533506176" lon="12.750102333701406"><ele>309.0</ele><time>2026-04-27T11:24:21Z</time></trkpt><trkpt lat="43.01788683072747" lon="12.750271454570159"><ele>314.0</ele><time>2026-04-27T11:24:22Z</time></trkpt><trkpt lat="43.01808154411099" lon="12.750451490940941"><ele>319.0</ele><time>2026-04-27T11:24:23Z</time></trkpt><trkpt lat="43.018274456116856" lon="12.75063946999973"><ele>315.0</ele><time>2026-04-27T11:24:24Z</time></trkpt><trkpt lat="43.01846435620147" lon="12.750827938760134"><ele>311.0</ele><time>2026-04-27T11:24:25Z</time></trkpt><trkpt lat="43.018651889115255" lon="12.751016121305987"><ele>312.0</ele><time>2026-04-27T11:24:26Z</time></trkpt><trkpt lat="43.018838184157026" lon="12.751204482115577"><ele>313.0</ele><time>2026-04-27T11:24:27Z</time></trkpt><trkpt lat="43.01902126973104" lon="12.751387089769011"><ele>312.0</ele><time>2026-04-27T11:24:28Z</time></trkpt><trkpt lat="43.019205049088306" lon="12.751567143250314"><ele>311.0</ele><time>2026-04-27T11:24:29Z</time></trkpt><trkpt lat="43.019388873062454" lon="12.751734878169835"><ele>310.0</ele><time>2026-04-27T11:24:30Z</time></trkpt><trkpt lat="43.01957434531" lon="12.751894020561656"><ele>309.66666666666663</ele><time>2026-04-27T11:24:31Z</time></trkpt><trkpt lat="43.01976455833691" lon="12.752050628063433"><ele>309.3333333333333</ele><time>2026-04-27T11:24:32Z</time></trkpt><trkpt lat="43.01995885038772" lon="12.752194323042632"><ele>309.0</ele><time>2026-04-27T11:24:33Z</time></trkpt><trkpt lat="43.02015623386593" lon="12.752324032298498"><ele>309.6666666666667</ele><time>2026-04-27T11:24:34Z</time></trkpt><trkpt lat="43.02035766272662" lon="12.752436597878123"><ele>310.33333333333337</ele><time>2026-04-27T11:24:35Z</time></trkpt><trkpt lat="43.02056316956251" lon="12.752534527283006"><ele>311.0</ele><time>2026-04-27T11:24:36Z</time></trkpt><trkpt lat="43.02077485421024" lon="12.752622763077659"><ele>311.6666666666667</ele><time>2026-04-27T11:24:37Z</time></trkpt><trkpt lat="43.02098554443638" lon="12.752687928788074"><ele>312.3333333333333</ele><time>2026-04-27T11:24:38Z</time></trkpt><trkpt lat="43.0211970725131" lon="12.752741684006645"><ele>313.0</ele><time>2026-04-27T11:24:39Z</time></trkpt><trkpt lat="43.02140797528091" lon="12.752778067866288"><ele>313.0</ele><time>2026-04-27T11:24:40Z</time></trkpt><trkpt lat="43.02161946790005" lon="12.752802447056535"><ele>313.0</ele><time>2026-04-27T11:24:41Z</time></trkpt><trkpt lat="43.02182971413593" lon="12.752811848908397"><ele>313.0</ele><time>2026-04-27T11:24:42Z</time></trkpt><trkpt lat="43.02203555668544" lon="12.752804510081797"><ele>313.3333333333333</ele><time>2026-04-27T11:24:43Z</time></trkpt><trkpt lat="43.022236449875905" lon="12.752778564548436"><ele>313.6666666666667</ele><time>2026-04-27T11:24:44Z</time></trkpt><trkpt lat="43.022437488094006" lon="12.752744868992167"><ele>314.0</ele><time>2026-04-27T11:24:45Z</time></trkpt><trkpt lat="43.022639934537324" lon="12.752707708857285"><ele>314.6666666666667</ele><time>2026-04-27T11:24:46Z</time></trkpt><trkpt lat="43.022843380965355" lon="12.752666980262903"><ele>315.3333333333333</ele><time>2026-04-27T11:24:47Z</time></trkpt><trkpt lat="43.02304666330819" lon="12.752620390962102"><ele>316.0</ele><time>2026-04-27T11:24:48Z</time></trkpt><trkpt lat="43.02325015562556" lon="12.752568822581388"><ele>315.0</ele><time>2026-04-27T11:24:49Z</time></trkpt><trkpt lat="43.023454217906504" lon="12.752516024558703"><ele>314.0</ele><time>2026-04-27T11:24:50Z</time></trkpt><trkpt lat="43.02365926164897" lon="12.752468087036478"><ele>313.0</ele><time>2026-04-27T11:24:51Z</time></trkpt><trkpt lat="43.02386713739958" lon="12.7524250013573"><ele>313.0</ele><time>2026-04-27T11:24:52Z</time></trkpt><trkpt lat="43.02407596557384" lon="12.752390954812272"><ele>313.0</ele><time>2026-04-27T11:24:53Z</time></trkpt><trkpt lat="43.02428294727504" lon="12.75236810479774"><ele>313.0</ele><time>2026-04-27T11:24:54Z</time></trkpt><trkpt lat="43.02449181494901" lon="12.752359567936487"><ele>314.66666666666663</ele><time>2026-04-27T11:24:55Z</time></trkpt><trkpt lat="43.024701109815986" lon="12.752360813528064"><ele>316.3333333333333</ele><time>2026-04-27T11:24:56Z</time></trkpt><trkpt lat="43.0249132381288" lon="12.75237903282559"><ele>318.0</ele><time>2026-04-27T11:24:57Z</time></trkpt><trkpt lat="43.0251216261621" lon="12.752414874093882"><ele>318.0</ele><time>2026-04-27T11:24:58Z</time></trkpt><trkpt lat="43.02532475443505" lon="12.752464258784894"><ele>318.0</ele><time>2026-04-27T11:24:59Z</time></trkpt><trkpt lat="43.02552752801139" lon="12.75252834111447"><ele>318.0</ele><time>2026-04-27T11:25:00Z</time></trkpt><trkpt lat="43.02572988233514" lon="12.752611179361123"><ele>319.6666666666667</ele><time>2026-04-27T11:25:01Z</time></trkpt><trkpt lat="43.02592634194389" lon="12.752703921246248"><ele>321.33333333333337</ele><time>2026-04-27T11:25:02Z</time></trkpt><trkpt lat="43.02611961453573" lon="12.752811253478034"><ele>323.0</ele><time>2026-04-27T11:25:03Z</time></trkpt><trkpt lat="43.02630898763686" lon="12.752933680167754"><ele>322.6666666666667</ele><time>2026-04-27T11:25:04Z</time></trkpt><trkpt lat="43.02649602129889" lon="12.753069686740929"><ele>322.3333333333333</ele><time>2026-04-27T11:25:05Z</time></trkpt><trkpt lat="43.026679698174014" lon="12.753213181000886"><ele>322.0</ele><time>2026-04-27T11:25:06Z</time></trkpt><trkpt lat="43.02685488022962" lon="12.753368214646821"><ele>322.0</ele><time>2026-04-27T11:25:07Z</time></trkpt><trkpt lat="43.027020773981825" lon="12.753537165197281"><ele>322.0</ele><time>2026-04-27T11:25:08Z</time></trkpt><trkpt lat="43.027183791605125" lon="12.75371699465714"><ele>322.0</ele><time>2026-04-27T11:25:09Z</time></trkpt><trkpt lat="43.02733777901108" lon="12.753908474974773"><ele>322.66666666666663</ele><time>2026-04-27T11:25:10Z</time></trkpt><trkpt lat="43.027483416931275" lon="12.754108511003286"><ele>323.3333333333333</ele><time>2026-04-27T11:25:11Z</time></trkpt><trkpt lat="43.027620219913445" lon="12.75432232568653"><ele>324.0</ele><time>2026-04-27T11:25:12Z</time></trkpt><trkpt lat="43.027749751419286" lon="12.754547592941464"><ele>324.0</ele><time>2026-04-27T11:25:13Z</time></trkpt><trkpt lat="43.02787054383526" lon="12.754783278199056"><ele>324.0</ele><time>2026-04-27T11:25:14Z</time></trkpt><trkpt lat="43.02798567396688" lon="12.755025832647975"><ele>324.0</ele><time>2026-04-27T11:25:15Z</time></trkpt><trkpt lat="43.028094612842374" lon="12.755274348640587"><ele>324.3333333333333</ele><time>2026-04-27T11:25:16Z</time></trkpt><trkpt lat="43.02819776730877" lon="12.755529795130363"><ele>324.66666666666663</ele><time>2026-04-27T11:25:17Z</time></trkpt><trkpt lat="43.02829956967465" lon="12.755783316114142"><ele>325.0</ele><time>2026-04-27T11:25:18Z</time></trkpt><trkpt lat="43.02839970712309" lon="12.756031813859092"><ele>324.0</ele><time>2026-04-27T11:25:19Z</time></trkpt><trkpt lat="43.02849568606252" lon="12.75628294051761"><ele>323.0</ele><time>2026-04-27T11:25:20Z</time></trkpt><trkpt lat="43.02859199055431" lon="12.756535092516241"><ele>322.0</ele><time>2026-04-27T11:25:21Z</time></trkpt><trkpt lat="43.02869391985375" lon="12.756783382101636"><ele>322.3333333333333</ele><time>2026-04-27T11:25:22Z</time></trkpt><trkpt lat="43.028783717872116" lon="12.757041055412492"><ele>322.6666666666667</ele><time>2026-04-27T11:25:23Z</time></trkpt><trkpt lat="43.02889221336247" lon="12.757286541235368"><ele>323.0</ele><time>2026-04-27T11:25:24Z</time></trkpt><trkpt lat="43.02902131901818" lon="12.757515655212682"><ele>324.0</ele><time>2026-04-27T11:25:25Z</time></trkpt><trkpt lat="43.02914296259011" lon="12.757749752638198"><ele>325.0</ele><time>2026-04-27T11:25:26Z</time></trkpt><trkpt lat="43.02927178536413" lon="12.757967023555006"><ele>326.0</ele><time>2026-04-27T11:25:27Z</time></trkpt><trkpt lat="43.029409273689375" lon="12.758170243313801"><ele>326.0</ele><time>2026-04-27T11:25:28Z</time></trkpt><trkpt lat="43.02955655033734" lon="12.758361436638927"><ele>326.0</ele><time>2026-04-27T11:25:29Z</time></trkpt><trkpt lat="43.02971153462715" lon="12.758545619445174"><ele>326.0</ele><time>2026-04-27T11:25:29.999Z</time></trkpt><trkpt lat="43.02987422827149" lon="12.758716903436069"><ele>326.33333333333337</ele><time>2026-04-27T11:25:30.999Z</time></trkpt><trkpt lat="43.03004602973552" lon="12.758878038730968"><ele>326.6666666666667</ele><time>2026-04-27T11:25:31.999Z</time></trkpt><trkpt lat="43.030224538955785" lon="12.759023347446398"><ele>327.0</ele><time>2026-04-27T11:25:32.999Z</time></trkpt><trkpt lat="43.0304079031881" lon="12.759155645352436"><ele>327.0</ele><time>2026-04-27T11:25:33.999Z</time></trkpt><trkpt lat="43.03059621106211" lon="12.75927061847246"><ele>327.0</ele><time>2026-04-27T11:25:34.999Z</time></trkpt><trkpt lat="43.03078849481819" lon="12.759371695326344"><ele>327.0</ele><time>2026-04-27T11:25:35.999Z</time></trkpt><trkpt lat="43.0309831857377" lon="12.75945770554225"><ele>326.3333333333333</ele><time>2026-04-27T11:25:36.999Z</time></trkpt><trkpt lat="43.031180928501314" lon="12.759528541608862"><ele>325.66666666666663</ele><time>2026-04-27T11:25:37.999Z</time></trkpt><trkpt lat="43.031380003854" lon="12.75958288880556"><ele>325.0</ele><time>2026-04-27T11:25:38.999Z</time></trkpt><trkpt lat="43.031578332419095" lon="12.759622309346142"><ele>326.66666666666663</ele><time>2026-04-27T11:25:39.999Z</time></trkpt><trkpt lat="43.03177915658205" lon="12.75964486001851"><ele>328.3333333333333</ele><time>2026-04-27T11:25:40.999Z</time></trkpt><trkpt lat="43.03197892586311" lon="12.759652753025792"><ele>330.0</ele><time>2026-04-27T11:25:42Z</time></trkpt><trkpt lat="43.03217686827067" lon="12.759647337295194"><ele>330.0</ele><time>2026-04-27T11:25:43Z</time></trkpt><trkpt lat="43.03237441424916" lon="12.759625061829254"><ele>330.0</ele><time>2026-04-27T11:25:44Z</time></trkpt><trkpt lat="43.03256995791834" lon="12.759590267386676"><ele>330.0</ele><time>2026-04-27T11:25:45Z</time></trkpt><trkpt lat="43.032763338874275" lon="12.759544115336794"><ele>329.6666666666667</ele><time>2026-04-27T11:25:46Z</time></trkpt><trkpt lat="43.03295516936336" lon="12.759482775122462"><ele>329.33333333333337</ele><time>2026-04-27T11:25:47Z</time></trkpt><trkpt lat="43.03314705135945" lon="12.759402947609207"><ele>329.0</ele><time>2026-04-27T11:25:48Z</time></trkpt><trkpt lat="43.0333371245701" lon="12.759306507375609"><ele>330.33333333333337</ele><time>2026-04-27T11:25:49Z</time></trkpt><trkpt lat="43.033525091815186" lon="12.759193591962747"><ele>331.6666666666667</ele><time>2026-04-27T11:25:50Z</time></trkpt><trkpt lat="43.03370952058001" lon="12.759064021847642"><ele>333.0</ele><time>2026-04-27T11:25:51Z</time></trkpt><trkpt lat="43.03389168388122" lon="12.758928377803054"><ele>333.0</ele><time>2026-04-27T11:25:52Z</time></trkpt><trkpt lat="43.03407040135081" lon="12.75878428274194"><ele>333.0</ele><time>2026-04-27T11:25:53Z</time></trkpt><trkpt lat="43.03424470587042" lon="12.758624763953545"><ele>333.0</ele><time>2026-04-27T11:25:54Z</time></trkpt><trkpt lat="43.03441697073186" lon="12.758457683650892"><ele>336.6666666666667</ele><time>2026-04-27T11:25:55Z</time></trkpt><trkpt lat="43.03458985539455" lon="12.758294533046124"><ele>340.33333333333337</ele><time>2026-04-27T11:25:56Z</time></trkpt><trkpt lat="43.03475990476419" lon="12.758124472116796"><ele>344.0</ele><time>2026-04-27T11:25:57Z</time></trkpt><trkpt lat="43.03492869027114" lon="12.757953991715457"><ele>346.33333333333337</ele><time>2026-04-27T11:25:58Z</time></trkpt><trkpt lat="43.03509702391707" lon="12.757782981733984"><ele>348.6666666666667</ele><time>2026-04-27T11:25:59Z</time></trkpt><trkpt lat="43.0352670768719" lon="12.757612716568222"><ele>351.0</ele><time>2026-04-27T11:26:00Z</time></trkpt><trkpt lat="43.03543983408129" lon="12.757456603182439"><ele>351.0</ele><time>2026-04-27T11:26:01Z</time></trkpt><trkpt lat="43.035616019466524" lon="12.75730833734632"><ele>351.0</ele><time>2026-04-27T11:26:02Z</time></trkpt><trkpt lat="43.03579606116537" lon="12.757175294602327"><ele>351.0</ele><time>2026-04-27T11:26:03Z</time></trkpt><trkpt lat="43.035979575394904" lon="12.757054691417263"><ele>350.3333333333333</ele><time>2026-04-27T11:26:04Z</time></trkpt><trkpt lat="43.03616741862955" lon="12.756954691846445"><ele>349.66666666666663</ele><time>2026-04-27T11:26:05Z</time></trkpt><trkpt lat="43.0363583086884" lon="12.756879911205596"><ele>349.0</ele><time>2026-04-27T11:26:06Z</time></trkpt><trkpt lat="43.03655517849436" lon="12.756817239123782"><ele>348.3333333333333</ele><time>2026-04-27T11:26:07Z</time></trkpt><trkpt lat="43.036755973659766" lon="12.756768340559422"><ele>347.6666666666667</ele><time>2026-04-27T11:26:08Z</time></trkpt><trkpt lat="43.03695845694573" lon="12.756727804926472"><ele>347.0</ele><time>2026-04-27T11:26:09Z</time></trkpt><trkpt lat="43.03716410613514" lon="12.75669565664089"><ele>347.0</ele><time>2026-04-27T11:26:10Z</time></trkpt><trkpt lat="43.037371104924965" lon="12.756661376987081"><ele>347.0</ele><time>2026-04-27T11:26:11Z</time></trkpt><trkpt lat="43.03758192939857" lon="12.756625863713076"><ele>347.0</ele><time>2026-04-27T11:26:12Z</time></trkpt><trkpt lat="43.03779390255998" lon="12.756587576901824"><ele>346.6666666666667</ele><time>2026-04-27T11:26:13Z</time></trkpt><trkpt lat="43.038004945956885" lon="12.756550090815917"><ele>346.3333333333333</ele><time>2026-04-27T11:26:14Z</time></trkpt><trkpt lat="43.03821927697102" lon="12.756516287816478"><ele>346.0</ele><time>2026-04-27T11:26:15Z</time></trkpt><trkpt lat="43.03843165361543" lon="12.756485854818086"><ele>344.0</ele><time>2026-04-27T11:26:16Z</time></trkpt><trkpt lat="43.03864132913746" lon="12.756461471658248"><ele>342.0</ele><time>2026-04-27T11:26:17Z</time></trkpt><trkpt lat="43.03885113589754" lon="12.756434363996528"><ele>340.0</ele><time>2026-04-27T11:26:18Z</time></trkpt><trkpt lat="43.03905861009507" lon="12.756407855792556"><ele>340.0</ele><time>2026-04-27T11:26:19Z</time></trkpt><trkpt lat="43.039264123735855" lon="12.75638095844294"><ele>340.0</ele><time>2026-04-27T11:26:20Z</time></trkpt><trkpt lat="43.03947062184364" lon="12.756352703852517"><ele>340.0</ele><time>2026-04-27T11:26:21Z</time></trkpt><trkpt lat="43.03967561412423" lon="12.756323638763517"><ele>340.0</ele><time>2026-04-27T11:26:22Z</time></trkpt><trkpt lat="43.0398821754625" lon="12.756296437590812"><ele>340.0</ele><time>2026-04-27T11:26:23Z</time></trkpt><trkpt lat="43.04008915278598" lon="12.75626717942615"><ele>340.0</ele><time>2026-04-27T11:26:24Z</time></trkpt><trkpt lat="43.040298654467016" lon="12.75624006098864"><ele>345.3333333333333</ele><time>2026-04-27T11:26:25Z</time></trkpt><trkpt lat="43.040508416224455" lon="12.756213067945367"><ele>350.6666666666667</ele><time>2026-04-27T11:26:26Z</time></trkpt><trkpt lat="43.04071960293838" lon="12.756185666501677"><ele>356.0</ele><time>2026-04-27T11:26:27Z</time></trkpt><trkpt lat="43.04093153245384" lon="12.756157452862045"><ele>362.33333333333337</ele><time>2026-04-27T11:26:28Z</time></trkpt><trkpt lat="43.041144377998634" lon="12.75613027741636"><ele>368.6666666666667</ele><time>2026-04-27T11:26:29Z</time></trkpt><trkpt lat="43.0413577781501" lon="12.756105860838032"><ele>375.0</ele><time>2026-04-27T11:26:30Z</time></trkpt><trkpt lat="43.04157145646536" lon="12.756084526334543"><ele>373.6666666666667</ele><time>2026-04-27T11:26:31Z</time></trkpt><trkpt lat="43.04178879970779" lon="12.75606237753405"><ele>372.33333333333337</ele><time>2026-04-27T11:26:32Z</time></trkpt><trkpt lat="43.04201913243432" lon="12.756039280018967"><ele>371.0</ele><time>2026-04-27T11:26:33Z</time></trkpt><trkpt lat="43.042252413353005" lon="12.756020560808917"><ele>363.0</ele><time>2026-04-27T11:26:34Z</time></trkpt><trkpt lat="43.04248209674374" lon="12.756013440094394"><ele>355.0</ele><time>2026-04-27T11:26:35Z</time></trkpt><trkpt lat="43.042713671961536" lon="12.756015926629196"><ele>355.0</ele><time>2026-04-27T11:26:36Z</time></trkpt><trkpt lat="43.04294623558787" lon="12.75602570193443"><ele>355.0</ele><time>2026-04-27T11:26:37Z</time></trkpt><trkpt lat="43.043180655115044" lon="12.75604289141646"><ele>358.5</ele><time>2026-04-27T11:26:38Z</time></trkpt><trkpt lat="43.04341502959408" lon="12.756067127078742"><ele>362.0</ele><time>2026-04-27T11:26:39Z</time></trkpt><trkpt lat="43.04364897626686" lon="12.75609746745752"><ele>362.0</ele><time>2026-04-27T11:26:40Z</time></trkpt><trkpt lat="43.04388272552271" lon="12.75612785974669"><ele>362.0</ele><time>2026-04-27T11:26:41Z</time></trkpt><trkpt lat="43.04411729115452" lon="12.756163221227286"><ele>356.5</ele><time>2026-04-27T11:26:42Z</time></trkpt><trkpt lat="43.044352418092295" lon="12.756195289913704"><ele>351.0</ele><time>2026-04-27T11:26:43Z</time></trkpt><trkpt lat="43.044590569188344" lon="12.756230094443472"><ele>351.0</ele><time>2026-04-27T11:26:44Z</time></trkpt><trkpt lat="43.044827062983316" lon="12.756264170947034"><ele>351.0</ele><time>2026-04-27T11:26:45Z</time></trkpt><trkpt lat="43.04506376094516" lon="12.756299562669454"><ele>348.5</ele><time>2026-04-27T11:26:46Z</time></trkpt><trkpt lat="43.045299389037126" lon="12.756333859299902"><ele>346.0</ele><time>2026-04-27T11:26:47Z</time></trkpt><trkpt lat="43.045536200109105" lon="12.756370001311794"><ele>346.0</ele><time>2026-04-27T11:26:48Z</time></trkpt><trkpt lat="43.04577300765576" lon="12.75640735259558"><ele>346.0</ele><time>2026-04-27T11:26:49Z</time></trkpt><trkpt lat="43.046009919558934" lon="12.756443289066835"><ele>346.5</ele><time>2026-04-27T11:26:50Z</time></trkpt><trkpt lat="43.04624964166636" lon="12.75648039522561"><ele>347.0</ele><time>2026-04-27T11:26:51Z</time></trkpt><trkpt lat="43.046488274149105" lon="12.756511984742854"><ele>348.0</ele><time>2026-04-27T11:26:52Z</time></trkpt><trkpt lat="43.046727364028776" lon="12.756546068906937"><ele>349.0</ele><time>2026-04-27T11:26:53Z</time></trkpt><trkpt lat="43.04696654536514" lon="12.756579815197972"><ele>349.0</ele><time>2026-04-27T11:26:54Z</time></trkpt><trkpt lat="43.047207174445255" lon="12.756613501608102"><ele>349.0</ele><time>2026-04-27T11:26:55Z</time></trkpt><trkpt lat="43.047448335486635" lon="12.756646396118077"><ele>350.5</ele><time>2026-04-27T11:26:56Z</time></trkpt><trkpt lat="43.047690410650354" lon="12.756679271461477"><ele>352.0</ele><time>2026-04-27T11:26:57Z</time></trkpt><trkpt lat="43.04793091876804" lon="12.756716273223773"><ele>352.0</ele><time>2026-04-27T11:26:58Z</time></trkpt><trkpt lat="43.04816824563769" lon="12.756751951736362"><ele>352.0</ele><time>2026-04-27T11:26:59Z</time></trkpt><trkpt lat="43.0484025202608" lon="12.756785968214844"><ele>353.5</ele><time>2026-04-27T11:27:00Z</time></trkpt><trkpt lat="43.0486316400806" lon="12.756821251923851"><ele>355.0</ele><time>2026-04-27T11:27:01Z</time></trkpt><trkpt lat="43.048859957988974" lon="12.7568560199772"><ele>361.5</ele><time>2026-04-27T11:27:02Z</time></trkpt><trkpt lat="43.04908696879018" lon="12.756890593138554"><ele>368.0</ele><time>2026-04-27T11:27:03Z</time></trkpt><trkpt lat="43.04931086450652" lon="12.756925524852164"><ele>368.0</ele><time>2026-04-27T11:27:04Z</time></trkpt><trkpt lat="43.04953537697167" lon="12.756960385755898"><ele>368.0</ele><time>2026-04-27T11:27:04.999Z</time></trkpt><trkpt lat="43.04975806684805" lon="12.756990912056075"><ele>364.5</ele><time>2026-04-27T11:27:05.999Z</time></trkpt><trkpt lat="43.049983429963824" lon="12.75702128048184"><ele>361.0</ele><time>2026-04-27T11:27:06.999Z</time></trkpt><trkpt lat="43.05020787478965" lon="12.757053494463191"><ele>361.0</ele><time>2026-04-27T11:27:07.999Z</time></trkpt><trkpt lat="43.05043125014959" lon="12.757086184040975"><ele>361.0</ele><time>2026-04-27T11:27:08.999Z</time></trkpt><trkpt lat="43.05065556887442" lon="12.7571159091172"><ele>360.5</ele><time>2026-04-27T11:27:09.999Z</time></trkpt><trkpt lat="43.05087953644886" lon="12.757147892850233"><ele>360.0</ele><time>2026-04-27T11:27:10.999Z</time></trkpt><trkpt lat="43.05110332505385" lon="12.757181066007723"><ele>360.0</ele><time>2026-04-27T11:27:11.999Z</time></trkpt><trkpt lat="43.05132752846152" lon="12.757213075657582"><ele>360.0</ele><time>2026-04-27T11:27:12.999Z</time></trkpt><trkpt lat="43.05155088953549" lon="12.757242384608988"><ele>359.6666666666667</ele><time>2026-04-27T11:27:13.999Z</time></trkpt><trkpt lat="43.05177327818068" lon="12.757272489167978"><ele>359.33333333333337</ele><time>2026-04-27T11:27:14.999Z</time></trkpt><trkpt lat="43.051996535179356" lon="12.757297908153015"><ele>359.0</ele><time>2026-04-27T11:27:15.999Z</time></trkpt><trkpt lat="43.052220198925525" lon="12.757318026337973"><ele>359.0</ele><time>2026-04-27T11:27:16.999Z</time></trkpt><trkpt lat="43.052444621089286" lon="12.75733554627419"><ele>359.0</ele><time>2026-04-27T11:27:17.999Z</time></trkpt><trkpt lat="43.05267002096243" lon="12.757350856062317"><ele>358.0</ele><time>2026-04-27T11:27:18.999Z</time></trkpt><trkpt lat="43.052894596302934" lon="12.75736476444017"><ele>357.0</ele><time>2026-04-27T11:27:19.999Z</time></trkpt><trkpt lat="43.05311866727802" lon="12.757373504392907"><ele>356.0</ele><time>2026-04-27T11:27:20.999Z</time></trkpt><trkpt lat="43.05334358837194" lon="12.757377650037796"><ele>356.0</ele><time>2026-04-27T11:27:21.999Z</time></trkpt><trkpt lat="43.053563226784185" lon="12.757375721870833"><ele>356.0</ele><time>2026-04-27T11:27:22.999Z</time></trkpt><trkpt lat="43.053782662172274" lon="12.75737334673418"><ele>356.0</ele><time>2026-04-27T11:27:23.999Z</time></trkpt><trkpt lat="43.0539993902385" lon="12.757365800740562"><ele>356.33333333333337</ele><time>2026-04-27T11:27:24.999Z</time></trkpt><trkpt lat="43.054210729589684" lon="12.757354962707568"><ele>356.6666666666667</ele><time>2026-04-27T11:27:25.999Z</time></trkpt><trkpt lat="43.05442094565226" lon="12.75734164259918"><ele>357.0</ele><time>2026-04-27T11:27:26.999Z</time></trkpt><trkpt lat="43.054629592107595" lon="12.757327732142517"><ele>357.0</ele><time>2026-04-27T11:27:27.999Z</time></trkpt><trkpt lat="43.05483516305776" lon="12.757306507634752"><ele>357.0</ele><time>2026-04-27T11:27:28.999Z</time></trkpt><trkpt lat="43.05504012843937" lon="12.757282037291803"><ele>357.0</ele><time>2026-04-27T11:27:29.999Z</time></trkpt><trkpt lat="43.055242282526535" lon="12.757255361094764"><ele>357.0</ele><time>2026-04-27T11:27:30.999Z</time></trkpt><trkpt lat="43.05544108868846" lon="12.757229599007067"><ele>357.0</ele><time>2026-04-27T11:27:31.999Z</time></trkpt><trkpt lat="43.05564020016574" lon="12.75719992637636"><ele>357.0</ele><time>2026-04-27T11:27:32.999Z</time></trkpt><trkpt lat="43.05583847038217" lon="12.75716800781012"><ele>360.0</ele><time>2026-04-27T11:27:33.999Z</time></trkpt><trkpt lat="43.05603756842392" lon="12.75713710285145"><ele>363.0</ele><time>2026-04-27T11:27:34.999Z</time></trkpt><trkpt lat="43.056236367617906" lon="12.757103985360862"><ele>366.0</ele><time>2026-04-27T11:27:35.999Z</time></trkpt><trkpt lat="43.0564337266448" lon="12.757075218426008"><ele>368.6666666666667</ele><time>2026-04-27T11:27:36.999Z</time></trkpt><trkpt lat="43.05663328781409" lon="12.75704532113002"><ele>371.33333333333337</ele><time>2026-04-27T11:27:37.999Z</time></trkpt><trkpt lat="43.05683166782121" lon="12.75702032527919"><ele>374.0</ele><time>2026-04-27T11:27:38.999Z</time></trkpt><trkpt lat="43.05703156183706" lon="12.756989591348308"><ele>374.0</ele><time>2026-04-27T11:27:39.999Z</time></trkpt><trkpt lat="43.05723387245549" lon="12.756959791103737"><ele>374.0</ele><time>2026-04-27T11:27:40.999Z</time></trkpt><trkpt lat="43.05743443585157" lon="12.756930429735583"><ele>374.0</ele><time>2026-04-27T11:27:41.999Z</time></trkpt><trkpt lat="43.05763690023198" lon="12.756903143564216"><ele>375.6666666666667</ele><time>2026-04-27T11:27:42.999Z</time></trkpt><trkpt lat="43.05783797018179" lon="12.756875089733777"><ele>377.3333333333333</ele><time>2026-04-27T11:27:43.999Z</time></trkpt><trkpt lat="43.05804091705832" lon="12.756845750662384"><ele>379.0</ele><time>2026-04-27T11:27:44.999Z</time></trkpt><trkpt lat="43.058244084002816" lon="12.756818782465992"><ele>373.66666666666663</ele><time>2026-04-27T11:27:45.999Z</time></trkpt><trkpt lat="43.05844471600166" lon="12.756792768728438"><ele>368.3333333333333</ele><time>2026-04-27T11:27:46.999Z</time></trkpt><trkpt lat="43.058648185092686" lon="12.756771714851837"><ele>363.0</ele><time>2026-04-27T11:27:48Z</time></trkpt><trkpt lat="43.0588523978539" lon="12.756755867132904"><ele>363.0</ele><time>2026-04-27T11:27:49Z</time></trkpt><trkpt lat="43.05905157742566" lon="12.75674257263877"><ele>363.0</ele><time>2026-04-27T11:27:50Z</time></trkpt><trkpt lat="43.05925178566595" lon="12.756733280662187"><ele>363.0</ele><time>2026-04-27T11:27:51Z</time></trkpt><trkpt lat="43.05944968398518" lon="12.756731709810465"><ele>364.0</ele><time>2026-04-27T11:27:52Z</time></trkpt><trkpt lat="43.05964002759103" lon="12.756738877456403"><ele>365.0</ele><time>2026-04-27T11:27:53Z</time></trkpt><trkpt lat="43.059829874159895" lon="12.756751336689133"><ele>366.0</ele><time>2026-04-27T11:27:54Z</time></trkpt><trkpt lat="43.06001259290914" lon="12.756770421196888"><ele>366.0</ele><time>2026-04-27T11:27:55Z</time></trkpt><trkpt lat="43.06018733065578" lon="12.756784666639463"><ele>366.0</ele><time>2026-04-27T11:27:56Z</time></trkpt><trkpt lat="43.06035542122616" lon="12.756796881030976"><ele>366.0</ele><time>2026-04-27T11:27:57Z</time></trkpt><trkpt lat="43.060517156578896" lon="12.75681950419035"><ele>366.0</ele><time>2026-04-27T11:27:58Z</time></trkpt><trkpt lat="43.06067544289454" lon="12.756842071242014"><ele>366.0</ele><time>2026-04-27T11:27:59Z</time></trkpt><trkpt lat="43.06083553170427" lon="12.756887908196301"><ele>366.0</ele><time>2026-04-27T11:28:00Z</time></trkpt><trkpt lat="43.060994206999275" lon="12.756886348840448"><ele>368.25</ele><time>2026-04-27T11:28:01Z</time></trkpt><trkpt lat="43.061147476009275" lon="12.756906729593776"><ele>370.5</ele><time>2026-04-27T11:28:02Z</time></trkpt><trkpt lat="43.06129087225229" lon="12.756927544170658"><ele>372.75</ele><time>2026-04-27T11:28:03Z</time></trkpt><trkpt lat="43.0614265614083" lon="12.7569497207866"><ele>375.0</ele><time>2026-04-27T11:28:04Z</time></trkpt><trkpt lat="43.06156045607485" lon="12.756970482125855"><ele>375.25</ele><time>2026-04-27T11:28:05Z</time></trkpt><trkpt lat="43.06168611306908" lon="12.75698802379675"><ele>375.5</ele><time>2026-04-27T11:28:06Z</time></trkpt><trkpt lat="43.06180355589647" lon="12.757003908947075"><ele>375.75</ele><time>2026-04-27T11:28:07Z</time></trkpt><trkpt lat="43.061915480141025" lon="12.757017040882145"><ele>376.0</ele><time>2026-04-27T11:28:08Z</time></trkpt><trkpt lat="43.06202396890121" lon="12.75703130293489"><ele>376.0</ele><time>2026-04-27T11:28:09Z</time></trkpt><trkpt lat="43.06212923635713" lon="12.757043939106012"><ele>376.0</ele><time>2026-04-27T11:28:10Z</time></trkpt><trkpt lat="43.06222832782792" lon="12.757056826045796"><ele>376.0</ele><time>2026-04-27T11:28:11Z</time></trkpt><trkpt lat="43.0623184818918" lon="12.757068277955689"><ele>376.0</ele><time>2026-04-27T11:28:12Z</time></trkpt><trkpt lat="43.06240345272262" lon="12.75708122105934"><ele>376.0</ele><time>2026-04-27T11:28:13Z</time></trkpt><trkpt lat="43.06247944651315" lon="12.757092240739263"><ele>376.7142857142857</ele><time>2026-04-27T11:28:14Z</time></trkpt><trkpt lat="43.06255372078171" lon="12.757102692194033"><ele>377.42857142857144</ele><time>2026-04-27T11:28:15Z</time></trkpt><trkpt lat="43.062625448810124" lon="12.757114478577298"><ele>378.1428571428571</ele><time>2026-04-27T11:28:16Z</time></trkpt><trkpt lat="43.062694526365725" lon="12.757121585519078"><ele>378.8571428571429</ele><time>2026-04-27T11:28:17Z</time></trkpt><trkpt lat="43.06276376893045" lon="12.757148033257991"><ele>379.5714285714286</ele><time>2026-04-27T11:28:18Z</time></trkpt><trkpt lat="43.062833664898974" lon="12.757156839039071"><ele>380.2857142857143</ele><time>2026-04-27T11:28:19Z</time></trkpt><trkpt lat="43.06290349544946" lon="12.757165638335243"><ele>381.0</ele><time>2026-04-27T11:28:20Z</time></trkpt><trkpt lat="43.06297612568574" lon="12.757174788603354"><ele>381.0</ele><time>2026-04-27T11:28:21Z</time></trkpt><trkpt lat="43.06305151040844" lon="12.75718494010395"><ele>381.0</ele><time>2026-04-27T11:28:22Z</time></trkpt><trkpt lat="43.063127922969606" lon="12.75719573667458"><ele>381.0</ele><time>2026-04-27T11:28:23Z</time></trkpt><trkpt lat="43.063205242143155" lon="12.7572066613526"><ele>381.0</ele><time>2026-04-27T11:28:24Z</time></trkpt><trkpt lat="43.06328047146704" lon="12.757217290738417"><ele>381.0</ele><time>2026-04-27T11:28:25Z</time></trkpt><trkpt lat="43.06335489749981" lon="12.75722780661659"><ele>381.0</ele><time>2026-04-27T11:28:26Z</time></trkpt><trkpt lat="43.063422928360474" lon="12.757237418900493"><ele>381.0</ele><time>2026-04-27T11:28:27Z</time></trkpt><trkpt lat="43.063513961857105" lon="12.757250010651216"><ele>381.3333333333333</ele><time>2026-04-27T11:28:29Z</time></trkpt><trkpt lat="43.06357932228007" lon="12.757258407378659"><ele>381.6666666666667</ele><time>2026-04-27T11:28:31Z</time></trkpt><trkpt lat="43.063699639344456" lon="12.757273864217003"><ele>382.0</ele><time>2026-04-27T11:28:47Z</time></trkpt><trkpt lat="43.06377390861509" lon="12.757263767280651"><ele>382.33333333333337</ele><time>2026-04-27T11:28:48Z</time></trkpt><trkpt lat="43.06385790547102" lon="12.757283799794822"><ele>382.6666666666667</ele><time>2026-04-27T11:28:49Z</time></trkpt><trkpt lat="43.06395164857163" lon="12.757308267346554"><ele>383.0</ele><time>2026-04-27T11:28:49.999Z</time></trkpt><trkpt lat="43.06405467388786" lon="12.757332314790096"><ele>381.75</ele><time>2026-04-27T11:28:50.999Z</time></trkpt><trkpt lat="43.06416707984633" lon="12.757352881576523"><ele>380.5</ele><time>2026-04-27T11:28:51.999Z</time></trkpt><trkpt lat="43.064286515296864" lon="12.757376138069391"><ele>379.25</ele><time>2026-04-27T11:28:52.999Z</time></trkpt><trkpt lat="43.064409848182734" lon="12.757400237813616"><ele>378.0</ele><time>2026-04-27T11:28:53.999Z</time></trkpt><trkpt lat="43.06453521956063" lon="12.757426603430819"><ele>378.0</ele><time>2026-04-27T11:28:54.999Z</time></trkpt><trkpt lat="43.064663440545594" lon="12.75745397330228"><ele>378.0</ele><time>2026-04-27T11:28:55.999Z</time></trkpt><trkpt lat="43.064790961954806" lon="12.757484167181966"><ele>378.0</ele><time>2026-04-27T11:28:56.999Z</time></trkpt><trkpt lat="43.06491958085502" lon="12.757514350309396"><ele>378.0</ele><time>2026-04-27T11:28:57.999Z</time></trkpt><trkpt lat="43.06504948137016" lon="12.757546279707293"><ele>376.25</ele><time>2026-04-27T11:28:58.999Z</time></trkpt><trkpt lat="43.065180556646105" lon="12.757580106378173"><ele>374.5</ele><time>2026-04-27T11:28:59.999Z</time></trkpt><trkpt lat="43.06531171861378" lon="12.75761980820916"><ele>372.75</ele><time>2026-04-27T11:29:00.999Z</time></trkpt><trkpt lat="43.06544345388962" lon="12.757662993333227"><ele>371.0</ele><time>2026-04-27T11:29:01.999Z</time></trkpt><trkpt lat="43.065574810259285" lon="12.757706624251503"><ele>370.5</ele><time>2026-04-27T11:29:02.999Z</time></trkpt><trkpt lat="43.065706289706455" lon="12.757750613773542"><ele>370.0</ele><time>2026-04-27T11:29:03.999Z</time></trkpt><trkpt lat="43.06583896073936" lon="12.757796586922415"><ele>369.5</ele><time>2026-04-27T11:29:04.999Z</time></trkpt><trkpt lat="43.06597432959064" lon="12.757847329797483"><ele>369.0</ele><time>2026-04-27T11:29:05.999Z</time></trkpt><trkpt lat="43.06611273912291" lon="12.75789840873006"><ele>369.0</ele><time>2026-04-27T11:29:06.999Z</time></trkpt><trkpt lat="43.066251954199565" lon="12.757951828666936"><ele>369.0</ele><time>2026-04-27T11:29:07.999Z</time></trkpt><trkpt lat="43.06639256928576" lon="12.758007551504893"><ele>369.0</ele><time>2026-04-27T11:29:08.999Z</time></trkpt><trkpt lat="43.06653403234547" lon="12.758067163799637"><ele>369.0</ele><time>2026-04-27T11:29:09.999Z</time></trkpt><trkpt lat="43.06667743616942" lon="12.758131474357512"><ele>368.3333333333333</ele><time>2026-04-27T11:29:10.999Z</time></trkpt><trkpt lat="43.066819161392445" lon="12.758202461784398"><ele>367.66666666666663</ele><time>2026-04-27T11:29:11.999Z</time></trkpt><trkpt lat="43.066961238622326" lon="12.758274760100933"><ele>367.0</ele><time>2026-04-27T11:29:12.999Z</time></trkpt><trkpt lat="43.06710368646279" lon="12.75834883676966"><ele>367.0</ele><time>2026-04-27T11:29:13.999Z</time></trkpt><trkpt lat="43.06724694621648" lon="12.758425236028252"><ele>367.0</ele><time>2026-04-27T11:29:14.999Z</time></trkpt><trkpt lat="43.06739171202109" lon="12.75850281272619"><ele>367.0</ele><time>2026-04-27T11:29:15.999Z</time></trkpt><trkpt lat="43.0675361409094" lon="12.758580877022878"><ele>367.66666666666663</ele><time>2026-04-27T11:29:16.999Z</time></trkpt><trkpt lat="43.0676839536726" lon="12.758662172360342"><ele>368.3333333333333</ele><time>2026-04-27T11:29:17.999Z</time></trkpt><trkpt lat="43.06783124029106" lon="12.758743848035305"><ele>369.0</ele><time>2026-04-27T11:29:18.999Z</time></trkpt><trkpt lat="43.06798046198897" lon="12.75882733311139"><ele>369.0</ele><time>2026-04-27T11:29:19.999Z</time></trkpt><trkpt lat="43.06812915407802" lon="12.758909670898664"><ele>369.0</ele><time>2026-04-27T11:29:20.999Z</time></trkpt><trkpt lat="43.068281257423216" lon="12.758994005056428"><ele>369.0</ele><time>2026-04-27T11:29:21.999Z</time></trkpt><trkpt lat="43.068432248485564" lon="12.759077566712948"><ele>369.3333333333333</ele><time>2026-04-27T11:29:22.999Z</time></trkpt><trkpt lat="43.068583065748015" lon="12.759163425284651"><ele>369.66666666666663</ele><time>2026-04-27T11:29:23.999Z</time></trkpt><trkpt lat="43.068733300675646" lon="12.759250363046238"><ele>370.0</ele><time>2026-04-27T11:29:24.999Z</time></trkpt><trkpt lat="43.06888427746838" lon="12.759335847415652"><ele>369.3333333333333</ele><time>2026-04-27T11:29:25.999Z</time></trkpt><trkpt lat="43.069036517112224" lon="12.759420250310598"><ele>368.6666666666667</ele><time>2026-04-27T11:29:26.999Z</time></trkpt><trkpt lat="43.06918795462634" lon="12.759505377287324"><ele>368.0</ele><time>2026-04-27T11:29:27.999Z</time></trkpt><trkpt lat="43.069340945669175" lon="12.759589556729772"><ele>368.0</ele><time>2026-04-27T11:29:28.999Z</time></trkpt><trkpt lat="43.069492490937236" lon="12.759673526210356"><ele>368.0</ele><time>2026-04-27T11:29:29.999Z</time></trkpt><trkpt lat="43.069644280889726" lon="12.759757534868525"><ele>368.0</ele><time>2026-04-27T11:29:30.999Z</time></trkpt><trkpt lat="43.06979606305713" lon="12.75984289732043"><ele>368.0</ele><time>2026-04-27T11:29:31.999Z</time></trkpt><trkpt lat="43.069937012607696" lon="12.759919923447848"><ele>368.0</ele><time>2026-04-27T11:29:32.999Z</time></trkpt><trkpt lat="43.07009593896007" lon="12.760015133705501"><ele>368.0</ele><time>2026-04-27T11:29:33.999Z</time></trkpt><trkpt lat="43.07024805431249" lon="12.760096115197598"><ele>369.0</ele><time>2026-04-27T11:29:34.999Z</time></trkpt><trkpt lat="43.07039938153508" lon="12.760178763033409"><ele>370.0</ele><time>2026-04-27T11:29:35.999Z</time></trkpt><trkpt lat="43.07055014097972" lon="12.76026242416703"><ele>371.0</ele><time>2026-04-27T11:29:36.999Z</time></trkpt><trkpt lat="43.07070141388558" lon="12.760344597223511"><ele>372.33333333333337</ele><time>2026-04-27T11:29:37.999Z</time></trkpt><trkpt lat="43.07085231190523" lon="12.760424701942323"><ele>373.6666666666667</ele><time>2026-04-27T11:29:38.999Z</time></trkpt><trkpt lat="43.0710004854684" lon="12.76050810986879"><ele>375.0</ele><time>2026-04-27T11:29:39.999Z</time></trkpt><trkpt lat="43.07114734153896" lon="12.760589591902383"><ele>375.0</ele><time>2026-04-27T11:29:40.999Z</time></trkpt><trkpt lat="43.07129525721308" lon="12.760667896285822"><ele>375.0</ele><time>2026-04-27T11:29:41.999Z</time></trkpt><trkpt lat="43.07144402194498" lon="12.76074293615998"><ele>375.0</ele><time>2026-04-27T11:29:42.999Z</time></trkpt><trkpt lat="43.071594340728765" lon="12.760813640133597"><ele>376.0</ele><time>2026-04-27T11:29:44Z</time></trkpt><trkpt lat="43.07174657659127" lon="12.760883247940557"><ele>377.0</ele><time>2026-04-27T11:29:45Z</time></trkpt><trkpt lat="43.07190034212535" lon="12.760954448301224"><ele>378.0</ele><time>2026-04-27T11:29:46Z</time></trkpt><trkpt lat="43.07205655203405" lon="12.761023997490012"><ele>378.6666666666667</ele><time>2026-04-27T11:29:47Z</time></trkpt><trkpt lat="43.072213258609956" lon="12.76108712615468"><ele>379.33333333333337</ele><time>2026-04-27T11:29:48Z</time></trkpt><trkpt lat="43.07237296236704" lon="12.76114512189109"><ele>380.0</ele><time>2026-04-27T11:29:49Z</time></trkpt><trkpt lat="43.07253574963636" lon="12.761198369912144"><ele>380.6666666666667</ele><time>2026-04-27T11:29:50Z</time></trkpt><trkpt lat="43.07270035555757" lon="12.761250457821758"><ele>381.3333333333333</ele><time>2026-04-27T11:29:51Z</time></trkpt><trkpt lat="43.07286718883081" lon="12.761301614891773"><ele>382.0</ele><time>2026-04-27T11:29:52Z</time></trkpt><trkpt lat="43.07303523906847" lon="12.761350985874103"><ele>382.0</ele><time>2026-04-27T11:29:53.001Z</time></trkpt><trkpt lat="43.07320669527815" lon="12.761401759198453"><ele>382.0</ele><time>2026-04-27T11:29:54.001Z</time></trkpt><trkpt lat="43.07338068640893" lon="12.76144621874597"><ele>382.0</ele><time>2026-04-27T11:29:55.001Z</time></trkpt><trkpt lat="43.073560611019566" lon="12.761488657237281"><ele>380.66666666666663</ele><time>2026-04-27T11:29:56.001Z</time></trkpt><trkpt lat="43.07374705958914" lon="12.761525367984735"><ele>379.3333333333333</ele><time>2026-04-27T11:29:57.001Z</time></trkpt><trkpt lat="43.07393672044859" lon="12.761557006118663"><ele>378.0</ele><time>2026-04-27T11:29:58.001Z</time></trkpt><trkpt lat="43.07412893694537" lon="12.761585101133816"><ele>377.3333333333333</ele><time>2026-04-27T11:29:59.001Z</time></trkpt><trkpt lat="43.07432220711034" lon="12.761610462519204"><ele>376.66666666666663</ele><time>2026-04-27T11:30:00.001Z</time></trkpt><trkpt lat="43.07451749318955" lon="12.761635668986486"><ele>376.0</ele><time>2026-04-27T11:30:01.001Z</time></trkpt><trkpt lat="43.0747137966487" lon="12.76166078850555"><ele>376.0</ele><time>2026-04-27T11:30:02.001Z</time></trkpt><trkpt lat="43.074911293292615" lon="12.76168597153635"><ele>376.0</ele><time>2026-04-27T11:30:03.001Z</time></trkpt><trkpt lat="43.07510851887867" lon="12.761712838043882"><ele>376.0</ele><time>2026-04-27T11:30:04.001Z</time></trkpt><trkpt lat="43.075304729103074" lon="12.761739451878624"><ele>375.3333333333333</ele><time>2026-04-27T11:30:05.001Z</time></trkpt><trkpt lat="43.07550195696636" lon="12.761763399641202"><ele>374.6666666666667</ele><time>2026-04-27T11:30:06.001Z</time></trkpt><trkpt lat="43.07570084765764" lon="12.761788530688012"><ele>374.0</ele><time>2026-04-27T11:30:07.001Z</time></trkpt><trkpt lat="43.07589979365254" lon="12.761809505013668"><ele>374.0</ele><time>2026-04-27T11:30:08.001Z</time></trkpt><trkpt lat="43.07609817643916" lon="12.761832207417696"><ele>374.0</ele><time>2026-04-27T11:30:09.001Z</time></trkpt><trkpt lat="43.07629735899824" lon="12.761855140671189"><ele>374.0</ele><time>2026-04-27T11:30:10.001Z</time></trkpt><trkpt lat="43.07649759217762" lon="12.761878647429793"><ele>373.6666666666667</ele><time>2026-04-27T11:30:11.001Z</time></trkpt><trkpt lat="43.07669821942394" lon="12.761900600550408"><ele>373.3333333333333</ele><time>2026-04-27T11:30:12.001Z</time></trkpt><trkpt lat="43.07690076200972" lon="12.76192290434719"><ele>373.0</ele><time>2026-04-27T11:30:13.001Z</time></trkpt><trkpt lat="43.077103140071046" lon="12.761949685119625"><ele>373.0</ele><time>2026-04-27T11:30:14.001Z</time></trkpt><trkpt lat="43.0773050759362" lon="12.761976105738752"><ele>373.0</ele><time>2026-04-27T11:30:15.001Z</time></trkpt><trkpt lat="43.07750636185408" lon="12.762004163808108"><ele>373.0</ele><time>2026-04-27T11:30:16.001Z</time></trkpt><trkpt lat="43.07770807451031" lon="12.76203848942881"><ele>373.3333333333333</ele><time>2026-04-27T11:30:17.001Z</time></trkpt><trkpt lat="43.07790883347747" lon="12.762076358124927"><ele>373.6666666666667</ele><time>2026-04-27T11:30:18.001Z</time></trkpt><trkpt lat="43.07810881236251" lon="12.762116845258037"><ele>374.0</ele><time>2026-04-27T11:30:19.001Z</time></trkpt><trkpt lat="43.07830856050288" lon="12.76215726041037"><ele>374.6666666666667</ele><time>2026-04-27T11:30:20.001Z</time></trkpt><trkpt lat="43.07850931292858" lon="12.762203427786606"><ele>375.3333333333333</ele><time>2026-04-27T11:30:21.001Z</time></trkpt><trkpt lat="43.078710213230536" lon="12.762249351002318"><ele>376.0</ele><time>2026-04-27T11:30:22.001Z</time></trkpt><trkpt lat="43.07891143875784" lon="12.762296691210189"><ele>376.0</ele><time>2026-04-27T11:30:23.001Z</time></trkpt><trkpt lat="43.07911367682682" lon="12.762346733792683"><ele>376.0</ele><time>2026-04-27T11:30:24.001Z</time></trkpt><trkpt lat="43.07931580730515" lon="12.76239169303736"><ele>376.0</ele><time>2026-04-27T11:30:25.001Z</time></trkpt><trkpt lat="43.07951774964715" lon="12.762443215301259"><ele>376.0</ele><time>2026-04-27T11:30:26.001Z</time></trkpt><trkpt lat="43.07972239767091" lon="12.762492363773982"><ele>376.0</ele><time>2026-04-27T11:30:27.001Z</time></trkpt><trkpt lat="43.07992591263549" lon="12.762538335466282"><ele>376.0</ele><time>2026-04-27T11:30:28.001Z</time></trkpt><trkpt lat="43.08012924520636" lon="12.762587834677811"><ele>375.66666666666663</ele><time>2026-04-27T11:30:29.001Z</time></trkpt><trkpt lat="43.08033244478152" lon="12.762638526649274"><ele>375.3333333333333</ele><time>2026-04-27T11:30:30.001Z</time></trkpt><trkpt lat="43.080535110795196" lon="12.76268810213235"><ele>375.0</ele><time>2026-04-27T11:30:31.001Z</time></trkpt><trkpt lat="43.08073872963681" lon="12.762738450565179"><ele>375.6666666666667</ele><time>2026-04-27T11:30:32.001Z</time></trkpt><trkpt lat="43.080940437884244" lon="12.762788364347802"><ele>376.33333333333337</ele><time>2026-04-27T11:30:33.001Z</time></trkpt><trkpt lat="43.08114178490177" lon="12.762836964294706"><ele>377.0</ele><time>2026-04-27T11:30:34.001Z</time></trkpt><trkpt lat="43.081342219221035" lon="12.762883570178971"><ele>377.0</ele><time>2026-04-27T11:30:35.001Z</time></trkpt><trkpt lat="43.08154002179959" lon="12.762929485920289"><ele>377.0</ele><time>2026-04-27T11:30:36.001Z</time></trkpt><trkpt lat="43.08173425036252" lon="12.762975715732011"><ele>377.0</ele><time>2026-04-27T11:30:37.001Z</time></trkpt><trkpt lat="43.08192663879525" lon="12.763023566134102"><ele>378.33333333333337</ele><time>2026-04-27T11:30:38Z</time></trkpt><trkpt lat="43.08211872298825" lon="12.763068833441174"><ele>379.6666666666667</ele><time>2026-04-27T11:30:39Z</time></trkpt><trkpt lat="43.082307556150475" lon="12.763115292201809"><ele>381.0</ele><time>2026-04-27T11:30:40Z</time></trkpt><trkpt lat="43.08249720695017" lon="12.76315609427272"><ele>381.0</ele><time>2026-04-27T11:30:41Z</time></trkpt><trkpt lat="43.08268565024447" lon="12.763191341466882"><ele>381.0</ele><time>2026-04-27T11:30:42Z</time></trkpt><trkpt lat="43.08287177244386" lon="12.76322009359176"><ele>381.0</ele><time>2026-04-27T11:30:43Z</time></trkpt><trkpt lat="43.083055933979466" lon="12.763244209254589"><ele>381.0</ele><time>2026-04-27T11:30:44Z</time></trkpt><trkpt lat="43.08324159687653" lon="12.763265547008185"><ele>381.0</ele><time>2026-04-27T11:30:45Z</time></trkpt><trkpt lat="43.08342775721634" lon="12.763283234070688"><ele>381.0</ele><time>2026-04-27T11:30:46Z</time></trkpt><trkpt lat="43.08361279494926" lon="12.7632975672137"><ele>382.33333333333337</ele><time>2026-04-27T11:30:47Z</time></trkpt><trkpt lat="43.083799520547515" lon="12.763305833785873"><ele>383.6666666666667</ele><time>2026-04-27T11:30:48Z</time></trkpt><trkpt lat="43.08398757349197" lon="12.763307712878612"><ele>385.0</ele><time>2026-04-27T11:30:49Z</time></trkpt><trkpt lat="43.084175238615884" lon="12.763306796495634"><ele>388.0</ele><time>2026-04-27T11:30:50Z</time></trkpt><trkpt lat="43.0843608723786" lon="12.763305023506577"><ele>391.0</ele><time>2026-04-27T11:30:51Z</time></trkpt><trkpt lat="43.08454877003419" lon="12.763297286383079"><ele>394.0</ele><time>2026-04-27T11:30:52Z</time></trkpt><trkpt lat="43.08473622444542" lon="12.763290188736235"><ele>394.0</ele><time>2026-04-27T11:30:53Z</time></trkpt><trkpt lat="43.08492301715991" lon="12.76328073123667"><ele>394.0</ele><time>2026-04-27T11:30:54Z</time></trkpt><trkpt lat="43.08511098440496" lon="12.763270598871836"><ele>394.0</ele><time>2026-04-27T11:30:55Z</time></trkpt><trkpt lat="43.0852965300219" lon="12.763258766059687"><ele>393.0</ele><time>2026-04-27T11:30:56Z</time></trkpt><trkpt lat="43.085481537093465" lon="12.763245160672916"><ele>392.0</ele><time>2026-04-27T11:30:57Z</time></trkpt><trkpt lat="43.08566620822262" lon="12.763235653465927"><ele>391.0</ele><time>2026-04-27T11:30:58Z</time></trkpt><trkpt lat="43.085853980149054" lon="12.76322556193668"><ele>391.0</ele><time>2026-04-27T11:30:59Z</time></trkpt><trkpt lat="43.0860606938506" lon="12.763206399178006"><ele>391.0</ele><time>2026-04-27T11:31:00Z</time></trkpt><trkpt lat="43.086250281583034" lon="12.763200347157811"><ele>391.0</ele><time>2026-04-27T11:31:01Z</time></trkpt><trkpt lat="43.086441754171446" lon="12.763192680397498"><ele>388.6666666666667</ele><time>2026-04-27T11:31:02Z</time></trkpt><trkpt lat="43.08663222582943" lon="12.763184418953532"><ele>386.33333333333337</ele><time>2026-04-27T11:31:03Z</time></trkpt><trkpt lat="43.086823538422614" lon="12.76317941855974"><ele>384.0</ele><time>2026-04-27T11:31:04Z</time></trkpt><trkpt lat="43.08701338660088" lon="12.763165228941311"><ele>384.0</ele><time>2026-04-27T11:31:05Z</time></trkpt><trkpt lat="43.08720381608221" lon="12.763152270565088"><ele>384.0</ele><time>2026-04-27T11:31:06Z</time></trkpt><trkpt lat="43.08739462686883" lon="12.763138451003918"><ele>384.0</ele><time>2026-04-27T11:31:07Z</time></trkpt><trkpt lat="43.087584319054436" lon="12.76312482137345"><ele>383.6666666666667</ele><time>2026-04-27T11:31:08Z</time></trkpt><trkpt lat="43.08777322905047" lon="12.76311332067559"><ele>383.33333333333337</ele><time>2026-04-27T11:31:09Z</time></trkpt><trkpt lat="43.08796176148461" lon="12.76310081820288"><ele>383.0</ele><time>2026-04-27T11:31:10Z</time></trkpt><trkpt lat="43.0881500217094" lon="12.76308594170508"><ele>385.0</ele><time>2026-04-27T11:31:11Z</time></trkpt><trkpt lat="43.08833905156739" lon="12.763072030823425"><ele>387.0</ele><time>2026-04-27T11:31:12Z</time></trkpt><trkpt lat="43.08852796311975" lon="12.76305871216758"><ele>389.0</ele><time>2026-04-27T11:31:13Z</time></trkpt><trkpt lat="43.088715262772205" lon="12.76304380792569"><ele>389.0</ele><time>2026-04-27T11:31:14Z</time></trkpt><trkpt lat="43.08889813585485" lon="12.763031448982344"><ele>389.0</ele><time>2026-04-27T11:31:15Z</time></trkpt><trkpt lat="43.08907466867167" lon="12.763026070161033"><ele>389.0</ele><time>2026-04-27T11:31:16Z</time></trkpt><trkpt lat="43.089249723216874" lon="12.763016765677737"><ele>389.3333333333333</ele><time>2026-04-27T11:31:17Z</time></trkpt><trkpt lat="43.089424655104814" lon="12.763009043950207"><ele>389.66666666666663</ele><time>2026-04-27T11:31:18Z</time></trkpt><trkpt lat="43.089597832506286" lon="12.763010819797874"><ele>390.0</ele><time>2026-04-27T11:31:19Z</time></trkpt><trkpt lat="43.08976941839633" lon="12.763020506160197"><ele>390.0</ele><time>2026-04-27T11:31:20Z</time></trkpt><trkpt lat="43.08994156571813" lon="12.763031218018497"><ele>390.0</ele><time>2026-04-27T11:31:21Z</time></trkpt><trkpt lat="43.090113582520985" lon="12.76305731312099"><ele>390.0</ele><time>2026-04-27T11:31:22Z</time></trkpt><trkpt lat="43.09028537245366" lon="12.763099960265"><ele>390.0</ele><time>2026-04-27T11:31:23Z</time></trkpt><trkpt lat="43.09045930621914" lon="12.763150928651125"><ele>390.0</ele><time>2026-04-27T11:31:24Z</time></trkpt><trkpt lat="43.09063403120333" lon="12.763211722388203"><ele>390.0</ele><time>2026-04-27T11:31:25Z</time></trkpt><trkpt lat="43.0908107850244" lon="12.763276956162942"><ele>389.66666666666663</ele><time>2026-04-27T11:31:26Z</time></trkpt><trkpt lat="43.09098910288304" lon="12.763347814061559"><ele>389.3333333333333</ele><time>2026-04-27T11:31:27Z</time></trkpt><trkpt lat="43.09116622528892" lon="12.763423059245362"><ele>389.0</ele><time>2026-04-27T11:31:28Z</time></trkpt><trkpt lat="43.09134022942839" lon="12.763508557161032"><ele>388.0</ele><time>2026-04-27T11:31:29Z</time></trkpt><trkpt lat="43.09151366252633" lon="12.76360386430923"><ele>387.0</ele><time>2026-04-27T11:31:30Z</time></trkpt><trkpt lat="43.09168417326494" lon="12.763713731036484"><ele>386.0</ele><time>2026-04-27T11:31:31Z</time></trkpt><trkpt lat="43.09184936219526" lon="12.763837502514427"><ele>385.66666666666663</ele><time>2026-04-27T11:31:32Z</time></trkpt><trkpt lat="43.09201265287312" lon="12.763972017276632"><ele>385.33333333333337</ele><time>2026-04-27T11:31:33Z</time></trkpt><trkpt lat="43.09217110808308" lon="12.764116224003915"><ele>385.0</ele><time>2026-04-27T11:31:34Z</time></trkpt><trkpt lat="43.092326961097164" lon="12.764263717274329"><ele>385.6666666666667</ele><time>2026-04-27T11:31:35Z</time></trkpt><trkpt lat="43.092478013337356" lon="12.764420283915664"><ele>386.33333333333337</ele><time>2026-04-27T11:31:36Z</time></trkpt><trkpt lat="43.09262477822683" lon="12.764588306943521"><ele>387.0</ele><time>2026-04-27T11:31:37Z</time></trkpt><trkpt lat="43.09276778647566" lon="12.764762948596324"><ele>387.0</ele><time>2026-04-27T11:31:38Z</time></trkpt><trkpt lat="43.09290929518733" lon="12.76494023531349"><ele>387.0</ele><time>2026-04-27T11:31:39Z</time></trkpt><trkpt lat="43.093048481933884" lon="12.765121336818167"><ele>387.0</ele><time>2026-04-27T11:31:40Z</time></trkpt><trkpt lat="43.09318452889201" lon="12.765308104262237"><ele>387.66666666666663</ele><time>2026-04-27T11:31:41Z</time></trkpt><trkpt lat="43.09332005042049" lon="12.765495666217571"><ele>388.3333333333333</ele><time>2026-04-27T11:31:42Z</time></trkpt><trkpt lat="43.09345348738056" lon="12.765684012738733"><ele>389.0</ele><time>2026-04-27T11:31:43Z</time></trkpt><trkpt lat="43.09358776553855" lon="12.765875223822004"><ele>387.3333333333333</ele><time>2026-04-27T11:31:44Z</time></trkpt><trkpt lat="43.09372298732423" lon="12.766064803309158"><ele>385.66666666666663</ele><time>2026-04-27T11:31:45Z</time></trkpt><trkpt lat="43.09385715163977" lon="12.766253128949476"><ele>384.0</ele><time>2026-04-27T11:31:46Z</time></trkpt><trkpt lat="43.09398981161515" lon="12.766442426864218"><ele>385.33333333333337</ele><time>2026-04-27T11:31:47Z</time></trkpt><trkpt lat="43.09412261214827" lon="12.766635955642718"><ele>386.6666666666667</ele><time>2026-04-27T11:31:48Z</time></trkpt><trkpt lat="43.09425253633701" lon="12.766826875912015"><ele>388.0</ele><time>2026-04-27T11:31:49Z</time></trkpt><trkpt lat="43.0943850091807" lon="12.767018504396635"><ele>388.33333333333337</ele><time>2026-04-27T11:31:50Z</time></trkpt><trkpt lat="43.094518242136296" lon="12.767210076924123"><ele>388.66666666666663</ele><time>2026-04-27T11:31:51Z</time></trkpt><trkpt lat="43.094651056651465" lon="12.76740112646363"><ele>389.0</ele><time>2026-04-27T11:31:52Z</time></trkpt><trkpt lat="43.09478278053828" lon="12.767590586561056"><ele>389.3333333333333</ele><time>2026-04-27T11:31:53Z</time></trkpt><trkpt lat="43.094915656104305" lon="12.767779417507292"><ele>389.66666666666663</ele><time>2026-04-27T11:31:54Z</time></trkpt><trkpt lat="43.09504764189015" lon="12.767965669235277"><ele>390.0</ele><time>2026-04-27T11:31:55Z</time></trkpt><trkpt lat="43.095181270487174" lon="12.768154185291507"><ele>392.0</ele><time>2026-04-27T11:31:56Z</time></trkpt><trkpt lat="43.09531602946043" lon="12.768341983573382"><ele>394.0</ele><time>2026-04-27T11:31:57Z</time></trkpt><trkpt lat="43.095446990736804" lon="12.768532747392848"><ele>396.0</ele><time>2026-04-27T11:31:58.001Z</time></trkpt><trkpt lat="43.09557609034102" lon="12.76872300662646"><ele>399.33333333333337</ele><time>2026-04-27T11:31:59.001Z</time></trkpt><trkpt lat="43.09571032202964" lon="12.768911296540354"><ele>402.6666666666667</ele><time>2026-04-27T11:32:00.001Z</time></trkpt><trkpt lat="43.09584432959623" lon="12.769096921214821"><ele>406.0</ele><time>2026-04-27T11:32:01.001Z</time></trkpt><trkpt lat="43.0959764948677" lon="12.769285056744538"><ele>412.0</ele><time>2026-04-27T11:32:02.001Z</time></trkpt><trkpt lat="43.09610916911911" lon="12.769475773839453"><ele>418.0</ele><time>2026-04-27T11:32:03.001Z</time></trkpt><trkpt lat="43.09624121197226" lon="12.769662968880509"><ele>424.0</ele><time>2026-04-27T11:32:04.001Z</time></trkpt><trkpt lat="43.09637307653552" lon="12.769852697672567"><ele>424.0</ele><time>2026-04-27T11:32:05.001Z</time></trkpt><trkpt lat="43.09650714210653" lon="12.770040501289094"><ele>424.0</ele><time>2026-04-27T11:32:06.001Z</time></trkpt><trkpt lat="43.096641984444815" lon="12.77022659204154"><ele>424.0</ele><time>2026-04-27T11:32:07.001Z</time></trkpt><trkpt lat="43.0967791916808" lon="12.770410045129376"><ele>422.33333333333337</ele><time>2026-04-27T11:32:08.001Z</time></trkpt><trkpt lat="43.09690151268987" lon="12.7706131942389"><ele>420.66666666666663</ele><time>2026-04-27T11:32:09.001Z</time></trkpt><trkpt lat="43.09703337146125" lon="12.770802873975192"><ele>419.0</ele><time>2026-04-27T11:32:10.001Z</time></trkpt><trkpt lat="43.097164423062" lon="12.77099172248676"><ele>419.0</ele><time>2026-04-27T11:32:11.001Z</time></trkpt><trkpt lat="43.09729528452538" lon="12.771180297011762"><ele>419.0</ele><time>2026-04-27T11:32:12.001Z</time></trkpt><trkpt lat="43.09742473263233" lon="12.771366834822654"><ele>419.0</ele><time>2026-04-27T11:32:13.001Z</time></trkpt><trkpt lat="43.097553866671895" lon="12.771552920108793"><ele>419.0</ele><time>2026-04-27T11:32:14.001Z</time></trkpt><trkpt lat="43.09768218484633" lon="12.771738198330105"><ele>419.0</ele><time>2026-04-27T11:32:15.001Z</time></trkpt><trkpt lat="43.0978308391054" lon="12.771952921134089"><ele>419.0</ele><time>2026-04-27T11:32:16.001Z</time></trkpt><trkpt lat="43.097962636320666" lon="12.772142913221876"><ele>419.3333333333333</ele><time>2026-04-27T11:32:17.001Z</time></trkpt><trkpt lat="43.09811581563959" lon="12.772362521402195"><ele>419.66666666666663</ele><time>2026-04-27T11:32:18.001Z</time></trkpt><trkpt lat="43.09826274285798" lon="12.772572091028792"><ele>420.0</ele><time>2026-04-27T11:32:19.001Z</time></trkpt><trkpt lat="43.09841016257682" lon="12.772751464423058"><ele>420.0</ele><time>2026-04-27T11:32:20.001Z</time></trkpt><trkpt lat="43.09854133194764" lon="12.772948064423376"><ele>420.0</ele><time>2026-04-27T11:32:21.001Z</time></trkpt><trkpt lat="43.0986748544434" lon="12.773138817443035"><ele>420.0</ele><time>2026-04-27T11:32:22.001Z</time></trkpt><trkpt lat="43.09880604120876" lon="12.773329542592801"><ele>420.0</ele><time>2026-04-27T11:32:23.001Z</time></trkpt><trkpt lat="43.09894362394354" lon="12.773519843164088"><ele>420.0</ele><time>2026-04-27T11:32:24.001Z</time></trkpt><trkpt lat="43.099079773015475" lon="12.77371170630462"><ele>420.0</ele><time>2026-04-27T11:32:25.001Z</time></trkpt><trkpt lat="43.099220465470154" lon="12.773901710342109"><ele>419.0</ele><time>2026-04-27T11:32:26.001Z</time></trkpt><trkpt lat="43.099364864432786" lon="12.774088695612061"><ele>418.0</ele><time>2026-04-27T11:32:27.001Z</time></trkpt><trkpt lat="43.09951028471597" lon="12.774273844102566"><ele>417.0</ele><time>2026-04-27T11:32:28.001Z</time></trkpt><trkpt lat="43.09965385729292" lon="12.77445651152427"><ele>417.0</ele><time>2026-04-27T11:32:29Z</time></trkpt><trkpt lat="43.09980410273729" lon="12.774638608072935"><ele>417.0</ele><time>2026-04-27T11:32:30Z</time></trkpt><trkpt lat="43.09995466993298" lon="12.774816920788982"><ele>417.0</ele><time>2026-04-27T11:32:31Z</time></trkpt><trkpt lat="43.10010885167897" lon="12.77499593388994"><ele>416.33333333333337</ele><time>2026-04-27T11:32:32Z</time></trkpt><trkpt lat="43.10026625751983" lon="12.775169437354903"><ele>415.6666666666667</ele><time>2026-04-27T11:32:33Z</time></trkpt><trkpt lat="43.10042620776818" lon="12.775343564812912"><ele>415.0</ele><time>2026-04-27T11:32:34Z</time></trkpt><trkpt lat="43.10058827160414" lon="12.775512123430767"><ele>414.33333333333337</ele><time>2026-04-27T11:32:35Z</time></trkpt><trkpt lat="43.10075608893391" lon="12.775672442103636"><ele>413.66666666666663</ele><time>2026-04-27T11:32:36Z</time></trkpt><trkpt lat="43.10092699338493" lon="12.775829683538955"><ele>413.0</ele><time>2026-04-27T11:32:37Z</time></trkpt><trkpt lat="43.10109739508309" lon="12.775984717877552"><ele>414.0</ele><time>2026-04-27T11:32:38Z</time></trkpt><trkpt lat="43.10127314442053" lon="12.776135711589996"><ele>415.0</ele><time>2026-04-27T11:32:39Z</time></trkpt><trkpt lat="43.101450095654386" lon="12.776282080539554"><ele>416.0</ele><time>2026-04-27T11:32:40Z</time></trkpt><trkpt lat="43.101631015447026" lon="12.77642436612496"><ele>416.0</ele><time>2026-04-27T11:32:41Z</time></trkpt><trkpt lat="43.10181203350899" lon="12.776558816098674"><ele>416.0</ele><time>2026-04-27T11:32:42Z</time></trkpt><trkpt lat="43.101994573018715" lon="12.77668979983955"><ele>416.0</ele><time>2026-04-27T11:32:43Z</time></trkpt><trkpt lat="43.102176846730366" lon="12.776818400724713"><ele>413.3333333333333</ele><time>2026-04-27T11:32:44Z</time></trkpt><trkpt lat="43.10235840806075" lon="12.776942162782827"><ele>410.66666666666663</ele><time>2026-04-27T11:32:45Z</time></trkpt><trkpt lat="43.10254185559179" lon="12.777056262025653"><ele>408.0</ele><time>2026-04-27T11:32:46Z</time></trkpt><trkpt lat="43.10272689065619" lon="12.777167473878066"><ele>414.0</ele><time>2026-04-27T11:32:47Z</time></trkpt><trkpt lat="43.10291571796082" lon="12.777272503878567"><ele>420.0</ele><time>2026-04-27T11:32:48Z</time></trkpt><trkpt lat="43.10310618332084" lon="12.777372256023721"><ele>426.0</ele><time>2026-04-27T11:32:49Z</time></trkpt><trkpt lat="43.103293510317734" lon="12.77746942375893"><ele>424.33333333333337</ele><time>2026-04-27T11:32:50Z</time></trkpt><trkpt lat="43.10348202073897" lon="12.777567551551158"><ele>422.6666666666667</ele><time>2026-04-27T11:32:51Z</time></trkpt><trkpt lat="43.1036714547404" lon="12.777666191199383"><ele>421.0</ele><time>2026-04-27T11:32:52Z</time></trkpt><trkpt lat="43.10385959806843" lon="12.777755621008861"><ele>421.0</ele><time>2026-04-27T11:32:53Z</time></trkpt><trkpt lat="43.10404889741188" lon="12.777845050159057"><ele>421.0</ele><time>2026-04-27T11:32:54Z</time></trkpt><trkpt lat="43.10423767762666" lon="12.777931719571203"><ele>421.0</ele><time>2026-04-27T11:32:55Z</time></trkpt><trkpt lat="43.10442612385539" lon="12.77801504670125"><ele>424.33333333333337</ele><time>2026-04-27T11:32:56Z</time></trkpt><trkpt lat="43.10461385448142" lon="12.778095331121081"><ele>427.66666666666663</ele><time>2026-04-27T11:32:57Z</time></trkpt><trkpt lat="43.10480341078595" lon="12.778177657616354"><ele>431.0</ele><time>2026-04-27T11:32:58Z</time></trkpt><trkpt lat="43.104991199404665" lon="12.77825875334937"><ele>434.0</ele><time>2026-04-27T11:32:59Z</time></trkpt><trkpt lat="43.105176866036594" lon="12.778338966081966"><ele>437.0</ele><time>2026-04-27T11:33:00Z</time></trkpt><trkpt lat="43.105361331062205" lon="12.778419352802866"><ele>440.0</ele><time>2026-04-27T11:33:01Z</time></trkpt><trkpt lat="43.105543174367305" lon="12.778498792959644"><ele>440.3333333333333</ele><time>2026-04-27T11:33:02Z</time></trkpt><trkpt lat="43.1057264291775" lon="12.778577732309447"><ele>440.66666666666663</ele><time>2026-04-27T11:33:03Z</time></trkpt><trkpt lat="43.105908034910364" lon="12.778656114640656"><ele>441.0</ele><time>2026-04-27T11:33:04Z</time></trkpt><trkpt lat="43.106090369298826" lon="12.778736106065317"><ele>446.33333333333337</ele><time>2026-04-27T11:33:05Z</time></trkpt><trkpt lat="43.10627153196974" lon="12.778817248039662"><ele>451.6666666666667</ele><time>2026-04-27T11:33:06Z</time></trkpt><trkpt lat="43.10645293651092" lon="12.778899941915796"><ele>457.0</ele><time>2026-04-27T11:33:07Z</time></trkpt><trkpt lat="43.106636783416576" lon="12.778983658161993"><ele>463.33333333333337</ele><time>2026-04-27T11:33:08Z</time></trkpt><trkpt lat="43.10682079886736" lon="12.77906475202769"><ele>469.66666666666663</ele><time>2026-04-27T11:33:09Z</time></trkpt><trkpt lat="43.107004982038305" lon="12.77914811060443"><ele>476.0</ele><time>2026-04-27T11:33:10Z</time></trkpt><trkpt lat="43.10718882516597" lon="12.779236825395818"><ele>476.0</ele><time>2026-04-27T11:33:11Z</time></trkpt><trkpt lat="43.107372987889164" lon="12.779325695524376"><ele>476.0</ele><time>2026-04-27T11:33:12Z</time></trkpt><trkpt lat="43.107558271410795" lon="12.779417005408249"><ele>476.0</ele><time>2026-04-27T11:33:13Z</time></trkpt><trkpt lat="43.107745061912034" lon="12.779511081930853"><ele>473.0</ele><time>2026-04-27T11:33:14Z</time></trkpt><trkpt lat="43.10793373121236" lon="12.779608882228578"><ele>470.0</ele><time>2026-04-27T11:33:15Z</time></trkpt><trkpt lat="43.10809879313519" lon="12.779660326763647"><ele>467.0</ele><time>2026-04-27T11:33:16Z</time></trkpt><trkpt lat="43.10828550715092" lon="12.779740608766085"><ele>467.0</ele><time>2026-04-27T11:33:17Z</time></trkpt><trkpt lat="43.10847307644071" lon="12.779822588079506"><ele>467.0</ele><time>2026-04-27T11:33:18Z</time></trkpt><trkpt lat="43.10866150882139" lon="12.779908277734695"><ele>467.0</ele><time>2026-04-27T11:33:19Z</time></trkpt><trkpt lat="43.10882928765314" lon="12.779987543691835"><ele>467.0</ele><time>2026-04-27T11:33:20Z</time></trkpt><trkpt lat="43.10904071572491" lon="12.780058635743579"><ele>467.0</ele><time>2026-04-27T11:33:21Z</time></trkpt><trkpt lat="43.10921792813313" lon="12.780136356246857"><ele>467.0</ele><time>2026-04-27T11:33:22Z</time></trkpt><trkpt lat="43.10940282090653" lon="12.780218331856371"><ele>462.66666666666663</ele><time>2026-04-27T11:33:23Z</time></trkpt><trkpt lat="43.1095820352762" lon="12.780301678937144"><ele>458.33333333333337</ele><time>2026-04-27T11:33:24Z</time></trkpt><trkpt lat="43.10976688505644" lon="12.780390894413907"><ele>454.0</ele><time>2026-04-27T11:33:25Z</time></trkpt><trkpt lat="43.10994618017012" lon="12.780483623762153"><ele>454.0</ele><time>2026-04-27T11:33:26Z</time></trkpt><trkpt lat="43.110124121714" lon="12.780576753586473"><ele>454.0</ele><time>2026-04-27T11:33:27Z</time></trkpt><trkpt lat="43.11030206892022" lon="12.78067595511203"><ele>454.0</ele><time>2026-04-27T11:33:28Z</time></trkpt><trkpt lat="43.110479057969435" lon="12.780777916628988"><ele>454.0</ele><time>2026-04-27T11:33:29Z</time></trkpt><trkpt lat="43.11065447845801" lon="12.780881774462772"><ele>454.0</ele><time>2026-04-27T11:33:30Z</time></trkpt><trkpt lat="43.11082820529269" lon="12.780990672990452"><ele>454.0</ele><time>2026-04-27T11:33:31Z</time></trkpt><trkpt lat="43.111002768575915" lon="12.781103014546618"><ele>454.6666666666667</ele><time>2026-04-27T11:33:32Z</time></trkpt><trkpt lat="43.11117685045223" lon="12.78121733044952"><ele>455.33333333333337</ele><time>2026-04-27T11:33:33Z</time></trkpt><trkpt lat="43.11135009013912" lon="12.78133040007206"><ele>456.0</ele><time>2026-04-27T11:33:34Z</time></trkpt><trkpt lat="43.11152042844946" lon="12.781447726903323"><ele>458.66666666666663</ele><time>2026-04-27T11:33:35Z</time></trkpt><trkpt lat="43.11168937629172" lon="12.781562889067079"><ele>461.3333333333333</ele><time>2026-04-27T11:33:36Z</time></trkpt><trkpt lat="43.111857108086234" lon="12.781681255513018"><ele>464.0</ele><time>2026-04-27T11:33:37Z</time></trkpt><trkpt lat="43.112021986963164" lon="12.78180063771898"><ele>465.0</ele><time>2026-04-27T11:33:38Z</time></trkpt><trkpt lat="43.11218922523425" lon="12.781920127679125"><ele>466.0</ele><time>2026-04-27T11:33:39Z</time></trkpt><trkpt lat="43.11235785550595" lon="12.782041823085374"><ele>467.0</ele><time>2026-04-27T11:33:40Z</time></trkpt><trkpt lat="43.112523296751235" lon="12.782162721581225"><ele>471.66666666666663</ele><time>2026-04-27T11:33:41Z</time></trkpt><trkpt lat="43.11269243118963" lon="12.78228194776102"><ele>476.33333333333337</ele><time>2026-04-27T11:33:42Z</time></trkpt><trkpt lat="43.11286213684588" lon="12.782400060977569"><ele>481.0</ele><time>2026-04-27T11:33:43Z</time></trkpt><trkpt lat="43.11302647953469" lon="12.782540186501041"><ele>481.0</ele><time>2026-04-27T11:33:44Z</time></trkpt><trkpt lat="43.11319828181885" lon="12.782664578516368"><ele>481.0</ele><time>2026-04-27T11:33:45Z</time></trkpt><trkpt lat="43.113366042071455" lon="12.782784861281044"><ele>481.0</ele><time>2026-04-27T11:33:46Z</time></trkpt><trkpt lat="43.1135367336197" lon="12.78290662073465"><ele>485.6666666666667</ele><time>2026-04-27T11:33:47Z</time></trkpt><trkpt lat="43.113705753324176" lon="12.78302718754999"><ele>490.33333333333337</ele><time>2026-04-27T11:33:48Z</time></trkpt><trkpt lat="43.11387597547598" lon="12.783148536924108"><ele>495.0</ele><time>2026-04-27T11:33:49Z</time></trkpt><trkpt lat="43.114050238929934" lon="12.783265925647797"><ele>497.33333333333337</ele><time>2026-04-27T11:33:50Z</time></trkpt><trkpt lat="43.11422304835575" lon="12.783388449065558"><ele>499.6666666666667</ele><time>2026-04-27T11:33:51Z</time></trkpt><trkpt lat="43.11439916226661" lon="12.783508981138375"><ele>502.0</ele><time>2026-04-27T11:33:52Z</time></trkpt><trkpt lat="43.11457658862748" lon="12.783628669986248"><ele>502.0</ele><time>2026-04-27T11:33:53Z</time></trkpt><trkpt lat="43.114756471890445" lon="12.783748559521891"><ele>502.0</ele><time>2026-04-27T11:33:54Z</time></trkpt><trkpt lat="43.11493720052014" lon="12.78386400348218"><ele>502.0</ele><time>2026-04-27T11:33:55Z</time></trkpt><trkpt lat="43.11511859807399" lon="12.78397692167505"><ele>509.0</ele><time>2026-04-27T11:33:56Z</time></trkpt><trkpt lat="43.115301918193616" lon="12.78408229191352"><ele>516.0</ele><time>2026-04-27T11:33:57Z</time></trkpt><trkpt lat="43.11548513836011" lon="12.784192304137163"><ele>523.0</ele><time>2026-04-27T11:33:58Z</time></trkpt><trkpt lat="43.11566960938707" lon="12.78429981120474"><ele>525.0</ele><time>2026-04-27T11:33:59Z</time></trkpt><trkpt lat="43.11585534714222" lon="12.78440536962949"><ele>527.0</ele><time>2026-04-27T11:34:00Z</time></trkpt><trkpt lat="43.11604215955516" lon="12.78450877399912"><ele>529.0</ele><time>2026-04-27T11:34:01Z</time></trkpt><trkpt lat="43.11623125342899" lon="12.784616408593017"><ele>529.0</ele><time>2026-04-27T11:34:02Z</time></trkpt><trkpt lat="43.1164229332865" lon="12.78471969251922"><ele>529.0</ele><time>2026-04-27T11:34:03Z</time></trkpt><trkpt lat="43.11661723698464" lon="12.784820943155337"><ele>529.0</ele><time>2026-04-27T11:34:04.001Z</time></trkpt><trkpt lat="43.11681105442244" lon="12.78492470056473"><ele>530.6666666666667</ele><time>2026-04-27T11:34:05.001Z</time></trkpt><trkpt lat="43.11699916529161" lon="12.785031691653858"><ele>532.3333333333334</ele><time>2026-04-27T11:34:06.001Z</time></trkpt><trkpt lat="43.11719466141369" lon="12.785129836872999"><ele>534.0</ele><time>2026-04-27T11:34:07.001Z</time></trkpt><trkpt lat="43.1173915936653" lon="12.785228099448696"><ele>535.0</ele><time>2026-04-27T11:34:08.001Z</time></trkpt><trkpt lat="43.11759005748716" lon="12.785326996708367"><ele>536.0</ele><time>2026-04-27T11:34:09.001Z</time></trkpt><trkpt lat="43.117788905748505" lon="12.785419437068182"><ele>537.0</ele><time>2026-04-27T11:34:10.001Z</time></trkpt><trkpt lat="43.1179929897074" lon="12.785515303847331"><ele>537.0</ele><time>2026-04-27T11:34:11.001Z</time></trkpt><trkpt lat="43.11819336929105" lon="12.785604141757714"><ele>537.0</ele><time>2026-04-27T11:34:12.001Z</time></trkpt><trkpt lat="43.11838799391659" lon="12.785695164826393"><ele>537.0</ele><time>2026-04-27T11:34:13.001Z</time></trkpt><trkpt lat="43.11857551301831" lon="12.785771829907572"><ele>536.6666666666666</ele><time>2026-04-27T11:34:14.001Z</time></trkpt><trkpt lat="43.11876578603694" lon="12.78585501709099"><ele>536.3333333333333</ele><time>2026-04-27T11:34:15.001Z</time></trkpt><trkpt lat="43.11895655539889" lon="12.785935118664495"><ele>536.0</ele><time>2026-04-27T11:34:16.001Z</time></trkpt><trkpt lat="43.119117921458866" lon="12.785990790150873"><ele>531.0</ele><time>2026-04-27T11:34:17.001Z</time></trkpt><trkpt lat="43.1192914317581" lon="12.786056509361778"><ele>526.0</ele><time>2026-04-27T11:34:18.008Z</time></trkpt><trkpt lat="43.12279559264686" lon="12.786545055819643"><ele>512.5</ele><time>2026-04-27T11:34:29Z</time></trkpt><trkpt lat="43.12301906262839" lon="12.786595222884245"><ele>499.0</ele><time>2026-04-27T11:34:30Z</time></trkpt><trkpt lat="43.122315166347526" lon="12.786886692639364"><ele>495.0</ele><time>2026-04-27T11:34:32Z</time></trkpt><trkpt lat="43.12247713876253" lon="12.786936563049812"><ele>491.0</ele><time>2026-04-27T11:34:33Z</time></trkpt><trkpt lat="43.12263915859291" lon="12.786989793756597"><ele>487.0</ele><time>2026-04-27T11:34:34Z</time></trkpt><trkpt lat="43.12281499690676" lon="12.787039194656877"><ele>487.0</ele><time>2026-04-27T11:34:35Z</time></trkpt><trkpt lat="43.12299888990625" lon="12.787094837716095"><ele>487.0</ele><time>2026-04-27T11:34:36Z</time></trkpt><trkpt lat="43.12317696491369" lon="12.787147429951471"><ele>487.0</ele><time>2026-04-27T11:34:37Z</time></trkpt><trkpt lat="43.123370272727676" lon="12.787205675822111"><ele>485.33333333333337</ele><time>2026-04-27T11:34:38Z</time></trkpt><trkpt lat="43.12356927826482" lon="12.787260814238339"><ele>483.66666666666663</ele><time>2026-04-27T11:34:39Z</time></trkpt><trkpt lat="43.12376822528802" lon="12.787317866263049"><ele>482.0</ele><time>2026-04-27T11:34:40Z</time></trkpt><trkpt lat="43.123971060600525" lon="12.787373055733667"><ele>478.0</ele><time>2026-04-27T11:34:41Z</time></trkpt><trkpt lat="43.124174962485135" lon="12.787430830036984"><ele>474.0</ele><time>2026-04-27T11:34:42Z</time></trkpt><trkpt lat="43.124380241869424" lon="12.787491039743935"><ele>470.0</ele><time>2026-04-27T11:34:43Z</time></trkpt><trkpt lat="43.12458620791377" lon="12.787543216058348"><ele>470.0</ele><time>2026-04-27T11:34:44Z</time></trkpt><trkpt lat="43.124790864926695" lon="12.787599142332938"><ele>470.0</ele><time>2026-04-27T11:34:45Z</time></trkpt><trkpt lat="43.12499698503676" lon="12.787660035912655"><ele>470.0</ele><time>2026-04-27T11:34:46Z</time></trkpt><trkpt lat="43.12520309386356" lon="12.78771322769334"><ele>474.66666666666663</ele><time>2026-04-27T11:34:47Z</time></trkpt><trkpt lat="43.125413176286074" lon="12.787771926599161"><ele>479.33333333333337</ele><time>2026-04-27T11:34:48Z</time></trkpt><trkpt lat="43.12562148041887" lon="12.78782788065833"><ele>484.0</ele><time>2026-04-27T11:34:49Z</time></trkpt><trkpt lat="43.12583206399051" lon="12.787878976271578"><ele>485.33333333333337</ele><time>2026-04-27T11:34:50Z</time></trkpt><trkpt lat="43.1260392041498" lon="12.78792704811349"><ele>486.66666666666663</ele><time>2026-04-27T11:34:51Z</time></trkpt><trkpt lat="43.126234430822876" lon="12.787950707674396"><ele>488.0</ele><time>2026-04-27T11:34:52Z</time></trkpt><trkpt lat="43.12644056877181" lon="12.78799225820745"><ele>487.66666666666663</ele><time>2026-04-27T11:34:53Z</time></trkpt><trkpt lat="43.12664951074019" lon="12.78802100066315"><ele>487.33333333333337</ele><time>2026-04-27T11:34:54Z</time></trkpt><trkpt lat="43.126864893669584" lon="12.788039570548912"><ele>487.0</ele><time>2026-04-27T11:34:55Z</time></trkpt><trkpt lat="43.127078864840556" lon="12.788048116798631"><ele>487.0</ele><time>2026-04-27T11:34:56Z</time></trkpt><trkpt lat="43.12728992061283" lon="12.788046673670262"><ele>487.0</ele><time>2026-04-27T11:34:57Z</time></trkpt><trkpt lat="43.12750268491091" lon="12.788051204641961"><ele>487.0</ele><time>2026-04-27T11:34:58Z</time></trkpt><trkpt lat="43.12772464711219" lon="12.788043844971767"><ele>484.33333333333337</ele><time>2026-04-27T11:34:59Z</time></trkpt><trkpt lat="43.12793716303293" lon="12.78802154037311"><ele>481.66666666666663</ele><time>2026-04-27T11:35:00Z</time></trkpt><trkpt lat="43.1281544921554" lon="12.787997728605673"><ele>479.0</ele><time>2026-04-27T11:35:01Z</time></trkpt><trkpt lat="43.12837409527139" lon="12.787968667200905"><ele>475.0</ele><time>2026-04-27T11:35:02Z</time></trkpt><trkpt lat="43.12859435958181" lon="12.787930356877125"><ele>471.0</ele><time>2026-04-27T11:35:03Z</time></trkpt><trkpt lat="43.12881252648369" lon="12.78788636647316"><ele>467.0</ele><time>2026-04-27T11:35:04Z</time></trkpt><trkpt lat="43.12903231641058" lon="12.787837233007654"><ele>468.66666666666663</ele><time>2026-04-27T11:35:05Z</time></trkpt><trkpt lat="43.12925053211777" lon="12.787780097619759"><ele>470.33333333333337</ele><time>2026-04-27T11:35:06Z</time></trkpt><trkpt lat="43.12946751310817" lon="12.787719087153839"><ele>472.0</ele><time>2026-04-27T11:35:07Z</time></trkpt><trkpt lat="43.12968316969204" lon="12.787654839889026"><ele>473.33333333333337</ele><time>2026-04-27T11:35:08Z</time></trkpt><trkpt lat="43.129898428956935" lon="12.78758813829396"><ele>474.66666666666663</ele><time>2026-04-27T11:35:09Z</time></trkpt><trkpt lat="43.130111041305256" lon="12.787522987133832"><ele>476.0</ele><time>2026-04-27T11:35:10Z</time></trkpt><trkpt lat="43.13032794178206" lon="12.787460382005609"><ele>476.0</ele><time>2026-04-27T11:35:11Z</time></trkpt><trkpt lat="43.13054707573733" lon="12.78739340471864"><ele>476.0</ele><time>2026-04-27T11:35:12Z</time></trkpt><trkpt lat="43.13076795631797" lon="12.787323599134995"><ele>478.5</ele><time>2026-04-27T11:35:13Z</time></trkpt><trkpt lat="43.13099047635051" lon="12.78725283459005"><ele>481.0</ele><time>2026-04-27T11:35:14Z</time></trkpt><trkpt lat="43.131212301528976" lon="12.787181947325832"><ele>481.0</ele><time>2026-04-27T11:35:15Z</time></trkpt><trkpt lat="43.13144435852803" lon="12.787112944728154"><ele>481.0</ele><time>2026-04-27T11:35:16Z</time></trkpt><trkpt lat="43.13165727330292" lon="12.78703959551931"><ele>479.0</ele><time>2026-04-27T11:35:17Z</time></trkpt><trkpt lat="43.1318836497545" lon="12.78697204892978"><ele>477.0</ele><time>2026-04-27T11:35:18Z</time></trkpt><trkpt lat="43.132107559442275" lon="12.786900263311754"><ele>474.5</ele><time>2026-04-27T11:35:19Z</time></trkpt><trkpt lat="43.13233049720612" lon="12.786832912733917"><ele>472.0</ele><time>2026-04-27T11:35:20Z</time></trkpt><trkpt lat="43.132555511451095" lon="12.786764049306733"><ele>472.0</ele><time>2026-04-27T11:35:21Z</time></trkpt><trkpt lat="43.132780757743134" lon="12.786697549617124"><ele>472.0</ele><time>2026-04-27T11:35:22Z</time></trkpt><trkpt lat="43.13300620516153" lon="12.786631688578657"><ele>472.0</ele><time>2026-04-27T11:35:23Z</time></trkpt><trkpt lat="43.13322737743701" lon="12.78655582723028"><ele>472.0</ele><time>2026-04-27T11:35:24Z</time></trkpt><trkpt lat="43.13345227487794" lon="12.78648137468754"><ele>472.0</ele><time>2026-04-27T11:35:25Z</time></trkpt><trkpt lat="43.133677140847524" lon="12.786413150562444"><ele>472.0</ele><time>2026-04-27T11:35:26Z</time></trkpt><trkpt lat="43.133904613857766" lon="12.786343904911462"><ele>470.0</ele><time>2026-04-27T11:35:27Z</time></trkpt><trkpt lat="43.134131174396124" lon="12.78627405344512"><ele>468.0</ele><time>2026-04-27T11:35:28Z</time></trkpt><trkpt lat="43.13435687063731" lon="12.786196751927172"><ele>468.0</ele><time>2026-04-27T11:35:29Z</time></trkpt><trkpt lat="43.13458830969024" lon="12.786130581975733"><ele>468.0</ele><time>2026-04-27T11:35:30Z</time></trkpt><trkpt lat="43.1348224515818" lon="12.786059315507686"><ele>462.5</ele><time>2026-04-27T11:35:31Z</time></trkpt><trkpt lat="43.13505473291314" lon="12.78598681625482"><ele>457.0</ele><time>2026-04-27T11:35:32Z</time></trkpt><trkpt lat="43.135286622615254" lon="12.785916318692069"><ele>457.0</ele><time>2026-04-27T11:35:33Z</time></trkpt><trkpt lat="43.13551744452983" lon="12.785845584419533"><ele>457.0</ele><time>2026-04-27T11:35:34Z</time></trkpt><trkpt lat="43.13575265754063" lon="12.785778936096607"><ele>456.0</ele><time>2026-04-27T11:35:35Z</time></trkpt><trkpt lat="43.135981784770834" lon="12.78571030626995"><ele>455.0</ele><time>2026-04-27T11:35:36Z</time></trkpt><trkpt lat="43.13621237492874" lon="12.785644409980735"><ele>455.0</ele><time>2026-04-27T11:35:37Z</time></trkpt><trkpt lat="43.13643732371799" lon="12.785578880771864"><ele>455.0</ele><time>2026-04-27T11:35:38Z</time></trkpt><trkpt lat="43.136665648190224" lon="12.785516972759918"><ele>459.0</ele><time>2026-04-27T11:35:39Z</time></trkpt><trkpt lat="43.13689378752172" lon="12.785459753750976"><ele>463.0</ele><time>2026-04-27T11:35:40Z</time></trkpt><trkpt lat="43.13711970203161" lon="12.785400722104418"><ele>463.0</ele><time>2026-04-27T11:35:41Z</time></trkpt><trkpt lat="43.1373427362135" lon="12.785346027100877"><ele>463.0</ele><time>2026-04-27T11:35:42Z</time></trkpt><trkpt lat="43.13756669612995" lon="12.78529078387915"><ele>465.33333333333337</ele><time>2026-04-27T11:35:43Z</time></trkpt><trkpt lat="43.137784356841806" lon="12.785235911952492"><ele>467.66666666666663</ele><time>2026-04-27T11:35:44Z</time></trkpt><trkpt lat="43.13800735574664" lon="12.785187368266948"><ele>470.0</ele><time>2026-04-27T11:35:45Z</time></trkpt><trkpt lat="43.13822897304998" lon="12.785140691261835"><ele>465.0</ele><time>2026-04-27T11:35:46Z</time></trkpt><trkpt lat="43.13844153724719" lon="12.785083900047695"><ele>460.0</ele><time>2026-04-27T11:35:47Z</time></trkpt><trkpt lat="43.13865985508154" lon="12.785031740214961"><ele>455.0</ele><time>2026-04-27T11:35:48Z</time></trkpt><trkpt lat="43.13887937558747" lon="12.784976206431459"><ele>451.0</ele><time>2026-04-27T11:35:49Z</time></trkpt><trkpt lat="43.13909642736296" lon="12.784925111394891"><ele>447.0</ele><time>2026-04-27T11:35:50Z</time></trkpt><trkpt lat="43.139314886332194" lon="12.784874448592749"><ele>443.0</ele><time>2026-04-27T11:35:51Z</time></trkpt><trkpt lat="43.139533872894745" lon="12.784822876682439"><ele>443.0</ele><time>2026-04-27T11:35:52Z</time></trkpt><trkpt lat="43.13975230485986" lon="12.784773816359566"><ele>443.0</ele><time>2026-04-27T11:35:53Z</time></trkpt><trkpt lat="43.13997272622016" lon="12.784722702526183"><ele>443.0</ele><time>2026-04-27T11:35:54Z</time></trkpt><trkpt lat="43.14019184694324" lon="12.784672802926194"><ele>441.3333333333333</ele><time>2026-04-27T11:35:55Z</time></trkpt><trkpt lat="43.140412872563395" lon="12.784624154252164"><ele>439.66666666666663</ele><time>2026-04-27T11:35:56Z</time></trkpt><trkpt lat="43.14063259999508" lon="12.784573997309009"><ele>438.0</ele><time>2026-04-27T11:35:57Z</time></trkpt><trkpt lat="43.1408556572019" lon="12.784521240926367"><ele>438.0</ele><time>2026-04-27T11:35:58Z</time></trkpt><trkpt lat="43.14107601759722" lon="12.784466614530421"><ele>438.0</ele><time>2026-04-27T11:35:59Z</time></trkpt><trkpt lat="43.1412967983225" lon="12.784412523696728"><ele>438.0</ele><time>2026-04-27T11:36:00Z</time></trkpt><trkpt lat="43.141516740003176" lon="12.784358594220215"><ele>441.5</ele><time>2026-04-27T11:36:01Z</time></trkpt><trkpt lat="43.14174131963431" lon="12.784304615371802"><ele>445.0</ele><time>2026-04-27T11:36:02Z</time></trkpt><trkpt lat="43.141960644158985" lon="12.78425181302895"><ele>445.0</ele><time>2026-04-27T11:36:03Z</time></trkpt><trkpt lat="43.14218653121531" lon="12.784198404684725"><ele>445.0</ele><time>2026-04-27T11:36:04Z</time></trkpt><trkpt lat="43.14241184443196" lon="12.784144088749757"><ele>446.5</ele><time>2026-04-27T11:36:05Z</time></trkpt><trkpt lat="43.14263887572023" lon="12.784092905935356"><ele>448.0</ele><time>2026-04-27T11:36:06Z</time></trkpt><trkpt lat="43.14286635008551" lon="12.784041038036738"><ele>448.0</ele><time>2026-04-27T11:36:07Z</time></trkpt><trkpt lat="43.14309326732141" lon="12.783987403445668"><ele>448.0</ele><time>2026-04-27T11:36:08Z</time></trkpt><trkpt lat="43.1433209245771" lon="12.783931919688078"><ele>451.0</ele><time>2026-04-27T11:36:09Z</time></trkpt><trkpt lat="43.14354957381498" lon="12.783877475774851"><ele>454.0</ele><time>2026-04-27T11:36:10Z</time></trkpt><trkpt lat="43.14377812701543" lon="12.783825297214939"><ele>454.0</ele><time>2026-04-27T11:36:11Z</time></trkpt><trkpt lat="43.1440070310292" lon="12.78377261917615"><ele>454.0</ele><time>2026-04-27T11:36:12Z</time></trkpt><trkpt lat="43.14423548527394" lon="12.783722799658413"><ele>459.5</ele><time>2026-04-27T11:36:13Z</time></trkpt><trkpt lat="43.144465389615284" lon="12.78367373327084"><ele>465.0</ele><time>2026-04-27T11:36:14Z</time></trkpt><trkpt lat="43.14469268428354" lon="12.783625452759825"><ele>464.5</ele><time>2026-04-27T11:36:15Z</time></trkpt><trkpt lat="43.1449226699096" lon="12.783574551297505"><ele>464.0</ele><time>2026-04-27T11:36:16Z</time></trkpt><trkpt lat="43.145154721066575" lon="12.783525938200142"><ele>462.0</ele><time>2026-04-27T11:36:17Z</time></trkpt><trkpt lat="43.1454144444078" lon="12.783451724740795"><ele>460.0</ele><time>2026-04-27T11:36:18Z</time></trkpt><trkpt lat="43.1456309118605" lon="12.783389321239154"><ele>457.5</ele><time>2026-04-27T11:36:19Z</time></trkpt><trkpt lat="43.14585892028016" lon="12.783333519418546"><ele>455.0</ele><time>2026-04-27T11:36:20Z</time></trkpt><trkpt lat="43.14608654049583" lon="12.78328587012222"><ele>455.0</ele><time>2026-04-27T11:36:21Z</time></trkpt><trkpt lat="43.14631442973337" lon="12.783234876635461"><ele>455.0</ele><time>2026-04-27T11:36:22Z</time></trkpt><trkpt lat="43.14654367300615" lon="12.783184641177279"><ele>455.5</ele><time>2026-04-27T11:36:23Z</time></trkpt><trkpt lat="43.14678582380947" lon="12.78314157306804"><ele>456.0</ele><time>2026-04-27T11:36:24Z</time></trkpt><trkpt lat="43.14702578251784" lon="12.783108221576873"><ele>456.0</ele><time>2026-04-27T11:36:25Z</time></trkpt><trkpt lat="43.14724306393342" lon="12.783013392364728"><ele>456.0</ele><time>2026-04-27T11:36:26Z</time></trkpt><trkpt lat="43.14742843483742" lon="12.782972916326823"><ele>456.0</ele><time>2026-04-27T11:36:27Z</time></trkpt><trkpt lat="43.14761922597409" lon="12.782932566589736"><ele>454.0</ele><time>2026-04-27T11:36:28Z</time></trkpt><trkpt lat="43.147814847770405" lon="12.78288646848387"><ele>452.0</ele><time>2026-04-27T11:36:29Z</time></trkpt><trkpt lat="43.14800606250841" lon="12.782839876626177"><ele>450.0</ele><time>2026-04-27T11:36:30Z</time></trkpt><trkpt lat="43.14819965965489" lon="12.782794343280463"><ele>451.33333333333337</ele><time>2026-04-27T11:36:31Z</time></trkpt><trkpt lat="43.148390571628" lon="12.782750101135328"><ele>452.6666666666667</ele><time>2026-04-27T11:36:32Z</time></trkpt><trkpt lat="43.14858081048576" lon="12.782705450937048"><ele>454.0</ele><time>2026-04-27T11:36:33Z</time></trkpt><trkpt lat="43.14876582592887" lon="12.782665625624087"><ele>456.6666666666667</ele><time>2026-04-27T11:36:34Z</time></trkpt><trkpt lat="43.14893908844848" lon="12.7826296900633"><ele>459.33333333333337</ele><time>2026-04-27T11:36:35Z</time></trkpt><trkpt lat="43.14912372545596" lon="12.782586757378976"><ele>462.0</ele><time>2026-04-27T11:36:36Z</time></trkpt><trkpt lat="43.14930749973335" lon="12.782544031721192"><ele>464.33333333333337</ele><time>2026-04-27T11:36:37Z</time></trkpt><trkpt lat="43.14949062639921" lon="12.782501456607012"><ele>466.6666666666667</ele><time>2026-04-27T11:36:38Z</time></trkpt><trkpt lat="43.14967665379295" lon="12.782458207119102"><ele>469.0</ele><time>2026-04-27T11:36:39Z</time></trkpt><trkpt lat="43.14987955255079" lon="12.782423242451824"><ele>469.6666666666667</ele><time>2026-04-27T11:36:40Z</time></trkpt><trkpt lat="43.150036783026444" lon="12.78246875255374"><ele>470.33333333333337</ele><time>2026-04-27T11:36:41Z</time></trkpt><trkpt lat="43.15020646406981" lon="12.782462664283864"><ele>471.0</ele><time>2026-04-27T11:36:42Z</time></trkpt><trkpt lat="43.15037219360369" lon="12.782424464878734"><ele>471.0</ele><time>2026-04-27T11:36:43Z</time></trkpt><trkpt lat="43.15054625540247" lon="12.782384345100505"><ele>471.0</ele><time>2026-04-27T11:36:44Z</time></trkpt><trkpt lat="43.150726454190085" lon="12.78234281097176"><ele>471.0</ele><time>2026-04-27T11:36:45Z</time></trkpt><trkpt lat="43.151094374508375" lon="12.782131164957724"><ele>466.66666666666663</ele><time>2026-04-27T11:36:46Z</time></trkpt><trkpt lat="43.15129341755932" lon="12.782085287384549"><ele>462.3333333333333</ele><time>2026-04-27T11:36:47Z</time></trkpt><trkpt lat="43.151490924761895" lon="12.78203976381069"><ele>458.0</ele><time>2026-04-27T11:36:48Z</time></trkpt><trkpt lat="43.15169249245332" lon="12.781993373083457"><ele>456.66666666666663</ele><time>2026-04-27T11:36:49Z</time></trkpt><trkpt lat="43.15192972857692" lon="12.781939016014151"><ele>455.33333333333337</ele><time>2026-04-27T11:36:50Z</time></trkpt><trkpt lat="43.15212562702239" lon="12.781893420046226"><ele>454.0</ele><time>2026-04-27T11:36:51Z</time></trkpt><trkpt lat="43.152320684652146" lon="12.781847813163251"><ele>452.33333333333337</ele><time>2026-04-27T11:36:52Z</time></trkpt><trkpt lat="43.15253003645112" lon="12.781789200390504"><ele>450.66666666666663</ele><time>2026-04-27T11:36:53Z</time></trkpt><trkpt lat="43.15273655168427" lon="12.781748438637402"><ele>449.0</ele><time>2026-04-27T11:36:54Z</time></trkpt><trkpt lat="43.1529367105458" lon="12.781695243760641"><ele>449.0</ele><time>2026-04-27T11:36:55Z</time></trkpt><trkpt lat="43.15314262252131" lon="12.78164379861911"><ele>449.0</ele><time>2026-04-27T11:36:56Z</time></trkpt><trkpt lat="43.15334743316091" lon="12.781601002118148"><ele>449.0</ele><time>2026-04-27T11:36:57Z</time></trkpt><trkpt lat="43.15355371023071" lon="12.78155489855109"><ele>449.0</ele><time>2026-04-27T11:36:58Z</time></trkpt><trkpt lat="43.15375588388613" lon="12.781508154793038"><ele>449.0</ele><time>2026-04-27T11:36:59Z</time></trkpt><trkpt lat="43.15395885981901" lon="12.781459020527555"><ele>449.0</ele><time>2026-04-27T11:37:00Z</time></trkpt><trkpt lat="43.15416099566294" lon="12.781411348449149"><ele>449.0</ele><time>2026-04-27T11:37:01Z</time></trkpt><trkpt lat="43.1543594726582" lon="12.781363300946852"><ele>449.0</ele><time>2026-04-27T11:37:02Z</time></trkpt><trkpt lat="43.15455948732339" lon="12.781319478876574"><ele>449.0</ele><time>2026-04-27T11:37:03Z</time></trkpt><trkpt lat="43.15475523784374" lon="12.781269607601986"><ele>453.3333333333333</ele><time>2026-04-27T11:37:04Z</time></trkpt><trkpt lat="43.154950451339644" lon="12.781223723107102"><ele>457.66666666666663</ele><time>2026-04-27T11:37:05Z</time></trkpt><trkpt lat="43.15514314739994" lon="12.781168393034712"><ele>462.0</ele><time>2026-04-27T11:37:06Z</time></trkpt><trkpt lat="43.15532987338722" lon="12.78115319923175"><ele>462.0</ele><time>2026-04-27T11:37:07Z</time></trkpt><trkpt lat="43.155522117888054" lon="12.781121977350532"><ele>462.0</ele><time>2026-04-27T11:37:08Z</time></trkpt><trkpt lat="43.15571107102078" lon="12.781087536706409"><ele>462.0</ele><time>2026-04-27T11:37:09Z</time></trkpt><trkpt lat="43.155897505239594" lon="12.78109836305833"><ele>462.66666666666663</ele><time>2026-04-27T11:37:10Z</time></trkpt><trkpt lat="43.15608289673708" lon="12.781112290186014"><ele>463.3333333333333</ele><time>2026-04-27T11:37:11Z</time></trkpt><trkpt lat="43.15626362200492" lon="12.781059854638825"><ele>464.0</ele><time>2026-04-27T11:37:12Z</time></trkpt><trkpt lat="43.156577773223944" lon="12.780873426998678"><ele>464.0</ele><time>2026-04-27T11:37:13Z</time></trkpt><trkpt lat="43.156787476380174" lon="12.78083134025483"><ele>464.0</ele><time>2026-04-27T11:37:14Z</time></trkpt><trkpt lat="43.15699011383701" lon="12.780765587168641"><ele>464.0</ele><time>2026-04-27T11:37:15Z</time></trkpt><trkpt lat="43.15719641612273" lon="12.780727455276027"><ele>460.3333333333333</ele><time>2026-04-27T11:37:16Z</time></trkpt><trkpt lat="43.15740187076771" lon="12.780687568054498"><ele>456.66666666666663</ele><time>2026-04-27T11:37:17Z</time></trkpt><trkpt lat="43.157610713431986" lon="12.780647231615195"><ele>453.0</ele><time>2026-04-27T11:37:18Z</time></trkpt><trkpt lat="43.157816538177606" lon="12.780604214528342"><ele>453.0</ele><time>2026-04-27T11:37:19Z</time></trkpt><trkpt lat="43.15802765300466" lon="12.780545144906569"><ele>453.0</ele><time>2026-04-27T11:37:20Z</time></trkpt><trkpt lat="43.158236227055454" lon="12.780503208925204"><ele>453.0</ele><time>2026-04-27T11:37:21Z</time></trkpt><trkpt lat="43.1584452275111" lon="12.78046019702883"><ele>456.0</ele><time>2026-04-27T11:37:22Z</time></trkpt><trkpt lat="43.158656058577904" lon="12.780416258353723"><ele>459.0</ele><time>2026-04-27T11:37:23Z</time></trkpt><trkpt lat="43.15886826054989" lon="12.780370054853941"><ele>462.0</ele><time>2026-04-27T11:37:24Z</time></trkpt><trkpt lat="43.15907851276324" lon="12.780323921529126"><ele>463.0</ele><time>2026-04-27T11:37:25Z</time></trkpt><trkpt lat="43.15928888437206" lon="12.780278183487079"><ele>464.0</ele><time>2026-04-27T11:37:26Z</time></trkpt><trkpt lat="43.1595020477158" lon="12.780234316372391"><ele>465.0</ele><time>2026-04-27T11:37:27Z</time></trkpt><trkpt lat="43.159716299330285" lon="12.78019032752928"><ele>466.66666666666663</ele><time>2026-04-27T11:37:28Z</time></trkpt><trkpt lat="43.15993053281972" lon="12.780147378758972"><ele>468.3333333333333</ele><time>2026-04-27T11:37:29Z</time></trkpt><trkpt lat="43.16014490399096" lon="12.78010187382395"><ele>470.0</ele><time>2026-04-27T11:37:30Z</time></trkpt><trkpt lat="43.16035767218676" lon="12.78005321830961"><ele>470.0</ele><time>2026-04-27T11:37:31Z</time></trkpt><trkpt lat="43.1605692539842" lon="12.780005674676659"><ele>470.0</ele><time>2026-04-27T11:37:32Z</time></trkpt><trkpt lat="43.16078382724699" lon="12.779961677586813"><ele>470.0</ele><time>2026-04-27T11:37:33Z</time></trkpt><trkpt lat="43.16099624186323" lon="12.779917202592436"><ele>468.0</ele><time>2026-04-27T11:37:34Z</time></trkpt><trkpt lat="43.1612094627707" lon="12.77987093055037"><ele>466.0</ele><time>2026-04-27T11:37:35Z</time></trkpt><trkpt lat="43.161421819524335" lon="12.779826081243945"><ele>464.0</ele><time>2026-04-27T11:37:36Z</time></trkpt><trkpt lat="43.16163394996951" lon="12.779782200354086"><ele>462.66666666666663</ele><time>2026-04-27T11:37:37Z</time></trkpt><trkpt lat="43.1618460564517" lon="12.779738265028145"><ele>461.33333333333337</ele><time>2026-04-27T11:37:38Z</time></trkpt><trkpt lat="43.162055932670995" lon="12.779692111595091"><ele>460.0</ele><time>2026-04-27T11:37:39Z</time></trkpt><trkpt lat="43.162265747025415" lon="12.779645590821064"><ele>461.6666666666667</ele><time>2026-04-27T11:37:40Z</time></trkpt><trkpt lat="43.16247666323367" lon="12.779603076807378"><ele>463.33333333333337</ele><time>2026-04-27T11:37:41Z</time></trkpt><trkpt lat="43.16268620843164" lon="12.77955973837435"><ele>465.0</ele><time>2026-04-27T11:37:42Z</time></trkpt><trkpt lat="43.16289643565622" lon="12.779512947762395"><ele>465.0</ele><time>2026-04-27T11:37:43Z</time></trkpt><trkpt lat="43.1631084938292" lon="12.779464141060853"><ele>465.0</ele><time>2026-04-27T11:37:44Z</time></trkpt><trkpt lat="43.163320999723375" lon="12.779414973300586"><ele>465.0</ele><time>2026-04-27T11:37:45Z</time></trkpt><trkpt lat="43.16354008062435" lon="12.77936733599627"><ele>463.66666666666663</ele><time>2026-04-27T11:37:46Z</time></trkpt><trkpt lat="43.163757912285114" lon="12.779322061729498"><ele>462.3333333333333</ele><time>2026-04-27T11:37:47Z</time></trkpt><trkpt lat="43.16397970593842" lon="12.779276731017367"><ele>461.0</ele><time>2026-04-27T11:37:48Z</time></trkpt><trkpt lat="43.1642037367966" lon="12.779233352490929"><ele>459.5</ele><time>2026-04-27T11:37:49Z</time></trkpt><trkpt lat="43.164430732816285" lon="12.779192861186292"><ele>458.0</ele><time>2026-04-27T11:37:50Z</time></trkpt><trkpt lat="43.16465836665682" lon="12.779158279779766"><ele>458.0</ele><time>2026-04-27T11:37:51Z</time></trkpt><trkpt lat="43.16488753771485" lon="12.779133851365195"><ele>458.0</ele><time>2026-04-27T11:37:52Z</time></trkpt><trkpt lat="43.16511825246212" lon="12.779120412507316"><ele>458.0</ele><time>2026-04-27T11:37:53Z</time></trkpt><trkpt lat="43.165348930694336" lon="12.779120404458949"><ele>458.0</ele><time>2026-04-27T11:37:54Z</time></trkpt><trkpt lat="43.165580856264086" lon="12.779123255055636"><ele>459.0</ele><time>2026-04-27T11:37:55Z</time></trkpt><trkpt lat="43.16581337357421" lon="12.779133334794194"><ele>460.0</ele><time>2026-04-27T11:37:56Z</time></trkpt><trkpt lat="43.16604721747337" lon="12.779143644178527"><ele>460.0</ele><time>2026-04-27T11:37:57Z</time></trkpt><trkpt lat="43.16627937927493" lon="12.779156019753211"><ele>460.0</ele><time>2026-04-27T11:37:58Z</time></trkpt><trkpt lat="43.16651127821834" lon="12.779169738403706"><ele>461.0</ele><time>2026-04-27T11:37:59Z</time></trkpt><trkpt lat="43.166741101794514" lon="12.779181440354348"><ele>462.0</ele><time>2026-04-27T11:38:00Z</time></trkpt><trkpt lat="43.16697307168574" lon="12.779191001454148"><ele>462.0</ele><time>2026-04-27T11:38:01Z</time></trkpt><trkpt lat="43.16720320968683" lon="12.779202174986766"><ele>462.0</ele><time>2026-04-27T11:38:02Z</time></trkpt><trkpt lat="43.16743059888477" lon="12.779215266387036"><ele>462.5</ele><time>2026-04-27T11:38:03Z</time></trkpt><trkpt lat="43.16765829547717" lon="12.77922733873214"><ele>463.0</ele><time>2026-04-27T11:38:04Z</time></trkpt><trkpt lat="43.16788589658297" lon="12.779236988912668"><ele>463.0</ele><time>2026-04-27T11:38:05Z</time></trkpt><trkpt lat="43.16811327374525" lon="12.779245862689974"><ele>463.0</ele><time>2026-04-27T11:38:06Z</time></trkpt><trkpt lat="43.16833821843753" lon="12.779249778120978"><ele>463.33333333333337</ele><time>2026-04-27T11:38:07Z</time></trkpt><trkpt lat="43.16856237015793" lon="12.779242806211464"><ele>463.66666666666663</ele><time>2026-04-27T11:38:08Z</time></trkpt><trkpt lat="43.16878521573181" lon="12.779225858876513"><ele>464.0</ele><time>2026-04-27T11:38:09Z</time></trkpt><trkpt lat="43.169006445407035" lon="12.779198635162064"><ele>464.66666666666663</ele><time>2026-04-27T11:38:10Z</time></trkpt><trkpt lat="43.16922706966173" lon="12.779164681910759"><ele>465.33333333333337</ele><time>2026-04-27T11:38:11Z</time></trkpt><trkpt lat="43.16944850452061" lon="12.779129211392897"><ele>466.0</ele><time>2026-04-27T11:38:12Z</time></trkpt><trkpt lat="43.169664217971494" lon="12.779089986911131"><ele>466.33333333333337</ele><time>2026-04-27T11:38:13Z</time></trkpt><trkpt lat="43.16987879030111" lon="12.779046308000233"><ele>466.66666666666663</ele><time>2026-04-27T11:38:14Z</time></trkpt><trkpt lat="43.17009216704881" lon="12.779002205178509"><ele>467.0</ele><time>2026-04-27T11:38:15Z</time></trkpt><trkpt lat="43.17030212709596" lon="12.778956898273748"><ele>467.0</ele><time>2026-04-27T11:38:16Z</time></trkpt><trkpt lat="43.17051016007622" lon="12.778908934197357"><ele>467.0</ele><time>2026-04-27T11:38:17Z</time></trkpt><trkpt lat="43.17071516340498" lon="12.778859998375149"><ele>467.0</ele><time>2026-04-27T11:38:18Z</time></trkpt><trkpt lat="43.17091917233009" lon="12.778813309480295"><ele>467.3333333333333</ele><time>2026-04-27T11:38:19Z</time></trkpt><trkpt lat="43.17112114128266" lon="12.778768339219134"><ele>467.66666666666663</ele><time>2026-04-27T11:38:20Z</time></trkpt><trkpt lat="43.17132493782057" lon="12.778721528717254"><ele>468.0</ele><time>2026-04-27T11:38:21Z</time></trkpt><trkpt lat="43.17152805053629" lon="12.778674984588374"><ele>469.0</ele><time>2026-04-27T11:38:22Z</time></trkpt><trkpt lat="43.17172986943485" lon="12.778631276906946"><ele>470.0</ele><time>2026-04-27T11:38:23Z</time></trkpt><trkpt lat="43.17193196903288" lon="12.778586934663535"><ele>471.0</ele><time>2026-04-27T11:38:24Z</time></trkpt><trkpt lat="43.17213351388473" lon="12.77854080751026"><ele>471.0</ele><time>2026-04-27T11:38:25Z</time></trkpt><trkpt lat="43.17233710968003" lon="12.778494808346286"><ele>471.0</ele><time>2026-04-27T11:38:26Z</time></trkpt><trkpt lat="43.17254084853015" lon="12.778448930550685"><ele>471.0</ele><time>2026-04-27T11:38:27Z</time></trkpt><trkpt lat="43.172745961328665" lon="12.778402842506381"><ele>472.66666666666663</ele><time>2026-04-27T11:38:28Z</time></trkpt><trkpt lat="43.172950350199024" lon="12.778359522592954"><ele>474.3333333333333</ele><time>2026-04-27T11:38:29Z</time></trkpt><trkpt lat="43.17315431410764" lon="12.778315095987367"><ele>476.0</ele><time>2026-04-27T11:38:30Z</time></trkpt><trkpt lat="43.17336149487072" lon="12.778268090747675"><ele>476.0</ele><time>2026-04-27T11:38:31Z</time></trkpt><trkpt lat="43.17356884682518" lon="12.77821925815343"><ele>476.0</ele><time>2026-04-27T11:38:32Z</time></trkpt><trkpt lat="43.17377856155656" lon="12.778172117891728"><ele>476.0</ele><time>2026-04-27T11:38:33Z</time></trkpt><trkpt lat="43.17399189450628" lon="12.778126824182076"><ele>476.0</ele><time>2026-04-27T11:38:34Z</time></trkpt><trkpt lat="43.174204242204155" lon="12.778076943134792"><ele>476.0</ele><time>2026-04-27T11:38:35Z</time></trkpt><trkpt lat="43.17441562077656" lon="12.778028495587103"><ele>476.0</ele><time>2026-04-27T11:38:36Z</time></trkpt><trkpt lat="43.17462758282524" lon="12.777980221762542"><ele>476.0</ele><time>2026-04-27T11:38:37Z</time></trkpt><trkpt lat="43.17483985604423" lon="12.77793244201476"><ele>476.0</ele><time>2026-04-27T11:38:38Z</time></trkpt><trkpt lat="43.175051566100336" lon="12.777884426624594"><ele>476.0</ele><time>2026-04-27T11:38:39Z</time></trkpt><trkpt lat="43.17526290915197" lon="12.777836452527184"><ele>475.0</ele><time>2026-04-27T11:38:40Z</time></trkpt><trkpt lat="43.175469010023996" lon="12.777790237468169"><ele>474.0</ele><time>2026-04-27T11:38:41Z</time></trkpt><trkpt lat="43.17566659402565" lon="12.777745004850546"><ele>473.0</ele><time>2026-04-27T11:38:42Z</time></trkpt><trkpt lat="43.175861082653725" lon="12.77769951022258"><ele>471.3333333333333</ele><time>2026-04-27T11:38:43Z</time></trkpt><trkpt lat="43.17605553911177" lon="12.777654263849296"><ele>469.66666666666663</ele><time>2026-04-27T11:38:44Z</time></trkpt><trkpt lat="43.176247809773656" lon="12.777611781334178"><ele>468.0</ele><time>2026-04-27T11:38:45Z</time></trkpt><trkpt lat="43.17643792250089" lon="12.777570330000744"><ele>470.0</ele><time>2026-04-27T11:38:46Z</time></trkpt><trkpt lat="43.17662654155713" lon="12.77752954382724"><ele>472.0</ele><time>2026-04-27T11:38:47Z</time></trkpt><trkpt lat="43.17681409023842" lon="12.777488152978671"><ele>474.0</ele><time>2026-04-27T11:38:48Z</time></trkpt><trkpt lat="43.17700535950596" lon="12.777445581240892"><ele>474.0</ele><time>2026-04-27T11:38:49Z</time></trkpt><trkpt lat="43.177198309494926" lon="12.777401891929157"><ele>474.0</ele><time>2026-04-27T11:38:50Z</time></trkpt><trkpt lat="43.17739332905471" lon="12.77735657791249"><ele>474.0</ele><time>2026-04-27T11:38:51Z</time></trkpt><trkpt lat="43.17759041900919" lon="12.777310222726307"><ele>474.66666666666663</ele><time>2026-04-27T11:38:52Z</time></trkpt><trkpt lat="43.17778897395751" lon="12.777264821118848"><ele>475.3333333333333</ele><time>2026-04-27T11:38:53Z</time></trkpt><trkpt lat="43.177989244583294" lon="12.77721816508249"><ele>476.0</ele><time>2026-04-27T11:38:54Z</time></trkpt><trkpt lat="43.17818949498075" lon="12.77717189722641"><ele>477.0</ele><time>2026-04-27T11:38:55Z</time></trkpt><trkpt lat="43.178389411800694" lon="12.777126974763707"><ele>478.0</ele><time>2026-04-27T11:38:56Z</time></trkpt><trkpt lat="43.178588660827565" lon="12.777082931919464"><ele>479.0</ele><time>2026-04-27T11:38:57Z</time></trkpt><trkpt lat="43.17878814711815" lon="12.777038770438425"><ele>479.0</ele><time>2026-04-27T11:38:58Z</time></trkpt><trkpt lat="43.17898704344639" lon="12.776993335705262"><ele>479.0</ele><time>2026-04-27T11:38:59Z</time></trkpt><trkpt lat="43.17918645685627" lon="12.776947743872107"><ele>479.0</ele><time>2026-04-27T11:39:00Z</time></trkpt><trkpt lat="43.1793858980304" lon="12.776903717210274"><ele>479.3333333333333</ele><time>2026-04-27T11:39:01Z</time></trkpt><trkpt lat="43.17958414551942" lon="12.77686153925702"><ele>479.66666666666663</ele><time>2026-04-27T11:39:02Z</time></trkpt><trkpt lat="43.1797788603829" lon="12.776819270706971"><ele>480.0</ele><time>2026-04-27T11:39:03Z</time></trkpt><trkpt lat="43.17996697555455" lon="12.776777563883023"><ele>481.0</ele><time>2026-04-27T11:39:04Z</time></trkpt><trkpt lat="43.18015086879206" lon="12.77673397522933"><ele>482.0</ele><time>2026-04-27T11:39:05Z</time></trkpt><trkpt lat="43.18032911882845" lon="12.77668921869034"><ele>483.0</ele><time>2026-04-27T11:39:06Z</time></trkpt><trkpt lat="43.180503100948485" lon="12.776639850788253"><ele>483.0</ele><time>2026-04-27T11:39:07Z</time></trkpt><trkpt lat="43.18067508803302" lon="12.776588960232901"><ele>483.0</ele><time>2026-04-27T11:39:08Z</time></trkpt><trkpt lat="43.18084107667133" lon="12.776538175936558"><ele>483.0</ele><time>2026-04-27T11:39:09Z</time></trkpt><trkpt lat="43.18099799906455" lon="12.776484862919373"><ele>482.33333333333337</ele><time>2026-04-27T11:39:10Z</time></trkpt><trkpt lat="43.18115037893283" lon="12.776425270019438"><ele>481.6666666666667</ele><time>2026-04-27T11:39:11Z</time></trkpt><trkpt lat="43.18130431629727" lon="12.776361627730877"><ele>481.0</ele><time>2026-04-27T11:39:12Z</time></trkpt><trkpt lat="43.18145691111884" lon="12.776298199306405"><ele>481.0</ele><time>2026-04-27T11:39:13Z</time></trkpt><trkpt lat="43.181606911399406" lon="12.776234037973982"><ele>481.0</ele><time>2026-04-27T11:39:14Z</time></trkpt><trkpt lat="43.181760429805244" lon="12.776162910795982"><ele>481.0</ele><time>2026-04-27T11:39:15Z</time></trkpt><trkpt lat="43.181916355395934" lon="12.776083195121396"><ele>481.0</ele><time>2026-04-27T11:39:16Z</time></trkpt><trkpt lat="43.182073599074315" lon="12.776002558487942"><ele>481.0</ele><time>2026-04-27T11:39:17Z</time></trkpt><trkpt lat="43.182230342245184" lon="12.77592443280925"><ele>481.0</ele><time>2026-04-27T11:39:18Z</time></trkpt><trkpt lat="43.18238453814602" lon="12.775847017908939"><ele>481.0</ele><time>2026-04-27T11:39:19Z</time></trkpt><trkpt lat="43.18254029136079" lon="12.77576867250609"><ele>481.0</ele><time>2026-04-27T11:39:20Z</time></trkpt><trkpt lat="43.182696334697575" lon="12.7756907024203"><ele>481.0</ele><time>2026-04-27T11:39:21Z</time></trkpt><trkpt lat="43.18285272906784" lon="12.775611533362866"><ele>481.0</ele><time>2026-04-27T11:39:22Z</time></trkpt><trkpt lat="43.183011927426094" lon="12.775530805742312"><ele>481.0</ele><time>2026-04-27T11:39:23Z</time></trkpt><trkpt lat="43.18317349367593" lon="12.775451506738987"><ele>481.0</ele><time>2026-04-27T11:39:24Z</time></trkpt><trkpt lat="43.18333763572611" lon="12.775372893967"><ele>481.0</ele><time>2026-04-27T11:39:25Z</time></trkpt><trkpt lat="43.18350324929767" lon="12.775297068609701"><ele>481.0</ele><time>2026-04-27T11:39:26Z</time></trkpt><trkpt lat="43.183670715872026" lon="12.775224517569534"><ele>481.0</ele><time>2026-04-27T11:39:27Z</time></trkpt><trkpt lat="43.18384314880454" lon="12.775153976859617"><ele>482.6666666666667</ele><time>2026-04-27T11:39:28Z</time></trkpt><trkpt lat="43.18401855520943" lon="12.775088196375057"><ele>484.33333333333337</ele><time>2026-04-27T11:39:29Z</time></trkpt><trkpt lat="43.18419693627855" lon="12.775027578123742"><ele>486.0</ele><time>2026-04-27T11:39:30Z</time></trkpt><trkpt lat="43.1843769566158" lon="12.774972150201112"><ele>486.0</ele><time>2026-04-27T11:39:31Z</time></trkpt><trkpt lat="43.18455981392266" lon="12.774922727690514"><ele>486.0</ele><time>2026-04-27T11:39:32Z</time></trkpt><trkpt lat="43.184745658794974" lon="12.774881172041104"><ele>486.0</ele><time>2026-04-27T11:39:33Z</time></trkpt><trkpt lat="43.18493128416838" lon="12.774845000976326"><ele>486.33333333333337</ele><time>2026-04-27T11:39:34Z</time></trkpt><trkpt lat="43.185117451790504" lon="12.774813671186244"><ele>486.6666666666667</ele><time>2026-04-27T11:39:35Z</time></trkpt><trkpt lat="43.185304316864276" lon="12.774787249776647"><ele>487.0</ele><time>2026-04-27T11:39:36Z</time></trkpt><trkpt lat="43.18549096066649" lon="12.774768293422504"><ele>487.0</ele><time>2026-04-27T11:39:37Z</time></trkpt><trkpt lat="43.185675796195845" lon="12.774757659021516"><ele>487.0</ele><time>2026-04-27T11:39:38Z</time></trkpt><trkpt lat="43.18586001667602" lon="12.774754106251628"><ele>487.0</ele><time>2026-04-27T11:39:39Z</time></trkpt><trkpt lat="43.18604290882834" lon="12.77475803601814"><ele>487.6666666666667</ele><time>2026-04-27T11:39:40Z</time></trkpt><trkpt lat="43.18622277266246" lon="12.774765411037007"><ele>488.33333333333337</ele><time>2026-04-27T11:39:41Z</time></trkpt><trkpt lat="43.186401995846786" lon="12.774773504913705"><ele>489.0</ele><time>2026-04-27T11:39:42Z</time></trkpt><trkpt lat="43.186581593515356" lon="12.774783152004174"><ele>490.0</ele><time>2026-04-27T11:39:43Z</time></trkpt><trkpt lat="43.18676034821033" lon="12.774793126214053"><ele>491.0</ele><time>2026-04-27T11:39:44Z</time></trkpt><trkpt lat="43.18693944371458" lon="12.774804006513687"><ele>492.0</ele><time>2026-04-27T11:39:45Z</time></trkpt><trkpt lat="43.187117191783585" lon="12.774818031683404"><ele>492.0</ele><time>2026-04-27T11:39:46Z</time></trkpt><trkpt lat="43.18729379341907" lon="12.774833032578846"><ele>492.0</ele><time>2026-04-27T11:39:47Z</time></trkpt><trkpt lat="43.18746764655199" lon="12.774844730049939"><ele>492.0</ele><time>2026-04-27T11:39:48Z</time></trkpt><trkpt lat="43.187637816161484" lon="12.774853150038929"><ele>493.0</ele><time>2026-04-27T11:39:49Z</time></trkpt><trkpt lat="43.18780619485107" lon="12.774856038423858"><ele>494.0</ele><time>2026-04-27T11:39:50Z</time></trkpt><trkpt lat="43.187972045139006" lon="12.77485461399872"><ele>495.0</ele><time>2026-04-27T11:39:51Z</time></trkpt><trkpt lat="43.18813689799172" lon="12.774847896836517"><ele>496.0</ele><time>2026-04-27T11:39:52Z</time></trkpt><trkpt lat="43.18830464496665" lon="12.774838579907502"><ele>497.0</ele><time>2026-04-27T11:39:53Z</time></trkpt><trkpt lat="43.188474659894695" lon="12.77482848190503"><ele>498.0</ele><time>2026-04-27T11:39:54Z</time></trkpt><trkpt lat="43.18864649592841" lon="12.774807222071958"><ele>498.0</ele><time>2026-04-27T11:39:55Z</time></trkpt><trkpt lat="43.18881870998968" lon="12.774777220603163"><ele>498.0</ele><time>2026-04-27T11:39:56Z</time></trkpt><trkpt lat="43.1889910237672" lon="12.774740975841318"><ele>498.0</ele><time>2026-04-27T11:39:57Z</time></trkpt><trkpt lat="43.18916081860122" lon="12.774700695657993"><ele>499.33333333333337</ele><time>2026-04-27T11:39:58Z</time></trkpt><trkpt lat="43.18932620320512" lon="12.774657970310617"><ele>500.6666666666667</ele><time>2026-04-27T11:39:59Z</time></trkpt><trkpt lat="43.189482750032795" lon="12.774608282769456"><ele>502.0</ele><time>2026-04-27T11:40:00Z</time></trkpt><trkpt lat="43.18964203659705" lon="12.77455129614396"><ele>502.0</ele><time>2026-04-27T11:40:01Z</time></trkpt><trkpt lat="43.189799617725946" lon="12.774488733253442"><ele>502.0</ele><time>2026-04-27T11:40:02Z</time></trkpt><trkpt lat="43.18994267297662" lon="12.774424886259187"><ele>502.0</ele><time>2026-04-27T11:40:03Z</time></trkpt><trkpt lat="43.19007374363822" lon="12.774363679533126"><ele>504.0</ele><time>2026-04-27T11:40:04Z</time></trkpt><trkpt lat="43.1901993984953" lon="12.774298729922771"><ele>506.0</ele><time>2026-04-27T11:40:05Z</time></trkpt><trkpt lat="43.19032862637893" lon="12.774228863068553"><ele>508.0</ele><time>2026-04-27T11:40:06Z</time></trkpt><trkpt lat="43.190460281746596" lon="12.774156574722761"><ele>510.0</ele><time>2026-04-27T11:40:07Z</time></trkpt><trkpt lat="43.19058690379906" lon="12.774075986566157"><ele>509.33333333333337</ele><time>2026-04-27T11:40:08Z</time></trkpt><trkpt lat="43.19072057764189" lon="12.773988186018864"><ele>508.6666666666667</ele><time>2026-04-27T11:40:09Z</time></trkpt><trkpt lat="43.19085948898048" lon="12.773894413536766"><ele>508.0</ele><time>2026-04-27T11:40:10Z</time></trkpt><trkpt lat="43.19100074154323" lon="12.773789432356766"><ele>508.0</ele><time>2026-04-27T11:40:11Z</time></trkpt><trkpt lat="43.19114875030625" lon="12.773674312252203"><ele>508.0</ele><time>2026-04-27T11:40:12Z</time></trkpt><trkpt lat="43.191299916682205" lon="12.77355076741874"><ele>508.0</ele><time>2026-04-27T11:40:13Z</time></trkpt><trkpt lat="43.19145678014741" lon="12.773417139950924"><ele>507.6666666666667</ele><time>2026-04-27T11:40:14Z</time></trkpt><trkpt lat="43.191612109137616" lon="12.773270720142595"><ele>507.33333333333337</ele><time>2026-04-27T11:40:15Z</time></trkpt><trkpt lat="43.19176424132428" lon="12.77311570744491"><ele>507.0</ele><time>2026-04-27T11:40:16Z</time></trkpt><trkpt lat="43.191916755749446" lon="12.772952837914579"><ele>507.0</ele><time>2026-04-27T11:40:17Z</time></trkpt><trkpt lat="43.192065746720935" lon="12.772784363810485"><ele>507.0</ele><time>2026-04-27T11:40:18Z</time></trkpt><trkpt lat="43.19221064455586" lon="12.772608156381706"><ele>507.0</ele><time>2026-04-27T11:40:19Z</time></trkpt><trkpt lat="43.19235854235972" lon="12.772425132576876"><ele>506.33333333333337</ele><time>2026-04-27T11:40:20Z</time></trkpt><trkpt lat="43.19250763207247" lon="12.772238283912806"><ele>505.6666666666667</ele><time>2026-04-27T11:40:21Z</time></trkpt><trkpt lat="43.192657410283694" lon="12.77204912164521"><ele>505.0</ele><time>2026-04-27T11:40:22Z</time></trkpt><trkpt lat="43.19280840889032" lon="12.771857905660355"><ele>504.6666666666667</ele><time>2026-04-27T11:40:23Z</time></trkpt><trkpt lat="43.192962608345994" lon="12.771662606593555"><ele>504.33333333333337</ele><time>2026-04-27T11:40:24Z</time></trkpt><trkpt lat="43.193119487788024" lon="12.771466298351172"><ele>504.0</ele><time>2026-04-27T11:40:25Z</time></trkpt><trkpt lat="43.19328015719971" lon="12.771262397269611"><ele>504.0</ele><time>2026-04-27T11:40:26Z</time></trkpt><trkpt lat="43.19343962486493" lon="12.771057153056528"><ele>504.0</ele><time>2026-04-27T11:40:27Z</time></trkpt><trkpt lat="43.19360187692932" lon="12.770850942362749"><ele>504.0</ele><time>2026-04-27T11:40:28Z</time></trkpt><trkpt lat="43.1937619552572" lon="12.770646412906038"><ele>502.0</ele><time>2026-04-27T11:40:29Z</time></trkpt><trkpt lat="43.19391930900375" lon="12.770442102749922"><ele>500.0</ele><time>2026-04-27T11:40:30Z</time></trkpt><trkpt lat="43.19407694812897" lon="12.77024225807745"><ele>498.0</ele><time>2026-04-27T11:40:31Z</time></trkpt><trkpt lat="43.1942326463089" lon="12.770043903134177"><ele>497.33333333333337</ele><time>2026-04-27T11:40:32Z</time></trkpt><trkpt lat="43.19438512902403" lon="12.769849985271522"><ele>496.6666666666667</ele><time>2026-04-27T11:40:33Z</time></trkpt><trkpt lat="43.194536878355336" lon="12.769653026472099"><ele>496.0</ele><time>2026-04-27T11:40:34Z</time></trkpt><trkpt lat="43.19468998973949" lon="12.76945865954205"><ele>495.0</ele><time>2026-04-27T11:40:35Z</time></trkpt><trkpt lat="43.194842487256075" lon="12.76926815914952"><ele>494.0</ele><time>2026-04-27T11:40:36Z</time></trkpt><trkpt lat="43.19499685669244" lon="12.769074983579937"><ele>493.0</ele><time>2026-04-27T11:40:37Z</time></trkpt><trkpt lat="43.19515452531412" lon="12.768882189294883"><ele>493.0</ele><time>2026-04-27T11:40:38Z</time></trkpt><trkpt lat="43.19531495102291" lon="12.768689985511315"><ele>493.0</ele><time>2026-04-27T11:40:39Z</time></trkpt><trkpt lat="43.195473967290965" lon="12.768500348004274"><ele>493.0</ele><time>2026-04-27T11:40:40Z</time></trkpt><trkpt lat="43.195632704158925" lon="12.768321973220267"><ele>492.33333333333337</ele><time>2026-04-27T11:40:41Z</time></trkpt><trkpt lat="43.19578912569769" lon="12.768151853412279"><ele>491.66666666666663</ele><time>2026-04-27T11:40:42Z</time></trkpt><trkpt lat="43.19594630358644" lon="12.76798221615595"><ele>491.0</ele><time>2026-04-27T11:40:43Z</time></trkpt><trkpt lat="43.196104918811756" lon="12.767808682941297"><ele>492.3333333333333</ele><time>2026-04-27T11:40:44Z</time></trkpt><trkpt lat="43.196262989234555" lon="12.767642616742899"><ele>493.66666666666663</ele><time>2026-04-27T11:40:45Z</time></trkpt><trkpt lat="43.1964207949058" lon="12.76747848718488"><ele>495.0</ele><time>2026-04-27T11:40:46Z</time></trkpt><trkpt lat="43.19657677576373" lon="12.767318530742859"><ele>495.0</ele><time>2026-04-27T11:40:47Z</time></trkpt><trkpt lat="43.196733492957094" lon="12.76716232077745"><ele>495.0</ele><time>2026-04-27T11:40:48Z</time></trkpt><trkpt lat="43.19688923036698" lon="12.76701076457418"><ele>495.0</ele><time>2026-04-27T11:40:49Z</time></trkpt><trkpt lat="43.19704301809512" lon="12.766863216272892"><ele>495.33333333333337</ele><time>2026-04-27T11:40:50Z</time></trkpt><trkpt lat="43.19719749268999" lon="12.76671922941948"><ele>495.6666666666667</ele><time>2026-04-27T11:40:51Z</time></trkpt><trkpt lat="43.19735181248057" lon="12.766577519643706"><ele>496.0</ele><time>2026-04-27T11:40:52Z</time></trkpt><trkpt lat="43.197505707199014" lon="12.766441519097844"><ele>494.33333333333337</ele><time>2026-04-27T11:40:53Z</time></trkpt><trkpt lat="43.19766122267651" lon="12.76631143600911"><ele>492.66666666666663</ele><time>2026-04-27T11:40:54Z</time></trkpt><trkpt lat="43.197812588202524" lon="12.766185525332729"><ele>491.0</ele><time>2026-04-27T11:40:55Z</time></trkpt><trkpt lat="43.197966481759295" lon="12.766057341861927"><ele>490.66666666666663</ele><time>2026-04-27T11:40:56Z</time></trkpt><trkpt lat="43.19811923868161" lon="12.76592942550586"><ele>490.33333333333337</ele><time>2026-04-27T11:40:57Z</time></trkpt><trkpt lat="43.19828020389287" lon="12.76580341663908"><ele>490.0</ele><time>2026-04-27T11:40:58Z</time></trkpt><trkpt lat="43.19844261178154" lon="12.7656784926492"><ele>488.6666666666667</ele><time>2026-04-27T11:40:59Z</time></trkpt><trkpt lat="43.19860913844949" lon="12.765555067304774"><ele>487.33333333333337</ele><time>2026-04-27T11:41:00Z</time></trkpt><trkpt lat="43.1987777420969" lon="12.765433404449444"><ele>486.0</ele><time>2026-04-27T11:41:01Z</time></trkpt><trkpt lat="43.19894575397092" lon="12.765315629642469"><ele>485.66666666666663</ele><time>2026-04-27T11:41:02Z</time></trkpt><trkpt lat="43.19911089073652" lon="12.765201795463145"><ele>485.3333333333333</ele><time>2026-04-27T11:41:03Z</time></trkpt><trkpt lat="43.19926882898431" lon="12.76509583746977"><ele>485.0</ele><time>2026-04-27T11:41:04Z</time></trkpt><trkpt lat="43.19942131399106" lon="12.764994089132909"><ele>485.0</ele><time>2026-04-27T11:41:05Z</time></trkpt><trkpt lat="43.19957497573233" lon="12.764891535388355"><ele>485.0</ele><time>2026-04-27T11:41:06Z</time></trkpt><trkpt lat="43.19972804933797" lon="12.764791426187948"><ele>485.0</ele><time>2026-04-27T11:41:07Z</time></trkpt><trkpt lat="43.19987960451915" lon="12.764696945899615"><ele>485.3333333333333</ele><time>2026-04-27T11:41:08Z</time></trkpt><trkpt lat="43.20003430189233" lon="12.764601095960487"><ele>485.66666666666663</ele><time>2026-04-27T11:41:09Z</time></trkpt><trkpt lat="43.200192215519834" lon="12.764509798810517"><ele>486.0</ele><time>2026-04-27T11:41:10Z</time></trkpt><trkpt lat="43.2003562905009" lon="12.764417337545945"><ele>485.66666666666663</ele><time>2026-04-27T11:41:11Z</time></trkpt><trkpt lat="43.200525607691404" lon="12.764325479108225"><ele>485.3333333333333</ele><time>2026-04-27T11:41:12Z</time></trkpt><trkpt lat="43.20070040398314" lon="12.764235563324926"><ele>485.0</ele><time>2026-04-27T11:41:13Z</time></trkpt><trkpt lat="43.20087805283143" lon="12.764148935051747"><ele>484.3333333333333</ele><time>2026-04-27T11:41:14Z</time></trkpt><trkpt lat="43.20105946808595" lon="12.764059755529793"><ele>483.66666666666663</ele><time>2026-04-27T11:41:15Z</time></trkpt><trkpt lat="43.20124297783836" lon="12.763970529590786"><ele>483.0</ele><time>2026-04-27T11:41:16Z</time></trkpt><trkpt lat="43.201427884777125" lon="12.763882613785988"><ele>484.0</ele><time>2026-04-27T11:41:17Z</time></trkpt><trkpt lat="43.20161273926169" lon="12.763796875775311"><ele>485.0</ele><time>2026-04-27T11:41:18Z</time></trkpt><trkpt lat="43.201798390112614" lon="12.763710265872676"><ele>486.0</ele><time>2026-04-27T11:41:19Z</time></trkpt><trkpt lat="43.20198314157248" lon="12.763627646536568"><ele>486.0</ele><time>2026-04-27T11:41:20Z</time></trkpt><trkpt lat="43.20216736024044" lon="12.763546708186169"><ele>486.0</ele><time>2026-04-27T11:41:21Z</time></trkpt><trkpt lat="43.20235100246703" lon="12.76346773316843"><ele>486.0</ele><time>2026-04-27T11:41:22Z</time></trkpt><trkpt lat="43.20253421671042" lon="12.763390607030566"><ele>484.0</ele><time>2026-04-27T11:41:23Z</time></trkpt><trkpt lat="43.202714937680916" lon="12.763312473864765"><ele>482.0</ele><time>2026-04-27T11:41:24Z</time></trkpt><trkpt lat="43.20289559700189" lon="12.763232989284448"><ele>480.0</ele><time>2026-04-27T11:41:25Z</time></trkpt><trkpt lat="43.20307528974475" lon="12.763151442803"><ele>479.66666666666663</ele><time>2026-04-27T11:41:26Z</time></trkpt><trkpt lat="43.20325218942883" lon="12.763066631253738"><ele>479.3333333333333</ele><time>2026-04-27T11:41:27Z</time></trkpt><trkpt lat="43.20343121100913" lon="12.762983190047803"><ele>479.0</ele><time>2026-04-27T11:41:28Z</time></trkpt><trkpt lat="43.20361142128984" lon="12.762894500448759"><ele>479.0</ele><time>2026-04-27T11:41:29Z</time></trkpt><trkpt lat="43.20379351290001" lon="12.762798602225073"><ele>479.0</ele><time>2026-04-27T11:41:30Z</time></trkpt><trkpt lat="43.20397674324632" lon="12.762696181953624"><ele>479.0</ele><time>2026-04-27T11:41:31Z</time></trkpt><trkpt lat="43.20415412937048" lon="12.76258750431227"><ele>477.66666666666663</ele><time>2026-04-27T11:41:32Z</time></trkpt><trkpt lat="43.20433128722124" lon="12.762473029774474"><ele>476.33333333333337</ele><time>2026-04-27T11:41:33Z</time></trkpt><trkpt lat="43.204508946567785" lon="12.762353971283035"><ele>475.0</ele><time>2026-04-27T11:41:34Z</time></trkpt><trkpt lat="43.20467987750568" lon="12.762231802768106"><ele>476.0</ele><time>2026-04-27T11:41:35Z</time></trkpt><trkpt lat="43.20485154906135" lon="12.762109067996361"><ele>477.0</ele><time>2026-04-27T11:41:36Z</time></trkpt><trkpt lat="43.20501985378292" lon="12.761986640996987"><ele>478.0</ele><time>2026-04-27T11:41:37Z</time></trkpt><trkpt lat="43.20518913175975" lon="12.76185928443798"><ele>479.33333333333337</ele><time>2026-04-27T11:41:38Z</time></trkpt><trkpt lat="43.20535517235074" lon="12.761738214236741"><ele>480.66666666666663</ele><time>2026-04-27T11:41:39Z</time></trkpt><trkpt lat="43.20552160822534" lon="12.761620124272548"><ele>482.0</ele><time>2026-04-27T11:41:40Z</time></trkpt><trkpt lat="43.205682021451835" lon="12.761506172856038"><ele>482.0</ele><time>2026-04-27T11:41:41Z</time></trkpt><trkpt lat="43.205840197768694" lon="12.761394187464703"><ele>482.0</ele><time>2026-04-27T11:41:42Z</time></trkpt><trkpt lat="43.20599163468672" lon="12.761283886562703"><ele>482.0</ele><time>2026-04-27T11:41:43Z</time></trkpt><trkpt lat="43.206137691682436" lon="12.761174370633201"><ele>482.0</ele><time>2026-04-27T11:41:44Z</time></trkpt><trkpt lat="43.20628605466957" lon="12.76106447229438"><ele>482.0</ele><time>2026-04-27T11:41:45Z</time></trkpt><trkpt lat="43.20643320719173" lon="12.760951833630285"><ele>482.0</ele><time>2026-04-27T11:41:46Z</time></trkpt><trkpt lat="43.2065820808606" lon="12.76084109151965"><ele>483.3333333333333</ele><time>2026-04-27T11:41:47Z</time></trkpt><trkpt lat="43.20673172791207" lon="12.760734442213119"><ele>484.66666666666663</ele><time>2026-04-27T11:41:48Z</time></trkpt><trkpt lat="43.206882913650446" lon="12.760624813656673"><ele>486.0</ele><time>2026-04-27T11:41:49Z</time></trkpt><trkpt lat="43.20703371132999" lon="12.760514442752857"><ele>486.0</ele><time>2026-04-27T11:41:50Z</time></trkpt><trkpt lat="43.207187668065814" lon="12.760400471192154"><ele>486.0</ele><time>2026-04-27T11:41:51Z</time></trkpt><trkpt lat="43.2073442551514" lon="12.760285575028595"><ele>486.0</ele><time>2026-04-27T11:41:52Z</time></trkpt><trkpt lat="43.20750330426922" lon="12.76016973677373"><ele>488.33333333333337</ele><time>2026-04-27T11:41:53Z</time></trkpt><trkpt lat="43.20766420724202" lon="12.760054479429916"><ele>490.6666666666667</ele><time>2026-04-27T11:41:54Z</time></trkpt><trkpt lat="43.2078278168457" lon="12.759940037032766"><ele>493.0</ele><time>2026-04-27T11:41:55Z</time></trkpt><trkpt lat="43.20799436660481" lon="12.759827557382321"><ele>488.0</ele><time>2026-04-27T11:41:56Z</time></trkpt><trkpt lat="43.20816272897512" lon="12.759715830595793"><ele>483.0</ele><time>2026-04-27T11:41:57Z</time></trkpt><trkpt lat="43.208356445444984" lon="12.759602074714259"><ele>478.0</ele><time>2026-04-27T11:41:58Z</time></trkpt><trkpt lat="43.208533674202585" lon="12.759485194833024"><ele>478.0</ele><time>2026-04-27T11:41:59Z</time></trkpt><trkpt lat="43.20871222284695" lon="12.759374312629962"><ele>478.0</ele><time>2026-04-27T11:42:00Z</time></trkpt><trkpt lat="43.208893814548" lon="12.759265986528666"><ele>478.0</ele><time>2026-04-27T11:42:01Z</time></trkpt><trkpt lat="43.209077424165606" lon="12.759160558552864"><ele>476.6666666666667</ele><time>2026-04-27T11:42:02Z</time></trkpt><trkpt lat="43.20926267841642" lon="12.759059708349247"><ele>475.33333333333337</ele><time>2026-04-27T11:42:03Z</time></trkpt><trkpt lat="43.20944427048033" lon="12.758963293632128"><ele>474.0</ele><time>2026-04-27T11:42:04Z</time></trkpt><trkpt lat="43.20962848120804" lon="12.758872393905673"><ele>474.0</ele><time>2026-04-27T11:42:05Z</time></trkpt><trkpt lat="43.20981175392639" lon="12.758788476096692"><ele>474.0</ele><time>2026-04-27T11:42:06Z</time></trkpt><trkpt lat="43.209993587834845" lon="12.758709085122712"><ele>474.0</ele><time>2026-04-27T11:42:07Z</time></trkpt><trkpt lat="43.210173407009044" lon="12.758634255280782"><ele>475.0</ele><time>2026-04-27T11:42:08Z</time></trkpt><trkpt lat="43.210351006661035" lon="12.75856553936912"><ele>476.0</ele><time>2026-04-27T11:42:09Z</time></trkpt><trkpt lat="43.210527725305546" lon="12.758499070912617"><ele>477.0</ele><time>2026-04-27T11:42:10Z</time></trkpt><trkpt lat="43.2107099073451" lon="12.758433717398754"><ele>473.66666666666663</ele><time>2026-04-27T11:42:11Z</time></trkpt><trkpt lat="43.21089481465173" lon="12.758366629841923"><ele>470.3333333333333</ele><time>2026-04-27T11:42:12Z</time></trkpt><trkpt lat="43.211081410342636" lon="12.758302348189392"><ele>467.0</ele><time>2026-04-27T11:42:13Z</time></trkpt><trkpt lat="43.21127089075846" lon="12.75824584665062"><ele>467.0</ele><time>2026-04-27T11:42:14Z</time></trkpt><trkpt lat="43.21146104948738" lon="12.75819145443731"><ele>467.0</ele><time>2026-04-27T11:42:15Z</time></trkpt><trkpt lat="43.211653166535285" lon="12.758139741183914"><ele>467.0</ele><time>2026-04-27T11:42:16Z</time></trkpt><trkpt lat="43.211845665127015" lon="12.758094409666244"><ele>467.0</ele><time>2026-04-27T11:42:17Z</time></trkpt><trkpt lat="43.21203640318014" lon="12.758053301544752"><ele>467.0</ele><time>2026-04-27T11:42:17.999Z</time></trkpt><trkpt lat="43.21222648379296" lon="12.758017565820458"><ele>467.0</ele><time>2026-04-27T11:42:18.999Z</time></trkpt><trkpt lat="43.212413479997714" lon="12.75798816917686"><ele>467.0</ele><time>2026-04-27T11:42:19.999Z</time></trkpt><trkpt lat="43.21259821462637" lon="12.75796218965263"><ele>467.0</ele><time>2026-04-27T11:42:20.999Z</time></trkpt><trkpt lat="43.21278049560306" lon="12.757935261557863"><ele>467.0</ele><time>2026-04-27T11:42:21.999Z</time></trkpt><trkpt lat="43.21296167749229" lon="12.757912468327717"><ele>467.0</ele><time>2026-04-27T11:42:22.999Z</time></trkpt><trkpt lat="43.213144155989454" lon="12.757890593337082"><ele>467.0</ele><time>2026-04-27T11:42:23.999Z</time></trkpt><trkpt lat="43.21332749191168" lon="12.757870673993025"><ele>467.0</ele><time>2026-04-27T11:42:24.999Z</time></trkpt><trkpt lat="43.21350880752348" lon="12.757850895757194"><ele>467.0</ele><time>2026-04-27T11:42:26Z</time></trkpt><trkpt lat="43.21369131295878" lon="12.757836070760936"><ele>467.0</ele><time>2026-04-27T11:42:27Z</time></trkpt><trkpt lat="43.2138748638559" lon="12.757822136982925"><ele>467.0</ele><time>2026-04-27T11:42:28Z</time></trkpt><trkpt lat="43.214054702499645" lon="12.75781043351227"><ele>466.66666666666663</ele><time>2026-04-27T11:42:29Z</time></trkpt><trkpt lat="43.21423287359158" lon="12.757798640051025"><ele>466.33333333333337</ele><time>2026-04-27T11:42:30Z</time></trkpt><trkpt lat="43.2144103998273" lon="12.757785626231767"><ele>466.0</ele><time>2026-04-27T11:42:31Z</time></trkpt><trkpt lat="43.21458299293476" lon="12.757772543603888"><ele>466.0</ele><time>2026-04-27T11:42:32Z</time></trkpt><trkpt lat="43.214751157417645" lon="12.757758800725632"><ele>466.0</ele><time>2026-04-27T11:42:33Z</time></trkpt><trkpt lat="43.214917649683564" lon="12.75774409929431"><ele>466.0</ele><time>2026-04-27T11:42:34Z</time></trkpt><trkpt lat="43.21508299289495" lon="12.757734246039371"><ele>466.0</ele><time>2026-04-27T11:42:35Z</time></trkpt><trkpt lat="43.21525070156411" lon="12.757723034627265"><ele>466.0</ele><time>2026-04-27T11:42:36Z</time></trkpt><trkpt lat="43.21541599552635" lon="12.757709462562508"><ele>466.0</ele><time>2026-04-27T11:42:37Z</time></trkpt><trkpt lat="43.21558210163431" lon="12.757696841181998"><ele>466.33333333333337</ele><time>2026-04-27T11:42:38Z</time></trkpt><trkpt lat="43.215748994110506" lon="12.757683236277444"><ele>466.66666666666663</ele><time>2026-04-27T11:42:39Z</time></trkpt><trkpt lat="43.21592058904557" lon="12.75767151638182"><ele>467.0</ele><time>2026-04-27T11:42:40Z</time></trkpt><trkpt lat="43.216096481239774" lon="12.757658548261004"><ele>467.0</ele><time>2026-04-27T11:42:41Z</time></trkpt><trkpt lat="43.216275984580925" lon="12.757645296743142"><ele>467.0</ele><time>2026-04-27T11:42:42Z</time></trkpt><trkpt lat="43.21645662969414" lon="12.757631422552615"><ele>467.0</ele><time>2026-04-27T11:42:43Z</time></trkpt><trkpt lat="43.21664281483102" lon="12.75761724812103"><ele>466.66666666666663</ele><time>2026-04-27T11:42:44Z</time></trkpt><trkpt lat="43.21683189854532" lon="12.757605824738754"><ele>466.33333333333337</ele><time>2026-04-27T11:42:45Z</time></trkpt><trkpt lat="43.217020950638435" lon="12.757594027048691"><ele>466.0</ele><time>2026-04-27T11:42:46Z</time></trkpt><trkpt lat="43.217210385077124" lon="12.757584688781902"><ele>465.0</ele><time>2026-04-27T11:42:47Z</time></trkpt><trkpt lat="43.21739774413399" lon="12.75757261418236"><ele>464.0</ele><time>2026-04-27T11:42:48Z</time></trkpt><trkpt lat="43.21758388513491" lon="12.757555684716888"><ele>463.0</ele><time>2026-04-27T11:42:49Z</time></trkpt><trkpt lat="43.217770423008425" lon="12.75754356033808"><ele>463.0</ele><time>2026-04-27T11:42:50Z</time></trkpt><trkpt lat="43.21795561400031" lon="12.757533991642996"><ele>463.0</ele><time>2026-04-27T11:42:51Z</time></trkpt><trkpt lat="43.21813986839974" lon="12.757518103551217"><ele>463.0</ele><time>2026-04-27T11:42:52Z</time></trkpt><trkpt lat="43.21832321009461" lon="12.757504994934381"><ele>464.33333333333337</ele><time>2026-04-27T11:42:53Z</time></trkpt><trkpt lat="43.218505933118955" lon="12.757492579945717"><ele>465.66666666666663</ele><time>2026-04-27T11:42:54Z</time></trkpt><trkpt lat="43.21868860457489" lon="12.757481247575743"><ele>467.0</ele><time>2026-04-27T11:42:55Z</time></trkpt><trkpt lat="43.21887238580296" lon="12.757466544188103"><ele>465.66666666666663</ele><time>2026-04-27T11:42:56Z</time></trkpt><trkpt lat="43.219054793351035" lon="12.757451461579617"><ele>464.33333333333337</ele><time>2026-04-27T11:42:57Z</time></trkpt><trkpt lat="43.219236503610766" lon="12.757438280633629"><ele>463.0</ele><time>2026-04-27T11:42:58Z</time></trkpt><trkpt lat="43.219417704615005" lon="12.757423717319385"><ele>463.0</ele><time>2026-04-27T11:42:59Z</time></trkpt><trkpt lat="43.21959873068216" lon="12.757406241622139"><ele>463.0</ele><time>2026-04-27T11:43:00Z</time></trkpt><trkpt lat="43.2197782680561" lon="12.757391898484572"><ele>463.0</ele><time>2026-04-27T11:43:01Z</time></trkpt><trkpt lat="43.219956238593596" lon="12.757376325955018"><ele>462.33333333333337</ele><time>2026-04-27T11:43:02Z</time></trkpt><trkpt lat="43.220132714068285" lon="12.757358017742744"><ele>461.66666666666663</ele><time>2026-04-27T11:43:03Z</time></trkpt><trkpt lat="43.22030967605036" lon="12.757334276447965"><ele>461.0</ele><time>2026-04-27T11:43:04Z</time></trkpt><trkpt lat="43.220486459407454" lon="12.75730431211984"><ele>458.66666666666663</ele><time>2026-04-27T11:43:05Z</time></trkpt><trkpt lat="43.22066541176452" lon="12.757271263301615"><ele>456.33333333333337</ele><time>2026-04-27T11:43:06Z</time></trkpt><trkpt lat="43.220845759666304" lon="12.757229220123625"><ele>454.0</ele><time>2026-04-27T11:43:07Z</time></trkpt><trkpt lat="43.221024656040136" lon="12.75718438689899"><ele>454.0</ele><time>2026-04-27T11:43:08Z</time></trkpt><trkpt lat="43.221199720557784" lon="12.757136554443402"><ele>454.0</ele><time>2026-04-27T11:43:09Z</time></trkpt><trkpt lat="43.22137552758695" lon="12.757081921554526"><ele>454.0</ele><time>2026-04-27T11:43:10Z</time></trkpt><trkpt lat="43.221553307299814" lon="12.75702113682842"><ele>454.0</ele><time>2026-04-27T11:43:11Z</time></trkpt><trkpt lat="43.22173110620655" lon="12.756954691350492"><ele>454.0</ele><time>2026-04-27T11:43:12Z</time></trkpt><trkpt lat="43.22191049471436" lon="12.756884372533438"><ele>454.0</ele><time>2026-04-27T11:43:13Z</time></trkpt><trkpt lat="43.22208790000674" lon="12.75680665905982"><ele>454.0</ele><time>2026-04-27T11:43:14Z</time></trkpt><trkpt lat="43.222263788706144" lon="12.75672623353328"><ele>454.0</ele><time>2026-04-27T11:43:15Z</time></trkpt><trkpt lat="43.22244080284529" lon="12.756641934557965"><ele>454.0</ele><time>2026-04-27T11:43:16Z</time></trkpt><trkpt lat="43.22261825435405" lon="12.756553398561053"><ele>453.0</ele><time>2026-04-27T11:43:17Z</time></trkpt><trkpt lat="43.222794231780526" lon="12.756467476879163"><ele>452.0</ele><time>2026-04-27T11:43:18Z</time></trkpt><trkpt lat="43.22297059556688" lon="12.756380930130204"><ele>451.0</ele><time>2026-04-27T11:43:19Z</time></trkpt><trkpt lat="43.22314553629202" lon="12.756298316248893"><ele>451.33333333333337</ele><time>2026-04-27T11:43:20Z</time></trkpt><trkpt lat="43.22332242204496" lon="12.756211590902225"><ele>451.66666666666663</ele><time>2026-04-27T11:43:21Z</time></trkpt><trkpt lat="43.22349802304748" lon="12.756120856854746"><ele>452.0</ele><time>2026-04-27T11:43:22Z</time></trkpt><trkpt lat="43.22367359259931" lon="12.75602957894753"><ele>451.0</ele><time>2026-04-27T11:43:23Z</time></trkpt><trkpt lat="43.22384895946101" lon="12.755938721325204"><ele>450.0</ele><time>2026-04-27T11:43:24Z</time></trkpt><trkpt lat="43.224023311600405" lon="12.75584767462931"><ele>449.0</ele><time>2026-04-27T11:43:25Z</time></trkpt><trkpt lat="43.22419735018123" lon="12.755757746011124"><ele>452.0</ele><time>2026-04-27T11:43:26Z</time></trkpt><trkpt lat="43.224372578981615" lon="12.755669492389634"><ele>455.0</ele><time>2026-04-27T11:43:27Z</time></trkpt><trkpt lat="43.22454388651408" lon="12.755582835667008"><ele>458.0</ele><time>2026-04-27T11:43:28Z</time></trkpt><trkpt lat="43.224711327757454" lon="12.75549625584619"><ele>461.3333333333333</ele><time>2026-04-27T11:43:29Z</time></trkpt><trkpt lat="43.22487767483822" lon="12.755412403607329"><ele>464.66666666666663</ele><time>2026-04-27T11:43:30Z</time></trkpt><trkpt lat="43.225042346509674" lon="12.755332576724662"><ele>468.0</ele><time>2026-04-27T11:43:31Z</time></trkpt><trkpt lat="43.22520703887265" lon="12.755253600932349"><ele>464.33333333333337</ele><time>2026-04-27T11:43:32Z</time></trkpt><trkpt lat="43.225370002820455" lon="12.755179181169801"><ele>460.6666666666667</ele><time>2026-04-27T11:43:33Z</time></trkpt><trkpt lat="43.22553206099714" lon="12.755108831641946"><ele>457.0</ele><time>2026-04-27T11:43:34Z</time></trkpt><trkpt lat="43.22569178360669" lon="12.755041053030073"><ele>457.0</ele><time>2026-04-27T11:43:35Z</time></trkpt><trkpt lat="43.22584610932104" lon="12.754974229389827"><ele>457.0</ele><time>2026-04-27T11:43:36Z</time></trkpt><trkpt lat="43.225999695290746" lon="12.754906929536993"><ele>457.0</ele><time>2026-04-27T11:43:37Z</time></trkpt><trkpt lat="43.22615706153831" lon="12.754850246373286"><ele>457.0</ele><time>2026-04-27T11:43:38Z</time></trkpt><trkpt lat="43.22631941723052" lon="12.75479466983901"><ele>457.0</ele><time>2026-04-27T11:43:39Z</time></trkpt><trkpt lat="43.226483118117464" lon="12.754746649965453"><ele>457.0</ele><time>2026-04-27T11:43:40Z</time></trkpt><trkpt lat="43.226648342393496" lon="12.754700603447018"><ele>459.0</ele><time>2026-04-27T11:43:41Z</time></trkpt><trkpt lat="43.226817339371586" lon="12.754658155692614"><ele>461.0</ele><time>2026-04-27T11:43:42Z</time></trkpt><trkpt lat="43.2269849716913" lon="12.754618694028713"><ele>463.0</ele><time>2026-04-27T11:43:43Z</time></trkpt><trkpt lat="43.22715636201659" lon="12.754584558807236"><ele>464.0</ele><time>2026-04-27T11:43:44Z</time></trkpt><trkpt lat="43.22732927565122" lon="12.75455343961255"><ele>465.0</ele><time>2026-04-27T11:43:45Z</time></trkpt><trkpt lat="43.22750545213731" lon="12.754525246415428"><ele>466.0</ele><time>2026-04-27T11:43:46Z</time></trkpt><trkpt lat="43.227682647929015" lon="12.754501210978447"><ele>466.0</ele><time>2026-04-27T11:43:47Z</time></trkpt><trkpt lat="43.22785845248102" lon="12.754482378922356"><ele>466.0</ele><time>2026-04-27T11:43:48Z</time></trkpt><trkpt lat="43.22803232812195" lon="12.754466073655129"><ele>466.0</ele><time>2026-04-27T11:43:49Z</time></trkpt><trkpt lat="43.22820843347568" lon="12.754459723928528"><ele>463.33333333333337</ele><time>2026-04-27T11:43:50Z</time></trkpt><trkpt lat="43.22838281849992" lon="12.7544589574626"><ele>460.66666666666663</ele><time>2026-04-27T11:43:51Z</time></trkpt><trkpt lat="43.228557194435865" lon="12.754462222322648"><ele>458.0</ele><time>2026-04-27T11:43:52Z</time></trkpt><trkpt lat="43.22873613170669" lon="12.754470239025206"><ele>458.0</ele><time>2026-04-27T11:43:53Z</time></trkpt><trkpt lat="43.22892379169172" lon="12.754482147806947"><ele>458.0</ele><time>2026-04-27T11:43:54Z</time></trkpt><trkpt lat="43.22911479736068" lon="12.754497065872991"><ele>458.0</ele><time>2026-04-27T11:43:55Z</time></trkpt><trkpt lat="43.2293092452572" lon="12.754513070401622"><ele>454.66666666666663</ele><time>2026-04-27T11:43:56Z</time></trkpt><trkpt lat="43.22950798631328" lon="12.754528703050209"><ele>451.33333333333337</ele><time>2026-04-27T11:43:57Z</time></trkpt><trkpt lat="43.2297106504671" lon="12.754543471467345"><ele>448.0</ele><time>2026-04-27T11:43:58Z</time></trkpt><trkpt lat="43.229914702088955" lon="12.754556173277017"><ele>448.0</ele><time>2026-04-27T11:43:59Z</time></trkpt><trkpt lat="43.23012351211399" lon="12.754570599989869"><ele>448.0</ele><time>2026-04-27T11:44:00Z</time></trkpt><trkpt lat="43.23032285974492" lon="12.75458461977293"><ele>448.0</ele><time>2026-04-27T11:44:01Z</time></trkpt><trkpt lat="43.230516429663886" lon="12.75459567146685"><ele>448.33333333333337</ele><time>2026-04-27T11:44:02Z</time></trkpt><trkpt lat="43.23070469154285" lon="12.754610698029124"><ele>448.66666666666663</ele><time>2026-04-27T11:44:03Z</time></trkpt><trkpt lat="43.23088750106445" lon="12.754626040904215"><ele>449.0</ele><time>2026-04-27T11:44:04Z</time></trkpt><trkpt lat="43.23106849890981" lon="12.754641011407486"><ele>449.0</ele><time>2026-04-27T11:44:05Z</time></trkpt><trkpt lat="43.23125007310084" lon="12.754657044948335"><ele>449.0</ele><time>2026-04-27T11:44:06Z</time></trkpt><trkpt lat="43.2314320557326" lon="12.754670539000987"><ele>449.0</ele><time>2026-04-27T11:44:07Z</time></trkpt><trkpt lat="43.231615696028705" lon="12.754683135327252"><ele>448.66666666666663</ele><time>2026-04-27T11:44:08Z</time></trkpt><trkpt lat="43.23180034604567" lon="12.754699228518332"><ele>448.33333333333337</ele><time>2026-04-27T11:44:09Z</time></trkpt><trkpt lat="43.231985366329724" lon="12.754713820932599"><ele>448.0</ele><time>2026-04-27T11:44:10Z</time></trkpt><trkpt lat="43.232169917060546" lon="12.754727231926962"><ele>447.33333333333337</ele><time>2026-04-27T11:44:11Z</time></trkpt><trkpt lat="43.23235679977631" lon="12.75474081163431"><ele>446.66666666666663</ele><time>2026-04-27T11:44:12Z</time></trkpt><trkpt lat="43.232542573715584" lon="12.75475245944"><ele>446.0</ele><time>2026-04-27T11:44:13Z</time></trkpt><trkpt lat="43.23273113418759" lon="12.75476562937795"><ele>446.0</ele><time>2026-04-27T11:44:13.999Z</time></trkpt><trkpt lat="43.23292404841856" lon="12.754779359714956"><ele>446.0</ele><time>2026-04-27T11:44:14.999Z</time></trkpt><trkpt lat="43.23312015834909" lon="12.754792857701315"><ele>446.0</ele><time>2026-04-27T11:44:15.999Z</time></trkpt><trkpt lat="43.23331684240686" lon="12.754831463818851"><ele>445.3333333333333</ele><time>2026-04-27T11:44:16.999Z</time></trkpt><trkpt lat="43.233518399770894" lon="12.754846578098627"><ele>444.66666666666663</ele><time>2026-04-27T11:44:17.999Z</time></trkpt><trkpt lat="43.23371990291859" lon="12.754861564238599"><ele>444.0</ele><time>2026-04-27T11:44:18.999Z</time></trkpt><trkpt lat="43.23392445657152" lon="12.754876777255376"><ele>444.33333333333337</ele><time>2026-04-27T11:44:19.999Z</time></trkpt><trkpt lat="43.23413181014041" lon="12.754892198505434"><ele>444.6666666666667</ele><time>2026-04-27T11:44:20.999Z</time></trkpt><trkpt lat="43.23434254745389" lon="12.754886766471854"><ele>445.0</ele><time>2026-04-27T11:44:21.999Z</time></trkpt><trkpt lat="43.23455358578229" lon="12.754904812916152"><ele>445.0</ele><time>2026-04-27T11:44:22.999Z</time></trkpt><trkpt lat="43.23476594413892" lon="12.754925721508144"><ele>445.0</ele><time>2026-04-27T11:44:23.999Z</time></trkpt><trkpt lat="43.23497730635173" lon="12.754940967038305"><ele>445.0</ele><time>2026-04-27T11:44:24.999Z</time></trkpt><trkpt lat="43.23518264454292" lon="12.754957463024544"><ele>444.6666666666667</ele><time>2026-04-27T11:44:25.999Z</time></trkpt><trkpt lat="43.23538683678966" lon="12.754972415235814"><ele>444.33333333333337</ele><time>2026-04-27T11:44:26.999Z</time></trkpt><trkpt lat="43.23558512689601" lon="12.754988661012453"><ele>444.0</ele><time>2026-04-27T11:44:27.999Z</time></trkpt><trkpt lat="43.23577931172402" lon="12.75500598378909"><ele>443.66666666666663</ele><time>2026-04-27T11:44:28.999Z</time></trkpt><trkpt lat="43.23597065650263" lon="12.755022890174892"><ele>443.3333333333333</ele><time>2026-04-27T11:44:29.999Z</time></trkpt><trkpt lat="43.23615866187834" lon="12.755037240191998"><ele>443.0</ele><time>2026-04-27T11:44:30.999Z</time></trkpt><trkpt lat="43.23634490892533" lon="12.755051883388779"><ele>444.3333333333333</ele><time>2026-04-27T11:44:32Z</time></trkpt><trkpt lat="43.23653180563033" lon="12.755065699338017"><ele>445.66666666666663</ele><time>2026-04-27T11:44:33Z</time></trkpt><trkpt lat="43.23672197979" lon="12.75507846178477"><ele>447.0</ele><time>2026-04-27T11:44:34Z</time></trkpt><trkpt lat="43.23691066005647" lon="12.75509463593879"><ele>447.0</ele><time>2026-04-27T11:44:35Z</time></trkpt><trkpt lat="43.23710242083542" lon="12.755109085387454"><ele>447.0</ele><time>2026-04-27T11:44:36Z</time></trkpt><trkpt lat="43.23729374661372" lon="12.755125233788789"><ele>447.0</ele><time>2026-04-27T11:44:37Z</time></trkpt><trkpt lat="43.237485145205646" lon="12.755140665104152"><ele>447.0</ele><time>2026-04-27T11:44:38Z</time></trkpt><trkpt lat="43.23767616877231" lon="12.755153550692954"><ele>447.0</ele><time>2026-04-27T11:44:39Z</time></trkpt><trkpt lat="43.23786596563812" lon="12.755162999531642"><ele>447.0</ele><time>2026-04-27T11:44:40Z</time></trkpt><trkpt lat="43.23805416917831" lon="12.75517006392941"><ele>446.66666666666663</ele><time>2026-04-27T11:44:41Z</time></trkpt><trkpt lat="43.2382408001513" lon="12.755173419030253"><ele>446.3333333333333</ele><time>2026-04-27T11:44:42Z</time></trkpt><trkpt lat="43.23842650167939" lon="12.75517312525536"><ele>446.0</ele><time>2026-04-27T11:44:43Z</time></trkpt><trkpt lat="43.23861136330961" lon="12.755166439782053"><ele>446.0</ele><time>2026-04-27T11:44:44Z</time></trkpt><trkpt lat="43.23879753519653" lon="12.755153754219634"><ele>446.0</ele><time>2026-04-27T11:44:45Z</time></trkpt><trkpt lat="43.23898660377187" lon="12.755133932348842"><ele>446.0</ele><time>2026-04-27T11:44:46Z</time></trkpt><trkpt lat="43.23918302959331" lon="12.755120063550633"><ele>445.3333333333333</ele><time>2026-04-27T11:44:47Z</time></trkpt><trkpt lat="43.23938415616287" lon="12.755096035179058"><ele>444.66666666666663</ele><time>2026-04-27T11:44:48Z</time></trkpt><trkpt lat="43.239586110288045" lon="12.755059862581053"><ele>444.0</ele><time>2026-04-27T11:44:49Z</time></trkpt><trkpt lat="43.23979197808172" lon="12.755021928845036"><ele>443.33333333333337</ele><time>2026-04-27T11:44:50Z</time></trkpt><trkpt lat="43.23999841939127" lon="12.754979926168376"><ele>442.6666666666667</ele><time>2026-04-27T11:44:51Z</time></trkpt><trkpt lat="43.24020611236115" lon="12.754938863523657"><ele>442.0</ele><time>2026-04-27T11:44:52Z</time></trkpt><trkpt lat="43.24041587279874" lon="12.75489580291821"><ele>442.0</ele><time>2026-04-27T11:44:53Z</time></trkpt><trkpt lat="43.24062650751276" lon="12.754850206793085"><ele>442.0</ele><time>2026-04-27T11:44:54Z</time></trkpt><trkpt lat="43.240839367121914" lon="12.754804447846949"><ele>442.0</ele><time>2026-04-27T11:44:55Z</time></trkpt><trkpt lat="43.241055753346394" lon="12.75475543968576"><ele>442.0</ele><time>2026-04-27T11:44:56Z</time></trkpt><trkpt lat="43.241274930913335" lon="12.754706821629716"><ele>442.0</ele><time>2026-04-27T11:44:57Z</time></trkpt><trkpt lat="43.2414937170905" lon="12.754660539971914"><ele>442.0</ele><time>2026-04-27T11:44:58Z</time></trkpt><trkpt lat="43.24171173719165" lon="12.754611478901046"><ele>440.6666666666667</ele><time>2026-04-27T11:44:59Z</time></trkpt><trkpt lat="43.24192751763982" lon="12.754563315680308"><ele>439.33333333333337</ele><time>2026-04-27T11:45:00Z</time></trkpt><trkpt lat="43.24213953152589" lon="12.75451696292507"><ele>438.0</ele><time>2026-04-27T11:45:01Z</time></trkpt><trkpt lat="43.242347742042085" lon="12.754472477651177"><ele>438.0</ele><time>2026-04-27T11:45:02Z</time></trkpt><trkpt lat="43.242554853029134" lon="12.754430423551536"><ele>438.0</ele><time>2026-04-27T11:45:03Z</time></trkpt><trkpt lat="43.242753853893525" lon="12.754388764638176"><ele>438.0</ele><time>2026-04-27T11:45:04Z</time></trkpt><trkpt lat="43.242947062962706" lon="12.754351686821003"><ele>435.33333333333337</ele><time>2026-04-27T11:45:05Z</time></trkpt><trkpt lat="43.24314109412349" lon="12.754316276244985"><ele>432.6666666666667</ele><time>2026-04-27T11:45:06Z</time></trkpt><trkpt lat="43.24333742940026" lon="12.754283539767282"><ele>430.0</ele><time>2026-04-27T11:45:07Z</time></trkpt><trkpt lat="43.24353473815929" lon="12.754254756284062"><ele>430.0</ele><time>2026-04-27T11:45:08Z</time></trkpt><trkpt lat="43.24373325461736" lon="12.754225042726263"><ele>430.0</ele><time>2026-04-27T11:45:09Z</time></trkpt><trkpt lat="43.2439303032683" lon="12.754199810794999"><ele>430.0</ele><time>2026-04-27T11:45:10Z</time></trkpt><trkpt lat="43.24412486335238" lon="12.75417913764636"><ele>429.6666666666667</ele><time>2026-04-27T11:45:11Z</time></trkpt><trkpt lat="43.244315506582076" lon="12.75416383540388"><ele>429.33333333333337</ele><time>2026-04-27T11:45:12Z</time></trkpt><trkpt lat="43.24450834011296" lon="12.754149401137994"><ele>429.0</ele><time>2026-04-27T11:45:13Z</time></trkpt><trkpt lat="43.244700414099725" lon="12.754137179507408"><ele>429.66666666666663</ele><time>2026-04-27T11:45:14Z</time></trkpt><trkpt lat="43.24489413933699" lon="12.754131513339441"><ele>430.3333333333333</ele><time>2026-04-27T11:45:15Z</time></trkpt><trkpt lat="43.24508923448192" lon="12.754130678056951"><ele>431.0</ele><time>2026-04-27T11:45:16Z</time></trkpt><trkpt lat="43.24528876540896" lon="12.75412935926934"><ele>431.0</ele><time>2026-04-27T11:45:17Z</time></trkpt><trkpt lat="43.24548943515652" lon="12.754133569940205"><ele>431.0</ele><time>2026-04-27T11:45:18Z</time></trkpt><trkpt lat="43.24569339577568" lon="12.754142887904536"><ele>431.0</ele><time>2026-04-27T11:45:19Z</time></trkpt><trkpt lat="43.245900793641184" lon="12.754154392174389"><ele>430.3333333333333</ele><time>2026-04-27T11:45:20Z</time></trkpt><trkpt lat="43.24610452864742" lon="12.754169747018468"><ele>429.66666666666663</ele><time>2026-04-27T11:45:21Z</time></trkpt><trkpt lat="43.246304595661776" lon="12.754187353610275"><ele>429.0</ele><time>2026-04-27T11:45:22Z</time></trkpt><trkpt lat="43.24650134349305" lon="12.754206764407328"><ele>428.33333333333337</ele><time>2026-04-27T11:45:23Z</time></trkpt><trkpt lat="43.24669280612014" lon="12.75422577170167"><ele>427.6666666666667</ele><time>2026-04-27T11:45:24Z</time></trkpt><trkpt lat="43.24688067315422" lon="12.754245130363906"><ele>427.0</ele><time>2026-04-27T11:45:25Z</time></trkpt><trkpt lat="43.24706932462294" lon="12.754264339125278"><ele>427.0</ele><time>2026-04-27T11:45:26Z</time></trkpt><trkpt lat="43.24725887284487" lon="12.754284855978213"><ele>427.0</ele><time>2026-04-27T11:45:27Z</time></trkpt><trkpt lat="43.24744483498533" lon="12.754303826463213"><ele>427.0</ele><time>2026-04-27T11:45:28Z</time></trkpt><trkpt lat="43.24763124597403" lon="12.754323310491051"><ele>426.33333333333337</ele><time>2026-04-27T11:45:29Z</time></trkpt><trkpt lat="43.24781785977797" lon="12.754340755267418"><ele>425.66666666666663</ele><time>2026-04-27T11:45:30Z</time></trkpt><trkpt lat="43.24800735273238" lon="12.754357527936325"><ele>425.0</ele><time>2026-04-27T11:45:31Z</time></trkpt><trkpt lat="43.248196417267835" lon="12.754372963173802"><ele>426.66666666666663</ele><time>2026-04-27T11:45:32Z</time></trkpt><trkpt lat="43.248386709104466" lon="12.754384740237096"><ele>428.33333333333337</ele><time>2026-04-27T11:45:33Z</time></trkpt><trkpt lat="43.24857725376205" lon="12.754395486591571"><ele>430.0</ele><time>2026-04-27T11:45:34Z</time></trkpt><trkpt lat="43.24877038489391" lon="12.754406438130514"><ele>428.33333333333337</ele><time>2026-04-27T11:45:35Z</time></trkpt><trkpt lat="43.24896451586398" lon="12.754413855867439"><ele>426.66666666666663</ele><time>2026-04-27T11:45:36Z</time></trkpt><trkpt lat="43.249161011062874" lon="12.754418283692425"><ele>425.0</ele><time>2026-04-27T11:45:37Z</time></trkpt><trkpt lat="43.24935558784739" lon="12.754416789330717"><ele>425.0</ele><time>2026-04-27T11:45:38Z</time></trkpt><trkpt lat="43.24954660976506" lon="12.754410654283921"><ele>425.0</ele><time>2026-04-27T11:45:39Z</time></trkpt><trkpt lat="43.24973604562825" lon="12.754403317494475"><ele>425.0</ele><time>2026-04-27T11:45:40Z</time></trkpt><trkpt lat="43.24992586780568" lon="12.754392739556039"><ele>424.3333333333333</ele><time>2026-04-27T11:45:41Z</time></trkpt><trkpt lat="43.250114937297724" lon="12.754377013180425"><ele>423.66666666666663</ele><time>2026-04-27T11:45:42Z</time></trkpt><trkpt lat="43.25030363994974" lon="12.754359270132438"><ele>423.0</ele><time>2026-04-27T11:45:43Z</time></trkpt><trkpt lat="43.25049049162167" lon="12.754338593196817"><ele>423.0</ele><time>2026-04-27T11:45:44Z</time></trkpt><trkpt lat="43.250674453549784" lon="12.754316677469756"><ele>423.0</ele><time>2026-04-27T11:45:45Z</time></trkpt><trkpt lat="43.25085413722747" lon="12.754293454978562"><ele>423.0</ele><time>2026-04-27T11:45:46Z</time></trkpt><trkpt lat="43.25103715452196" lon="12.754269551873792"><ele>423.0</ele><time>2026-04-27T11:45:47Z</time></trkpt><trkpt lat="43.25122053621438" lon="12.754245079639121"><ele>423.0</ele><time>2026-04-27T11:45:48Z</time></trkpt><trkpt lat="43.251404000617754" lon="12.754219016199734"><ele>423.0</ele><time>2026-04-27T11:45:49Z</time></trkpt><trkpt lat="43.25158682334036" lon="12.75419310418845"><ele>422.33333333333337</ele><time>2026-04-27T11:45:50Z</time></trkpt><trkpt lat="43.251770245635505" lon="12.754166105601984"><ele>421.6666666666667</ele><time>2026-04-27T11:45:51Z</time></trkpt><trkpt lat="43.25195317847116" lon="12.754139982866834"><ele>421.0</ele><time>2026-04-27T11:45:52Z</time></trkpt><trkpt lat="43.25213591265643" lon="12.754112753131759"><ele>420.6666666666667</ele><time>2026-04-27T11:45:53Z</time></trkpt><trkpt lat="43.25231770757408" lon="12.754085640379406"><ele>420.33333333333337</ele><time>2026-04-27T11:45:54Z</time></trkpt><trkpt lat="43.252497060157395" lon="12.754057527319443"><ele>420.0</ele><time>2026-04-27T11:45:55Z</time></trkpt><trkpt lat="43.25267818777031" lon="12.75403067612747"><ele>420.0</ele><time>2026-04-27T11:45:56Z</time></trkpt><trkpt lat="43.2528600165941" lon="12.754005216787872"><ele>420.0</ele><time>2026-04-27T11:45:57Z</time></trkpt><trkpt lat="43.253040553280144" lon="12.753980358988677"><ele>420.0</ele><time>2026-04-27T11:45:58Z</time></trkpt><trkpt lat="43.253220392746584" lon="12.753952587549895"><ele>419.33333333333337</ele><time>2026-04-27T11:45:59Z</time></trkpt><trkpt lat="43.25340013640094" lon="12.75392526000037"><ele>418.6666666666667</ele><time>2026-04-27T11:46:00Z</time></trkpt><trkpt lat="43.25357986913588" lon="12.753898633680704"><ele>418.0</ele><time>2026-04-27T11:46:01Z</time></trkpt><trkpt lat="43.25375805933798" lon="12.753870535112464"><ele>418.0</ele><time>2026-04-27T11:46:02Z</time></trkpt><trkpt lat="43.2539361971889" lon="12.753845057031782"><ele>418.0</ele><time>2026-04-27T11:46:03Z</time></trkpt><trkpt lat="43.25411343121035" lon="12.753820325721057"><ele>418.0</ele><time>2026-04-27T11:46:04Z</time></trkpt><trkpt lat="43.25429004000785" lon="12.753793960367734"><ele>418.33333333333337</ele><time>2026-04-27T11:46:05Z</time></trkpt><trkpt lat="43.25446482931046" lon="12.753768874483892"><ele>418.66666666666663</ele><time>2026-04-27T11:46:05.999Z</time></trkpt><trkpt lat="43.254639073108024" lon="12.753745305906005"><ele>419.0</ele><time>2026-04-27T11:46:06.999Z</time></trkpt><trkpt lat="43.2548136960059" lon="12.75372002189748"><ele>419.0</ele><time>2026-04-27T11:46:07.999Z</time></trkpt><trkpt lat="43.25498763222432" lon="12.75369364310371"><ele>419.0</ele><time>2026-04-27T11:46:08.999Z</time></trkpt><trkpt lat="43.25516052285807" lon="12.753665586554877"><ele>419.0</ele><time>2026-04-27T11:46:09.999Z</time></trkpt><trkpt lat="43.25533322576112" lon="12.753641602843842"><ele>419.0</ele><time>2026-04-27T11:46:10.999Z</time></trkpt><trkpt lat="43.255506322587316" lon="12.753622412771199"><ele>419.0</ele><time>2026-04-27T11:46:11.999Z</time></trkpt><trkpt lat="43.25568066516794" lon="12.753605907182376"><ele>419.0</ele><time>2026-04-27T11:46:12.999Z</time></trkpt><trkpt lat="43.25585421655517" lon="12.753590953375566"><ele>418.66666666666663</ele><time>2026-04-27T11:46:13.999Z</time></trkpt><trkpt lat="43.25602708574739" lon="12.753574784828087"><ele>418.33333333333337</ele><time>2026-04-27T11:46:14.999Z</time></trkpt><trkpt lat="43.2562009763934" lon="12.753564302481399"><ele>418.0</ele><time>2026-04-27T11:46:15.999Z</time></trkpt><trkpt lat="43.256377587696235" lon="12.753554633714852"><ele>418.0</ele><time>2026-04-27T11:46:16.999Z</time></trkpt><trkpt lat="43.25655637346753" lon="12.753548635716616"><ele>418.0</ele><time>2026-04-27T11:46:17.999Z</time></trkpt><trkpt lat="43.25673583605357" lon="12.753544893625744"><ele>418.0</ele><time>2026-04-27T11:46:18.999Z</time></trkpt><trkpt lat="43.25691726804103" lon="12.753543233391412"><ele>418.0</ele><time>2026-04-27T11:46:19.999Z</time></trkpt><trkpt lat="43.25710127249857" lon="12.753542179822572"><ele>418.0</ele><time>2026-04-27T11:46:20.999Z</time></trkpt><trkpt lat="43.257286906521934" lon="12.75354030066096"><ele>418.0</ele><time>2026-04-27T11:46:21.999Z</time></trkpt><trkpt lat="43.257475039921744" lon="12.753541389698558"><ele>416.6666666666667</ele><time>2026-04-27T11:46:22.999Z</time></trkpt><trkpt lat="43.25766557235248" lon="12.753542611743148"><ele>415.33333333333337</ele><time>2026-04-27T11:46:23.999Z</time></trkpt><trkpt lat="43.25785931128893" lon="12.753542497039911"><ele>414.0</ele><time>2026-04-27T11:46:24.999Z</time></trkpt><trkpt lat="43.25805319836942" lon="12.753541927938059"><ele>415.66666666666663</ele><time>2026-04-27T11:46:25.999Z</time></trkpt><trkpt lat="43.25824771388403" lon="12.753542141658015"><ele>417.3333333333333</ele><time>2026-04-27T11:46:26.999Z</time></trkpt><trkpt lat="43.25844246261864" lon="12.75354244572995"><ele>419.0</ele><time>2026-04-27T11:46:27.999Z</time></trkpt><trkpt lat="43.25863809666881" lon="12.753541990795563"><ele>419.0</ele><time>2026-04-27T11:46:28.999Z</time></trkpt><trkpt lat="43.25883300314894" lon="12.753541525436585"><ele>419.0</ele><time>2026-04-27T11:46:29.999Z</time></trkpt><trkpt lat="43.25902955553706" lon="12.753543900775579"><ele>419.0</ele><time>2026-04-27T11:46:30.999Z</time></trkpt><trkpt lat="43.25922731988289" lon="12.753547573407978"><ele>418.66666666666663</ele><time>2026-04-27T11:46:31.999Z</time></trkpt><trkpt lat="43.25942242390951" lon="12.753553242594906"><ele>418.33333333333337</ele><time>2026-04-27T11:46:32.999Z</time></trkpt><trkpt lat="43.259616651868015" lon="12.753554741917357"><ele>418.0</ele><time>2026-04-27T11:46:33.999Z</time></trkpt><trkpt lat="43.25980939341488" lon="12.7535542933691"><ele>417.6666666666667</ele><time>2026-04-27T11:46:34.999Z</time></trkpt><trkpt lat="43.26000254518524" lon="12.753554280988851"><ele>417.33333333333337</ele><time>2026-04-27T11:46:35.999Z</time></trkpt><trkpt lat="43.26019444929654" lon="12.753556676452376"><ele>417.0</ele><time>2026-04-27T11:46:36.999Z</time></trkpt><trkpt lat="43.260385176874955" lon="12.75356213460675"><ele>417.0</ele><time>2026-04-27T11:46:38Z</time></trkpt><trkpt lat="43.26057430191021" lon="12.753566700800269"><ele>417.0</ele><time>2026-04-27T11:46:39Z</time></trkpt><trkpt lat="43.2607617416944" lon="12.753567902664889"><ele>417.0</ele><time>2026-04-27T11:46:40Z</time></trkpt><trkpt lat="43.26094855936965" lon="12.753566881190153"><ele>417.0</ele><time>2026-04-27T11:46:41Z</time></trkpt><trkpt lat="43.261134787572686" lon="12.753568273254295"><ele>417.0</ele><time>2026-04-27T11:46:42Z</time></trkpt><trkpt lat="43.26132079788092" lon="12.75356922563082"><ele>417.0</ele><time>2026-04-27T11:46:43Z</time></trkpt><trkpt lat="43.261506232535936" lon="12.75357124574204"><ele>417.0</ele><time>2026-04-27T11:46:44Z</time></trkpt><trkpt lat="43.26169026644092" lon="12.753571218248668"><ele>417.0</ele><time>2026-04-27T11:46:45Z</time></trkpt><trkpt lat="43.26187416957377" lon="12.753574089268088"><ele>417.0</ele><time>2026-04-27T11:46:46Z</time></trkpt><trkpt lat="43.262057651718465" lon="12.753575962415614"><ele>417.0</ele><time>2026-04-27T11:46:47Z</time></trkpt><trkpt lat="43.262241758645175" lon="12.753575530017114"><ele>417.0</ele><time>2026-04-27T11:46:48Z</time></trkpt><trkpt lat="43.2624231029024" lon="12.753574650324245"><ele>417.0</ele><time>2026-04-27T11:46:49Z</time></trkpt><trkpt lat="43.262605106558546" lon="12.753573005597573"><ele>415.66666666666663</ele><time>2026-04-27T11:46:50Z</time></trkpt><trkpt lat="43.262786309644795" lon="12.753573396783402"><ele>414.3333333333333</ele><time>2026-04-27T11:46:51Z</time></trkpt><trkpt lat="43.262966480483335" lon="12.753573830015036"><ele>413.0</ele><time>2026-04-27T11:46:52Z</time></trkpt><trkpt lat="43.26314840369284" lon="12.753574327727772"><ele>413.0</ele><time>2026-04-27T11:46:53Z</time></trkpt><trkpt lat="43.263331251775014" lon="12.753573257843328"><ele>413.0</ele><time>2026-04-27T11:46:54Z</time></trkpt><trkpt lat="43.26351506717306" lon="12.753575085842545"><ele>413.0</ele><time>2026-04-27T11:46:55Z</time></trkpt><trkpt lat="43.26370122412534" lon="12.753573951492529"><ele>413.0</ele><time>2026-04-27T11:46:56Z</time></trkpt><trkpt lat="43.263887880711145" lon="12.753573656005852"><ele>413.0</ele><time>2026-04-27T11:46:57Z</time></trkpt><trkpt lat="43.264075590980795" lon="12.753573416482562"><ele>413.0</ele><time>2026-04-27T11:46:58Z</time></trkpt><trkpt lat="43.26426379892018" lon="12.753574566933455"><ele>412.3333333333333</ele><time>2026-04-27T11:46:59Z</time></trkpt><trkpt lat="43.26445042805781" lon="12.753577006879206"><ele>411.66666666666663</ele><time>2026-04-27T11:47:00Z</time></trkpt><trkpt lat="43.26463899243224" lon="12.753578488980478"><ele>411.0</ele><time>2026-04-27T11:47:01Z</time></trkpt><trkpt lat="43.264825883519826" lon="12.753582086820215"><ele>411.0</ele><time>2026-04-27T11:47:02Z</time></trkpt><trkpt lat="43.265010168358245" lon="12.753583028311214"><ele>411.0</ele><time>2026-04-27T11:47:03Z</time></trkpt><trkpt lat="43.26519414281966" lon="12.753584422788943"><ele>411.0</ele><time>2026-04-27T11:47:04Z</time></trkpt><trkpt lat="43.26537582856956" lon="12.753586432754648"><ele>411.0</ele><time>2026-04-27T11:47:05Z</time></trkpt><trkpt lat="43.265559943025345" lon="12.753586800411487"><ele>411.0</ele><time>2026-04-27T11:47:06Z</time></trkpt><trkpt lat="43.26574435535673" lon="12.753586534323114"><ele>411.0</ele><time>2026-04-27T11:47:07Z</time></trkpt><trkpt lat="43.26593074932856" lon="12.753583400669882"><ele>410.0</ele><time>2026-04-27T11:47:08Z</time></trkpt><trkpt lat="43.26611714395437" lon="12.753576370857354"><ele>409.0</ele><time>2026-04-27T11:47:09Z</time></trkpt><trkpt lat="43.26630406220607" lon="12.753567894861643"><ele>408.0</ele><time>2026-04-27T11:47:10Z</time></trkpt><trkpt lat="43.26649220382259" lon="12.753557976736264"><ele>408.0</ele><time>2026-04-27T11:47:11Z</time></trkpt><trkpt lat="43.266685196462106" lon="12.753545948679431"><ele>408.0</ele><time>2026-04-27T11:47:12Z</time></trkpt><trkpt lat="43.2668854266491" lon="12.753530120029618"><ele>408.0</ele><time>2026-04-27T11:47:13Z</time></trkpt><trkpt lat="43.26710541835461" lon="12.753507511616627"><ele>407.0</ele><time>2026-04-27T11:47:14Z</time></trkpt><trkpt lat="43.267338682168784" lon="12.753486538733682"><ele>406.0</ele><time>2026-04-27T11:47:15Z</time></trkpt><trkpt lat="43.26758665145242" lon="12.75345633787891"><ele>406.0</ele><time>2026-04-27T11:47:16Z</time></trkpt><trkpt lat="43.26784737634234" lon="12.753445031158344"><ele>406.0</ele><time>2026-04-27T11:47:17Z</time></trkpt><trkpt lat="43.26811566403982" lon="12.753417236992393"><ele>405.5</ele><time>2026-04-27T11:47:18Z</time></trkpt><trkpt lat="43.2683975331409" lon="12.753388081550929"><ele>405.0</ele><time>2026-04-27T11:47:19Z</time></trkpt><trkpt lat="43.26869558598845" lon="12.753356839316169"><ele>404.0</ele><time>2026-04-27T11:47:20Z</time></trkpt><trkpt lat="43.268997751639255" lon="12.753319725384774"><ele>403.0</ele><time>2026-04-27T11:47:21Z</time></trkpt><trkpt lat="43.26930344030982" lon="12.7532848949894"><ele>403.0</ele><time>2026-04-27T11:47:22Z</time></trkpt><trkpt lat="43.26960024662991" lon="12.753259596762556"><ele>403.0</ele><time>2026-04-27T11:47:23Z</time></trkpt><trkpt lat="43.269889734640095" lon="12.753207268833997"><ele>401.5</ele><time>2026-04-27T11:47:24Z</time></trkpt><trkpt lat="43.270168253086254" lon="12.753183375122214"><ele>400.0</ele><time>2026-04-27T11:47:25Z</time></trkpt><trkpt lat="43.27043749965391" lon="12.753155206043306"><ele>400.0</ele><time>2026-04-27T11:47:26Z</time></trkpt><trkpt lat="43.270699574153824" lon="12.753124978709987"><ele>400.0</ele><time>2026-04-27T11:47:27Z</time></trkpt><trkpt lat="43.27095519450652" lon="12.753096289934476"><ele>400.0</ele><time>2026-04-27T11:47:28Z</time></trkpt><trkpt lat="43.271209372155006" lon="12.753069609870716"><ele>400.0</ele><time>2026-04-27T11:47:29Z</time></trkpt><trkpt lat="43.27146144381168" lon="12.753042948486028"><ele>401.5</ele><time>2026-04-27T11:47:30Z</time></trkpt><trkpt lat="43.27171036758569" lon="12.753014585045392"><ele>403.0</ele><time>2026-04-27T11:47:31Z</time></trkpt><trkpt lat="43.271957755269256" lon="12.752988990026509"><ele>403.0</ele><time>2026-04-27T11:47:32Z</time></trkpt><trkpt lat="43.27220272873069" lon="12.752964544068782"><ele>403.0</ele><time>2026-04-27T11:47:33Z</time></trkpt><trkpt lat="43.272444437365145" lon="12.752939993596629"><ele>402.0</ele><time>2026-04-27T11:47:34Z</time></trkpt><trkpt lat="43.272685127539866" lon="12.75291547199907"><ele>401.0</ele><time>2026-04-27T11:47:35Z</time></trkpt><trkpt lat="43.272925321265284" lon="12.752891900001122"><ele>402.5</ele><time>2026-04-27T11:47:36Z</time></trkpt><trkpt lat="43.27316297438943" lon="12.752866625895939"><ele>404.0</ele><time>2026-04-27T11:47:37Z</time></trkpt><trkpt lat="43.27339648337272" lon="12.752840873528399"><ele>404.0</ele><time>2026-04-27T11:47:38Z</time></trkpt><trkpt lat="43.273629760154975" lon="12.75281405159312"><ele>404.0</ele><time>2026-04-27T11:47:39Z</time></trkpt><trkpt lat="43.27386085089598" lon="12.752787376015332"><ele>404.5</ele><time>2026-04-27T11:47:40Z</time></trkpt><trkpt lat="43.27408965715665" lon="12.752760779750039"><ele>405.0</ele><time>2026-04-27T11:47:41Z</time></trkpt><trkpt lat="43.27431476353335" lon="12.752734776529834"><ele>405.0</ele><time>2026-04-27T11:47:42Z</time></trkpt><trkpt lat="43.27453814476463" lon="12.7527093112497"><ele>405.0</ele><time>2026-04-27T11:47:43Z</time></trkpt><trkpt lat="43.27476204450622" lon="12.752686460690107"><ele>405.0</ele><time>2026-04-27T11:47:44Z</time></trkpt><trkpt lat="43.27498761837904" lon="12.752664611370397"><ele>404.33333333333337</ele><time>2026-04-27T11:47:45Z</time></trkpt><trkpt lat="43.275211616796824" lon="12.75264236091528"><ele>403.6666666666667</ele><time>2026-04-27T11:47:46Z</time></trkpt><trkpt lat="43.27543575150034" lon="12.752619212046103"><ele>403.0</ele><time>2026-04-27T11:47:47Z</time></trkpt><trkpt lat="43.27566149818817" lon="12.752593947547462"><ele>403.0</ele><time>2026-04-27T11:47:48Z</time></trkpt><trkpt lat="43.27588572925399" lon="12.752564079607058"><ele>403.0</ele><time>2026-04-27T11:47:49Z</time></trkpt><trkpt lat="43.27611158591956" lon="12.752535700885963"><ele>403.0</ele><time>2026-04-27T11:47:50Z</time></trkpt><trkpt lat="43.27633981713256" lon="12.752502371778084"><ele>403.0</ele><time>2026-04-27T11:47:51Z</time></trkpt><trkpt lat="43.27656572658534" lon="12.752463642844221"><ele>403.0</ele><time>2026-04-27T11:47:52Z</time></trkpt><trkpt lat="43.27679371819118" lon="12.752422086865177"><ele>403.0</ele><time>2026-04-27T11:47:53Z</time></trkpt><trkpt lat="43.27702712594745" lon="12.75237500143413"><ele>403.0</ele><time>2026-04-27T11:47:54Z</time></trkpt><trkpt lat="43.277265194900124" lon="12.752327682620965"><ele>403.0</ele><time>2026-04-27T11:47:55Z</time></trkpt><trkpt lat="43.277505277992994" lon="12.752270586750294"><ele>403.5</ele><time>2026-04-27T11:47:56Z</time></trkpt><trkpt lat="43.277746455352066" lon="12.752204484613154"><ele>404.0</ele><time>2026-04-27T11:47:57Z</time></trkpt><trkpt lat="43.27798813867229" lon="12.752132155385148"><ele>404.5</ele><time>2026-04-27T11:47:58Z</time></trkpt><trkpt lat="43.27822814596286" lon="12.752052894549033"><ele>405.0</ele><time>2026-04-27T11:47:59Z</time></trkpt><trkpt lat="43.27846796391348" lon="12.751967017585004"><ele>405.0</ele><time>2026-04-27T11:48:00Z</time></trkpt><trkpt lat="43.27870488833192" lon="12.751877124834794"><ele>405.0</ele><time>2026-04-27T11:48:01Z</time></trkpt><trkpt lat="43.27893905858291" lon="12.751780873429569"><ele>403.0</ele><time>2026-04-27T11:48:01.999Z</time></trkpt><trkpt lat="43.279173811262154" lon="12.751673510418827"><ele>401.0</ele><time>2026-04-27T11:48:02.999Z</time></trkpt><trkpt lat="43.27940501439397" lon="12.75156584581407"><ele>401.0</ele><time>2026-04-27T11:48:03.999Z</time></trkpt><trkpt lat="43.27963472308329" lon="12.751455948517789"><ele>401.0</ele><time>2026-04-27T11:48:04.999Z</time></trkpt><trkpt lat="43.27986155898398" lon="12.751338315480465"><ele>402.0</ele><time>2026-04-27T11:48:05.999Z</time></trkpt><trkpt lat="43.28008526508049" lon="12.751217121840904"><ele>403.0</ele><time>2026-04-27T11:48:06.999Z</time></trkpt><trkpt lat="43.280306526820866" lon="12.751091914723979"><ele>403.0</ele><time>2026-04-27T11:48:07.999Z</time></trkpt><trkpt lat="43.28052391225472" lon="12.750960539511746"><ele>403.0</ele><time>2026-04-27T11:48:08.999Z</time></trkpt><trkpt lat="43.28073909872974" lon="12.750826085457925"><ele>404.5</ele><time>2026-04-27T11:48:09.999Z</time></trkpt><trkpt lat="43.28095275604609" lon="12.75068634345654"><ele>406.0</ele><time>2026-04-27T11:48:10.999Z</time></trkpt><trkpt lat="43.28116222798906" lon="12.750544512898774"><ele>406.0</ele><time>2026-04-27T11:48:11.999Z</time></trkpt><trkpt lat="43.28136751921756" lon="12.75039603763408"><ele>406.0</ele><time>2026-04-27T11:48:12.999Z</time></trkpt><trkpt lat="43.28156995613797" lon="12.750242110693897"><ele>406.5</ele><time>2026-04-27T11:48:13.999Z</time></trkpt><trkpt lat="43.28177287130027" lon="12.750084138496517"><ele>407.0</ele><time>2026-04-27T11:48:14.999Z</time></trkpt><trkpt lat="43.2819725290966" lon="12.749920968247556"><ele>407.0</ele><time>2026-04-27T11:48:15.999Z</time></trkpt><trkpt lat="43.282169724701035" lon="12.749752117481833"><ele>407.0</ele><time>2026-04-27T11:48:16.999Z</time></trkpt><trkpt lat="43.28236537017044" lon="12.749581499568032"><ele>408.0</ele><time>2026-04-27T11:48:17.999Z</time></trkpt><trkpt lat="43.28255746365309" lon="12.749405599105403"><ele>409.0</ele><time>2026-04-27T11:48:18.999Z</time></trkpt><trkpt lat="43.282745880771564" lon="12.749226527595633"><ele>409.0</ele><time>2026-04-27T11:48:19.999Z</time></trkpt><trkpt lat="43.28293423110334" lon="12.749045235466996"><ele>409.0</ele><time>2026-04-27T11:48:20.999Z</time></trkpt><trkpt lat="43.28311737468539" lon="12.748858449578341"><ele>409.5</ele><time>2026-04-27T11:48:21.999Z</time></trkpt><trkpt lat="43.28329661315815" lon="12.748669328053174"><ele>410.0</ele><time>2026-04-27T11:48:22.999Z</time></trkpt><trkpt lat="43.28347194493921" lon="12.7484783552731"><ele>409.0</ele><time>2026-04-27T11:48:23.999Z</time></trkpt><trkpt lat="43.28364164275321" lon="12.748283548479517"><ele>408.0</ele><time>2026-04-27T11:48:24.999Z</time></trkpt><trkpt lat="43.28380544058976" lon="12.748088104069131"><ele>407.0</ele><time>2026-04-27T11:48:25.999Z</time></trkpt><trkpt lat="43.28396695789101" lon="12.747894931703941"><ele>406.66666666666663</ele><time>2026-04-27T11:48:26.999Z</time></trkpt><trkpt lat="43.28412200566049" lon="12.747697329537834"><ele>406.33333333333337</ele><time>2026-04-27T11:48:27.999Z</time></trkpt><trkpt lat="43.28427598162537" lon="12.747500726312998"><ele>406.0</ele><time>2026-04-27T11:48:28.999Z</time></trkpt><trkpt lat="43.28442478906141" lon="12.747301474999313"><ele>406.0</ele><time>2026-04-27T11:48:29.999Z</time></trkpt><trkpt lat="43.284571225627026" lon="12.7470989195783"><ele>406.0</ele><time>2026-04-27T11:48:30.999Z</time></trkpt><trkpt lat="43.28471894353984" lon="12.74690027634172"><ele>406.0</ele><time>2026-04-27T11:48:31.999Z</time></trkpt><trkpt lat="43.28486304909308" lon="12.74670685868695"><ele>406.6666666666667</ele><time>2026-04-27T11:48:32.999Z</time></trkpt><trkpt lat="43.28499953105528" lon="12.74650631519084"><ele>407.33333333333337</ele><time>2026-04-27T11:48:33.999Z</time></trkpt><trkpt lat="43.285136148168256" lon="12.746307790660381"><ele>408.0</ele><time>2026-04-27T11:48:34.999Z</time></trkpt><trkpt lat="43.285271301420174" lon="12.746110000571093"><ele>408.33333333333337</ele><time>2026-04-27T11:48:35.999Z</time></trkpt><trkpt lat="43.285406101213" lon="12.745914951262037"><ele>408.6666666666667</ele><time>2026-04-27T11:48:36.999Z</time></trkpt><trkpt lat="43.28553900300003" lon="12.745719951012054"><ele>409.0</ele><time>2026-04-27T11:48:37.999Z</time></trkpt><trkpt lat="43.2856725534003" lon="12.745523659354197"><ele>409.0</ele><time>2026-04-27T11:48:38.999Z</time></trkpt><trkpt lat="43.28580473192488" lon="12.745323747979944"><ele>409.0</ele><time>2026-04-27T11:48:39.999Z</time></trkpt><trkpt lat="43.28593850782784" lon="12.745126747483631"><ele>409.0</ele><time>2026-04-27T11:48:40.999Z</time></trkpt><trkpt lat="43.28607010928506" lon="12.744929427276999"><ele>408.0</ele><time>2026-04-27T11:48:41.999Z</time></trkpt><trkpt lat="43.28620164092033" lon="12.744732616002805"><ele>407.0</ele><time>2026-04-27T11:48:42.999Z</time></trkpt><trkpt lat="43.28633355953899" lon="12.744536964832154"><ele>406.0</ele><time>2026-04-27T11:48:44Z</time></trkpt><trkpt lat="43.28646390370003" lon="12.744343223421797"><ele>406.0</ele><time>2026-04-27T11:48:45Z</time></trkpt><trkpt lat="43.28659387776657" lon="12.744150263761034"><ele>406.0</ele><time>2026-04-27T11:48:46Z</time></trkpt><trkpt lat="43.28672250973088" lon="12.74395811261927"><ele>406.0</ele><time>2026-04-27T11:48:47Z</time></trkpt><trkpt lat="43.286850544433705" lon="12.74376833503425"><ele>406.0</ele><time>2026-04-27T11:48:48Z</time></trkpt><trkpt lat="43.28697472979326" lon="12.743580224179004"><ele>406.0</ele><time>2026-04-27T11:48:49Z</time></trkpt><trkpt lat="43.287099913716204" lon="12.743391025577074"><ele>406.0</ele><time>2026-04-27T11:48:50Z</time></trkpt><trkpt lat="43.28722645106855" lon="12.74320228818795"><ele>406.33333333333337</ele><time>2026-04-27T11:48:51Z</time></trkpt><trkpt lat="43.287353363359834" lon="12.743010659448762"><ele>406.66666666666663</ele><time>2026-04-27T11:48:52Z</time></trkpt><trkpt lat="43.2874806313489" lon="12.742820356883138"><ele>407.0</ele><time>2026-04-27T11:48:53Z</time></trkpt><trkpt lat="43.287610266381826" lon="12.742628357365746"><ele>406.3333333333333</ele><time>2026-04-27T11:48:54Z</time></trkpt><trkpt lat="43.287740409579904" lon="12.742435167769656"><ele>405.66666666666663</ele><time>2026-04-27T11:48:55Z</time></trkpt><trkpt lat="43.28787049626786" lon="12.74223865030463"><ele>405.0</ele><time>2026-04-27T11:48:56Z</time></trkpt><trkpt lat="43.28800170724272" lon="12.742039979037514"><ele>406.0</ele><time>2026-04-27T11:48:57Z</time></trkpt><trkpt lat="43.28813444774775" lon="12.74184106142499"><ele>407.0</ele><time>2026-04-27T11:48:58Z</time></trkpt><trkpt lat="43.28826768468082" lon="12.7416410026233"><ele>408.0</ele><time>2026-04-27T11:48:59Z</time></trkpt><trkpt lat="43.28840276211425" lon="12.741439559839634"><ele>408.0</ele><time>2026-04-27T11:49:00Z</time></trkpt><trkpt lat="43.28853877825412" lon="12.74123753098516"><ele>408.0</ele><time>2026-04-27T11:49:01Z</time></trkpt><trkpt lat="43.28867269260027" lon="12.74103404871459"><ele>408.0</ele><time>2026-04-27T11:49:02Z</time></trkpt><trkpt lat="43.28881215269475" lon="12.740833054045364"><ele>408.0</ele><time>2026-04-27T11:49:03Z</time></trkpt><trkpt lat="43.28893349831463" lon="12.740662550747913"><ele>408.0</ele><time>2026-04-27T11:49:04Z</time></trkpt><trkpt lat="43.28905409513616" lon="12.740485325750388"><ele>408.0</ele><time>2026-04-27T11:49:05Z</time></trkpt><trkpt lat="43.289168986122" lon="12.740316366440386"><ele>407.33333333333337</ele><time>2026-04-27T11:49:06Z</time></trkpt><trkpt lat="43.28928034768766" lon="12.740152930143783"><ele>406.6666666666667</ele><time>2026-04-27T11:49:07Z</time></trkpt><trkpt lat="43.28939336644851" lon="12.739991320450576"><ele>406.0</ele><time>2026-04-27T11:49:08Z</time></trkpt><trkpt lat="43.289498743946794" lon="12.739833629113605"><ele>406.0</ele><time>2026-04-27T11:49:09Z</time></trkpt><trkpt lat="43.289600566122616" lon="12.739681460359257"><ele>406.0</ele><time>2026-04-27T11:49:10Z</time></trkpt><trkpt lat="43.289703634577286" lon="12.7395315245587"><ele>406.0</ele><time>2026-04-27T11:49:11Z</time></trkpt><trkpt lat="43.28980720691834" lon="12.739382890487523"><ele>406.25</ele><time>2026-04-27T11:49:12Z</time></trkpt><trkpt lat="43.28990778950746" lon="12.73924080986425"><ele>406.5</ele><time>2026-04-27T11:49:13Z</time></trkpt><trkpt lat="43.290004985579685" lon="12.739105219213192"><ele>406.75</ele><time>2026-04-27T11:49:14Z</time></trkpt><trkpt lat="43.29010876585958" lon="12.738973159439006"><ele>407.0</ele><time>2026-04-27T11:49:15Z</time></trkpt><trkpt lat="43.29022180544563" lon="12.738846397880833"><ele>407.0</ele><time>2026-04-27T11:49:16Z</time></trkpt><trkpt lat="43.290347533335144" lon="12.738726821772223"><ele>407.0</ele><time>2026-04-27T11:49:17Z</time></trkpt><trkpt lat="43.290483836513914" lon="12.738619397497462"><ele>407.0</ele><time>2026-04-27T11:49:18Z</time></trkpt><trkpt lat="43.29062757298999" lon="12.738533924580963"><ele>407.66666666666663</ele><time>2026-04-27T11:49:19Z</time></trkpt><trkpt lat="43.290779062454334" lon="12.738465480540015"><ele>408.33333333333337</ele><time>2026-04-27T11:49:20Z</time></trkpt><trkpt lat="43.290935488769726" lon="12.738414092252832"><ele>409.0</ele><time>2026-04-27T11:49:21Z</time></trkpt><trkpt lat="43.29109520210123" lon="12.738389614938505"><ele>409.0</ele><time>2026-04-27T11:49:22Z</time></trkpt><trkpt lat="43.29125282778048" lon="12.738390965649705"><ele>409.0</ele><time>2026-04-27T11:49:23Z</time></trkpt><trkpt lat="43.29141288089259" lon="12.738415425362861"><ele>409.0</ele><time>2026-04-27T11:49:24Z</time></trkpt><trkpt lat="43.291571206860404" lon="12.73845720099966"><ele>410.0</ele><time>2026-04-27T11:49:25Z</time></trkpt><trkpt lat="43.29172854233236" lon="12.738520312615224"><ele>411.0</ele><time>2026-04-27T11:49:26Z</time></trkpt><trkpt lat="43.291878574834335" lon="12.738601855515522"><ele>412.0</ele><time>2026-04-27T11:49:27Z</time></trkpt><trkpt lat="43.292020465871566" lon="12.73870333506389"><ele>412.6666666666667</ele><time>2026-04-27T11:49:28Z</time></trkpt><trkpt lat="43.29215592008291" lon="12.738816633012977"><ele>413.33333333333337</ele><time>2026-04-27T11:49:29Z</time></trkpt><trkpt lat="43.29228960795023" lon="12.738941167500075"><ele>414.0</ele><time>2026-04-27T11:49:30Z</time></trkpt><trkpt lat="43.29242875708173" lon="12.7390762236225"><ele>415.33333333333337</ele><time>2026-04-27T11:49:31Z</time></trkpt><trkpt lat="43.29257485706215" lon="12.739212109039066"><ele>416.6666666666667</ele><time>2026-04-27T11:49:32Z</time></trkpt><trkpt lat="43.29272879976283" lon="12.73934587577029"><ele>418.0</ele><time>2026-04-27T11:49:33Z</time></trkpt><trkpt lat="43.29288459104145" lon="12.739483236018454"><ele>418.33333333333337</ele><time>2026-04-27T11:49:34Z</time></trkpt><trkpt lat="43.293040061961385" lon="12.739631257921129"><ele>418.66666666666663</ele><time>2026-04-27T11:49:35Z</time></trkpt><trkpt lat="43.29319963603385" lon="12.739786314175005"><ele>419.0</ele><time>2026-04-27T11:49:36Z</time></trkpt><trkpt lat="43.293367496667145" lon="12.739947864944485"><ele>421.3333333333333</ele><time>2026-04-27T11:49:37Z</time></trkpt><trkpt lat="43.29353694676881" lon="12.740112339768464"><ele>423.66666666666663</ele><time>2026-04-27T11:49:38Z</time></trkpt><trkpt lat="43.29370781251743" lon="12.740275681337735"><ele>426.0</ele><time>2026-04-27T11:49:39Z</time></trkpt><trkpt lat="43.293877544016524" lon="12.740441762733832"><ele>430.66666666666663</ele><time>2026-04-27T11:49:40Z</time></trkpt><trkpt lat="43.29404782990731" lon="12.740609830637718"><ele>435.3333333333333</ele><time>2026-04-27T11:49:41Z</time></trkpt><trkpt lat="43.29421719454928" lon="12.740781695047025"><ele>440.0</ele><time>2026-04-27T11:49:42Z</time></trkpt><trkpt lat="43.29438797457328" lon="12.74095013801021"><ele>439.66666666666663</ele><time>2026-04-27T11:49:43Z</time></trkpt><trkpt lat="43.29456008973008" lon="12.741114814777436"><ele>439.33333333333337</ele><time>2026-04-27T11:49:44Z</time></trkpt><trkpt lat="43.294731205732" lon="12.741282771056248"><ele>439.0</ele><time>2026-04-27T11:49:45Z</time></trkpt><trkpt lat="43.29489955058908" lon="12.74145268982039"><ele>439.0</ele><time>2026-04-27T11:49:46Z</time></trkpt><trkpt lat="43.29507024810103" lon="12.741636883045643"><ele>439.0</ele><time>2026-04-27T11:49:47Z</time></trkpt><trkpt lat="43.29523682284428" lon="12.741824643910073"><ele>439.0</ele><time>2026-04-27T11:49:48Z</time></trkpt><trkpt lat="43.29540137273713" lon="12.742018274028895"><ele>439.33333333333337</ele><time>2026-04-27T11:49:49Z</time></trkpt><trkpt lat="43.29556214165092" lon="12.742220626274113"><ele>439.66666666666663</ele><time>2026-04-27T11:49:50Z</time></trkpt><trkpt lat="43.29572070426711" lon="12.7424337746091"><ele>440.0</ele><time>2026-04-27T11:49:51Z</time></trkpt><trkpt lat="43.295875829638476" lon="12.742662772195457"><ele>441.0</ele><time>2026-04-27T11:49:52Z</time></trkpt><trkpt lat="43.29602714570795" lon="12.742903972019212"><ele>442.0</ele><time>2026-04-27T11:49:53Z</time></trkpt><trkpt lat="43.2961751956445" lon="12.743157472247319"><ele>442.0</ele><time>2026-04-27T11:49:54Z</time></trkpt><trkpt lat="43.29631824849584" lon="12.743423211651406"><ele>442.0</ele><time>2026-04-27T11:49:55Z</time></trkpt><trkpt lat="43.29645932197309" lon="12.743698402557982"><ele>441.5</ele><time>2026-04-27T11:49:56Z</time></trkpt><trkpt lat="43.29659748107901" lon="12.743977763726491"><ele>441.0</ele><time>2026-04-27T11:49:57Z</time></trkpt><trkpt lat="43.296732987428484" lon="12.744261024124299"><ele>444.0</ele><time>2026-04-27T11:49:58Z</time></trkpt><trkpt lat="43.2968665533074" lon="12.744546483021535"><ele>447.0</ele><time>2026-04-27T11:49:59Z</time></trkpt><trkpt lat="43.29700050298923" lon="12.744833874512247"><ele>447.0</ele><time>2026-04-27T11:49:59.999Z</time></trkpt><trkpt lat="43.297134350078814" lon="12.745123602440417"><ele>447.0</ele><time>2026-04-27T11:50:00.999Z</time></trkpt><trkpt lat="43.297267228853315" lon="12.745415303137678"><ele>447.0</ele><time>2026-04-27T11:50:01.999Z</time></trkpt><trkpt lat="43.297399866856395" lon="12.745705690001603"><ele>447.0</ele><time>2026-04-27T11:50:02.999Z</time></trkpt><trkpt lat="43.29753234386614" lon="12.745995305064195"><ele>451.5</ele><time>2026-04-27T11:50:03.999Z</time></trkpt><trkpt lat="43.29766543205788" lon="12.746281366085563"><ele>456.0</ele><time>2026-04-27T11:50:04.999Z</time></trkpt><trkpt lat="43.29779766599555" lon="12.74657012053694"><ele>456.0</ele><time>2026-04-27T11:50:05.999Z</time></trkpt><trkpt lat="43.29793115225335" lon="12.746855553571258"><ele>456.0</ele><time>2026-04-27T11:50:06.999Z</time></trkpt><trkpt lat="43.29806556853346" lon="12.747138403594425"><ele>456.5</ele><time>2026-04-27T11:50:07.999Z</time></trkpt><trkpt lat="43.29819493771403" lon="12.747416806636123"><ele>457.0</ele><time>2026-04-27T11:50:08.999Z</time></trkpt><trkpt lat="43.298323764859674" lon="12.74769040231724"><ele>458.5</ele><time>2026-04-27T11:50:09.999Z</time></trkpt><trkpt lat="43.29845137053648" lon="12.747961081643298"><ele>460.0</ele><time>2026-04-27T11:50:10.999Z</time></trkpt><trkpt lat="43.29857713570051" lon="12.748229583393035"><ele>460.0</ele><time>2026-04-27T11:50:11.999Z</time></trkpt><trkpt lat="43.29870585584315" lon="12.748493046600318"><ele>460.0</ele><time>2026-04-27T11:50:12.999Z</time></trkpt><trkpt lat="43.29882876732317" lon="12.748757335642772"><ele>459.33333333333337</ele><time>2026-04-27T11:50:13.999Z</time></trkpt><trkpt lat="43.298947066911076" lon="12.749018960604973"><ele>458.66666666666663</ele><time>2026-04-27T11:50:14.999Z</time></trkpt><trkpt lat="43.2990628460259" lon="12.749271412378105"><ele>458.0</ele><time>2026-04-27T11:50:15.999Z</time></trkpt><trkpt lat="43.29917497930144" lon="12.749511456104466"><ele>460.0</ele><time>2026-04-27T11:50:16.999Z</time></trkpt><trkpt lat="43.29928199557619" lon="12.749743561757379"><ele>462.0</ele><time>2026-04-27T11:50:17.999Z</time></trkpt><trkpt lat="43.299380202643945" lon="12.749965782236817"><ele>464.0</ele><time>2026-04-27T11:50:18.999Z</time></trkpt><trkpt lat="43.299476822642006" lon="12.750190666595373"><ele>466.0</ele><time>2026-04-27T11:50:19.999Z</time></trkpt><trkpt lat="43.29956650846125" lon="12.75042263728815"><ele>468.0</ele><time>2026-04-27T11:50:20.999Z</time></trkpt><trkpt lat="43.29964765690719" lon="12.750660226435174"><ele>470.0</ele><time>2026-04-27T11:50:21.999Z</time></trkpt><trkpt lat="43.2997251549816" lon="12.750904186122082"><ele>466.66666666666663</ele><time>2026-04-27T11:50:22.999Z</time></trkpt><trkpt lat="43.29979624286507" lon="12.751153952309862"><ele>463.33333333333337</ele><time>2026-04-27T11:50:23.999Z</time></trkpt><trkpt lat="43.29986123733139" lon="12.75140679135643"><ele>460.0</ele><time>2026-04-27T11:50:24.999Z</time></trkpt><trkpt lat="43.299918416055725" lon="12.75166191685335"><ele>461.33333333333337</ele><time>2026-04-27T11:50:25.999Z</time></trkpt><trkpt lat="43.299966034406616" lon="12.751905881866888"><ele>462.66666666666663</ele><time>2026-04-27T11:50:26.999Z</time></trkpt><trkpt lat="43.30000349424262" lon="12.752140759730828"><ele>464.0</ele><time>2026-04-27T11:50:27.999Z</time></trkpt><trkpt lat="43.30003567581361" lon="12.752381912462333"><ele>464.0</ele><time>2026-04-27T11:50:28.999Z</time></trkpt><trkpt lat="43.300065465811315" lon="12.752622898984239"><ele>464.0</ele><time>2026-04-27T11:50:29.999Z</time></trkpt><trkpt lat="43.30008935830419" lon="12.752861625325922"><ele>464.0</ele><time>2026-04-27T11:50:30.999Z</time></trkpt><trkpt lat="43.30010656348491" lon="12.753100202115037"><ele>464.66666666666663</ele><time>2026-04-27T11:50:31.999Z</time></trkpt><trkpt lat="43.300116073163395" lon="12.753333275541776"><ele>465.33333333333337</ele><time>2026-04-27T11:50:32.999Z</time></trkpt><trkpt lat="43.30011700359197" lon="12.753559299168892"><ele>466.0</ele><time>2026-04-27T11:50:33.999Z</time></trkpt><trkpt lat="43.30010917264389" lon="12.753770452689707"><ele>467.5</ele><time>2026-04-27T11:50:34.999Z</time></trkpt><trkpt lat="43.30009953940494" lon="12.753968459329224"><ele>469.0</ele><time>2026-04-27T11:50:35.999Z</time></trkpt><trkpt lat="43.300083452330135" lon="12.75416421503393"><ele>470.5</ele><time>2026-04-27T11:50:36.999Z</time></trkpt><trkpt lat="43.30006175328874" lon="12.754359554125717"><ele>472.0</ele><time>2026-04-27T11:50:37.999Z</time></trkpt><trkpt lat="43.30003769023324" lon="12.75455661681206"><ele>472.0</ele><time>2026-04-27T11:50:38.999Z</time></trkpt><trkpt lat="43.30001461778553" lon="12.754758547126903"><ele>472.0</ele><time>2026-04-27T11:50:39.999Z</time></trkpt><trkpt lat="43.29999059680725" lon="12.75496713534607"><ele>472.0</ele><time>2026-04-27T11:50:40.999Z</time></trkpt><trkpt lat="43.29996590287921" lon="12.755181535855884"><ele>470.0</ele><time>2026-04-27T11:50:41.999Z</time></trkpt><trkpt lat="43.29994445109698" lon="12.755394087303836"><ele>468.0</ele><time>2026-04-27T11:50:42.999Z</time></trkpt><trkpt lat="43.2999231811328" lon="12.755603347433802"><ele>466.0</ele><time>2026-04-27T11:50:43.999Z</time></trkpt><trkpt lat="43.29990331325263" lon="12.755804265238613"><ele>466.0</ele><time>2026-04-27T11:50:44.999Z</time></trkpt><trkpt lat="43.299886834354155" lon="12.755997890201611"><ele>466.0</ele><time>2026-04-27T11:50:45.999Z</time></trkpt><trkpt lat="43.29987223946998" lon="12.756173012059284"><ele>466.0</ele><time>2026-04-27T11:50:46.999Z</time></trkpt><trkpt lat="43.299859582442345" lon="12.756323364921554"><ele>466.0</ele><time>2026-04-27T11:50:47.999Z</time></trkpt><trkpt lat="43.29984869178384" lon="12.756451097792647"><ele>465.7142857142857</ele><time>2026-04-27T11:50:48.999Z</time></trkpt><trkpt lat="43.299836902280006" lon="12.756553724388233"><ele>465.42857142857144</ele><time>2026-04-27T11:50:50Z</time></trkpt><trkpt lat="43.299818117183094" lon="12.756640017680665"><ele>465.14285714285717</ele><time>2026-04-27T11:50:51Z</time></trkpt><trkpt lat="43.299783279909335" lon="12.756723380648731"><ele>464.8571428571429</ele><time>2026-04-27T11:50:52Z</time></trkpt><trkpt lat="43.29974005019144" lon="12.756793409991806"><ele>464.57142857142856</ele><time>2026-04-27T11:50:53Z</time></trkpt><trkpt lat="43.299705511639196" lon="12.756867579989269"><ele>464.28571428571433</ele><time>2026-04-27T11:50:54Z</time></trkpt><trkpt lat="43.29970236956872" lon="12.756966217714949"><ele>464.00000000000006</ele><time>2026-04-27T11:50:55Z</time></trkpt><trkpt lat="43.29977546537071" lon="12.75708770005137"><ele>463.2</ele><time>2026-04-27T11:50:57Z</time></trkpt><trkpt lat="43.29984016547174" lon="12.757126262995866"><ele>462.4</ele><time>2026-04-27T11:50:58Z</time></trkpt><trkpt lat="43.29991016374868" lon="12.757187793874051"><ele>461.6</ele><time>2026-04-27T11:50:59Z</time></trkpt><trkpt lat="43.29997894166625" lon="12.757292897017459"><ele>460.8</ele><time>2026-04-27T11:51:00Z</time></trkpt><trkpt lat="43.300053849796285" lon="12.75741698227207"><ele>460.0</ele><time>2026-04-27T11:51:01Z</time></trkpt><trkpt lat="43.30014906688628" lon="12.757542303562326"><ele>460.0</ele><time>2026-04-27T11:51:02Z</time></trkpt><trkpt lat="43.30025050730363" lon="12.757664074618493"><ele>460.0</ele><time>2026-04-27T11:51:03Z</time></trkpt><trkpt lat="43.30036368823515" lon="12.757775480232812"><ele>460.0</ele><time>2026-04-27T11:51:04Z</time></trkpt><trkpt lat="43.300493954300556" lon="12.757887040701494"><ele>460.0</ele><time>2026-04-27T11:51:05Z</time></trkpt><trkpt lat="43.30062606346781" lon="12.758000233829032"><ele>461.5</ele><time>2026-04-27T11:51:06Z</time></trkpt><trkpt lat="43.3007556231546" lon="12.758118147434201"><ele>463.0</ele><time>2026-04-27T11:51:07Z</time></trkpt><trkpt lat="43.30087206632861" lon="12.75822177198433"><ele>464.5</ele><time>2026-04-27T11:51:08Z</time></trkpt><trkpt lat="43.30097114751813" lon="12.758310791609924"><ele>466.0</ele><time>2026-04-27T11:51:09Z</time></trkpt><trkpt lat="43.30105937169125" lon="12.758387180575227"><ele>466.0</ele><time>2026-04-27T11:51:10Z</time></trkpt><trkpt lat="43.30114927258488" lon="12.758465907505121"><ele>466.0</ele><time>2026-04-27T11:51:11Z</time></trkpt><trkpt lat="43.301239292181755" lon="12.758547975693796"><ele>466.0</ele><time>2026-04-27T11:51:12Z</time></trkpt><trkpt lat="43.301327702937854" lon="12.758630227390638"><ele>466.0</ele><time>2026-04-27T11:51:13Z</time></trkpt><trkpt lat="43.30141512054967" lon="12.758703581839429"><ele>466.0</ele><time>2026-04-27T11:51:14Z</time></trkpt><trkpt lat="43.30150971555872" lon="12.758753651755216"><ele>467.4</ele><time>2026-04-27T11:51:15Z</time></trkpt><trkpt lat="43.30161488812665" lon="12.758770179998399"><ele>468.8</ele><time>2026-04-27T11:51:16Z</time></trkpt><trkpt lat="43.30172189874656" lon="12.758747106482957"><ele>470.19999999999993</ele><time>2026-04-27T11:51:17Z</time></trkpt><trkpt lat="43.30181855068308" lon="12.758687504525202"><ele>471.59999999999997</ele><time>2026-04-27T11:51:18Z</time></trkpt><trkpt lat="43.301906976448045" lon="12.75860268788428"><ele>473.0</ele><time>2026-04-27T11:51:19Z</time></trkpt><trkpt lat="43.30200122082246" lon="12.758520526658991"><ele>473.0</ele><time>2026-04-27T11:51:20Z</time></trkpt><trkpt lat="43.30210335541175" lon="12.758468798405646"><ele>473.0</ele><time>2026-04-27T11:51:21Z</time></trkpt><trkpt lat="43.30221328197971" lon="12.75846782693975"><ele>473.0</ele><time>2026-04-27T11:51:22Z</time></trkpt><trkpt lat="43.30233267521533" lon="12.758498876018281"><ele>473.0</ele><time>2026-04-27T11:51:23Z</time></trkpt><trkpt lat="43.30246254364318" lon="12.758549505094365"><ele>473.66666666666663</ele><time>2026-04-27T11:51:24Z</time></trkpt><trkpt lat="43.302604042176476" lon="12.758606349579614"><ele>474.33333333333337</ele><time>2026-04-27T11:51:25Z</time></trkpt><trkpt lat="43.302756504997134" lon="12.75866126345719"><ele>475.0</ele><time>2026-04-27T11:51:26Z</time></trkpt><trkpt lat="43.302919431912066" lon="12.75871356649222"><ele>474.0</ele><time>2026-04-27T11:51:27Z</time></trkpt><trkpt lat="43.30308971481852" lon="12.758763049828172"><ele>473.0</ele><time>2026-04-27T11:51:28Z</time></trkpt><trkpt lat="43.303267948478705" lon="12.758815362216605"><ele>472.0</ele><time>2026-04-27T11:51:29Z</time></trkpt><trkpt lat="43.30345000426741" lon="12.758863523241388"><ele>472.0</ele><time>2026-04-27T11:51:30Z</time></trkpt><trkpt lat="43.30363652937335" lon="12.758892447588757"><ele>472.0</ele><time>2026-04-27T11:51:31Z</time></trkpt><trkpt lat="43.303826503910294" lon="12.758895635730829"><ele>472.0</ele><time>2026-04-27T11:51:32Z</time></trkpt><trkpt lat="43.30401694500501" lon="12.758882645508638"><ele>472.33333333333337</ele><time>2026-04-27T11:51:33Z</time></trkpt><trkpt lat="43.30420778162233" lon="12.758867006621326"><ele>472.66666666666663</ele><time>2026-04-27T11:51:34Z</time></trkpt><trkpt lat="43.30439994584539" lon="12.758852148283582"><ele>473.0</ele><time>2026-04-27T11:51:35Z</time></trkpt><trkpt lat="43.3045918406299" lon="12.758839784864671"><ele>473.3333333333333</ele><time>2026-04-27T11:51:36Z</time></trkpt><trkpt lat="43.304783521422664" lon="12.758828392297294"><ele>473.66666666666663</ele><time>2026-04-27T11:51:37Z</time></trkpt><trkpt lat="43.30497460856316" lon="12.758819611104492"><ele>474.0</ele><time>2026-04-27T11:51:38Z</time></trkpt><trkpt lat="43.30516517468353" lon="12.758810246460287"><ele>474.0</ele><time>2026-04-27T11:51:39Z</time></trkpt><trkpt lat="43.305354930478806" lon="12.758801144460831"><ele>474.0</ele><time>2026-04-27T11:51:40Z</time></trkpt><trkpt lat="43.30554438704905" lon="12.75879230950223"><ele>474.0</ele><time>2026-04-27T11:51:41Z</time></trkpt><trkpt lat="43.30573487148489" lon="12.758781797415686"><ele>475.33333333333337</ele><time>2026-04-27T11:51:42Z</time></trkpt><trkpt lat="43.30592463148291" lon="12.758770643429726"><ele>476.6666666666667</ele><time>2026-04-27T11:51:43Z</time></trkpt><trkpt lat="43.306114721188685" lon="12.75876126113179"><ele>478.0</ele><time>2026-04-27T11:51:44Z</time></trkpt><trkpt lat="43.306304977652985" lon="12.75875280879339"><ele>479.6666666666667</ele><time>2026-04-27T11:51:45Z</time></trkpt><trkpt lat="43.30649408092399" lon="12.758743579793279"><ele>481.33333333333337</ele><time>2026-04-27T11:51:46Z</time></trkpt><trkpt lat="43.306681685444865" lon="12.758735912612794"><ele>483.0</ele><time>2026-04-27T11:51:47Z</time></trkpt><trkpt lat="43.30686699515279" lon="12.758732201695084"><ele>483.0</ele><time>2026-04-27T11:51:48Z</time></trkpt><trkpt lat="43.30705041993052" lon="12.758734421320602"><ele>483.0</ele><time>2026-04-27T11:51:49Z</time></trkpt><trkpt lat="43.30723214272209" lon="12.758752840260835"><ele>483.0</ele><time>2026-04-27T11:51:50Z</time></trkpt><trkpt lat="43.307409769939966" lon="12.758787163749604"><ele>484.66666666666663</ele><time>2026-04-27T11:51:51Z</time></trkpt><trkpt lat="43.30758822590685" lon="12.758827397902218"><ele>486.3333333333333</ele><time>2026-04-27T11:51:52Z</time></trkpt><trkpt lat="43.307767726849505" lon="12.75887016669469"><ele>488.0</ele><time>2026-04-27T11:51:53Z</time></trkpt><trkpt lat="43.30794851704131" lon="12.758913820206429"><ele>490.0</ele><time>2026-04-27T11:51:54Z</time></trkpt><trkpt lat="43.308126944006965" lon="12.758953523229264"><ele>492.0</ele><time>2026-04-27T11:51:55Z</time></trkpt><trkpt lat="43.30829392044405" lon="12.758991616686517"><ele>494.0</ele><time>2026-04-27T11:51:56Z</time></trkpt><trkpt lat="43.30845508005323" lon="12.7590255624647"><ele>494.0</ele><time>2026-04-27T11:51:57Z</time></trkpt><trkpt lat="43.30860980801302" lon="12.75905861463986"><ele>494.0</ele><time>2026-04-27T11:51:58Z</time></trkpt><trkpt lat="43.30876537520774" lon="12.759095255590521"><ele>494.0</ele><time>2026-04-27T11:51:58.999Z</time></trkpt><trkpt lat="43.30892137919117" lon="12.759132688334484"><ele>495.3333333333333</ele><time>2026-04-27T11:51:59.999Z</time></trkpt><trkpt lat="43.30907936587715" lon="12.75915941769597"><ele>496.66666666666663</ele><time>2026-04-27T11:52:00.999Z</time></trkpt><trkpt lat="43.30923698987999" lon="12.759175078135268"><ele>498.0</ele><time>2026-04-27T11:52:01.999Z</time></trkpt><trkpt lat="43.30939321065413" lon="12.759177768343768"><ele>498.0</ele><time>2026-04-27T11:52:02.999Z</time></trkpt><trkpt lat="43.30954958640171" lon="12.759171836311884"><ele>498.0</ele><time>2026-04-27T11:52:03.999Z</time></trkpt><trkpt lat="43.309708016081544" lon="12.75916098258923"><ele>498.0</ele><time>2026-04-27T11:52:04.999Z</time></trkpt><trkpt lat="43.3098695451756" lon="12.75914695752086"><ele>496.66666666666663</ele><time>2026-04-27T11:52:05.999Z</time></trkpt><trkpt lat="43.310032463328085" lon="12.759132871623157"><ele>495.3333333333333</ele><time>2026-04-27T11:52:06.999Z</time></trkpt><trkpt lat="43.31019389444078" lon="12.75912200042713"><ele>494.0</ele><time>2026-04-27T11:52:07.999Z</time></trkpt><trkpt lat="43.31035411003519" lon="12.759108269211602"><ele>494.0</ele><time>2026-04-27T11:52:08.999Z</time></trkpt><trkpt lat="43.310513925235455" lon="12.759092846332873"><ele>494.0</ele><time>2026-04-27T11:52:09.999Z</time></trkpt><trkpt lat="43.31067220319606" lon="12.759074226676546"><ele>494.0</ele><time>2026-04-27T11:52:10.999Z</time></trkpt><trkpt lat="43.31083085588872" lon="12.759049624301122"><ele>493.0</ele><time>2026-04-27T11:52:11.999Z</time></trkpt><trkpt lat="43.31098752681872" lon="12.759017605574256"><ele>492.0</ele><time>2026-04-27T11:52:12.999Z</time></trkpt><trkpt lat="43.31114190033869" lon="12.758983065332975"><ele>491.0</ele><time>2026-04-27T11:52:13.999Z</time></trkpt><trkpt lat="43.31129432049874" lon="12.758944848828882"><ele>491.75</ele><time>2026-04-27T11:52:14.999Z</time></trkpt><trkpt lat="43.31144305199905" lon="12.758905824356084"><ele>492.5</ele><time>2026-04-27T11:52:15.999Z</time></trkpt><trkpt lat="43.31158771810902" lon="12.758866480589942"><ele>493.25</ele><time>2026-04-27T11:52:16.999Z</time></trkpt><trkpt lat="43.31172878813263" lon="12.758831247344776"><ele>494.0</ele><time>2026-04-27T11:52:17.999Z</time></trkpt><trkpt lat="43.31186707579277" lon="12.758800633259455"><ele>494.0</ele><time>2026-04-27T11:52:18.999Z</time></trkpt><trkpt lat="43.312005557173435" lon="12.758772521876157"><ele>494.0</ele><time>2026-04-27T11:52:19.999Z</time></trkpt><trkpt lat="43.312146031508284" lon="12.758741751358938"><ele>494.0</ele><time>2026-04-27T11:52:20.999Z</time></trkpt><trkpt lat="43.31228502262282" lon="12.758709284913321"><ele>494.0</ele><time>2026-04-27T11:52:21.999Z</time></trkpt><trkpt lat="43.31242304025972" lon="12.758672939235826"><ele>494.25</ele><time>2026-04-27T11:52:22.999Z</time></trkpt><trkpt lat="43.31255936626002" lon="12.758631517621453"><ele>494.5</ele><time>2026-04-27T11:52:23.999Z</time></trkpt><trkpt lat="43.312694055970226" lon="12.75858998383704"><ele>494.75</ele><time>2026-04-27T11:52:24.999Z</time></trkpt><trkpt lat="43.3128288994921" lon="12.758550041920195"><ele>495.0</ele><time>2026-04-27T11:52:25.999Z</time></trkpt><trkpt lat="43.31296246703231" lon="12.758511261174723"><ele>495.25</ele><time>2026-04-27T11:52:26.999Z</time></trkpt><trkpt lat="43.31309578481611" lon="12.758471089405488"><ele>495.5</ele><time>2026-04-27T11:52:27.999Z</time></trkpt><trkpt lat="43.31322786006623" lon="12.758432268322046"><ele>495.75</ele><time>2026-04-27T11:52:28.999Z</time></trkpt><trkpt lat="43.31335998052717" lon="12.758394181108107"><ele>496.0</ele><time>2026-04-27T11:52:29.999Z</time></trkpt><trkpt lat="43.31349179720179" lon="12.758357227722739"><ele>496.0</ele><time>2026-04-27T11:52:30.999Z</time></trkpt><trkpt lat="43.313626348272" lon="12.75831782257636"><ele>496.0</ele><time>2026-04-27T11:52:31.999Z</time></trkpt><trkpt lat="43.31376220038181" lon="12.758277125243016"><ele>496.0</ele><time>2026-04-27T11:52:32.999Z</time></trkpt><trkpt lat="43.31390006464109" lon="12.7582379003244"><ele>496.0</ele><time>2026-04-27T11:52:33.999Z</time></trkpt><trkpt lat="43.314038892356294" lon="12.758202772082162"><ele>497.5</ele><time>2026-04-27T11:52:34.999Z</time></trkpt><trkpt lat="43.3141694586988" lon="12.758170473709802"><ele>499.0</ele><time>2026-04-27T11:52:35.999Z</time></trkpt><trkpt lat="43.314288310297414" lon="12.758142373542809"><ele>500.5</ele><time>2026-04-27T11:52:36.999Z</time></trkpt><trkpt lat="43.31439709750018" lon="12.75811944314268"><ele>502.0</ele><time>2026-04-27T11:52:37.999Z</time></trkpt><trkpt lat="43.31449804633315" lon="12.758104719468221"><ele>502.0</ele><time>2026-04-27T11:52:38.999Z</time></trkpt><trkpt lat="43.31460194617024" lon="12.758092877490116"><ele>502.00000000000006</ele><time>2026-04-27T11:52:39.999Z</time></trkpt><trkpt lat="43.31470790177691" lon="12.758088071615706"><ele>502.00000000000006</ele><time>2026-04-27T11:52:40.999Z</time></trkpt><trkpt lat="43.31481590522143" lon="12.758080003255694"><ele>502.0</ele><time>2026-04-27T11:52:41.999Z</time></trkpt><trkpt lat="43.31492876281441" lon="12.758073203683267"><ele>502.0</ele><time>2026-04-27T11:52:42.999Z</time></trkpt><trkpt lat="43.315045056714325" lon="12.758064009353959"><ele>502.5</ele><time>2026-04-27T11:52:43.999Z</time></trkpt><trkpt lat="43.31516006336723" lon="12.758056358903033"><ele>503.0</ele><time>2026-04-27T11:52:44.999Z</time></trkpt><trkpt lat="43.31527570680436" lon="12.75804945620705"><ele>503.5</ele><time>2026-04-27T11:52:45.999Z</time></trkpt><trkpt lat="43.31539587971525" lon="12.758046391052575"><ele>504.0</ele><time>2026-04-27T11:52:46.999Z</time></trkpt><trkpt lat="43.315521831833664" lon="12.758055461467654"><ele>504.25</ele><time>2026-04-27T11:52:47.999Z</time></trkpt><trkpt lat="43.31565444006828" lon="12.758080129836074"><ele>504.5</ele><time>2026-04-27T11:52:48.999Z</time></trkpt><trkpt lat="43.31578996791695" lon="12.758126007839849"><ele>504.75</ele><time>2026-04-27T11:52:49.999Z</time></trkpt><trkpt lat="43.31592832261974" lon="12.758186143910937"><ele>505.0</ele><time>2026-04-27T11:52:50.999Z</time></trkpt><trkpt lat="43.31606662241919" lon="12.758252928399438"><ele>505.0</ele><time>2026-04-27T11:52:51.999Z</time></trkpt><trkpt lat="43.31620039133548" lon="12.758322319971473"><ele>505.0</ele><time>2026-04-27T11:52:52.999Z</time></trkpt><trkpt lat="43.3163303680103" lon="12.758393480376654"><ele>505.0</ele><time>2026-04-27T11:52:53.999Z</time></trkpt><trkpt lat="43.31645708603388" lon="12.758468635204151"><ele>505.0</ele><time>2026-04-27T11:52:54.999Z</time></trkpt><trkpt lat="43.31658164749147" lon="12.758546291779433"><ele>505.5</ele><time>2026-04-27T11:52:56Z</time></trkpt><trkpt lat="43.31670414799921" lon="12.758627321268964"><ele>506.0</ele><time>2026-04-27T11:52:57Z</time></trkpt><trkpt lat="43.3168251715944" lon="12.758709321622536"><ele>506.5</ele><time>2026-04-27T11:52:58Z</time></trkpt><trkpt lat="43.31694482266453" lon="12.758795441857183"><ele>507.0</ele><time>2026-04-27T11:52:59Z</time></trkpt><trkpt lat="43.31706227114897" lon="12.758879779789568"><ele>507.0</ele><time>2026-04-27T11:53:00Z</time></trkpt><trkpt lat="43.31717805564878" lon="12.758960683364743"><ele>507.0</ele><time>2026-04-27T11:53:01Z</time></trkpt><trkpt lat="43.317290138463015" lon="12.75904024546324"><ele>507.0</ele><time>2026-04-27T11:53:02Z</time></trkpt><trkpt lat="43.317396556863045" lon="12.759116769360594"><ele>507.0</ele><time>2026-04-27T11:53:03Z</time></trkpt><trkpt lat="43.31749828913644" lon="12.759189857352"><ele>505.0</ele><time>2026-04-27T11:53:04Z</time></trkpt><trkpt lat="43.31759591272151" lon="12.75925688565084"><ele>503.00000000000006</ele><time>2026-04-27T11:53:05Z</time></trkpt><trkpt lat="43.3176938783898" lon="12.75930409162905"><ele>501.00000000000006</ele><time>2026-04-27T11:53:06Z</time></trkpt><trkpt lat="43.3177917428521" lon="12.759314964292427"><ele>499.0</ele><time>2026-04-27T11:53:07Z</time></trkpt><trkpt lat="43.31788552211162" lon="12.759293968272205"><ele>497.0</ele><time>2026-04-27T11:53:08Z</time></trkpt><trkpt lat="43.31798075298334" lon="12.759247307589233"><ele>497.40000000000003</ele><time>2026-04-27T11:53:09Z</time></trkpt><trkpt lat="43.318073439865294" lon="12.759187195467513"><ele>497.80000000000007</ele><time>2026-04-27T11:53:10Z</time></trkpt><trkpt lat="43.31815363873138" lon="12.75910909356104"><ele>498.2</ele><time>2026-04-27T11:53:11Z</time></trkpt><trkpt lat="43.31821919558714" lon="12.759013959321335"><ele>498.6</ele><time>2026-04-27T11:53:12Z</time></trkpt><trkpt lat="43.31826856505244" lon="12.758900168323873"><ele>499.0</ele><time>2026-04-27T11:53:13Z</time></trkpt><trkpt lat="43.31829634480842" lon="12.758775607638455"><ele>499.0</ele><time>2026-04-27T11:53:14Z</time></trkpt><trkpt lat="43.3183014429589" lon="12.758647635177663"><ele>499.0</ele><time>2026-04-27T11:53:15Z</time></trkpt><trkpt lat="43.31829297442037" lon="12.758512313374268"><ele>499.0</ele><time>2026-04-27T11:53:16Z</time></trkpt><trkpt lat="43.31828396989414" lon="12.758368288066631"><ele>499.0</ele><time>2026-04-27T11:53:17Z</time></trkpt><trkpt lat="43.31827933542718" lon="12.75821648856896"><ele>499.0</ele><time>2026-04-27T11:53:18Z</time></trkpt><trkpt lat="43.31827282208346" lon="12.75805671365528"><ele>498.5</ele><time>2026-04-27T11:53:19Z</time></trkpt><trkpt lat="43.318268242958794" lon="12.757891927590151"><ele>498.0</ele><time>2026-04-27T11:53:20Z</time></trkpt><trkpt lat="43.31826750261727" lon="12.757723726510694"><ele>497.5</ele><time>2026-04-27T11:53:21Z</time></trkpt><trkpt lat="43.318273414093404" lon="12.757549945340834"><ele>497.0</ele><time>2026-04-27T11:53:22Z</time></trkpt><trkpt lat="43.31828776107643" lon="12.757370673505335"><ele>496.75</ele><time>2026-04-27T11:53:23Z</time></trkpt><trkpt lat="43.31831245275263" lon="12.75718728935011"><ele>496.5</ele><time>2026-04-27T11:53:24Z</time></trkpt><trkpt lat="43.318343679427095" lon="12.75700820535381"><ele>496.25</ele><time>2026-04-27T11:53:25Z</time></trkpt><trkpt lat="43.31837745737388" lon="12.756833402586544"><ele>496.0</ele><time>2026-04-27T11:53:26Z</time></trkpt><trkpt lat="43.31841149373123" lon="12.7566579911903"><ele>495.5</ele><time>2026-04-27T11:53:27Z</time></trkpt><trkpt lat="43.318445944292584" lon="12.756482580645537"><ele>495.0</ele><time>2026-04-27T11:53:28Z</time></trkpt><trkpt lat="43.31848439624147" lon="12.756311688741082"><ele>494.5</ele><time>2026-04-27T11:53:29Z</time></trkpt><trkpt lat="43.31852083788215" lon="12.756141592557205"><ele>494.0</ele><time>2026-04-27T11:53:30Z</time></trkpt><trkpt lat="43.31856300432929" lon="12.75597247316062"><ele>493.5</ele><time>2026-04-27T11:53:31Z</time></trkpt><trkpt lat="43.318608594523255" lon="12.755809935864097"><ele>493.0</ele><time>2026-04-27T11:53:32Z</time></trkpt><trkpt lat="43.31864361193336" lon="12.755633875640765"><ele>492.5</ele><time>2026-04-27T11:53:33Z</time></trkpt><trkpt lat="43.31869142464231" lon="12.75547367711649"><ele>492.0</ele><time>2026-04-27T11:53:34Z</time></trkpt><trkpt lat="43.31874534997826" lon="12.755317910766333"><ele>491.75</ele><time>2026-04-27T11:53:35Z</time></trkpt><trkpt lat="43.3188047829135" lon="12.755166657576625"><ele>491.5</ele><time>2026-04-27T11:53:36Z</time></trkpt><trkpt lat="43.31886797263569" lon="12.75501404375199"><ele>491.25</ele><time>2026-04-27T11:53:37Z</time></trkpt><trkpt lat="43.318933175424036" lon="12.754862122672654"><ele>491.0</ele><time>2026-04-27T11:53:38Z</time></trkpt><trkpt lat="43.31899826130462" lon="12.75470911714396"><ele>491.75</ele><time>2026-04-27T11:53:39Z</time></trkpt><trkpt lat="43.31906253628171" lon="12.754563490877358"><ele>492.5</ele><time>2026-04-27T11:53:40Z</time></trkpt><trkpt lat="43.31912478212988" lon="12.754425211443383"><ele>493.25</ele><time>2026-04-27T11:53:41Z</time></trkpt><trkpt lat="43.31918944622413" lon="12.754285481995666"><ele>494.0</ele><time>2026-04-27T11:53:42Z</time></trkpt><trkpt lat="43.31926019963584" lon="12.754144223123976"><ele>494.0</ele><time>2026-04-27T11:53:43Z</time></trkpt><trkpt lat="43.31934651176129" lon="12.754008123093783"><ele>494.0</ele><time>2026-04-27T11:53:44Z</time></trkpt><trkpt lat="43.319447137458695" lon="12.75388455044836"><ele>494.0</ele><time>2026-04-27T11:53:45Z</time></trkpt><trkpt lat="43.319556978353816" lon="12.753786291621653"><ele>494.0</ele><time>2026-04-27T11:53:46Z</time></trkpt><trkpt lat="43.31967175496447" lon="12.753705074436244"><ele>494.75</ele><time>2026-04-27T11:53:47Z</time></trkpt><trkpt lat="43.31978982981181" lon="12.753629074681205"><ele>495.5</ele><time>2026-04-27T11:53:48Z</time></trkpt><trkpt lat="43.31991052511527" lon="12.75354938672928"><ele>496.25</ele><time>2026-04-27T11:53:49Z</time></trkpt><trkpt lat="43.32003141382937" lon="12.753465103271589"><ele>497.0</ele><time>2026-04-27T11:53:50Z</time></trkpt><trkpt lat="43.32015220461924" lon="12.753381734191546"><ele>497.0</ele><time>2026-04-27T11:53:51Z</time></trkpt><trkpt lat="43.32027421971193" lon="12.753297950055089"><ele>497.0</ele><time>2026-04-27T11:53:52Z</time></trkpt><trkpt lat="43.320389383930056" lon="12.753217113432363"><ele>497.0</ele><time>2026-04-27T11:53:53Z</time></trkpt><trkpt lat="43.32049558720948" lon="12.753143510770718"><ele>497.0</ele><time>2026-04-27T11:53:54Z</time></trkpt><trkpt lat="43.320598091573586" lon="12.753072629408067"><ele>497.20000000000005</ele><time>2026-04-27T11:53:55Z</time></trkpt><trkpt lat="43.320695534441896" lon="12.753006848056957"><ele>497.40000000000003</ele><time>2026-04-27T11:53:56Z</time></trkpt><trkpt lat="43.32079222900145" lon="12.752941868073986"><ele>497.59999999999997</ele><time>2026-04-27T11:53:56.999Z</time></trkpt><trkpt lat="43.32089295384287" lon="12.752871048079502"><ele>497.79999999999995</ele><time>2026-04-27T11:53:57.999Z</time></trkpt><trkpt lat="43.32099214334473" lon="12.752790546737069"><ele>498.0</ele><time>2026-04-27T11:53:58.999Z</time></trkpt><trkpt lat="43.32109304767459" lon="12.752691143520101"><ele>498.0</ele><time>2026-04-27T11:53:59.999Z</time></trkpt><trkpt lat="43.321188457409036" lon="12.75257432586346"><ele>498.0</ele><time>2026-04-27T11:54:00.999Z</time></trkpt><trkpt lat="43.32127546508035" lon="12.75244055041215"><ele>498.0</ele><time>2026-04-27T11:54:01.999Z</time></trkpt><trkpt lat="43.32135649671127" lon="12.752297567899584"><ele>498.0</ele><time>2026-04-27T11:54:02.999Z</time></trkpt><trkpt lat="43.32143572867205" lon="12.752152143900958"><ele>498.5</ele><time>2026-04-27T11:54:03.999Z</time></trkpt><trkpt lat="43.32151377715913" lon="12.752004861707533"><ele>499.0</ele><time>2026-04-27T11:54:04.999Z</time></trkpt><trkpt lat="43.32159162032729" lon="12.751856402727645"><ele>499.5</ele><time>2026-04-27T11:54:05.999Z</time></trkpt><trkpt lat="43.32167521782054" lon="12.751704107799283"><ele>500.0</ele><time>2026-04-27T11:54:06.999Z</time></trkpt><trkpt lat="43.3217646065693" lon="12.751546386076681"><ele>500.0</ele><time>2026-04-27T11:54:07.999Z</time></trkpt><trkpt lat="43.32186666688986" lon="12.751392620178613"><ele>500.0</ele><time>2026-04-27T11:54:08.999Z</time></trkpt><trkpt lat="43.321976901936246" lon="12.751247094719888"><ele>500.0</ele><time>2026-04-27T11:54:09.999Z</time></trkpt><trkpt lat="43.32209424292498" lon="12.751104524139452"><ele>499.75</ele><time>2026-04-27T11:54:10.999Z</time></trkpt><trkpt lat="43.322210927962175" lon="12.750969607263285"><ele>499.5</ele><time>2026-04-27T11:54:11.999Z</time></trkpt><trkpt lat="43.322324124988185" lon="12.750847018099522"><ele>499.25</ele><time>2026-04-27T11:54:12.999Z</time></trkpt><trkpt lat="43.32243655889257" lon="12.750738393316757"><ele>499.0</ele><time>2026-04-27T11:54:13.999Z</time></trkpt><trkpt lat="43.32254561035713" lon="12.750646291226795"><ele>500.25</ele><time>2026-04-27T11:54:14.999Z</time></trkpt><trkpt lat="43.32266364431456" lon="12.750561644606728"><ele>501.5</ele><time>2026-04-27T11:54:15.999Z</time></trkpt><trkpt lat="43.32278501466568" lon="12.750475782400024"><ele>502.75</ele><time>2026-04-27T11:54:16.999Z</time></trkpt><trkpt lat="43.322906307989975" lon="12.7503880167254"><ele>504.0</ele><time>2026-04-27T11:54:17.999Z</time></trkpt><trkpt lat="43.32302759229436" lon="12.750294228092148"><ele>502.75</ele><time>2026-04-27T11:54:18.999Z</time></trkpt><trkpt lat="43.32314369297986" lon="12.750188049965113"><ele>501.5</ele><time>2026-04-27T11:54:19.999Z</time></trkpt><trkpt lat="43.32325124392297" lon="12.750063848781267"><ele>500.25</ele><time>2026-04-27T11:54:20.999Z</time></trkpt><trkpt lat="43.323359492555035" lon="12.749922079071245"><ele>499.0</ele><time>2026-04-27T11:54:21.999Z</time></trkpt><trkpt lat="43.32346081107003" lon="12.749775522207285"><ele>499.0</ele><time>2026-04-27T11:54:22.999Z</time></trkpt><trkpt lat="43.32355340075416" lon="12.749625402310071"><ele>499.0</ele><time>2026-04-27T11:54:23.999Z</time></trkpt><trkpt lat="43.32363832122394" lon="12.749471190754344"><ele>499.0</ele><time>2026-04-27T11:54:24.999Z</time></trkpt><trkpt lat="43.323717404514824" lon="12.749311298743773"><ele>499.0</ele><time>2026-04-27T11:54:25.999Z</time></trkpt><trkpt lat="43.32379661540901" lon="12.749151093622743"><ele>498.25</ele><time>2026-04-27T11:54:26.999Z</time></trkpt><trkpt lat="43.32387894957895" lon="12.748993379423876"><ele>497.5</ele><time>2026-04-27T11:54:27.999Z</time></trkpt><trkpt lat="43.32396003201688" lon="12.748832776307603"><ele>496.75</ele><time>2026-04-27T11:54:28.999Z</time></trkpt><trkpt lat="43.32404034783547" lon="12.748671914855837"><ele>496.0</ele><time>2026-04-27T11:54:29.999Z</time></trkpt><trkpt lat="43.324121944812376" lon="12.748511230219274"><ele>494.5</ele><time>2026-04-27T11:54:30.999Z</time></trkpt><trkpt lat="43.3242057019364" lon="12.748351289568705"><ele>493.0</ele><time>2026-04-27T11:54:31.999Z</time></trkpt><trkpt lat="43.32428773642469" lon="12.748195063636583"><ele>491.5</ele><time>2026-04-27T11:54:32.999Z</time></trkpt><trkpt lat="43.32436728864215" lon="12.74804000818147"><ele>490.0</ele><time>2026-04-27T11:54:33.999Z</time></trkpt><trkpt lat="43.32444548841049" lon="12.74788766564097"><ele>490.0</ele><time>2026-04-27T11:54:34.999Z</time></trkpt><trkpt lat="43.32452240440516" lon="12.747744377836021"><ele>490.0</ele><time>2026-04-27T11:54:35.999Z</time></trkpt><trkpt lat="43.324598904957604" lon="12.747603680242285"><ele>490.0</ele><time>2026-04-27T11:54:36.999Z</time></trkpt><trkpt lat="43.324678096874884" lon="12.747458618767439"><ele>490.0</ele><time>2026-04-27T11:54:37.999Z</time></trkpt><trkpt lat="43.3247598206442" lon="12.747313443220953"><ele>489.0</ele><time>2026-04-27T11:54:38.999Z</time></trkpt><trkpt lat="43.324849605923546" lon="12.747166852197108"><ele>488.0</ele><time>2026-04-27T11:54:39.999Z</time></trkpt><trkpt lat="43.324938584423215" lon="12.747022908083425"><ele>487.0</ele><time>2026-04-27T11:54:40.999Z</time></trkpt><trkpt lat="43.32502852399584" lon="12.746882238484154"><ele>486.0</ele><time>2026-04-27T11:54:41.999Z</time></trkpt><trkpt lat="43.32511447524322" lon="12.746740854139315"><ele>485.25</ele><time>2026-04-27T11:54:42.999Z</time></trkpt><trkpt lat="43.325199967467505" lon="12.746591266648837"><ele>484.5</ele><time>2026-04-27T11:54:43.999Z</time></trkpt><trkpt lat="43.325281040613056" lon="12.746432756517967"><ele>483.75</ele><time>2026-04-27T11:54:44.999Z</time></trkpt><trkpt lat="43.3253561857361" lon="12.746266354103104"><ele>483.0</ele><time>2026-04-27T11:54:45.999Z</time></trkpt><trkpt lat="43.32542437307437" lon="12.746094565486159"><ele>482.75</ele><time>2026-04-27T11:54:46.999Z</time></trkpt><trkpt lat="43.32548684506219" lon="12.7459209760546"><ele>482.5</ele><time>2026-04-27T11:54:47.999Z</time></trkpt><trkpt lat="43.32554261416928" lon="12.745752216941959"><ele>482.25</ele><time>2026-04-27T11:54:48.999Z</time></trkpt><trkpt lat="43.325600185463486" lon="12.745591008411127"><ele>482.0</ele><time>2026-04-27T11:54:49.999Z</time></trkpt><trkpt lat="43.32565892474719" lon="12.745430273144285"><ele>484.5</ele><time>2026-04-27T11:54:50.999Z</time></trkpt><trkpt lat="43.32572822049738" lon="12.745273653253351"><ele>487.0</ele><time>2026-04-27T11:54:51.999Z</time></trkpt><trkpt lat="43.32580394755176" lon="12.745134406506825"><ele>489.5</ele><time>2026-04-27T11:54:52.999Z</time></trkpt><trkpt lat="43.32588259521629" lon="12.745017349429983"><ele>492.0</ele><time>2026-04-27T11:54:53.999Z</time></trkpt><trkpt lat="43.325970349853336" lon="12.744916970385924"><ele>492.0</ele><time>2026-04-27T11:54:54.999Z</time></trkpt><trkpt lat="43.32606996883115" lon="12.744835471770285"><ele>492.0</ele><time>2026-04-27T11:54:55.999Z</time></trkpt><trkpt lat="43.32617716203034" lon="12.744780053931972"><ele>492.0</ele><time>2026-04-27T11:54:56.999Z</time></trkpt><trkpt lat="43.32628864228634" lon="12.7447514466384"><ele>492.0</ele><time>2026-04-27T11:54:57.999Z</time></trkpt><trkpt lat="43.32640212251289" lon="12.744730553232728"><ele>493.0</ele><time>2026-04-27T11:54:58.999Z</time></trkpt><trkpt lat="43.326518060010834" lon="12.744709831608283"><ele>494.0</ele><time>2026-04-27T11:54:59.999Z</time></trkpt><trkpt lat="43.32663366531412" lon="12.744693381500557"><ele>495.0</ele><time>2026-04-27T11:55:00.999Z</time></trkpt><trkpt lat="43.32675240240246" lon="12.744675880232252"><ele>496.0</ele><time>2026-04-27T11:55:02Z</time></trkpt><trkpt lat="43.32686958332488" lon="12.744657522918546"><ele>496.0</ele><time>2026-04-27T11:55:03Z</time></trkpt><trkpt lat="43.326986790813706" lon="12.744637386749146"><ele>496.0</ele><time>2026-04-27T11:55:04Z</time></trkpt><trkpt lat="43.32710631016617" lon="12.744615711247837"><ele>496.0</ele><time>2026-04-27T11:55:05Z</time></trkpt><trkpt lat="43.327225573275314" lon="12.744595598544324"><ele>496.0</ele><time>2026-04-27T11:55:06Z</time></trkpt><trkpt lat="43.32734423556277" lon="12.74457646177023"><ele>496.25</ele><time>2026-04-27T11:55:07Z</time></trkpt><trkpt lat="43.32746588690258" lon="12.744555473637956"><ele>496.5</ele><time>2026-04-27T11:55:08Z</time></trkpt><trkpt lat="43.32758844116836" lon="12.744533538583006"><ele>496.75</ele><time>2026-04-27T11:55:09Z</time></trkpt><trkpt lat="43.3277190604537" lon="12.744512390259843"><ele>497.0</ele><time>2026-04-27T11:55:10Z</time></trkpt><trkpt lat="43.327851772236" lon="12.74449330371686"><ele>497.0</ele><time>2026-04-27T11:55:11Z</time></trkpt><trkpt lat="43.3279802461062" lon="12.744477684857998"><ele>497.0</ele><time>2026-04-27T11:55:12Z</time></trkpt><trkpt lat="43.32810914818943" lon="12.74446347857496"><ele>497.0</ele><time>2026-04-27T11:55:13Z</time></trkpt><trkpt lat="43.3282410414191" lon="12.744457882387906"><ele>497.0</ele><time>2026-04-27T11:55:14Z</time></trkpt><trkpt lat="43.32837287514289" lon="12.744468135186379"><ele>496.0</ele><time>2026-04-27T11:55:15Z</time></trkpt><trkpt lat="43.32850744148506" lon="12.744486010244145"><ele>495.0</ele><time>2026-04-27T11:55:16Z</time></trkpt><trkpt lat="43.32863818653472" lon="12.744510756543908"><ele>494.0</ele><time>2026-04-27T11:55:17Z</time></trkpt><trkpt lat="43.328767259290906" lon="12.744536314620895"><ele>493.0</ele><time>2026-04-27T11:55:18Z</time></trkpt><trkpt lat="43.32889509139166" lon="12.744563828091442"><ele>490.25</ele><time>2026-04-27T11:55:19Z</time></trkpt><trkpt lat="43.329018749108876" lon="12.744595313350503"><ele>487.5</ele><time>2026-04-27T11:55:20Z</time></trkpt><trkpt lat="43.329141039910404" lon="12.744626097444502"><ele>484.75</ele><time>2026-04-27T11:55:21Z</time></trkpt><trkpt lat="43.32925289819724" lon="12.744602036406313"><ele>482.0</ele><time>2026-04-27T11:55:22Z</time></trkpt><trkpt lat="43.329356382642196" lon="12.744567067454495"><ele>482.0</ele><time>2026-04-27T11:55:23Z</time></trkpt><trkpt lat="43.329454617854445" lon="12.744501286850312"><ele>482.0</ele><time>2026-04-27T11:55:24Z</time></trkpt><trkpt lat="43.32955883700085" lon="12.744424291204647"><ele>482.0</ele><time>2026-04-27T11:55:25Z</time></trkpt><trkpt lat="43.329661277822396" lon="12.74432809768189"><ele>482.0</ele><time>2026-04-27T11:55:26Z</time></trkpt><trkpt lat="43.329762953819746" lon="12.744225502068987"><ele>481.75</ele><time>2026-04-27T11:55:27Z</time></trkpt><trkpt lat="43.32986139926905" lon="12.74412677982369"><ele>481.5</ele><time>2026-04-27T11:55:28Z</time></trkpt><trkpt lat="43.32995552703855" lon="12.744026406446118"><ele>481.25</ele><time>2026-04-27T11:55:29Z</time></trkpt><trkpt lat="43.33004337614538" lon="12.743925553317352"><ele>481.0</ele><time>2026-04-27T11:55:30Z</time></trkpt><trkpt lat="43.33013159082006" lon="12.743821246408297"><ele>481.0</ele><time>2026-04-27T11:55:31Z</time></trkpt><trkpt lat="43.33022402863134" lon="12.743720336619349"><ele>481.0</ele><time>2026-04-27T11:55:32Z</time></trkpt><trkpt lat="43.33031587158917" lon="12.743623868064306"><ele>481.0</ele><time>2026-04-27T11:55:33Z</time></trkpt><trkpt lat="43.33040668418223" lon="12.743530762207477"><ele>481.0</ele><time>2026-04-27T11:55:34Z</time></trkpt><trkpt lat="43.3304978576733" lon="12.743440437832545"><ele>480.25</ele><time>2026-04-27T11:55:35Z</time></trkpt><trkpt lat="43.33058877494387" lon="12.74335058988936"><ele>479.5</ele><time>2026-04-27T11:55:36Z</time></trkpt><trkpt lat="43.3306802069825" lon="12.74326340007869"><ele>478.75</ele><time>2026-04-27T11:55:37Z</time></trkpt><trkpt lat="43.33077816948695" lon="12.743175024289151"><ele>478.0</ele><time>2026-04-27T11:55:38Z</time></trkpt><trkpt lat="43.330874449772104" lon="12.743085682518254"><ele>478.0</ele><time>2026-04-27T11:55:39Z</time></trkpt><trkpt lat="43.33096651743038" lon="12.74298826419151"><ele>477.99999999999994</ele><time>2026-04-27T11:55:40Z</time></trkpt><trkpt lat="43.33105191607045" lon="12.742883827437216"><ele>477.99999999999994</ele><time>2026-04-27T11:55:41Z</time></trkpt><trkpt lat="43.33112233675792" lon="12.742768484043367"><ele>478.0</ele><time>2026-04-27T11:55:42Z</time></trkpt><trkpt lat="43.33117836928661" lon="12.742644037033894"><ele>478.0</ele><time>2026-04-27T11:55:43Z</time></trkpt><trkpt lat="43.331221179115055" lon="12.742500762530202"><ele>478.2</ele><time>2026-04-27T11:55:44Z</time></trkpt><trkpt lat="43.331247090384984" lon="12.742348886077648"><ele>478.4</ele><time>2026-04-27T11:55:45Z</time></trkpt><trkpt lat="43.33125703841973" lon="12.742194704825696"><ele>478.59999999999997</ele><time>2026-04-27T11:55:46Z</time></trkpt><trkpt lat="43.33125687516992" lon="12.742038681927745"><ele>478.79999999999995</ele><time>2026-04-27T11:55:47Z</time></trkpt><trkpt lat="43.33125528501775" lon="12.741892356190226"><ele>479.0</ele><time>2026-04-27T11:55:48Z</time></trkpt><trkpt lat="43.33125111260921" lon="12.741751069720026"><ele>479.8333333333333</ele><time>2026-04-27T11:55:49Z</time></trkpt><trkpt lat="43.33124737140108" lon="12.741617159618638"><ele>480.66666666666663</ele><time>2026-04-27T11:55:50Z</time></trkpt><trkpt lat="43.33123975594643" lon="12.74149714007282"><ele>481.5</ele><time>2026-04-27T11:55:51Z</time></trkpt><trkpt lat="43.331234282727806" lon="12.741383715395157"><ele>482.33333333333337</ele><time>2026-04-27T11:55:52Z</time></trkpt><trkpt lat="43.33123282255912" lon="12.741265179075896"><ele>483.1666666666667</ele><time>2026-04-27T11:55:53Z</time></trkpt><trkpt lat="43.33124533408006" lon="12.741141546551905"><ele>484.0</ele><time>2026-04-27T11:55:54Z</time></trkpt><trkpt lat="43.33127505192807" lon="12.741016421925314"><ele>484.33333333333337</ele><time>2026-04-27T11:55:55Z</time></trkpt><trkpt lat="43.33133126720321" lon="12.740921218773195"><ele>484.6666666666667</ele><time>2026-04-27T11:55:56Z</time></trkpt><trkpt lat="43.331375405184914" lon="12.740834582806638"><ele>485.0</ele><time>2026-04-27T11:55:57Z</time></trkpt><trkpt lat="43.331424206110476" lon="12.740752078369397"><ele>485.33333333333337</ele><time>2026-04-27T11:55:58Z</time></trkpt><trkpt lat="43.33147117918661" lon="12.740667731396368"><ele>485.6666666666667</ele><time>2026-04-27T11:55:58.999Z</time></trkpt><trkpt lat="43.331518873211714" lon="12.74058209094968"><ele>486.0</ele><time>2026-04-27T11:55:59.999Z</time></trkpt><trkpt lat="43.33156885754058" lon="12.740495851059483"><ele>487.0</ele><time>2026-04-27T11:56:00.999Z</time></trkpt><trkpt lat="43.33162283126392" lon="12.740401711730112"><ele>488.0</ele><time>2026-04-27T11:56:01.999Z</time></trkpt><trkpt lat="43.33168336259003" lon="12.740293435568638"><ele>489.0</ele><time>2026-04-27T11:56:02.999Z</time></trkpt><trkpt lat="43.33174952907091" lon="12.740173703098504"><ele>490.0</ele><time>2026-04-27T11:56:03.999Z</time></trkpt><trkpt lat="43.33181921140499" lon="12.740050952129806"><ele>491.0</ele><time>2026-04-27T11:56:04.999Z</time></trkpt><trkpt lat="43.33188270001891" lon="12.73990648642316"><ele>491.0</ele><time>2026-04-27T11:56:05.999Z</time></trkpt><trkpt lat="43.33196350898864" lon="12.73977732363133"><ele>491.0</ele><time>2026-04-27T11:56:06.999Z</time></trkpt><trkpt lat="43.33204950167534" lon="12.739651450841183"><ele>491.0</ele><time>2026-04-27T11:56:07.999Z</time></trkpt><trkpt lat="43.33214423748594" lon="12.739546595684331"><ele>491.0</ele><time>2026-04-27T11:56:08.999Z</time></trkpt><trkpt lat="43.33222327248559" lon="12.739427021006938"><ele>491.25</ele><time>2026-04-27T11:56:09.999Z</time></trkpt><trkpt lat="43.33230160675308" lon="12.7393074332157"><ele>491.5</ele><time>2026-04-27T11:56:10.999Z</time></trkpt><trkpt lat="43.33237804344663" lon="12.739190742324219"><ele>491.75</ele><time>2026-04-27T11:56:11.999Z</time></trkpt><trkpt lat="43.33245348763848" lon="12.739075262004057"><ele>492.0</ele><time>2026-04-27T11:56:12.999Z</time></trkpt><trkpt lat="43.33252761923919" lon="12.7389614728231"><ele>492.0</ele><time>2026-04-27T11:56:13.999Z</time></trkpt><trkpt lat="43.33260339409102" lon="12.738845161276728"><ele>492.0</ele><time>2026-04-27T11:56:14.999Z</time></trkpt><trkpt lat="43.33267885199255" lon="12.73872668796299"><ele>492.0</ele><time>2026-04-27T11:56:15.999Z</time></trkpt><trkpt lat="43.33275386961146" lon="12.738607793111447"><ele>492.0</ele><time>2026-04-27T11:56:16.999Z</time></trkpt><trkpt lat="43.33283000893024" lon="12.738487282874942"><ele>491.5</ele><time>2026-04-27T11:56:17.999Z</time></trkpt><trkpt lat="43.33290639843566" lon="12.73836701936605"><ele>491.0</ele><time>2026-04-27T11:56:18.999Z</time></trkpt><trkpt lat="43.332983902871945" lon="12.738246782850672"><ele>490.5</ele><time>2026-04-27T11:56:19.999Z</time></trkpt><trkpt lat="43.333063755025115" lon="12.738123647939071"><ele>490.0</ele><time>2026-04-27T11:56:20.999Z</time></trkpt><trkpt lat="43.33313995729926" lon="12.738005369998058"><ele>490.5</ele><time>2026-04-27T11:56:21.999Z</time></trkpt><trkpt lat="43.33321426300921" lon="12.737890034846648"><ele>491.0</ele><time>2026-04-27T11:56:22.999Z</time></trkpt><trkpt lat="43.3332873500043" lon="12.737776567668032"><ele>491.5</ele><time>2026-04-27T11:56:23.999Z</time></trkpt><trkpt lat="43.33336148719399" lon="12.737662020228434"><ele>492.0</ele><time>2026-04-27T11:56:24.999Z</time></trkpt><trkpt lat="43.33343928188859" lon="12.737542221893362"><ele>492.0</ele><time>2026-04-27T11:56:25.999Z</time></trkpt><trkpt lat="43.333519477830535" lon="12.737418725851548"><ele>492.0</ele><time>2026-04-27T11:56:26.999Z</time></trkpt><trkpt lat="43.33359045023044" lon="12.737278970931388"><ele>492.0</ele><time>2026-04-27T11:56:27.999Z</time></trkpt><trkpt lat="43.33368203757316" lon="12.737151569660393"><ele>492.0</ele><time>2026-04-27T11:56:28.999Z</time></trkpt><trkpt lat="43.33377969807571" lon="12.737023072495937"><ele>492.0</ele><time>2026-04-27T11:56:29.999Z</time></trkpt><trkpt lat="43.33388439070973" lon="12.73688822335242"><ele>492.0</ele><time>2026-04-27T11:56:30.999Z</time></trkpt><trkpt lat="43.33399128188297" lon="12.736757111352393"><ele>492.0</ele><time>2026-04-27T11:56:31.999Z</time></trkpt><trkpt lat="43.33409875452998" lon="12.736621282834477"><ele>492.0</ele><time>2026-04-27T11:56:32.999Z</time></trkpt><trkpt lat="43.334207028423485" lon="12.736482538566213"><ele>490.66666666666663</ele><time>2026-04-27T11:56:33.999Z</time></trkpt><trkpt lat="43.33431874162743" lon="12.736341289999135"><ele>489.3333333333333</ele><time>2026-04-27T11:56:34.999Z</time></trkpt><trkpt lat="43.33443372737606" lon="12.736198029611382"><ele>488.0</ele><time>2026-04-27T11:56:35.999Z</time></trkpt><trkpt lat="43.334551274300374" lon="12.736052968588806"><ele>486.3333333333333</ele><time>2026-04-27T11:56:36.999Z</time></trkpt><trkpt lat="43.33466957577631" lon="12.73590715179354"><ele>484.66666666666663</ele><time>2026-04-27T11:56:37.999Z</time></trkpt><trkpt lat="43.33479083573352" lon="12.73575854231048"><ele>483.0</ele><time>2026-04-27T11:56:38.999Z</time></trkpt><trkpt lat="43.33491554910042" lon="12.73560694534653"><ele>483.0</ele><time>2026-04-27T11:56:39.999Z</time></trkpt><trkpt lat="43.3350464577452" lon="12.735451744664003"><ele>483.0</ele><time>2026-04-27T11:56:40.999Z</time></trkpt><trkpt lat="43.335177487724565" lon="12.73528826002054"><ele>483.0</ele><time>2026-04-27T11:56:41.999Z</time></trkpt><trkpt lat="43.33531163891948" lon="12.735122058019378"><ele>482.0</ele><time>2026-04-27T11:56:42.999Z</time></trkpt><trkpt lat="43.33544206467651" lon="12.734957163942056"><ele>481.0</ele><time>2026-04-27T11:56:43.999Z</time></trkpt><trkpt lat="43.33557782325453" lon="12.734794484523514"><ele>480.0</ele><time>2026-04-27T11:56:44.999Z</time></trkpt><trkpt lat="43.33571248724902" lon="12.734627649239346"><ele>480.0</ele><time>2026-04-27T11:56:45.999Z</time></trkpt><trkpt lat="43.335848356028166" lon="12.734460734966774"><ele>480.0</ele><time>2026-04-27T11:56:46.999Z</time></trkpt><trkpt lat="43.3359856262843" lon="12.734295021475955"><ele>480.0</ele><time>2026-04-27T11:56:47.999Z</time></trkpt><trkpt lat="43.33612211581091" lon="12.734130652000612"><ele>479.66666666666663</ele><time>2026-04-27T11:56:48.999Z</time></trkpt><trkpt lat="43.33625697502859" lon="12.733965355474101"><ele>479.3333333333333</ele><time>2026-04-27T11:56:49.999Z</time></trkpt><trkpt lat="43.33639132900131" lon="12.73380153832399"><ele>479.0</ele><time>2026-04-27T11:56:50.999Z</time></trkpt><trkpt lat="43.33652102370466" lon="12.73363652087776"><ele>479.3333333333333</ele><time>2026-04-27T11:56:51.999Z</time></trkpt><trkpt lat="43.33665101971255" lon="12.733476909606745"><ele>479.66666666666663</ele><time>2026-04-27T11:56:52.999Z</time></trkpt><trkpt lat="43.33677722790279" lon="12.73331866136552"><ele>480.0</ele><time>2026-04-27T11:56:53.999Z</time></trkpt><trkpt lat="43.33690279206546" lon="12.733162356648545"><ele>480.0</ele><time>2026-04-27T11:56:54.999Z</time></trkpt><trkpt lat="43.33703346796099" lon="12.733002354506915"><ele>480.0</ele><time>2026-04-27T11:56:55.999Z</time></trkpt><trkpt lat="43.33716542740549" lon="12.732834740685842"><ele>480.0</ele><time>2026-04-27T11:56:56.999Z</time></trkpt><trkpt lat="43.33730351525587" lon="12.73266616504387"><ele>481.0</ele><time>2026-04-27T11:56:57.999Z</time></trkpt><trkpt lat="43.33744255058788" lon="12.732495079397365"><ele>482.0</ele><time>2026-04-27T11:56:58.999Z</time></trkpt><trkpt lat="43.33758402651268" lon="12.732320269913748"><ele>483.0</ele><time>2026-04-27T11:56:59.999Z</time></trkpt><trkpt lat="43.33772754216342" lon="12.732146010078402"><ele>483.0</ele><time>2026-04-27T11:57:00.999Z</time></trkpt><trkpt lat="43.33787457643415" lon="12.731970687188754"><ele>483.0</ele><time>2026-04-27T11:57:01.999Z</time></trkpt><trkpt lat="43.33802221668964" lon="12.731793259690942"><ele>483.0</ele><time>2026-04-27T11:57:02.999Z</time></trkpt><trkpt lat="43.33817052694854" lon="12.731613580505137"><ele>484.0</ele><time>2026-04-27T11:57:03.999Z</time></trkpt><trkpt lat="43.33832516080694" lon="12.731439696761415"><ele>485.0</ele><time>2026-04-27T11:57:04.999Z</time></trkpt><trkpt lat="43.338485423741496" lon="12.731274933831287"><ele>486.0</ele><time>2026-04-27T11:57:05.999Z</time></trkpt><trkpt lat="43.338651464506746" lon="12.731121400992098"><ele>485.0</ele><time>2026-04-27T11:57:06.999Z</time></trkpt><trkpt lat="43.338822597739735" lon="12.730979413205347"><ele>484.0</ele><time>2026-04-27T11:57:08Z</time></trkpt><trkpt lat="43.33899915743652" lon="12.730848499727271"><ele>483.0</ele><time>2026-04-27T11:57:09Z</time></trkpt><trkpt lat="43.339177418193714" lon="12.730726556749818"><ele>485.0</ele><time>2026-04-27T11:57:10Z</time></trkpt><trkpt lat="43.33935795912193" lon="12.73061312890909"><ele>487.0</ele><time>2026-04-27T11:57:11Z</time></trkpt><trkpt lat="43.33953410424356" lon="12.7305036234777"><ele>489.0</ele><time>2026-04-27T11:57:12Z</time></trkpt><trkpt lat="43.339703852919925" lon="12.730397631505305"><ele>489.33333333333337</ele><time>2026-04-27T11:57:13Z</time></trkpt><trkpt lat="43.33986764482571" lon="12.730295207285538"><ele>489.6666666666667</ele><time>2026-04-27T11:57:14Z</time></trkpt><trkpt lat="43.34002583925077" lon="12.730193618934694"><ele>490.0</ele><time>2026-04-27T11:57:15Z</time></trkpt><trkpt lat="43.34017701103676" lon="12.730090378772633"><ele>489.33333333333337</ele><time>2026-04-27T11:57:16Z</time></trkpt><trkpt lat="43.34032310542757" lon="12.729990765755096"><ele>488.66666666666663</ele><time>2026-04-27T11:57:17Z</time></trkpt><trkpt lat="43.34046657841909" lon="12.729888204059348"><ele>488.0</ele><time>2026-04-27T11:57:18Z</time></trkpt><trkpt lat="43.34061433917978" lon="12.729784979940424"><ele>488.0</ele><time>2026-04-27T11:57:19Z</time></trkpt><trkpt lat="43.3407636411008" lon="12.729682496971735"><ele>488.0</ele><time>2026-04-27T11:57:20Z</time></trkpt><trkpt lat="43.340914256766574" lon="12.729577581974159"><ele>488.0</ele><time>2026-04-27T11:57:21Z</time></trkpt><trkpt lat="43.341065756619" lon="12.729470032957796"><ele>488.3333333333333</ele><time>2026-04-27T11:57:22Z</time></trkpt><trkpt lat="43.341214704863056" lon="12.72935889462971"><ele>488.66666666666663</ele><time>2026-04-27T11:57:23Z</time></trkpt><trkpt lat="43.341371245668554" lon="12.72926786373232"><ele>489.0</ele><time>2026-04-27T11:57:24Z</time></trkpt><trkpt lat="43.34152051417917" lon="12.729159302054011"><ele>489.0</ele><time>2026-04-27T11:57:25Z</time></trkpt><trkpt lat="43.341673051572975" lon="12.729047191387371"><ele>489.0</ele><time>2026-04-27T11:57:26Z</time></trkpt><trkpt lat="43.34182764457386" lon="12.728933196541375"><ele>489.0</ele><time>2026-04-27T11:57:27Z</time></trkpt><trkpt lat="43.3419831280262" lon="12.728819719533574"><ele>489.0</ele><time>2026-04-27T11:57:28Z</time></trkpt><trkpt lat="43.34214043869143" lon="12.728705344750228"><ele>489.0</ele><time>2026-04-27T11:57:29Z</time></trkpt><trkpt lat="43.34229868674206" lon="12.728590286773915"><ele>489.0</ele><time>2026-04-27T11:57:30Z</time></trkpt><trkpt lat="43.34245586424136" lon="12.72847600718981"><ele>489.0</ele><time>2026-04-27T11:57:31Z</time></trkpt><trkpt lat="43.34261283850129" lon="12.728362013879295"><ele>489.0</ele><time>2026-04-27T11:57:32Z</time></trkpt><trkpt lat="43.34276644514084" lon="12.728251957935798"><ele>489.0</ele><time>2026-04-27T11:57:33Z</time></trkpt><trkpt lat="43.34291791654286" lon="12.728143431824625"><ele>490.33333333333337</ele><time>2026-04-27T11:57:34Z</time></trkpt><trkpt lat="43.34307024075847" lon="12.728034295248413"><ele>491.6666666666667</ele><time>2026-04-27T11:57:35Z</time></trkpt><trkpt lat="43.343224733092" lon="12.727923615845087"><ele>493.0</ele><time>2026-04-27T11:57:36Z</time></trkpt><trkpt lat="43.3433800949286" lon="12.727812313477756"><ele>490.6666666666667</ele><time>2026-04-27T11:57:37Z</time></trkpt><trkpt lat="43.34353493231464" lon="12.727701056844417"><ele>488.33333333333337</ele><time>2026-04-27T11:57:38Z</time></trkpt><trkpt lat="43.34369017027313" lon="12.727588916638428"><ele>486.0</ele><time>2026-04-27T11:57:39Z</time></trkpt><trkpt lat="43.343842677832505" lon="12.72747874882147"><ele>486.66666666666663</ele><time>2026-04-27T11:57:40Z</time></trkpt><trkpt lat="43.34399176310108" lon="12.727371053190046"><ele>487.3333333333333</ele><time>2026-04-27T11:57:41Z</time></trkpt><trkpt lat="43.34414096330397" lon="12.727263173529975"><ele>488.0</ele><time>2026-04-27T11:57:42Z</time></trkpt><trkpt lat="43.34429110035528" lon="12.7271545373649"><ele>488.0</ele><time>2026-04-27T11:57:43Z</time></trkpt><trkpt lat="43.344437486896254" lon="12.727048070740825"><ele>488.0</ele><time>2026-04-27T11:57:44Z</time></trkpt><trkpt lat="43.34458123060528" lon="12.726942862079662"><ele>488.0</ele><time>2026-04-27T11:57:45Z</time></trkpt><trkpt lat="43.34472273345799" lon="12.726839293575264"><ele>488.3333333333333</ele><time>2026-04-27T11:57:46Z</time></trkpt><trkpt lat="43.344862141921006" lon="12.726737257982407"><ele>488.66666666666663</ele><time>2026-04-27T11:57:47Z</time></trkpt><trkpt lat="43.3449971760963" lon="12.726613821726438"><ele>489.0</ele><time>2026-04-27T11:57:48Z</time></trkpt><trkpt lat="43.3451404268772" lon="12.726508316912025"><ele>489.0</ele><time>2026-04-27T11:57:49Z</time></trkpt><trkpt lat="43.34529391225192" lon="12.726418654505945"><ele>489.0</ele><time>2026-04-27T11:57:50Z</time></trkpt><trkpt lat="43.34544468681869" lon="12.726306936435014"><ele>489.0</ele><time>2026-04-27T11:57:51Z</time></trkpt><trkpt lat="43.34559809965887" lon="12.726193263499113"><ele>489.0</ele><time>2026-04-27T11:57:52Z</time></trkpt><trkpt lat="43.345752551578514" lon="12.726078324329245"><ele>489.0</ele><time>2026-04-27T11:57:53Z</time></trkpt><trkpt lat="43.34590676500153" lon="12.72596333141186"><ele>489.0</ele><time>2026-04-27T11:57:54Z</time></trkpt><trkpt lat="43.3460566257628" lon="12.725851355492956"><ele>489.0</ele><time>2026-04-27T11:57:54.999Z</time></trkpt><trkpt lat="43.346200843759625" lon="12.725742635357559"><ele>489.0</ele><time>2026-04-27T11:57:55.999Z</time></trkpt><trkpt lat="43.34634140835025" lon="12.725636669400235"><ele>489.0</ele><time>2026-04-27T11:57:56.999Z</time></trkpt><trkpt lat="43.34648203458184" lon="12.725530865920325"><ele>489.0</ele><time>2026-04-27T11:57:57.999Z</time></trkpt><trkpt lat="43.34662313046813" lon="12.725424767385665"><ele>489.0</ele><time>2026-04-27T11:57:58.999Z</time></trkpt><trkpt lat="43.34676311633872" lon="12.725318984934534"><ele>489.0</ele><time>2026-04-27T11:57:59.999Z</time></trkpt><trkpt lat="43.346903394986704" lon="12.725211945182917"><ele>489.0</ele><time>2026-04-27T11:58:00.999Z</time></trkpt><trkpt lat="43.34704270422685" lon="12.72510570640813"><ele>489.0</ele><time>2026-04-27T11:58:01.999Z</time></trkpt><trkpt lat="43.347184062521826" lon="12.724999173272964"><ele>489.0</ele><time>2026-04-27T11:58:02.999Z</time></trkpt><trkpt lat="43.347324861758345" lon="12.724893061465307"><ele>491.33333333333337</ele><time>2026-04-27T11:58:03.999Z</time></trkpt><trkpt lat="43.34746630812885" lon="12.72478646194963"><ele>493.6666666666667</ele><time>2026-04-27T11:58:04.999Z</time></trkpt><trkpt lat="43.34760769240389" lon="12.724679909234524"><ele>496.0</ele><time>2026-04-27T11:58:05.999Z</time></trkpt><trkpt lat="43.347746690515926" lon="12.724575800575685"><ele>496.0</ele><time>2026-04-27T11:58:06.999Z</time></trkpt><trkpt lat="43.347880485884076" lon="12.724476458780467"><ele>496.0</ele><time>2026-04-27T11:58:07.999Z</time></trkpt><trkpt lat="43.348004390582666" lon="12.724360985877949"><ele>496.0</ele><time>2026-04-27T11:58:08.999Z</time></trkpt><trkpt lat="43.34813386920409" lon="12.7242644933371"><ele>496.0</ele><time>2026-04-27T11:58:09.999Z</time></trkpt><trkpt lat="43.34827063033535" lon="12.724189799906734"><ele>497.25</ele><time>2026-04-27T11:58:10.999Z</time></trkpt><trkpt lat="43.34839043193546" lon="12.724101775612738"><ele>498.5</ele><time>2026-04-27T11:58:11.999Z</time></trkpt><trkpt lat="43.34851066961925" lon="12.724012763397665"><ele>499.75</ele><time>2026-04-27T11:58:12.999Z</time></trkpt><trkpt lat="43.348628380040765" lon="12.723924622911042"><ele>501.0</ele><time>2026-04-27T11:58:13.999Z</time></trkpt><trkpt lat="43.34874463585891" lon="12.72383757166111"><ele>501.0</ele><time>2026-04-27T11:58:14.999Z</time></trkpt><trkpt lat="43.34885406746664" lon="12.723755630235525"><ele>501.0</ele><time>2026-04-27T11:58:15.999Z</time></trkpt><trkpt lat="43.34895618280864" lon="12.723679168961354"><ele>501.0</ele><time>2026-04-27T11:58:16.999Z</time></trkpt><trkpt lat="43.34906137642471" lon="12.723600400953298"><ele>501.0</ele><time>2026-04-27T11:58:17.999Z</time></trkpt><trkpt lat="43.3491716129341" lon="12.723521680658203"><ele>500.75</ele><time>2026-04-27T11:58:18.999Z</time></trkpt><trkpt lat="43.349286130656736" lon="12.723437615661393"><ele>500.5</ele><time>2026-04-27T11:58:19.999Z</time></trkpt><trkpt lat="43.349407636605676" lon="12.723354643358478"><ele>500.25</ele><time>2026-04-27T11:58:20.999Z</time></trkpt><trkpt lat="43.349534407216964" lon="12.723273540165657"><ele>500.0</ele><time>2026-04-27T11:58:21.999Z</time></trkpt><trkpt lat="43.349667543984175" lon="12.723200276929811"><ele>500.25</ele><time>2026-04-27T11:58:22.999Z</time></trkpt><trkpt lat="43.349805765824456" lon="12.723137484722447"><ele>500.5</ele><time>2026-04-27T11:58:23.999Z</time></trkpt><trkpt lat="43.349946337175595" lon="12.723083864849528"><ele>500.75</ele><time>2026-04-27T11:58:24.999Z</time></trkpt><trkpt lat="43.35008316536266" lon="12.723035073822848"><ele>501.0</ele><time>2026-04-27T11:58:25.999Z</time></trkpt><trkpt lat="43.35021494926841" lon="12.72298743199696"><ele>501.0</ele><time>2026-04-27T11:58:26.999Z</time></trkpt><trkpt lat="43.350342179717835" lon="12.722941503776031"><ele>501.0</ele><time>2026-04-27T11:58:27.999Z</time></trkpt><trkpt lat="43.350466995743155" lon="12.722895116668123"><ele>501.0</ele><time>2026-04-27T11:58:28.999Z</time></trkpt><trkpt lat="43.35058602964493" lon="12.722844613524112"><ele>501.0</ele><time>2026-04-27T11:58:29.999Z</time></trkpt><trkpt lat="43.350694823306675" lon="12.722772495770927"><ele>501.25</ele><time>2026-04-27T11:58:30.999Z</time></trkpt><trkpt lat="43.3507883598238" lon="12.722662859753527"><ele>501.5</ele><time>2026-04-27T11:58:31.999Z</time></trkpt><trkpt lat="43.35086802596255" lon="12.722522715917172"><ele>501.75</ele><time>2026-04-27T11:58:32.999Z</time></trkpt><trkpt lat="43.35093568790609" lon="12.722361822914728"><ele>502.0</ele><time>2026-04-27T11:58:33.999Z</time></trkpt><trkpt lat="43.35100488853395" lon="12.722183981397942"><ele>502.0</ele><time>2026-04-27T11:58:34.999Z</time></trkpt><trkpt lat="43.35107988075234" lon="12.722005865251761"><ele>502.0</ele><time>2026-04-27T11:58:35.999Z</time></trkpt><trkpt lat="43.351160817688445" lon="12.721834862280279"><ele>502.0</ele><time>2026-04-27T11:58:36.999Z</time></trkpt><trkpt lat="43.351253160148154" lon="12.721674148976561"><ele>502.0</ele><time>2026-04-27T11:58:37.999Z</time></trkpt><trkpt lat="43.35136230242423" lon="12.721532222546129"><ele>504.75</ele><time>2026-04-27T11:58:38.999Z</time></trkpt><trkpt lat="43.351485759321214" lon="12.721417836911222"><ele>507.5</ele><time>2026-04-27T11:58:39.999Z</time></trkpt><trkpt lat="43.351618240414226" lon="12.721321675725894"><ele>510.25</ele><time>2026-04-27T11:58:40.999Z</time></trkpt><trkpt lat="43.35175139624053" lon="12.721226350859578"><ele>513.0</ele><time>2026-04-27T11:58:41.999Z</time></trkpt><trkpt lat="43.35188410056786" lon="12.721119412116945"><ele>512.6666666666666</ele><time>2026-04-27T11:58:42.999Z</time></trkpt><trkpt lat="43.352023088201946" lon="12.72100493504602"><ele>512.3333333333333</ele><time>2026-04-27T11:58:43.999Z</time></trkpt><trkpt lat="43.35216834358654" lon="12.720887070668939"><ele>512.0</ele><time>2026-04-27T11:58:44.999Z</time></trkpt><trkpt lat="43.352314803330394" lon="12.720766621222763"><ele>512.0</ele><time>2026-04-27T11:58:45.999Z</time></trkpt><trkpt lat="43.352459335560894" lon="12.720645592555664"><ele>512.0</ele><time>2026-04-27T11:58:46.999Z</time></trkpt><trkpt lat="43.352603423393724" lon="12.720523697604825"><ele>512.0</ele><time>2026-04-27T11:58:47.999Z</time></trkpt><trkpt lat="43.3527416149184" lon="12.72040617128271"><ele>512.0</ele><time>2026-04-27T11:58:48.999Z</time></trkpt><trkpt lat="43.35287524373101" lon="12.720293061346586"><ele>512.0</ele><time>2026-04-27T11:58:49.999Z</time></trkpt><trkpt lat="43.353004500960026" lon="12.720181211137422"><ele>512.0</ele><time>2026-04-27T11:58:50.999Z</time></trkpt><trkpt lat="43.35312969483129" lon="12.720072773243245"><ele>512.25</ele><time>2026-04-27T11:58:51.999Z</time></trkpt><trkpt lat="43.35325338336087" lon="12.719964858456123"><ele>512.5</ele><time>2026-04-27T11:58:52.999Z</time></trkpt><trkpt lat="43.35337694855298" lon="12.719853496477818"><ele>512.75</ele><time>2026-04-27T11:58:53.999Z</time></trkpt><trkpt lat="43.353498933820156" lon="12.719741257601648"><ele>513.0</ele><time>2026-04-27T11:58:54.999Z</time></trkpt><trkpt lat="43.35361908662531" lon="12.719628662658659"><ele>513.0</ele><time>2026-04-27T11:58:55.999Z</time></trkpt><trkpt lat="43.35373948207916" lon="12.71951679241704"><ele>513.0</ele><time>2026-04-27T11:58:56.999Z</time></trkpt><trkpt lat="43.35385879749448" lon="12.719413044585792"><ele>513.0</ele><time>2026-04-27T11:58:57.999Z</time></trkpt><trkpt lat="43.3539757624362" lon="12.719316428082701"><ele>513.0</ele><time>2026-04-27T11:58:58.999Z</time></trkpt><trkpt lat="43.35409337344055" lon="12.719221074812678"><ele>514.75</ele><time>2026-04-27T11:58:59.999Z</time></trkpt><trkpt lat="43.35421220228793" lon="12.71912492912031"><ele>516.5</ele><time>2026-04-27T11:59:00.999Z</time></trkpt><trkpt lat="43.35432945855542" lon="12.7190225472129"><ele>518.25</ele><time>2026-04-27T11:59:01.999Z</time></trkpt><trkpt lat="43.35444772812892" lon="12.718914012831053"><ele>520.0</ele><time>2026-04-27T11:59:02.999Z</time></trkpt><trkpt lat="43.35456928254791" lon="12.718800607417505"><ele>520.0</ele><time>2026-04-27T11:59:03.999Z</time></trkpt><trkpt lat="43.35469770979078" lon="12.718688308629604"><ele>520.0</ele><time>2026-04-27T11:59:04.999Z</time></trkpt><trkpt lat="43.354831177970105" lon="12.718579408460837"><ele>520.0</ele><time>2026-04-27T11:59:05.999Z</time></trkpt><trkpt lat="43.35496752564498" lon="12.718475002043933"><ele>519.6666666666667</ele><time>2026-04-27T11:59:06.999Z</time></trkpt><trkpt lat="43.35510953492162" lon="12.718379358050129"><ele>519.3333333333334</ele><time>2026-04-27T11:59:07.999Z</time></trkpt><trkpt lat="43.355252904735536" lon="12.71828550941426"><ele>519.0</ele><time>2026-04-27T11:59:08.999Z</time></trkpt><trkpt lat="43.355395353837444" lon="12.718187331688107"><ele>519.0</ele><time>2026-04-27T11:59:09.999Z</time></trkpt><trkpt lat="43.35553566906684" lon="12.71808302353037"><ele>519.0</ele><time>2026-04-27T11:59:10.999Z</time></trkpt><trkpt lat="43.355672512128024" lon="12.717972430200883"><ele>519.0</ele><time>2026-04-27T11:59:11.999Z</time></trkpt><trkpt lat="43.355808039604085" lon="12.7178654655752"><ele>520.0</ele><time>2026-04-27T11:59:12.999Z</time></trkpt><trkpt lat="43.35594353246576" lon="12.717757151061203"><ele>521.0</ele><time>2026-04-27T11:59:14Z</time></trkpt><trkpt lat="43.356076190618246" lon="12.717652463947433"><ele>522.0</ele><time>2026-04-27T11:59:15Z</time></trkpt><trkpt lat="43.35620996672935" lon="12.717545605526059"><ele>522.0</ele><time>2026-04-27T11:59:16Z</time></trkpt><trkpt lat="43.35634171732534" lon="12.717438545643112"><ele>522.0</ele><time>2026-04-27T11:59:17Z</time></trkpt><trkpt lat="43.35647445338072" lon="12.717331687780703"><ele>522.0</ele><time>2026-04-27T11:59:18Z</time></trkpt><trkpt lat="43.35660647426465" lon="12.71722408653643"><ele>521.25</ele><time>2026-04-27T11:59:19Z</time></trkpt><trkpt lat="43.356736201924235" lon="12.717115599704393"><ele>520.5</ele><time>2026-04-27T11:59:20Z</time></trkpt><trkpt lat="43.35686278714983" lon="12.717007616794305"><ele>519.75</ele><time>2026-04-27T11:59:21Z</time></trkpt><trkpt lat="43.35698763352684" lon="12.716899259996707"><ele>519.0</ele><time>2026-04-27T11:59:22Z</time></trkpt><trkpt lat="43.357114874264425" lon="12.71679524971761"><ele>521.6666666666666</ele><time>2026-04-27T11:59:23Z</time></trkpt><trkpt lat="43.357248721905854" lon="12.716703024888456"><ele>524.3333333333333</ele><time>2026-04-27T11:59:24Z</time></trkpt><trkpt lat="43.35738766532221" lon="12.716627824628286"><ele>527.0</ele><time>2026-04-27T11:59:25Z</time></trkpt><trkpt lat="43.35752888926981" lon="12.716545646079801"><ele>527.0</ele><time>2026-04-27T11:59:26Z</time></trkpt><trkpt lat="43.35766831411438" lon="12.71645679881696"><ele>527.0</ele><time>2026-04-27T11:59:27Z</time></trkpt><trkpt lat="43.35780613815692" lon="12.716363019835942"><ele>527.0</ele><time>2026-04-27T11:59:28Z</time></trkpt><trkpt lat="43.35793999870759" lon="12.716263383906822"><ele>526.3333333333333</ele><time>2026-04-27T11:59:29Z</time></trkpt><trkpt lat="43.35807227614338" lon="12.716160413934665"><ele>525.6666666666666</ele><time>2026-04-27T11:59:30Z</time></trkpt><trkpt lat="43.35820223511542" lon="12.716054970600428"><ele>525.0</ele><time>2026-04-27T11:59:31Z</time></trkpt><trkpt lat="43.358328786518804" lon="12.71594391506139"><ele>525.0</ele><time>2026-04-27T11:59:32Z</time></trkpt><trkpt lat="43.35845234070341" lon="12.71582982173701"><ele>525.0</ele><time>2026-04-27T11:59:33Z</time></trkpt><trkpt lat="43.3585750182922" lon="12.715712686750996"><ele>525.0</ele><time>2026-04-27T11:59:34Z</time></trkpt><trkpt lat="43.3586975207742" lon="12.715594919957583"><ele>525.0</ele><time>2026-04-27T11:59:35Z</time></trkpt><trkpt lat="43.35882016769604" lon="12.715476985234565"><ele>526.6666666666666</ele><time>2026-04-27T11:59:36Z</time></trkpt><trkpt lat="43.358943552584236" lon="12.7153544893346"><ele>528.3333333333333</ele><time>2026-04-27T11:59:37Z</time></trkpt><trkpt lat="43.359069196273694" lon="12.715229868151315"><ele>530.0</ele><time>2026-04-27T11:59:38Z</time></trkpt><trkpt lat="43.35919538678792" lon="12.71510557059297"><ele>530.0</ele><time>2026-04-27T11:59:39Z</time></trkpt><trkpt lat="43.3593179960412" lon="12.714970132124602"><ele>530.0</ele><time>2026-04-27T11:59:40Z</time></trkpt><trkpt lat="43.35943762405513" lon="12.714825790299038"><ele>530.0</ele><time>2026-04-27T11:59:41Z</time></trkpt><trkpt lat="43.359554528543704" lon="12.714677739286083"><ele>530.0</ele><time>2026-04-27T11:59:42Z</time></trkpt><trkpt lat="43.35967116692418" lon="12.714528811653638"><ele>530.0</ele><time>2026-04-27T11:59:43Z</time></trkpt><trkpt lat="43.35978375925605" lon="12.714377691101115"><ele>530.0</ele><time>2026-04-27T11:59:44Z</time></trkpt><trkpt lat="43.35989478242186" lon="12.714220108488806"><ele>531.6666666666666</ele><time>2026-04-27T11:59:45Z</time></trkpt><trkpt lat="43.36000466436991" lon="12.714062302946413"><ele>533.3333333333334</ele><time>2026-04-27T11:59:46Z</time></trkpt><trkpt lat="43.360113464251576" lon="12.713900212797284"><ele>535.0</ele><time>2026-04-27T11:59:47Z</time></trkpt><trkpt lat="43.36022010123255" lon="12.713742753708106"><ele>535.0</ele><time>2026-04-27T11:59:48Z</time></trkpt><trkpt lat="43.360323949304636" lon="12.713587436045884"><ele>535.0</ele><time>2026-04-27T11:59:49Z</time></trkpt><trkpt lat="43.36042505918145" lon="12.713438129321961"><ele>535.0</ele><time>2026-04-27T11:59:50Z</time></trkpt><trkpt lat="43.360521418312544" lon="12.713289354842066"><ele>535.0</ele><time>2026-04-27T11:59:51Z</time></trkpt><trkpt lat="43.360611972927956" lon="12.713131578184706"><ele>537.75</ele><time>2026-04-27T11:59:52Z</time></trkpt><trkpt lat="43.36068930256299" lon="12.7129664975705"><ele>540.5</ele><time>2026-04-27T11:59:52.999Z</time></trkpt><trkpt lat="43.360760435394894" lon="12.712796232381292"><ele>543.25</ele><time>2026-04-27T11:59:53.999Z</time></trkpt><trkpt lat="43.36082462657793" lon="12.712621250227468"><ele>546.0</ele><time>2026-04-27T11:59:54.999Z</time></trkpt><trkpt lat="43.360882464832684" lon="12.712445380581784"><ele>546.25</ele><time>2026-04-27T11:59:55.999Z</time></trkpt><trkpt lat="43.360935607696945" lon="12.71227034159142"><ele>546.5</ele><time>2026-04-27T11:59:56.999Z</time></trkpt><trkpt lat="43.36098586886137" lon="12.712091587288622"><ele>546.75</ele><time>2026-04-27T11:59:57.999Z</time></trkpt><trkpt lat="43.36103180279936" lon="12.711911527342835"><ele>547.0</ele><time>2026-04-27T11:59:58.999Z</time></trkpt><trkpt lat="43.36107300316877" lon="12.711725339237454"><ele>547.0</ele><time>2026-04-27T11:59:59.999Z</time></trkpt><trkpt lat="43.36110764395554" lon="12.711536026923437"><ele>547.0</ele><time>2026-04-27T12:00:00.999Z</time></trkpt><trkpt lat="43.361138552041375" lon="12.711341961940773"><ele>547.0</ele><time>2026-04-27T12:00:01.999Z</time></trkpt><trkpt lat="43.36116823204141" lon="12.711142210315131"><ele>547.0</ele><time>2026-04-27T12:00:02.999Z</time></trkpt><trkpt lat="43.36119725204556" lon="12.710942526443706"><ele>547.0</ele><time>2026-04-27T12:00:03.999Z</time></trkpt><trkpt lat="43.36122725816591" lon="12.710746117109789"><ele>547.0</ele><time>2026-04-27T12:00:04.999Z</time></trkpt><trkpt lat="43.361263758239886" lon="12.710554864516254"><ele>547.0</ele><time>2026-04-27T12:00:05.999Z</time></trkpt><trkpt lat="43.36131050154252" lon="12.710366495604802"><ele>547.0</ele><time>2026-04-27T12:00:06.999Z</time></trkpt><trkpt lat="43.36137110757441" lon="12.710185409087947"><ele>547.0</ele><time>2026-04-27T12:00:07.999Z</time></trkpt><trkpt lat="43.361443790160244" lon="12.710010129216267"><ele>547.0</ele><time>2026-04-27T12:00:08.999Z</time></trkpt><trkpt lat="43.36153076864508" lon="12.709845782805038"><ele>547.0</ele><time>2026-04-27T12:00:09.999Z</time></trkpt><trkpt lat="43.36161857481662" lon="12.70968352137234"><ele>547.0</ele><time>2026-04-27T12:00:10.999Z</time></trkpt><trkpt lat="43.36170466018489" lon="12.709522945394218"><ele>545.75</ele><time>2026-04-27T12:00:11.999Z</time></trkpt><trkpt lat="43.36179725925864" lon="12.709368634399082"><ele>544.5</ele><time>2026-04-27T12:00:12.999Z</time></trkpt><trkpt lat="43.361895502863085" lon="12.709218835908825"><ele>543.25</ele><time>2026-04-27T12:00:13.999Z</time></trkpt><trkpt lat="43.36200111233489" lon="12.709070092284271"><ele>542.0</ele><time>2026-04-27T12:00:14.999Z</time></trkpt><trkpt lat="43.362113971700325" lon="12.708925733861953"><ele>540.6666666666666</ele><time>2026-04-27T12:00:15.999Z</time></trkpt><trkpt lat="43.3622307574407" lon="12.70878035718789"><ele>539.3333333333334</ele><time>2026-04-27T12:00:16.999Z</time></trkpt><trkpt lat="43.36234877844106" lon="12.708633566355983"><ele>538.0</ele><time>2026-04-27T12:00:17.999Z</time></trkpt><trkpt lat="43.36246877787407" lon="12.708486039816634"><ele>538.0</ele><time>2026-04-27T12:00:18.999Z</time></trkpt><trkpt lat="43.36258522411483" lon="12.708339057545851"><ele>538.0</ele><time>2026-04-27T12:00:19.999Z</time></trkpt><trkpt lat="43.362703913466774" lon="12.708193582217849"><ele>538.0</ele><time>2026-04-27T12:00:20.999Z</time></trkpt><trkpt lat="43.36282307500161" lon="12.708045871703131"><ele>538.0</ele><time>2026-04-27T12:00:21.999Z</time></trkpt><trkpt lat="43.362949516461406" lon="12.707890073193138"><ele>538.0</ele><time>2026-04-27T12:00:22.999Z</time></trkpt><trkpt lat="43.36308436508897" lon="12.707719416554434"><ele>538.0</ele><time>2026-04-27T12:00:23.999Z</time></trkpt><trkpt lat="43.36322610895414" lon="12.707535187067563"><ele>538.3333333333334</ele><time>2026-04-27T12:00:24.999Z</time></trkpt><trkpt lat="43.363375618921864" lon="12.707334812002232"><ele>538.6666666666666</ele><time>2026-04-27T12:00:25.999Z</time></trkpt><trkpt lat="43.3635275304347" lon="12.707120549638168"><ele>539.0</ele><time>2026-04-27T12:00:26.999Z</time></trkpt><trkpt lat="43.3636973046405" lon="12.706905702487752"><ele>539.5</ele><time>2026-04-27T12:00:27.999Z</time></trkpt><trkpt lat="43.36386567115298" lon="12.706659720570423"><ele>540.0</ele><time>2026-04-27T12:00:28.999Z</time></trkpt><trkpt lat="43.364040298817486" lon="12.70640480909954"><ele>540.0</ele><time>2026-04-27T12:00:29.999Z</time></trkpt><trkpt lat="43.364218190908" lon="12.706142735102947"><ele>540.0</ele><time>2026-04-27T12:00:30.999Z</time></trkpt><trkpt lat="43.364393436159126" lon="12.705883068220517"><ele>539.0</ele><time>2026-04-27T12:00:31.999Z</time></trkpt><trkpt lat="43.364566766862715" lon="12.70562617382028"><ele>538.0</ele><time>2026-04-27T12:00:32.999Z</time></trkpt><trkpt lat="43.36473536858375" lon="12.705372854602668"><ele>532.5</ele><time>2026-04-27T12:00:33.999Z</time></trkpt><trkpt lat="43.3648850641087" lon="12.705118808585274"><ele>527.0</ele><time>2026-04-27T12:00:34.999Z</time></trkpt><trkpt lat="43.36504118520654" lon="12.704895281780844"><ele>527.0</ele><time>2026-04-27T12:00:35.999Z</time></trkpt><trkpt lat="43.365193353404884" lon="12.704684026472542"><ele>527.0</ele><time>2026-04-27T12:00:36.999Z</time></trkpt><trkpt lat="43.36534181975754" lon="12.704483200444342"><ele>527.0</ele><time>2026-04-27T12:00:37.999Z</time></trkpt><trkpt lat="43.36548633342254" lon="12.704281023150301"><ele>528.3333333333333</ele><time>2026-04-27T12:00:38.999Z</time></trkpt><trkpt lat="43.365625948621094" lon="12.704080689212164"><ele>529.6666666666666</ele><time>2026-04-27T12:00:39.999Z</time></trkpt><trkpt lat="43.36576345027134" lon="12.703880606158217"><ele>531.0</ele><time>2026-04-27T12:00:40.999Z</time></trkpt><trkpt lat="43.36589525039661" lon="12.703680665560892"><ele>530.6666666666666</ele><time>2026-04-27T12:00:41.999Z</time></trkpt><trkpt lat="43.366028931216384" lon="12.703484372666068"><ele>530.3333333333333</ele><time>2026-04-27T12:00:42.999Z</time></trkpt><trkpt lat="43.36617031855881" lon="12.703288576346829"><ele>530.0</ele><time>2026-04-27T12:00:43.999Z</time></trkpt><trkpt lat="43.36631788732698" lon="12.703099420171425"><ele>531.0</ele><time>2026-04-27T12:00:44.999Z</time></trkpt><trkpt lat="43.366471293891436" lon="12.702920935764194"><ele>532.0</ele><time>2026-04-27T12:00:45.999Z</time></trkpt><trkpt lat="43.36662903200604" lon="12.702761442022938"><ele>533.0</ele><time>2026-04-27T12:00:46.999Z</time></trkpt><trkpt lat="43.366799866557216" lon="12.702605047941253"><ele>532.3333333333333</ele><time>2026-04-27T12:00:47.999Z</time></trkpt><trkpt lat="43.366976513274054" lon="12.702441754998684"><ele>531.6666666666666</ele><time>2026-04-27T12:00:48.999Z</time></trkpt><trkpt lat="43.36716018371122" lon="12.702269575642768"><ele>531.0</ele><time>2026-04-27T12:00:49.999Z</time></trkpt><trkpt lat="43.367350223912275" lon="12.702092944825438"><ele>526.0</ele><time>2026-04-27T12:00:50.999Z</time></trkpt><trkpt lat="43.367546117636806" lon="12.701912857916682"><ele>521.0</ele><time>2026-04-27T12:00:51.999Z</time></trkpt><trkpt lat="43.36774543031351" lon="12.701729942253417"><ele>521.0</ele><time>2026-04-27T12:00:52.999Z</time></trkpt><trkpt lat="43.36794336072486" lon="12.70153827953631"><ele>521.0</ele><time>2026-04-27T12:00:53.999Z</time></trkpt><trkpt lat="43.36813409760338" lon="12.701333011061042"><ele>520.0</ele><time>2026-04-27T12:00:54.999Z</time></trkpt><trkpt lat="43.36831613727409" lon="12.70111437998314"><ele>519.0</ele><time>2026-04-27T12:00:55.999Z</time></trkpt><trkpt lat="43.36849179965323" lon="12.70088733385131"><ele>519.0</ele><time>2026-04-27T12:00:56.999Z</time></trkpt><trkpt lat="43.36866632679745" lon="12.700658478177159"><ele>519.0</ele><time>2026-04-27T12:00:57.999Z</time></trkpt><trkpt lat="43.368839634093874" lon="12.700428804227128"><ele>522.0</ele><time>2026-04-27T12:00:58.999Z</time></trkpt><trkpt lat="43.369011452865486" lon="12.700202916117695"><ele>525.0</ele><time>2026-04-27T12:00:59.999Z</time></trkpt><trkpt lat="43.36918435456799" lon="12.69997916434879"><ele>525.0</ele><time>2026-04-27T12:01:00.999Z</time></trkpt><trkpt lat="43.36935428436073" lon="12.69975663080577"><ele>525.0</ele><time>2026-04-27T12:01:01.999Z</time></trkpt><trkpt lat="43.369521369202694" lon="12.69953416079393"><ele>524.5</ele><time>2026-04-27T12:01:02.999Z</time></trkpt><trkpt lat="43.369686315811315" lon="12.699313053791366"><ele>524.0</ele><time>2026-04-27T12:01:03.999Z</time></trkpt><trkpt lat="43.369851491464225" lon="12.699093931885734"><ele>525.3333333333333</ele><time>2026-04-27T12:01:04.999Z</time></trkpt><trkpt lat="43.37001381498613" lon="12.698881981961328"><ele>526.6666666666666</ele><time>2026-04-27T12:01:05.999Z</time></trkpt><trkpt lat="43.370170965139394" lon="12.698673261929692"><ele>528.0</ele><time>2026-04-27T12:01:06.999Z</time></trkpt><trkpt lat="43.37032570028515" lon="12.69846834228826"><ele>528.0</ele><time>2026-04-27T12:01:07.999Z</time></trkpt><trkpt lat="43.37047879318965" lon="12.698267951503306"><ele>528.0</ele><time>2026-04-27T12:01:08.999Z</time></trkpt><trkpt lat="43.37063067573152" lon="12.698070939974855"><ele>528.0</ele><time>2026-04-27T12:01:09.999Z</time></trkpt><trkpt lat="43.37078225686359" lon="12.697874923715448"><ele>531.0</ele><time>2026-04-27T12:01:10.999Z</time></trkpt><trkpt lat="43.37093526833626" lon="12.697683380866199"><ele>534.0</ele><time>2026-04-27T12:01:11.999Z</time></trkpt><trkpt lat="43.371090795714146" lon="12.697501377853223"><ele>537.0</ele><time>2026-04-27T12:01:12.999Z</time></trkpt><trkpt lat="43.371241703806284" lon="12.697347535402058"><ele>540.3333333333334</ele><time>2026-04-27T12:01:13.999Z</time></trkpt><trkpt lat="43.37140604054292" lon="12.697213837145071"><ele>543.6666666666667</ele><time>2026-04-27T12:01:14.999Z</time></trkpt><trkpt lat="43.371588439416136" lon="12.6970761813286"><ele>547.0</ele><time>2026-04-27T12:01:15.999Z</time></trkpt><trkpt lat="43.37177941972984" lon="12.696940092590244"><ele>546.3333333333334</ele><time>2026-04-27T12:01:16.999Z</time></trkpt><trkpt lat="43.37197338433279" lon="12.696807935205571"><ele>545.6666666666666</ele><time>2026-04-27T12:01:17.999Z</time></trkpt><trkpt lat="43.37216849613736" lon="12.696675318726717"><ele>545.0</ele><time>2026-04-27T12:01:18.999Z</time></trkpt><trkpt lat="43.37236387653396" lon="12.696546621901934"><ele>545.0</ele><time>2026-04-27T12:01:20Z</time></trkpt><trkpt lat="43.37256410821399" lon="12.696414116427563"><ele>545.0</ele><time>2026-04-27T12:01:21Z</time></trkpt><trkpt lat="43.37276324387267" lon="12.696274320405651"><ele>545.0</ele><time>2026-04-27T12:01:22Z</time></trkpt><trkpt lat="43.37295794754528" lon="12.696123140695356"><ele>544.6666666666666</ele><time>2026-04-27T12:01:23Z</time></trkpt><trkpt lat="43.37314681000583" lon="12.695962548577718"><ele>544.3333333333334</ele><time>2026-04-27T12:01:24Z</time></trkpt><trkpt lat="43.373325972648686" lon="12.695803557236175"><ele>544.0</ele><time>2026-04-27T12:01:25Z</time></trkpt><trkpt lat="43.373494963681" lon="12.69565327765011"><ele>544.0</ele><time>2026-04-27T12:01:26Z</time></trkpt><trkpt lat="43.373668947493556" lon="12.69552635311045"><ele>544.0</ele><time>2026-04-27T12:01:27Z</time></trkpt><trkpt lat="43.37382827671413" lon="12.69537278239184"><ele>544.0</ele><time>2026-04-27T12:01:28Z</time></trkpt><trkpt lat="43.37400241957605" lon="12.695265335644173"><ele>543.6666666666667</ele><time>2026-04-27T12:01:29Z</time></trkpt><trkpt lat="43.37417796745199" lon="12.695178182162124"><ele>543.3333333333334</ele><time>2026-04-27T12:01:30Z</time></trkpt><trkpt lat="43.37434617245349" lon="12.695098917769329"><ele>543.0</ele><time>2026-04-27T12:01:31Z</time></trkpt><trkpt lat="43.374512329902466" lon="12.695019260119322"><ele>543.0</ele><time>2026-04-27T12:01:32Z</time></trkpt><trkpt lat="43.37467451114879" lon="12.694944075592144"><ele>543.0</ele><time>2026-04-27T12:01:33Z</time></trkpt><trkpt lat="43.37483120970147" lon="12.694869506842805"><ele>543.0</ele><time>2026-04-27T12:01:34Z</time></trkpt><trkpt lat="43.3749840641976" lon="12.694794317160744"><ele>547.3333333333334</ele><time>2026-04-27T12:01:35Z</time></trkpt><trkpt lat="43.37513607452304" lon="12.694720976068266"><ele>551.6666666666667</ele><time>2026-04-27T12:01:36Z</time></trkpt><trkpt lat="43.37528751049084" lon="12.69464887169647"><ele>556.0</ele><time>2026-04-27T12:01:37Z</time></trkpt><trkpt lat="43.375439328067834" lon="12.694581174455138"><ele>555.0</ele><time>2026-04-27T12:01:38Z</time></trkpt><trkpt lat="43.37558864825701" lon="12.694513520445827"><ele>554.0</ele><time>2026-04-27T12:01:39Z</time></trkpt><trkpt lat="43.37572913385948" lon="12.694439360719171"><ele>553.0</ele><time>2026-04-27T12:01:40Z</time></trkpt><trkpt lat="43.375861364785365" lon="12.694351844544437"><ele>553.0</ele><time>2026-04-27T12:01:41Z</time></trkpt><trkpt lat="43.375991619005994" lon="12.69424475601282"><ele>553.0</ele><time>2026-04-27T12:01:42Z</time></trkpt><trkpt lat="43.37611810899555" lon="12.694135346651436"><ele>553.0</ele><time>2026-04-27T12:01:43Z</time></trkpt><trkpt lat="43.376234842479974" lon="12.69403112245479"><ele>553.0</ele><time>2026-04-27T12:01:44Z</time></trkpt><trkpt lat="43.37634559116586" lon="12.693932584647255"><ele>554.0</ele><time>2026-04-27T12:01:44.999Z</time></trkpt><trkpt lat="43.37645574829438" lon="12.693835397310812"><ele>555.0</ele><time>2026-04-27T12:01:45.999Z</time></trkpt><trkpt lat="43.37656112689451" lon="12.69374599804043"><ele>556.0</ele><time>2026-04-27T12:01:46.999Z</time></trkpt><trkpt lat="43.3766605573441" lon="12.693660386527089"><ele>557.0</ele><time>2026-04-27T12:01:47.999Z</time></trkpt><trkpt lat="43.37675482217829" lon="12.69357716461221"><ele>557.0</ele><time>2026-04-27T12:01:48.999Z</time></trkpt><trkpt lat="43.376845844633586" lon="12.693498609264232"><ele>557.0</ele><time>2026-04-27T12:01:49.999Z</time></trkpt><trkpt lat="43.37693212059992" lon="12.693430483126702"><ele>557.0</ele><time>2026-04-27T12:01:50.999Z</time></trkpt><trkpt lat="43.37699868412545" lon="12.693375738442306"><ele>557.0</ele><time>2026-04-27T12:01:51.999Z</time></trkpt><trkpt lat="43.37706869938469" lon="12.693309574980882"><ele>557.0</ele><time>2026-04-27T12:01:53.999Z</time></trkpt><trkpt lat="43.37710063672517" lon="12.693216925279057"><ele>557.0</ele><time>2026-04-27T12:01:56.999Z</time></trkpt><trkpt lat="43.37703887913205" lon="12.69319690994019"><ele>557.0</ele><time>2026-04-27T12:02:00.999Z</time></trkpt><trkpt lat="43.377009179283675" lon="12.693312177428606"><ele>557.0</ele><time>2026-04-27T12:02:07.999Z</time></trkpt><trkpt lat="43.3769138047958" lon="12.6934158887582"><ele>557.0</ele><time>2026-04-27T12:02:09.999Z</time></trkpt><trkpt lat="43.376856135238825" lon="12.69346108287078"><ele>557.0</ele><time>2026-04-27T12:02:10.999Z</time></trkpt><trkpt lat="43.37679021002628" lon="12.693516219233006"><ele>557.0</ele><time>2026-04-27T12:02:11.999Z</time></trkpt><trkpt lat="43.376727703064866" lon="12.693571708443548"><ele>557.0</ele><time>2026-04-27T12:02:12.999Z</time></trkpt><trkpt lat="43.376671803755826" lon="12.693623876716925"><ele>557.8333333333333</ele><time>2026-04-27T12:02:13.999Z</time></trkpt><trkpt lat="43.37658512427682" lon="12.693689675083492"><ele>558.6666666666666</ele><time>2026-04-27T12:02:15.999Z</time></trkpt><trkpt lat="43.37652415841047" lon="12.693774490991403"><ele>559.5</ele><time>2026-04-27T12:02:18.999Z</time></trkpt><trkpt lat="43.37651756078226" lon="12.693863670343536"><ele>560.3333333333334</ele><time>2026-04-27T12:02:21.999Z</time></trkpt><trkpt lat="43.37656972270876" lon="12.693916994673602"><ele>561.1666666666667</ele><time>2026-04-27T12:03:38.999Z</time></trkpt><trkpt lat="43.37651468688659" lon="12.6937739259437"><ele>562.0</ele><time>2026-04-27T12:04:15.818Z</time></trkpt><trkpt lat="43.37657938553619" lon="12.693857993827617"><ele>562.0</ele><time>2026-04-27T12:04:45.026Z</time></trkpt><trkpt lat="43.37652238762994" lon="12.693749574546894"><ele>562.0</ele><time>2026-04-27T12:04:56.999Z</time></trkpt><trkpt lat="43.37645731032123" lon="12.693730653643666"><ele>562.0</ele><time>2026-04-27T12:05:04.999Z</time></trkpt><trkpt lat="43.37649308103801" lon="12.693814920538548"><ele>562.0</ele><time>2026-04-27T12:05:24.999Z</time></trkpt><trkpt lat="43.376469921468036" lon="12.69366728313974"><ele>562.0</ele><time>2026-04-27T12:26:04.68Z</time></trkpt><trkpt lat="43.37648534268193" lon="12.693844614761032"><ele>562.0</ele><time>2026-04-27T12:26:39.022Z</time></trkpt><trkpt lat="43.37654949224372" lon="12.69378785901524"><ele>562.0</ele><time>2026-04-27T12:29:48.999Z</time></trkpt><trkpt lat="43.37660590776482" lon="12.693685865392045"><ele>562.0</ele><time>2026-04-27T12:29:50.999Z</time></trkpt><trkpt lat="43.37665943865179" lon="12.693629927682979"><ele>562.0</ele><time>2026-04-27T12:29:51.999Z</time></trkpt><trkpt lat="43.37672226388809" lon="12.693580132637571"><ele>562.0</ele><time>2026-04-27T12:29:52.999Z</time></trkpt><trkpt lat="43.376794672124106" lon="12.693520919714919"><ele>562.0</ele><time>2026-04-27T12:29:53.999Z</time></trkpt><trkpt lat="43.37687368017136" lon="12.693455657845794"><ele>561.0</ele><time>2026-04-27T12:29:54.999Z</time></trkpt><trkpt lat="43.37695785504494" lon="12.693385058399437"><ele>560.0</ele><time>2026-04-27T12:29:55.999Z</time></trkpt><trkpt lat="43.37705742033868" lon="12.69333888183468"><ele>559.0</ele><time>2026-04-27T12:29:56.999Z</time></trkpt><trkpt lat="43.377140427165465" lon="12.693259950430393"><ele>558.0</ele><time>2026-04-27T12:29:57.999Z</time></trkpt><trkpt lat="43.37722894754727" lon="12.693240658102788"><ele>557.0</ele><time>2026-04-27T12:29:58.999Z</time></trkpt><trkpt lat="43.37730429214868" lon="12.693245676271236"><ele>556.0</ele><time>2026-04-27T12:29:59.999Z</time></trkpt><trkpt lat="43.37737058223145" lon="12.693268650705996"><ele>555.0</ele><time>2026-04-27T12:30:00.999Z</time></trkpt><trkpt lat="43.3774276178304" lon="12.693313625049122"><ele>554.0</ele><time>2026-04-27T12:30:01.999Z</time></trkpt><trkpt lat="43.377490855730805" lon="12.69338702150087"><ele>553.0</ele><time>2026-04-27T12:30:02.999Z</time></trkpt><trkpt lat="43.377553488748745" lon="12.693473835319207"><ele>552.0</ele><time>2026-04-27T12:30:03.999Z</time></trkpt><trkpt lat="43.37761140582794" lon="12.693539756221556"><ele>551.0</ele><time>2026-04-27T12:30:04.999Z</time></trkpt><trkpt lat="43.377670750337295" lon="12.693577507454567"><ele>550.0</ele><time>2026-04-27T12:30:05.999Z</time></trkpt><trkpt lat="43.37773874599742" lon="12.693580810232406"><ele>550.0</ele><time>2026-04-27T12:30:06.999Z</time></trkpt><trkpt lat="43.377810516122665" lon="12.69354308325186"><ele>550.0</ele><time>2026-04-27T12:30:07.999Z</time></trkpt><trkpt lat="43.377869511191925" lon="12.693459376451658"><ele>550.0</ele><time>2026-04-27T12:30:08.999Z</time></trkpt><trkpt lat="43.37791301183286" lon="12.69334130695903"><ele>550.0</ele><time>2026-04-27T12:30:09.999Z</time></trkpt><trkpt lat="43.37794262759492" lon="12.693198436062696"><ele>550.0</ele><time>2026-04-27T12:30:10.999Z</time></trkpt><trkpt lat="43.37796314083519" lon="12.693035207228723"><ele>550.0</ele><time>2026-04-27T12:30:11.999Z</time></trkpt><trkpt lat="43.37796995729905" lon="12.692855785436945"><ele>550.0</ele><time>2026-04-27T12:30:12.999Z</time></trkpt><trkpt lat="43.37796232233138" lon="12.692666492283426"><ele>550.0</ele><time>2026-04-27T12:30:13.999Z</time></trkpt><trkpt lat="43.37794205538025" lon="12.692472049393311"><ele>550.0</ele><time>2026-04-27T12:30:14.999Z</time></trkpt><trkpt lat="43.37791961356373" lon="12.692288835774546"><ele>548.0</ele><time>2026-04-27T12:30:15.999Z</time></trkpt><trkpt lat="43.37789164522634" lon="12.692119260433675"><ele>546.0</ele><time>2026-04-27T12:30:16.999Z</time></trkpt><trkpt lat="43.377850788537835" lon="12.691937664160658"><ele>544.0</ele><time>2026-04-27T12:30:17.999Z</time></trkpt><trkpt lat="43.37780915607485" lon="12.691761321715106"><ele>542.0</ele><time>2026-04-27T12:30:18.999Z</time></trkpt><trkpt lat="43.37777050470737" lon="12.691598355625533"><ele>541.5</ele><time>2026-04-27T12:30:19.999Z</time></trkpt><trkpt lat="43.37773898069141" lon="12.691436299784254"><ele>541.0</ele><time>2026-04-27T12:30:20.999Z</time></trkpt><trkpt lat="43.37772053214457" lon="12.691265290070989"><ele>540.5</ele><time>2026-04-27T12:30:21.999Z</time></trkpt><trkpt lat="43.37771742040801" lon="12.691093216256258"><ele>540.0</ele><time>2026-04-27T12:30:22.999Z</time></trkpt><trkpt lat="43.377731667198084" lon="12.690921771562586"><ele>539.5</ele><time>2026-04-27T12:30:23.999Z</time></trkpt><trkpt lat="43.37776549490525" lon="12.690751880370096"><ele>539.0</ele><time>2026-04-27T12:30:24.999Z</time></trkpt><trkpt lat="43.37781706065813" lon="12.690586056124985"><ele>538.5</ele><time>2026-04-27T12:30:25.999Z</time></trkpt><trkpt lat="43.37788839985839" lon="12.690419699934713"><ele>538.0</ele><time>2026-04-27T12:30:26.999Z</time></trkpt><trkpt lat="43.37798050855007" lon="12.690259838077216"><ele>538.3333333333334</ele><time>2026-04-27T12:30:27.999Z</time></trkpt><trkpt lat="43.37808516971331" lon="12.69010128395822"><ele>538.6666666666666</ele><time>2026-04-27T12:30:28.999Z</time></trkpt><trkpt lat="43.378196128465625" lon="12.68993695595788"><ele>539.0</ele><time>2026-04-27T12:30:29.999Z</time></trkpt><trkpt lat="43.37831229046608" lon="12.689771382450154"><ele>539.0</ele><time>2026-04-27T12:30:30.999Z</time></trkpt><trkpt lat="43.37843557276339" lon="12.689608881276664"><ele>539.0</ele><time>2026-04-27T12:30:31.999Z</time></trkpt><trkpt lat="43.37856222306529" lon="12.689450414079053"><ele>539.0</ele><time>2026-04-27T12:30:32.999Z</time></trkpt><trkpt lat="43.378694388538925" lon="12.689298670125327"><ele>539.0</ele><time>2026-04-27T12:30:33.999Z</time></trkpt><trkpt lat="43.37882834206523" lon="12.689151313174712"><ele>539.0</ele><time>2026-04-27T12:30:34.999Z</time></trkpt><trkpt lat="43.37896086398379" lon="12.689006076236778"><ele>539.0</ele><time>2026-04-27T12:30:35.999Z</time></trkpt><trkpt lat="43.37908807230755" lon="12.688857469029708"><ele>539.0</ele><time>2026-04-27T12:30:36.999Z</time></trkpt><trkpt lat="43.379209966807764" lon="12.688695525674655"><ele>539.0</ele><time>2026-04-27T12:30:37.999Z</time></trkpt><trkpt lat="43.37932289853553" lon="12.68852054683607"><ele>539.0</ele><time>2026-04-27T12:30:38.999Z</time></trkpt><trkpt lat="43.37942293199893" lon="12.68832381684098"><ele>538.3333333333333</ele><time>2026-04-27T12:30:39.999Z</time></trkpt><trkpt lat="43.37951963318927" lon="12.688112058078021"><ele>537.6666666666666</ele><time>2026-04-27T12:30:40.999Z</time></trkpt><trkpt lat="43.37961691814221" lon="12.687891399491651"><ele>537.0</ele><time>2026-04-27T12:30:41.999Z</time></trkpt><trkpt lat="43.37971420450026" lon="12.687661452572188"><ele>537.0</ele><time>2026-04-27T12:30:42.999Z</time></trkpt><trkpt lat="43.37981676704961" lon="12.687425513084518"><ele>537.0</ele><time>2026-04-27T12:30:43.999Z</time></trkpt><trkpt lat="43.379923198997496" lon="12.687182817170179"><ele>537.0</ele><time>2026-04-27T12:30:44.999Z</time></trkpt><trkpt lat="43.38003322906632" lon="12.68693003792094"><ele>536.3333333333334</ele><time>2026-04-27T12:30:45.999Z</time></trkpt><trkpt lat="43.38014873486009" lon="12.686672749301973"><ele>535.6666666666667</ele><time>2026-04-27T12:30:46.999Z</time></trkpt><trkpt lat="43.38026456404161" lon="12.686413750928693"><ele>535.0</ele><time>2026-04-27T12:30:47.999Z</time></trkpt><trkpt lat="43.380382912922435" lon="12.68614830655548"><ele>535.5</ele><time>2026-04-27T12:30:48.999Z</time></trkpt><trkpt lat="43.38050205534441" lon="12.685881978525778"><ele>536.0</ele><time>2026-04-27T12:30:49.999Z</time></trkpt><trkpt lat="43.380621133008376" lon="12.685614122637505"><ele>536.0</ele><time>2026-04-27T12:30:50.999Z</time></trkpt><trkpt lat="43.38074011086682" lon="12.685344464619993"><ele>536.0</ele><time>2026-04-27T12:30:51.999Z</time></trkpt><trkpt lat="43.380858102027574" lon="12.685074553099122"><ele>534.0</ele><time>2026-04-27T12:30:52.999Z</time></trkpt><trkpt lat="43.380977138661876" lon="12.684806505307842"><ele>532.0</ele><time>2026-04-27T12:30:53.999Z</time></trkpt><trkpt lat="43.381094157846846" lon="12.684545312143193"><ele>532.0</ele><time>2026-04-27T12:30:54.999Z</time></trkpt><trkpt lat="43.38120885946359" lon="12.684285155153022"><ele>532.0</ele><time>2026-04-27T12:30:55.999Z</time></trkpt><trkpt lat="43.38132428088602" lon="12.68402859581721"><ele>532.0</ele><time>2026-04-27T12:30:56.999Z</time></trkpt><trkpt lat="43.381437601407825" lon="12.683782900857063"><ele>534.0</ele><time>2026-04-27T12:30:57.999Z</time></trkpt><trkpt lat="43.381548675184035" lon="12.683536320275484"><ele>536.0</ele><time>2026-04-27T12:30:58.999Z</time></trkpt><trkpt lat="43.38165515942959" lon="12.683298242523465"><ele>538.0</ele><time>2026-04-27T12:30:59.999Z</time></trkpt><trkpt lat="43.3817574427244" lon="12.683066213652129"><ele>538.0</ele><time>2026-04-27T12:31:00.999Z</time></trkpt><trkpt lat="43.3818557213675" lon="12.682844579537154"><ele>538.0</ele><time>2026-04-27T12:31:01.999Z</time></trkpt><trkpt lat="43.381948417456904" lon="12.682630621376882"><ele>538.0</ele><time>2026-04-27T12:31:02.999Z</time></trkpt><trkpt lat="43.38203504090384" lon="12.682432173237663"><ele>537.3333333333334</ele><time>2026-04-27T12:31:03.999Z</time></trkpt><trkpt lat="43.38211621954276" lon="12.682248395464287"><ele>536.6666666666666</ele><time>2026-04-27T12:31:04.999Z</time></trkpt><trkpt lat="43.38219197454726" lon="12.682071608097239"><ele>536.0</ele><time>2026-04-27T12:31:05.999Z</time></trkpt><trkpt lat="43.38227612380934" lon="12.681907591958048"><ele>539.25</ele><time>2026-04-27T12:31:06.999Z</time></trkpt><trkpt lat="43.38233271000654" lon="12.681726606250225"><ele>542.5</ele><time>2026-04-27T12:31:07.999Z</time></trkpt><trkpt lat="43.382361279044574" lon="12.681530016277646"><ele>545.75</ele><time>2026-04-27T12:31:09Z</time></trkpt><trkpt lat="43.382397860693594" lon="12.681342597113838"><ele>549.0</ele><time>2026-04-27T12:31:10Z</time></trkpt><trkpt lat="43.38242163172511" lon="12.681159384929645"><ele>549.0</ele><time>2026-04-27T12:31:11Z</time></trkpt><trkpt lat="43.3824316200741" lon="12.680989291408032"><ele>549.0</ele><time>2026-04-27T12:31:12Z</time></trkpt><trkpt lat="43.38241937645564" lon="12.680831296933077"><ele>549.0</ele><time>2026-04-27T12:31:13Z</time></trkpt><trkpt lat="43.382388403586724" lon="12.680665674605097"><ele>549.0</ele><time>2026-04-27T12:31:14Z</time></trkpt><trkpt lat="43.38232478723321" lon="12.680517956166513"><ele>549.0</ele><time>2026-04-27T12:31:15Z</time></trkpt><trkpt lat="43.38225072211401" lon="12.680345354376488"><ele>549.0</ele><time>2026-04-27T12:31:16Z</time></trkpt><trkpt lat="43.38217137000088" lon="12.68016417334089"><ele>549.0</ele><time>2026-04-27T12:31:17Z</time></trkpt><trkpt lat="43.382086791146854" lon="12.679989278891599"><ele>547.0</ele><time>2026-04-27T12:31:18Z</time></trkpt><trkpt lat="43.38201454072405" lon="12.679833175868978"><ele>545.0</ele><time>2026-04-27T12:31:19Z</time></trkpt><trkpt lat="43.381954481858" lon="12.67968997284204"><ele>543.0</ele><time>2026-04-27T12:31:20Z</time></trkpt><trkpt lat="43.381913246413944" lon="12.679554847881876"><ele>541.0</ele><time>2026-04-27T12:31:21Z</time></trkpt><trkpt lat="43.381897888665335" lon="12.679413407971452"><ele>541.0</ele><time>2026-04-27T12:31:22Z</time></trkpt><trkpt lat="43.3819041915963" lon="12.679257630193682"><ele>541.0</ele><time>2026-04-27T12:31:23Z</time></trkpt><trkpt lat="43.38194025259618" lon="12.679093283117227"><ele>541.0</ele><time>2026-04-27T12:31:24Z</time></trkpt><trkpt lat="43.3819966808664" lon="12.67894572096982"><ele>541.0</ele><time>2026-04-27T12:31:25Z</time></trkpt><trkpt lat="43.38207184932336" lon="12.678825051913647"><ele>541.0</ele><time>2026-04-27T12:31:26Z</time></trkpt><trkpt lat="43.38216242301966" lon="12.678749796411212"><ele>541.0</ele><time>2026-04-27T12:31:27Z</time></trkpt><trkpt lat="43.382274421462526" lon="12.678711799523866"><ele>541.0</ele><time>2026-04-27T12:31:28Z</time></trkpt><trkpt lat="43.38240863662934" lon="12.678703319427184"><ele>541.0</ele><time>2026-04-27T12:31:29Z</time></trkpt><trkpt lat="43.3825572300637" lon="12.67870737012141"><ele>544.6666666666667</ele><time>2026-04-27T12:31:30Z</time></trkpt><trkpt lat="43.38272014893717" lon="12.678719380030415"><ele>548.3333333333334</ele><time>2026-04-27T12:31:31Z</time></trkpt><trkpt lat="43.382896987428786" lon="12.678738323234233"><ele>552.0</ele><time>2026-04-27T12:31:32Z</time></trkpt><trkpt lat="43.38307969209652" lon="12.678761477025834"><ele>553.3333333333334</ele><time>2026-04-27T12:31:33Z</time></trkpt><trkpt lat="43.38326407554004" lon="12.678785161122429"><ele>554.6666666666667</ele><time>2026-04-27T12:31:33.999Z</time></trkpt><trkpt lat="43.383445459094744" lon="12.678821547085272"><ele>556.0</ele><time>2026-04-27T12:31:34.999Z</time></trkpt><trkpt lat="43.38362501548792" lon="12.678879516489125"><ele>556.0</ele><time>2026-04-27T12:31:35.999Z</time></trkpt><trkpt lat="43.3838067872021" lon="12.678950279680192"><ele>556.0</ele><time>2026-04-27T12:31:36.999Z</time></trkpt><trkpt lat="43.38398970640009" lon="12.679030731626794"><ele>556.0</ele><time>2026-04-27T12:31:37.999Z</time></trkpt><trkpt lat="43.38417608400143" lon="12.679115498569505"><ele>553.3333333333334</ele><time>2026-04-27T12:31:38.999Z</time></trkpt><trkpt lat="43.38436188093225" lon="12.679198407683892"><ele>550.6666666666666</ele><time>2026-04-27T12:31:39.999Z</time></trkpt><trkpt lat="43.38454040715489" lon="12.679274057932647"><ele>548.0</ele><time>2026-04-27T12:31:40.999Z</time></trkpt><trkpt lat="43.384710773362734" lon="12.679346338586093"><ele>550.0</ele><time>2026-04-27T12:31:41.999Z</time></trkpt><trkpt lat="43.38486962153179" lon="12.679414639315196"><ele>552.0</ele><time>2026-04-27T12:31:42.999Z</time></trkpt><trkpt lat="43.3850191055076" lon="12.67948187104717"><ele>554.0</ele><time>2026-04-27T12:31:43.999Z</time></trkpt><trkpt lat="43.385151303814496" lon="12.67955180256897"><ele>554.0</ele><time>2026-04-27T12:31:44.999Z</time></trkpt><trkpt lat="43.38526912719063" lon="12.679628344339266"><ele>554.0</ele><time>2026-04-27T12:31:45.999Z</time></trkpt><trkpt lat="43.38538267837128" lon="12.679721905657752"><ele>554.0</ele><time>2026-04-27T12:31:46.999Z</time></trkpt><trkpt lat="43.38549505596118" lon="12.679843821459432"><ele>554.0</ele><time>2026-04-27T12:31:47.999Z</time></trkpt><trkpt lat="43.38560929993054" lon="12.679990241384814"><ele>554.3333333333333</ele><time>2026-04-27T12:31:48.999Z</time></trkpt><trkpt lat="43.385726060724735" lon="12.68014178448972"><ele>554.6666666666666</ele><time>2026-04-27T12:31:49.999Z</time></trkpt><trkpt lat="43.38585167849533" lon="12.680295642984095"><ele>555.0</ele><time>2026-04-27T12:31:50.999Z</time></trkpt><trkpt lat="43.385983372623066" lon="12.680455016852747"><ele>555.0</ele><time>2026-04-27T12:31:51.999Z</time></trkpt><trkpt lat="43.38611884529081" lon="12.680621234118474"><ele>555.0</ele><time>2026-04-27T12:31:52.999Z</time></trkpt><trkpt lat="43.3862576798339" lon="12.680793989397955"><ele>555.0</ele><time>2026-04-27T12:31:53.999Z</time></trkpt><trkpt lat="43.38639367617602" lon="12.680980268490298"><ele>552.6666666666666</ele><time>2026-04-27T12:31:54.999Z</time></trkpt><trkpt lat="43.38652934517339" lon="12.681167971923525"><ele>550.3333333333333</ele><time>2026-04-27T12:31:55.999Z</time></trkpt><trkpt lat="43.386660481734445" lon="12.681354995056694"><ele>548.0</ele><time>2026-04-27T12:31:56.999Z</time></trkpt><trkpt lat="43.38678740335152" lon="12.681538200459801"><ele>548.0</ele><time>2026-04-27T12:31:57.999Z</time></trkpt><trkpt lat="43.38690837211734" lon="12.681709821177556"><ele>548.0</ele><time>2026-04-27T12:31:58.999Z</time></trkpt><trkpt lat="43.38702270103221" lon="12.681873200238408"><ele>548.0</ele><time>2026-04-27T12:31:59.999Z</time></trkpt><trkpt lat="43.38712166826061" lon="12.682006548330927"><ele>544.25</ele><time>2026-04-27T12:32:00.999Z</time></trkpt><trkpt lat="43.387223118979826" lon="12.682108674209024"><ele>540.5</ele><time>2026-04-27T12:32:01.999Z</time></trkpt><trkpt lat="43.387344457528236" lon="12.682176221718416"><ele>536.75</ele><time>2026-04-27T12:32:02.999Z</time></trkpt><trkpt lat="43.38749304935275" lon="12.682219419854711"><ele>533.0</ele><time>2026-04-27T12:32:03.999Z</time></trkpt><trkpt lat="43.38765493714104" lon="12.682238627761285"><ele>533.0</ele><time>2026-04-27T12:32:04.999Z</time></trkpt><trkpt lat="43.38783716134526" lon="12.68225234746017"><ele>533.0</ele><time>2026-04-27T12:32:05.999Z</time></trkpt><trkpt lat="43.38803557949601" lon="12.682270673333234"><ele>533.0</ele><time>2026-04-27T12:32:06.999Z</time></trkpt><trkpt lat="43.388248279094896" lon="12.682293854757038"><ele>534.0</ele><time>2026-04-27T12:32:07.999Z</time></trkpt><trkpt lat="43.38846588327805" lon="12.682316943989028"><ele>535.0</ele><time>2026-04-27T12:32:08.999Z</time></trkpt><trkpt lat="43.38866433930378" lon="12.682339547938858"><ele>536.0</ele><time>2026-04-27T12:32:09.999Z</time></trkpt><trkpt lat="43.38885483829748" lon="12.682360482176552"><ele>536.0</ele><time>2026-04-27T12:32:10.999Z</time></trkpt><trkpt lat="43.38903579203986" lon="12.682377915100151"><ele>536.0</ele><time>2026-04-27T12:32:11.999Z</time></trkpt><trkpt lat="43.38921435522535" lon="12.682397901618458"><ele>536.0</ele><time>2026-04-27T12:32:12.999Z</time></trkpt><trkpt lat="43.38938774054475" lon="12.682419959383367"><ele>536.0</ele><time>2026-04-27T12:32:13.999Z</time></trkpt><trkpt lat="43.38955670481775" lon="12.682443226375915"><ele>536.0</ele><time>2026-04-27T12:32:14.999Z</time></trkpt><trkpt lat="43.389720050311254" lon="12.682464736280169"><ele>536.0</ele><time>2026-04-27T12:32:15.999Z</time></trkpt><trkpt lat="43.38988589493417" lon="12.682482758346946"><ele>536.3333333333333</ele><time>2026-04-27T12:32:16.999Z</time></trkpt><trkpt lat="43.39004803188615" lon="12.682499753336964"><ele>536.6666666666666</ele><time>2026-04-27T12:32:17.999Z</time></trkpt><trkpt lat="43.390204922919736" lon="12.68251635129564"><ele>537.0</ele><time>2026-04-27T12:32:18.999Z</time></trkpt><trkpt lat="43.390353440298526" lon="12.682528874965689"><ele>537.0</ele><time>2026-04-27T12:32:19.999Z</time></trkpt><trkpt lat="43.39049821588681" lon="12.68253549628893"><ele>537.0</ele><time>2026-04-27T12:32:20.999Z</time></trkpt><trkpt lat="43.39064132450196" lon="12.682514943073063"><ele>537.0</ele><time>2026-04-27T12:32:21.999Z</time></trkpt><trkpt lat="43.39078185330521" lon="12.682469705013844"><ele>537.0</ele><time>2026-04-27T12:32:22.999Z</time></trkpt><trkpt lat="43.39092431792454" lon="12.682395281515028"><ele>539.3333333333334</ele><time>2026-04-27T12:32:23.999Z</time></trkpt><trkpt lat="43.39107413356814" lon="12.682314486027684"><ele>541.6666666666667</ele><time>2026-04-27T12:32:24.999Z</time></trkpt><trkpt lat="43.39122875318841" lon="12.682235917540497"><ele>544.0</ele><time>2026-04-27T12:32:25.999Z</time></trkpt><trkpt lat="43.391386873895804" lon="12.682157080730622"><ele>543.3333333333334</ele><time>2026-04-27T12:32:26.999Z</time></trkpt><trkpt lat="43.39155049552109" lon="12.682076368141578"><ele>542.6666666666666</ele><time>2026-04-27T12:32:27.999Z</time></trkpt><trkpt lat="43.39171715556895" lon="12.68199343258605"><ele>542.0</ele><time>2026-04-27T12:32:28.999Z</time></trkpt><trkpt lat="43.39188503582262" lon="12.681899160410449"><ele>542.0</ele><time>2026-04-27T12:32:29.999Z</time></trkpt><trkpt lat="43.39205023036989" lon="12.681791478072533"><ele>542.0</ele><time>2026-04-27T12:32:30.999Z</time></trkpt><trkpt lat="43.39221455524813" lon="12.68166814153951"><ele>542.0</ele><time>2026-04-27T12:32:31.999Z</time></trkpt><trkpt lat="43.392377168713836" lon="12.681525876001745"><ele>543.0</ele><time>2026-04-27T12:32:32.999Z</time></trkpt><trkpt lat="43.39254483302284" lon="12.68137759329456"><ele>544.0</ele><time>2026-04-27T12:32:33.999Z</time></trkpt><trkpt lat="43.392715655643784" lon="12.681222137991252"><ele>545.0</ele><time>2026-04-27T12:32:34.999Z</time></trkpt><trkpt lat="43.39288815342803" lon="12.681067727167068"><ele>549.3333333333333</ele><time>2026-04-27T12:32:35.999Z</time></trkpt><trkpt lat="43.393061940056306" lon="12.680909158562583"><ele>553.6666666666666</ele><time>2026-04-27T12:32:36.999Z</time></trkpt><trkpt lat="43.393239095757956" lon="12.680754732741917"><ele>558.0</ele><time>2026-04-27T12:32:37.999Z</time></trkpt><trkpt lat="43.39341790352948" lon="12.680596200769859"><ele>558.0</ele><time>2026-04-27T12:32:38.999Z</time></trkpt><trkpt lat="43.393597015842076" lon="12.68043296319382"><ele>558.0</ele><time>2026-04-27T12:32:39.999Z</time></trkpt><trkpt lat="43.39377547449794" lon="12.68027060271055"><ele>558.0</ele><time>2026-04-27T12:32:40.999Z</time></trkpt><trkpt lat="43.39395211450822" lon="12.680110753418397"><ele>559.6666666666666</ele><time>2026-04-27T12:32:41.999Z</time></trkpt><trkpt lat="43.39412509313094" lon="12.679951704216995"><ele>561.3333333333333</ele><time>2026-04-27T12:32:42.999Z</time></trkpt><trkpt lat="43.39429335026954" lon="12.679801251870835"><ele>563.0</ele><time>2026-04-27T12:32:43.999Z</time></trkpt><trkpt lat="43.394450232095664" lon="12.679660143548086"><ele>563.0</ele><time>2026-04-27T12:32:44.999Z</time></trkpt><trkpt lat="43.394598117965735" lon="12.679526306513699"><ele>563.0</ele><time>2026-04-27T12:32:45.999Z</time></trkpt><trkpt lat="43.394743815727345" lon="12.67939673205923"><ele>563.0</ele><time>2026-04-27T12:32:46.999Z</time></trkpt><trkpt lat="43.39489021768055" lon="12.679268771002004"><ele>563.6666666666666</ele><time>2026-04-27T12:32:47.999Z</time></trkpt><trkpt lat="43.39503624093884" lon="12.679135891753534"><ele>564.3333333333334</ele><time>2026-04-27T12:32:48.999Z</time></trkpt><trkpt lat="43.39518425410272" lon="12.678998843085882"><ele>565.0</ele><time>2026-04-27T12:32:49.999Z</time></trkpt><trkpt lat="43.39533093373491" lon="12.678858501122024"><ele>565.0</ele><time>2026-04-27T12:32:50.999Z</time></trkpt><trkpt lat="43.39547845464274" lon="12.678708435002443"><ele>565.0</ele><time>2026-04-27T12:32:51.999Z</time></trkpt><trkpt lat="43.39562134406439" lon="12.678552826111375"><ele>565.0</ele><time>2026-04-27T12:32:52.999Z</time></trkpt><trkpt lat="43.39575714462415" lon="12.678389851889927"><ele>565.6666666666667</ele><time>2026-04-27T12:32:53.999Z</time></trkpt><trkpt lat="43.39588263098061" lon="12.678217902158112"><ele>566.3333333333334</ele><time>2026-04-27T12:32:54.999Z</time></trkpt><trkpt lat="43.3959959643822" lon="12.67803690736836"><ele>567.0</ele><time>2026-04-27T12:32:55.999Z</time></trkpt><trkpt lat="43.39609729060199" lon="12.677853349620655"><ele>565.0</ele><time>2026-04-27T12:32:56.999Z</time></trkpt><trkpt lat="43.396185273688126" lon="12.677662395204498"><ele>563.0</ele><time>2026-04-27T12:32:57.999Z</time></trkpt><trkpt lat="43.39626335581033" lon="12.677455937713816"><ele>561.0</ele><time>2026-04-27T12:32:58.999Z</time></trkpt><trkpt lat="43.3963358288681" lon="12.677236123164185"><ele>563.6666666666666</ele><time>2026-04-27T12:32:59.999Z</time></trkpt><trkpt lat="43.39641566721665" lon="12.677019385545968"><ele>566.3333333333333</ele><time>2026-04-27T12:33:00.999Z</time></trkpt><trkpt lat="43.39650563235646" lon="12.676804692620872"><ele>569.0</ele><time>2026-04-27T12:33:01.999Z</time></trkpt><trkpt lat="43.39660466308233" lon="12.676592086117104"><ele>569.0</ele><time>2026-04-27T12:33:03Z</time></trkpt><trkpt lat="43.39671459122444" lon="12.676384500040346"><ele>569.0</ele><time>2026-04-27T12:33:04Z</time></trkpt><trkpt lat="43.39683553353061" lon="12.676182344268026"><ele>569.0</ele><time>2026-04-27T12:33:05Z</time></trkpt><trkpt lat="43.39696024388059" lon="12.675981355531528"><ele>566.6666666666666</ele><time>2026-04-27T12:33:06Z</time></trkpt><trkpt lat="43.39708472345192" lon="12.675782654786232"><ele>564.3333333333334</ele><time>2026-04-27T12:33:07Z</time></trkpt><trkpt lat="43.3972098739762" lon="12.675585087100124"><ele>562.0</ele><time>2026-04-27T12:33:08Z</time></trkpt><trkpt lat="43.39733760280098" lon="12.67539361106513"><ele>565.3333333333334</ele><time>2026-04-27T12:33:09Z</time></trkpt><trkpt lat="43.39747264077265" lon="12.675216824340215"><ele>568.6666666666666</ele><time>2026-04-27T12:33:10Z</time></trkpt><trkpt lat="43.397611326966285" lon="12.675052070784394"><ele>572.0</ele><time>2026-04-27T12:33:11Z</time></trkpt><trkpt lat="43.39774824996997" lon="12.67488273047475"><ele>572.0</ele><time>2026-04-27T12:33:12Z</time></trkpt><trkpt lat="43.39788354868001" lon="12.674706999332386"><ele>572.0</ele><time>2026-04-27T12:33:13Z</time></trkpt><trkpt lat="43.398022125155215" lon="12.67452853150388"><ele>572.0</ele><time>2026-04-27T12:33:14Z</time></trkpt><trkpt lat="43.39815865218972" lon="12.674349377379299"><ele>573.6666666666666</ele><time>2026-04-27T12:33:15Z</time></trkpt><trkpt lat="43.398290644567076" lon="12.674183580981207"><ele>575.3333333333334</ele><time>2026-04-27T12:33:16Z</time></trkpt><trkpt lat="43.398418527870184" lon="12.674032837481931"><ele>577.0</ele><time>2026-04-27T12:33:17Z</time></trkpt><trkpt lat="43.398537115934275" lon="12.673892341780736"><ele>577.0</ele><time>2026-04-27T12:33:18Z</time></trkpt><trkpt lat="43.39864464825314" lon="12.673760967714976"><ele>577.0</ele><time>2026-04-27T12:33:19Z</time></trkpt><trkpt lat="43.39873558861156" lon="12.673629513743256"><ele>577.0</ele><time>2026-04-27T12:33:20Z</time></trkpt><trkpt lat="43.39880229580872" lon="12.673486373475875"><ele>577.0</ele><time>2026-04-27T12:33:21Z</time></trkpt><trkpt lat="43.39886236104723" lon="12.673308618854943"><ele>578.6666666666667</ele><time>2026-04-27T12:33:22Z</time></trkpt><trkpt lat="43.39892017046518" lon="12.673110775653706"><ele>580.3333333333334</ele><time>2026-04-27T12:33:23Z</time></trkpt><trkpt lat="43.39897909730878" lon="12.6729008680383"><ele>582.0</ele><time>2026-04-27T12:33:24Z</time></trkpt><trkpt lat="43.399042043974454" lon="12.672679332125146"><ele>582.0</ele><time>2026-04-27T12:33:25Z</time></trkpt><trkpt lat="43.39910483379455" lon="12.672448156315467"><ele>582.0</ele><time>2026-04-27T12:33:26Z</time></trkpt><trkpt lat="43.39914924222328" lon="12.67221246865413"><ele>582.0</ele><time>2026-04-27T12:33:27Z</time></trkpt><trkpt lat="43.39917259086723" lon="12.671975863226686"><ele>584.0</ele><time>2026-04-27T12:33:28Z</time></trkpt><trkpt lat="43.39917803935375" lon="12.671741421897648"><ele>586.0</ele><time>2026-04-27T12:33:29Z</time></trkpt><trkpt lat="43.39917744342073" lon="12.671516500313526"><ele>588.0</ele><time>2026-04-27T12:33:30Z</time></trkpt><trkpt lat="43.39918189887873" lon="12.671303760379075"><ele>588.75</ele><time>2026-04-27T12:33:31Z</time></trkpt><trkpt lat="43.39919760582381" lon="12.671101707484203"><ele>589.5</ele><time>2026-04-27T12:33:32Z</time></trkpt><trkpt lat="43.39923768410188" lon="12.670913032194864"><ele>590.25</ele><time>2026-04-27T12:33:33Z</time></trkpt><trkpt lat="43.399298902023524" lon="12.670723703477183"><ele>591.0</ele><time>2026-04-27T12:33:34Z</time></trkpt><trkpt lat="43.399371389562134" lon="12.670558088548013"><ele>591.0</ele><time>2026-04-27T12:33:35Z</time></trkpt><trkpt lat="43.39946617176396" lon="12.67041794672651"><ele>591.0</ele><time>2026-04-27T12:33:36Z</time></trkpt><trkpt lat="43.39958320421682" lon="12.670293607460744"><ele>591.0</ele><time>2026-04-27T12:33:37Z</time></trkpt><trkpt lat="43.399718758266786" lon="12.670193907977035"><ele>591.0</ele><time>2026-04-27T12:33:38Z</time></trkpt><trkpt lat="43.39986027787465" lon="12.6701259262503"><ele>589.75</ele><time>2026-04-27T12:33:39Z</time></trkpt><trkpt lat="43.39999966573784" lon="12.670092625424873"><ele>588.5</ele><time>2026-04-27T12:33:40Z</time></trkpt><trkpt lat="43.40013746118044" lon="12.670078172293554"><ele>587.25</ele><time>2026-04-27T12:33:41Z</time></trkpt><trkpt lat="43.40027836450375" lon="12.670067090287173"><ele>586.0</ele><time>2026-04-27T12:33:42Z</time></trkpt><trkpt lat="43.40042066595631" lon="12.670051781807192"><ele>586.25</ele><time>2026-04-27T12:33:43Z</time></trkpt><trkpt lat="43.400561816211166" lon="12.670032368158022"><ele>586.5</ele><time>2026-04-27T12:33:44Z</time></trkpt><trkpt lat="43.40070151924008" lon="12.670014669424999"><ele>586.75</ele><time>2026-04-27T12:33:45Z</time></trkpt><trkpt lat="43.400839982792334" lon="12.67000015750332"><ele>587.0</ele><time>2026-04-27T12:33:45.999Z</time></trkpt><trkpt lat="43.40097596877732" lon="12.669985371373743"><ele>587.0</ele><time>2026-04-27T12:33:46.999Z</time></trkpt><trkpt lat="43.40111122576644" lon="12.669968690661486"><ele>587.0</ele><time>2026-04-27T12:33:47.999Z</time></trkpt><trkpt lat="43.401244808052375" lon="12.669951507622693"><ele>587.0</ele><time>2026-04-27T12:33:48.999Z</time></trkpt><trkpt lat="43.40137551221233" lon="12.669936830840948"><ele>587.0</ele><time>2026-04-27T12:33:49.999Z</time></trkpt><trkpt lat="43.40150668139227" lon="12.669918998884183"><ele>585.5</ele><time>2026-04-27T12:33:50.999Z</time></trkpt><trkpt lat="43.401636508638354" lon="12.669891963510173"><ele>584.0</ele><time>2026-04-27T12:33:51.999Z</time></trkpt><trkpt lat="43.401763004345725" lon="12.66984310488322"><ele>582.5</ele><time>2026-04-27T12:33:52.999Z</time></trkpt><trkpt lat="43.4018828318972" lon="12.66977064242591"><ele>581.0</ele><time>2026-04-27T12:33:53.999Z</time></trkpt><trkpt lat="43.401990326956366" lon="12.669669445116584"><ele>581.0</ele><time>2026-04-27T12:33:54.999Z</time></trkpt><trkpt lat="43.40208270406841" lon="12.669547392813561"><ele>581.0</ele><time>2026-04-27T12:33:55.999Z</time></trkpt><trkpt lat="43.4021635353943" lon="12.669411192383063"><ele>581.0</ele><time>2026-04-27T12:33:56.999Z</time></trkpt><trkpt lat="43.402235930817355" lon="12.669271230133589"><ele>581.0</ele><time>2026-04-27T12:33:57.999Z</time></trkpt><trkpt lat="43.40230805720354" lon="12.669131772662698"><ele>580.25</ele><time>2026-04-27T12:33:58.999Z</time></trkpt><trkpt lat="43.402382288062746" lon="12.668992913786319"><ele>579.5</ele><time>2026-04-27T12:33:59.999Z</time></trkpt><trkpt lat="43.402457790124714" lon="12.668853526316227"><ele>578.75</ele><time>2026-04-27T12:34:00.999Z</time></trkpt><trkpt lat="43.40253269333424" lon="12.668719397494701"><ele>578.0</ele><time>2026-04-27T12:34:01.999Z</time></trkpt><trkpt lat="43.40260791738864" lon="12.668586166371146"><ele>577.75</ele><time>2026-04-27T12:34:02.999Z</time></trkpt><trkpt lat="43.402685501049056" lon="12.668447827273551"><ele>577.5</ele><time>2026-04-27T12:34:03.999Z</time></trkpt><trkpt lat="43.402762147003585" lon="12.668306189883863"><ele>577.25</ele><time>2026-04-27T12:34:04.999Z</time></trkpt><trkpt lat="43.4028347993391" lon="12.668161408508247"><ele>577.0</ele><time>2026-04-27T12:34:05.999Z</time></trkpt><trkpt lat="43.402888940213245" lon="12.668005158019952"><ele>577.0</ele><time>2026-04-27T12:34:06.999Z</time></trkpt><trkpt lat="43.40292770094391" lon="12.667846223904128"><ele>577.0</ele><time>2026-04-27T12:34:07.999Z</time></trkpt><trkpt lat="43.40295178668007" lon="12.667680684859354"><ele>577.0</ele><time>2026-04-27T12:34:08.999Z</time></trkpt><trkpt lat="43.402961992378266" lon="12.667511466356352"><ele>577.0</ele><time>2026-04-27T12:34:09.999Z</time></trkpt><trkpt lat="43.402965887288445" lon="12.667335290798976"><ele>578.0</ele><time>2026-04-27T12:34:10.999Z</time></trkpt><trkpt lat="43.40296795115536" lon="12.667155077950278"><ele>579.0</ele><time>2026-04-27T12:34:11.999Z</time></trkpt><trkpt lat="43.40296591660689" lon="12.6669735760757"><ele>580.0</ele><time>2026-04-27T12:34:12.999Z</time></trkpt><trkpt lat="43.40296360486499" lon="12.666792243094005"><ele>581.0</ele><time>2026-04-27T12:34:13.999Z</time></trkpt><trkpt lat="43.40295922106616" lon="12.666608581031607"><ele>581.75</ele><time>2026-04-27T12:34:14.999Z</time></trkpt><trkpt lat="43.402955874667015" lon="12.666422051164815"><ele>582.5</ele><time>2026-04-27T12:34:15.999Z</time></trkpt><trkpt lat="43.402954399952726" lon="12.666235981511884"><ele>583.25</ele><time>2026-04-27T12:34:16.999Z</time></trkpt><trkpt lat="43.40295269575853" lon="12.666054751732608"><ele>584.0</ele><time>2026-04-27T12:34:17.999Z</time></trkpt><trkpt lat="43.40295377113677" lon="12.66588793083483"><ele>584.0</ele><time>2026-04-27T12:34:18.999Z</time></trkpt><trkpt lat="43.40296469528045" lon="12.665725320902737"><ele>584.0</ele><time>2026-04-27T12:34:19.999Z</time></trkpt><trkpt lat="43.402995402999984" lon="12.665564327299284"><ele>584.0</ele><time>2026-04-27T12:34:20.999Z</time></trkpt><trkpt lat="43.403037002747105" lon="12.665400098601296"><ele>584.0</ele><time>2026-04-27T12:34:21.999Z</time></trkpt><trkpt lat="43.40308770954031" lon="12.665237868356556"><ele>588.0</ele><time>2026-04-27T12:34:22.999Z</time></trkpt><trkpt lat="43.403145256037384" lon="12.665076940174234"><ele>592.0</ele><time>2026-04-27T12:34:23.999Z</time></trkpt><trkpt lat="43.40320973611485" lon="12.664921691705853"><ele>596.0</ele><time>2026-04-27T12:34:24.999Z</time></trkpt><trkpt lat="43.4032825565258" lon="12.664784818538632"><ele>600.0</ele><time>2026-04-27T12:34:25.999Z</time></trkpt><trkpt lat="43.40336672142667" lon="12.664667032671554"><ele>600.0</ele><time>2026-04-27T12:34:26.999Z</time></trkpt><trkpt lat="43.40346333180954" lon="12.664569547817745"><ele>600.0</ele><time>2026-04-27T12:34:27.999Z</time></trkpt><trkpt lat="43.403569451902165" lon="12.664490761184195"><ele>600.0</ele><time>2026-04-27T12:34:28.999Z</time></trkpt><trkpt lat="43.40368465052187" lon="12.664431886098537"><ele>600.0</ele><time>2026-04-27T12:34:29.999Z</time></trkpt><trkpt lat="43.40380581366861" lon="12.66438718550226"><ele>600.0</ele><time>2026-04-27T12:34:30.999Z</time></trkpt><trkpt lat="43.40393010682942" lon="12.66434245429175"><ele>600.0</ele><time>2026-04-27T12:34:31.999Z</time></trkpt><trkpt lat="43.40405733472792" lon="12.664295629484254"><ele>600.0</ele><time>2026-04-27T12:34:32.999Z</time></trkpt><trkpt lat="43.4041848369749" lon="12.664241923871831"><ele>600.0</ele><time>2026-04-27T12:34:33.999Z</time></trkpt><trkpt lat="43.40431095204876" lon="12.664174826649118"><ele>600.0</ele><time>2026-04-27T12:34:34.999Z</time></trkpt><trkpt lat="43.40443657215667" lon="12.664087262971096"><ele>600.0</ele><time>2026-04-27T12:34:35.999Z</time></trkpt><trkpt lat="43.40456933541551" lon="12.66398240617154"><ele>600.0</ele><time>2026-04-27T12:34:36.999Z</time></trkpt><trkpt lat="43.404711969258976" lon="12.663867887496073"><ele>600.0</ele><time>2026-04-27T12:34:37.999Z</time></trkpt><trkpt lat="43.40486320681865" lon="12.663747552166779"><ele>600.0</ele><time>2026-04-27T12:34:38.999Z</time></trkpt><trkpt lat="43.40501709536209" lon="12.66361680628809"><ele>600.0</ele><time>2026-04-27T12:34:39.999Z</time></trkpt><trkpt lat="43.40517573967623" lon="12.663485097487026"><ele>600.0</ele><time>2026-04-27T12:34:40.999Z</time></trkpt><trkpt lat="43.405339314845875" lon="12.66335312312683"><ele>600.0</ele><time>2026-04-27T12:34:41.999Z</time></trkpt><trkpt lat="43.40550268250985" lon="12.663216190078964"><ele>600.0</ele><time>2026-04-27T12:34:42.999Z</time></trkpt><trkpt lat="43.40566805622705" lon="12.663078820897102"><ele>601.3333333333334</ele><time>2026-04-27T12:34:43.999Z</time></trkpt><trkpt lat="43.40583536819694" lon="12.662939631084736"><ele>602.6666666666667</ele><time>2026-04-27T12:34:44.999Z</time></trkpt><trkpt lat="43.40600311697895" lon="12.662803931381541"><ele>604.0</ele><time>2026-04-27T12:34:45.999Z</time></trkpt><trkpt lat="43.40616974438921" lon="12.662667643588136"><ele>607.6666666666667</ele><time>2026-04-27T12:34:46.999Z</time></trkpt><trkpt lat="43.4063376524893" lon="12.662533833170732"><ele>611.3333333333334</ele><time>2026-04-27T12:34:47.999Z</time></trkpt><trkpt lat="43.406503152222314" lon="12.662392648796446"><ele>615.0</ele><time>2026-04-27T12:34:48.999Z</time></trkpt><trkpt lat="43.40666744106338" lon="12.662251863251937"><ele>615.0</ele><time>2026-04-27T12:34:49.999Z</time></trkpt><trkpt lat="43.406830918435645" lon="12.662116385896235"><ele>615.0</ele><time>2026-04-27T12:34:50.999Z</time></trkpt><trkpt lat="43.40698082943152" lon="12.66199384036965"><ele>615.0</ele><time>2026-04-27T12:34:51.999Z</time></trkpt><trkpt lat="43.40711633279701" lon="12.661879285502327"><ele>616.0</ele><time>2026-04-27T12:34:52.999Z</time></trkpt><trkpt lat="43.4072453345522" lon="12.66177133731935"><ele>617.0</ele><time>2026-04-27T12:34:53.999Z</time></trkpt><trkpt lat="43.407373202621514" lon="12.661670433589844"><ele>618.0</ele><time>2026-04-27T12:34:54.999Z</time></trkpt><trkpt lat="43.4075065759145" lon="12.661574750532456"><ele>619.0</ele><time>2026-04-27T12:34:55.999Z</time></trkpt><trkpt lat="43.40765055889839" lon="12.661491130064974"><ele>619.0</ele><time>2026-04-27T12:34:56.999Z</time></trkpt><trkpt lat="43.40780303731612" lon="12.661419370380646"><ele>619.0</ele><time>2026-04-27T12:34:57.999Z</time></trkpt><trkpt lat="43.40796880944519" lon="12.661353419753231"><ele>619.0</ele><time>2026-04-27T12:34:58.999Z</time></trkpt><trkpt lat="43.40814621459828" lon="12.66128918773915"><ele>619.0</ele><time>2026-04-27T12:34:59.999Z</time></trkpt><trkpt lat="43.408331989761" lon="12.661219373419629"><ele>619.0</ele><time>2026-04-27T12:35:00.999Z</time></trkpt><trkpt lat="43.408527631451726" lon="12.661147395661489"><ele>619.0</ele><time>2026-04-27T12:35:01.999Z</time></trkpt><trkpt lat="43.40872616209186" lon="12.661074354501475"><ele>622.3333333333334</ele><time>2026-04-27T12:35:02.999Z</time></trkpt><trkpt lat="43.40892868554696" lon="12.660999005600654"><ele>625.6666666666666</ele><time>2026-04-27T12:35:03.999Z</time></trkpt><trkpt lat="43.4091288288199" lon="12.660924342835978"><ele>629.0</ele><time>2026-04-27T12:35:04.999Z</time></trkpt><trkpt lat="43.409326441995994" lon="12.66084938936751"><ele>629.0</ele><time>2026-04-27T12:35:05.999Z</time></trkpt><trkpt lat="43.409511498670504" lon="12.660780211692622"><ele>629.0</ele><time>2026-04-27T12:35:06.999Z</time></trkpt><trkpt lat="43.409684653907426" lon="12.66071598352013"><ele>629.0</ele><time>2026-04-27T12:35:07.999Z</time></trkpt><trkpt lat="43.40984503634164" lon="12.660658499589571"><ele>631.5</ele><time>2026-04-27T12:35:09Z</time></trkpt><trkpt lat="43.409993274129675" lon="12.660608109180721"><ele>634.0</ele><time>2026-04-27T12:35:10Z</time></trkpt><trkpt lat="43.41012823463919" lon="12.660559324719953"><ele>636.5</ele><time>2026-04-27T12:35:11Z</time></trkpt><trkpt lat="43.41024737955644" lon="12.660495228092298"><ele>639.0</ele><time>2026-04-27T12:35:12Z</time></trkpt><trkpt lat="43.410356211847706" lon="12.660402156820659"><ele>638.75</ele><time>2026-04-27T12:35:13Z</time></trkpt><trkpt lat="43.41045109996638" lon="12.660282537417945"><ele>638.5</ele><time>2026-04-27T12:35:14Z</time></trkpt><trkpt lat="43.410534015697436" lon="12.66014915231571"><ele>638.25</ele><time>2026-04-27T12:35:15Z</time></trkpt><trkpt lat="43.41062095026269" lon="12.660009887938287"><ele>638.0</ele><time>2026-04-27T12:35:16Z</time></trkpt><trkpt lat="43.41071146064718" lon="12.659869561563431"><ele>638.0</ele><time>2026-04-27T12:35:17Z</time></trkpt><trkpt lat="43.41080822121397" lon="12.659724125990506"><ele>638.0</ele><time>2026-04-27T12:35:18Z</time></trkpt><trkpt lat="43.410909578996126" lon="12.659570254448406"><ele>638.0</ele><time>2026-04-27T12:35:19Z</time></trkpt><trkpt lat="43.41101568791952" lon="12.659411732782237"><ele>638.75</ele><time>2026-04-27T12:35:20Z</time></trkpt><trkpt lat="43.411118352612" lon="12.65925880570187"><ele>639.5</ele><time>2026-04-27T12:35:21Z</time></trkpt><trkpt lat="43.411216876550384" lon="12.659112226905611"><ele>640.25</ele><time>2026-04-27T12:35:22Z</time></trkpt><trkpt lat="43.41131186659332" lon="12.658968945757165"><ele>641.0</ele><time>2026-04-27T12:35:23Z</time></trkpt><trkpt lat="43.411409135556404" lon="12.658824924510654"><ele>641.6666666666666</ele><time>2026-04-27T12:35:24Z</time></trkpt><trkpt lat="43.411513181908795" lon="12.658679452172446"><ele>642.3333333333334</ele><time>2026-04-27T12:35:25Z</time></trkpt><trkpt lat="43.41162653913004" lon="12.658532508042153"><ele>643.0</ele><time>2026-04-27T12:35:26Z</time></trkpt><trkpt lat="43.4117530768074" lon="12.658387909012527"><ele>642.3333333333334</ele><time>2026-04-27T12:35:27Z</time></trkpt><trkpt lat="43.411889667540386" lon="12.658241995811325"><ele>641.6666666666666</ele><time>2026-04-27T12:35:28Z</time></trkpt><trkpt lat="43.412035969409054" lon="12.658096734417008"><ele>641.0</ele><time>2026-04-27T12:35:29Z</time></trkpt><trkpt lat="43.41218447409297" lon="12.657944972763323"><ele>641.0</ele><time>2026-04-27T12:35:30Z</time></trkpt><trkpt lat="43.412339620640196" lon="12.657791313472565"><ele>641.0</ele><time>2026-04-27T12:35:31Z</time></trkpt><trkpt lat="43.41249969665674" lon="12.657634980712439"><ele>641.0</ele><time>2026-04-27T12:35:32Z</time></trkpt><trkpt lat="43.412658578226484" lon="12.657474320109632"><ele>639.6666666666666</ele><time>2026-04-27T12:35:33Z</time></trkpt><trkpt lat="43.41281737669448" lon="12.657311505737765"><ele>638.3333333333334</ele><time>2026-04-27T12:35:34Z</time></trkpt><trkpt lat="43.41297630208333" lon="12.65714742727488"><ele>637.0</ele><time>2026-04-27T12:35:35Z</time></trkpt><trkpt lat="43.41313064045935" lon="12.656987686179834"><ele>631.0</ele><time>2026-04-27T12:35:36Z</time></trkpt><trkpt lat="43.41327782386617" lon="12.656826792950683"><ele>625.0</ele><time>2026-04-27T12:35:37Z</time></trkpt><trkpt lat="43.413422995108746" lon="12.656670044748264"><ele>619.0</ele><time>2026-04-27T12:35:38Z</time></trkpt><trkpt lat="43.413564525622604" lon="12.65651690984884"><ele>619.0</ele><time>2026-04-27T12:35:39Z</time></trkpt><trkpt lat="43.41370516804115" lon="12.656369933923232"><ele>619.0</ele><time>2026-04-27T12:35:40Z</time></trkpt><trkpt lat="43.41384611963861" lon="12.656233121229022"><ele>619.0</ele><time>2026-04-27T12:35:41Z</time></trkpt><trkpt lat="43.41398771966766" lon="12.656104634911745"><ele>617.0</ele><time>2026-04-27T12:35:42Z</time></trkpt><trkpt lat="43.41412889229689" lon="12.655988954094312"><ele>615.0</ele><time>2026-04-27T12:35:43Z</time></trkpt><trkpt lat="43.414269866014564" lon="12.655880593276436"><ele>613.0</ele><time>2026-04-27T12:35:44Z</time></trkpt><trkpt lat="43.41440540751511" lon="12.655794603227337"><ele>613.0</ele><time>2026-04-27T12:35:45Z</time></trkpt><trkpt lat="43.41453887878576" lon="12.65573582158718"><ele>613.0</ele><time>2026-04-27T12:35:46Z</time></trkpt><trkpt lat="43.414673173834615" lon="12.655704359932331"><ele>613.0</ele><time>2026-04-27T12:35:47Z</time></trkpt><trkpt lat="43.41480199241177" lon="12.65568870372091"><ele>613.0</ele><time>2026-04-27T12:35:48Z</time></trkpt><trkpt lat="43.41492293633029" lon="12.655681408892251"><ele>612.4</ele><time>2026-04-27T12:35:49Z</time></trkpt><trkpt lat="43.41502624357791" lon="12.655684333490557"><ele>611.8</ele><time>2026-04-27T12:35:50Z</time></trkpt><trkpt lat="43.415123325564124" lon="12.65570693517916"><ele>611.2</ele><time>2026-04-27T12:35:51Z</time></trkpt><trkpt lat="43.41521176699311" lon="12.655759957759566"><ele>610.6</ele><time>2026-04-27T12:35:52Z</time></trkpt><trkpt lat="43.415287918826074" lon="12.6558514950908"><ele>610.0</ele><time>2026-04-27T12:35:53Z</time></trkpt><trkpt lat="43.415349283231386" lon="12.655964397246146"><ele>610.0</ele><time>2026-04-27T12:35:54Z</time></trkpt><trkpt lat="43.415402331381785" lon="12.656076816373165"><ele>610.0</ele><time>2026-04-27T12:35:55Z</time></trkpt><trkpt lat="43.41545506313985" lon="12.656173226129534"><ele>610.0</ele><time>2026-04-27T12:35:56Z</time></trkpt><trkpt lat="43.41550200024313" lon="12.656246519079234"><ele>610.0</ele><time>2026-04-27T12:35:57Z</time></trkpt><trkpt lat="43.41558336882592" lon="12.656349811372362"><ele>610.0</ele><time>2026-04-27T12:35:59Z</time></trkpt><trkpt lat="43.41566826770765" lon="12.656398613061224"><ele>612.2</ele><time>2026-04-27T12:36:01Z</time></trkpt><trkpt lat="43.415779940136446" lon="12.656359656608075"><ele>614.4</ele><time>2026-04-27T12:36:03Z</time></trkpt><trkpt lat="43.415845052698664" lon="12.656219250677374"><ele>616.6</ele><time>2026-04-27T12:36:05Z</time></trkpt><trkpt lat="43.415833902558504" lon="12.656122055640285"><ele>618.8</ele><time>2026-04-27T12:36:06Z</time></trkpt><trkpt lat="43.41579406000571" lon="12.656010375627874"><ele>621.0</ele><time>2026-04-27T12:36:06.999Z</time></trkpt><trkpt lat="43.41573684487536" lon="12.65589835322625"><ele>618.8</ele><time>2026-04-27T12:36:07.999Z</time></trkpt><trkpt lat="43.41566859323923" lon="12.655785983623517"><ele>616.6</ele><time>2026-04-27T12:36:08.999Z</time></trkpt><trkpt lat="43.41559575295915" lon="12.655680111690259"><ele>614.4</ele><time>2026-04-27T12:36:09.999Z</time></trkpt><trkpt lat="43.41551868992454" lon="12.65558202967236"><ele>612.2</ele><time>2026-04-27T12:36:10.999Z</time></trkpt><trkpt lat="43.415434083097274" lon="12.655492708434593"><ele>610.0</ele><time>2026-04-27T12:36:11.999Z</time></trkpt><trkpt lat="43.415341899008524" lon="12.65542300888385"><ele>610.0</ele><time>2026-04-27T12:36:12.999Z</time></trkpt><trkpt lat="43.415241846201745" lon="12.655372806838576"><ele>610.0</ele><time>2026-04-27T12:36:13.999Z</time></trkpt><trkpt lat="43.41513417044204" lon="12.655326452870105"><ele>610.0</ele><time>2026-04-27T12:36:14.999Z</time></trkpt><trkpt lat="43.415016119911186" lon="12.655288828357465"><ele>610.0</ele><time>2026-04-27T12:36:15.999Z</time></trkpt><trkpt lat="43.41489366681049" lon="12.655258155255925"><ele>604.25</ele><time>2026-04-27T12:36:16.999Z</time></trkpt><trkpt lat="43.4147684790509" lon="12.655231441912031"><ele>598.5</ele><time>2026-04-27T12:36:17.999Z</time></trkpt><trkpt lat="43.414644232408875" lon="12.655208607140287"><ele>592.75</ele><time>2026-04-27T12:36:18.999Z</time></trkpt><trkpt lat="43.41452484072015" lon="12.65518913995756"><ele>587.0</ele><time>2026-04-27T12:36:19.999Z</time></trkpt><trkpt lat="43.41441329389938" lon="12.655168519436387"><ele>587.0</ele><time>2026-04-27T12:36:20.999Z</time></trkpt><trkpt lat="43.414305244662515" lon="12.655148065494817"><ele>587.0</ele><time>2026-04-27T12:36:21.999Z</time></trkpt><trkpt lat="43.41420101549687" lon="12.6551288623816"><ele>587.0</ele><time>2026-04-27T12:36:22.999Z</time></trkpt><trkpt lat="43.414100913906495" lon="12.65511641316172"><ele>587.0</ele><time>2026-04-27T12:36:23.999Z</time></trkpt><trkpt lat="43.41400460051415" lon="12.655111398546202"><ele>587.0</ele><time>2026-04-27T12:36:24.999Z</time></trkpt><trkpt lat="43.41391105615136" lon="12.655127908723463"><ele>588.6666666666666</ele><time>2026-04-27T12:36:25.999Z</time></trkpt><trkpt lat="43.41381745917867" lon="12.655159688802541"><ele>590.3333333333333</ele><time>2026-04-27T12:36:26.999Z</time></trkpt><trkpt lat="43.41373550854045" lon="12.655206156218348"><ele>592.0</ele><time>2026-04-27T12:36:27.999Z</time></trkpt><trkpt lat="43.413662976029656" lon="12.655254358732163"><ele>593.6666666666666</ele><time>2026-04-27T12:36:28.999Z</time></trkpt><trkpt lat="43.41359567974968" lon="12.655294354226395"><ele>595.3333333333334</ele><time>2026-04-27T12:36:29.999Z</time></trkpt><trkpt lat="43.413532025938174" lon="12.655318344781701"><ele>597.0</ele><time>2026-04-27T12:36:30.999Z</time></trkpt><trkpt lat="43.41342798465434" lon="12.655293604498558"><ele>592.8000000000001</ele><time>2026-04-27T12:36:32.999Z</time></trkpt><trkpt lat="43.41336223101373" lon="12.655206279376014"><ele>588.6</ele><time>2026-04-27T12:36:34.999Z</time></trkpt><trkpt lat="43.41336390817771" lon="12.655060914128105"><ele>584.4000000000001</ele><time>2026-04-27T12:36:36.999Z</time></trkpt><trkpt lat="43.41345250216081" lon="12.654955269947704"><ele>580.2</ele><time>2026-04-27T12:36:38.999Z</time></trkpt><trkpt lat="43.41352887045053" lon="12.654930745027439"><ele>576.0</ele><time>2026-04-27T12:36:39.999Z</time></trkpt><trkpt lat="43.41362383516649" lon="12.654923433301814"><ele>576.0</ele><time>2026-04-27T12:36:40.999Z</time></trkpt><trkpt lat="43.413727877202035" lon="12.65492341582818"><ele>576.0</ele><time>2026-04-27T12:36:41.999Z</time></trkpt><trkpt lat="43.41384526892398" lon="12.654926434486908"><ele>576.0</ele><time>2026-04-27T12:36:42.999Z</time></trkpt><trkpt lat="43.41396505155785" lon="12.654926536995136"><ele>576.0</ele><time>2026-04-27T12:36:43.999Z</time></trkpt><trkpt lat="43.41408312523637" lon="12.654921615251745"><ele>578.75</ele><time>2026-04-27T12:36:44.999Z</time></trkpt><trkpt lat="43.414198735950585" lon="12.654901563509506"><ele>581.5</ele><time>2026-04-27T12:36:45.999Z</time></trkpt><trkpt lat="43.414311130869486" lon="12.65485914517077"><ele>584.25</ele><time>2026-04-27T12:36:46.999Z</time></trkpt><trkpt lat="43.41441800358169" lon="12.654800690625677"><ele>587.0</ele><time>2026-04-27T12:36:47.999Z</time></trkpt><trkpt lat="43.414524705446475" lon="12.654742899312454"><ele>587.0</ele><time>2026-04-27T12:36:48.999Z</time></trkpt><trkpt lat="43.41463590881005" lon="12.654690663176318"><ele>587.0</ele><time>2026-04-27T12:36:49.999Z</time></trkpt><trkpt lat="43.41474673866368" lon="12.65464580568193"><ele>587.0</ele><time>2026-04-27T12:36:50.999Z</time></trkpt><trkpt lat="43.414856290264424" lon="12.654610581921522"><ele>587.0</ele><time>2026-04-27T12:36:51.999Z</time></trkpt><trkpt lat="43.414962139453095" lon="12.654583966900683"><ele>587.0</ele><time>2026-04-27T12:36:52.999Z</time></trkpt><trkpt lat="43.4150661912812" lon="12.65457186336208"><ele>587.0</ele><time>2026-04-27T12:36:53.999Z</time></trkpt><trkpt lat="43.415165645035984" lon="12.65458324203147"><ele>587.0</ele><time>2026-04-27T12:36:54.999Z</time></trkpt><trkpt lat="43.41525741963595" lon="12.654630462363963"><ele>587.0</ele><time>2026-04-27T12:36:55.999Z</time></trkpt><trkpt lat="43.41533376995416" lon="12.654701154785524"><ele>587.0</ele><time>2026-04-27T12:36:56.999Z</time></trkpt><trkpt lat="43.41541120595373" lon="12.654794230464185"><ele>584.8000000000001</ele><time>2026-04-27T12:36:57.999Z</time></trkpt><trkpt lat="43.4154927725625" lon="12.654875177906112"><ele>582.6</ele><time>2026-04-27T12:36:58.999Z</time></trkpt><trkpt lat="43.415581062771395" lon="12.654944117199282"><ele>580.4000000000001</ele><time>2026-04-27T12:36:59.999Z</time></trkpt><trkpt lat="43.41567679502395" lon="12.654990283609926"><ele>578.2</ele><time>2026-04-27T12:37:00.999Z</time></trkpt><trkpt lat="43.41578486381622" lon="12.654996116323334"><ele>576.0</ele><time>2026-04-27T12:37:01.999Z</time></trkpt><trkpt lat="43.41588989911543" lon="12.654986501985722"><ele>576.0</ele><time>2026-04-27T12:37:02.999Z</time></trkpt><trkpt lat="43.41600164085501" lon="12.654983525195698"><ele>576.0</ele><time>2026-04-27T12:37:03.999Z</time></trkpt><trkpt lat="43.41611201128425" lon="12.655003941168236"><ele>576.0</ele><time>2026-04-27T12:37:04.999Z</time></trkpt><trkpt lat="43.41622364333096" lon="12.655045726490714"><ele>576.0</ele><time>2026-04-27T12:37:05.999Z</time></trkpt><trkpt lat="43.41633945095741" lon="12.655094826913215"><ele>576.5</ele><time>2026-04-27T12:37:06.999Z</time></trkpt><trkpt lat="43.41644836156791" lon="12.65513149971716"><ele>577.0</ele><time>2026-04-27T12:37:07.999Z</time></trkpt><trkpt lat="43.416546715049044" lon="12.655151296286977"><ele>577.5</ele><time>2026-04-27T12:37:08.999Z</time></trkpt><trkpt lat="43.41662207188085" lon="12.655160504687856"><ele>578.0</ele><time>2026-04-27T12:37:09.999Z</time></trkpt><trkpt lat="43.4166966863528" lon="12.655181276932055"><ele>578.5</ele><time>2026-04-27T12:37:10.999Z</time></trkpt><trkpt lat="43.4167682368092" lon="12.65522517047824"><ele>579.0</ele><time>2026-04-27T12:37:11.999Z</time></trkpt><trkpt lat="43.41682799182772" lon="12.655292272565557"><ele>578.9999999999999</ele><time>2026-04-27T12:37:12.999Z</time></trkpt><trkpt lat="43.41687354825368" lon="12.655376612797763"><ele>579.0</ele><time>2026-04-27T12:37:13.999Z</time></trkpt><trkpt lat="43.4169065071456" lon="12.655468575171316"><ele>579.0</ele><time>2026-04-27T12:37:15Z</time></trkpt><trkpt lat="43.416942784739156" lon="12.655550026561471"><ele>579.0</ele><time>2026-04-27T12:37:16Z</time></trkpt><trkpt lat="43.41698966452092" lon="12.65561278261328"><ele>579.0</ele><time>2026-04-27T12:37:17Z</time></trkpt><trkpt lat="43.417055869230204" lon="12.655665541563017"><ele>578.9999999999999</ele><time>2026-04-27T12:37:18Z</time></trkpt><trkpt lat="43.4171229802222" lon="12.655694859609714"><ele>579.0</ele><time>2026-04-27T12:37:19Z</time></trkpt><trkpt lat="43.41724654923401" lon="12.655721489155562"><ele>576.0</ele><time>2026-04-27T12:37:21Z</time></trkpt><trkpt lat="43.417318546963266" lon="12.655722384035732"><ele>573.0</ele><time>2026-04-27T12:37:22Z</time></trkpt><trkpt lat="43.41739670776263" lon="12.655708783465476"><ele>570.0</ele><time>2026-04-27T12:37:23Z</time></trkpt><trkpt lat="43.41747735913091" lon="12.65567712305765"><ele>567.0</ele><time>2026-04-27T12:37:24Z</time></trkpt><trkpt lat="43.417559587781334" lon="12.655631767394295"><ele>564.0</ele><time>2026-04-27T12:37:25Z</time></trkpt><trkpt lat="43.41764430621603" lon="12.655573976197353"><ele>561.0</ele><time>2026-04-27T12:37:26Z</time></trkpt><trkpt lat="43.417732125704646" lon="12.655514146261483"><ele>561.0</ele><time>2026-04-27T12:37:27Z</time></trkpt><trkpt lat="43.41782019677339" lon="12.655450789296092"><ele>561.0</ele><time>2026-04-27T12:37:28Z</time></trkpt><trkpt lat="43.41790295572251" lon="12.655371029805305"><ele>561.0</ele><time>2026-04-27T12:37:29Z</time></trkpt><trkpt lat="43.4179801197116" lon="12.655276379061473"><ele>561.0</ele><time>2026-04-27T12:37:30Z</time></trkpt><trkpt lat="43.41804944711971" lon="12.655171217327766"><ele>561.0</ele><time>2026-04-27T12:37:31Z</time></trkpt><trkpt lat="43.41810623176967" lon="12.655055323871464"><ele>562.6</ele><time>2026-04-27T12:37:32Z</time></trkpt><trkpt lat="43.41816238994987" lon="12.65492844266522"><ele>564.2</ele><time>2026-04-27T12:37:33Z</time></trkpt><trkpt lat="43.41820328894938" lon="12.654801765512707"><ele>565.8</ele><time>2026-04-27T12:37:34Z</time></trkpt><trkpt lat="43.418235592515416" lon="12.654668242401732"><ele>567.4</ele><time>2026-04-27T12:37:35Z</time></trkpt><trkpt lat="43.41826442935634" lon="12.654534759918517"><ele>569.0</ele><time>2026-04-27T12:37:36Z</time></trkpt><trkpt lat="43.41829459439702" lon="12.654405446162434"><ele>565.4</ele><time>2026-04-27T12:37:37Z</time></trkpt><trkpt lat="43.41833120717316" lon="12.654277103756082"><ele>561.8</ele><time>2026-04-27T12:37:38Z</time></trkpt><trkpt lat="43.418380479414026" lon="12.65415563204578"><ele>558.2</ele><time>2026-04-27T12:37:39Z</time></trkpt><trkpt lat="43.418448688303606" lon="12.654051258997919"><ele>554.6</ele><time>2026-04-27T12:37:40Z</time></trkpt><trkpt lat="43.41853282949113" lon="12.653960979935864"><ele>551.0</ele><time>2026-04-27T12:37:41Z</time></trkpt><trkpt lat="43.4186219704053" lon="12.653862195628797"><ele>551.0</ele><time>2026-04-27T12:37:42Z</time></trkpt><trkpt lat="43.41870666879879" lon="12.653754437317383"><ele>551.0</ele><time>2026-04-27T12:37:43Z</time></trkpt><trkpt lat="43.418794532090836" lon="12.65363819808859"><ele>551.0</ele><time>2026-04-27T12:37:44Z</time></trkpt><trkpt lat="43.41888371949072" lon="12.653512950047437"><ele>551.0</ele><time>2026-04-27T12:37:45Z</time></trkpt><trkpt lat="43.41896951355527" lon="12.653379057122455"><ele>552.25</ele><time>2026-04-27T12:37:46Z</time></trkpt><trkpt lat="43.41904793816963" lon="12.65323638659784"><ele>553.5</ele><time>2026-04-27T12:37:47Z</time></trkpt><trkpt lat="43.4191200946043" lon="12.65308883880969"><ele>554.75</ele><time>2026-04-27T12:37:48Z</time></trkpt><trkpt lat="43.419197513288694" lon="12.652942198575195"><ele>556.0</ele><time>2026-04-27T12:37:49Z</time></trkpt><trkpt lat="43.41928931568674" lon="12.652807809812092"><ele>556.5</ele><time>2026-04-27T12:37:50Z</time></trkpt><trkpt lat="43.41938878249551" lon="12.652677876768735"><ele>557.0</ele><time>2026-04-27T12:37:51Z</time></trkpt><trkpt lat="43.41948629114955" lon="12.652548241655877"><ele>557.5</ele><time>2026-04-27T12:37:52Z</time></trkpt><trkpt lat="43.419583479502414" lon="12.652423598191074"><ele>558.0</ele><time>2026-04-27T12:37:53Z</time></trkpt><trkpt lat="43.41969415995563" lon="12.652308004887223"><ele>558.0</ele><time>2026-04-27T12:37:54Z</time></trkpt><trkpt lat="43.41981616695363" lon="12.652207387195409"><ele>558.0</ele><time>2026-04-27T12:37:55Z</time></trkpt><trkpt lat="43.41994620197322" lon="12.652113327134014"><ele>558.0</ele><time>2026-04-27T12:37:56Z</time></trkpt><trkpt lat="43.42008350534431" lon="12.652015843969286"><ele>558.0</ele><time>2026-04-27T12:37:57Z</time></trkpt><trkpt lat="43.42022207792686" lon="12.651913847794646"><ele>556.0</ele><time>2026-04-27T12:37:58Z</time></trkpt><trkpt lat="43.42036066780002" lon="12.65180870982604"><ele>554.0</ele><time>2026-04-27T12:37:59Z</time></trkpt><trkpt lat="43.420495797570254" lon="12.651698108960872"><ele>552.0</ele><time>2026-04-27T12:38:00Z</time></trkpt><trkpt lat="43.4206226403374" lon="12.651570708513889"><ele>552.0</ele><time>2026-04-27T12:38:01Z</time></trkpt><trkpt lat="43.42073743669831" lon="12.65142392453816"><ele>552.0</ele><time>2026-04-27T12:38:02Z</time></trkpt><trkpt lat="43.42084143106957" lon="12.651275434806736"><ele>552.0</ele><time>2026-04-27T12:38:03Z</time></trkpt><trkpt lat="43.42094297421333" lon="12.651136181952264"><ele>551.25</ele><time>2026-04-27T12:38:04Z</time></trkpt><trkpt lat="43.42105001439337" lon="12.651012487834786"><ele>550.5</ele><time>2026-04-27T12:38:05Z</time></trkpt><trkpt lat="43.42116690368938" lon="12.650899600851671"><ele>549.75</ele><time>2026-04-27T12:38:06Z</time></trkpt><trkpt lat="43.421296025268944" lon="12.650798367419643"><ele>549.0</ele><time>2026-04-27T12:38:07Z</time></trkpt><trkpt lat="43.42142245508565" lon="12.650700569545895"><ele>549.0</ele><time>2026-04-27T12:38:08Z</time></trkpt><trkpt lat="43.421545547003305" lon="12.650601546570208"><ele>549.0</ele><time>2026-04-27T12:38:09Z</time></trkpt><trkpt lat="43.42166758070912" lon="12.650505006942428"><ele>549.0</ele><time>2026-04-27T12:38:10Z</time></trkpt><trkpt lat="43.42178866955787" lon="12.650409969448749"><ele>549.0</ele><time>2026-04-27T12:38:11Z</time></trkpt><trkpt lat="43.42190907787077" lon="12.650316105175895"><ele>547.0</ele><time>2026-04-27T12:38:12Z</time></trkpt><trkpt lat="43.42202889563607" lon="12.650220844582654"><ele>545.0</ele><time>2026-04-27T12:38:13Z</time></trkpt><trkpt lat="43.42214734994206" lon="12.65012437571724"><ele>543.0</ele><time>2026-04-27T12:38:13.999Z</time></trkpt><trkpt lat="43.422266498675725" lon="12.65002374355182"><ele>541.0</ele><time>2026-04-27T12:38:14.999Z</time></trkpt><trkpt lat="43.422383916495235" lon="12.649916188050067"><ele>541.0</ele><time>2026-04-27T12:38:15.999Z</time></trkpt><trkpt lat="43.4224859332903" lon="12.649785635224"><ele>541.0</ele><time>2026-04-27T12:38:16.999Z</time></trkpt><trkpt lat="43.42257162476144" lon="12.649631860969267"><ele>541.0</ele><time>2026-04-27T12:38:17.999Z</time></trkpt><trkpt lat="43.42264999386452" lon="12.64945769026859"><ele>541.0</ele><time>2026-04-27T12:38:18.999Z</time></trkpt><trkpt lat="43.42272665650416" lon="12.649271998450649"><ele>534.6666666666667</ele><time>2026-04-27T12:38:19.999Z</time></trkpt><trkpt lat="43.42280377419931" lon="12.649076269719776"><ele>528.3333333333334</ele><time>2026-04-27T12:38:20.999Z</time></trkpt><trkpt lat="43.42287668525734" lon="12.648882626836636"><ele>522.0</ele><time>2026-04-27T12:38:21.999Z</time></trkpt><trkpt lat="43.42295129226194" lon="12.648697660594669"><ele>524.0</ele><time>2026-04-27T12:38:22.999Z</time></trkpt><trkpt lat="43.42302971136255" lon="12.64852590396037"><ele>526.0</ele><time>2026-04-27T12:38:23.999Z</time></trkpt><trkpt lat="43.42311021212654" lon="12.648363320272663"><ele>528.0</ele><time>2026-04-27T12:38:24.999Z</time></trkpt><trkpt lat="43.42319719136313" lon="12.648208412273556"><ele>530.0</ele><time>2026-04-27T12:38:25.999Z</time></trkpt><trkpt lat="43.4232923266133" lon="12.648064043300549"><ele>530.0</ele><time>2026-04-27T12:38:26.999Z</time></trkpt><trkpt lat="43.42339952096965" lon="12.64793570260611"><ele>530.0</ele><time>2026-04-27T12:38:27.999Z</time></trkpt><trkpt lat="43.423511315145284" lon="12.64781766069079"><ele>530.0</ele><time>2026-04-27T12:38:28.999Z</time></trkpt><trkpt lat="43.42362287179626" lon="12.647699336079942"><ele>530.0</ele><time>2026-04-27T12:38:29.999Z</time></trkpt><trkpt lat="43.423733515947376" lon="12.647578016747858"><ele>527.5</ele><time>2026-04-27T12:38:30.999Z</time></trkpt><trkpt lat="43.423839208892375" lon="12.647461895742339"><ele>525.0</ele><time>2026-04-27T12:38:31.999Z</time></trkpt><trkpt lat="43.42393362386026" lon="12.647365206722936"><ele>522.5</ele><time>2026-04-27T12:38:32.999Z</time></trkpt><trkpt lat="43.42403628022857" lon="12.647289142810175"><ele>520.0</ele><time>2026-04-27T12:38:33.999Z</time></trkpt><trkpt lat="43.4241425820791" lon="12.64724652092007"><ele>520.0</ele><time>2026-04-27T12:38:34.999Z</time></trkpt><trkpt lat="43.424250801084305" lon="12.647243116614796"><ele>520.0</ele><time>2026-04-27T12:38:35.999Z</time></trkpt><trkpt lat="43.42436292748327" lon="12.647268182946554"><ele>520.0</ele><time>2026-04-27T12:38:36.999Z</time></trkpt><trkpt lat="43.42447893067413" lon="12.647297492908981"><ele>520.0</ele><time>2026-04-27T12:38:37.999Z</time></trkpt><trkpt lat="43.42459711872864" lon="12.647318687508724"><ele>520.5</ele><time>2026-04-27T12:38:38.999Z</time></trkpt><trkpt lat="43.42472119369941" lon="12.64733748755275"><ele>521.0</ele><time>2026-04-27T12:38:39.999Z</time></trkpt><trkpt lat="43.42484593624222" lon="12.647350511808341"><ele>521.5</ele><time>2026-04-27T12:38:40.999Z</time></trkpt><trkpt lat="43.42497075754127" lon="12.64734986707568"><ele>522.0</ele><time>2026-04-27T12:38:41.999Z</time></trkpt><trkpt lat="43.42509696161153" lon="12.64732647663703"><ele>522.0</ele><time>2026-04-27T12:38:42.999Z</time></trkpt><trkpt lat="43.425221815254815" lon="12.647279668670173"><ele>522.0</ele><time>2026-04-27T12:38:43.999Z</time></trkpt><trkpt lat="43.42534656402245" lon="12.647210568112376"><ele>522.0</ele><time>2026-04-27T12:38:44.999Z</time></trkpt><trkpt lat="43.42547426192454" lon="12.647129739609491"><ele>522.0</ele><time>2026-04-27T12:38:45.999Z</time></trkpt><trkpt lat="43.42560691550418" lon="12.647042863700293"><ele>515.75</ele><time>2026-04-27T12:38:46.999Z</time></trkpt><trkpt lat="43.42573566205341" lon="12.64695276324594"><ele>509.5</ele><time>2026-04-27T12:38:47.999Z</time></trkpt><trkpt lat="43.425857231193774" lon="12.646841113537198"><ele>503.25</ele><time>2026-04-27T12:38:48.999Z</time></trkpt><trkpt lat="43.42596204005456" lon="12.646718417292533"><ele>497.0</ele><time>2026-04-27T12:38:49.999Z</time></trkpt><trkpt lat="43.42605812499195" lon="12.646597816347727"><ele>497.0</ele><time>2026-04-27T12:38:50.999Z</time></trkpt><trkpt lat="43.426148585222414" lon="12.646481585943544"><ele>497.0</ele><time>2026-04-27T12:38:51.999Z</time></trkpt><trkpt lat="43.42623702096845" lon="12.646373840488268"><ele>497.0</ele><time>2026-04-27T12:38:52.999Z</time></trkpt><trkpt lat="43.426326548409904" lon="12.646279713569944"><ele>497.0</ele><time>2026-04-27T12:38:53.999Z</time></trkpt><trkpt lat="43.42642626419853" lon="12.646205673301955"><ele>495.0</ele><time>2026-04-27T12:38:54.999Z</time></trkpt><trkpt lat="43.42653590146403" lon="12.64616327244871"><ele>493.00000000000006</ele><time>2026-04-27T12:38:55.999Z</time></trkpt><trkpt lat="43.42664517794885" lon="12.646158562222196"><ele>491.00000000000006</ele><time>2026-04-27T12:38:56.999Z</time></trkpt><trkpt lat="43.426748442277315" lon="12.646159927868466"><ele>489.0</ele><time>2026-04-27T12:38:57.999Z</time></trkpt><trkpt lat="43.42684690195498" lon="12.64613406947523"><ele>487.0</ele><time>2026-04-27T12:38:58.999Z</time></trkpt><trkpt lat="43.42693575300833" lon="12.646067816304383"><ele>487.0</ele><time>2026-04-27T12:38:59.999Z</time></trkpt><trkpt lat="43.42701524885612" lon="12.645965014583117"><ele>487.00000000000006</ele><time>2026-04-27T12:39:00.999Z</time></trkpt><trkpt lat="43.42708573274859" lon="12.645845337671929"><ele>487.00000000000006</ele><time>2026-04-27T12:39:01.999Z</time></trkpt><trkpt lat="43.427158821760564" lon="12.645729249869031"><ele>487.0</ele><time>2026-04-27T12:39:02.999Z</time></trkpt><trkpt lat="43.42725028320265" lon="12.645643411642128"><ele>487.0</ele><time>2026-04-27T12:39:03.999Z</time></trkpt><trkpt lat="43.4273537010502" lon="12.645573539838221"><ele>486.0</ele><time>2026-04-27T12:39:04.999Z</time></trkpt><trkpt lat="43.4274515932413" lon="12.645493030369943"><ele>485.0</ele><time>2026-04-27T12:39:05.999Z</time></trkpt><trkpt lat="43.42754559200886" lon="12.645402320800484"><ele>484.0</ele><time>2026-04-27T12:39:06.999Z</time></trkpt><trkpt lat="43.42762426613968" lon="12.645288447007797"><ele>483.0</ele><time>2026-04-27T12:39:07.999Z</time></trkpt><trkpt lat="43.427687553598524" lon="12.645163654570679"><ele>483.0</ele><time>2026-04-27T12:39:08.999Z</time></trkpt><trkpt lat="43.42774535471546" lon="12.64504518555459"><ele>482.99999999999994</ele><time>2026-04-27T12:39:09.999Z</time></trkpt><trkpt lat="43.427804424952136" lon="12.644936730704472"><ele>482.99999999999994</ele><time>2026-04-27T12:39:10.999Z</time></trkpt><trkpt lat="43.427867825300474" lon="12.64484211171787"><ele>483.0</ele><time>2026-04-27T12:39:11.999Z</time></trkpt><trkpt lat="43.427930955370826" lon="12.64476935505934"><ele>483.0</ele><time>2026-04-27T12:39:12.999Z</time></trkpt><trkpt lat="43.42799616225655" lon="12.644718811168788"><ele>487.1666666666667</ele><time>2026-04-27T12:39:13.999Z</time></trkpt><trkpt lat="43.428057629279444" lon="12.644686400783028"><ele>491.33333333333337</ele><time>2026-04-27T12:39:14.999Z</time></trkpt><trkpt lat="43.42816927471319" lon="12.644676605301783"><ele>495.5</ele><time>2026-04-27T12:39:16.999Z</time></trkpt><trkpt lat="43.42826366024667" lon="12.64468999003399"><ele>499.6666666666667</ele><time>2026-04-27T12:39:18.999Z</time></trkpt><trkpt lat="43.428349246449955" lon="12.644679938813887"><ele>503.83333333333337</ele><time>2026-04-27T12:39:21Z</time></trkpt><trkpt lat="43.42842070115401" lon="12.644615702329228"><ele>508.0</ele><time>2026-04-27T12:39:23Z</time></trkpt><trkpt lat="43.42847023454947" lon="12.644531715401923"><ele>503.83333333333337</ele><time>2026-04-27T12:39:24Z</time></trkpt><trkpt lat="43.42847634054188" lon="12.644438004481286"><ele>499.6666666666667</ele><time>2026-04-27T12:39:25Z</time></trkpt><trkpt lat="43.42843872423814" lon="12.644280078463858"><ele>495.5</ele><time>2026-04-27T12:39:27Z</time></trkpt><trkpt lat="43.428386948367255" lon="12.6442259635188"><ele>491.33333333333337</ele><time>2026-04-27T12:39:28Z</time></trkpt><trkpt lat="43.428326092350524" lon="12.644184402887946"><ele>487.1666666666667</ele><time>2026-04-27T12:39:29Z</time></trkpt><trkpt lat="43.42825987665457" lon="12.644151994872677"><ele>483.0</ele><time>2026-04-27T12:39:30Z</time></trkpt><trkpt lat="43.4281961491668" lon="12.644124235396012"><ele>483.0</ele><time>2026-04-27T12:39:31Z</time></trkpt><trkpt lat="43.428129877586116" lon="12.644099608915221"><ele>483.0</ele><time>2026-04-27T12:39:32Z</time></trkpt><trkpt lat="43.42806236149317" lon="12.64409369998207"><ele>483.0</ele><time>2026-04-27T12:39:33Z</time></trkpt><trkpt lat="43.427997108891105" lon="12.644132324873354"><ele>483.0</ele><time>2026-04-27T12:39:34Z</time></trkpt><trkpt lat="43.42794238009247" lon="12.644195467041603"><ele>483.0</ele><time>2026-04-27T12:39:35Z</time></trkpt><trkpt lat="43.42789987788748" lon="12.644283925999966"><ele>483.0</ele><time>2026-04-27T12:39:36Z</time></trkpt><trkpt lat="43.42785829847524" lon="12.644389446349072"><ele>483.0</ele><time>2026-04-27T12:39:37Z</time></trkpt><trkpt lat="43.42781335614386" lon="12.64450223067565"><ele>483.0</ele><time>2026-04-27T12:39:38Z</time></trkpt><trkpt lat="43.427768512924736" lon="12.64461261452922"><ele>482.99999999999994</ele><time>2026-04-27T12:39:39Z</time></trkpt><trkpt lat="43.42772286632858" lon="12.644717732767823"><ele>482.99999999999994</ele><time>2026-04-27T12:39:40Z</time></trkpt><trkpt lat="43.427678021103056" lon="12.644820508886584"><ele>483.0</ele><time>2026-04-27T12:39:41Z</time></trkpt><trkpt lat="43.427631466390395" lon="12.644928499033023"><ele>483.0</ele><time>2026-04-27T12:39:42Z</time></trkpt><trkpt lat="43.42758226189608" lon="12.645039679025519"><ele>483.0</ele><time>2026-04-27T12:39:43Z</time></trkpt><trkpt lat="43.42752601957572" lon="12.645149677456919"><ele>482.99999999999994</ele><time>2026-04-27T12:39:44Z</time></trkpt><trkpt lat="43.42744787631012" lon="12.645238522373527"><ele>482.99999999999994</ele><time>2026-04-27T12:39:45Z</time></trkpt><trkpt lat="43.4273570249883" lon="12.645304936781132"><ele>483.0</ele><time>2026-04-27T12:39:46Z</time></trkpt><trkpt lat="43.42725784547742" lon="12.645353384972484"><ele>483.0</ele><time>2026-04-27T12:39:47Z</time></trkpt><trkpt lat="43.42715407418231" lon="12.645393695648018"><ele>484.0</ele><time>2026-04-27T12:39:48Z</time></trkpt><trkpt lat="43.42705201218386" lon="12.645449547998448"><ele>485.0</ele><time>2026-04-27T12:39:49Z</time></trkpt><trkpt lat="43.42695031874577" lon="12.645516920276204"><ele>486.0</ele><time>2026-04-27T12:39:50Z</time></trkpt><trkpt lat="43.42684334729157" lon="12.645582535644213"><ele>487.0</ele><time>2026-04-27T12:39:51Z</time></trkpt><trkpt lat="43.426739217396694" lon="12.645652590801518"><ele>487.0</ele><time>2026-04-27T12:39:52Z</time></trkpt><trkpt lat="43.426623706912565" lon="12.645695794135237"><ele>487.0</ele><time>2026-04-27T12:39:53Z</time></trkpt><trkpt lat="43.42651813324235" lon="12.645722975377506"><ele>487.0</ele><time>2026-04-27T12:39:54Z</time></trkpt><trkpt lat="43.42641488145816" lon="12.64576020283814"><ele>487.0</ele><time>2026-04-27T12:39:55Z</time></trkpt><trkpt lat="43.42630307547443" lon="12.645805416993028"><ele>489.5</ele><time>2026-04-27T12:39:56Z</time></trkpt><trkpt lat="43.42619523244252" lon="12.645877051230105"><ele>492.0</ele><time>2026-04-27T12:39:57Z</time></trkpt><trkpt lat="43.42608453413979" lon="12.645946490961792"><ele>494.5</ele><time>2026-04-27T12:39:58Z</time></trkpt><trkpt lat="43.425983945533865" lon="12.646038255254682"><ele>497.0</ele><time>2026-04-27T12:39:59Z</time></trkpt><trkpt lat="43.42589058297266" lon="12.646137338284666"><ele>496.99999999999994</ele><time>2026-04-27T12:40:00Z</time></trkpt><trkpt lat="43.42579433695663" lon="12.64621664763751"><ele>497.0</ele><time>2026-04-27T12:40:01Z</time></trkpt><trkpt lat="43.42570825625189" lon="12.646285469758665"><ele>497.0</ele><time>2026-04-27T12:40:02Z</time></trkpt><trkpt lat="43.425637005231906" lon="12.64633058842551"><ele>497.0</ele><time>2026-04-27T12:40:03Z</time></trkpt><trkpt lat="43.42557479352389" lon="12.646357638552091"><ele>496.99999999999994</ele><time>2026-04-27T12:40:04Z</time></trkpt><trkpt lat="43.425508984881326" lon="12.64636049250395"><ele>497.0</ele><time>2026-04-27T12:40:05Z</time></trkpt><trkpt lat="43.42539045497702" lon="12.646310572700921"><ele>495.8333333333333</ele><time>2026-04-27T12:40:07Z</time></trkpt><trkpt lat="43.4253358205066" lon="12.646239765797313"><ele>494.66666666666663</ele><time>2026-04-27T12:40:08Z</time></trkpt><trkpt lat="43.42529837585256" lon="12.646136217881775"><ele>493.5</ele><time>2026-04-27T12:40:08.999Z</time></trkpt><trkpt lat="43.42527702255556" lon="12.646019876043407"><ele>492.33333333333337</ele><time>2026-04-27T12:40:09.999Z</time></trkpt><trkpt lat="43.42526153066618" lon="12.645897798043388"><ele>491.1666666666667</ele><time>2026-04-27T12:40:10.999Z</time></trkpt><trkpt lat="43.425247926998345" lon="12.645771267720784"><ele>490.0</ele><time>2026-04-27T12:40:11.999Z</time></trkpt><trkpt lat="43.42523507186801" lon="12.64564876517161"><ele>486.83333333333337</ele><time>2026-04-27T12:40:12.999Z</time></trkpt><trkpt lat="43.425227303679065" lon="12.645520932661297"><ele>483.6666666666667</ele><time>2026-04-27T12:40:13.999Z</time></trkpt><trkpt lat="43.42524504809979" lon="12.645399555460859"><ele>480.5</ele><time>2026-04-27T12:40:14.999Z</time></trkpt><trkpt lat="43.42527842749023" lon="12.645300831056081"><ele>477.33333333333337</ele><time>2026-04-27T12:40:15.999Z</time></trkpt><trkpt lat="43.42533165972699" lon="12.645235552130348"><ele>474.1666666666667</ele><time>2026-04-27T12:40:16.999Z</time></trkpt><trkpt lat="43.42540104675907" lon="12.645188123913892"><ele>471.0</ele><time>2026-04-27T12:40:17.999Z</time></trkpt><trkpt lat="43.425495106277104" lon="12.645158553619131"><ele>471.0</ele><time>2026-04-27T12:40:18.999Z</time></trkpt><trkpt lat="43.42559989553797" lon="12.645143004221207"><ele>471.0</ele><time>2026-04-27T12:40:19.999Z</time></trkpt><trkpt lat="43.42570502217392" lon="12.645127232304038"><ele>471.0</ele><time>2026-04-27T12:40:20.999Z</time></trkpt><trkpt lat="43.42580533515587" lon="12.645109277031082"><ele>471.0</ele><time>2026-04-27T12:40:21.999Z</time></trkpt><trkpt lat="43.425909636441325" lon="12.645088406562456"><ele>471.0</ele><time>2026-04-27T12:40:22.999Z</time></trkpt><trkpt lat="43.42601637041357" lon="12.645072028361081"><ele>471.0</ele><time>2026-04-27T12:40:23.999Z</time></trkpt><trkpt lat="43.42612697049251" lon="12.645063032846"><ele>471.0</ele><time>2026-04-27T12:40:24.999Z</time></trkpt><trkpt lat="43.42623771166602" lon="12.645055005556852"><ele>471.0</ele><time>2026-04-27T12:40:25.999Z</time></trkpt><trkpt lat="43.42634645736319" lon="12.645047639855484"><ele>471.0</ele><time>2026-04-27T12:40:26.999Z</time></trkpt><trkpt lat="43.42645241080747" lon="12.645034018406333"><ele>471.0</ele><time>2026-04-27T12:40:27.999Z</time></trkpt><trkpt lat="43.42655754586709" lon="12.645016524775164"><ele>470.8</ele><time>2026-04-27T12:40:28.999Z</time></trkpt><trkpt lat="43.42666110299229" lon="12.64499262311941"><ele>470.6</ele><time>2026-04-27T12:40:29.999Z</time></trkpt><trkpt lat="43.426763698714765" lon="12.644959853612821"><ele>470.4</ele><time>2026-04-27T12:40:30.999Z</time></trkpt><trkpt lat="43.42685932981012" lon="12.64491182080298"><ele>470.2</ele><time>2026-04-27T12:40:31.999Z</time></trkpt><trkpt lat="43.42693940891865" lon="12.644845098086194"><ele>470.0</ele><time>2026-04-27T12:40:32.999Z</time></trkpt><trkpt lat="43.427008263789645" lon="12.644767085416577"><ele>470.0</ele><time>2026-04-27T12:40:33.999Z</time></trkpt><trkpt lat="43.4270619429962" lon="12.64467707438718"><ele>470.0</ele><time>2026-04-27T12:40:34.999Z</time></trkpt><trkpt lat="43.42709215399936" lon="12.644565243583038"><ele>470.0</ele><time>2026-04-27T12:40:35.999Z</time></trkpt><trkpt lat="43.42709526893279" lon="12.644439087037956"><ele>470.0</ele><time>2026-04-27T12:40:36.999Z</time></trkpt><trkpt lat="43.427070998064146" lon="12.644304928985738"><ele>470.0</ele><time>2026-04-27T12:40:37.999Z</time></trkpt><trkpt lat="43.42702512667963" lon="12.644170133754244"><ele>469.6</ele><time>2026-04-27T12:40:38.999Z</time></trkpt><trkpt lat="43.42697297242586" lon="12.644037135863499"><ele>469.2</ele><time>2026-04-27T12:40:39.999Z</time></trkpt><trkpt lat="43.42692223618564" lon="12.643898162281321"><ele>468.79999999999995</ele><time>2026-04-27T12:40:40.999Z</time></trkpt><trkpt lat="43.42687323098008" lon="12.643760428364736"><ele>468.4</ele><time>2026-04-27T12:40:41.999Z</time></trkpt><trkpt lat="43.42682885714413" lon="12.643618514308894"><ele>468.0</ele><time>2026-04-27T12:40:42.999Z</time></trkpt><trkpt lat="43.426797254447436" lon="12.643464826557379"><ele>467.0</ele><time>2026-04-27T12:40:43.999Z</time></trkpt><trkpt lat="43.426783284891215" lon="12.643302139965341"><ele>466.0</ele><time>2026-04-27T12:40:44.999Z</time></trkpt><trkpt lat="43.42678512258349" lon="12.64313564153875"><ele>465.0</ele><time>2026-04-27T12:40:45.999Z</time></trkpt><trkpt lat="43.42679601356532" lon="12.642962852679837"><ele>464.0</ele><time>2026-04-27T12:40:46.999Z</time></trkpt><trkpt lat="43.42681642596857" lon="12.642787578405324"><ele>464.0</ele><time>2026-04-27T12:40:47.999Z</time></trkpt><trkpt lat="43.42683957487106" lon="12.642611280134176"><ele>464.0</ele><time>2026-04-27T12:40:48.999Z</time></trkpt><trkpt lat="43.42686476791472" lon="12.642432226797009"><ele>464.0</ele><time>2026-04-27T12:40:49.999Z</time></trkpt><trkpt lat="43.42690195332711" lon="12.642253540685065"><ele>464.0</ele><time>2026-04-27T12:40:50.999Z</time></trkpt><trkpt lat="43.426957667835026" lon="12.642089764151851"><ele>464.5</ele><time>2026-04-27T12:40:51.999Z</time></trkpt><trkpt lat="43.427037411556626" lon="12.641943825076815"><ele>465.0</ele><time>2026-04-27T12:40:52.999Z</time></trkpt><trkpt lat="43.427135237786736" lon="12.641819503084678"><ele>465.5</ele><time>2026-04-27T12:40:53.999Z</time></trkpt><trkpt lat="43.42724110640625" lon="12.641694632188006"><ele>466.0</ele><time>2026-04-27T12:40:54.999Z</time></trkpt><trkpt lat="43.42735920956265" lon="12.641573932278268"><ele>462.0</ele><time>2026-04-27T12:40:55.999Z</time></trkpt><trkpt lat="43.42748172514331" lon="12.64146852519744"><ele>458.0</ele><time>2026-04-27T12:40:56.999Z</time></trkpt><trkpt lat="43.42760819171033" lon="12.641380039960051"><ele>454.0</ele><time>2026-04-27T12:40:57.999Z</time></trkpt><trkpt lat="43.4277343020097" lon="12.641298688534778"><ele>450.0</ele><time>2026-04-27T12:40:58.999Z</time></trkpt><trkpt lat="43.42786028771829" lon="12.641212229336654"><ele>450.0</ele><time>2026-04-27T12:40:59.999Z</time></trkpt><trkpt lat="43.42798427883303" lon="12.641119149903513"><ele>450.0</ele><time>2026-04-27T12:41:00.999Z</time></trkpt><trkpt lat="43.428107117027515" lon="12.641015248502088"><ele>450.0</ele><time>2026-04-27T12:41:01.999Z</time></trkpt><trkpt lat="43.42823112961732" lon="12.640915687398946"><ele>450.0</ele><time>2026-04-27T12:41:02.999Z</time></trkpt><trkpt lat="43.428360691837774" lon="12.640828630730605"><ele>450.0</ele><time>2026-04-27T12:41:03.999Z</time></trkpt><trkpt lat="43.42849219917569" lon="12.64074692996479"><ele>450.0</ele><time>2026-04-27T12:41:04.999Z</time></trkpt><trkpt lat="43.428625808933184" lon="12.640667143020744"><ele>450.0</ele><time>2026-04-27T12:41:05.999Z</time></trkpt><trkpt lat="43.42875897495607" lon="12.640591141314841"><ele>450.0</ele><time>2026-04-27T12:41:06.999Z</time></trkpt><trkpt lat="43.428885518017644" lon="12.640517922457528"><ele>449.0</ele><time>2026-04-27T12:41:07.999Z</time></trkpt><trkpt lat="43.42900977676481" lon="12.640445617456056"><ele>448.0</ele><time>2026-04-27T12:41:08.999Z</time></trkpt><trkpt lat="43.42913420881898" lon="12.640373876665718"><ele>447.0</ele><time>2026-04-27T12:41:09.999Z</time></trkpt><trkpt lat="43.42926458026472" lon="12.640298882507134"><ele>446.0</ele><time>2026-04-27T12:41:10.999Z</time></trkpt><trkpt lat="43.42939509775716" lon="12.640224192190356"><ele>446.5</ele><time>2026-04-27T12:41:11.999Z</time></trkpt><trkpt lat="43.42952297851542" lon="12.640150074498909"><ele>447.0</ele><time>2026-04-27T12:41:12.999Z</time></trkpt><trkpt lat="43.42965023056041" lon="12.640074980380572"><ele>447.5</ele><time>2026-04-27T12:41:13.999Z</time></trkpt><trkpt lat="43.42977593494632" lon="12.640000936381263"><ele>448.0</ele><time>2026-04-27T12:41:14.999Z</time></trkpt><trkpt lat="43.42990003418539" lon="12.639929486440385"><ele>448.0</ele><time>2026-04-27T12:41:15.999Z</time></trkpt><trkpt lat="43.43002237454428" lon="12.639861152828148"><ele>448.0</ele><time>2026-04-27T12:41:16.999Z</time></trkpt><trkpt lat="43.430143165190486" lon="12.639792922651623"><ele>448.0</ele><time>2026-04-27T12:41:17.999Z</time></trkpt><trkpt lat="43.43026384844904" lon="12.639728752737941"><ele>448.0</ele><time>2026-04-27T12:41:18.999Z</time></trkpt><trkpt lat="43.430385795982026" lon="12.639679686688524"><ele>447.75</ele><time>2026-04-27T12:41:19.999Z</time></trkpt><trkpt lat="43.43050924801036" lon="12.639646707010831"><ele>447.5</ele><time>2026-04-27T12:41:20.999Z</time></trkpt><trkpt lat="43.43063681003956" lon="12.639639190502217"><ele>447.25</ele><time>2026-04-27T12:41:21.999Z</time></trkpt><trkpt lat="43.43076372674191" lon="12.639657948582228"><ele>447.0</ele><time>2026-04-27T12:41:22.999Z</time></trkpt><trkpt lat="43.43088664044767" lon="12.639697251577822"><ele>447.0</ele><time>2026-04-27T12:41:23.999Z</time></trkpt><trkpt lat="43.431008779997065" lon="12.639739172118569"><ele>447.0</ele><time>2026-04-27T12:41:24.999Z</time></trkpt><trkpt lat="43.431130965448965" lon="12.639782234213444"><ele>447.0</ele><time>2026-04-27T12:41:25.999Z</time></trkpt><trkpt lat="43.43125245241667" lon="12.639825449007388"><ele>447.0</ele><time>2026-04-27T12:41:27Z</time></trkpt><trkpt lat="43.43137322662882" lon="12.639874096414761"><ele>448.0</ele><time>2026-04-27T12:41:28Z</time></trkpt><trkpt lat="43.431482968332766" lon="12.639942635591934"><ele>449.00000000000006</ele><time>2026-04-27T12:41:29Z</time></trkpt><trkpt lat="43.431579877721845" lon="12.640027948745411"><ele>450.00000000000006</ele><time>2026-04-27T12:41:30Z</time></trkpt><trkpt lat="43.431663534691225" lon="12.640124464621584"><ele>451.0</ele><time>2026-04-27T12:41:31Z</time></trkpt><trkpt lat="43.431742914403635" lon="12.640212227185986"><ele>452.0</ele><time>2026-04-27T12:41:32Z</time></trkpt><trkpt lat="43.431813188641065" lon="12.640302249397713"><ele>452.20000000000005</ele><time>2026-04-27T12:41:33Z</time></trkpt><trkpt lat="43.43188134551155" lon="12.640382809790811"><ele>452.40000000000003</ele><time>2026-04-27T12:41:34Z</time></trkpt><trkpt lat="43.43195586305941" lon="12.640443468840788"><ele>452.59999999999997</ele><time>2026-04-27T12:41:35Z</time></trkpt><trkpt lat="43.432041636760204" lon="12.640487047054327"><ele>452.79999999999995</ele><time>2026-04-27T12:41:36Z</time></trkpt><trkpt lat="43.43213485839589" lon="12.640519486753513"><ele>453.0</ele><time>2026-04-27T12:41:37Z</time></trkpt><trkpt lat="43.4322367522031" lon="12.640534749370422"><ele>454.4</ele><time>2026-04-27T12:41:38Z</time></trkpt><trkpt lat="43.43233690569273" lon="12.64054505405847"><ele>455.79999999999995</ele><time>2026-04-27T12:41:39Z</time></trkpt><trkpt lat="43.432436872379824" lon="12.640555783281059"><ele>457.2</ele><time>2026-04-27T12:41:40Z</time></trkpt><trkpt lat="43.43252942624042" lon="12.640564056470232"><ele>458.6</ele><time>2026-04-27T12:41:41Z</time></trkpt><trkpt lat="43.43261571671477" lon="12.640571573622367"><ele>460.0</ele><time>2026-04-27T12:41:42Z</time></trkpt><trkpt lat="43.432695446464095" lon="12.64057766019267"><ele>460.00000000000006</ele><time>2026-04-27T12:41:43Z</time></trkpt><trkpt lat="43.43276942869516" lon="12.640580000282975"><ele>460.0</ele><time>2026-04-27T12:41:44Z</time></trkpt><trkpt lat="43.43283700478265" lon="12.640573228488098"><ele>460.0</ele><time>2026-04-27T12:41:45Z</time></trkpt><trkpt lat="43.43290696139335" lon="12.640541943516888"><ele>460.0</ele><time>2026-04-27T12:41:46Z</time></trkpt><trkpt lat="43.43297634850598" lon="12.640483128882531"><ele>460.00000000000006</ele><time>2026-04-27T12:41:47Z</time></trkpt><trkpt lat="43.43304244835654" lon="12.640400854589839"><ele>460.0</ele><time>2026-04-27T12:41:48Z</time></trkpt><trkpt lat="43.43311261269354" lon="12.640317333033988"><ele>459.4</ele><time>2026-04-27T12:41:49Z</time></trkpt><trkpt lat="43.43318369707385" lon="12.64022159080243"><ele>458.8</ele><time>2026-04-27T12:41:50Z</time></trkpt><trkpt lat="43.43325357772657" lon="12.64012988952591"><ele>458.20000000000005</ele><time>2026-04-27T12:41:51Z</time></trkpt><trkpt lat="43.43332673118726" lon="12.640037964523925"><ele>457.6</ele><time>2026-04-27T12:41:52Z</time></trkpt><trkpt lat="43.433407020074654" lon="12.639967263138814"><ele>457.0</ele><time>2026-04-27T12:41:53Z</time></trkpt><trkpt lat="43.43349399112464" lon="12.639931073267265"><ele>457.00000000000006</ele><time>2026-04-27T12:41:54Z</time></trkpt><trkpt lat="43.433587260889226" lon="12.639920560268418"><ele>457.0</ele><time>2026-04-27T12:41:55Z</time></trkpt><trkpt lat="43.433679248024085" lon="12.639936315686628"><ele>457.0</ele><time>2026-04-27T12:41:56Z</time></trkpt><trkpt lat="43.43376567087996" lon="12.639969420606638"><ele>457.0</ele><time>2026-04-27T12:41:57Z</time></trkpt><trkpt lat="43.43384934047233" lon="12.640003380894216"><ele>457.00000000000006</ele><time>2026-04-27T12:41:58Z</time></trkpt><trkpt lat="43.43393417780518" lon="12.64002137006383"><ele>457.0</ele><time>2026-04-27T12:41:59Z</time></trkpt><trkpt lat="43.43401666026333" lon="12.640019008898458"><ele>456.0</ele><time>2026-04-27T12:42:00Z</time></trkpt><trkpt lat="43.43410610534291" lon="12.640021113038197"><ele>455.00000000000006</ele><time>2026-04-27T12:42:01Z</time></trkpt><trkpt lat="43.43419229961473" lon="12.639953927395453"><ele>454.00000000000006</ele><time>2026-04-27T12:42:01.999Z</time></trkpt><trkpt lat="43.43426576530058" lon="12.639850772478583"><ele>453.0</ele><time>2026-04-27T12:42:02.999Z</time></trkpt><trkpt lat="43.434347406022574" lon="12.639754110540686"><ele>452.0</ele><time>2026-04-27T12:42:03.999Z</time></trkpt><trkpt lat="43.43443589426287" lon="12.639652514425253"><ele>452.0</ele><time>2026-04-27T12:42:04.999Z</time></trkpt><trkpt lat="43.43452145072886" lon="12.639547583327907"><ele>452.00000000000006</ele><time>2026-04-27T12:42:05.999Z</time></trkpt><trkpt lat="43.43460262788644" lon="12.639443342347407"><ele>452.00000000000006</ele><time>2026-04-27T12:42:06.999Z</time></trkpt><trkpt lat="43.43468156362657" lon="12.639332383919369"><ele>452.0</ele><time>2026-04-27T12:42:07.999Z</time></trkpt><trkpt lat="43.43474765144217" lon="12.639213554409551"><ele>452.0</ele><time>2026-04-27T12:42:08.999Z</time></trkpt><trkpt lat="43.434809373129475" lon="12.639094573107608"><ele>450.6</ele><time>2026-04-27T12:42:09.999Z</time></trkpt><trkpt lat="43.43487013416625" lon="12.638983286124772"><ele>449.20000000000005</ele><time>2026-04-27T12:42:10.999Z</time></trkpt><trkpt lat="43.434932096688776" lon="12.638885763994354"><ele>447.8</ele><time>2026-04-27T12:42:11.999Z</time></trkpt><trkpt lat="43.43500481149633" lon="12.638803470506332"><ele>446.4</ele><time>2026-04-27T12:42:12.999Z</time></trkpt><trkpt lat="43.435080299356024" lon="12.638743030275329"><ele>445.0</ele><time>2026-04-27T12:42:13.999Z</time></trkpt><trkpt lat="43.43515216051175" lon="12.638688651952426"><ele>445.00000000000006</ele><time>2026-04-27T12:42:14.999Z</time></trkpt><trkpt lat="43.4352225730146" lon="12.638637752378912"><ele>445.0</ele><time>2026-04-27T12:42:15.999Z</time></trkpt><trkpt lat="43.43528528100047" lon="12.638577871212787"><ele>445.0</ele><time>2026-04-27T12:42:16.999Z</time></trkpt><trkpt lat="43.43533676280113" lon="12.638512198777388"><ele>445.0</ele><time>2026-04-27T12:42:17.999Z</time></trkpt><trkpt lat="43.43538853107911" lon="12.638449868443928"><ele>445.00000000000006</ele><time>2026-04-27T12:42:18.999Z</time></trkpt><trkpt lat="43.43541248802702" lon="12.638333735368187"><ele>445.0</ele><time>2026-04-27T12:42:19.999Z</time></trkpt><trkpt lat="43.435388029122315" lon="12.638199825940083"><ele>446.2</ele><time>2026-04-27T12:42:20.999Z</time></trkpt><trkpt lat="43.43535904373287" lon="12.638061510770461"><ele>447.4</ele><time>2026-04-27T12:42:21.999Z</time></trkpt><trkpt lat="43.435327693077745" lon="12.637920138545141"><ele>448.6</ele><time>2026-04-27T12:42:22.999Z</time></trkpt><trkpt lat="43.435298755069425" lon="12.637792598652831"><ele>449.8</ele><time>2026-04-27T12:42:23.999Z</time></trkpt><trkpt lat="43.43527368815693" lon="12.637674948563394"><ele>451.0</ele><time>2026-04-27T12:42:24.999Z</time></trkpt><trkpt lat="43.43525282531406" lon="12.637563110244109"><ele>451.0</ele><time>2026-04-27T12:42:25.999Z</time></trkpt><trkpt lat="43.43522882509906" lon="12.637468424760463"><ele>451.0</ele><time>2026-04-27T12:42:26.999Z</time></trkpt><trkpt lat="43.43520150613527" lon="12.63738658319873"><ele>451.0</ele><time>2026-04-27T12:42:27.999Z</time></trkpt><trkpt lat="43.43515576105422" lon="12.637301422659482"><ele>451.0</ele><time>2026-04-27T12:42:28.999Z</time></trkpt><trkpt lat="43.43509662384861" lon="12.637238820822875"><ele>451.0</ele><time>2026-04-27T12:42:29.999Z</time></trkpt><trkpt lat="43.43503846768553" lon="12.637167077272919"><ele>451.0</ele><time>2026-04-27T12:42:30.999Z</time></trkpt><trkpt lat="43.434973712735776" lon="12.637115794926178"><ele>451.0</ele><time>2026-04-27T12:42:31.999Z</time></trkpt><trkpt lat="43.4349179069997" lon="12.637070907372948"><ele>451.0</ele><time>2026-04-27T12:42:32.999Z</time></trkpt><trkpt lat="43.4348062118153" lon="12.636999373143414"><ele>451.0</ele><time>2026-04-27T12:42:34.999Z</time></trkpt><trkpt lat="43.43474107689564" lon="12.636853943098153"><ele>451.0</ele><time>2026-04-27T12:42:36.999Z</time></trkpt><trkpt lat="43.43474634463849" lon="12.636764864671932"><ele>451.0</ele><time>2026-04-27T12:42:37.999Z</time></trkpt><trkpt lat="43.43479754958235" lon="12.63667545732967"><ele>451.0</ele><time>2026-04-27T12:42:38.999Z</time></trkpt><trkpt lat="43.43482993236846" lon="12.636567435295513"><ele>446.75</ele><time>2026-04-27T12:42:39.999Z</time></trkpt><trkpt lat="43.43488118067906" lon="12.636458359160086"><ele>442.5</ele><time>2026-04-27T12:42:40.999Z</time></trkpt><trkpt lat="43.43494619319956" lon="12.636343041253621"><ele>438.25</ele><time>2026-04-27T12:42:41.999Z</time></trkpt><trkpt lat="43.43503037005158" lon="12.63622841610497"><ele>434.0</ele><time>2026-04-27T12:42:42.999Z</time></trkpt><trkpt lat="43.4351279756141" lon="12.636108010568774"><ele>431.75</ele><time>2026-04-27T12:42:43.999Z</time></trkpt><trkpt lat="43.43523089644037" lon="12.63597740096142"><ele>429.5</ele><time>2026-04-27T12:42:44.999Z</time></trkpt><trkpt lat="43.4353377002057" lon="12.635837374723936"><ele>427.25</ele><time>2026-04-27T12:42:45.999Z</time></trkpt><trkpt lat="43.435444773424884" lon="12.63569667804358"><ele>425.0</ele><time>2026-04-27T12:42:46.999Z</time></trkpt><trkpt lat="43.435557075820505" lon="12.63555730569608"><ele>425.0</ele><time>2026-04-27T12:42:47.999Z</time></trkpt><trkpt lat="43.435678109142806" lon="12.635436569929933"><ele>425.0</ele><time>2026-04-27T12:42:48.999Z</time></trkpt><trkpt lat="43.43577982338033" lon="12.635311507646103"><ele>425.0</ele><time>2026-04-27T12:42:49.999Z</time></trkpt><trkpt lat="43.43587971025257" lon="12.635191483816728"><ele>425.0</ele><time>2026-04-27T12:42:50.999Z</time></trkpt><trkpt lat="43.43597533247057" lon="12.635058176147954"><ele>425.0</ele><time>2026-04-27T12:42:51.999Z</time></trkpt><trkpt lat="43.436087204610665" lon="12.63495035855744"><ele>425.0</ele><time>2026-04-27T12:42:52.999Z</time></trkpt><trkpt lat="43.436200730483" lon="12.634847086969202"><ele>425.0</ele><time>2026-04-27T12:42:53.999Z</time></trkpt><trkpt lat="43.43631180603774" lon="12.634737439666573"><ele>425.0</ele><time>2026-04-27T12:42:54.999Z</time></trkpt><trkpt lat="43.436420148563286" lon="12.634621973118044"><ele>425.5</ele><time>2026-04-27T12:42:55.999Z</time></trkpt><trkpt lat="43.43652169888363" lon="12.634505669297445"><ele>426.0</ele><time>2026-04-27T12:42:56.999Z</time></trkpt><trkpt lat="43.43661896562749" lon="12.634388238143023"><ele>426.5</ele><time>2026-04-27T12:42:57.999Z</time></trkpt><trkpt lat="43.436715537873646" lon="12.634277015959823"><ele>427.0</ele><time>2026-04-27T12:42:58.999Z</time></trkpt><trkpt lat="43.436815222333735" lon="12.63417048948109"><ele>427.0</ele><time>2026-04-27T12:42:59.999Z</time></trkpt><trkpt lat="43.43691580443011" lon="12.634066710278558"><ele>427.0</ele><time>2026-04-27T12:43:00.999Z</time></trkpt><trkpt lat="43.437018062922775" lon="12.633967575021737"><ele>427.0</ele><time>2026-04-27T12:43:01.999Z</time></trkpt><trkpt lat="43.43712218322275" lon="12.633875320228242"><ele>427.0</ele><time>2026-04-27T12:43:02.999Z</time></trkpt><trkpt lat="43.43723015573866" lon="12.633793943177984"><ele>424.0</ele><time>2026-04-27T12:43:03.999Z</time></trkpt><trkpt lat="43.43734133450058" lon="12.63372500667374"><ele>421.0</ele><time>2026-04-27T12:43:04.999Z</time></trkpt><trkpt lat="43.437454453967966" lon="12.633662264613294"><ele>418.0</ele><time>2026-04-27T12:43:05.999Z</time></trkpt><trkpt lat="43.43756736564795" lon="12.633605001211137"><ele>415.0</ele><time>2026-04-27T12:43:06.999Z</time></trkpt><trkpt lat="43.43768274919833" lon="12.63355863320319"><ele>415.0</ele><time>2026-04-27T12:43:07.999Z</time></trkpt><trkpt lat="43.43779952966543" lon="12.633526004096368"><ele>415.0</ele><time>2026-04-27T12:43:08.999Z</time></trkpt><trkpt lat="43.43791696590381" lon="12.633501533534083"><ele>415.0</ele><time>2026-04-27T12:43:09.999Z</time></trkpt><trkpt lat="43.438034296982345" lon="12.633480774547996"><ele>415.0</ele><time>2026-04-27T12:43:10.999Z</time></trkpt><trkpt lat="43.438150675300335" lon="12.633461284753231"><ele>415.25</ele><time>2026-04-27T12:43:11.999Z</time></trkpt><trkpt lat="43.43826759959706" lon="12.633443174625722"><ele>415.5</ele><time>2026-04-27T12:43:12.999Z</time></trkpt><trkpt lat="43.438385031399676" lon="12.633424543694646"><ele>415.75</ele><time>2026-04-27T12:43:13.999Z</time></trkpt><trkpt lat="43.43850339457774" lon="12.633408375528969"><ele>416.0</ele><time>2026-04-27T12:43:14.999Z</time></trkpt><trkpt lat="43.438620982859085" lon="12.633389090880305"><ele>416.0</ele><time>2026-04-27T12:43:15.999Z</time></trkpt><trkpt lat="43.43873691905622" lon="12.633365264613188"><ele>416.0</ele><time>2026-04-27T12:43:16.999Z</time></trkpt><trkpt lat="43.43885197499902" lon="12.63333526363966"><ele>416.0</ele><time>2026-04-27T12:43:17.999Z</time></trkpt><trkpt lat="43.43896811916564" lon="12.63330669168261"><ele>416.0</ele><time>2026-04-27T12:43:18.999Z</time></trkpt><trkpt lat="43.43908353805416" lon="12.633271733931482"><ele>417.5</ele><time>2026-04-27T12:43:19.999Z</time></trkpt><trkpt lat="43.43919923209057" lon="12.633236110447502"><ele>419.0</ele><time>2026-04-27T12:43:20.999Z</time></trkpt><trkpt lat="43.43931279003762" lon="12.633190617335194"><ele>420.5</ele><time>2026-04-27T12:43:21.999Z</time></trkpt><trkpt lat="43.439424494964264" lon="12.633141278839108"><ele>422.0</ele><time>2026-04-27T12:43:22.999Z</time></trkpt><trkpt lat="43.43953567789851" lon="12.633090795542081"><ele>423.25</ele><time>2026-04-27T12:43:23.999Z</time></trkpt><trkpt lat="43.43964771135354" lon="12.633038505574694"><ele>424.5</ele><time>2026-04-27T12:43:24.999Z</time></trkpt><trkpt lat="43.439761483966684" lon="12.632989522676661"><ele>425.75</ele><time>2026-04-27T12:43:25.999Z</time></trkpt><trkpt lat="43.439875368997" lon="12.632941985959592"><ele>427.0</ele><time>2026-04-27T12:43:26.999Z</time></trkpt><trkpt lat="43.439985942053106" lon="12.632892418275906"><ele>427.0</ele><time>2026-04-27T12:43:27.999Z</time></trkpt><trkpt lat="43.44009653552688" lon="12.632845519086693"><ele>427.0</ele><time>2026-04-27T12:43:28.999Z</time></trkpt><trkpt lat="43.44020708567354" lon="12.632794155905964"><ele>427.0</ele><time>2026-04-27T12:43:29.999Z</time></trkpt><trkpt lat="43.44031660647713" lon="12.632741884188862"><ele>427.0</ele><time>2026-04-27T12:43:30.999Z</time></trkpt><trkpt lat="43.4404278268354" lon="12.632690128834838"><ele>422.75</ele><time>2026-04-27T12:43:31.999Z</time></trkpt><trkpt lat="43.440546988455466" lon="12.632635516184479"><ele>418.5</ele><time>2026-04-27T12:43:33Z</time></trkpt><trkpt lat="43.440672704513695" lon="12.632581256087386"><ele>414.25</ele><time>2026-04-27T12:43:34Z</time></trkpt><trkpt lat="43.44080201842894" lon="12.632527564614637"><ele>410.0</ele><time>2026-04-27T12:43:35Z</time></trkpt><trkpt lat="43.44093428093106" lon="12.63246783480601"><ele>410.0</ele><time>2026-04-27T12:43:36Z</time></trkpt><trkpt lat="43.44107004308697" lon="12.632409341102464"><ele>410.0</ele><time>2026-04-27T12:43:37Z</time></trkpt><trkpt lat="43.44120551124126" lon="12.63235628387246"><ele>410.0</ele><time>2026-04-27T12:43:38Z</time></trkpt><trkpt lat="43.441343308412634" lon="12.632317002629376"><ele>410.0</ele><time>2026-04-27T12:43:39Z</time></trkpt><trkpt lat="43.44148265705201" lon="12.632311040642344"><ele>410.5</ele><time>2026-04-27T12:43:40Z</time></trkpt><trkpt lat="43.441617368472386" lon="12.63233085437096"><ele>411.0</ele><time>2026-04-27T12:43:41Z</time></trkpt><trkpt lat="43.44174745032652" lon="12.632375561706812"><ele>411.5</ele><time>2026-04-27T12:43:42Z</time></trkpt><trkpt lat="43.441876973584726" lon="12.632446294832162"><ele>412.0</ele><time>2026-04-27T12:43:43Z</time></trkpt><trkpt lat="43.442002138384034" lon="12.63253778549208"><ele>412.0</ele><time>2026-04-27T12:43:43.999Z</time></trkpt><trkpt lat="43.44211877794996" lon="12.632645611634242"><ele>412.0</ele><time>2026-04-27T12:43:45Z</time></trkpt><trkpt lat="43.44221896173131" lon="12.632769255282096"><ele>412.0</ele><time>2026-04-27T12:43:46Z</time></trkpt><trkpt lat="43.4423071339154" lon="12.632890908858482"><ele>412.0</ele><time>2026-04-27T12:43:47Z</time></trkpt><trkpt lat="43.44238952635436" lon="12.633006936570633"><ele>412.20000000000005</ele><time>2026-04-27T12:43:48Z</time></trkpt><trkpt lat="43.44246736874824" lon="12.633115649022047"><ele>412.4</ele><time>2026-04-27T12:43:48.999Z</time></trkpt><trkpt lat="43.44253681132437" lon="12.63321182823832"><ele>412.6</ele><time>2026-04-27T12:43:49.999Z</time></trkpt><trkpt lat="43.44260091932865" lon="12.633298850113897"><ele>412.79999999999995</ele><time>2026-04-27T12:43:50.999Z</time></trkpt><trkpt lat="43.44266121369769" lon="12.633380254968317"><ele>413.0</ele><time>2026-04-27T12:43:51.999Z</time></trkpt><trkpt lat="43.442724806659" lon="12.633463534652048"><ele>413.0</ele><time>2026-04-27T12:43:52.999Z</time></trkpt><trkpt lat="43.44280134495098" lon="12.633565272534861"><ele>413.0</ele><time>2026-04-27T12:43:53.999Z</time></trkpt><trkpt lat="43.44288680580657" lon="12.633675296237554"><ele>413.0</ele><time>2026-04-27T12:43:54.999Z</time></trkpt><trkpt lat="43.44298346716297" lon="12.633784257002855"><ele>413.0</ele><time>2026-04-27T12:43:55.999Z</time></trkpt><trkpt lat="43.443094263311565" lon="12.633891429727736"><ele>410.0</ele><time>2026-04-27T12:43:56.999Z</time></trkpt><trkpt lat="43.44321462876787" lon="12.633999411932939"><ele>407.0</ele><time>2026-04-27T12:43:57.999Z</time></trkpt><trkpt lat="43.44334192130093" lon="12.63410865516268"><ele>404.0</ele><time>2026-04-27T12:43:58.999Z</time></trkpt><trkpt lat="43.443480737798254" lon="12.63420709721746"><ele>404.0</ele><time>2026-04-27T12:43:59.999Z</time></trkpt><trkpt lat="43.443630733525126" lon="12.634295665190745"><ele>404.0</ele><time>2026-04-27T12:44:00.999Z</time></trkpt><trkpt lat="43.44378741738788" lon="12.634362891388635"><ele>404.0</ele><time>2026-04-27T12:44:01.999Z</time></trkpt><trkpt lat="43.44394996064932" lon="12.634413218518148"><ele>402.0</ele><time>2026-04-27T12:44:02.999Z</time></trkpt><trkpt lat="43.444117407400896" lon="12.634444134751226"><ele>400.0</ele><time>2026-04-27T12:44:03.999Z</time></trkpt><trkpt lat="43.44429044634979" lon="12.634455359489822"><ele>398.0</ele><time>2026-04-27T12:44:04.999Z</time></trkpt><trkpt lat="43.444471425143064" lon="12.634443892869173"><ele>397.66666666666663</ele><time>2026-04-27T12:44:05.999Z</time></trkpt><trkpt lat="43.444656414382344" lon="12.634406276096996"><ele>397.33333333333337</ele><time>2026-04-27T12:44:06.999Z</time></trkpt><trkpt lat="43.44484633727513" lon="12.634347553415141"><ele>397.0</ele><time>2026-04-27T12:44:07.999Z</time></trkpt><trkpt lat="43.44503270567157" lon="12.634260469512753"><ele>397.0</ele><time>2026-04-27T12:44:08.999Z</time></trkpt><trkpt lat="43.44520912247975" lon="12.634158202562237"><ele>397.0</ele><time>2026-04-27T12:44:09.999Z</time></trkpt><trkpt lat="43.445385843545814" lon="12.634056057983614"><ele>397.0</ele><time>2026-04-27T12:44:10.999Z</time></trkpt><trkpt lat="43.445565768842044" lon="12.633975402617398"><ele>397.6666666666667</ele><time>2026-04-27T12:44:11.999Z</time></trkpt><trkpt lat="43.44576269567142" lon="12.633918423707238"><ele>398.33333333333337</ele><time>2026-04-27T12:44:12.999Z</time></trkpt><trkpt lat="43.44595843038124" lon="12.633880536390597"><ele>399.0</ele><time>2026-04-27T12:44:13.999Z</time></trkpt><trkpt lat="43.446152632552604" lon="12.63387213368992"><ele>399.0</ele><time>2026-04-27T12:44:14.999Z</time></trkpt><trkpt lat="43.446342207562765" lon="12.633894687413935"><ele>399.0</ele><time>2026-04-27T12:44:15.999Z</time></trkpt><trkpt lat="43.4465371662954" lon="12.633946153203992"><ele>399.0</ele><time>2026-04-27T12:44:16.999Z</time></trkpt><trkpt lat="43.446727955597744" lon="12.634008118004802"><ele>399.0</ele><time>2026-04-27T12:44:17.999Z</time></trkpt><trkpt lat="43.446917454373484" lon="12.634068535458209"><ele>399.0</ele><time>2026-04-27T12:44:18.999Z</time></trkpt><trkpt lat="43.44710221241235" lon="12.634125498589768"><ele>399.0</ele><time>2026-04-27T12:44:19.999Z</time></trkpt><trkpt lat="43.44728295410263" lon="12.634175118594761"><ele>398.0</ele><time>2026-04-27T12:44:20.999Z</time></trkpt><trkpt lat="43.44746339036797" lon="12.634212751379462"><ele>397.0</ele><time>2026-04-27T12:44:21.999Z</time></trkpt><trkpt lat="43.447645154092505" lon="12.634238098953032"><ele>396.0</ele><time>2026-04-27T12:44:22.999Z</time></trkpt><trkpt lat="43.447828015411595" lon="12.634249169117433"><ele>393.66666666666663</ele><time>2026-04-27T12:44:23.999Z</time></trkpt><trkpt lat="43.44801183438377" lon="12.634248334739247"><ele>391.3333333333333</ele><time>2026-04-27T12:44:24.999Z</time></trkpt><trkpt lat="43.44819758897347" lon="12.634236027064915"><ele>389.0</ele><time>2026-04-27T12:44:25.999Z</time></trkpt><trkpt lat="43.448384476633564" lon="12.63421682658337"><ele>389.0</ele><time>2026-04-27T12:44:26.999Z</time></trkpt><trkpt lat="43.448570877053314" lon="12.634202649249413"><ele>389.0</ele><time>2026-04-27T12:44:27.999Z</time></trkpt><trkpt lat="43.44876170177342" lon="12.63420672507139"><ele>389.0</ele><time>2026-04-27T12:44:28.999Z</time></trkpt><trkpt lat="43.44895544116067" lon="12.63422423421531"><ele>388.3333333333333</ele><time>2026-04-27T12:44:29.999Z</time></trkpt><trkpt lat="43.44915024520247" lon="12.634246257512034"><ele>387.66666666666663</ele><time>2026-04-27T12:44:30.999Z</time></trkpt><trkpt lat="43.44934173353222" lon="12.634263190203882"><ele>387.0</ele><time>2026-04-27T12:44:31.999Z</time></trkpt><trkpt lat="43.44952996031588" lon="12.634269191742101"><ele>386.66666666666663</ele><time>2026-04-27T12:44:32.999Z</time></trkpt><trkpt lat="43.449716681594154" lon="12.634264287447174"><ele>386.3333333333333</ele><time>2026-04-27T12:44:33.999Z</time></trkpt><trkpt lat="43.44990047585724" lon="12.63424587544672"><ele>386.0</ele><time>2026-04-27T12:44:34.999Z</time></trkpt><trkpt lat="43.45008087002561" lon="12.634215710007322"><ele>386.0</ele><time>2026-04-27T12:44:35.999Z</time></trkpt><trkpt lat="43.450258978953066" lon="12.634176234747404"><ele>386.0</ele><time>2026-04-27T12:44:36.999Z</time></trkpt><trkpt lat="43.45044380485268" lon="12.634123417586531"><ele>386.0</ele><time>2026-04-27T12:44:37.999Z</time></trkpt><trkpt lat="43.45063726904994" lon="12.634055494964658"><ele>388.0</ele><time>2026-04-27T12:44:38.999Z</time></trkpt><trkpt lat="43.450835318798724" lon="12.633974772547983"><ele>390.0</ele><time>2026-04-27T12:44:39.999Z</time></trkpt><trkpt lat="43.45103466016403" lon="12.633881019991996"><ele>392.0</ele><time>2026-04-27T12:44:40.999Z</time></trkpt><trkpt lat="43.451233282290765" lon="12.633769663063678"><ele>393.3333333333333</ele><time>2026-04-27T12:44:41.999Z</time></trkpt><trkpt lat="43.45143244634104" lon="12.63364741956502"><ele>394.66666666666663</ele><time>2026-04-27T12:44:42.999Z</time></trkpt><trkpt lat="43.45163062888101" lon="12.633515168961683"><ele>396.0</ele><time>2026-04-27T12:44:43.999Z</time></trkpt><trkpt lat="43.45182552897095" lon="12.633373081651326"><ele>392.66666666666663</ele><time>2026-04-27T12:44:44.999Z</time></trkpt><trkpt lat="43.45201607468219" lon="12.633222220939324"><ele>389.3333333333333</ele><time>2026-04-27T12:44:45.999Z</time></trkpt><trkpt lat="43.452204197300766" lon="12.633064113635257"><ele>386.0</ele><time>2026-04-27T12:44:46.999Z</time></trkpt><trkpt lat="43.45238821885383" lon="12.632900472002497"><ele>386.0</ele><time>2026-04-27T12:44:47.999Z</time></trkpt><trkpt lat="43.4525701451551" lon="12.632733201338274"><ele>386.0</ele><time>2026-04-27T12:44:48.999Z</time></trkpt><trkpt lat="43.45274715247422" lon="12.632560643324252"><ele>386.0</ele><time>2026-04-27T12:44:49.999Z</time></trkpt><trkpt lat="43.452918401539094" lon="12.632381508677888"><ele>385.66666666666663</ele><time>2026-04-27T12:44:50.999Z</time></trkpt><trkpt lat="43.45308571281515" lon="12.632202460563931"><ele>385.33333333333337</ele><time>2026-04-27T12:44:51.999Z</time></trkpt><trkpt lat="43.45324790453566" lon="12.632020719814147"><ele>385.0</ele><time>2026-04-27T12:44:52.999Z</time></trkpt><trkpt lat="43.45340503898438" lon="12.63184193530253"><ele>385.0</ele><time>2026-04-27T12:44:53.999Z</time></trkpt><trkpt lat="43.45355955460973" lon="12.631665373057702"><ele>385.0</ele><time>2026-04-27T12:44:54.999Z</time></trkpt><trkpt lat="43.45370812908149" lon="12.631490296871048"><ele>385.0</ele><time>2026-04-27T12:44:55.999Z</time></trkpt><trkpt lat="43.4538549959397" lon="12.631318649152513"><ele>383.6666666666667</ele><time>2026-04-27T12:44:56.999Z</time></trkpt><trkpt lat="43.45400222835209" lon="12.63114720788177"><ele>382.33333333333337</ele><time>2026-04-27T12:44:57.999Z</time></trkpt><trkpt lat="43.45415012843404" lon="12.630976549005489"><ele>381.0</ele><time>2026-04-27T12:44:58.999Z</time></trkpt><trkpt lat="43.454293607239926" lon="12.63080852605305"><ele>381.0</ele><time>2026-04-27T12:44:59.999Z</time></trkpt><trkpt lat="43.45443592334197" lon="12.630643467052641"><ele>381.0</ele><time>2026-04-27T12:45:00.999Z</time></trkpt><trkpt lat="43.45457713102342" lon="12.63048418416787"><ele>381.0</ele><time>2026-04-27T12:45:01.999Z</time></trkpt><trkpt lat="43.45471703334562" lon="12.63032942894397"><ele>380.3333333333333</ele><time>2026-04-27T12:45:02.999Z</time></trkpt><trkpt lat="43.454859529582194" lon="12.63017258660979"><ele>379.66666666666663</ele><time>2026-04-27T12:45:03.999Z</time></trkpt><trkpt lat="43.45500623915707" lon="12.630018808134794"><ele>379.0</ele><time>2026-04-27T12:45:04.999Z</time></trkpt><trkpt lat="43.45515726460574" lon="12.629864827285415"><ele>379.0</ele><time>2026-04-27T12:45:05.999Z</time></trkpt><trkpt lat="43.45530760586601" lon="12.629712355415938"><ele>379.0</ele><time>2026-04-27T12:45:06.999Z</time></trkpt><trkpt lat="43.455462052369015" lon="12.629562974773291"><ele>379.0</ele><time>2026-04-27T12:45:07.999Z</time></trkpt><trkpt lat="43.45562238479156" lon="12.62941847492275"><ele>379.3333333333333</ele><time>2026-04-27T12:45:08.999Z</time></trkpt><trkpt lat="43.45578541107177" lon="12.629276444676306"><ele>379.6666666666667</ele><time>2026-04-27T12:45:09.999Z</time></trkpt><trkpt lat="43.455950093112094" lon="12.629137965148756"><ele>380.0</ele><time>2026-04-27T12:45:10.999Z</time></trkpt><trkpt lat="43.456117775696185" lon="12.629005769901848"><ele>381.33333333333337</ele><time>2026-04-27T12:45:11.999Z</time></trkpt><trkpt lat="43.45628943114063" lon="12.62888071963764"><ele>382.6666666666667</ele><time>2026-04-27T12:45:12.999Z</time></trkpt><trkpt lat="43.45646412090818" lon="12.628761420285556"><ele>384.0</ele><time>2026-04-27T12:45:13.999Z</time></trkpt><trkpt lat="43.45664160085811" lon="12.62864781637625"><ele>383.3333333333333</ele><time>2026-04-27T12:45:14.999Z</time></trkpt><trkpt lat="43.45682056389636" lon="12.628544971138039"><ele>382.66666666666663</ele><time>2026-04-27T12:45:15.999Z</time></trkpt><trkpt lat="43.45699612512064" lon="12.628449071582612"><ele>382.0</ele><time>2026-04-27T12:45:16.999Z</time></trkpt><trkpt lat="43.45717131828186" lon="12.628360537556619"><ele>382.0</ele><time>2026-04-27T12:45:17.999Z</time></trkpt><trkpt lat="43.45734637914304" lon="12.628278678689009"><ele>382.0</ele><time>2026-04-27T12:45:18.999Z</time></trkpt><trkpt lat="43.45752329723568" lon="12.628204445731908"><ele>382.0</ele><time>2026-04-27T12:45:19.999Z</time></trkpt><trkpt lat="43.45770000735073" lon="12.628136472750215"><ele>382.0</ele><time>2026-04-27T12:45:20.999Z</time></trkpt><trkpt lat="43.45787601924681" lon="12.628076776043272"><ele>382.0</ele><time>2026-04-27T12:45:21.999Z</time></trkpt><trkpt lat="43.4580524991557" lon="12.628018930746185"><ele>382.0</ele><time>2026-04-27T12:45:22.999Z</time></trkpt><trkpt lat="43.45823107465066" lon="12.627967421723012"><ele>381.0</ele><time>2026-04-27T12:45:23.999Z</time></trkpt><trkpt lat="43.458408155327206" lon="12.62792486203716"><ele>380.0</ele><time>2026-04-27T12:45:24.999Z</time></trkpt><trkpt lat="43.4585850003971" lon="12.627889863887424"><ele>379.0</ele><time>2026-04-27T12:45:25.999Z</time></trkpt><trkpt lat="43.458760717148834" lon="12.627861380064525"><ele>378.66666666666663</ele><time>2026-04-27T12:45:26.999Z</time></trkpt><trkpt lat="43.45893520925498" lon="12.627836806043588"><ele>378.3333333333333</ele><time>2026-04-27T12:45:27.999Z</time></trkpt><trkpt lat="43.45911210732938" lon="12.62781477827213"><ele>378.0</ele><time>2026-04-27T12:45:28.999Z</time></trkpt><trkpt lat="43.45929192905674" lon="12.627799709811054"><ele>377.0</ele><time>2026-04-27T12:45:29.999Z</time></trkpt><trkpt lat="43.45947494711796" lon="12.62779280067396"><ele>376.0</ele><time>2026-04-27T12:45:30.999Z</time></trkpt><trkpt lat="43.45965856823584" lon="12.627788838362546"><ele>375.0</ele><time>2026-04-27T12:45:31.999Z</time></trkpt><trkpt lat="43.459843533687526" lon="12.627792523352076"><ele>374.6666666666667</ele><time>2026-04-27T12:45:32.999Z</time></trkpt><trkpt lat="43.46002754170523" lon="12.627806108658929"><ele>374.33333333333337</ele><time>2026-04-27T12:45:33.999Z</time></trkpt><trkpt lat="43.460211819453846" lon="12.627826425966266"><ele>374.0</ele><time>2026-04-27T12:45:34.999Z</time></trkpt><trkpt lat="43.46039472824588" lon="12.62785041641852"><ele>375.0</ele><time>2026-04-27T12:45:35.999Z</time></trkpt><trkpt lat="43.460577899686996" lon="12.627874653635091"><ele>376.0</ele><time>2026-04-27T12:45:36.999Z</time></trkpt><trkpt lat="43.46076154682948" lon="12.627902944746399"><ele>377.0</ele><time>2026-04-27T12:45:37.999Z</time></trkpt><trkpt lat="43.46094646649326" lon="12.627937290369932"><ele>377.0</ele><time>2026-04-27T12:45:39Z</time></trkpt><trkpt lat="43.4611311138268" lon="12.627972428056927"><ele>377.0</ele><time>2026-04-27T12:45:40Z</time></trkpt><trkpt lat="43.46131734176728" lon="12.62800698639109"><ele>377.0</ele><time>2026-04-27T12:45:40.999Z</time></trkpt><trkpt lat="43.461504817559586" lon="12.628041317641502"><ele>377.6666666666667</ele><time>2026-04-27T12:45:41.999Z</time></trkpt><trkpt lat="43.46169114909626" lon="12.62807314170884"><ele>378.3333333333333</ele><time>2026-04-27T12:45:42.999Z</time></trkpt><trkpt lat="43.46187786551571" lon="12.628109621606711"><ele>379.0</ele><time>2026-04-27T12:45:43.999Z</time></trkpt><trkpt lat="43.46206402231238" lon="12.628144683331987"><ele>380.3333333333333</ele><time>2026-04-27T12:45:44.999Z</time></trkpt><trkpt lat="43.462245844466075" lon="12.628179430771906"><ele>381.6666666666667</ele><time>2026-04-27T12:45:45.999Z</time></trkpt><trkpt lat="43.46242489686022" lon="12.628210260622728"><ele>383.0</ele><time>2026-04-27T12:45:46.999Z</time></trkpt><trkpt lat="43.46260082066569" lon="12.628235190869582"><ele>383.0</ele><time>2026-04-27T12:45:47.999Z</time></trkpt><trkpt lat="43.46277661204373" lon="12.628255199377149"><ele>383.0</ele><time>2026-04-27T12:45:48.999Z</time></trkpt><trkpt lat="43.462948576683274" lon="12.628266619057737"><ele>383.0</ele><time>2026-04-27T12:45:49.999Z</time></trkpt><trkpt lat="43.46312058955518" lon="12.62827589345961"><ele>381.0</ele><time>2026-04-27T12:45:50.999Z</time></trkpt><trkpt lat="43.463291065921446" lon="12.628282655818614"><ele>379.0</ele><time>2026-04-27T12:45:51.999Z</time></trkpt><trkpt lat="43.463463468024955" lon="12.628286467379956"><ele>377.0</ele><time>2026-04-27T12:45:52.999Z</time></trkpt><trkpt lat="43.46363517689677" lon="12.628285865809644"><ele>375.0</ele><time>2026-04-27T12:45:53.999Z</time></trkpt><trkpt lat="43.463808941402775" lon="12.628286245767043"><ele>373.0</ele><time>2026-04-27T12:45:54.999Z</time></trkpt><trkpt lat="43.46398367498759" lon="12.628277058383274"><ele>371.0</ele><time>2026-04-27T12:45:55.999Z</time></trkpt><trkpt lat="43.46415916895921" lon="12.628264567730302"><ele>371.0</ele><time>2026-04-27T12:45:56.999Z</time></trkpt><trkpt lat="43.464333343249926" lon="12.628249188044938"><ele>371.0</ele><time>2026-04-27T12:45:57.999Z</time></trkpt><trkpt lat="43.464508126973335" lon="12.628227780357276"><ele>371.0</ele><time>2026-04-27T12:45:58.999Z</time></trkpt><trkpt lat="43.464682409028676" lon="12.628202790350041"><ele>370.6666666666667</ele><time>2026-04-27T12:46:00Z</time></trkpt><trkpt lat="43.46485672324511" lon="12.628175057358467"><ele>370.3333333333333</ele><time>2026-04-27T12:46:01Z</time></trkpt><trkpt lat="43.46502937875863" lon="12.62814141023734"><ele>370.0</ele><time>2026-04-27T12:46:02Z</time></trkpt><trkpt lat="43.46520013601992" lon="12.628103386391505"><ele>370.0</ele><time>2026-04-27T12:46:03Z</time></trkpt><trkpt lat="43.46537136437671" lon="12.628057962714122"><ele>370.0</ele><time>2026-04-27T12:46:04Z</time></trkpt><trkpt lat="43.465540587591306" lon="12.62800391004133"><ele>370.0</ele><time>2026-04-27T12:46:05Z</time></trkpt><trkpt lat="43.46570898259686" lon="12.627944212741735"><ele>370.3333333333333</ele><time>2026-04-27T12:46:06Z</time></trkpt><trkpt lat="43.465874461618654" lon="12.627880394929354"><ele>370.6666666666667</ele><time>2026-04-27T12:46:07Z</time></trkpt><trkpt lat="43.46604356681062" lon="12.627810273880058"><ele>371.0</ele><time>2026-04-27T12:46:08Z</time></trkpt><trkpt lat="43.46621014240301" lon="12.627744387462458"><ele>374.6666666666667</ele><time>2026-04-27T12:46:09Z</time></trkpt><trkpt lat="43.46637645180926" lon="12.627674292683816"><ele>378.3333333333333</ele><time>2026-04-27T12:46:10Z</time></trkpt><trkpt lat="43.46654093971028" lon="12.627602741283667"><ele>382.0</ele><time>2026-04-27T12:46:11Z</time></trkpt><trkpt lat="43.46670423275641" lon="12.627525627918384"><ele>382.0</ele><time>2026-04-27T12:46:12Z</time></trkpt><trkpt lat="43.46686881741392" lon="12.627468008005774"><ele>382.0</ele><time>2026-04-27T12:46:13Z</time></trkpt><trkpt lat="43.46702682451438" lon="12.62736264508015"><ele>382.0</ele><time>2026-04-27T12:46:14Z</time></trkpt><trkpt lat="43.46718352669254" lon="12.627279734763206"><ele>384.0</ele><time>2026-04-27T12:46:15Z</time></trkpt><trkpt lat="43.46734350483592" lon="12.627190992070979"><ele>386.0</ele><time>2026-04-27T12:46:16Z</time></trkpt><trkpt lat="43.467501424573975" lon="12.627099476279527"><ele>388.0</ele><time>2026-04-27T12:46:17Z</time></trkpt><trkpt lat="43.467658441145346" lon="12.627007692096795"><ele>388.33333333333337</ele><time>2026-04-27T12:46:18Z</time></trkpt><trkpt lat="43.467815177091815" lon="12.626913952356798"><ele>388.66666666666663</ele><time>2026-04-27T12:46:19Z</time></trkpt><trkpt lat="43.46797210721577" lon="12.62681791534132"><ele>389.0</ele><time>2026-04-27T12:46:20Z</time></trkpt><trkpt lat="43.468129513130044" lon="12.626718858473131"><ele>391.66666666666663</ele><time>2026-04-27T12:46:21Z</time></trkpt><trkpt lat="43.468287669136686" lon="12.626617446176814"><ele>394.33333333333337</ele><time>2026-04-27T12:46:22Z</time></trkpt><trkpt lat="43.46844690104874" lon="12.626516259129316"><ele>397.0</ele><time>2026-04-27T12:46:23Z</time></trkpt><trkpt lat="43.46860751736836" lon="12.626417941988246"><ele>395.0</ele><time>2026-04-27T12:46:24Z</time></trkpt><trkpt lat="43.46878045428958" lon="12.626314519966387"><ele>393.0</ele><time>2026-04-27T12:46:25.073Z</time></trkpt><trkpt lat="43.46894221784748" lon="12.626221286709303"><ele>391.0</ele><time>2026-04-27T12:46:26.07Z</time></trkpt><trkpt lat="43.469104990542036" lon="12.626127965112383"><ele>407.5</ele><time>2026-04-27T12:46:27.068Z</time></trkpt><trkpt lat="43.46926815251895" lon="12.626033654142622"><ele>424.0</ele><time>2026-04-27T12:46:28.068Z</time></trkpt><trkpt lat="43.47089274924087" lon="12.624940483781687"><ele>374.0</ele><time>2026-04-27T12:46:32.081Z</time></trkpt><trkpt lat="43.47130174936898" lon="12.624682377446831"><ele>366.0</ele><time>2026-04-27T12:46:33.082Z</time></trkpt><trkpt lat="43.47236504689238" lon="12.624273519655315"><ele>366.0</ele><time>2026-04-27T12:46:45Z</time></trkpt><trkpt lat="43.47247425817311" lon="12.624232973241464"><ele>366.0</ele><time>2026-04-27T12:46:46Z</time></trkpt><trkpt lat="43.472653118961304" lon="12.62418582741068"><ele>366.0</ele><time>2026-04-27T12:46:47Z</time></trkpt><trkpt lat="43.47283842770214" lon="12.624153527441953"><ele>366.3333333333333</ele><time>2026-04-27T12:46:48Z</time></trkpt><trkpt lat="43.47302958852874" lon="12.624134216367947"><ele>366.66666666666663</ele><time>2026-04-27T12:46:49Z</time></trkpt><trkpt lat="43.47322480437075" lon="12.624126107008571"><ele>367.0</ele><time>2026-04-27T12:46:50Z</time></trkpt><trkpt lat="43.47341836279069" lon="12.624130471710144"><ele>367.0</ele><time>2026-04-27T12:46:51Z</time></trkpt><trkpt lat="43.47361214407003" lon="12.624145591434798"><ele>367.0</ele><time>2026-04-27T12:46:52Z</time></trkpt><trkpt lat="43.47380442961157" lon="12.624165968367407"><ele>367.0</ele><time>2026-04-27T12:46:53Z</time></trkpt><trkpt lat="43.47399498406423" lon="12.624190903094197"><ele>371.0</ele><time>2026-04-27T12:46:54Z</time></trkpt><trkpt lat="43.47418649887536" lon="12.62422102338054"><ele>375.0</ele><time>2026-04-27T12:46:55Z</time></trkpt><trkpt lat="43.47437787630949" lon="12.624252808525286"><ele>379.0</ele><time>2026-04-27T12:46:56Z</time></trkpt><trkpt lat="43.47456871501984" lon="12.624285035301872"><ele>376.3333333333333</ele><time>2026-04-27T12:46:57Z</time></trkpt><trkpt lat="43.47476169525875" lon="12.624313598594613"><ele>373.6666666666667</ele><time>2026-04-27T12:46:58Z</time></trkpt><trkpt lat="43.47496961286842" lon="12.624337760908325"><ele>371.0</ele><time>2026-04-27T12:46:59.071Z</time></trkpt><trkpt lat="43.475523730797114" lon="12.62436842413025"><ele>367.33333333333337</ele><time>2026-04-27T12:47:02Z</time></trkpt><trkpt lat="43.47570497974393" lon="12.624342480485614"><ele>363.6666666666667</ele><time>2026-04-27T12:47:03Z</time></trkpt><trkpt lat="43.47588871237637" lon="12.624310850307086"><ele>360.0</ele><time>2026-04-27T12:47:04Z</time></trkpt><trkpt lat="43.47606765743304" lon="12.624261747718178"><ele>360.0</ele><time>2026-04-27T12:47:05Z</time></trkpt><trkpt lat="43.47624225067088" lon="12.624206043055393"><ele>360.0</ele><time>2026-04-27T12:47:06Z</time></trkpt><trkpt lat="43.476415567910415" lon="12.624139150855525"><ele>360.0</ele><time>2026-04-27T12:47:07Z</time></trkpt><trkpt lat="43.476584925328474" lon="12.624062249480643"><ele>358.3333333333333</ele><time>2026-04-27T12:47:08Z</time></trkpt><trkpt lat="43.47675115284187" lon="12.62397214730165"><ele>356.66666666666663</ele><time>2026-04-27T12:47:09Z</time></trkpt><trkpt lat="43.47691770618506" lon="12.623868182355192"><ele>355.0</ele><time>2026-04-27T12:47:10Z</time></trkpt><trkpt lat="43.47708656260684" lon="12.623752984729006"><ele>355.0</ele><time>2026-04-27T12:47:11Z</time></trkpt><trkpt lat="43.477254665639556" lon="12.623631024320867"><ele>355.0</ele><time>2026-04-27T12:47:12Z</time></trkpt><trkpt lat="43.477421066648006" lon="12.62350070586721"><ele>355.0</ele><time>2026-04-27T12:47:13Z</time></trkpt><trkpt lat="43.47758548247228" lon="12.623367826132101"><ele>355.0</ele><time>2026-04-27T12:47:14Z</time></trkpt><trkpt lat="43.47774933665382" lon="12.623237009139128"><ele>355.0</ele><time>2026-04-27T12:47:15Z</time></trkpt><trkpt lat="43.47791198817817" lon="12.623107725139807"><ele>355.0</ele><time>2026-04-27T12:47:16Z</time></trkpt><trkpt lat="43.47807467673869" lon="12.622978474730417"><ele>354.3333333333333</ele><time>2026-04-27T12:47:17Z</time></trkpt><trkpt lat="43.478235716907136" lon="12.62284783130333"><ele>353.6666666666667</ele><time>2026-04-27T12:47:18Z</time></trkpt><trkpt lat="43.47839675978243" lon="12.622718237398686"><ele>353.0</ele><time>2026-04-27T12:47:19Z</time></trkpt><trkpt lat="43.47855754431132" lon="12.62259029094419"><ele>353.0</ele><time>2026-04-27T12:47:20Z</time></trkpt><trkpt lat="43.47871782708243" lon="12.622463571692329"><ele>353.0</ele><time>2026-04-27T12:47:21Z</time></trkpt><trkpt lat="43.47887692915313" lon="12.622338257145357"><ele>353.0</ele><time>2026-04-27T12:47:22Z</time></trkpt><trkpt lat="43.47903701490777" lon="12.622216104121296"><ele>352.6666666666667</ele><time>2026-04-27T12:47:23Z</time></trkpt><trkpt lat="43.47919718290564" lon="12.622096427183642"><ele>352.3333333333333</ele><time>2026-04-27T12:47:24Z</time></trkpt><trkpt lat="43.47935757707217" lon="12.621986615391942"><ele>352.0</ele><time>2026-04-27T12:47:25Z</time></trkpt><trkpt lat="43.479514469977865" lon="12.621886223993176"><ele>351.3333333333333</ele><time>2026-04-27T12:47:26Z</time></trkpt><trkpt lat="43.479669084624746" lon="12.621787296716148"><ele>350.6666666666667</ele><time>2026-04-27T12:47:27Z</time></trkpt><trkpt lat="43.47982320275577" lon="12.621694771274294"><ele>350.0</ele><time>2026-04-27T12:47:28Z</time></trkpt><trkpt lat="43.47998005286637" lon="12.621607002182623"><ele>350.0</ele><time>2026-04-27T12:47:29Z</time></trkpt><trkpt lat="43.48014165927398" lon="12.621524411000358"><ele>350.0</ele><time>2026-04-27T12:47:30Z</time></trkpt><trkpt lat="43.48030564839222" lon="12.62144709330864"><ele>350.0</ele><time>2026-04-27T12:47:31Z</time></trkpt><trkpt lat="43.480470372284586" lon="12.621372069443005"><ele>349.33333333333337</ele><time>2026-04-27T12:47:32Z</time></trkpt><trkpt lat="43.480634420564314" lon="12.621298484355032"><ele>348.6666666666667</ele><time>2026-04-27T12:47:33Z</time></trkpt><trkpt lat="43.480798812183835" lon="12.621225344147307"><ele>348.0</ele><time>2026-04-27T12:47:34Z</time></trkpt><trkpt lat="43.480965248879315" lon="12.621156594082494"><ele>349.3333333333333</ele><time>2026-04-27T12:47:35Z</time></trkpt><trkpt lat="43.48112990037969" lon="12.621090937071585"><ele>350.66666666666663</ele><time>2026-04-27T12:47:36Z</time></trkpt><trkpt lat="43.48129596689463" lon="12.621027112654783"><ele>352.0</ele><time>2026-04-27T12:47:37Z</time></trkpt><trkpt lat="43.48146173853931" lon="12.620967363405278"><ele>352.0</ele><time>2026-04-27T12:47:38Z</time></trkpt><trkpt lat="43.48162761078827" lon="12.620910785392326"><ele>352.0</ele><time>2026-04-27T12:47:39Z</time></trkpt><trkpt lat="43.481794923668296" lon="12.620858282520276"><ele>352.0</ele><time>2026-04-27T12:47:40Z</time></trkpt><trkpt lat="43.48196329996049" lon="12.620810384162656"><ele>351.66666666666663</ele><time>2026-04-27T12:47:41Z</time></trkpt><trkpt lat="43.482132007785545" lon="12.62076413290831"><ele>351.3333333333333</ele><time>2026-04-27T12:47:42Z</time></trkpt><trkpt lat="43.482300548143584" lon="12.620719456054001"><ele>351.0</ele><time>2026-04-27T12:47:43Z</time></trkpt><trkpt lat="43.48246877375142" lon="12.620675522800171"><ele>351.0</ele><time>2026-04-27T12:47:44Z</time></trkpt><trkpt lat="43.48263603640708" lon="12.62063201377582"><ele>351.0</ele><time>2026-04-27T12:47:45Z</time></trkpt><trkpt lat="43.482802278202286" lon="12.620586541013406"><ele>351.0</ele><time>2026-04-27T12:47:46Z</time></trkpt><trkpt lat="43.482969354313695" lon="12.620544027942586"><ele>350.0</ele><time>2026-04-27T12:47:47Z</time></trkpt><trkpt lat="43.48313672272738" lon="12.620502374630348"><ele>349.0</ele><time>2026-04-27T12:47:48Z</time></trkpt><trkpt lat="43.48330404706658" lon="12.620460072786697"><ele>348.0</ele><time>2026-04-27T12:47:49Z</time></trkpt><trkpt lat="43.48347048019831" lon="12.62041623999312"><ele>348.0</ele><time>2026-04-27T12:47:50Z</time></trkpt><trkpt lat="43.48363944633396" lon="12.620375514535683"><ele>348.0</ele><time>2026-04-27T12:47:51Z</time></trkpt><trkpt lat="43.483810259267024" lon="12.620333736422749"><ele>348.0</ele><time>2026-04-27T12:47:52Z</time></trkpt><trkpt lat="43.48398268716528" lon="12.620293339985443"><ele>346.3333333333333</ele><time>2026-04-27T12:47:53Z</time></trkpt><trkpt lat="43.48415962409288" lon="12.620257574850347"><ele>344.66666666666663</ele><time>2026-04-27T12:47:54Z</time></trkpt><trkpt lat="43.484335203257125" lon="12.620225436506237"><ele>343.0</ele><time>2026-04-27T12:47:55Z</time></trkpt><trkpt lat="43.48451208119203" lon="12.620193803915816"><ele>342.66666666666663</ele><time>2026-04-27T12:47:56Z</time></trkpt><trkpt lat="43.48468743243638" lon="12.620164962474353"><ele>342.3333333333333</ele><time>2026-04-27T12:47:57Z</time></trkpt><trkpt lat="43.484864721221854" lon="12.620138667762374"><ele>342.0</ele><time>2026-04-27T12:47:58Z</time></trkpt><trkpt lat="43.48504208787765" lon="12.620117750324995"><ele>342.0</ele><time>2026-04-27T12:47:59Z</time></trkpt><trkpt lat="43.485220498004075" lon="12.62009838213674"><ele>342.0</ele><time>2026-04-27T12:48:00Z</time></trkpt><trkpt lat="43.48539648848701" lon="12.620081600591869"><ele>342.0</ele><time>2026-04-27T12:48:01Z</time></trkpt><trkpt lat="43.4855729744688" lon="12.620068521503704"><ele>342.0</ele><time>2026-04-27T12:48:02Z</time></trkpt><trkpt lat="43.485750292373474" lon="12.620062035426736"><ele>342.0</ele><time>2026-04-27T12:48:03Z</time></trkpt><trkpt lat="43.485927649927284" lon="12.620062741590308"><ele>342.0</ele><time>2026-04-27T12:48:04Z</time></trkpt><trkpt lat="43.486105655049734" lon="12.620067543850658"><ele>342.3333333333333</ele><time>2026-04-27T12:48:05Z</time></trkpt><trkpt lat="43.48628301713003" lon="12.620077477529"><ele>342.66666666666663</ele><time>2026-04-27T12:48:06Z</time></trkpt><trkpt lat="43.48646001906259" lon="12.62009414868438"><ele>343.0</ele><time>2026-04-27T12:48:07Z</time></trkpt><trkpt lat="43.48663923901386" lon="12.620119416609963"><ele>343.0</ele><time>2026-04-27T12:48:08Z</time></trkpt><trkpt lat="43.48682211567006" lon="12.620150703362418"><ele>343.0</ele><time>2026-04-27T12:48:09Z</time></trkpt><trkpt lat="43.487005825342585" lon="12.620189935385651"><ele>343.0</ele><time>2026-04-27T12:48:10Z</time></trkpt><trkpt lat="43.48719047217304" lon="12.62023738856167"><ele>342.3333333333333</ele><time>2026-04-27T12:48:11Z</time></trkpt><trkpt lat="43.487375346473144" lon="12.620295984941396"><ele>341.6666666666667</ele><time>2026-04-27T12:48:12Z</time></trkpt><trkpt lat="43.48756069298917" lon="12.620364121235315"><ele>341.0</ele><time>2026-04-27T12:48:13Z</time></trkpt><trkpt lat="43.487745358303464" lon="12.620440949269554"><ele>341.0</ele><time>2026-04-27T12:48:14Z</time></trkpt><trkpt lat="43.48792782345399" lon="12.620526774240501"><ele>341.0</ele><time>2026-04-27T12:48:15Z</time></trkpt><trkpt lat="43.48810618065862" lon="12.620622912815364"><ele>341.0</ele><time>2026-04-27T12:48:16Z</time></trkpt><trkpt lat="43.48828296496375" lon="12.620726800132521"><ele>341.0</ele><time>2026-04-27T12:48:17Z</time></trkpt><trkpt lat="43.48845487924448" lon="12.62084193269272"><ele>341.0</ele><time>2026-04-27T12:48:18Z</time></trkpt><trkpt lat="43.48862421639429" lon="12.620964556526491"><ele>341.0</ele><time>2026-04-27T12:48:19Z</time></trkpt><trkpt lat="43.48879064299509" lon="12.621095010663893"><ele>346.33333333333337</ele><time>2026-04-27T12:48:20Z</time></trkpt><trkpt lat="43.48895094575687" lon="12.621233565576862"><ele>351.6666666666667</ele><time>2026-04-27T12:48:21Z</time></trkpt><trkpt lat="43.489106368332465" lon="12.621379675818584"><ele>357.0</ele><time>2026-04-27T12:48:22Z</time></trkpt><trkpt lat="43.4892574204548" lon="12.621531958693954"><ele>357.0</ele><time>2026-04-27T12:48:23Z</time></trkpt><trkpt lat="43.48940476096575" lon="12.621686308416047"><ele>357.0</ele><time>2026-04-27T12:48:24Z</time></trkpt><trkpt lat="43.489550332092094" lon="12.621836251191034"><ele>357.0</ele><time>2026-04-27T12:48:25Z</time></trkpt><trkpt lat="43.48969737941539" lon="12.62197740302781"><ele>358.3333333333333</ele><time>2026-04-27T12:48:26Z</time></trkpt><trkpt lat="43.48984319970004" lon="12.622122354224661"><ele>359.66666666666663</ele><time>2026-04-27T12:48:27Z</time></trkpt><trkpt lat="43.48999103660677" lon="12.622255534282615"><ele>361.0</ele><time>2026-04-27T12:48:28Z</time></trkpt><trkpt lat="43.4901394347241" lon="12.62238460691453"><ele>361.0</ele><time>2026-04-27T12:48:29Z</time></trkpt><trkpt lat="43.490291001908304" lon="12.622504340846286"><ele>361.0</ele><time>2026-04-27T12:48:30Z</time></trkpt><trkpt lat="43.490445081349996" lon="12.622604672336223"><ele>361.0</ele><time>2026-04-27T12:48:31Z</time></trkpt><trkpt lat="43.49060555437875" lon="12.62269766181588"><ele>356.0</ele><time>2026-04-27T12:48:32Z</time></trkpt><trkpt lat="43.49077182681475" lon="12.62277581464202"><ele>351.0</ele><time>2026-04-27T12:48:33Z</time></trkpt><trkpt lat="43.49094107495115" lon="12.622838118415622"><ele>346.0</ele><time>2026-04-27T12:48:34Z</time></trkpt><trkpt lat="43.4911129529594" lon="12.622889615785116"><ele>352.66666666666663</ele><time>2026-04-27T12:48:35Z</time></trkpt><trkpt lat="43.49128484818901" lon="12.62293367670736"><ele>359.3333333333333</ele><time>2026-04-27T12:48:36Z</time></trkpt><trkpt lat="43.49146107653248" lon="12.622970446511621"><ele>366.0</ele><time>2026-04-27T12:48:37Z</time></trkpt><trkpt lat="43.49163664210771" lon="12.623004378025092"><ele>366.0</ele><time>2026-04-27T12:48:38Z</time></trkpt><trkpt lat="43.491814513737" lon="12.623034267207817"><ele>366.0</ele><time>2026-04-27T12:48:39Z</time></trkpt><trkpt lat="43.4919908665604" lon="12.62306782780741"><ele>366.0</ele><time>2026-04-27T12:48:40Z</time></trkpt><trkpt lat="43.49216844088416" lon="12.623110161993107"><ele>364.0</ele><time>2026-04-27T12:48:41Z</time></trkpt><trkpt lat="43.49234465521158" lon="12.62316620810125"><ele>362.0</ele><time>2026-04-27T12:48:42Z</time></trkpt><trkpt lat="43.49251913045651" lon="12.623231968021274"><ele>360.0</ele><time>2026-04-27T12:48:43Z</time></trkpt><trkpt lat="43.49269231253993" lon="12.623310366623615"><ele>360.0</ele><time>2026-04-27T12:48:44Z</time></trkpt><trkpt lat="43.49286429277402" lon="12.623401040867128"><ele>360.0</ele><time>2026-04-27T12:48:45Z</time></trkpt><trkpt lat="43.49303097214138" lon="12.623503626842064"><ele>360.0</ele><time>2026-04-27T12:48:46Z</time></trkpt><trkpt lat="43.493196870708005" lon="12.623622126402207"><ele>365.0</ele><time>2026-04-27T12:48:47Z</time></trkpt><trkpt lat="43.493358167375774" lon="12.623753896659668"><ele>370.0</ele><time>2026-04-27T12:48:48Z</time></trkpt><trkpt lat="43.49351393465305" lon="12.623895859200873"><ele>375.0</ele><time>2026-04-27T12:48:49Z</time></trkpt><trkpt lat="43.49366350410139" lon="12.624052922548119"><ele>367.0</ele><time>2026-04-27T12:48:50Z</time></trkpt><trkpt lat="43.4938068721881" lon="12.624224301785384"><ele>359.0</ele><time>2026-04-27T12:48:51Z</time></trkpt><trkpt lat="43.49394172638638" lon="12.624405994358456"><ele>351.0</ele><time>2026-04-27T12:48:52Z</time></trkpt><trkpt lat="43.4940718932411" lon="12.624600847811275"><ele>350.3333333333333</ele><time>2026-04-27T12:48:53Z</time></trkpt><trkpt lat="43.49419614184334" lon="12.624799422259914"><ele>349.66666666666663</ele><time>2026-04-27T12:48:54Z</time></trkpt><trkpt lat="43.49431404101317" lon="12.62500409810562"><ele>349.0</ele><time>2026-04-27T12:48:55Z</time></trkpt><trkpt lat="43.494430802282935" lon="12.625210704955354"><ele>348.3333333333333</ele><time>2026-04-27T12:48:56Z</time></trkpt><trkpt lat="43.49454562229606" lon="12.625415076662215"><ele>347.6666666666667</ele><time>2026-04-27T12:48:57Z</time></trkpt><trkpt lat="43.49465913466127" lon="12.625617649846738"><ele>347.0</ele><time>2026-04-27T12:48:58Z</time></trkpt><trkpt lat="43.49477302119538" lon="12.625817892723209"><ele>347.0</ele><time>2026-04-27T12:48:59Z</time></trkpt><trkpt lat="43.49488621876767" lon="12.626016790719069"><ele>347.0</ele><time>2026-04-27T12:49:00Z</time></trkpt><trkpt lat="43.49500143015496" lon="12.626210117720833"><ele>347.0</ele><time>2026-04-27T12:49:01Z</time></trkpt><trkpt lat="43.49511750694296" lon="12.626399813269108"><ele>347.0</ele><time>2026-04-27T12:49:02Z</time></trkpt><trkpt lat="43.49523492229785" lon="12.626587571180982"><ele>347.0</ele><time>2026-04-27T12:49:03Z</time></trkpt><trkpt lat="43.49535392251227" lon="12.626769735864851"><ele>347.0</ele><time>2026-04-27T12:49:04Z</time></trkpt><trkpt lat="43.49547766067279" lon="12.626944731095197"><ele>357.33333333333337</ele><time>2026-04-27T12:49:05Z</time></trkpt><trkpt lat="43.49560531141958" lon="12.627110169312127"><ele>367.6666666666667</ele><time>2026-04-27T12:49:06Z</time></trkpt><trkpt lat="43.49573730045059" lon="12.627271728989566"><ele>378.0</ele><time>2026-04-27T12:49:07Z</time></trkpt><trkpt lat="43.495859889779055" lon="12.627448806514487"><ele>378.0</ele><time>2026-04-27T12:49:08Z</time></trkpt><trkpt lat="43.49599645099534" lon="12.62760391817902"><ele>378.0</ele><time>2026-04-27T12:49:09Z</time></trkpt><trkpt lat="43.49613604695146" lon="12.62775483737732"><ele>378.0</ele><time>2026-04-27T12:49:10Z</time></trkpt><trkpt lat="43.496279085309624" lon="12.627895906970469"><ele>377.3333333333333</ele><time>2026-04-27T12:49:11Z</time></trkpt><trkpt lat="43.49642376692206" lon="12.628034621740074"><ele>376.66666666666663</ele><time>2026-04-27T12:49:12Z</time></trkpt><trkpt lat="43.49657471663374" lon="12.628168797665332"><ele>376.0</ele><time>2026-04-27T12:49:13Z</time></trkpt><trkpt lat="43.49672838075438" lon="12.628297518928678"><ele>376.0</ele><time>2026-04-27T12:49:14Z</time></trkpt><trkpt lat="43.49688447251626" lon="12.628425905499931"><ele>376.0</ele><time>2026-04-27T12:49:15Z</time></trkpt><trkpt lat="43.49705712357217" lon="12.628555051298846"><ele>376.0</ele><time>2026-04-27T12:49:16Z</time></trkpt><trkpt lat="43.49722260258064" lon="12.628667108294255"><ele>364.0</ele><time>2026-04-27T12:49:17Z</time></trkpt><trkpt lat="43.49738595621141" lon="12.628773442545807"><ele>352.0</ele><time>2026-04-27T12:49:18Z</time></trkpt><trkpt lat="43.49752204033007" lon="12.628859152226166"><ele>340.0</ele><time>2026-04-27T12:49:19Z</time></trkpt><trkpt lat="43.49769142579646" lon="12.628960801038367"><ele>340.0</ele><time>2026-04-27T12:49:20Z</time></trkpt><trkpt lat="43.497853382098924" lon="12.629048513558542"><ele>340.0</ele><time>2026-04-27T12:49:21Z</time></trkpt><trkpt lat="43.49801049178612" lon="12.629131489239445"><ele>340.0</ele><time>2026-04-27T12:49:22Z</time></trkpt><trkpt lat="43.498171367549446" lon="12.629206050174764"><ele>343.0</ele><time>2026-04-27T12:49:23Z</time></trkpt><trkpt lat="43.49833093004947" lon="12.62929097306129"><ele>346.0</ele><time>2026-04-27T12:49:24Z</time></trkpt><trkpt lat="43.498498159791126" lon="12.629378945402207"><ele>349.0</ele><time>2026-04-27T12:49:25Z</time></trkpt><trkpt lat="43.49866168352887" lon="12.62947040364769"><ele>348.0</ele><time>2026-04-27T12:49:26Z</time></trkpt><trkpt lat="43.49882394617254" lon="12.629565745148833"><ele>347.0</ele><time>2026-04-27T12:49:27Z</time></trkpt><trkpt lat="43.49898775642878" lon="12.62966265439394"><ele>346.0</ele><time>2026-04-27T12:49:28Z</time></trkpt><trkpt lat="43.499148105672475" lon="12.629770776403701"><ele>346.0</ele><time>2026-04-27T12:49:29Z</time></trkpt><trkpt lat="43.499303294880306" lon="12.629883872262646"><ele>346.0</ele><time>2026-04-27T12:49:30Z</time></trkpt><trkpt lat="43.49946346936023" lon="12.629989084378018"><ele>346.0</ele><time>2026-04-27T12:49:31Z</time></trkpt><trkpt lat="43.499611294245966" lon="12.630124277420252"><ele>343.66666666666663</ele><time>2026-04-27T12:49:32Z</time></trkpt><trkpt lat="43.49975480852848" lon="12.630265584525391"><ele>341.3333333333333</ele><time>2026-04-27T12:49:33Z</time></trkpt><trkpt lat="43.4998925306582" lon="12.630414582264294"><ele>339.0</ele><time>2026-04-27T12:49:34Z</time></trkpt><trkpt lat="43.50002594489788" lon="12.630573440753123"><ele>339.0</ele><time>2026-04-27T12:49:35Z</time></trkpt><trkpt lat="43.5001512934938" lon="12.630747062418102"><ele>339.0</ele><time>2026-04-27T12:49:36Z</time></trkpt><trkpt lat="43.50027088910514" lon="12.630930286801865"><ele>339.0</ele><time>2026-04-27T12:49:37Z</time></trkpt><trkpt lat="43.50038464625419" lon="12.631113868156177"><ele>337.6666666666667</ele><time>2026-04-27T12:49:38Z</time></trkpt><trkpt lat="43.500494801483086" lon="12.63130650753799"><ele>336.33333333333337</ele><time>2026-04-27T12:49:39Z</time></trkpt><trkpt lat="43.50059313204757" lon="12.631510630940037"><ele>335.0</ele><time>2026-04-27T12:49:40Z</time></trkpt><trkpt lat="43.50068596718676" lon="12.631718242144839"><ele>335.0</ele><time>2026-04-27T12:49:41Z</time></trkpt><trkpt lat="43.50077462947737" lon="12.631929036471007"><ele>335.0</ele><time>2026-04-27T12:49:42Z</time></trkpt><trkpt lat="43.50086098014065" lon="12.632146601891865"><ele>335.0</ele><time>2026-04-27T12:49:43Z</time></trkpt><trkpt lat="43.500946635735716" lon="12.63236372252434"><ele>333.6666666666667</ele><time>2026-04-27T12:49:44Z</time></trkpt><trkpt lat="43.501034716662396" lon="12.63258116814901"><ele>332.3333333333333</ele><time>2026-04-27T12:49:45Z</time></trkpt><trkpt lat="43.501121085378564" lon="12.632795465404783"><ele>331.0</ele><time>2026-04-27T12:49:46Z</time></trkpt><trkpt lat="43.50120607968006" lon="12.633006617497271"><ele>336.0</ele><time>2026-04-27T12:49:47Z</time></trkpt><trkpt lat="43.501290850783334" lon="12.633206737401395"><ele>341.0</ele><time>2026-04-27T12:49:48Z</time></trkpt><trkpt lat="43.5013800637553" lon="12.633401881152198"><ele>346.0</ele><time>2026-04-27T12:49:49Z</time></trkpt><trkpt lat="43.50147302874895" lon="12.633594660171635"><ele>341.66666666666663</ele><time>2026-04-27T12:49:50Z</time></trkpt><trkpt lat="43.50157049397311" lon="12.633781361994677"><ele>337.3333333333333</ele><time>2026-04-27T12:49:51Z</time></trkpt><trkpt lat="43.50167582232442" lon="12.633969838732577"><ele>333.0</ele><time>2026-04-27T12:49:52Z</time></trkpt><trkpt lat="43.501789223904126" lon="12.634158151672207"><ele>333.0</ele><time>2026-04-27T12:49:53Z</time></trkpt><trkpt lat="43.50191203192682" lon="12.634343346998163"><ele>333.0</ele><time>2026-04-27T12:49:54Z</time></trkpt><trkpt lat="43.50204113857729" lon="12.634516665548919"><ele>333.0</ele><time>2026-04-27T12:49:55Z</time></trkpt><trkpt lat="43.50218098015781" lon="12.634678856379715"><ele>331.3333333333333</ele><time>2026-04-27T12:49:56Z</time></trkpt><trkpt lat="43.50232906753439" lon="12.634829357425069"><ele>329.66666666666663</ele><time>2026-04-27T12:49:57Z</time></trkpt><trkpt lat="43.50248397440206" lon="12.634971952129991"><ele>328.0</ele><time>2026-04-27T12:49:58Z</time></trkpt><trkpt lat="43.50264404273001" lon="12.635104994530014"><ele>328.0</ele><time>2026-04-27T12:49:59Z</time></trkpt><trkpt lat="43.5028083138384" lon="12.635230784265477"><ele>328.0</ele><time>2026-04-27T12:50:00Z</time></trkpt><trkpt lat="43.5029751764616" lon="12.635343855877691"><ele>328.0</ele><time>2026-04-27T12:50:01Z</time></trkpt><trkpt lat="43.503148303533166" lon="12.635440467502878"><ele>328.0</ele><time>2026-04-27T12:50:02Z</time></trkpt><trkpt lat="43.50332299512286" lon="12.635528403232584"><ele>328.0</ele><time>2026-04-27T12:50:03Z</time></trkpt><trkpt lat="43.503500332618636" lon="12.635605719580623"><ele>328.0</ele><time>2026-04-27T12:50:04Z</time></trkpt><trkpt lat="43.50367940976702" lon="12.6356743128122"><ele>327.0</ele><time>2026-04-27T12:50:05Z</time></trkpt><trkpt lat="43.50385777170602" lon="12.635736846501253"><ele>326.0</ele><time>2026-04-27T12:50:06Z</time></trkpt><trkpt lat="43.50403336839059" lon="12.63579113930353"><ele>325.0</ele><time>2026-04-27T12:50:07Z</time></trkpt><trkpt lat="43.50420947865654" lon="12.63584329857334"><ele>325.0</ele><time>2026-04-27T12:50:08Z</time></trkpt><trkpt lat="43.5043851054906" lon="12.635890876474509"><ele>325.0</ele><time>2026-04-27T12:50:09Z</time></trkpt><trkpt lat="43.50455789841349" lon="12.63593554883037"><ele>325.0</ele><time>2026-04-27T12:50:10Z</time></trkpt><trkpt lat="43.50473043347776" lon="12.635982243848023"><ele>324.3333333333333</ele><time>2026-04-27T12:50:11Z</time></trkpt><trkpt lat="43.50490222016499" lon="12.636028205383301"><ele>323.6666666666667</ele><time>2026-04-27T12:50:12Z</time></trkpt><trkpt lat="43.50507076374209" lon="12.636075045845995"><ele>323.0</ele><time>2026-04-27T12:50:13Z</time></trkpt><trkpt lat="43.50523885735076" lon="12.636120875921899"><ele>324.6666666666667</ele><time>2026-04-27T12:50:14Z</time></trkpt><trkpt lat="43.505407957836034" lon="12.636165942857225"><ele>326.3333333333333</ele><time>2026-04-27T12:50:15Z</time></trkpt><trkpt lat="43.505574268802384" lon="12.636210366906228"><ele>328.0</ele><time>2026-04-27T12:50:16Z</time></trkpt><trkpt lat="43.50574024602706" lon="12.636256145086406"><ele>328.0</ele><time>2026-04-27T12:50:17Z</time></trkpt><trkpt lat="43.505904718662215" lon="12.636302917578385"><ele>328.0</ele><time>2026-04-27T12:50:18Z</time></trkpt><trkpt lat="43.506069676220285" lon="12.636355905213582"><ele>328.0</ele><time>2026-04-27T12:50:19Z</time></trkpt><trkpt lat="43.506240498869126" lon="12.636413796543767"><ele>325.66666666666663</ele><time>2026-04-27T12:50:20Z</time></trkpt><trkpt lat="43.506413268248174" lon="12.636475492102278"><ele>323.3333333333333</ele><time>2026-04-27T12:50:21Z</time></trkpt><trkpt lat="43.50659093384489" lon="12.636543055775562"><ele>321.0</ele><time>2026-04-27T12:50:22Z</time></trkpt><trkpt lat="43.50676855068387" lon="12.636617916473586"><ele>321.0</ele><time>2026-04-27T12:50:23Z</time></trkpt><trkpt lat="43.506947837154506" lon="12.636698332019998"><ele>321.0</ele><time>2026-04-27T12:50:24Z</time></trkpt><trkpt lat="43.507128454483365" lon="12.636784331134553"><ele>321.0</ele><time>2026-04-27T12:50:25Z</time></trkpt><trkpt lat="43.50730992754661" lon="12.636877811658676"><ele>320.0</ele><time>2026-04-27T12:50:26Z</time></trkpt><trkpt lat="43.507493632759754" lon="12.636975944176449"><ele>319.0</ele><time>2026-04-27T12:50:27Z</time></trkpt><trkpt lat="43.5076776040396" lon="12.637079146456909"><ele>318.0</ele><time>2026-04-27T12:50:28Z</time></trkpt><trkpt lat="43.50785987258217" lon="12.63718866796811"><ele>319.3333333333333</ele><time>2026-04-27T12:50:29Z</time></trkpt><trkpt lat="43.50803983321408" lon="12.637304156570417"><ele>320.66666666666663</ele><time>2026-04-27T12:50:30Z</time></trkpt><trkpt lat="43.50821700204378" lon="12.637423284233968"><ele>322.0</ele><time>2026-04-27T12:50:31Z</time></trkpt><trkpt lat="43.50838907102335" lon="12.637544789724892"><ele>322.0</ele><time>2026-04-27T12:50:32Z</time></trkpt><trkpt lat="43.50855663672953" lon="12.637666928978911"><ele>322.0</ele><time>2026-04-27T12:50:33Z</time></trkpt><trkpt lat="43.50872134180762" lon="12.637790060215767"><ele>322.0</ele><time>2026-04-27T12:50:34Z</time></trkpt><trkpt lat="43.508883096388246" lon="12.637916197914569"><ele>320.66666666666663</ele><time>2026-04-27T12:50:35Z</time></trkpt><trkpt lat="43.50904165440613" lon="12.638044330729135"><ele>319.3333333333333</ele><time>2026-04-27T12:50:36Z</time></trkpt><trkpt lat="43.5091959403172" lon="12.638173517956341"><ele>318.0</ele><time>2026-04-27T12:50:37Z</time></trkpt><trkpt lat="43.50934832889452" lon="12.638305448009506"><ele>318.0</ele><time>2026-04-27T12:50:38Z</time></trkpt><trkpt lat="43.50949697949371" lon="12.638435601525797"><ele>318.0</ele><time>2026-04-27T12:50:39Z</time></trkpt><trkpt lat="43.50964345405688" lon="12.638568278727126"><ele>318.0</ele><time>2026-04-27T12:50:40Z</time></trkpt><trkpt lat="43.50978647541918" lon="12.638703239981638"><ele>317.0</ele><time>2026-04-27T12:50:41Z</time></trkpt><trkpt lat="43.50992811296561" lon="12.638837793537313"><ele>316.0</ele><time>2026-04-27T12:50:42Z</time></trkpt><trkpt lat="43.510067191714015" lon="12.638970006430473"><ele>315.0</ele><time>2026-04-27T12:50:43Z</time></trkpt><trkpt lat="43.51020876022585" lon="12.63910134897689"><ele>315.0</ele><time>2026-04-27T12:50:44Z</time></trkpt><trkpt lat="43.510352833703536" lon="12.639234182841449"><ele>315.0</ele><time>2026-04-27T12:50:45Z</time></trkpt><trkpt lat="43.51049815553515" lon="12.639366736254967"><ele>315.0</ele><time>2026-04-27T12:50:46Z</time></trkpt><trkpt lat="43.510644844814536" lon="12.639498506579539"><ele>315.3333333333333</ele><time>2026-04-27T12:50:47Z</time></trkpt><trkpt lat="43.51079395254263" lon="12.639628958471333"><ele>315.66666666666663</ele><time>2026-04-27T12:50:48Z</time></trkpt><trkpt lat="43.5109459403445" lon="12.639755987874201"><ele>316.0</ele><time>2026-04-27T12:50:49Z</time></trkpt><trkpt lat="43.51110097009694" lon="12.63987823173333"><ele>315.66666666666663</ele><time>2026-04-27T12:50:50Z</time></trkpt><trkpt lat="43.511259981842926" lon="12.639993334875747"><ele>315.3333333333333</ele><time>2026-04-27T12:50:51Z</time></trkpt><trkpt lat="43.51142303523434" lon="12.640102740943394"><ele>315.0</ele><time>2026-04-27T12:50:52Z</time></trkpt><trkpt lat="43.51158925283538" lon="12.640204852255799"><ele>315.0</ele><time>2026-04-27T12:50:53Z</time></trkpt><trkpt lat="43.51175873283331" lon="12.640299022459796"><ele>315.0</ele><time>2026-04-27T12:50:54Z</time></trkpt><trkpt lat="43.511931217374595" lon="12.640381090399067"><ele>315.0</ele><time>2026-04-27T12:50:55Z</time></trkpt><trkpt lat="43.51210705034066" lon="12.640450833691437"><ele>323.0</ele><time>2026-04-27T12:50:56Z</time></trkpt><trkpt lat="43.512284920596485" lon="12.640509986914898"><ele>331.0</ele><time>2026-04-27T12:50:57Z</time></trkpt><trkpt lat="43.512464222736135" lon="12.64055631621149"><ele>339.0</ele><time>2026-04-27T12:50:58Z</time></trkpt><trkpt lat="43.51264703555484" lon="12.640590223791405"><ele>339.0</ele><time>2026-04-27T12:50:59Z</time></trkpt><trkpt lat="43.51283105960723" lon="12.640611264632287"><ele>339.0</ele><time>2026-04-27T12:51:00Z</time></trkpt><trkpt lat="43.51301642496355" lon="12.640618640709695"><ele>339.0</ele><time>2026-04-27T12:51:01Z</time></trkpt><trkpt lat="43.51320235558202" lon="12.640613555774557"><ele>339.0</ele><time>2026-04-27T12:51:02Z</time></trkpt><trkpt lat="43.51338777527465" lon="12.640596445702807"><ele>339.0</ele><time>2026-04-27T12:51:03Z</time></trkpt><trkpt lat="43.51357232221526" lon="12.640573922524604"><ele>339.0</ele><time>2026-04-27T12:51:04Z</time></trkpt><trkpt lat="43.513757179103294" lon="12.640548934303684"><ele>339.0</ele><time>2026-04-27T12:51:05Z</time></trkpt><trkpt lat="43.513941165315366" lon="12.640520074557752"><ele>339.0</ele><time>2026-04-27T12:51:06Z</time></trkpt><trkpt lat="43.51412005060208" lon="12.6404890292174"><ele>339.0</ele><time>2026-04-27T12:51:07Z</time></trkpt><trkpt lat="43.514296738623855" lon="12.640455422019379"><ele>339.0</ele><time>2026-04-27T12:51:08Z</time></trkpt><trkpt lat="43.5144700817934" lon="12.64042260219661"><ele>339.0</ele><time>2026-04-27T12:51:09Z</time></trkpt><trkpt lat="43.51464419586071" lon="12.640391618424136"><ele>339.0</ele><time>2026-04-27T12:51:10Z</time></trkpt><trkpt lat="43.51482165158014" lon="12.64036079529899"><ele>348.0</ele><time>2026-04-27T12:51:11Z</time></trkpt><trkpt lat="43.515002622708046" lon="12.640329766553341"><ele>357.0</ele><time>2026-04-27T12:51:12Z</time></trkpt><trkpt lat="43.515185667778844" lon="12.640300375926625"><ele>366.0</ele><time>2026-04-27T12:51:13Z</time></trkpt><trkpt lat="43.515371879715204" lon="12.640309362802963"><ele>358.0</ele><time>2026-04-27T12:51:14Z</time></trkpt><trkpt lat="43.51556043353736" lon="12.640301045153361"><ele>350.0</ele><time>2026-04-27T12:51:15Z</time></trkpt><trkpt lat="43.5157498893829" lon="12.640298975099112"><ele>342.0</ele><time>2026-04-27T12:51:16Z</time></trkpt><trkpt lat="43.51594147322509" lon="12.640307260660581"><ele>342.0</ele><time>2026-04-27T12:51:17Z</time></trkpt><trkpt lat="43.51613331820673" lon="12.640321827117688"><ele>342.0</ele><time>2026-04-27T12:51:18Z</time></trkpt><trkpt lat="43.51632599244487" lon="12.640342786159243"><ele>342.0</ele><time>2026-04-27T12:51:19Z</time></trkpt><trkpt lat="43.51646207866488" lon="12.640367760050024"><ele>332.3333333333333</ele><time>2026-04-27T12:51:20Z</time></trkpt><trkpt lat="43.51665414681189" lon="12.640408024017407"><ele>322.66666666666663</ele><time>2026-04-27T12:51:21Z</time></trkpt><trkpt lat="43.51684924940946" lon="12.640436791450199"><ele>313.0</ele><time>2026-04-27T12:51:22Z</time></trkpt><trkpt lat="43.5170313788806" lon="12.640491395686261"><ele>311.66666666666663</ele><time>2026-04-27T12:51:23Z</time></trkpt><trkpt lat="43.51720740926223" lon="12.640550096977849"><ele>310.3333333333333</ele><time>2026-04-27T12:51:24Z</time></trkpt><trkpt lat="43.517378894942844" lon="12.640613994084214"><ele>309.0</ele><time>2026-04-27T12:51:25Z</time></trkpt><trkpt lat="43.51755612518484" lon="12.640693206948399"><ele>309.0</ele><time>2026-04-27T12:51:26Z</time></trkpt><trkpt lat="43.517723704846986" lon="12.640767830406844"><ele>309.0</ele><time>2026-04-27T12:51:27Z</time></trkpt><trkpt lat="43.51789074626853" lon="12.640849874458693"><ele>309.0</ele><time>2026-04-27T12:51:28Z</time></trkpt><trkpt lat="43.518055628827845" lon="12.640938954520584"><ele>306.0</ele><time>2026-04-27T12:51:29Z</time></trkpt><trkpt lat="43.518220571146095" lon="12.641038703515967"><ele>303.0</ele><time>2026-04-27T12:51:30Z</time></trkpt><trkpt lat="43.51838839979333" lon="12.641143674095375"><ele>300.0</ele><time>2026-04-27T12:51:31Z</time></trkpt><trkpt lat="43.51855702110439" lon="12.641255238631597"><ele>302.3333333333333</ele><time>2026-04-27T12:51:32Z</time></trkpt><trkpt lat="43.518721132851695" lon="12.64136935028813"><ele>304.66666666666663</ele><time>2026-04-27T12:51:33Z</time></trkpt><trkpt lat="43.51888168088549" lon="12.641484946904763"><ele>307.0</ele><time>2026-04-27T12:51:34Z</time></trkpt><trkpt lat="43.519038164162495" lon="12.641600767791832"><ele>307.0</ele><time>2026-04-27T12:51:35Z</time></trkpt><trkpt lat="43.51919295903889" lon="12.641715818370301"><ele>307.0</ele><time>2026-04-27T12:51:36Z</time></trkpt><trkpt lat="43.519349010393995" lon="12.641832055495433"><ele>307.0</ele><time>2026-04-27T12:51:37Z</time></trkpt><trkpt lat="43.51950467628672" lon="12.641948395761265"><ele>305.66666666666663</ele><time>2026-04-27T12:51:38Z</time></trkpt><trkpt lat="43.51966044166634" lon="12.642065927040845"><ele>304.3333333333333</ele><time>2026-04-27T12:51:39Z</time></trkpt><trkpt lat="43.51981594072229" lon="12.642185097711106"><ele>303.0</ele><time>2026-04-27T12:51:40Z</time></trkpt><trkpt lat="43.519970656316204" lon="12.642305191447239"><ele>303.0</ele><time>2026-04-27T12:51:41Z</time></trkpt><trkpt lat="43.52012653111061" lon="12.642424560868891"><ele>303.0</ele><time>2026-04-27T12:51:42Z</time></trkpt><trkpt lat="43.52028150001174" lon="12.642538432568454"><ele>303.0</ele><time>2026-04-27T12:51:43Z</time></trkpt><trkpt lat="43.52043892558343" lon="12.642652136262376"><ele>304.0</ele><time>2026-04-27T12:51:44Z</time></trkpt><trkpt lat="43.52059765605228" lon="12.64276293892974"><ele>305.0</ele><time>2026-04-27T12:51:45Z</time></trkpt><trkpt lat="43.520759220723164" lon="12.642868152225578"><ele>306.0</ele><time>2026-04-27T12:51:46Z</time></trkpt><trkpt lat="43.52092449562353" lon="12.642964386898097"><ele>304.6666666666667</ele><time>2026-04-27T12:51:47Z</time></trkpt><trkpt lat="43.52109340952644" lon="12.643050775300116"><ele>303.33333333333337</ele><time>2026-04-27T12:51:48Z</time></trkpt><trkpt lat="43.521266181096294" lon="12.643124203412027"><ele>302.0</ele><time>2026-04-27T12:51:49Z</time></trkpt><trkpt lat="43.521440748372015" lon="12.643186721344605"><ele>302.0</ele><time>2026-04-27T12:51:50Z</time></trkpt><trkpt lat="43.521617833403916" lon="12.64323866754313"><ele>302.0</ele><time>2026-04-27T12:51:51Z</time></trkpt><trkpt lat="43.52179661755363" lon="12.643280541365147"><ele>302.0</ele><time>2026-04-27T12:51:52Z</time></trkpt><trkpt lat="43.52197776992025" lon="12.643308638853465"><ele>303.0</ele><time>2026-04-27T12:51:53Z</time></trkpt><trkpt lat="43.52215851166269" lon="12.64332456491041"><ele>304.0</ele><time>2026-04-27T12:51:54Z</time></trkpt><trkpt lat="43.52234132446511" lon="12.643325042862243"><ele>305.0</ele><time>2026-04-27T12:51:55Z</time></trkpt><trkpt lat="43.52252441400637" lon="12.64331323145723"><ele>305.0</ele><time>2026-04-27T12:51:56Z</time></trkpt><trkpt lat="43.52270942953694" lon="12.643289547459887"><ele>305.0</ele><time>2026-04-27T12:51:57Z</time></trkpt><trkpt lat="43.52289253201875" lon="12.643254141411457"><ele>305.0</ele><time>2026-04-27T12:51:58Z</time></trkpt><trkpt lat="43.52307298049545" lon="12.643205846065667"><ele>301.6666666666667</ele><time>2026-04-27T12:51:59Z</time></trkpt><trkpt lat="43.523251723725515" lon="12.643145874417321"><ele>298.3333333333333</ele><time>2026-04-27T12:52:00Z</time></trkpt><trkpt lat="43.52342730846704" lon="12.643072377765447"><ele>295.0</ele><time>2026-04-27T12:52:01Z</time></trkpt><trkpt lat="43.52360008424697" lon="12.642986261875118"><ele>293.0</ele><time>2026-04-27T12:52:02Z</time></trkpt><trkpt lat="43.523770676116946" lon="12.642886369791583"><ele>291.0</ele><time>2026-04-27T12:52:03Z</time></trkpt><trkpt lat="43.52393775163438" lon="12.642775459743572"><ele>289.0</ele><time>2026-04-27T12:52:04Z</time></trkpt><trkpt lat="43.52410159751581" lon="12.64265443780338"><ele>290.3333333333333</ele><time>2026-04-27T12:52:05Z</time></trkpt><trkpt lat="43.5242629303476" lon="12.64251994548917"><ele>291.6666666666667</ele><time>2026-04-27T12:52:06Z</time></trkpt><trkpt lat="43.524422083823126" lon="12.642377296310018"><ele>293.0</ele><time>2026-04-27T12:52:07Z</time></trkpt><trkpt lat="43.524577568756925" lon="12.642227951672"><ele>293.0</ele><time>2026-04-27T12:52:08Z</time></trkpt><trkpt lat="43.52473055955305" lon="12.64207787124939"><ele>293.0</ele><time>2026-04-27T12:52:09Z</time></trkpt><trkpt lat="43.52488285874956" lon="12.64192706007561"><ele>293.0</ele><time>2026-04-27T12:52:10Z</time></trkpt><trkpt lat="43.52502956934431" lon="12.641771984432541"><ele>292.6666666666667</ele><time>2026-04-27T12:52:11Z</time></trkpt><trkpt lat="43.52518345713333" lon="12.64162182264796"><ele>292.3333333333333</ele><time>2026-04-27T12:52:12Z</time></trkpt><trkpt lat="43.52532915752663" lon="12.641487042577413"><ele>292.0</ele><time>2026-04-27T12:52:13Z</time></trkpt><trkpt lat="43.52548537311206" lon="12.641359191599586"><ele>292.0</ele><time>2026-04-27T12:52:14Z</time></trkpt><trkpt lat="43.52564362277644" lon="12.641243145379793"><ele>292.0</ele><time>2026-04-27T12:52:15Z</time></trkpt><trkpt lat="43.52580897313878" lon="12.641144309970722"><ele>292.0</ele><time>2026-04-27T12:52:16Z</time></trkpt><trkpt lat="43.52597804083191" lon="12.641065343013159"><ele>295.66666666666663</ele><time>2026-04-27T12:52:17Z</time></trkpt><trkpt lat="43.52615066088329" lon="12.641000302735666"><ele>299.3333333333333</ele><time>2026-04-27T12:52:18Z</time></trkpt><trkpt lat="43.5263259335479" lon="12.640958161225997"><ele>303.0</ele><time>2026-04-27T12:52:19Z</time></trkpt><trkpt lat="43.5265026285175" lon="12.640935099923823"><ele>303.0</ele><time>2026-04-27T12:52:20Z</time></trkpt><trkpt lat="43.52667942251694" lon="12.640932197292415"><ele>303.0</ele><time>2026-04-27T12:52:21Z</time></trkpt><trkpt lat="43.5268553040168" lon="12.640945511426366"><ele>303.0</ele><time>2026-04-27T12:52:22Z</time></trkpt><trkpt lat="43.527030364168745" lon="12.640975568303713"><ele>306.0</ele><time>2026-04-27T12:52:23Z</time></trkpt><trkpt lat="43.527202867382215" lon="12.641022753054969"><ele>309.0</ele><time>2026-04-27T12:52:24Z</time></trkpt><trkpt lat="43.52736948156909" lon="12.641092994549298"><ele>312.0</ele><time>2026-04-27T12:52:25Z</time></trkpt><trkpt lat="43.52753180677221" lon="12.641180933808565"><ele>309.6666666666667</ele><time>2026-04-27T12:52:26Z</time></trkpt><trkpt lat="43.52768835499325" lon="12.641282143356134"><ele>307.33333333333337</ele><time>2026-04-27T12:52:27Z</time></trkpt><trkpt lat="43.52784240331006" lon="12.641389237281922"><ele>305.0</ele><time>2026-04-27T12:52:28Z</time></trkpt><trkpt lat="43.527996569883214" lon="12.641504071982741"><ele>305.0</ele><time>2026-04-27T12:52:29Z</time></trkpt><trkpt lat="43.52814958609188" lon="12.6416282173482"><ele>305.0</ele><time>2026-04-27T12:52:30Z</time></trkpt><trkpt lat="43.528303180041384" lon="12.641750919136232"><ele>305.0</ele><time>2026-04-27T12:52:31Z</time></trkpt><trkpt lat="43.52845786696104" lon="12.641877648320568"><ele>302.0</ele><time>2026-04-27T12:52:32Z</time></trkpt><trkpt lat="43.528616576687426" lon="12.64200629602396"><ele>299.0</ele><time>2026-04-27T12:52:33Z</time></trkpt><trkpt lat="43.52877804252834" lon="12.642132036518344"><ele>296.0</ele><time>2026-04-27T12:52:34Z</time></trkpt><trkpt lat="43.528937716326126" lon="12.642256062189068"><ele>296.0</ele><time>2026-04-27T12:52:35Z</time></trkpt><trkpt lat="43.52909653584083" lon="12.642382104401834"><ele>296.0</ele><time>2026-04-27T12:52:36Z</time></trkpt><trkpt lat="43.52925312556182" lon="12.642510402348979"><ele>296.0</ele><time>2026-04-27T12:52:37Z</time></trkpt><trkpt lat="43.529410277815856" lon="12.642636410919938"><ele>293.0</ele><time>2026-04-27T12:52:38Z</time></trkpt><trkpt lat="43.52956682233928" lon="12.642763686295163"><ele>290.0</ele><time>2026-04-27T12:52:39Z</time></trkpt><trkpt lat="43.52972323233372" lon="12.642893995991782"><ele>287.0</ele><time>2026-04-27T12:52:40Z</time></trkpt><trkpt lat="43.52987918470808" lon="12.64302436828431"><ele>287.0</ele><time>2026-04-27T12:52:41Z</time></trkpt><trkpt lat="43.53003325296496" lon="12.643159671737692"><ele>287.0</ele><time>2026-04-27T12:52:42Z</time></trkpt><trkpt lat="43.53018660219814" lon="12.643296704077633"><ele>287.0</ele><time>2026-04-27T12:52:43Z</time></trkpt><trkpt lat="43.530343911086256" lon="12.643439606488732"><ele>288.6666666666667</ele><time>2026-04-27T12:52:44Z</time></trkpt><trkpt lat="43.53049657693262" lon="12.64358927217628"><ele>290.3333333333333</ele><time>2026-04-27T12:52:45Z</time></trkpt><trkpt lat="43.53064722333827" lon="12.643746024121874"><ele>292.0</ele><time>2026-04-27T12:52:46Z</time></trkpt><trkpt lat="43.530795270673686" lon="12.643907626999628"><ele>292.0</ele><time>2026-04-27T12:52:47Z</time></trkpt><trkpt lat="43.53094129473013" lon="12.64406977187384"><ele>292.0</ele><time>2026-04-27T12:52:48Z</time></trkpt><trkpt lat="43.53108713769881" lon="12.644233507675565"><ele>292.0</ele><time>2026-04-27T12:52:49Z</time></trkpt><trkpt lat="43.531227810255466" lon="12.644395189127263"><ele>292.3333333333333</ele><time>2026-04-27T12:52:50Z</time></trkpt><trkpt lat="43.53136566538706" lon="12.644552839018573"><ele>292.6666666666667</ele><time>2026-04-27T12:52:51Z</time></trkpt><trkpt lat="43.53150131209568" lon="12.644709241593137"><ele>293.0</ele><time>2026-04-27T12:52:52Z</time></trkpt><trkpt lat="43.531636753989474" lon="12.64486705505689"><ele>293.0</ele><time>2026-04-27T12:52:53Z</time></trkpt><trkpt lat="43.53177002309665" lon="12.645026765947748"><ele>293.0</ele><time>2026-04-27T12:52:54Z</time></trkpt><trkpt lat="43.53190357595272" lon="12.645187845704998"><ele>293.0</ele><time>2026-04-27T12:52:55Z</time></trkpt><trkpt lat="43.53204307674589" lon="12.64534468674016"><ele>291.0</ele><time>2026-04-27T12:52:56Z</time></trkpt><trkpt lat="43.53218832616064" lon="12.645496123508318"><ele>289.0</ele><time>2026-04-27T12:52:57Z</time></trkpt><trkpt lat="43.53233832200642" lon="12.645644271644718"><ele>287.0</ele><time>2026-04-27T12:52:58Z</time></trkpt><trkpt lat="43.532488732976674" lon="12.645785889380901"><ele>287.0</ele><time>2026-04-27T12:52:59Z</time></trkpt><trkpt lat="43.53263808057118" lon="12.645916949802302"><ele>287.0</ele><time>2026-04-27T12:53:00Z</time></trkpt><trkpt lat="43.53279222110439" lon="12.646040071805508"><ele>287.0</ele><time>2026-04-27T12:53:01Z</time></trkpt><trkpt lat="43.53295095380426" lon="12.64615399174419"><ele>283.33333333333337</ele><time>2026-04-27T12:53:02Z</time></trkpt><trkpt lat="43.53311306200436" lon="12.646259335436353"><ele>279.6666666666667</ele><time>2026-04-27T12:53:03Z</time></trkpt><trkpt lat="43.53327832066804" lon="12.646356168921704"><ele>276.0</ele><time>2026-04-27T12:53:04Z</time></trkpt><trkpt lat="43.533448045162956" lon="12.646444860900829"><ele>276.0</ele><time>2026-04-27T12:53:05Z</time></trkpt><trkpt lat="43.53361982999208" lon="12.646521411970825"><ele>276.0</ele><time>2026-04-27T12:53:06Z</time></trkpt><trkpt lat="43.53379383230169" lon="12.646588080802173"><ele>276.0</ele><time>2026-04-27T12:53:07Z</time></trkpt><trkpt lat="43.53396797771847" lon="12.646643508996526"><ele>276.3333333333333</ele><time>2026-04-27T12:53:08Z</time></trkpt><trkpt lat="43.534142355345814" lon="12.646689272824782"><ele>276.66666666666663</ele><time>2026-04-27T12:53:09Z</time></trkpt><trkpt lat="43.53431602314554" lon="12.646725345192372"><ele>277.0</ele><time>2026-04-27T12:53:10Z</time></trkpt><trkpt lat="43.53449223979024" lon="12.6467561305046"><ele>277.66666666666663</ele><time>2026-04-27T12:53:11Z</time></trkpt><trkpt lat="43.534666042683554" lon="12.646779137784165"><ele>278.3333333333333</ele><time>2026-04-27T12:53:12Z</time></trkpt><trkpt lat="43.534840271819405" lon="12.646793333657246"><ele>279.0</ele><time>2026-04-27T12:53:13Z</time></trkpt><trkpt lat="43.535017139550995" lon="12.646793457432398"><ele>279.0</ele><time>2026-04-27T12:53:14Z</time></trkpt><trkpt lat="43.535194673104726" lon="12.646781938851712"><ele>279.0</ele><time>2026-04-27T12:53:15Z</time></trkpt><trkpt lat="43.53537655175768" lon="12.646761233845668"><ele>279.0</ele><time>2026-04-27T12:53:16Z</time></trkpt><trkpt lat="43.53555967082536" lon="12.646732026835647"><ele>278.3333333333333</ele><time>2026-04-27T12:53:17Z</time></trkpt><trkpt lat="43.53574368285499" lon="12.646699319718293"><ele>277.66666666666663</ele><time>2026-04-27T12:53:18Z</time></trkpt><trkpt lat="43.53592871974997" lon="12.64665781686564"><ele>277.0</ele><time>2026-04-27T12:53:19Z</time></trkpt><trkpt lat="43.53611235515872" lon="12.64660763655334"><ele>278.3333333333333</ele><time>2026-04-27T12:53:20Z</time></trkpt><trkpt lat="43.536293796034954" lon="12.646553127382793"><ele>279.6666666666667</ele><time>2026-04-27T12:53:21Z</time></trkpt><trkpt lat="43.53647421304792" lon="12.6464943315481"><ele>281.0</ele><time>2026-04-27T12:53:22Z</time></trkpt><trkpt lat="43.53665209087965" lon="12.646427545359037"><ele>281.0</ele><time>2026-04-27T12:53:23Z</time></trkpt><trkpt lat="43.53682744438186" lon="12.646353889553367"><ele>281.0</ele><time>2026-04-27T12:53:24Z</time></trkpt><trkpt lat="43.53700014166711" lon="12.646273629248766"><ele>281.0</ele><time>2026-04-27T12:53:25Z</time></trkpt><trkpt lat="43.537169880483226" lon="12.646185724769248"><ele>275.6666666666667</ele><time>2026-04-27T12:53:26Z</time></trkpt><trkpt lat="43.537338942687065" lon="12.646090526830086"><ele>270.3333333333333</ele><time>2026-04-27T12:53:27Z</time></trkpt><trkpt lat="43.537507222526486" lon="12.645980949659137"><ele>265.0</ele><time>2026-04-27T12:53:28Z</time></trkpt><trkpt lat="43.537674230155424" lon="12.645863222169952"><ele>265.0</ele><time>2026-04-27T12:53:29Z</time></trkpt><trkpt lat="43.53784294342589" lon="12.645741352325437"><ele>265.0</ele><time>2026-04-27T12:53:30Z</time></trkpt><trkpt lat="43.538008697269206" lon="12.645613194336326"><ele>265.0</ele><time>2026-04-27T12:53:31Z</time></trkpt><trkpt lat="43.538170719114355" lon="12.645475875352133"><ele>269.3333333333333</ele><time>2026-04-27T12:53:32Z</time></trkpt><trkpt lat="43.53832666663339" lon="12.645335092937643"><ele>273.6666666666667</ele><time>2026-04-27T12:53:33Z</time></trkpt><trkpt lat="43.538479861058505" lon="12.645189960018"><ele>278.0</ele><time>2026-04-27T12:53:34Z</time></trkpt><trkpt lat="43.53863228692118" lon="12.64504108372383"><ele>301.6666666666667</ele><time>2026-04-27T12:53:35Z</time></trkpt><trkpt lat="43.53878242032266" lon="12.644888443455558"><ele>325.3333333333333</ele><time>2026-04-27T12:53:36Z</time></trkpt><trkpt lat="43.53892872808363" lon="12.644731021369548"><ele>349.0</ele><time>2026-04-27T12:53:37Z</time></trkpt><trkpt lat="43.53906596164705" lon="12.644577936517328"><ele>361.3333333333333</ele><time>2026-04-27T12:53:38Z</time></trkpt><trkpt lat="43.53919869312664" lon="12.64442644784958"><ele>373.66666666666663</ele><time>2026-04-27T12:53:39Z</time></trkpt><trkpt lat="43.53932981605657" lon="12.644274311376856"><ele>386.0</ele><time>2026-04-27T12:53:40Z</time></trkpt><trkpt lat="43.53947133583823" lon="12.644110252968419"><ele>393.0</ele><time>2026-04-27T12:53:41Z</time></trkpt><trkpt lat="43.53960343480778" lon="12.643960327782375"><ele>400.0</ele><time>2026-04-27T12:53:42Z</time></trkpt><trkpt lat="43.539735586257976" lon="12.643805927508899"><ele>407.0</ele><time>2026-04-27T12:53:43Z</time></trkpt><trkpt lat="43.539869234297925" lon="12.643651686229253"><ele>417.3333333333333</ele><time>2026-04-27T12:53:44Z</time></trkpt><trkpt lat="43.54000535996892" lon="12.643494211291873"><ele>427.66666666666663</ele><time>2026-04-27T12:53:45Z</time></trkpt><trkpt lat="43.54014091015122" lon="12.643335069374782"><ele>438.0</ele><time>2026-04-27T12:53:46Z</time></trkpt><trkpt lat="43.54027679628219" lon="12.643177975615531"><ele>431.33333333333337</ele><time>2026-04-27T12:53:47Z</time></trkpt><trkpt lat="43.5404113411038" lon="12.643018480183214"><ele>424.6666666666667</ele><time>2026-04-27T12:53:48Z</time></trkpt><trkpt lat="43.540543247322525" lon="12.642856130778215"><ele>418.0</ele><time>2026-04-27T12:53:49Z</time></trkpt><trkpt lat="43.54067300109592" lon="12.642703180793301"><ele>418.0</ele><time>2026-04-27T12:53:50Z</time></trkpt><trkpt lat="43.54080770165917" lon="12.642555108954936"><ele>418.0</ele><time>2026-04-27T12:53:51Z</time></trkpt><trkpt lat="43.540938753469554" lon="12.642406337876405"><ele>418.0</ele><time>2026-04-27T12:53:52Z</time></trkpt><trkpt lat="43.54106984525654" lon="12.642258140328558"><ele>418.0</ele><time>2026-04-27T12:53:53Z</time></trkpt><trkpt lat="43.541200633509234" lon="12.642105226164857"><ele>418.0</ele><time>2026-04-27T12:53:54Z</time></trkpt><trkpt lat="43.54133233379686" lon="12.641950466521775"><ele>418.0</ele><time>2026-04-27T12:53:55Z</time></trkpt><trkpt lat="43.54146579442026" lon="12.641794163169717"><ele>398.33333333333337</ele><time>2026-04-27T12:53:56Z</time></trkpt><trkpt lat="43.5415999955377" lon="12.641637425916707"><ele>378.6666666666667</ele><time>2026-04-27T12:53:57Z</time></trkpt><trkpt lat="43.541737806609916" lon="12.641479851643988"><ele>359.0</ele><time>2026-04-27T12:53:58Z</time></trkpt><trkpt lat="43.54187548757851" lon="12.641323202511915"><ele>359.0</ele><time>2026-04-27T12:53:59Z</time></trkpt><trkpt lat="43.542013053911006" lon="12.641169405019584"><ele>359.0</ele><time>2026-04-27T12:54:00Z</time></trkpt><trkpt lat="43.54215049078329" lon="12.641015544473758"><ele>359.0</ele><time>2026-04-27T12:54:01Z</time></trkpt><trkpt lat="43.54228902258621" lon="12.640862066670286"><ele>339.33333333333337</ele><time>2026-04-27T12:54:02Z</time></trkpt><trkpt lat="43.542431772867054" lon="12.64071317577677"><ele>319.6666666666667</ele><time>2026-04-27T12:54:03Z</time></trkpt><trkpt lat="43.542570586369486" lon="12.640579752217663"><ele>300.0</ele><time>2026-04-27T12:54:04Z</time></trkpt><trkpt lat="43.5427153733681" lon="12.64044790860339"><ele>300.0</ele><time>2026-04-27T12:54:05Z</time></trkpt><trkpt lat="43.5428734169883" lon="12.640305946637103"><ele>300.0</ele><time>2026-04-27T12:54:06Z</time></trkpt><trkpt lat="43.543086876252275" lon="12.640092877977997"><ele>291.0</ele><time>2026-04-27T12:54:07Z</time></trkpt><trkpt lat="43.54326309201042" lon="12.639976345223781"><ele>282.0</ele><time>2026-04-27T12:54:08Z</time></trkpt><trkpt lat="43.543408443844065" lon="12.63987001057544"><ele>273.0</ele><time>2026-04-27T12:54:09Z</time></trkpt><trkpt lat="43.54356217795028" lon="12.639776500468578"><ele>273.6666666666667</ele><time>2026-04-27T12:54:10Z</time></trkpt><trkpt lat="43.54372554831714" lon="12.639689694029041"><ele>274.33333333333337</ele><time>2026-04-27T12:54:11Z</time></trkpt><trkpt lat="43.54389683696225" lon="12.639612576545488"><ele>275.0</ele><time>2026-04-27T12:54:12Z</time></trkpt><trkpt lat="43.544074943180725" lon="12.639534580059259"><ele>275.0</ele><time>2026-04-27T12:54:13Z</time></trkpt><trkpt lat="43.54424697761051" lon="12.639473990730252"><ele>275.0</ele><time>2026-04-27T12:54:14Z</time></trkpt><trkpt lat="43.544419692627656" lon="12.639422514697639"><ele>275.0</ele><time>2026-04-27T12:54:15Z</time></trkpt><trkpt lat="43.544597138242295" lon="12.639376054498495"><ele>270.33333333333337</ele><time>2026-04-27T12:54:16Z</time></trkpt><trkpt lat="43.5447735956123" lon="12.639343525345081"><ele>265.6666666666667</ele><time>2026-04-27T12:54:17Z</time></trkpt><trkpt lat="43.54494878136779" lon="12.639315348519284"><ele>261.0</ele><time>2026-04-27T12:54:18Z</time></trkpt><trkpt lat="43.545125533456414" lon="12.63930277917225"><ele>261.0</ele><time>2026-04-27T12:54:19Z</time></trkpt><trkpt lat="43.545302959045955" lon="12.639303095971568"><ele>261.0</ele><time>2026-04-27T12:54:20Z</time></trkpt><trkpt lat="43.54547986032366" lon="12.63931140161197"><ele>261.0</ele><time>2026-04-27T12:54:21Z</time></trkpt><trkpt lat="43.545657508933715" lon="12.639329949540569"><ele>262.3333333333333</ele><time>2026-04-27T12:54:22Z</time></trkpt><trkpt lat="43.545832300898404" lon="12.639355236238927"><ele>263.66666666666663</ele><time>2026-04-27T12:54:23Z</time></trkpt><trkpt lat="43.54600724843894" lon="12.639390914970608"><ele>265.0</ele><time>2026-04-27T12:54:24Z</time></trkpt><trkpt lat="43.54618053394425" lon="12.639435724616858"><ele>266.0</ele><time>2026-04-27T12:54:25Z</time></trkpt><trkpt lat="43.54635277603901" lon="12.63948981712285"><ele>267.0</ele><time>2026-04-27T12:54:26Z</time></trkpt><trkpt lat="43.546523221388824" lon="12.63955371992193"><ele>268.0</ele><time>2026-04-27T12:54:27Z</time></trkpt><trkpt lat="43.54669197186955" lon="12.639626548386452"><ele>268.0</ele><time>2026-04-27T12:54:28Z</time></trkpt><trkpt lat="43.54685856280195" lon="12.639706581803896"><ele>268.0</ele><time>2026-04-27T12:54:29Z</time></trkpt><trkpt lat="43.54702391588834" lon="12.639793105882816"><ele>268.0</ele><time>2026-04-27T12:54:30Z</time></trkpt><trkpt lat="43.547185319040224" lon="12.639884019407466"><ele>270.0</ele><time>2026-04-27T12:54:31Z</time></trkpt><trkpt lat="43.54734448978432" lon="12.639983003816203"><ele>272.0</ele><time>2026-04-27T12:54:32Z</time></trkpt><trkpt lat="43.54750149216327" lon="12.640085650036262"><ele>274.0</ele><time>2026-04-27T12:54:33Z</time></trkpt><trkpt lat="43.54765840198164" lon="12.640191924477623"><ele>273.0</ele><time>2026-04-27T12:54:34Z</time></trkpt><trkpt lat="43.547814754915635" lon="12.640301575482722"><ele>272.0</ele><time>2026-04-27T12:54:35Z</time></trkpt><trkpt lat="43.547971828018575" lon="12.640411565723022"><ele>271.0</ele><time>2026-04-27T12:54:36Z</time></trkpt><trkpt lat="43.54812917176378" lon="12.640523811271871"><ele>271.0</ele><time>2026-04-27T12:54:37Z</time></trkpt><trkpt lat="43.54828531420191" lon="12.64063391501981"><ele>271.0</ele><time>2026-04-27T12:54:38Z</time></trkpt><trkpt lat="43.54844338837499" lon="12.64074523169898"><ele>271.0</ele><time>2026-04-27T12:54:39Z</time></trkpt><trkpt lat="43.5486000216141" lon="12.64085879578812"><ele>271.66666666666663</ele><time>2026-04-27T12:54:40Z</time></trkpt><trkpt lat="43.54875576212409" lon="12.640974751473584"><ele>272.3333333333333</ele><time>2026-04-27T12:54:41Z</time></trkpt><trkpt lat="43.54891192953362" lon="12.641088553271556"><ele>273.0</ele><time>2026-04-27T12:54:42Z</time></trkpt><trkpt lat="43.549069212491865" lon="12.64120040462028"><ele>273.0</ele><time>2026-04-27T12:54:43Z</time></trkpt><trkpt lat="43.549226106616494" lon="12.641312529628618"><ele>273.0</ele><time>2026-04-27T12:54:44Z</time></trkpt><trkpt lat="43.54938497477317" lon="12.641424923691002"><ele>273.0</ele><time>2026-04-27T12:54:45Z</time></trkpt><trkpt lat="43.54954445914867" lon="12.641535904783002"><ele>274.6666666666667</ele><time>2026-04-27T12:54:46Z</time></trkpt><trkpt lat="43.54970417247183" lon="12.641645887887455"><ele>276.33333333333337</ele><time>2026-04-27T12:54:47Z</time></trkpt><trkpt lat="43.54986395881094" lon="12.641758753839909"><ele>278.0</ele><time>2026-04-27T12:54:48Z</time></trkpt><trkpt lat="43.55002424001769" lon="12.641870537715311"><ele>277.33333333333337</ele><time>2026-04-27T12:54:49Z</time></trkpt><trkpt lat="43.55018479949278" lon="12.64198334363292"><ele>276.6666666666667</ele><time>2026-04-27T12:54:50Z</time></trkpt><trkpt lat="43.5503458609457" lon="12.642095523114856"><ele>276.0</ele><time>2026-04-27T12:54:51Z</time></trkpt><trkpt lat="43.5505070510031" lon="12.642205998814989"><ele>276.0</ele><time>2026-04-27T12:54:52Z</time></trkpt><trkpt lat="43.550668202688634" lon="12.642316907793118"><ele>276.0</ele><time>2026-04-27T12:54:53Z</time></trkpt><trkpt lat="43.55082859480625" lon="12.642430684347381"><ele>276.0</ele><time>2026-04-27T12:54:54Z</time></trkpt><trkpt lat="43.55099095217963" lon="12.642548408238678"><ele>276.0</ele><time>2026-04-27T12:54:55Z</time></trkpt><trkpt lat="43.551154776646506" lon="12.642666936711201"><ele>276.0</ele><time>2026-04-27T12:54:56Z</time></trkpt><trkpt lat="43.55132039295413" lon="12.642780759159894"><ele>276.0</ele><time>2026-04-27T12:54:57Z</time></trkpt><trkpt lat="43.5514875495581" lon="12.64289736800769"><ele>276.3333333333333</ele><time>2026-04-27T12:54:58Z</time></trkpt><trkpt lat="43.55165422505174" lon="12.6430145150015"><ele>276.66666666666663</ele><time>2026-04-27T12:54:59Z</time></trkpt><trkpt lat="43.55182128046218" lon="12.643135030681284"><ele>277.0</ele><time>2026-04-27T12:55:00Z</time></trkpt><trkpt lat="43.55198929143022" lon="12.643255110670275"><ele>277.0</ele><time>2026-04-27T12:55:01Z</time></trkpt><trkpt lat="43.55215965084589" lon="12.643375522895488"><ele>277.0</ele><time>2026-04-27T12:55:02Z</time></trkpt><trkpt lat="43.552329034617806" lon="12.643494131693496"><ele>277.0</ele><time>2026-04-27T12:55:03Z</time></trkpt><trkpt lat="43.552498082294825" lon="12.643614542190337"><ele>276.66666666666663</ele><time>2026-04-27T12:55:04Z</time></trkpt><trkpt lat="43.55266818905836" lon="12.643734488503759"><ele>276.3333333333333</ele><time>2026-04-27T12:55:05Z</time></trkpt><trkpt lat="43.55283864627805" lon="12.643854970644915"><ele>276.0</ele><time>2026-04-27T12:55:06Z</time></trkpt><trkpt lat="43.55300979291281" lon="12.643974018857786"><ele>276.0</ele><time>2026-04-27T12:55:07Z</time></trkpt><trkpt lat="43.553181690588204" lon="12.644091638427865"><ele>276.0</ele><time>2026-04-27T12:55:08Z</time></trkpt><trkpt lat="43.553350429413335" lon="12.644209245948893"><ele>276.0</ele><time>2026-04-27T12:55:09Z</time></trkpt><trkpt lat="43.553517351800004" lon="12.644327919060705"><ele>276.0</ele><time>2026-04-27T12:55:10Z</time></trkpt><trkpt lat="43.55368251784892" lon="12.644446611701653"><ele>276.0</ele><time>2026-04-27T12:55:11Z</time></trkpt><trkpt lat="43.55384547097959" lon="12.644560437301736"><ele>276.0</ele><time>2026-04-27T12:55:12Z</time></trkpt><trkpt lat="43.5540039748246" lon="12.64467407630191"><ele>276.0</ele><time>2026-04-27T12:55:13Z</time></trkpt><trkpt lat="43.55416333444708" lon="12.644788429245214"><ele>276.0</ele><time>2026-04-27T12:55:14Z</time></trkpt><trkpt lat="43.55432066771941" lon="12.644903406426696"><ele>276.0</ele><time>2026-04-27T12:55:15Z</time></trkpt><trkpt lat="43.55447593587766" lon="12.645021356733135"><ele>277.3333333333333</ele><time>2026-04-27T12:55:16Z</time></trkpt><trkpt lat="43.55462857447038" lon="12.645141954122264"><ele>278.66666666666663</ele><time>2026-04-27T12:55:17Z</time></trkpt><trkpt lat="43.55477831746375" lon="12.645263449059042"><ele>280.0</ele><time>2026-04-27T12:55:18Z</time></trkpt><trkpt lat="43.55493087345359" lon="12.64538800945583"><ele>280.0</ele><time>2026-04-27T12:55:19Z</time></trkpt><trkpt lat="43.55507903325628" lon="12.645515922482357"><ele>280.0</ele><time>2026-04-27T12:55:20Z</time></trkpt><trkpt lat="43.555225859057984" lon="12.645647705764413"><ele>280.0</ele><time>2026-04-27T12:55:21Z</time></trkpt><trkpt lat="43.55537425744099" lon="12.64578324237886"><ele>281.66666666666663</ele><time>2026-04-27T12:55:22Z</time></trkpt><trkpt lat="43.55552364858317" lon="12.645921088196452"><ele>283.3333333333333</ele><time>2026-04-27T12:55:23Z</time></trkpt><trkpt lat="43.55567575513331" lon="12.646061275539578"><ele>285.0</ele><time>2026-04-27T12:55:24Z</time></trkpt><trkpt lat="43.55582811130023" lon="12.646206833137589"><ele>285.0</ele><time>2026-04-27T12:55:25Z</time></trkpt><trkpt lat="43.55598185774511" lon="12.646351933605615"><ele>285.0</ele><time>2026-04-27T12:55:26Z</time></trkpt><trkpt lat="43.556136465933534" lon="12.646498607014687"><ele>285.0</ele><time>2026-04-27T12:55:27Z</time></trkpt><trkpt lat="43.5562945827471" lon="12.646646090206751"><ele>286.0</ele><time>2026-04-27T12:55:28Z</time></trkpt><trkpt lat="43.55645305521878" lon="12.646796820559288"><ele>287.0</ele><time>2026-04-27T12:55:29Z</time></trkpt><trkpt lat="43.55660994777871" lon="12.646952207984569"><ele>288.0</ele><time>2026-04-27T12:55:30Z</time></trkpt><trkpt lat="43.55676340639552" lon="12.647115464052753"><ele>287.0</ele><time>2026-04-27T12:55:31Z</time></trkpt><trkpt lat="43.55690965253126" lon="12.647290893223257"><ele>286.0</ele><time>2026-04-27T12:55:32Z</time></trkpt><trkpt lat="43.55704880551422" lon="12.647480570523163"><ele>285.0</ele><time>2026-04-27T12:55:33Z</time></trkpt><trkpt lat="43.55718363623278" lon="12.647678669742593"><ele>282.6666666666667</ele><time>2026-04-27T12:55:34Z</time></trkpt><trkpt lat="43.557318224816235" lon="12.647877067641584"><ele>280.33333333333337</ele><time>2026-04-27T12:55:35Z</time></trkpt><trkpt lat="43.557450054907065" lon="12.648084225134372"><ele>278.0</ele><time>2026-04-27T12:55:36Z</time></trkpt><trkpt lat="43.55758287925141" lon="12.648288026205833"><ele>278.0</ele><time>2026-04-27T12:55:37Z</time></trkpt><trkpt lat="43.55771330243593" lon="12.64849096146261"><ele>278.0</ele><time>2026-04-27T12:55:38Z</time></trkpt><trkpt lat="43.55784300132258" lon="12.648694103424525"><ele>278.0</ele><time>2026-04-27T12:55:39Z</time></trkpt><trkpt lat="43.55797282562303" lon="12.64889938341454"><ele>278.6666666666667</ele><time>2026-04-27T12:55:40Z</time></trkpt><trkpt lat="43.558100962652375" lon="12.649104473116006"><ele>279.3333333333333</ele><time>2026-04-27T12:55:41Z</time></trkpt><trkpt lat="43.558229339450406" lon="12.649310915455318"><ele>280.0</ele><time>2026-04-27T12:55:42Z</time></trkpt><trkpt lat="43.55836033004431" lon="12.64951230909284"><ele>278.3333333333333</ele><time>2026-04-27T12:55:43Z</time></trkpt><trkpt lat="43.55849166363583" lon="12.64971118898883"><ele>276.6666666666667</ele><time>2026-04-27T12:55:44Z</time></trkpt><trkpt lat="43.55862335047004" lon="12.649907841521472"><ele>275.0</ele><time>2026-04-27T12:55:45Z</time></trkpt><trkpt lat="43.55875583153406" lon="12.65010504214838"><ele>273.0</ele><time>2026-04-27T12:55:46Z</time></trkpt><trkpt lat="43.55888739439084" lon="12.650299397804886"><ele>271.0</ele><time>2026-04-27T12:55:47Z</time></trkpt><trkpt lat="43.559021454691" lon="12.650489496397206"><ele>269.0</ele><time>2026-04-27T12:55:48Z</time></trkpt><trkpt lat="43.55915899906174" lon="12.6506711156291"><ele>269.0</ele><time>2026-04-27T12:55:49Z</time></trkpt><trkpt lat="43.5592973052764" lon="12.650850386101336"><ele>269.0</ele><time>2026-04-27T12:55:50Z</time></trkpt><trkpt lat="43.559437728528295" lon="12.651022819889972"><ele>269.0</ele><time>2026-04-27T12:55:51Z</time></trkpt><trkpt lat="43.559582399880206" lon="12.651189553432351"><ele>268.6666666666667</ele><time>2026-04-27T12:55:52Z</time></trkpt><trkpt lat="43.559727905157814" lon="12.651354590940228"><ele>268.3333333333333</ele><time>2026-04-27T12:55:53Z</time></trkpt><trkpt lat="43.55987775482517" lon="12.651514846999087"><ele>268.0</ele><time>2026-04-27T12:55:54Z</time></trkpt><trkpt lat="43.56003011250489" lon="12.651670524758524"><ele>268.0</ele><time>2026-04-27T12:55:55Z</time></trkpt><trkpt lat="43.56018657093704" lon="12.651820177391642"><ele>268.0</ele><time>2026-04-27T12:55:56Z</time></trkpt><trkpt lat="43.56034490281084" lon="12.651963698226227"><ele>268.0</ele><time>2026-04-27T12:55:57Z</time></trkpt><trkpt lat="43.56050599680756" lon="12.6521052398642"><ele>265.0</ele><time>2026-04-27T12:55:58Z</time></trkpt><trkpt lat="43.5606682105981" lon="12.652239414013232"><ele>262.0</ele><time>2026-04-27T12:55:59Z</time></trkpt><trkpt lat="43.56083186747886" lon="12.652373807026136"><ele>259.0</ele><time>2026-04-27T12:56:00Z</time></trkpt><trkpt lat="43.5609962215621" lon="12.652507123197719"><ele>259.0</ele><time>2026-04-27T12:56:01Z</time></trkpt><trkpt lat="43.56116124620959" lon="12.652639096049441"><ele>259.0</ele><time>2026-04-27T12:56:02Z</time></trkpt><trkpt lat="43.561324398767816" lon="12.652770748980132"><ele>259.0</ele><time>2026-04-27T12:56:03Z</time></trkpt><trkpt lat="43.56148830965534" lon="12.65290213176096"><ele>257.66666666666663</ele><time>2026-04-27T12:56:04Z</time></trkpt><trkpt lat="43.56165129754033" lon="12.653036598971822"><ele>256.3333333333333</ele><time>2026-04-27T12:56:05Z</time></trkpt><trkpt lat="43.56181144359014" lon="12.65317558831222"><ele>255.0</ele><time>2026-04-27T12:56:06Z</time></trkpt><trkpt lat="43.56197110943172" lon="12.653316609450163"><ele>254.0</ele><time>2026-04-27T12:56:07Z</time></trkpt><trkpt lat="43.562131146832776" lon="12.653464183652794"><ele>253.0</ele><time>2026-04-27T12:56:08Z</time></trkpt><trkpt lat="43.562283507336964" lon="12.653619140557243"><ele>252.0</ele><time>2026-04-27T12:56:09Z</time></trkpt><trkpt lat="43.56242772741722" lon="12.65378187377339"><ele>252.0</ele><time>2026-04-27T12:56:10Z</time></trkpt><trkpt lat="43.56256307798757" lon="12.65395276336003"><ele>252.0</ele><time>2026-04-27T12:56:11Z</time></trkpt><trkpt lat="43.56269257236552" lon="12.654131855452054"><ele>252.0</ele><time>2026-04-27T12:56:12Z</time></trkpt><trkpt lat="43.562813916548464" lon="12.654325186198744"><ele>249.66666666666669</ele><time>2026-04-27T12:56:13Z</time></trkpt><trkpt lat="43.562925197992115" lon="12.654531303695093"><ele>247.33333333333334</ele><time>2026-04-27T12:56:14Z</time></trkpt><trkpt lat="43.563026228052145" lon="12.654745658841408"><ele>245.0</ele><time>2026-04-27T12:56:15Z</time></trkpt><trkpt lat="43.5631193603553" lon="12.654969817148915"><ele>245.0</ele><time>2026-04-27T12:56:16Z</time></trkpt><trkpt lat="43.56320087969997" lon="12.655202118211719"><ele>245.0</ele><time>2026-04-27T12:56:17Z</time></trkpt><trkpt lat="43.56327147013713" lon="12.655441318759221"><ele>245.0</ele><time>2026-04-27T12:56:18Z</time></trkpt><trkpt lat="43.563332229969845" lon="12.655684997928239"><ele>244.66666666666669</ele><time>2026-04-27T12:56:19Z</time></trkpt><trkpt lat="43.563381438722345" lon="12.655925205774576"><ele>244.33333333333331</ele><time>2026-04-27T12:56:20Z</time></trkpt><trkpt lat="43.56342176375966" lon="12.656175196007965"><ele>244.0</ele><time>2026-04-27T12:56:21Z</time></trkpt><trkpt lat="43.56345927804276" lon="12.656401948592121"><ele>244.66666666666666</ele><time>2026-04-27T12:56:22Z</time></trkpt><trkpt lat="43.56350431597578" lon="12.656629510466837"><ele>245.33333333333331</ele><time>2026-04-27T12:56:23Z</time></trkpt><trkpt lat="43.56355604007684" lon="12.656859203556005"><ele>246.0</ele><time>2026-04-27T12:56:24Z</time></trkpt><trkpt lat="43.56361564668874" lon="12.65708300847441"><ele>247.0</ele><time>2026-04-27T12:56:25Z</time></trkpt><trkpt lat="43.56368515184786" lon="12.657300827915059"><ele>248.0</ele><time>2026-04-27T12:56:26Z</time></trkpt><trkpt lat="43.56376499052916" lon="12.657515753314891"><ele>249.0</ele><time>2026-04-27T12:56:27Z</time></trkpt><trkpt lat="43.563855492160954" lon="12.657730640690067"><ele>249.66666666666669</ele><time>2026-04-27T12:56:28Z</time></trkpt><trkpt lat="43.5639570232416" lon="12.657935229482547"><ele>250.33333333333334</ele><time>2026-04-27T12:56:29Z</time></trkpt><trkpt lat="43.56407319381507" lon="12.658130945172223"><ele>251.0</ele><time>2026-04-27T12:56:30Z</time></trkpt><trkpt lat="43.564200421744516" lon="12.658312024253904"><ele>251.0</ele><time>2026-04-27T12:56:31Z</time></trkpt><trkpt lat="43.56433928430103" lon="12.658480395570487"><ele>251.0</ele><time>2026-04-27T12:56:32Z</time></trkpt><trkpt lat="43.564489465325906" lon="12.658643365873397"><ele>251.0</ele><time>2026-04-27T12:56:33Z</time></trkpt><trkpt lat="43.56464605057744" lon="12.658798253914055"><ele>251.0</ele><time>2026-04-27T12:56:34Z</time></trkpt><trkpt lat="43.56480815469013" lon="12.658944439658345"><ele>251.0</ele><time>2026-04-27T12:56:35Z</time></trkpt><trkpt lat="43.56497149741617" lon="12.65908141738015"><ele>251.0</ele><time>2026-04-27T12:56:36Z</time></trkpt><trkpt lat="43.565136428719526" lon="12.659216412888401"><ele>251.0</ele><time>2026-04-27T12:56:37Z</time></trkpt><trkpt lat="43.56530450998506" lon="12.659342963632774"><ele>251.0</ele><time>2026-04-27T12:56:38Z</time></trkpt><trkpt lat="43.56547361251783" lon="12.659463323851915"><ele>251.0</ele><time>2026-04-27T12:56:39Z</time></trkpt><trkpt lat="43.56564532152856" lon="12.659576602192402"><ele>251.0</ele><time>2026-04-27T12:56:40Z</time></trkpt><trkpt lat="43.5658186575436" lon="12.659684740345984"><ele>251.0</ele><time>2026-04-27T12:56:41Z</time></trkpt><trkpt lat="43.565990777894235" lon="12.659790524482608"><ele>251.0</ele><time>2026-04-27T12:56:42Z</time></trkpt><trkpt lat="43.56616033646472" lon="12.659895005608744"><ele>251.66666666666669</ele><time>2026-04-27T12:56:43Z</time></trkpt><trkpt lat="43.566323398362314" lon="12.659995354388224"><ele>252.33333333333331</ele><time>2026-04-27T12:56:44Z</time></trkpt><trkpt lat="43.56648238720306" lon="12.660093346163311"><ele>253.0</ele><time>2026-04-27T12:56:45Z</time></trkpt><trkpt lat="43.56663779812991" lon="12.660191210826643"><ele>251.66666666666666</ele><time>2026-04-27T12:56:46Z</time></trkpt><trkpt lat="43.566791365093955" lon="12.660290046082268"><ele>250.33333333333331</ele><time>2026-04-27T12:56:47Z</time></trkpt><trkpt lat="43.56694658979152" lon="12.66038826976624"><ele>249.0</ele><time>2026-04-27T12:56:48Z</time></trkpt><trkpt lat="43.567099542629904" lon="12.660486234805678"><ele>249.0</ele><time>2026-04-27T12:56:49Z</time></trkpt><trkpt lat="43.56725138677083" lon="12.660582923202208"><ele>249.0</ele><time>2026-04-27T12:56:50Z</time></trkpt><trkpt lat="43.56740333839693" lon="12.660679045611333"><ele>249.0</ele><time>2026-04-27T12:56:51Z</time></trkpt><trkpt lat="43.56755718407997" lon="12.66077679531686"><ele>249.0</ele><time>2026-04-27T12:56:52Z</time></trkpt><trkpt lat="43.56771285266535" lon="12.66087524175575"><ele>249.0</ele><time>2026-04-27T12:56:53Z</time></trkpt><trkpt lat="43.567866143884096" lon="12.66097878619627"><ele>249.0</ele><time>2026-04-27T12:56:54Z</time></trkpt><trkpt lat="43.56802219669249" lon="12.661082964366367"><ele>248.0</ele><time>2026-04-27T12:56:55Z</time></trkpt><trkpt lat="43.56817791168661" lon="12.661188764113358"><ele>247.0</ele><time>2026-04-27T12:56:56Z</time></trkpt><trkpt lat="43.56833376269343" lon="12.661296542439745"><ele>246.0</ele><time>2026-04-27T12:56:57Z</time></trkpt><trkpt lat="43.568489262447784" lon="12.661405434756945"><ele>246.0</ele><time>2026-04-27T12:56:58Z</time></trkpt><trkpt lat="43.56864184930514" lon="12.66151888089484"><ele>246.0</ele><time>2026-04-27T12:56:59Z</time></trkpt><trkpt lat="43.56879285484243" lon="12.661633068564806"><ele>246.0</ele><time>2026-04-27T12:57:00Z</time></trkpt><trkpt lat="43.56894333937537" lon="12.661747801373492"><ele>246.33333333333331</ele><time>2026-04-27T12:57:01Z</time></trkpt><trkpt lat="43.56909249399012" lon="12.661859223158611"><ele>246.66666666666666</ele><time>2026-04-27T12:57:02Z</time></trkpt><trkpt lat="43.56924185087276" lon="12.661972199306286"><ele>247.0</ele><time>2026-04-27T12:57:03Z</time></trkpt><trkpt lat="43.56938970252441" lon="12.662085306175033"><ele>246.66666666666666</ele><time>2026-04-27T12:57:04Z</time></trkpt><trkpt lat="43.56953847043947" lon="12.662196040111718"><ele>246.33333333333331</ele><time>2026-04-27T12:57:05Z</time></trkpt><trkpt lat="43.569686869787716" lon="12.66230732980463"><ele>246.0</ele><time>2026-04-27T12:57:06Z</time></trkpt><trkpt lat="43.56983497306943" lon="12.662415282105972"><ele>246.0</ele><time>2026-04-27T12:57:07Z</time></trkpt><trkpt lat="43.5699830691398" lon="12.662526044711168"><ele>246.0</ele><time>2026-04-27T12:57:08Z</time></trkpt><trkpt lat="43.570130607416864" lon="12.662637908389465"><ele>246.0</ele><time>2026-04-27T12:57:09Z</time></trkpt><trkpt lat="43.57027869589866" lon="12.662750734682605"><ele>244.33333333333331</ele><time>2026-04-27T12:57:10Z</time></trkpt><trkpt lat="43.570426014234954" lon="12.662861630949847"><ele>242.66666666666666</ele><time>2026-04-27T12:57:11Z</time></trkpt><trkpt lat="43.57057269623412" lon="12.66297305679952"><ele>241.0</ele><time>2026-04-27T12:57:12Z</time></trkpt><trkpt lat="43.570719699366514" lon="12.663085470029422"><ele>241.0</ele><time>2026-04-27T12:57:13Z</time></trkpt><trkpt lat="43.57086904070614" lon="12.663197094211286"><ele>241.0</ele><time>2026-04-27T12:57:14Z</time></trkpt><trkpt lat="43.57101972841973" lon="12.663311144021403"><ele>241.0</ele><time>2026-04-27T12:57:15Z</time></trkpt><trkpt lat="43.57117254246348" lon="12.66342543407759"><ele>241.33333333333331</ele><time>2026-04-27T12:57:16Z</time></trkpt><trkpt lat="43.57132572226576" lon="12.663540475947029"><ele>241.66666666666669</ele><time>2026-04-27T12:57:17Z</time></trkpt><trkpt lat="43.571478865712955" lon="12.663656859584048"><ele>242.0</ele><time>2026-04-27T12:57:18Z</time></trkpt><trkpt lat="43.57163479382685" lon="12.6637726063442"><ele>241.33333333333334</ele><time>2026-04-27T12:57:19Z</time></trkpt><trkpt lat="43.57179149170372" lon="12.663889522975559"><ele>240.66666666666669</ele><time>2026-04-27T12:57:20Z</time></trkpt><trkpt lat="43.57194722416948" lon="12.664007436050023"><ele>240.0</ele><time>2026-04-27T12:57:21Z</time></trkpt><trkpt lat="43.57210407000155" lon="12.66412624055364"><ele>240.0</ele><time>2026-04-27T12:57:22Z</time></trkpt><trkpt lat="43.572260988027516" lon="12.664243441916804"><ele>240.0</ele><time>2026-04-27T12:57:23Z</time></trkpt><trkpt lat="43.572418857100295" lon="12.66436055946095"><ele>240.0</ele><time>2026-04-27T12:57:24Z</time></trkpt><trkpt lat="43.57257678357432" lon="12.664480104202061"><ele>238.0</ele><time>2026-04-27T12:57:25Z</time></trkpt><trkpt lat="43.57273553723038" lon="12.6645979192492"><ele>236.0</ele><time>2026-04-27T12:57:26Z</time></trkpt><trkpt lat="43.572894988914996" lon="12.664716202263198"><ele>234.0</ele><time>2026-04-27T12:57:27Z</time></trkpt><trkpt lat="43.573054552907436" lon="12.664834714963188"><ele>233.66666666666669</ele><time>2026-04-27T12:57:28Z</time></trkpt><trkpt lat="43.573215395974515" lon="12.664954578938737"><ele>233.33333333333334</ele><time>2026-04-27T12:57:29Z</time></trkpt><trkpt lat="43.57337589060205" lon="12.665080242478144"><ele>233.0</ele><time>2026-04-27T12:57:30Z</time></trkpt><trkpt lat="43.57354083855597" lon="12.665209870769438"><ele>234.66666666666669</ele><time>2026-04-27T12:57:31Z</time></trkpt><trkpt lat="43.57371070011892" lon="12.665328372268803"><ele>236.33333333333331</ele><time>2026-04-27T12:57:32Z</time></trkpt><trkpt lat="43.57387992530674" lon="12.665456523230162"><ele>238.0</ele><time>2026-04-27T12:57:33Z</time></trkpt><trkpt lat="43.574050475074955" lon="12.665586370462618"><ele>238.0</ele><time>2026-04-27T12:57:34Z</time></trkpt><trkpt lat="43.574222985778015" lon="12.665715788388235"><ele>238.0</ele><time>2026-04-27T12:57:35Z</time></trkpt><trkpt lat="43.57439619178073" lon="12.665845982970636"><ele>238.0</ele><time>2026-04-27T12:57:36Z</time></trkpt><trkpt lat="43.57457075494958" lon="12.665974585892599"><ele>237.33333333333331</ele><time>2026-04-27T12:57:37Z</time></trkpt><trkpt lat="43.574745678102374" lon="12.666103055453762"><ele>236.66666666666669</ele><time>2026-04-27T12:57:38Z</time></trkpt><trkpt lat="43.57492021369436" lon="12.666232265532068"><ele>236.0</ele><time>2026-04-27T12:57:39Z</time></trkpt><trkpt lat="43.57509454978991" lon="12.666363153546987"><ele>236.0</ele><time>2026-04-27T12:57:40Z</time></trkpt><trkpt lat="43.575271426290904" lon="12.666492861908415"><ele>236.0</ele><time>2026-04-27T12:57:41Z</time></trkpt><trkpt lat="43.575444801899806" lon="12.666628727243047"><ele>236.0</ele><time>2026-04-27T12:57:42Z</time></trkpt><trkpt lat="43.575619744348515" lon="12.666762301439471"><ele>236.33333333333334</ele><time>2026-04-27T12:57:43Z</time></trkpt><trkpt lat="43.57579580752133" lon="12.666894244459355"><ele>236.66666666666669</ele><time>2026-04-27T12:57:44Z</time></trkpt><trkpt lat="43.575972372414185" lon="12.66702883958885"><ele>237.0</ele><time>2026-04-27T12:57:45Z</time></trkpt><trkpt lat="43.57614830603803" lon="12.667163429232252"><ele>236.66666666666669</ele><time>2026-04-27T12:57:46Z</time></trkpt><trkpt lat="43.576326630159826" lon="12.667299219378364"><ele>236.33333333333334</ele><time>2026-04-27T12:57:47Z</time></trkpt><trkpt lat="43.57650431366796" lon="12.66743357205928"><ele>236.0</ele><time>2026-04-27T12:57:48Z</time></trkpt><trkpt lat="43.57668304079089" lon="12.667566995799271"><ele>236.0</ele><time>2026-04-27T12:57:49Z</time></trkpt><trkpt lat="43.576863055173455" lon="12.667696517073997"><ele>236.0</ele><time>2026-04-27T12:57:50Z</time></trkpt><trkpt lat="43.577041596098674" lon="12.667828310364833"><ele>236.0</ele><time>2026-04-27T12:57:51Z</time></trkpt><trkpt lat="43.57721634666681" lon="12.667961249294532"><ele>235.33333333333334</ele><time>2026-04-27T12:57:52Z</time></trkpt><trkpt lat="43.577386268952345" lon="12.668092746229307"><ele>234.66666666666669</ele><time>2026-04-27T12:57:53Z</time></trkpt><trkpt lat="43.57755268994055" lon="12.668217306603363"><ele>234.0</ele><time>2026-04-27T12:57:54Z</time></trkpt><trkpt lat="43.577715591822745" lon="12.668336677517726"><ele>234.0</ele><time>2026-04-27T12:57:55Z</time></trkpt><trkpt lat="43.577877845702645" lon="12.668458569780453"><ele>234.0</ele><time>2026-04-27T12:57:56Z</time></trkpt><trkpt lat="43.578034344542345" lon="12.668586211891597"><ele>234.0</ele><time>2026-04-27T12:57:57Z</time></trkpt><trkpt lat="43.578188133419594" lon="12.668709606156307"><ele>234.0</ele><time>2026-04-27T12:57:58Z</time></trkpt><trkpt lat="43.57834224294719" lon="12.668825736792538"><ele>234.0</ele><time>2026-04-27T12:57:59Z</time></trkpt><trkpt lat="43.578494906566675" lon="12.668941047164676"><ele>234.0</ele><time>2026-04-27T12:58:00Z</time></trkpt><trkpt lat="43.578646888351884" lon="12.669053720185993"><ele>235.66666666666669</ele><time>2026-04-27T12:58:01Z</time></trkpt><trkpt lat="43.57879808609354" lon="12.669162812385723"><ele>237.33333333333334</ele><time>2026-04-27T12:58:02Z</time></trkpt><trkpt lat="43.57894934046291" lon="12.669273295463762"><ele>239.0</ele><time>2026-04-27T12:58:03Z</time></trkpt><trkpt lat="43.579102948136345" lon="12.669382964226127"><ele>237.66666666666669</ele><time>2026-04-27T12:58:04Z</time></trkpt><trkpt lat="43.579258782919716" lon="12.66949432559641"><ele>236.33333333333331</ele><time>2026-04-27T12:58:05Z</time></trkpt><trkpt lat="43.579417774977934" lon="12.669609201122508"><ele>235.0</ele><time>2026-04-27T12:58:06Z</time></trkpt><trkpt lat="43.579581773742404" lon="12.669722234144928"><ele>234.33333333333331</ele><time>2026-04-27T12:58:07Z</time></trkpt><trkpt lat="43.57974351145362" lon="12.669864936824629"><ele>233.66666666666669</ele><time>2026-04-27T12:58:08Z</time></trkpt><trkpt lat="43.57992285596598" lon="12.669999611138444"><ele>233.0</ele><time>2026-04-27T12:58:09Z</time></trkpt><trkpt lat="43.58012229728641" lon="12.670136131393933"><ele>232.33333333333334</ele><time>2026-04-27T12:58:10Z</time></trkpt><trkpt lat="43.58030320398162" lon="12.670287249306886"><ele>231.66666666666669</ele><time>2026-04-27T12:58:11Z</time></trkpt><trkpt lat="43.580480141379205" lon="12.670428567876034"><ele>231.0</ele><time>2026-04-27T12:58:12Z</time></trkpt><trkpt lat="43.580653442837395" lon="12.670566111819385"><ele>231.0</ele><time>2026-04-27T12:58:13Z</time></trkpt><trkpt lat="43.58082234299143" lon="12.670695533185826"><ele>231.0</ele><time>2026-04-27T12:58:14Z</time></trkpt><trkpt lat="43.580989518698246" lon="12.670818957280108"><ele>231.0</ele><time>2026-04-27T12:58:15Z</time></trkpt><trkpt lat="43.581156676142854" lon="12.67093715553773"><ele>231.33333333333331</ele><time>2026-04-27T12:58:16Z</time></trkpt><trkpt lat="43.58132324882378" lon="12.67105967353561"><ele>231.66666666666666</ele><time>2026-04-27T12:58:17Z</time></trkpt><trkpt lat="43.58148951516704" lon="12.671182854934825"><ele>232.0</ele><time>2026-04-27T12:58:18Z</time></trkpt><trkpt lat="43.58165447313781" lon="12.671304399307802"><ele>232.0</ele><time>2026-04-27T12:58:19Z</time></trkpt><trkpt lat="43.58181357306541" lon="12.671419551838952"><ele>232.0</ele><time>2026-04-27T12:58:20Z</time></trkpt><trkpt lat="43.581963785337095" lon="12.671531985076335"><ele>232.0</ele><time>2026-04-27T12:58:21Z</time></trkpt><trkpt lat="43.58210796887907" lon="12.671641594085264"><ele>232.0</ele><time>2026-04-27T12:58:22Z</time></trkpt><trkpt lat="43.582249069100094" lon="12.671748966678667"><ele>232.0</ele><time>2026-04-27T12:58:23Z</time></trkpt><trkpt lat="43.58238989320606" lon="12.671855185542933"><ele>232.0</ele><time>2026-04-27T12:58:24Z</time></trkpt><trkpt lat="43.58253173178745" lon="12.67196402097222"><ele>231.33333333333331</ele><time>2026-04-27T12:58:25Z</time></trkpt><trkpt lat="43.58267302566513" lon="12.672071874003255"><ele>230.66666666666669</ele><time>2026-04-27T12:58:26Z</time></trkpt><trkpt lat="43.582814296237025" lon="12.67217960366834"><ele>230.0</ele><time>2026-04-27T12:58:27Z</time></trkpt><trkpt lat="43.58295258475995" lon="12.67228334761947"><ele>230.0</ele><time>2026-04-27T12:58:28Z</time></trkpt><trkpt lat="43.583084238198545" lon="12.672378804949876"><ele>230.0</ele><time>2026-04-27T12:58:29Z</time></trkpt><trkpt lat="43.583216406367" lon="12.672473087509418"><ele>230.0</ele><time>2026-04-27T12:58:30Z</time></trkpt><trkpt lat="43.58335047318556" lon="12.672565098352296"><ele>230.0</ele><time>2026-04-27T12:58:31Z</time></trkpt><trkpt lat="43.58348616642032" lon="12.672655661029747"><ele>230.0</ele><time>2026-04-27T12:58:32Z</time></trkpt><trkpt lat="43.583623395426905" lon="12.67273932581738"><ele>230.0</ele><time>2026-04-27T12:58:33Z</time></trkpt><trkpt lat="43.58376007730921" lon="12.672817438724804"><ele>230.0</ele><time>2026-04-27T12:58:34Z</time></trkpt><trkpt lat="43.583895782230044" lon="12.672891930190195"><ele>230.0</ele><time>2026-04-27T12:58:35Z</time></trkpt><trkpt lat="43.58403471819808" lon="12.672966430325618"><ele>229.25</ele><time>2026-04-27T12:58:36Z</time></trkpt><trkpt lat="43.58417370458264" lon="12.673038664774777"><ele>228.5</ele><time>2026-04-27T12:58:37Z</time></trkpt><trkpt lat="43.584313487536285" lon="12.673109197141443"><ele>227.75</ele><time>2026-04-27T12:58:38Z</time></trkpt><trkpt lat="43.584456072217236" lon="12.673175753163925"><ele>227.0</ele><time>2026-04-27T12:58:39Z</time></trkpt><trkpt lat="43.58460304690804" lon="12.67324270685948"><ele>227.0</ele><time>2026-04-27T12:58:40Z</time></trkpt><trkpt lat="43.584753983837636" lon="12.673307552623497"><ele>227.0</ele><time>2026-04-27T12:58:41Z</time></trkpt><trkpt lat="43.58489937369083" lon="12.673367803226757"><ele>227.0</ele><time>2026-04-27T12:58:42Z</time></trkpt><trkpt lat="43.58504492147923" lon="12.673426003953166"><ele>227.0</ele><time>2026-04-27T12:58:43Z</time></trkpt><trkpt lat="43.58519259684578" lon="12.673485680767653"><ele>227.0</ele><time>2026-04-27T12:58:44Z</time></trkpt><trkpt lat="43.58534325833349" lon="12.673539566555904"><ele>227.0</ele><time>2026-04-27T12:58:45Z</time></trkpt><trkpt lat="43.58549466354999" lon="12.67359675066411"><ele>223.33333333333334</ele><time>2026-04-27T12:58:46Z</time></trkpt><trkpt lat="43.58564618690762" lon="12.67365099777858"><ele>219.66666666666669</ele><time>2026-04-27T12:58:47Z</time></trkpt><trkpt lat="43.58579492692395" lon="12.673707322269252"><ele>216.0</ele><time>2026-04-27T12:58:48Z</time></trkpt><trkpt lat="43.58594452447305" lon="12.673759177713025"><ele>216.0</ele><time>2026-04-27T12:58:49Z</time></trkpt><trkpt lat="43.586094080699574" lon="12.673812166231237"><ele>216.0</ele><time>2026-04-27T12:58:50Z</time></trkpt><trkpt lat="43.58624331248994" lon="12.673865886435555"><ele>216.0</ele><time>2026-04-27T12:58:51Z</time></trkpt><trkpt lat="43.5863913719761" lon="12.673918278466356"><ele>218.0</ele><time>2026-04-27T12:58:52Z</time></trkpt><trkpt lat="43.586539277384624" lon="12.673972507998123"><ele>220.0</ele><time>2026-04-27T12:58:53Z</time></trkpt><trkpt lat="43.5866862436711" lon="12.674025756779741"><ele>222.0</ele><time>2026-04-27T12:58:54Z</time></trkpt><trkpt lat="43.58683264438961" lon="12.674076698030015"><ele>222.0</ele><time>2026-04-27T12:58:55Z</time></trkpt><trkpt lat="43.586981372011515" lon="12.674130655143312"><ele>222.0</ele><time>2026-04-27T12:58:56Z</time></trkpt><trkpt lat="43.58713267260731" lon="12.674186081009227"><ele>222.0</ele><time>2026-04-27T12:58:57Z</time></trkpt><trkpt lat="43.58728307783273" lon="12.674242845657279"><ele>224.0</ele><time>2026-04-27T12:58:58Z</time></trkpt><trkpt lat="43.5874361692816" lon="12.67429900198781"><ele>226.0</ele><time>2026-04-27T12:58:59Z</time></trkpt><trkpt lat="43.58759220044266" lon="12.674354208585134"><ele>228.0</ele><time>2026-04-27T12:59:00Z</time></trkpt><trkpt lat="43.58774430121836" lon="12.674413066511265"><ele>224.33333333333331</ele><time>2026-04-27T12:59:01Z</time></trkpt><trkpt lat="43.58789967940676" lon="12.674468567738378"><ele>220.66666666666666</ele><time>2026-04-27T12:59:02Z</time></trkpt><trkpt lat="43.58805476920411" lon="12.674526010845701"><ele>217.0</ele><time>2026-04-27T12:59:03Z</time></trkpt><trkpt lat="43.58820684577045" lon="12.674583147204435"><ele>217.0</ele><time>2026-04-27T12:59:04Z</time></trkpt><trkpt lat="43.588357197217256" lon="12.674645133308413"><ele>217.0</ele><time>2026-04-27T12:59:05Z</time></trkpt><trkpt lat="43.588512136519284" lon="12.674695895767192"><ele>217.0</ele><time>2026-04-27T12:59:06Z</time></trkpt><trkpt lat="43.5886672514745" lon="12.674748460424013"><ele>220.33333333333331</ele><time>2026-04-27T12:59:07Z</time></trkpt><trkpt lat="43.588823765729224" lon="12.674801450998025"><ele>223.66666666666669</ele><time>2026-04-27T12:59:08Z</time></trkpt><trkpt lat="43.58897675795174" lon="12.67486063553456"><ele>227.0</ele><time>2026-04-27T12:59:09Z</time></trkpt><trkpt lat="43.58913436446871" lon="12.67493269945828"><ele>227.0</ele><time>2026-04-27T12:59:10Z</time></trkpt><trkpt lat="43.58929197618972" lon="12.674987259758142"><ele>227.0</ele><time>2026-04-27T12:59:11Z</time></trkpt><trkpt lat="43.58944653415959" lon="12.675044217687661"><ele>227.0</ele><time>2026-04-27T12:59:12Z</time></trkpt><trkpt lat="43.58960173555709" lon="12.675099866398012"><ele>227.0</ele><time>2026-04-27T12:59:13Z</time></trkpt><trkpt lat="43.58976141659873" lon="12.675157779892887"><ele>227.0</ele><time>2026-04-27T12:59:14Z</time></trkpt><trkpt lat="43.58991993459958" lon="12.675218717040003"><ele>227.0</ele><time>2026-04-27T12:59:15Z</time></trkpt><trkpt lat="43.590077459944006" lon="12.675279070993914"><ele>224.33333333333334</ele><time>2026-04-27T12:59:16Z</time></trkpt><trkpt lat="43.59023486579698" lon="12.675338439484994"><ele>221.66666666666669</ele><time>2026-04-27T12:59:17Z</time></trkpt><trkpt lat="43.590396838269214" lon="12.675396086823755"><ele>219.0</ele><time>2026-04-27T12:59:18Z</time></trkpt><trkpt lat="43.590552258381265" lon="12.675452721085382"><ele>219.0</ele><time>2026-04-27T12:59:19Z</time></trkpt><trkpt lat="43.590708465374775" lon="12.675513371563909"><ele>219.0</ele><time>2026-04-27T12:59:20Z</time></trkpt><trkpt lat="43.59086642467954" lon="12.675577183023385"><ele>219.0</ele><time>2026-04-27T12:59:21Z</time></trkpt><trkpt lat="43.591021378025715" lon="12.675639932843527"><ele>220.33333333333331</ele><time>2026-04-27T12:59:22Z</time></trkpt><trkpt lat="43.591178087757065" lon="12.675702408748068"><ele>221.66666666666666</ele><time>2026-04-27T12:59:23Z</time></trkpt><trkpt lat="43.59133528727596" lon="12.675757474293832"><ele>223.0</ele><time>2026-04-27T12:59:24Z</time></trkpt><trkpt lat="43.591492415155614" lon="12.675809853127248"><ele>223.0</ele><time>2026-04-27T12:59:25Z</time></trkpt><trkpt lat="43.59165099445669" lon="12.675862562535539"><ele>223.0</ele><time>2026-04-27T12:59:26Z</time></trkpt><trkpt lat="43.59181018502963" lon="12.675914436864732"><ele>223.0</ele><time>2026-04-27T12:59:27Z</time></trkpt><trkpt lat="43.59196905896258" lon="12.675962146072642"><ele>222.33333333333331</ele><time>2026-04-27T12:59:28Z</time></trkpt><trkpt lat="43.59212635105341" lon="12.67601786024994"><ele>221.66666666666669</ele><time>2026-04-27T12:59:29Z</time></trkpt><trkpt lat="43.59228808672956" lon="12.676066016966898"><ele>221.0</ele><time>2026-04-27T12:59:30Z</time></trkpt><trkpt lat="43.59244487476778" lon="12.676111497263863"><ele>219.66666666666669</ele><time>2026-04-27T12:59:31Z</time></trkpt><trkpt lat="43.592604547443806" lon="12.676138384251933"><ele>218.33333333333331</ele><time>2026-04-27T12:59:32Z</time></trkpt><trkpt lat="43.59276968335194" lon="12.676165937256703"><ele>217.0</ele><time>2026-04-27T12:59:33Z</time></trkpt><trkpt lat="43.592932503783345" lon="12.676187114940607"><ele>217.0</ele><time>2026-04-27T12:59:34Z</time></trkpt><trkpt lat="43.593090232616234" lon="12.676204250228265"><ele>217.0</ele><time>2026-04-27T12:59:35Z</time></trkpt><trkpt lat="43.59325390503207" lon="12.676213045287092"><ele>217.0</ele><time>2026-04-27T12:59:36Z</time></trkpt><trkpt lat="43.59341520929635" lon="12.676218170100936"><ele>217.0</ele><time>2026-04-27T12:59:37Z</time></trkpt><trkpt lat="43.59358053751448" lon="12.676217610187868"><ele>217.0</ele><time>2026-04-27T12:59:38Z</time></trkpt><trkpt lat="43.593740717294466" lon="12.676213228330111"><ele>217.0</ele><time>2026-04-27T12:59:39Z</time></trkpt><trkpt lat="43.59390411866841" lon="12.676206913585066"><ele>217.66666666666666</ele><time>2026-04-27T12:59:40Z</time></trkpt><trkpt lat="43.59406614464516" lon="12.676208633749587"><ele>218.33333333333331</ele><time>2026-04-27T12:59:41Z</time></trkpt><trkpt lat="43.59422586418923" lon="12.67620664781742"><ele>219.0</ele><time>2026-04-27T12:59:42Z</time></trkpt><trkpt lat="43.594388025741544" lon="12.676203220611024"><ele>219.66666666666669</ele><time>2026-04-27T12:59:43Z</time></trkpt><trkpt lat="43.594547628766584" lon="12.67619828139579"><ele>220.33333333333334</ele><time>2026-04-27T12:59:44Z</time></trkpt><trkpt lat="43.59470409500264" lon="12.676192893969777"><ele>221.0</ele><time>2026-04-27T12:59:45Z</time></trkpt><trkpt lat="43.594861648868694" lon="12.676188122453937"><ele>221.0</ele><time>2026-04-27T12:59:46Z</time></trkpt><trkpt lat="43.59502025301735" lon="12.676182667544158"><ele>221.0</ele><time>2026-04-27T12:59:47Z</time></trkpt><trkpt lat="43.59517678518336" lon="12.676173966163534"><ele>221.0</ele><time>2026-04-27T12:59:48Z</time></trkpt><trkpt lat="43.59533891034407" lon="12.676168521945883"><ele>220.66666666666669</ele><time>2026-04-27T12:59:49Z</time></trkpt><trkpt lat="43.595501778696864" lon="12.676160578702934"><ele>220.33333333333331</ele><time>2026-04-27T12:59:50Z</time></trkpt><trkpt lat="43.595658124613784" lon="12.676163642052867"><ele>220.0</ele><time>2026-04-27T12:59:51Z</time></trkpt><trkpt lat="43.59581803848205" lon="12.676161053130581"><ele>220.0</ele><time>2026-04-27T12:59:52Z</time></trkpt><trkpt lat="43.59597633752734" lon="12.676152717814599"><ele>220.0</ele><time>2026-04-27T12:59:53Z</time></trkpt><trkpt lat="43.59613554417155" lon="12.6761498946601"><ele>220.0</ele><time>2026-04-27T12:59:54Z</time></trkpt><trkpt lat="43.59629349204705" lon="12.676149604899026"><ele>217.66666666666666</ele><time>2026-04-27T12:59:55Z</time></trkpt><trkpt lat="43.59645339781633" lon="12.676155210534873"><ele>215.33333333333331</ele><time>2026-04-27T12:59:56Z</time></trkpt><trkpt lat="43.59661448577106" lon="12.676156294134683"><ele>213.0</ele><time>2026-04-27T12:59:57Z</time></trkpt><trkpt lat="43.59676389036295" lon="12.676156838184761"><ele>213.0</ele><time>2026-04-27T12:59:58Z</time></trkpt><trkpt lat="43.59690844320861" lon="12.676147598934987"><ele>213.0</ele><time>2026-04-27T12:59:59Z</time></trkpt><trkpt lat="43.59704166559528" lon="12.676146603359978"><ele>213.0</ele><time>2026-04-27T13:00:00Z</time></trkpt><trkpt lat="43.597169038465154" lon="12.676147971519338"><ele>213.0</ele><time>2026-04-27T13:00:01Z</time></trkpt><trkpt lat="43.597288053845006" lon="12.676146294800489"><ele>212.25</ele><time>2026-04-27T13:00:02Z</time></trkpt><trkpt lat="43.59741000225338" lon="12.6761444586626"><ele>211.5</ele><time>2026-04-27T13:00:03Z</time></trkpt><trkpt lat="43.59754366799925" lon="12.676137224692281"><ele>210.75</ele><time>2026-04-27T13:00:04Z</time></trkpt><trkpt lat="43.597685352301305" lon="12.676134172409986"><ele>210.0</ele><time>2026-04-27T13:00:05Z</time></trkpt><trkpt lat="43.597835187357234" lon="12.676136369981457"><ele>209.66666666666669</ele><time>2026-04-27T13:00:06Z</time></trkpt><trkpt lat="43.59798616478746" lon="12.676135934987633"><ele>209.33333333333334</ele><time>2026-04-27T13:00:07Z</time></trkpt><trkpt lat="43.59814135040072" lon="12.676133481297668"><ele>209.0</ele><time>2026-04-27T13:00:08Z</time></trkpt><trkpt lat="43.59829989206094" lon="12.676129688910684"><ele>209.0</ele><time>2026-04-27T13:00:09Z</time></trkpt><trkpt lat="43.59846081334641" lon="12.676120276171641"><ele>209.0</ele><time>2026-04-27T13:00:10Z</time></trkpt><trkpt lat="43.59861914488762" lon="12.676114644480506"><ele>209.0</ele><time>2026-04-27T13:00:11Z</time></trkpt><trkpt lat="43.59877840754516" lon="12.676112124004042"><ele>209.66666666666669</ele><time>2026-04-27T13:00:12Z</time></trkpt><trkpt lat="43.59893899120747" lon="12.676108252290218"><ele>210.33333333333331</ele><time>2026-04-27T13:00:13Z</time></trkpt><trkpt lat="43.599098315927336" lon="12.676105730099705"><ele>211.0</ele><time>2026-04-27T13:00:14Z</time></trkpt><trkpt lat="43.599258758850716" lon="12.676103287898524"><ele>211.0</ele><time>2026-04-27T13:00:15Z</time></trkpt><trkpt lat="43.599417915550056" lon="12.6761040512624"><ele>211.0</ele><time>2026-04-27T13:00:16Z</time></trkpt><trkpt lat="43.5995777623211" lon="12.676107621009095"><ele>211.0</ele><time>2026-04-27T13:00:17Z</time></trkpt><trkpt lat="43.59973975877051" lon="12.676107931759011"><ele>210.0</ele><time>2026-04-27T13:00:18Z</time></trkpt><trkpt lat="43.59990087865785" lon="12.676104319928431"><ele>209.0</ele><time>2026-04-27T13:00:19Z</time></trkpt><trkpt lat="43.60006075366275" lon="12.676097510328647"><ele>208.0</ele><time>2026-04-27T13:00:20Z</time></trkpt><trkpt lat="43.60022027031875" lon="12.676093990355037"><ele>210.0</ele><time>2026-04-27T13:00:21Z</time></trkpt><trkpt lat="43.60038145786604" lon="12.67608890758042"><ele>212.0</ele><time>2026-04-27T13:00:22Z</time></trkpt><trkpt lat="43.60054775783519" lon="12.676090866089975"><ele>214.0</ele><time>2026-04-27T13:00:23Z</time></trkpt><trkpt lat="43.60071329994104" lon="12.676087762561204"><ele>214.0</ele><time>2026-04-27T13:00:24Z</time></trkpt><trkpt lat="43.600882022249515" lon="12.676084441729037"><ele>214.0</ele><time>2026-04-27T13:00:25Z</time></trkpt><trkpt lat="43.60105089496464" lon="12.676087030569832"><ele>214.0</ele><time>2026-04-27T13:00:26Z</time></trkpt><trkpt lat="43.60122528868672" lon="12.67609027165368"><ele>213.33333333333331</ele><time>2026-04-27T13:00:27Z</time></trkpt><trkpt lat="43.60140274645111" lon="12.676095454122636"><ele>212.66666666666669</ele><time>2026-04-27T13:00:28Z</time></trkpt><trkpt lat="43.60157986324994" lon="12.676096652793765"><ele>212.0</ele><time>2026-04-27T13:00:29Z</time></trkpt><trkpt lat="43.60176252757575" lon="12.676104258648962"><ele>211.0</ele><time>2026-04-27T13:00:30Z</time></trkpt><trkpt lat="43.60194248496649" lon="12.676115006073159"><ele>210.0</ele><time>2026-04-27T13:00:31Z</time></trkpt><trkpt lat="43.602124141598814" lon="12.676121704050592"><ele>209.0</ele><time>2026-04-27T13:00:32Z</time></trkpt><trkpt lat="43.60230251801973" lon="12.67612799110792"><ele>209.0</ele><time>2026-04-27T13:00:33Z</time></trkpt><trkpt lat="43.602473337211805" lon="12.676131944148016"><ele>209.0</ele><time>2026-04-27T13:00:34Z</time></trkpt><trkpt lat="43.6026432527863" lon="12.676130457132814"><ele>209.0</ele><time>2026-04-27T13:00:35Z</time></trkpt><trkpt lat="43.60281063830011" lon="12.676124129183785"><ele>209.33333333333334</ele><time>2026-04-27T13:00:36Z</time></trkpt><trkpt lat="43.60297717723812" lon="12.676114544594851"><ele>209.66666666666669</ele><time>2026-04-27T13:00:37Z</time></trkpt><trkpt lat="43.603143327420526" lon="12.676102345770218"><ele>210.0</ele><time>2026-04-27T13:00:38Z</time></trkpt><trkpt lat="43.60330890876256" lon="12.676093783457157"><ele>210.33333333333331</ele><time>2026-04-27T13:00:39Z</time></trkpt><trkpt lat="43.60347136546031" lon="12.676086933133769"><ele>210.66666666666666</ele><time>2026-04-27T13:00:40Z</time></trkpt><trkpt lat="43.60363494269546" lon="12.676077902801385"><ele>211.0</ele><time>2026-04-27T13:00:41Z</time></trkpt><trkpt lat="43.603796129635796" lon="12.67606747488849"><ele>211.0</ele><time>2026-04-27T13:00:42Z</time></trkpt><trkpt lat="43.603956614310206" lon="12.676057066442727"><ele>211.0</ele><time>2026-04-27T13:00:43Z</time></trkpt><trkpt lat="43.60412318188746" lon="12.676048182517881"><ele>211.0</ele><time>2026-04-27T13:00:44Z</time></trkpt><trkpt lat="43.6042847559519" lon="12.676038477281512"><ele>211.0</ele><time>2026-04-27T13:00:45Z</time></trkpt><trkpt lat="43.60445213196125" lon="12.676031655100223"><ele>211.0</ele><time>2026-04-27T13:00:46Z</time></trkpt><trkpt lat="43.60461702321379" lon="12.676020796148409"><ele>211.0</ele><time>2026-04-27T13:00:47Z</time></trkpt><trkpt lat="43.604784516126315" lon="12.676004830984285"><ele>209.66666666666666</ele><time>2026-04-27T13:00:48Z</time></trkpt><trkpt lat="43.604951309369454" lon="12.675992932150272"><ele>208.33333333333331</ele><time>2026-04-27T13:00:49Z</time></trkpt><trkpt lat="43.60511847198725" lon="12.67598017766222"><ele>207.0</ele><time>2026-04-27T13:00:50Z</time></trkpt><trkpt lat="43.60528553965312" lon="12.675970912136957"><ele>207.0</ele><time>2026-04-27T13:00:51Z</time></trkpt><trkpt lat="43.60545461962805" lon="12.675959151259118"><ele>207.0</ele><time>2026-04-27T13:00:52Z</time></trkpt><trkpt lat="43.60562472858813" lon="12.675952798367758"><ele>207.0</ele><time>2026-04-27T13:00:53Z</time></trkpt><trkpt lat="43.60579311552265" lon="12.675944236603579"><ele>207.0</ele><time>2026-04-27T13:00:54Z</time></trkpt><trkpt lat="43.60596457229147" lon="12.675933558983308"><ele>207.0</ele><time>2026-04-27T13:00:55Z</time></trkpt><trkpt lat="43.60613762144883" lon="12.6759221170231"><ele>207.0</ele><time>2026-04-27T13:00:56Z</time></trkpt><trkpt lat="43.60630738636136" lon="12.675910354806335"><ele>206.0</ele><time>2026-04-27T13:00:57Z</time></trkpt><trkpt lat="43.606478606281264" lon="12.67589906142395"><ele>205.0</ele><time>2026-04-27T13:00:58Z</time></trkpt><trkpt lat="43.606652871374486" lon="12.675883755794443"><ele>204.0</ele><time>2026-04-27T13:00:59Z</time></trkpt><trkpt lat="43.60682591587022" lon="12.67587502868347"><ele>204.66666666666669</ele><time>2026-04-27T13:01:00Z</time></trkpt><trkpt lat="43.60699980011061" lon="12.675865120490608"><ele>205.33333333333334</ele><time>2026-04-27T13:01:01Z</time></trkpt><trkpt lat="43.60717128631455" lon="12.67585636115919"><ele>206.0</ele><time>2026-04-27T13:01:02Z</time></trkpt><trkpt lat="43.607345194504404" lon="12.675845946352055"><ele>206.0</ele><time>2026-04-27T13:01:03Z</time></trkpt><trkpt lat="43.607518312944705" lon="12.675834328676459"><ele>206.0</ele><time>2026-04-27T13:01:04Z</time></trkpt><trkpt lat="43.60769128052479" lon="12.67582332262307"><ele>206.0</ele><time>2026-04-27T13:01:05Z</time></trkpt><trkpt lat="43.60786101261404" lon="12.675812251012308"><ele>205.0</ele><time>2026-04-27T13:01:06Z</time></trkpt><trkpt lat="43.60803275861995" lon="12.675800272542915"><ele>204.0</ele><time>2026-04-27T13:01:07Z</time></trkpt><trkpt lat="43.608206295835565" lon="12.675787036585412"><ele>203.0</ele><time>2026-04-27T13:01:08Z</time></trkpt><trkpt lat="43.608379016402395" lon="12.675775885258851"><ele>203.0</ele><time>2026-04-27T13:01:09Z</time></trkpt><trkpt lat="43.60855360245288" lon="12.675766985171391"><ele>203.0</ele><time>2026-04-27T13:01:10Z</time></trkpt><trkpt lat="43.60872892788569" lon="12.675758671861301"><ele>203.0</ele><time>2026-04-27T13:01:11Z</time></trkpt><trkpt lat="43.60890367030642" lon="12.675747138731497"><ele>203.33333333333334</ele><time>2026-04-27T13:01:12Z</time></trkpt><trkpt lat="43.609080703173284" lon="12.675736280892043"><ele>203.66666666666669</ele><time>2026-04-27T13:01:13Z</time></trkpt><trkpt lat="43.609256349474705" lon="12.67572255568157"><ele>204.0</ele><time>2026-04-27T13:01:14Z</time></trkpt><trkpt lat="43.609432144176985" lon="12.675713404588723"><ele>204.0</ele><time>2026-04-27T13:01:15Z</time></trkpt><trkpt lat="43.609607496319235" lon="12.67570178985279"><ele>204.0</ele><time>2026-04-27T13:01:16Z</time></trkpt><trkpt lat="43.609783830649455" lon="12.675692837581877"><ele>204.0</ele><time>2026-04-27T13:01:17Z</time></trkpt><trkpt lat="43.609955870165265" lon="12.675681560533675"><ele>204.0</ele><time>2026-04-27T13:01:18Z</time></trkpt><trkpt lat="43.61012887818188" lon="12.675671529713524"><ele>204.0</ele><time>2026-04-27T13:01:19Z</time></trkpt><trkpt lat="43.61030266462387" lon="12.675659486284896"><ele>204.0</ele><time>2026-04-27T13:01:20Z</time></trkpt><trkpt lat="43.61047802135525" lon="12.675650430048538"><ele>203.66666666666669</ele><time>2026-04-27T13:01:21Z</time></trkpt><trkpt lat="43.610653020141484" lon="12.675639513497135"><ele>203.33333333333334</ele><time>2026-04-27T13:01:22Z</time></trkpt><trkpt lat="43.610831754401055" lon="12.67562834276108"><ele>203.0</ele><time>2026-04-27T13:01:23Z</time></trkpt><trkpt lat="43.61101126208494" lon="12.675617021367861"><ele>202.33333333333334</ele><time>2026-04-27T13:01:24Z</time></trkpt><trkpt lat="43.61119119936167" lon="12.675605598528438"><ele>201.66666666666669</ele><time>2026-04-27T13:01:25Z</time></trkpt><trkpt lat="43.61137102158163" lon="12.675594673538109"><ele>201.0</ele><time>2026-04-27T13:01:26Z</time></trkpt><trkpt lat="43.61155254727624" lon="12.675582848245373"><ele>201.0</ele><time>2026-04-27T13:01:27Z</time></trkpt><trkpt lat="43.61173494899733" lon="12.675569268573192"><ele>201.0</ele><time>2026-04-27T13:01:28Z</time></trkpt><trkpt lat="43.611915895300356" lon="12.675558526613417"><ele>201.0</ele><time>2026-04-27T13:01:29Z</time></trkpt><trkpt lat="43.61209761563798" lon="12.67555001779193"><ele>201.0</ele><time>2026-04-27T13:01:30Z</time></trkpt><trkpt lat="43.61227933805013" lon="12.675541023905469"><ele>201.0</ele><time>2026-04-27T13:01:31Z</time></trkpt><trkpt lat="43.6124581455274" lon="12.675531336540908"><ele>201.0</ele><time>2026-04-27T13:01:32Z</time></trkpt><trkpt lat="43.61263878857161" lon="12.675520201903172"><ele>201.0</ele><time>2026-04-27T13:01:33Z</time></trkpt><trkpt lat="43.61281533607761" lon="12.675508008120364"><ele>201.0</ele><time>2026-04-27T13:01:34Z</time></trkpt><trkpt lat="43.61299615753265" lon="12.67549677169967"><ele>201.0</ele><time>2026-04-27T13:01:35Z</time></trkpt><trkpt lat="43.613175012973585" lon="12.675484897962919"><ele>202.33333333333331</ele><time>2026-04-27T13:01:36Z</time></trkpt><trkpt lat="43.61335132122323" lon="12.67547494134056"><ele>203.66666666666666</ele><time>2026-04-27T13:01:37Z</time></trkpt><trkpt lat="43.61352912275956" lon="12.67546399383401"><ele>205.0</ele><time>2026-04-27T13:01:38Z</time></trkpt><trkpt lat="43.6137015443166" lon="12.675455881623797"><ele>205.0</ele><time>2026-04-27T13:01:39Z</time></trkpt><trkpt lat="43.6138756857737" lon="12.675450467574986"><ele>205.0</ele><time>2026-04-27T13:01:40Z</time></trkpt><trkpt lat="43.614046725861584" lon="12.67543790821592"><ele>205.0</ele><time>2026-04-27T13:01:41Z</time></trkpt><trkpt lat="43.61421541284972" lon="12.675433528497045"><ele>205.0</ele><time>2026-04-27T13:01:42Z</time></trkpt><trkpt lat="43.61438880896622" lon="12.675429322076443"><ele>205.0</ele><time>2026-04-27T13:01:43Z</time></trkpt><trkpt lat="43.614561411940485" lon="12.675432356332358"><ele>205.0</ele><time>2026-04-27T13:01:44Z</time></trkpt><trkpt lat="43.61473725311177" lon="12.675438725015434"><ele>202.33333333333331</ele><time>2026-04-27T13:01:45Z</time></trkpt><trkpt lat="43.61491341166114" lon="12.675445652591293"><ele>199.66666666666669</ele><time>2026-04-27T13:01:46Z</time></trkpt><trkpt lat="43.61509306419698" lon="12.67545766806601"><ele>197.0</ele><time>2026-04-27T13:01:47Z</time></trkpt><trkpt lat="43.615272537269824" lon="12.67546943018824"><ele>196.0</ele><time>2026-04-27T13:01:48Z</time></trkpt><trkpt lat="43.61545731099459" lon="12.675482879393313"><ele>195.0</ele><time>2026-04-27T13:01:49Z</time></trkpt><trkpt lat="43.615643865869274" lon="12.675501242469725"><ele>194.0</ele><time>2026-04-27T13:01:50Z</time></trkpt><trkpt lat="43.61583217800195" lon="12.67552461737664"><ele>194.0</ele><time>2026-04-27T13:01:51Z</time></trkpt><trkpt lat="43.61601711671339" lon="12.675551546123346"><ele>194.0</ele><time>2026-04-27T13:01:52Z</time></trkpt><trkpt lat="43.61619910678612" lon="12.675580380599207"><ele>194.0</ele><time>2026-04-27T13:01:53Z</time></trkpt><trkpt lat="43.61638274223068" lon="12.675614155523496"><ele>194.0</ele><time>2026-04-27T13:01:54Z</time></trkpt><trkpt lat="43.61656113723138" lon="12.675654777093275"><ele>194.0</ele><time>2026-04-27T13:01:55Z</time></trkpt><trkpt lat="43.61672563258421" lon="12.675686324069172"><ele>194.0</ele><time>2026-04-27T13:01:56Z</time></trkpt><trkpt lat="43.61686857537731" lon="12.675724774357908"><ele>194.75</ele><time>2026-04-27T13:01:57Z</time></trkpt><trkpt lat="43.61700577136365" lon="12.675766557330096"><ele>195.5</ele><time>2026-04-27T13:01:58Z</time></trkpt><trkpt lat="43.617132600574074" lon="12.675800657865251"><ele>196.25</ele><time>2026-04-27T13:01:59Z</time></trkpt><trkpt lat="43.61725528963983" lon="12.675837524386557"><ele>197.0</ele><time>2026-04-27T13:02:00Z</time></trkpt><trkpt lat="43.617371109294176" lon="12.67587159646201"><ele>197.0</ele><time>2026-04-27T13:02:01Z</time></trkpt><trkpt lat="43.61748743558139" lon="12.675910206350945"><ele>197.0</ele><time>2026-04-27T13:02:02Z</time></trkpt><trkpt lat="43.617599972011284" lon="12.675946196339833"><ele>197.0</ele><time>2026-04-27T13:02:03Z</time></trkpt><trkpt lat="43.617718711107266" lon="12.675980312875057"><ele>197.0</ele><time>2026-04-27T13:02:04Z</time></trkpt><trkpt lat="43.61783964647715" lon="12.676015703344166"><ele>197.25</ele><time>2026-04-27T13:02:05Z</time></trkpt><trkpt lat="43.61796308721538" lon="12.6760520251793"><ele>197.5</ele><time>2026-04-27T13:02:06Z</time></trkpt><trkpt lat="43.618088064702455" lon="12.676088695220233"><ele>197.75</ele><time>2026-04-27T13:02:07Z</time></trkpt><trkpt lat="43.61821297317814" lon="12.676127736594125"><ele>198.0</ele><time>2026-04-27T13:02:08Z</time></trkpt><trkpt lat="43.61833793235345" lon="12.676161337159348"><ele>198.0</ele><time>2026-04-27T13:02:09Z</time></trkpt><trkpt lat="43.6184533368383" lon="12.67618838497444"><ele>198.0</ele><time>2026-04-27T13:02:10Z</time></trkpt><trkpt lat="43.61857092472516" lon="12.676207588312648"><ele>198.0</ele><time>2026-04-27T13:02:11Z</time></trkpt><trkpt lat="43.6186925885805" lon="12.676219522102993"><ele>198.0</ele><time>2026-04-27T13:02:12Z</time></trkpt><trkpt lat="43.618827337476354" lon="12.676247131749054"><ele>197.5</ele><time>2026-04-27T13:02:13Z</time></trkpt><trkpt lat="43.61896407389325" lon="12.676289203345437"><ele>197.0</ele><time>2026-04-27T13:02:14Z</time></trkpt><trkpt lat="43.619105376583505" lon="12.676337956529625"><ele>196.5</ele><time>2026-04-27T13:02:15Z</time></trkpt><trkpt lat="43.61925487775511" lon="12.676393529290207"><ele>196.0</ele><time>2026-04-27T13:02:16Z</time></trkpt><trkpt lat="43.6194113370907" lon="12.676451123555074"><ele>195.33333333333331</ele><time>2026-04-27T13:02:17Z</time></trkpt><trkpt lat="43.61958599486178" lon="12.676517784545485"><ele>194.66666666666669</ele><time>2026-04-27T13:02:18Z</time></trkpt><trkpt lat="43.619762261074754" lon="12.676589837907507"><ele>194.0</ele><time>2026-04-27T13:02:19Z</time></trkpt><trkpt lat="43.619947476844594" lon="12.676666628818921"><ele>194.0</ele><time>2026-04-27T13:02:20Z</time></trkpt><trkpt lat="43.620133456905826" lon="12.676743029810146"><ele>194.0</ele><time>2026-04-27T13:02:21Z</time></trkpt><trkpt lat="43.62032040285444" lon="12.676824395242106"><ele>194.0</ele><time>2026-04-27T13:02:22Z</time></trkpt><trkpt lat="43.62050797308378" lon="12.676908974259216"><ele>194.0</ele><time>2026-04-27T13:02:23Z</time></trkpt><trkpt lat="43.620696097655994" lon="12.67700083627737"><ele>194.0</ele><time>2026-04-27T13:02:24Z</time></trkpt><trkpt lat="43.62088606365156" lon="12.67709572328343"><ele>194.0</ele><time>2026-04-27T13:02:25Z</time></trkpt><trkpt lat="43.62107768919761" lon="12.677193745360627"><ele>194.0</ele><time>2026-04-27T13:02:26Z</time></trkpt><trkpt lat="43.621269074935" lon="12.677291996880422"><ele>194.0</ele><time>2026-04-27T13:02:27Z</time></trkpt><trkpt lat="43.621461443831315" lon="12.677395515158503"><ele>194.0</ele><time>2026-04-27T13:02:28Z</time></trkpt><trkpt lat="43.62165153288969" lon="12.67750379115092"><ele>194.0</ele><time>2026-04-27T13:02:29Z</time></trkpt><trkpt lat="43.621841014428206" lon="12.677614119974404"><ele>194.0</ele><time>2026-04-27T13:02:30Z</time></trkpt><trkpt lat="43.62203178389948" lon="12.67772489020565"><ele>194.0</ele><time>2026-04-27T13:02:31Z</time></trkpt><trkpt lat="43.62221777887719" lon="12.677839017886173"><ele>193.66666666666669</ele><time>2026-04-27T13:02:32Z</time></trkpt><trkpt lat="43.62239632070603" lon="12.677950166989259"><ele>193.33333333333331</ele><time>2026-04-27T13:02:33Z</time></trkpt><trkpt lat="43.62256920282744" lon="12.6780648164722"><ele>193.0</ele><time>2026-04-27T13:02:34Z</time></trkpt><trkpt lat="43.62273662834027" lon="12.678176742758472"><ele>192.33333333333331</ele><time>2026-04-27T13:02:35Z</time></trkpt><trkpt lat="43.62290400355925" lon="12.678290599207692"><ele>191.66666666666666</ele><time>2026-04-27T13:02:36Z</time></trkpt><trkpt lat="43.623066564076204" lon="12.678405660932084"><ele>191.0</ele><time>2026-04-27T13:02:37Z</time></trkpt><trkpt lat="43.623224873837955" lon="12.678522950329121"><ele>190.33333333333331</ele><time>2026-04-27T13:02:38Z</time></trkpt><trkpt lat="43.623377361497525" lon="12.678638736617506"><ele>189.66666666666666</ele><time>2026-04-27T13:02:39Z</time></trkpt><trkpt lat="43.62352637788957" lon="12.678753575464095"><ele>189.0</ele><time>2026-04-27T13:02:40Z</time></trkpt><trkpt lat="43.62367072584448" lon="12.678864573881897"><ele>190.33333333333331</ele><time>2026-04-27T13:02:41Z</time></trkpt><trkpt lat="43.6238089013708" lon="12.678973794397715"><ele>191.66666666666666</ele><time>2026-04-27T13:02:42Z</time></trkpt><trkpt lat="43.62393997509012" lon="12.679080351333141"><ele>193.0</ele><time>2026-04-27T13:02:43Z</time></trkpt><trkpt lat="43.62406197590758" lon="12.679183470934571"><ele>193.0</ele><time>2026-04-27T13:02:44Z</time></trkpt><trkpt lat="43.624176709717055" lon="12.679282918623743"><ele>193.0</ele><time>2026-04-27T13:02:45Z</time></trkpt><trkpt lat="43.62428636580561" lon="12.67937763627018"><ele>193.0</ele><time>2026-04-27T13:02:46Z</time></trkpt><trkpt lat="43.624396483038105" lon="12.679475195680176"><ele>193.0</ele><time>2026-04-27T13:02:47Z</time></trkpt><trkpt lat="43.624507354990655" lon="12.67957582429511"><ele>193.0</ele><time>2026-04-27T13:02:48Z</time></trkpt><trkpt lat="43.624614525549504" lon="12.679683797704552"><ele>193.0</ele><time>2026-04-27T13:02:49Z</time></trkpt><trkpt lat="43.62471683823414" lon="12.679800386436298"><ele>193.0</ele><time>2026-04-27T13:02:50Z</time></trkpt><trkpt lat="43.62482049650678" lon="12.679933100821543"><ele>193.0</ele><time>2026-04-27T13:02:51Z</time></trkpt><trkpt lat="43.62493601075189" lon="12.680068207238204"><ele>193.0</ele><time>2026-04-27T13:02:52Z</time></trkpt><trkpt lat="43.625061513949284" lon="12.680198695611073"><ele>193.0</ele><time>2026-04-27T13:02:53Z</time></trkpt><trkpt lat="43.62519438301485" lon="12.680333019025634"><ele>193.0</ele><time>2026-04-27T13:02:54Z</time></trkpt><trkpt lat="43.625334027556576" lon="12.680473070026553"><ele>192.66666666666666</ele><time>2026-04-27T13:02:55Z</time></trkpt><trkpt lat="43.62548093011325" lon="12.68061986714185"><ele>192.33333333333331</ele><time>2026-04-27T13:02:56Z</time></trkpt><trkpt lat="43.62563480553752" lon="12.680771067390602"><ele>192.0</ele><time>2026-04-27T13:02:57Z</time></trkpt><trkpt lat="43.62579777556912" lon="12.680926245376803"><ele>192.0</ele><time>2026-04-27T13:02:58Z</time></trkpt><trkpt lat="43.625968238007246" lon="12.681081473238882"><ele>192.0</ele><time>2026-04-27T13:02:59Z</time></trkpt><trkpt lat="43.6261470298643" lon="12.681243670525268"><ele>192.0</ele><time>2026-04-27T13:03:00Z</time></trkpt><trkpt lat="43.62632940769604" lon="12.681417870306344"><ele>193.0</ele><time>2026-04-27T13:03:01Z</time></trkpt><trkpt lat="43.62653246025267" lon="12.681610955578615"><ele>194.0</ele><time>2026-04-27T13:03:02Z</time></trkpt><trkpt lat="43.626744977049796" lon="12.681820580431891"><ele>193.5</ele><time>2026-04-27T13:03:03Z</time></trkpt><trkpt lat="43.62695993830062" lon="12.68204072350594"><ele>193.0</ele><time>2026-04-27T13:03:04Z</time></trkpt><trkpt lat="43.62717903006977" lon="12.682273147966416"><ele>193.0</ele><time>2026-04-27T13:03:05Z</time></trkpt><trkpt lat="43.62739666855709" lon="12.682499765468084"><ele>193.0</ele><time>2026-04-27T13:03:06Z</time></trkpt><trkpt lat="43.62761282557457" lon="12.68271818979805"><ele>192.0</ele><time>2026-04-27T13:03:07Z</time></trkpt><trkpt lat="43.62782713919598" lon="12.682931125074177"><ele>191.0</ele><time>2026-04-27T13:03:08Z</time></trkpt><trkpt lat="43.62804059528189" lon="12.683136372968287"><ele>191.0</ele><time>2026-04-27T13:03:09Z</time></trkpt><trkpt lat="43.62825374144939" lon="12.683333021593464"><ele>191.0</ele><time>2026-04-27T13:03:10Z</time></trkpt><trkpt lat="43.628468475396346" lon="12.68352330152591"><ele>191.0</ele><time>2026-04-27T13:03:11Z</time></trkpt><trkpt lat="43.628684070165214" lon="12.683702858687605"><ele>191.0</ele><time>2026-04-27T13:03:12Z</time></trkpt><trkpt lat="43.62890600526756" lon="12.683869982444417"><ele>191.0</ele><time>2026-04-27T13:03:13Z</time></trkpt><trkpt lat="43.62913070810134" lon="12.684024468232792"><ele>191.0</ele><time>2026-04-27T13:03:14Z</time></trkpt><trkpt lat="43.62935918778848" lon="12.684162519093345"><ele>192.0</ele><time>2026-04-27T13:03:15Z</time></trkpt><trkpt lat="43.62959009464917" lon="12.684287504752474"><ele>193.0</ele><time>2026-04-27T13:03:16Z</time></trkpt><trkpt lat="43.62982216869134" lon="12.68439992413085"><ele>190.0</ele><time>2026-04-27T13:03:17Z</time></trkpt><trkpt lat="43.63005645207845" lon="12.684507123761845"><ele>187.0</ele><time>2026-04-27T13:03:18Z</time></trkpt><trkpt lat="43.63029537993906" lon="12.68460406305978"><ele>187.5</ele><time>2026-04-27T13:03:19Z</time></trkpt><trkpt lat="43.63053820064186" lon="12.684684191149337"><ele>188.0</ele><time>2026-04-27T13:03:20Z</time></trkpt><trkpt lat="43.63078881916638" lon="12.684751288369132"><ele>188.0</ele><time>2026-04-27T13:03:21Z</time></trkpt><trkpt lat="43.63104809991084" lon="12.684809182533742"><ele>188.0</ele><time>2026-04-27T13:03:22Z</time></trkpt><trkpt lat="43.63131140711645" lon="12.684855930956667"><ele>187.0</ele><time>2026-04-27T13:03:23Z</time></trkpt><trkpt lat="43.63156806493193" lon="12.684898331294752"><ele>186.0</ele><time>2026-04-27T13:03:24Z</time></trkpt><trkpt lat="43.63181939568931" lon="12.684943523715727"><ele>187.5</ele><time>2026-04-27T13:03:25Z</time></trkpt><trkpt lat="43.632068848519445" lon="12.684995104852813"><ele>189.0</ele><time>2026-04-27T13:03:26Z</time></trkpt><trkpt lat="43.632319175864104" lon="12.685055487716342"><ele>189.0</ele><time>2026-04-27T13:03:27Z</time></trkpt><trkpt lat="43.632567413837" lon="12.685128151565538"><ele>189.0</ele><time>2026-04-27T13:03:28Z</time></trkpt><trkpt lat="43.632816343927026" lon="12.68521201340441"><ele>188.5</ele><time>2026-04-27T13:03:29Z</time></trkpt><trkpt lat="43.63306828640324" lon="12.68530803584195"><ele>188.0</ele><time>2026-04-27T13:03:30Z</time></trkpt><trkpt lat="43.633317940364975" lon="12.685420162357039"><ele>188.0</ele><time>2026-04-27T13:03:31Z</time></trkpt><trkpt lat="43.633563888642364" lon="12.6855387273446"><ele>188.0</ele><time>2026-04-27T13:03:32Z</time></trkpt><trkpt lat="43.63380883166177" lon="12.685672391114753"><ele>190.0</ele><time>2026-04-27T13:03:33Z</time></trkpt><trkpt lat="43.63404823554218" lon="12.685819326215604"><ele>192.0</ele><time>2026-04-27T13:03:34Z</time></trkpt><trkpt lat="43.63428264304779" lon="12.685980601874551"><ele>192.0</ele><time>2026-04-27T13:03:35Z</time></trkpt><trkpt lat="43.634514001536914" lon="12.686150191518712"><ele>192.0</ele><time>2026-04-27T13:03:36Z</time></trkpt><trkpt lat="43.63473950285483" lon="12.686330431522654"><ele>192.0</ele><time>2026-04-27T13:03:37Z</time></trkpt><trkpt lat="43.63495769406415" lon="12.686516946532546"><ele>192.0</ele><time>2026-04-27T13:03:38Z</time></trkpt><trkpt lat="43.63517145265193" lon="12.68671458834594"><ele>192.5</ele><time>2026-04-27T13:03:39Z</time></trkpt><trkpt lat="43.6353805604042" lon="12.686924752299925"><ele>193.0</ele><time>2026-04-27T13:03:40Z</time></trkpt><trkpt lat="43.63558315195314" lon="12.687145681158414"><ele>193.0</ele><time>2026-04-27T13:03:41Z</time></trkpt><trkpt lat="43.63578103433796" lon="12.687379568377155"><ele>193.0</ele><time>2026-04-27T13:03:42Z</time></trkpt><trkpt lat="43.63597296251564" lon="12.687623479949973"><ele>195.0</ele><time>2026-04-27T13:03:43Z</time></trkpt><trkpt lat="43.63615893709297" lon="12.687876069346904"><ele>197.0</ele><time>2026-04-27T13:03:44Z</time></trkpt><trkpt lat="43.63633965973337" lon="12.68813852354908"><ele>197.0</ele><time>2026-04-27T13:03:45Z</time></trkpt><trkpt lat="43.63651523115957" lon="12.688409884341532"><ele>197.0</ele><time>2026-04-27T13:03:46Z</time></trkpt><trkpt lat="43.6366825865738" lon="12.688687892014075"><ele>195.0</ele><time>2026-04-27T13:03:47Z</time></trkpt><trkpt lat="43.63683630771058" lon="12.688964179426794"><ele>193.0</ele><time>2026-04-27T13:03:48Z</time></trkpt><trkpt lat="43.63697672507065" lon="12.689240598050006"><ele>193.0</ele><time>2026-04-27T13:03:49Z</time></trkpt><trkpt lat="43.63710946171279" lon="12.689514852005932"><ele>193.0</ele><time>2026-04-27T13:03:50Z</time></trkpt><trkpt lat="43.6372315168443" lon="12.689786183338533"><ele>193.0</ele><time>2026-04-27T13:03:51Z</time></trkpt><trkpt lat="43.63734632712893" lon="12.69006061607953"><ele>193.0</ele><time>2026-04-27T13:03:52Z</time></trkpt><trkpt lat="43.637451006834034" lon="12.690330113915515"><ele>193.33333333333331</ele><time>2026-04-27T13:03:53Z</time></trkpt><trkpt lat="43.6375487897239" lon="12.690599770690355"><ele>193.66666666666669</ele><time>2026-04-27T13:03:54Z</time></trkpt><trkpt lat="43.63763748043161" lon="12.690867631520733"><ele>194.0</ele><time>2026-04-27T13:03:55Z</time></trkpt><trkpt lat="43.63771831556761" lon="12.691143515998355"><ele>194.0</ele><time>2026-04-27T13:03:56Z</time></trkpt><trkpt lat="43.637791746473766" lon="12.691422678227166"><ele>194.0</ele><time>2026-04-27T13:03:57Z</time></trkpt><trkpt lat="43.6378625443339" lon="12.691705546509965"><ele>194.0</ele><time>2026-04-27T13:03:58Z</time></trkpt><trkpt lat="43.637926561286434" lon="12.691986036335111"><ele>194.33333333333334</ele><time>2026-04-27T13:03:59Z</time></trkpt><trkpt lat="43.63798518013673" lon="12.692264491673718"><ele>194.66666666666669</ele><time>2026-04-27T13:04:00Z</time></trkpt><trkpt lat="43.63803672675765" lon="12.692545101213623"><ele>195.0</ele><time>2026-04-27T13:04:01Z</time></trkpt><trkpt lat="43.638080230236426" lon="12.692818447981205"><ele>195.0</ele><time>2026-04-27T13:04:02Z</time></trkpt><trkpt lat="43.63811672514603" lon="12.693091627909476"><ele>195.0</ele><time>2026-04-27T13:04:03Z</time></trkpt><trkpt lat="43.638148216762936" lon="12.693364497897635"><ele>195.0</ele><time>2026-04-27T13:04:04Z</time></trkpt><trkpt lat="43.63817668541121" lon="12.693635989453627"><ele>195.0</ele><time>2026-04-27T13:04:05Z</time></trkpt><trkpt lat="43.63820331131612" lon="12.69390583840058"><ele>195.0</ele><time>2026-04-27T13:04:06Z</time></trkpt><trkpt lat="43.638227057035586" lon="12.694172665939208"><ele>195.0</ele><time>2026-04-27T13:04:07Z</time></trkpt><trkpt lat="43.63824512132451" lon="12.694433393484235"><ele>194.33333333333331</ele><time>2026-04-27T13:04:08Z</time></trkpt><trkpt lat="43.63826255981774" lon="12.694691446773351"><ele>193.66666666666666</ele><time>2026-04-27T13:04:09Z</time></trkpt><trkpt lat="43.638279032563275" lon="12.69494745678945"><ele>193.0</ele><time>2026-04-27T13:04:10Z</time></trkpt><trkpt lat="43.63829608309446" lon="12.695201617840809"><ele>193.66666666666666</ele><time>2026-04-27T13:04:11Z</time></trkpt><trkpt lat="43.63831457010945" lon="12.69544960488755"><ele>194.33333333333331</ele><time>2026-04-27T13:04:12Z</time></trkpt><trkpt lat="43.63833089854742" lon="12.695693439094226"><ele>195.0</ele><time>2026-04-27T13:04:13Z</time></trkpt><trkpt lat="43.63834569726157" lon="12.695935648967327"><ele>195.33333333333331</ele><time>2026-04-27T13:04:14Z</time></trkpt><trkpt lat="43.63835995002486" lon="12.696170026544655"><ele>195.66666666666666</ele><time>2026-04-27T13:04:15Z</time></trkpt><trkpt lat="43.63837311512499" lon="12.696402646724643"><ele>196.0</ele><time>2026-04-27T13:04:16Z</time></trkpt><trkpt lat="43.63838579350452" lon="12.696633958786503"><ele>196.0</ele><time>2026-04-27T13:04:17Z</time></trkpt><trkpt lat="43.63839922072743" lon="12.696864299921412"><ele>196.0</ele><time>2026-04-27T13:04:18Z</time></trkpt><trkpt lat="43.638415157821456" lon="12.697091472709024"><ele>196.0</ele><time>2026-04-27T13:04:18.999Z</time></trkpt><trkpt lat="43.63843068294377" lon="12.697318098244901"><ele>195.66666666666666</ele><time>2026-04-27T13:04:19.999Z</time></trkpt><trkpt lat="43.63844555586858" lon="12.697544171560475"><ele>195.33333333333331</ele><time>2026-04-27T13:04:20.999Z</time></trkpt><trkpt lat="43.638462500394596" lon="12.69776613328548"><ele>195.0</ele><time>2026-04-27T13:04:21.999Z</time></trkpt><trkpt lat="43.6384815302153" lon="12.697993961349093"><ele>194.66666666666669</ele><time>2026-04-27T13:04:22.999Z</time></trkpt><trkpt lat="43.63850364594105" lon="12.698223729539434"><ele>194.33333333333334</ele><time>2026-04-27T13:04:23.999Z</time></trkpt><trkpt lat="43.63853178647733" lon="12.698456278945612"><ele>194.0</ele><time>2026-04-27T13:04:24.999Z</time></trkpt><trkpt lat="43.638565682331034" lon="12.698689551218486"><ele>193.33333333333334</ele><time>2026-04-27T13:04:25.999Z</time></trkpt><trkpt lat="43.63860397581651" lon="12.69892551218156"><ele>192.66666666666669</ele><time>2026-04-27T13:04:26.999Z</time></trkpt><trkpt lat="43.6386444265737" lon="12.699153706697103"><ele>192.0</ele><time>2026-04-27T13:04:27.999Z</time></trkpt><trkpt lat="43.63868762178822" lon="12.699370355288316"><ele>192.0</ele><time>2026-04-27T13:04:28.999Z</time></trkpt><trkpt lat="43.638730782965595" lon="12.699574555666224"><ele>192.0</ele><time>2026-04-27T13:04:29.999Z</time></trkpt><trkpt lat="43.63877552918215" lon="12.699772463608124"><ele>192.0</ele><time>2026-04-27T13:04:31Z</time></trkpt><trkpt lat="43.638825299320885" lon="12.699970778967183"><ele>192.0</ele><time>2026-04-27T13:04:32Z</time></trkpt><trkpt lat="43.63887760981709" lon="12.700167002242555"><ele>192.0</ele><time>2026-04-27T13:04:33Z</time></trkpt><trkpt lat="43.63893311271743" lon="12.70036377879831"><ele>192.0</ele><time>2026-04-27T13:04:34Z</time></trkpt><trkpt lat="43.63899161716192" lon="12.700557515873287"><ele>190.5</ele><time>2026-04-27T13:04:35Z</time></trkpt><trkpt lat="43.639054130164595" lon="12.700747156527017"><ele>189.0</ele><time>2026-04-27T13:04:36Z</time></trkpt><trkpt lat="43.639118162184914" lon="12.700931018314472"><ele>187.5</ele><time>2026-04-27T13:04:37Z</time></trkpt><trkpt lat="43.639183134275434" lon="12.701110778123777"><ele>186.0</ele><time>2026-04-27T13:04:38Z</time></trkpt><trkpt lat="43.63925058838949" lon="12.701289494162395"><ele>185.25</ele><time>2026-04-27T13:04:39Z</time></trkpt><trkpt lat="43.63932088082464" lon="12.70146856099138"><ele>184.5</ele><time>2026-04-27T13:04:40Z</time></trkpt><trkpt lat="43.6393956506329" lon="12.701645834000754"><ele>183.75</ele><time>2026-04-27T13:04:41Z</time></trkpt><trkpt lat="43.639471607387826" lon="12.701822062963366"><ele>183.0</ele><time>2026-04-27T13:04:42Z</time></trkpt><trkpt lat="43.63955056984475" lon="12.701997525960762"><ele>198.66666666666669</ele><time>2026-04-27T13:04:43Z</time></trkpt><trkpt lat="43.63963388072417" lon="12.702173066881176"><ele>214.33333333333334</ele><time>2026-04-27T13:04:44Z</time></trkpt><trkpt lat="43.6397234155969" lon="12.702351609005943"><ele>230.0</ele><time>2026-04-27T13:04:45Z</time></trkpt><trkpt lat="43.63981708910048" lon="12.702530088017685"><ele>230.0</ele><time>2026-04-27T13:04:46Z</time></trkpt><trkpt lat="43.63991684732586" lon="12.702708444876276"><ele>230.0</ele><time>2026-04-27T13:04:47Z</time></trkpt><trkpt lat="43.640022292692215" lon="12.702886791651562"><ele>230.0</ele><time>2026-04-27T13:04:48Z</time></trkpt><trkpt lat="43.64012921936919" lon="12.70306475003532"><ele>238.0</ele><time>2026-04-27T13:04:49Z</time></trkpt><trkpt lat="43.640238703827684" lon="12.70324414096003"><ele>246.0</ele><time>2026-04-27T13:04:50Z</time></trkpt><trkpt lat="43.64034785951137" lon="12.703423205749013"><ele>254.0</ele><time>2026-04-27T13:04:51Z</time></trkpt><trkpt lat="43.64045555952975" lon="12.70360706555572"><ele>278.6666666666667</ele><time>2026-04-27T13:04:52Z</time></trkpt><trkpt lat="43.64056121996222" lon="12.70379334152767"><ele>303.3333333333333</ele><time>2026-04-27T13:04:53Z</time></trkpt><trkpt lat="43.640668013365314" lon="12.703981942262901"><ele>328.0</ele><time>2026-04-27T13:04:54Z</time></trkpt><trkpt lat="43.640777413043885" lon="12.704164827042781"><ele>328.0</ele><time>2026-04-27T13:04:55Z</time></trkpt><trkpt lat="43.6408884254678" lon="12.70434377026056"><ele>328.0</ele><time>2026-04-27T13:04:56Z</time></trkpt><trkpt lat="43.64099656514828" lon="12.704522906424083"><ele>328.0</ele><time>2026-04-27T13:04:57Z</time></trkpt><trkpt lat="43.64110451582758" lon="12.704700227262727"><ele>349.5</ele><time>2026-04-27T13:04:58Z</time></trkpt><trkpt lat="43.64122963249577" lon="12.705045592903438"><ele>371.0</ele><time>2026-04-27T13:04:59Z</time></trkpt><trkpt lat="43.64134482419684" lon="12.705235970538045"><ele>374.33333333333337</ele><time>2026-04-27T13:05:00Z</time></trkpt><trkpt lat="43.64145795142113" lon="12.70542946932653"><ele>377.6666666666667</ele><time>2026-04-27T13:05:01Z</time></trkpt><trkpt lat="43.64157242274958" lon="12.705618804371714"><ele>381.0</ele><time>2026-04-27T13:05:02Z</time></trkpt><trkpt lat="43.64168314030171" lon="12.705805362009276"><ele>381.0</ele><time>2026-04-27T13:05:03Z</time></trkpt><trkpt lat="43.641785401741586" lon="12.705973857364578"><ele>381.0</ele><time>2026-04-27T13:05:04Z</time></trkpt><trkpt lat="43.641891204579" lon="12.706147058258734"><ele>381.0</ele><time>2026-04-27T13:05:05Z</time></trkpt><trkpt lat="43.64198940791527" lon="12.706310330863388"><ele>398.25</ele><time>2026-04-27T13:05:06Z</time></trkpt><trkpt lat="43.64208414433607" lon="12.706461191937235"><ele>415.5</ele><time>2026-04-27T13:05:07Z</time></trkpt><trkpt lat="43.64217877645489" lon="12.706614096044623"><ele>432.75</ele><time>2026-04-27T13:05:08Z</time></trkpt><trkpt lat="43.642277342002934" lon="12.706782256108028"><ele>450.0</ele><time>2026-04-27T13:05:09Z</time></trkpt><trkpt lat="43.64237623494134" lon="12.706952178463483"><ele>454.33333333333337</ele><time>2026-04-27T13:05:10Z</time></trkpt><trkpt lat="43.64247332354579" lon="12.707119604413329"><ele>458.6666666666667</ele><time>2026-04-27T13:05:11Z</time></trkpt><trkpt lat="43.64256863247787" lon="12.707280519946304"><ele>463.0</ele><time>2026-04-27T13:05:12Z</time></trkpt><trkpt lat="43.642664818455" lon="12.707447219106225"><ele>463.0</ele><time>2026-04-27T13:05:13Z</time></trkpt><trkpt lat="43.642761383388944" lon="12.707616049462693"><ele>463.0</ele><time>2026-04-27T13:05:14Z</time></trkpt><trkpt lat="43.64285596274069" lon="12.707778199665889"><ele>463.0</ele><time>2026-04-27T13:05:15Z</time></trkpt><trkpt lat="43.64295158965299" lon="12.70794528882433"><ele>473.0</ele><time>2026-04-27T13:05:16Z</time></trkpt><trkpt lat="43.64304895393225" lon="12.708114341304604"><ele>483.0</ele><time>2026-04-27T13:05:17Z</time></trkpt><trkpt lat="43.64313851072139" lon="12.708264113294796"><ele>493.0</ele><time>2026-04-27T13:05:18Z</time></trkpt><trkpt lat="43.64323018615597" lon="12.708420538013964"><ele>503.0</ele><time>2026-04-27T13:05:19Z</time></trkpt><trkpt lat="43.64332218533364" lon="12.70857534950568"><ele>498.66666666666663</ele><time>2026-04-27T13:05:20Z</time></trkpt><trkpt lat="43.643405423967145" lon="12.70871005533334"><ele>494.33333333333337</ele><time>2026-04-27T13:05:21Z</time></trkpt><trkpt lat="43.64349545477745" lon="12.708858936066376"><ele>490.0</ele><time>2026-04-27T13:05:22.013Z</time></trkpt><trkpt lat="43.643855" lon="12.7093508"><ele>447.0</ele><time>2026-04-27T13:05:25.076Z</time></trkpt><trkpt lat="43.64430940716309" lon="12.710121716813942"><ele>442.0</ele><time>2026-04-27T13:06:19.077Z</time></trkpt><trkpt lat="43.64476232018543" lon="12.710890116740234"><ele>396.0</ele><time>2026-04-27T13:06:20.075Z</time></trkpt><trkpt lat="43.64521709182277" lon="12.711659045712063"><ele>422.0</ele><time>2026-04-27T13:06:21.075Z</time></trkpt><trkpt lat="43.64567299338578" lon="12.71242857930682"><ele>435.0</ele><time>2026-04-27T13:06:22.077Z</time></trkpt><trkpt lat="43.64612645582777" lon="12.713199501701618"><ele>503.0</ele><time>2026-04-27T13:06:23.077Z</time></trkpt><trkpt lat="43.64657930404822" lon="12.713967508873948"><ele>551.0</ele><time>2026-04-27T13:06:24.075Z</time></trkpt><trkpt lat="43.64703432262138" lon="12.714740944153784"><ele>541.0</ele><time>2026-04-27T13:06:25.079Z</time></trkpt><trkpt lat="43.647489996226945" lon="12.715508674960152"><ele>569.0</ele><time>2026-04-27T13:06:26.079Z</time></trkpt><trkpt lat="43.647944249885505" lon="12.716273384383461"><ele>570.0</ele><time>2026-04-27T13:06:27.075Z</time></trkpt><trkpt lat="43.648401816584254" lon="12.717043625007546"><ele>593.0</ele><time>2026-04-27T13:06:28.079Z</time></trkpt><trkpt lat="43.6487903" lon="12.7176975"><ele>565.0</ele><time>2026-04-27T13:06:29.076Z</time></trkpt><trkpt lat="43.64924610923134" lon="12.718464809713524"><ele>583.0</ele><time>2026-04-27T13:06:31.076Z</time></trkpt><trkpt lat="43.649703093407055" lon="12.719234097329586"><ele>601.0</ele><time>2026-04-27T13:06:32.078Z</time></trkpt><trkpt lat="43.65015949483906" lon="12.720002403954298"><ele>642.0</ele><time>2026-04-27T13:06:33.079Z</time></trkpt><trkpt lat="43.6505392" lon="12.7206416"><ele>650.0</ele><time>2026-04-27T13:06:34.076Z</time></trkpt><trkpt lat="43.65099487565173" lon="12.72140934605222"><ele>680.0</ele><time>2026-04-27T13:06:36.075Z</time></trkpt><trkpt lat="43.65145221245297" lon="12.722179338264297"><ele>684.0</ele><time>2026-04-27T13:06:37.078Z</time></trkpt><trkpt lat="43.65190352566698" lon="12.722952912686232"><ele>659.0</ele><time>2026-04-27T13:06:38.079Z</time></trkpt><trkpt lat="43.65235308595075" lon="12.723722454525111"><ele>612.0</ele><time>2026-04-27T13:06:39.075Z</time></trkpt><trkpt lat="43.652805084497054" lon="12.724496308809211"><ele>571.0</ele><time>2026-04-27T13:06:40.076Z</time></trkpt><trkpt lat="43.65325689613749" lon="12.725269843096907"><ele>546.0</ele><time>2026-04-27T13:06:41.078Z</time></trkpt><trkpt lat="43.65370885406379" lon="12.726043627836596"><ele>502.0</ele><time>2026-04-27T13:06:42.079Z</time></trkpt><trkpt lat="43.654160147651076" lon="12.726816275179742"><ele>422.0</ele><time>2026-04-27T13:06:43.079Z</time></trkpt><trkpt lat="43.65461058059035" lon="12.727584983166256"><ele>381.0</ele><time>2026-04-27T13:06:44.075Z</time></trkpt><trkpt lat="43.655064465235846" lon="12.728358200345335"><ele>330.0</ele><time>2026-04-27T13:06:45.078Z</time></trkpt><trkpt lat="43.655517178494165" lon="12.72912640045022"><ele>302.0</ele><time>2026-04-27T13:06:46.075Z</time></trkpt><trkpt lat="43.65597155838887" lon="12.729897428637162"><ele>323.0</ele><time>2026-04-27T13:06:47.077Z</time></trkpt><trkpt lat="43.65642421816059" lon="12.730666551782189"><ele>291.0</ele><time>2026-04-27T13:06:48.075Z</time></trkpt><trkpt lat="43.65687811458488" lon="12.731437836686581"><ele>256.0</ele><time>2026-04-27T13:06:49.076Z</time></trkpt><trkpt lat="43.65733170039818" lon="12.732206425631691"><ele>213.0</ele><time>2026-04-27T13:06:50.075Z</time></trkpt><trkpt lat="43.657788034489336" lon="12.732978280906012"><ele>176.0</ele><time>2026-04-27T13:06:51.079Z</time></trkpt><trkpt lat="43.65823973567889" lon="12.73374599269046"><ele>157.0</ele><time>2026-04-27T13:06:52.075Z</time></trkpt><trkpt lat="43.658893022892535" lon="12.735011385251179"><ele>153.66666666666669</ele><time>2026-04-27T13:07:32.999Z</time></trkpt><trkpt lat="43.65899310716182" lon="12.735223945782632"><ele>150.33333333333334</ele><time>2026-04-27T13:07:33.999Z</time></trkpt><trkpt lat="43.65908411256701" lon="12.735425954232607"><ele>147.0</ele><time>2026-04-27T13:07:34.999Z</time></trkpt><trkpt lat="43.659181015324755" lon="12.735659016841337"><ele>147.0</ele><time>2026-04-27T13:07:35.999Z</time></trkpt><trkpt lat="43.65929648009173" lon="12.735907879660127"><ele>147.0</ele><time>2026-04-27T13:07:36.999Z</time></trkpt><trkpt lat="43.6594231083271" lon="12.736159109571494"><ele>147.0</ele><time>2026-04-27T13:07:37.999Z</time></trkpt><trkpt lat="43.65955011375516" lon="12.736421895621138"><ele>146.5</ele><time>2026-04-27T13:07:38.999Z</time></trkpt><trkpt lat="43.659677016320956" lon="12.736680233143836"><ele>146.0</ele><time>2026-04-27T13:07:39.999Z</time></trkpt><trkpt lat="43.659805688305724" lon="12.73694169841869"><ele>146.0</ele><time>2026-04-27T13:07:40.999Z</time></trkpt><trkpt lat="43.659937773898505" lon="12.737207995482468"><ele>146.0</ele><time>2026-04-27T13:07:42Z</time></trkpt><trkpt lat="43.66007080454806" lon="12.737476942118947"><ele>144.5</ele><time>2026-04-27T13:07:43Z</time></trkpt><trkpt lat="43.660205352712175" lon="12.737749184541979"><ele>143.0</ele><time>2026-04-27T13:07:44Z</time></trkpt><trkpt lat="43.660338958921" lon="12.738025642586505"><ele>143.0</ele><time>2026-04-27T13:07:45Z</time></trkpt><trkpt lat="43.66047299501921" lon="12.738303620404501"><ele>143.0</ele><time>2026-04-27T13:07:46Z</time></trkpt><trkpt lat="43.66060764446934" lon="12.73858239077046"><ele>147.0</ele><time>2026-04-27T13:07:47Z</time></trkpt><trkpt lat="43.66074111421336" lon="12.738863882108491"><ele>151.0</ele><time>2026-04-27T13:07:48Z</time></trkpt><trkpt lat="43.66087487823214" lon="12.739144788087456"><ele>151.5</ele><time>2026-04-27T13:07:49Z</time></trkpt><trkpt lat="43.661006228048976" lon="12.739430329418592"><ele>152.0</ele><time>2026-04-27T13:07:50Z</time></trkpt><trkpt lat="43.66113676909828" lon="12.73971244831149"><ele>152.0</ele><time>2026-04-27T13:07:51Z</time></trkpt><trkpt lat="43.66126637312676" lon="12.739991486495212"><ele>152.0</ele><time>2026-04-27T13:07:52Z</time></trkpt><trkpt lat="43.661394431417385" lon="12.740266566104802"><ele>150.0</ele><time>2026-04-27T13:07:53Z</time></trkpt><trkpt lat="43.66151811717537" lon="12.740539495179174"><ele>148.0</ele><time>2026-04-27T13:07:54Z</time></trkpt><trkpt lat="43.661640167588935" lon="12.740811556998322"><ele>142.5</ele><time>2026-04-27T13:07:55Z</time></trkpt><trkpt lat="43.66176100946815" lon="12.741079196856665"><ele>137.0</ele><time>2026-04-27T13:07:56Z</time></trkpt><trkpt lat="43.66188128396853" lon="12.74134440690013"><ele>137.33333333333331</ele><time>2026-04-27T13:07:57Z</time></trkpt><trkpt lat="43.66199979656243" lon="12.741607806004257"><ele>137.66666666666666</ele><time>2026-04-27T13:07:58Z</time></trkpt><trkpt lat="43.66211706924536" lon="12.74186834478048"><ele>138.0</ele><time>2026-04-27T13:07:59Z</time></trkpt><trkpt lat="43.66223499788007" lon="12.742126206595472"><ele>138.66666666666666</ele><time>2026-04-27T13:08:00Z</time></trkpt><trkpt lat="43.66235225262498" lon="12.742380725369559"><ele>139.33333333333331</ele><time>2026-04-27T13:08:01Z</time></trkpt><trkpt lat="43.66246562081852" lon="12.742638637222058"><ele>140.0</ele><time>2026-04-27T13:08:02Z</time></trkpt><trkpt lat="43.66257703306774" lon="12.742900084853362"><ele>141.33333333333331</ele><time>2026-04-27T13:08:03Z</time></trkpt><trkpt lat="43.66268494540912" lon="12.743165935067225"><ele>142.66666666666666</ele><time>2026-04-27T13:08:04Z</time></trkpt><trkpt lat="43.66278924775774" lon="12.74344051866198"><ele>144.0</ele><time>2026-04-27T13:08:05Z</time></trkpt><trkpt lat="43.6628878055931" lon="12.7437205881237"><ele>147.5</ele><time>2026-04-27T13:08:06Z</time></trkpt><trkpt lat="43.66298100667113" lon="12.744008935156284"><ele>151.0</ele><time>2026-04-27T13:08:07Z</time></trkpt><trkpt lat="43.66306908168114" lon="12.744300661331993"><ele>151.5</ele><time>2026-04-27T13:08:08Z</time></trkpt><trkpt lat="43.663152459279694" lon="12.74459731604527"><ele>152.0</ele><time>2026-04-27T13:08:09Z</time></trkpt><trkpt lat="43.663231673712424" lon="12.744898897005966"><ele>152.0</ele><time>2026-04-27T13:08:10Z</time></trkpt><trkpt lat="43.66330703429079" lon="12.745204463913703"><ele>152.0</ele><time>2026-04-27T13:08:11Z</time></trkpt><trkpt lat="43.663377352135804" lon="12.745513655275632"><ele>150.0</ele><time>2026-04-27T13:08:12Z</time></trkpt><trkpt lat="43.663441446665416" lon="12.74582658037251"><ele>148.0</ele><time>2026-04-27T13:08:13Z</time></trkpt><trkpt lat="43.66349994741389" lon="12.746141993762608"><ele>145.5</ele><time>2026-04-27T13:08:14Z</time></trkpt><trkpt lat="43.66355323027696" lon="12.746461923553019"><ele>143.0</ele><time>2026-04-27T13:08:15Z</time></trkpt><trkpt lat="43.663599349767516" lon="12.746780104838962"><ele>150.0</ele><time>2026-04-27T13:08:16Z</time></trkpt><trkpt lat="43.6636403782748" lon="12.74710172824383"><ele>157.0</ele><time>2026-04-27T13:08:17Z</time></trkpt><trkpt lat="43.663675850455704" lon="12.747424653789057"><ele>155.5</ele><time>2026-04-27T13:08:18Z</time></trkpt><trkpt lat="43.6637108626463" lon="12.747748975645168"><ele>154.0</ele><time>2026-04-27T13:08:19Z</time></trkpt><trkpt lat="43.66374591103175" lon="12.7480725925838"><ele>154.0</ele><time>2026-04-27T13:08:20Z</time></trkpt><trkpt lat="43.663780939550456" lon="12.748393316255608"><ele>154.0</ele><time>2026-04-27T13:08:21Z</time></trkpt><trkpt lat="43.66381792834682" lon="12.74871331043238"><ele>153.5</ele><time>2026-04-27T13:08:22Z</time></trkpt><trkpt lat="43.66385647835316" lon="12.749034380743675"><ele>153.0</ele><time>2026-04-27T13:08:23Z</time></trkpt><trkpt lat="43.66389496100086" lon="12.749353719764365"><ele>150.5</ele><time>2026-04-27T13:08:24Z</time></trkpt><trkpt lat="43.663932639899706" lon="12.749671965908602"><ele>148.0</ele><time>2026-04-27T13:08:25Z</time></trkpt><trkpt lat="43.66396791948213" lon="12.749989043259282"><ele>145.5</ele><time>2026-04-27T13:08:26Z</time></trkpt><trkpt lat="43.66400184247529" lon="12.750299342674962"><ele>143.0</ele><time>2026-04-27T13:08:27Z</time></trkpt><trkpt lat="43.66403563709768" lon="12.750610539600006"><ele>143.0</ele><time>2026-04-27T13:08:28Z</time></trkpt><trkpt lat="43.66406998138448" lon="12.750917038055928"><ele>143.0</ele><time>2026-04-27T13:08:29Z</time></trkpt><trkpt lat="43.66410550349372" lon="12.751220928765745"><ele>143.0</ele><time>2026-04-27T13:08:30Z</time></trkpt><trkpt lat="43.664145724442015" lon="12.751521651961848"><ele>142.33333333333331</ele><time>2026-04-27T13:08:31Z</time></trkpt><trkpt lat="43.66419021355551" lon="12.75181667403341"><ele>141.66666666666666</ele><time>2026-04-27T13:08:32Z</time></trkpt><trkpt lat="43.6642381110886" lon="12.752108130957044"><ele>141.0</ele><time>2026-04-27T13:08:33Z</time></trkpt><trkpt lat="43.6642905821293" lon="12.752396157207384"><ele>140.66666666666666</ele><time>2026-04-27T13:08:34Z</time></trkpt><trkpt lat="43.66434621295918" lon="12.752684053196658"><ele>140.33333333333331</ele><time>2026-04-27T13:08:35Z</time></trkpt><trkpt lat="43.66440671059297" lon="12.752970841688006"><ele>140.0</ele><time>2026-04-27T13:08:36Z</time></trkpt><trkpt lat="43.66447164545142" lon="12.753256175637674"><ele>140.33333333333331</ele><time>2026-04-27T13:08:37Z</time></trkpt><trkpt lat="43.66454022134804" lon="12.753539264520354"><ele>140.66666666666666</ele><time>2026-04-27T13:08:38Z</time></trkpt><trkpt lat="43.664613742718245" lon="12.753821757420676"><ele>141.0</ele><time>2026-04-27T13:08:39Z</time></trkpt><trkpt lat="43.66469211950915" lon="12.754101669769083"><ele>140.33333333333334</ele><time>2026-04-27T13:08:40Z</time></trkpt><trkpt lat="43.66477565447536" lon="12.75438027216543"><ele>139.66666666666669</ele><time>2026-04-27T13:08:41Z</time></trkpt><trkpt lat="43.66486362939609" lon="12.75465518475259"><ele>139.0</ele><time>2026-04-27T13:08:42Z</time></trkpt><trkpt lat="43.66496007391568" lon="12.754926180799737"><ele>139.0</ele><time>2026-04-27T13:08:43Z</time></trkpt><trkpt lat="43.66506371113851" lon="12.755191828844952"><ele>139.0</ele><time>2026-04-27T13:08:44Z</time></trkpt><trkpt lat="43.66517164381927" lon="12.75545494309876"><ele>139.0</ele><time>2026-04-27T13:08:45Z</time></trkpt><trkpt lat="43.6652847784765" lon="12.755712470770897"><ele>137.66666666666669</ele><time>2026-04-27T13:08:46Z</time></trkpt><trkpt lat="43.66540267723538" lon="12.755965626921542"><ele>136.33333333333334</ele><time>2026-04-27T13:08:47Z</time></trkpt><trkpt lat="43.665525963792874" lon="12.756213338010381"><ele>135.0</ele><time>2026-04-27T13:08:48Z</time></trkpt><trkpt lat="43.665655065258285" lon="12.756455628238399"><ele>135.0</ele><time>2026-04-27T13:08:49Z</time></trkpt><trkpt lat="43.665789924577936" lon="12.756689851465262"><ele>135.0</ele><time>2026-04-27T13:08:50Z</time></trkpt><trkpt lat="43.665928349206816" lon="12.756916454278915"><ele>135.0</ele><time>2026-04-27T13:08:51Z</time></trkpt><trkpt lat="43.66607330586973" lon="12.757138522879186"><ele>134.33333333333334</ele><time>2026-04-27T13:08:52Z</time></trkpt><trkpt lat="43.66622138847462" lon="12.757353807394571"><ele>133.66666666666669</ele><time>2026-04-27T13:08:53Z</time></trkpt><trkpt lat="43.66637324481713" lon="12.757563361710071"><ele>133.0</ele><time>2026-04-27T13:08:54Z</time></trkpt><trkpt lat="43.66652899612172" lon="12.757766475041521"><ele>132.66666666666669</ele><time>2026-04-27T13:08:55Z</time></trkpt><trkpt lat="43.666689078855924" lon="12.75796088106213"><ele>132.33333333333334</ele><time>2026-04-27T13:08:55.999Z</time></trkpt><trkpt lat="43.666854151406156" lon="12.758148566658083"><ele>132.0</ele><time>2026-04-27T13:08:56.999Z</time></trkpt><trkpt lat="43.66702296312192" lon="12.758330828908687"><ele>130.33333333333334</ele><time>2026-04-27T13:08:57.999Z</time></trkpt><trkpt lat="43.6671964328571" lon="12.75850698873384"><ele>128.66666666666669</ele><time>2026-04-27T13:08:58.999Z</time></trkpt><trkpt lat="43.66737354530854" lon="12.758674886439007"><ele>127.0</ele><time>2026-04-27T13:08:59.999Z</time></trkpt><trkpt lat="43.66755412037317" lon="12.758837486297278"><ele>127.0</ele><time>2026-04-27T13:09:00.999Z</time></trkpt><trkpt lat="43.66773871944177" lon="12.758992988777747"><ele>127.0</ele><time>2026-04-27T13:09:01.999Z</time></trkpt><trkpt lat="43.667926753176246" lon="12.75914467022382"><ele>127.0</ele><time>2026-04-27T13:09:02.999Z</time></trkpt><trkpt lat="43.66811966509838" lon="12.759286483882708"><ele>125.66666666666667</ele><time>2026-04-27T13:09:03.999Z</time></trkpt><trkpt lat="43.668318996708734" lon="12.759421244834606"><ele>124.33333333333334</ele><time>2026-04-27T13:09:04.999Z</time></trkpt><trkpt lat="43.66852527414662" lon="12.759545202316838"><ele>123.0</ele><time>2026-04-27T13:09:05.999Z</time></trkpt><trkpt lat="43.668735550070394" lon="12.759659954531582"><ele>121.5</ele><time>2026-04-27T13:09:06.999Z</time></trkpt><trkpt lat="43.66894897928787" lon="12.7597701198756"><ele>120.0</ele><time>2026-04-27T13:09:07.999Z</time></trkpt><trkpt lat="43.669167593217885" lon="12.759873320248065"><ele>120.0</ele><time>2026-04-27T13:09:08.999Z</time></trkpt><trkpt lat="43.66938673566724" lon="12.759976172914202"><ele>120.0</ele><time>2026-04-27T13:09:09.999Z</time></trkpt><trkpt lat="43.66960904651678" lon="12.760073453125342"><ele>120.5</ele><time>2026-04-27T13:09:10.999Z</time></trkpt><trkpt lat="43.669830327697326" lon="12.760172436814992"><ele>121.0</ele><time>2026-04-27T13:09:11.999Z</time></trkpt><trkpt lat="43.67005411964486" lon="12.760264814266394"><ele>121.0</ele><time>2026-04-27T13:09:12.999Z</time></trkpt><trkpt lat="43.67027337532365" lon="12.760359559007137"><ele>121.0</ele><time>2026-04-27T13:09:13.999Z</time></trkpt><trkpt lat="43.670487212809" lon="12.760447868100073"><ele>122.33333333333334</ele><time>2026-04-27T13:09:14.999Z</time></trkpt><trkpt lat="43.67069307819923" lon="12.760536552147382"><ele>123.66666666666666</ele><time>2026-04-27T13:09:15.999Z</time></trkpt><trkpt lat="43.6708884752686" lon="12.760620361148842"><ele>125.0</ele><time>2026-04-27T13:09:16.999Z</time></trkpt><trkpt lat="43.67107428977241" lon="12.76070036172112"><ele>124.66666666666666</ele><time>2026-04-27T13:09:17.999Z</time></trkpt><trkpt lat="43.67125239038727" lon="12.760778985628194"><ele>124.33333333333334</ele><time>2026-04-27T13:09:18.999Z</time></trkpt><trkpt lat="43.67142182595464" lon="12.760859310312563"><ele>124.0</ele><time>2026-04-27T13:09:19.999Z</time></trkpt><trkpt lat="43.6715827287294" lon="12.760941488486292"><ele>124.0</ele><time>2026-04-27T13:09:20.999Z</time></trkpt><trkpt lat="43.67173653432201" lon="12.761029277768886"><ele>124.0</ele><time>2026-04-27T13:09:21.999Z</time></trkpt><trkpt lat="43.67188864878425" lon="12.761124579758423"><ele>124.0</ele><time>2026-04-27T13:09:22.999Z</time></trkpt><trkpt lat="43.672041025848365" lon="12.761217624880619"><ele>126.33333333333334</ele><time>2026-04-27T13:09:23.999Z</time></trkpt><trkpt lat="43.67219183132002" lon="12.761310213431114"><ele>128.66666666666666</ele><time>2026-04-27T13:09:24.999Z</time></trkpt><trkpt lat="43.67234044196327" lon="12.76140739770996"><ele>131.0</ele><time>2026-04-27T13:09:25.999Z</time></trkpt><trkpt lat="43.672485994467706" lon="12.761507386964109"><ele>131.0</ele><time>2026-04-27T13:09:26.999Z</time></trkpt><trkpt lat="43.67263125835426" lon="12.761613686456757"><ele>131.0</ele><time>2026-04-27T13:09:27.999Z</time></trkpt><trkpt lat="43.67277609059759" lon="12.761725419212596"><ele>131.0</ele><time>2026-04-27T13:09:28.999Z</time></trkpt><trkpt lat="43.67291932036101" lon="12.761842285836577"><ele>131.33333333333331</ele><time>2026-04-27T13:09:29.999Z</time></trkpt><trkpt lat="43.67306306655187" lon="12.761963055870734"><ele>131.66666666666666</ele><time>2026-04-27T13:09:30.999Z</time></trkpt><trkpt lat="43.67320873275477" lon="12.762086870758944"><ele>132.0</ele><time>2026-04-27T13:09:31.999Z</time></trkpt><trkpt lat="43.673354248864534" lon="12.762217802585957"><ele>132.0</ele><time>2026-04-27T13:09:32.999Z</time></trkpt><trkpt lat="43.67350000076631" lon="12.762355205111541"><ele>132.0</ele><time>2026-04-27T13:09:33.999Z</time></trkpt><trkpt lat="43.673643790136786" lon="12.76249978596521"><ele>132.0</ele><time>2026-04-27T13:09:34.999Z</time></trkpt><trkpt lat="43.67378583518058" lon="12.76264988239708"><ele>132.0</ele><time>2026-04-27T13:09:35.999Z</time></trkpt><trkpt lat="43.6739259542474" lon="12.762804118860405"><ele>132.0</ele><time>2026-04-27T13:09:36.999Z</time></trkpt><trkpt lat="43.674065701528946" lon="12.76296200344603"><ele>132.0</ele><time>2026-04-27T13:09:37.999Z</time></trkpt><trkpt lat="43.674204999730065" lon="12.763127537522637"><ele>132.0</ele><time>2026-04-27T13:09:38.999Z</time></trkpt><trkpt lat="43.6743439035354" lon="12.763298840947948"><ele>132.0</ele><time>2026-04-27T13:09:39.999Z</time></trkpt><trkpt lat="43.67448091652397" lon="12.763475747067172"><ele>132.0</ele><time>2026-04-27T13:09:40.999Z</time></trkpt><trkpt lat="43.67462012762341" lon="12.76366150215164"><ele>132.66666666666666</ele><time>2026-04-27T13:09:41.999Z</time></trkpt><trkpt lat="43.67475782857416" lon="12.763854115213675"><ele>133.33333333333331</ele><time>2026-04-27T13:09:42.999Z</time></trkpt><trkpt lat="43.67489430573723" lon="12.764054839454849"><ele>134.0</ele><time>2026-04-27T13:09:43.999Z</time></trkpt><trkpt lat="43.6750303613053" lon="12.76426067138026"><ele>134.33333333333331</ele><time>2026-04-27T13:09:45Z</time></trkpt><trkpt lat="43.67516589881823" lon="12.76447057594133"><ele>134.66666666666666</ele><time>2026-04-27T13:09:46Z</time></trkpt><trkpt lat="43.67529752435563" lon="12.764678631685522"><ele>135.0</ele><time>2026-04-27T13:09:47Z</time></trkpt><trkpt lat="43.675420498143744" lon="12.764870823508563"><ele>135.0</ele><time>2026-04-27T13:09:48Z</time></trkpt><trkpt lat="43.67553528084678" lon="12.765051936686952"><ele>135.0</ele><time>2026-04-27T13:09:49Z</time></trkpt><trkpt lat="43.67563874396907" lon="12.765219132539022"><ele>135.0</ele><time>2026-04-27T13:09:50Z</time></trkpt><trkpt lat="43.675736332144766" lon="12.765371258215263"><ele>135.5</ele><time>2026-04-27T13:09:51Z</time></trkpt><trkpt lat="43.675833824016586" lon="12.765503168572126"><ele>136.0</ele><time>2026-04-27T13:09:52Z</time></trkpt><trkpt lat="43.67593908743107" lon="12.765614085807773"><ele>136.5</ele><time>2026-04-27T13:09:53Z</time></trkpt><trkpt lat="43.676059353884014" lon="12.76570036275372"><ele>137.0</ele><time>2026-04-27T13:09:54Z</time></trkpt><trkpt lat="43.67619141486008" lon="12.765768962787424"><ele>137.0</ele><time>2026-04-27T13:09:55Z</time></trkpt><trkpt lat="43.676331908363586" lon="12.765804420465205"><ele>137.0</ele><time>2026-04-27T13:09:56Z</time></trkpt><trkpt lat="43.67647550805636" lon="12.765810027342845"><ele>137.0</ele><time>2026-04-27T13:09:57Z</time></trkpt><trkpt lat="43.67661761134989" lon="12.765784625063347"><ele>137.0</ele><time>2026-04-27T13:09:58Z</time></trkpt><trkpt lat="43.67675710025861" lon="12.765731571270196"><ele>137.0</ele><time>2026-04-27T13:09:59Z</time></trkpt><trkpt lat="43.67689086928157" lon="12.765655399888905"><ele>137.0</ele><time>2026-04-27T13:10:00Z</time></trkpt><trkpt lat="43.67701471775175" lon="12.765558379265538"><ele>137.0</ele><time>2026-04-27T13:10:01Z</time></trkpt><trkpt lat="43.67713281810051" lon="12.765442269494987"><ele>137.0</ele><time>2026-04-27T13:10:02Z</time></trkpt><trkpt lat="43.67724255663106" lon="12.765306964257066"><ele>137.0</ele><time>2026-04-27T13:10:03Z</time></trkpt><trkpt lat="43.67733980685094" lon="12.765159581759576"><ele>137.0</ele><time>2026-04-27T13:10:04Z</time></trkpt><trkpt lat="43.67742363205357" lon="12.765002035588799"><ele>137.0</ele><time>2026-04-27T13:10:05Z</time></trkpt><trkpt lat="43.677489638431595" lon="12.764832776584567"><ele>137.0</ele><time>2026-04-27T13:10:06Z</time></trkpt><trkpt lat="43.677535666404225" lon="12.76464794936773"><ele>137.0</ele><time>2026-04-27T13:10:07Z</time></trkpt><trkpt lat="43.67756002227823" lon="12.764451668950484"><ele>137.0</ele><time>2026-04-27T13:10:08Z</time></trkpt><trkpt lat="43.67755697368578" lon="12.76425163406012"><ele>137.0</ele><time>2026-04-27T13:10:09Z</time></trkpt><trkpt lat="43.677529966336124" lon="12.76404929611682"><ele>137.0</ele><time>2026-04-27T13:10:10Z</time></trkpt><trkpt lat="43.67748076368492" lon="12.763849903501562"><ele>136.0</ele><time>2026-04-27T13:10:11Z</time></trkpt><trkpt lat="43.67740626185645" lon="12.763662267721935"><ele>135.0</ele><time>2026-04-27T13:10:12Z</time></trkpt><trkpt lat="43.67730949546709" lon="12.763493076884862"><ele>134.0</ele><time>2026-04-27T13:10:13Z</time></trkpt><trkpt lat="43.677194335106115" lon="12.763340214929816"><ele>133.66666666666666</ele><time>2026-04-27T13:10:14Z</time></trkpt><trkpt lat="43.677072510352176" lon="12.763194799842292"><ele>133.33333333333334</ele><time>2026-04-27T13:10:15Z</time></trkpt><trkpt lat="43.676951118341236" lon="12.763045582556956"><ele>133.0</ele><time>2026-04-27T13:10:16Z</time></trkpt><trkpt lat="43.676829297163565" lon="12.762895639483931"><ele>133.0</ele><time>2026-04-27T13:10:17Z</time></trkpt><trkpt lat="43.67670767884977" lon="12.762744812276381"><ele>133.0</ele><time>2026-04-27T13:10:18Z</time></trkpt><trkpt lat="43.67658489014819" lon="12.762593461560657"><ele>133.0</ele><time>2026-04-27T13:10:19Z</time></trkpt><trkpt lat="43.67646154246744" lon="12.762440106562764"><ele>132.66666666666669</ele><time>2026-04-27T13:10:20Z</time></trkpt><trkpt lat="43.67634041076718" lon="12.762284817649016"><ele>132.33333333333334</ele><time>2026-04-27T13:10:21Z</time></trkpt><trkpt lat="43.676224772968716" lon="12.762121252608274"><ele>132.0</ele><time>2026-04-27T13:10:22Z</time></trkpt><trkpt lat="43.67612225759731" lon="12.761945217334091"><ele>132.66666666666666</ele><time>2026-04-27T13:10:23Z</time></trkpt><trkpt lat="43.676030223793006" lon="12.761759741464733"><ele>133.33333333333331</ele><time>2026-04-27T13:10:24Z</time></trkpt><trkpt lat="43.67595082740726" lon="12.761563715128908"><ele>134.0</ele><time>2026-04-27T13:10:25Z</time></trkpt><trkpt lat="43.67588601187448" lon="12.761354299608518"><ele>134.0</ele><time>2026-04-27T13:10:26Z</time></trkpt><trkpt lat="43.67583252731872" lon="12.761131264453597"><ele>134.0</ele><time>2026-04-27T13:10:27Z</time></trkpt><trkpt lat="43.67579336817783" lon="12.760892616838683"><ele>134.0</ele><time>2026-04-27T13:10:28Z</time></trkpt><trkpt lat="43.67575398169821" lon="12.760652927029907"><ele>133.66666666666666</ele><time>2026-04-27T13:10:29Z</time></trkpt><trkpt lat="43.675716264612724" lon="12.760369460657904"><ele>133.33333333333334</ele><time>2026-04-27T13:10:30Z</time></trkpt><trkpt lat="43.67567531652905" lon="12.760079442248228"><ele>133.0</ele><time>2026-04-27T13:10:31Z</time></trkpt><trkpt lat="43.6756346720709" lon="12.759777930945477"><ele>130.0</ele><time>2026-04-27T13:10:32Z</time></trkpt><trkpt lat="43.67559461094876" lon="12.759467051593397"><ele>127.0</ele><time>2026-04-27T13:10:33Z</time></trkpt><trkpt lat="43.67555561520107" lon="12.75914593993925"><ele>126.0</ele><time>2026-04-27T13:10:34Z</time></trkpt><trkpt lat="43.675517701455284" lon="12.75882014795955"><ele>125.0</ele><time>2026-04-27T13:10:35Z</time></trkpt><trkpt lat="43.675479912887674" lon="12.758488034183394"><ele>127.5</ele><time>2026-04-27T13:10:36Z</time></trkpt><trkpt lat="43.6754401022612" lon="12.758150414476026"><ele>130.0</ele><time>2026-04-27T13:10:37Z</time></trkpt><trkpt lat="43.675399296953366" lon="12.75780832557886"><ele>130.5</ele><time>2026-04-27T13:10:38Z</time></trkpt><trkpt lat="43.6753580608879" lon="12.75746029218325"><ele>131.0</ele><time>2026-04-27T13:10:39Z</time></trkpt><trkpt lat="43.675318080373565" lon="12.757111077559399"><ele>130.5</ele><time>2026-04-27T13:10:40Z</time></trkpt><trkpt lat="43.67527680028616" lon="12.75675974489031"><ele>130.0</ele><time>2026-04-27T13:10:41Z</time></trkpt><trkpt lat="43.67523407882038" lon="12.756407562501714"><ele>130.0</ele><time>2026-04-27T13:10:42Z</time></trkpt><trkpt lat="43.67519033272986" lon="12.756056704891055"><ele>130.0</ele><time>2026-04-27T13:10:43Z</time></trkpt><trkpt lat="43.675146761572414" lon="12.755709278379078"><ele>129.5</ele><time>2026-04-27T13:10:44Z</time></trkpt><trkpt lat="43.67510450694391" lon="12.75535985491586"><ele>129.0</ele><time>2026-04-27T13:10:45Z</time></trkpt><trkpt lat="43.67506387959853" lon="12.755011985997536"><ele>129.0</ele><time>2026-04-27T13:10:46Z</time></trkpt><trkpt lat="43.67502310934735" lon="12.754664673196075"><ele>129.0</ele><time>2026-04-27T13:10:47Z</time></trkpt><trkpt lat="43.67498219437896" lon="12.754314255818342"><ele>126.5</ele><time>2026-04-27T13:10:48Z</time></trkpt><trkpt lat="43.67494346470896" lon="12.753967652216394"><ele>124.0</ele><time>2026-04-27T13:10:49Z</time></trkpt><trkpt lat="43.67490779063436" lon="12.753619307733986"><ele>122.5</ele><time>2026-04-27T13:10:50Z</time></trkpt><trkpt lat="43.674875928616395" lon="12.753270817839917"><ele>121.0</ele><time>2026-04-27T13:10:51Z</time></trkpt><trkpt lat="43.674850908777245" lon="12.752924015793573"><ele>122.5</ele><time>2026-04-27T13:10:52Z</time></trkpt><trkpt lat="43.67483327184111" lon="12.75257621423909"><ele>124.0</ele><time>2026-04-27T13:10:53Z</time></trkpt><trkpt lat="43.674822269270585" lon="12.75222824302276"><ele>124.0</ele><time>2026-04-27T13:10:54Z</time></trkpt><trkpt lat="43.67481909803776" lon="12.75188171259891"><ele>124.0</ele><time>2026-04-27T13:10:55Z</time></trkpt><trkpt lat="43.67482441410607" lon="12.751535514421539"><ele>124.0</ele><time>2026-04-27T13:10:56Z</time></trkpt><trkpt lat="43.674840990672735" lon="12.751192067154603"><ele>124.0</ele><time>2026-04-27T13:10:57Z</time></trkpt><trkpt lat="43.67487031338329" lon="12.750849523572839"><ele>123.5</ele><time>2026-04-27T13:10:58Z</time></trkpt><trkpt lat="43.67491127048901" lon="12.750507339533092"><ele>123.0</ele><time>2026-04-27T13:10:59Z</time></trkpt><trkpt lat="43.674965684089635" lon="12.750162359466621"><ele>122.5</ele><time>2026-04-27T13:11:00Z</time></trkpt><trkpt lat="43.67503006015606" lon="12.749821311003526"><ele>122.0</ele><time>2026-04-27T13:11:01Z</time></trkpt><trkpt lat="43.67510592510309" lon="12.749479895162473"><ele>123.0</ele><time>2026-04-27T13:11:02Z</time></trkpt><trkpt lat="43.67519174960789" lon="12.749140896895756"><ele>124.0</ele><time>2026-04-27T13:11:03Z</time></trkpt><trkpt lat="43.675285619630074" lon="12.748804785406882"><ele>125.0</ele><time>2026-04-27T13:11:04Z</time></trkpt><trkpt lat="43.67538550077385" lon="12.748469368802194"><ele>126.0</ele><time>2026-04-27T13:11:05Z</time></trkpt><trkpt lat="43.67548772838614" lon="12.748135073195886"><ele>126.0</ele><time>2026-04-27T13:11:06Z</time></trkpt><trkpt lat="43.67559230137671" lon="12.74779945924471"><ele>126.0</ele><time>2026-04-27T13:11:07Z</time></trkpt><trkpt lat="43.67569896048297" lon="12.747462526178863"><ele>125.5</ele><time>2026-04-27T13:11:08Z</time></trkpt><trkpt lat="43.67580726926957" lon="12.747127030792084"><ele>125.0</ele><time>2026-04-27T13:11:09Z</time></trkpt><trkpt lat="43.67591603450608" lon="12.746793091160852"><ele>124.5</ele><time>2026-04-27T13:11:10Z</time></trkpt><trkpt lat="43.67602662758751" lon="12.746457813688561"><ele>124.0</ele><time>2026-04-27T13:11:11Z</time></trkpt><trkpt lat="43.676138728734585" lon="12.746123257493634"><ele>127.0</ele><time>2026-04-27T13:11:12Z</time></trkpt><trkpt lat="43.67624938993353" lon="12.74578752313771"><ele>130.0</ele><time>2026-04-27T13:11:13Z</time></trkpt><trkpt lat="43.67635790933425" lon="12.74545247717191"><ele>129.0</ele><time>2026-04-27T13:11:14Z</time></trkpt><trkpt lat="43.676465785707926" lon="12.745115445392733"><ele>128.0</ele><time>2026-04-27T13:11:15Z</time></trkpt><trkpt lat="43.67657340391685" lon="12.744776893014409"><ele>128.0</ele><time>2026-04-27T13:11:16Z</time></trkpt><trkpt lat="43.67668326681224" lon="12.744436343808863"><ele>128.0</ele><time>2026-04-27T13:11:17Z</time></trkpt><trkpt lat="43.676792826714674" lon="12.744097316937223"><ele>127.5</ele><time>2026-04-27T13:11:18Z</time></trkpt><trkpt lat="43.676902790264535" lon="12.743757946280827"><ele>127.0</ele><time>2026-04-27T13:11:19Z</time></trkpt><trkpt lat="43.67701304282985" lon="12.743418708501645"><ele>129.0</ele><time>2026-04-27T13:11:20Z</time></trkpt><trkpt lat="43.677122420623014" lon="12.743077412315778"><ele>131.0</ele><time>2026-04-27T13:11:20.999Z</time></trkpt><trkpt lat="43.67723387995242" lon="12.742735423681662"><ele>131.5</ele><time>2026-04-27T13:11:21.999Z</time></trkpt><trkpt lat="43.67734863142333" lon="12.742396378908483"><ele>132.0</ele><time>2026-04-27T13:11:22.999Z</time></trkpt><trkpt lat="43.67746203028729" lon="12.742055929444335"><ele>131.5</ele><time>2026-04-27T13:11:23.999Z</time></trkpt><trkpt lat="43.67757764161474" lon="12.741716770345665"><ele>131.0</ele><time>2026-04-27T13:11:24.999Z</time></trkpt><trkpt lat="43.67769394656476" lon="12.741380440368133"><ele>132.0</ele><time>2026-04-27T13:11:25.999Z</time></trkpt><trkpt lat="43.677813647349325" lon="12.741044625750744"><ele>133.0</ele><time>2026-04-27T13:11:26.999Z</time></trkpt><trkpt lat="43.67793932007983" lon="12.740714559630332"><ele>133.0</ele><time>2026-04-27T13:11:27.999Z</time></trkpt><trkpt lat="43.67806765315877" lon="12.740382265016223"><ele>133.0</ele><time>2026-04-27T13:11:28.999Z</time></trkpt><trkpt lat="43.67820513128607" lon="12.740057812999055"><ele>132.0</ele><time>2026-04-27T13:11:29.999Z</time></trkpt><trkpt lat="43.678343324270024" lon="12.739732284739313"><ele>131.0</ele><time>2026-04-27T13:11:30.999Z</time></trkpt><trkpt lat="43.678476501556524" lon="12.739407705933852"><ele>129.5</ele><time>2026-04-27T13:11:31.999Z</time></trkpt><trkpt lat="43.67861937776576" lon="12.739086120550972"><ele>128.0</ele><time>2026-04-27T13:11:32.999Z</time></trkpt><trkpt lat="43.678756795338906" lon="12.738763683884159"><ele>128.0</ele><time>2026-04-27T13:11:33.999Z</time></trkpt><trkpt lat="43.67889575929133" lon="12.738441686896044"><ele>128.0</ele><time>2026-04-27T13:11:34.999Z</time></trkpt><trkpt lat="43.679033854678146" lon="12.738120827214004"><ele>128.0</ele><time>2026-04-27T13:11:35.999Z</time></trkpt><trkpt lat="43.67917275272436" lon="12.737803606048713"><ele>128.0</ele><time>2026-04-27T13:11:36.999Z</time></trkpt><trkpt lat="43.67931015347185" lon="12.737487301808809"><ele>128.5</ele><time>2026-04-27T13:11:37.999Z</time></trkpt><trkpt lat="43.67944549716381" lon="12.73717414697185"><ele>129.0</ele><time>2026-04-27T13:11:38.999Z</time></trkpt><trkpt lat="43.67957891145975" lon="12.736861865603618"><ele>129.0</ele><time>2026-04-27T13:11:39.999Z</time></trkpt><trkpt lat="43.679709482253685" lon="12.73655182415961"><ele>129.0</ele><time>2026-04-27T13:11:40.999Z</time></trkpt><trkpt lat="43.67984227164154" lon="12.736246296323271"><ele>129.5</ele><time>2026-04-27T13:11:41.999Z</time></trkpt><trkpt lat="43.67997442315648" lon="12.735941270695573"><ele>130.0</ele><time>2026-04-27T13:11:42.999Z</time></trkpt><trkpt lat="43.68010479784045" lon="12.735638861336167"><ele>130.0</ele><time>2026-04-27T13:11:43.999Z</time></trkpt><trkpt lat="43.680233993689605" lon="12.735333159439735"><ele>130.0</ele><time>2026-04-27T13:11:44.999Z</time></trkpt><trkpt lat="43.680366004143934" lon="12.735028357009273"><ele>132.0</ele><time>2026-04-27T13:11:45.999Z</time></trkpt><trkpt lat="43.6804923083784" lon="12.734720116712802"><ele>134.0</ele><time>2026-04-27T13:11:46.999Z</time></trkpt><trkpt lat="43.68061710568509" lon="12.734409953350163"><ele>134.0</ele><time>2026-04-27T13:11:47.999Z</time></trkpt><trkpt lat="43.680736175393555" lon="12.73409587305518"><ele>134.0</ele><time>2026-04-27T13:11:48.999Z</time></trkpt><trkpt lat="43.680853396041336" lon="12.733781162378147"><ele>134.0</ele><time>2026-04-27T13:11:50Z</time></trkpt><trkpt lat="43.68096654143451" lon="12.73346476193438"><ele>134.0</ele><time>2026-04-27T13:11:51Z</time></trkpt><trkpt lat="43.68107698580056" lon="12.733145745344386"><ele>134.5</ele><time>2026-04-27T13:11:52Z</time></trkpt><trkpt lat="43.68118428720507" lon="12.73282541984025"><ele>135.0</ele><time>2026-04-27T13:11:53Z</time></trkpt><trkpt lat="43.68128404672456" lon="12.732500227509895"><ele>133.5</ele><time>2026-04-27T13:11:54Z</time></trkpt><trkpt lat="43.68138623462904" lon="12.732173426784103"><ele>132.0</ele><time>2026-04-27T13:11:55Z</time></trkpt><trkpt lat="43.68148798824708" lon="12.731846419315252"><ele>131.5</ele><time>2026-04-27T13:11:56Z</time></trkpt><trkpt lat="43.68158231774229" lon="12.731506015356116"><ele>131.0</ele><time>2026-04-27T13:11:57Z</time></trkpt><trkpt lat="43.68167699980361" lon="12.73116235146029"><ele>132.5</ele><time>2026-04-27T13:11:58Z</time></trkpt><trkpt lat="43.681781921225266" lon="12.730824413317423"><ele>134.0</ele><time>2026-04-27T13:11:59Z</time></trkpt><trkpt lat="43.681890701177934" lon="12.730487802094009"><ele>136.5</ele><time>2026-04-27T13:12:00Z</time></trkpt><trkpt lat="43.682003081175694" lon="12.730157186924389"><ele>139.0</ele><time>2026-04-27T13:12:01Z</time></trkpt><trkpt lat="43.68210669720904" lon="12.7298186923269"><ele>139.0</ele><time>2026-04-27T13:12:02Z</time></trkpt><trkpt lat="43.682210460084576" lon="12.729480981756764"><ele>139.0</ele><time>2026-04-27T13:12:03Z</time></trkpt><trkpt lat="43.68231459537144" lon="12.7291447866546"><ele>138.0</ele><time>2026-04-27T13:12:04Z</time></trkpt><trkpt lat="43.68242164775937" lon="12.728811640230129"><ele>137.0</ele><time>2026-04-27T13:12:05Z</time></trkpt><trkpt lat="43.68253094593866" lon="12.728480491719512"><ele>135.0</ele><time>2026-04-27T13:12:06Z</time></trkpt><trkpt lat="43.68264163202935" lon="12.728149040738934"><ele>133.0</ele><time>2026-04-27T13:12:07Z</time></trkpt><trkpt lat="43.68276271311297" lon="12.727826769345548"><ele>135.0</ele><time>2026-04-27T13:12:08Z</time></trkpt><trkpt lat="43.6828937542396" lon="12.727517352228501"><ele>137.0</ele><time>2026-04-27T13:12:09Z</time></trkpt><trkpt lat="43.68302754155439" lon="12.727207801327056"><ele>137.0</ele><time>2026-04-27T13:12:10Z</time></trkpt><trkpt lat="43.68316842552886" lon="12.72690708949491"><ele>137.0</ele><time>2026-04-27T13:12:11Z</time></trkpt><trkpt lat="43.68331710272774" lon="12.726610649585938"><ele>137.5</ele><time>2026-04-27T13:12:12Z</time></trkpt><trkpt lat="43.6834711802718" lon="12.726321778297473"><ele>138.0</ele><time>2026-04-27T13:12:13Z</time></trkpt><trkpt lat="43.683629448167075" lon="12.726038234523006"><ele>139.5</ele><time>2026-04-27T13:12:14Z</time></trkpt><trkpt lat="43.68379010384411" lon="12.725759702625744"><ele>141.0</ele><time>2026-04-27T13:12:15Z</time></trkpt><trkpt lat="43.6839532948559" lon="12.725485992426524"><ele>140.0</ele><time>2026-04-27T13:12:16Z</time></trkpt><trkpt lat="43.68411746495264" lon="12.725216319544785"><ele>139.0</ele><time>2026-04-27T13:12:17Z</time></trkpt><trkpt lat="43.68428520464408" lon="12.724952288844909"><ele>141.0</ele><time>2026-04-27T13:12:18Z</time></trkpt><trkpt lat="43.68445267437353" lon="12.72469176542972"><ele>143.0</ele><time>2026-04-27T13:12:19Z</time></trkpt><trkpt lat="43.68461898878232" lon="12.724434455977635"><ele>142.5</ele><time>2026-04-27T13:12:20Z</time></trkpt><trkpt lat="43.684786303517804" lon="12.724178577746365"><ele>142.0</ele><time>2026-04-27T13:12:21Z</time></trkpt><trkpt lat="43.68494857388445" lon="12.723921366366916"><ele>142.0</ele><time>2026-04-27T13:12:22Z</time></trkpt><trkpt lat="43.68510814619237" lon="12.723664331169985"><ele>142.0</ele><time>2026-04-27T13:12:23Z</time></trkpt><trkpt lat="43.685262920655546" lon="12.723407668844029"><ele>143.5</ele><time>2026-04-27T13:12:24Z</time></trkpt><trkpt lat="43.68541131319983" lon="12.723149970303115"><ele>145.0</ele><time>2026-04-27T13:12:25Z</time></trkpt><trkpt lat="43.68555432098179" lon="12.722886747777665"><ele>144.5</ele><time>2026-04-27T13:12:26Z</time></trkpt><trkpt lat="43.68569020887142" lon="12.722621737820988"><ele>144.0</ele><time>2026-04-27T13:12:27Z</time></trkpt><trkpt lat="43.685816507328234" lon="12.722355431005916"><ele>144.0</ele><time>2026-04-27T13:12:28Z</time></trkpt><trkpt lat="43.68593797012869" lon="12.72208594477703"><ele>144.0</ele><time>2026-04-27T13:12:29Z</time></trkpt><trkpt lat="43.68605414218407" lon="12.721816549902785"><ele>144.0</ele><time>2026-04-27T13:12:30Z</time></trkpt><trkpt lat="43.68616578604152" lon="12.721539992736812"><ele>144.0</ele><time>2026-04-27T13:12:31Z</time></trkpt><trkpt lat="43.686271173159966" lon="12.721266939242518"><ele>143.66666666666666</ele><time>2026-04-27T13:12:32Z</time></trkpt><trkpt lat="43.68636762233642" lon="12.720990119541296"><ele>143.33333333333331</ele><time>2026-04-27T13:12:33Z</time></trkpt><trkpt lat="43.68645839421333" lon="12.720712011340758"><ele>143.0</ele><time>2026-04-27T13:12:34Z</time></trkpt><trkpt lat="43.6865454091628" lon="12.720431579224497"><ele>143.33333333333331</ele><time>2026-04-27T13:12:35Z</time></trkpt><trkpt lat="43.686622927871205" lon="12.720148015794171"><ele>143.66666666666666</ele><time>2026-04-27T13:12:36Z</time></trkpt><trkpt lat="43.68670023885328" lon="12.719868661946963"><ele>144.0</ele><time>2026-04-27T13:12:37Z</time></trkpt><trkpt lat="43.686772432583545" lon="12.719591252525618"><ele>144.0</ele><time>2026-04-27T13:12:38Z</time></trkpt><trkpt lat="43.686842050663344" lon="12.719311865044789"><ele>144.0</ele><time>2026-04-27T13:12:39Z</time></trkpt><trkpt lat="43.686903453732604" lon="12.719031761220597"><ele>144.0</ele><time>2026-04-27T13:12:40Z</time></trkpt><trkpt lat="43.686963015471086" lon="12.718751818229007"><ele>144.33333333333334</ele><time>2026-04-27T13:12:41Z</time></trkpt><trkpt lat="43.68701950072697" lon="12.718473551409287"><ele>144.66666666666669</ele><time>2026-04-27T13:12:42Z</time></trkpt><trkpt lat="43.6870732380163" lon="12.718194342947761"><ele>145.0</ele><time>2026-04-27T13:12:43Z</time></trkpt><trkpt lat="43.68712614439714" lon="12.7179154003305"><ele>144.33333333333334</ele><time>2026-04-27T13:12:44Z</time></trkpt><trkpt lat="43.68717714828705" lon="12.717636452730787"><ele>143.66666666666666</ele><time>2026-04-27T13:12:45Z</time></trkpt><trkpt lat="43.687226819806476" lon="12.717356733757702"><ele>143.0</ele><time>2026-04-27T13:12:46Z</time></trkpt><trkpt lat="43.68727630410577" lon="12.717076641693966"><ele>143.0</ele><time>2026-04-27T13:12:47Z</time></trkpt><trkpt lat="43.687327948045215" lon="12.716800301277473"><ele>143.0</ele><time>2026-04-27T13:12:48Z</time></trkpt><trkpt lat="43.687379802628556" lon="12.716521986367843"><ele>143.0</ele><time>2026-04-27T13:12:49Z</time></trkpt><trkpt lat="43.687429331109726" lon="12.716239408902647"><ele>143.66666666666666</ele><time>2026-04-27T13:12:50Z</time></trkpt><trkpt lat="43.68748314278176" lon="12.715953681103345"><ele>144.33333333333334</ele><time>2026-04-27T13:12:51Z</time></trkpt><trkpt lat="43.68753893619912" lon="12.715667054528643"><ele>145.0</ele><time>2026-04-27T13:12:52Z</time></trkpt><trkpt lat="43.68759570047624" lon="12.715379228365439"><ele>145.0</ele><time>2026-04-27T13:12:53Z</time></trkpt><trkpt lat="43.68765700434119" lon="12.71509248507157"><ele>145.0</ele><time>2026-04-27T13:12:54Z</time></trkpt><trkpt lat="43.687722396567125" lon="12.714808177502952"><ele>145.0</ele><time>2026-04-27T13:12:55Z</time></trkpt><trkpt lat="43.68779192306699" lon="12.714529047224191"><ele>144.66666666666669</ele><time>2026-04-27T13:12:56Z</time></trkpt><trkpt lat="43.68786629085005" lon="12.714261665143521"><ele>144.33333333333334</ele><time>2026-04-27T13:12:57Z</time></trkpt><trkpt lat="43.6879425221812" lon="12.714012181783618"><ele>144.0</ele><time>2026-04-27T13:12:58Z</time></trkpt><trkpt lat="43.688053113915885" lon="12.713805359902867"><ele>144.33333333333334</ele><time>2026-04-27T13:12:59Z</time></trkpt><trkpt lat="43.68811947115962" lon="12.71356904115708"><ele>144.66666666666669</ele><time>2026-04-27T13:13:00Z</time></trkpt><trkpt lat="43.68822870181446" lon="12.713378898218997"><ele>145.0</ele><time>2026-04-27T13:13:01Z</time></trkpt><trkpt lat="43.68835390763425" lon="12.71319333199548"><ele>145.0</ele><time>2026-04-27T13:13:02Z</time></trkpt><trkpt lat="43.68848922338774" lon="12.713014907312006"><ele>145.0</ele><time>2026-04-27T13:13:03Z</time></trkpt><trkpt lat="43.68862496567044" lon="12.712847173392744"><ele>145.0</ele><time>2026-04-27T13:13:04Z</time></trkpt><trkpt lat="43.68875449775829" lon="12.71268808915926"><ele>146.33333333333334</ele><time>2026-04-27T13:13:05Z</time></trkpt><trkpt lat="43.688873590057014" lon="12.712536319387024"><ele>147.66666666666666</ele><time>2026-04-27T13:13:06Z</time></trkpt><trkpt lat="43.68899383717214" lon="12.712380502649557"><ele>149.0</ele><time>2026-04-27T13:13:07Z</time></trkpt><trkpt lat="43.6891135022914" lon="12.712224340553867"><ele>149.0</ele><time>2026-04-27T13:13:08Z</time></trkpt><trkpt lat="43.689231951676945" lon="12.712070395287462"><ele>149.0</ele><time>2026-04-27T13:13:09Z</time></trkpt><trkpt lat="43.68934921256864" lon="12.711914151158709"><ele>149.0</ele><time>2026-04-27T13:13:10Z</time></trkpt><trkpt lat="43.689461805818404" lon="12.71175463395058"><ele>151.66666666666666</ele><time>2026-04-27T13:13:11Z</time></trkpt><trkpt lat="43.689570925875024" lon="12.711592007685686"><ele>154.33333333333334</ele><time>2026-04-27T13:13:12Z</time></trkpt><trkpt lat="43.68967652173614" lon="12.71142802297137"><ele>157.0</ele><time>2026-04-27T13:13:13Z</time></trkpt><trkpt lat="43.68977686833376" lon="12.71125979759173"><ele>157.0</ele><time>2026-04-27T13:13:14Z</time></trkpt><trkpt lat="43.689874727468904" lon="12.711088358958746"><ele>157.0</ele><time>2026-04-27T13:13:15Z</time></trkpt><trkpt lat="43.689975629439296" lon="12.71091694070664"><ele>157.0</ele><time>2026-04-27T13:13:16Z</time></trkpt><trkpt lat="43.690076713046054" lon="12.710745570737755"><ele>156.0</ele><time>2026-04-27T13:13:17Z</time></trkpt><trkpt lat="43.69017882371315" lon="12.710579054454797"><ele>155.0</ele><time>2026-04-27T13:13:18Z</time></trkpt><trkpt lat="43.69028004960083" lon="12.710409936373509"><ele>154.0</ele><time>2026-04-27T13:13:19Z</time></trkpt><trkpt lat="43.6903808893796" lon="12.710241931228174"><ele>154.0</ele><time>2026-04-27T13:13:20Z</time></trkpt><trkpt lat="43.690476429486274" lon="12.710077390123674"><ele>154.0</ele><time>2026-04-27T13:13:21Z</time></trkpt><trkpt lat="43.69056883130722" lon="12.709921117219212"><ele>154.0</ele><time>2026-04-27T13:13:22Z</time></trkpt><trkpt lat="43.69065452830553" lon="12.70977513792444"><ele>154.0</ele><time>2026-04-27T13:13:23Z</time></trkpt><trkpt lat="43.69073480371934" lon="12.709642503195612"><ele>154.0</ele><time>2026-04-27T13:13:24Z</time></trkpt><trkpt lat="43.69080631439326" lon="12.70952196345036"><ele>154.0</ele><time>2026-04-27T13:13:25Z</time></trkpt><trkpt lat="43.69087428348926" lon="12.709411518060955"><ele>154.0</ele><time>2026-04-27T13:13:26Z</time></trkpt><trkpt lat="43.690937211126084" lon="12.709310643725837"><ele>154.0</ele><time>2026-04-27T13:13:27Z</time></trkpt><trkpt lat="43.69100099493811" lon="12.709226203237794"><ele>154.0</ele><time>2026-04-27T13:13:28Z</time></trkpt><trkpt lat="43.69107998349452" lon="12.7091512573054"><ele>155.4</ele><time>2026-04-27T13:13:28.999Z</time></trkpt><trkpt lat="43.69116949072782" lon="12.709089379775907"><ele>156.8</ele><time>2026-04-27T13:13:29.999Z</time></trkpt><trkpt lat="43.69124673872674" lon="12.709005463589639"><ele>158.20000000000002</ele><time>2026-04-27T13:13:30.999Z</time></trkpt><trkpt lat="43.69129517137131" lon="12.708891904573068"><ele>159.60000000000002</ele><time>2026-04-27T13:13:31.999Z</time></trkpt><trkpt lat="43.69133679341254" lon="12.708749111568785"><ele>161.0</ele><time>2026-04-27T13:13:32.999Z</time></trkpt><trkpt lat="43.69139544436674" lon="12.708587881005876"><ele>160.5</ele><time>2026-04-27T13:13:33.999Z</time></trkpt><trkpt lat="43.69147345061323" lon="12.70842617854441"><ele>160.0</ele><time>2026-04-27T13:13:34.999Z</time></trkpt><trkpt lat="43.69156056071769" lon="12.708268904180336"><ele>159.5</ele><time>2026-04-27T13:13:35.999Z</time></trkpt><trkpt lat="43.69164394233195" lon="12.708122792741426"><ele>159.0</ele><time>2026-04-27T13:13:36.999Z</time></trkpt><trkpt lat="43.6917119229718" lon="12.707977089596865"><ele>159.0</ele><time>2026-04-27T13:13:37.999Z</time></trkpt><trkpt lat="43.691764722403576" lon="12.707823882514619"><ele>159.0</ele><time>2026-04-27T13:13:38.999Z</time></trkpt><trkpt lat="43.691798010660605" lon="12.707654315125716"><ele>159.0</ele><time>2026-04-27T13:13:39.999Z</time></trkpt><trkpt lat="43.69181584636522" lon="12.70747430247268"><ele>159.0</ele><time>2026-04-27T13:13:40.999Z</time></trkpt><trkpt lat="43.69182645741535" lon="12.707282723307287"><ele>159.25</ele><time>2026-04-27T13:13:41.999Z</time></trkpt><trkpt lat="43.691838869590164" lon="12.707083612480163"><ele>159.5</ele><time>2026-04-27T13:13:42.999Z</time></trkpt><trkpt lat="43.69185696704425" lon="12.706883659757942"><ele>159.75</ele><time>2026-04-27T13:13:43.999Z</time></trkpt><trkpt lat="43.691886234225585" lon="12.706679170180864"><ele>160.0</ele><time>2026-04-27T13:13:44.999Z</time></trkpt><trkpt lat="43.69193331987951" lon="12.70648988670708"><ele>160.25</ele><time>2026-04-27T13:13:45.999Z</time></trkpt><trkpt lat="43.69198847744838" lon="12.706313237526372"><ele>160.5</ele><time>2026-04-27T13:13:46.999Z</time></trkpt><trkpt lat="43.69204541186763" lon="12.706137550289185"><ele>160.75</ele><time>2026-04-27T13:13:47.999Z</time></trkpt><trkpt lat="43.69210725212948" lon="12.705962589965791"><ele>161.0</ele><time>2026-04-27T13:13:48.999Z</time></trkpt><trkpt lat="43.69216951470332" lon="12.705791508112162"><ele>161.25</ele><time>2026-04-27T13:13:49.999Z</time></trkpt><trkpt lat="43.69223060204277" lon="12.705615963453386"><ele>161.5</ele><time>2026-04-27T13:13:50.999Z</time></trkpt><trkpt lat="43.69229185716324" lon="12.705438322710812"><ele>161.75</ele><time>2026-04-27T13:13:51.999Z</time></trkpt><trkpt lat="43.69235267923022" lon="12.705262297866371"><ele>162.0</ele><time>2026-04-27T13:13:52.999Z</time></trkpt><trkpt lat="43.69241517847242" lon="12.70508715031027"><ele>162.75</ele><time>2026-04-27T13:13:53.999Z</time></trkpt><trkpt lat="43.6924780366425" lon="12.704910469983925"><ele>163.5</ele><time>2026-04-27T13:13:54.999Z</time></trkpt><trkpt lat="43.69254128866268" lon="12.704734434212256"><ele>164.25</ele><time>2026-04-27T13:13:56Z</time></trkpt><trkpt lat="43.69260483159093" lon="12.704561952081736"><ele>165.0</ele><time>2026-04-27T13:13:57Z</time></trkpt><trkpt lat="43.69266632974816" lon="12.704391407666064"><ele>165.0</ele><time>2026-04-27T13:13:58Z</time></trkpt><trkpt lat="43.69272803184747" lon="12.704222919515123"><ele>165.0</ele><time>2026-04-27T13:13:59Z</time></trkpt><trkpt lat="43.69279002921086" lon="12.704056623408276"><ele>165.0</ele><time>2026-04-27T13:14:00Z</time></trkpt><trkpt lat="43.692851670154255" lon="12.703887656258434"><ele>165.0</ele><time>2026-04-27T13:14:01Z</time></trkpt><trkpt lat="43.692916725871264" lon="12.703715621154837"><ele>165.5</ele><time>2026-04-27T13:14:02Z</time></trkpt><trkpt lat="43.69298165288319" lon="12.703543262787987"><ele>166.0</ele><time>2026-04-27T13:14:03Z</time></trkpt><trkpt lat="43.69304557714079" lon="12.703371028345426"><ele>166.5</ele><time>2026-04-27T13:14:04Z</time></trkpt><trkpt lat="43.69310697740264" lon="12.703198847406123"><ele>167.0</ele><time>2026-04-27T13:14:05Z</time></trkpt><trkpt lat="43.69316712658095" lon="12.703027075120811"><ele>167.0</ele><time>2026-04-27T13:14:06Z</time></trkpt><trkpt lat="43.69323034287029" lon="12.70285497059131"><ele>167.0</ele><time>2026-04-27T13:14:07Z</time></trkpt><trkpt lat="43.69329429451879" lon="12.702685524584112"><ele>167.0</ele><time>2026-04-27T13:14:08Z</time></trkpt><trkpt lat="43.69335754077053" lon="12.702518377901995"><ele>167.0</ele><time>2026-04-27T13:14:09Z</time></trkpt><trkpt lat="43.69341927010346" lon="12.702350254705962"><ele>167.25</ele><time>2026-04-27T13:14:10Z</time></trkpt><trkpt lat="43.693475796062906" lon="12.70219539431483"><ele>167.5</ele><time>2026-04-27T13:14:11Z</time></trkpt><trkpt lat="43.69352978920226" lon="12.702051661897752"><ele>167.75</ele><time>2026-04-27T13:14:12Z</time></trkpt><trkpt lat="43.69358161985596" lon="12.701913669575998"><ele>168.0</ele><time>2026-04-27T13:14:13Z</time></trkpt><trkpt lat="43.693633004640716" lon="12.701771066099585"><ele>169.25</ele><time>2026-04-27T13:14:14Z</time></trkpt><trkpt lat="43.69368366216246" lon="12.701624972390544"><ele>170.5</ele><time>2026-04-27T13:14:15Z</time></trkpt><trkpt lat="43.69373681638845" lon="12.701480673434155"><ele>171.75</ele><time>2026-04-27T13:14:16Z</time></trkpt><trkpt lat="43.69379001902217" lon="12.701334509202816"><ele>173.0</ele><time>2026-04-27T13:14:17Z</time></trkpt><trkpt lat="43.69383722643318" lon="12.701185777057532"><ele>173.0</ele><time>2026-04-27T13:14:18Z</time></trkpt><trkpt lat="43.693881875870375" lon="12.701030359159272"><ele>173.0</ele><time>2026-04-27T13:14:19Z</time></trkpt><trkpt lat="43.69392809918236" lon="12.700872438956267"><ele>173.0</ele><time>2026-04-27T13:14:20Z</time></trkpt><trkpt lat="43.69397397975323" lon="12.700714169822518"><ele>173.0</ele><time>2026-04-27T13:14:21Z</time></trkpt><trkpt lat="43.69401835656175" lon="12.700553320884191"><ele>173.0</ele><time>2026-04-27T13:14:22Z</time></trkpt><trkpt lat="43.69406605629164" lon="12.700392838320617"><ele>173.0</ele><time>2026-04-27T13:14:23Z</time></trkpt><trkpt lat="43.694116063387334" lon="12.700233256702985"><ele>173.0</ele><time>2026-04-27T13:14:24Z</time></trkpt><trkpt lat="43.69416759377816" lon="12.700071547475302"><ele>173.0</ele><time>2026-04-27T13:14:25Z</time></trkpt><trkpt lat="43.69422055428308" lon="12.699909513918016"><ele>173.0</ele><time>2026-04-27T13:14:26Z</time></trkpt><trkpt lat="43.69427693017213" lon="12.69974804132954"><ele>173.0</ele><time>2026-04-27T13:14:27Z</time></trkpt><trkpt lat="43.69433596924862" lon="12.699584768105392"><ele>173.0</ele><time>2026-04-27T13:14:28Z</time></trkpt><trkpt lat="43.694397765183965" lon="12.699421499657856"><ele>173.0</ele><time>2026-04-27T13:14:29Z</time></trkpt><trkpt lat="43.6944613816928" lon="12.69925731186801"><ele>172.75</ele><time>2026-04-27T13:14:30Z</time></trkpt><trkpt lat="43.69452918552399" lon="12.699091556461195"><ele>172.5</ele><time>2026-04-27T13:14:31Z</time></trkpt><trkpt lat="43.69459784531427" lon="12.698922058071231"><ele>172.25</ele><time>2026-04-27T13:14:32Z</time></trkpt><trkpt lat="43.694668224362445" lon="12.698749876292757"><ele>172.0</ele><time>2026-04-27T13:14:33Z</time></trkpt><trkpt lat="43.694737709164336" lon="12.698584209989722"><ele>171.5</ele><time>2026-04-27T13:14:34Z</time></trkpt><trkpt lat="43.69480678345959" lon="12.698424687648478"><ele>171.0</ele><time>2026-04-27T13:14:35Z</time></trkpt><trkpt lat="43.694874580188426" lon="12.698269580616417"><ele>170.5</ele><time>2026-04-27T13:14:36Z</time></trkpt><trkpt lat="43.6949424205131" lon="12.698115395930282"><ele>170.0</ele><time>2026-04-27T13:14:37Z</time></trkpt><trkpt lat="43.6950107471789" lon="12.697961057276709"><ele>170.0</ele><time>2026-04-27T13:14:38Z</time></trkpt><trkpt lat="43.695077664667245" lon="12.697810589402847"><ele>170.0</ele><time>2026-04-27T13:14:39Z</time></trkpt><trkpt lat="43.69514226778624" lon="12.697660158298017"><ele>170.0</ele><time>2026-04-27T13:14:40Z</time></trkpt><trkpt lat="43.69520637796239" lon="12.69751216856818"><ele>170.0</ele><time>2026-04-27T13:14:41Z</time></trkpt><trkpt lat="43.69527208059337" lon="12.697359419391981"><ele>170.0</ele><time>2026-04-27T13:14:42Z</time></trkpt><trkpt lat="43.69534028425653" lon="12.697204260977397"><ele>170.0</ele><time>2026-04-27T13:14:43Z</time></trkpt><trkpt lat="43.69540951630001" lon="12.69704938469572"><ele>170.0</ele><time>2026-04-27T13:14:44Z</time></trkpt><trkpt lat="43.69547688533381" lon="12.69689552358622"><ele>170.0</ele><time>2026-04-27T13:14:45Z</time></trkpt><trkpt lat="43.69554647029895" lon="12.696743224107587"><ele>169.75</ele><time>2026-04-27T13:14:46Z</time></trkpt><trkpt lat="43.69561564271009" lon="12.696583913498623"><ele>169.5</ele><time>2026-04-27T13:14:47Z</time></trkpt><trkpt lat="43.69568690569555" lon="12.696425265953787"><ele>169.25</ele><time>2026-04-27T13:14:48Z</time></trkpt><trkpt lat="43.69576023200252" lon="12.696266341362202"><ele>169.0</ele><time>2026-04-27T13:14:49Z</time></trkpt><trkpt lat="43.695832495086016" lon="12.696108270210324"><ele>168.25</ele><time>2026-04-27T13:14:50Z</time></trkpt><trkpt lat="43.69590417850651" lon="12.695946713556783"><ele>167.5</ele><time>2026-04-27T13:14:51Z</time></trkpt><trkpt lat="43.69597496458547" lon="12.695783264213883"><ele>166.75</ele><time>2026-04-27T13:14:52Z</time></trkpt><trkpt lat="43.696047007769195" lon="12.695620051584612"><ele>166.0</ele><time>2026-04-27T13:14:53Z</time></trkpt><trkpt lat="43.69611989146182" lon="12.695457925436507"><ele>166.0</ele><time>2026-04-27T13:14:54Z</time></trkpt><trkpt lat="43.696190811028075" lon="12.695296119563277"><ele>166.0</ele><time>2026-04-27T13:14:55Z</time></trkpt><trkpt lat="43.69626202585605" lon="12.69513230699697"><ele>166.0</ele><time>2026-04-27T13:14:56Z</time></trkpt><trkpt lat="43.69633290813378" lon="12.69497007020441"><ele>166.0</ele><time>2026-04-27T13:14:57Z</time></trkpt><trkpt lat="43.69640497618926" lon="12.694807697173744"><ele>165.75</ele><time>2026-04-27T13:14:58Z</time></trkpt><trkpt lat="43.696477656236596" lon="12.69464011173336"><ele>165.5</ele><time>2026-04-27T13:14:59Z</time></trkpt><trkpt lat="43.69654940583224" lon="12.694471193614444"><ele>165.25</ele><time>2026-04-27T13:15:00Z</time></trkpt><trkpt lat="43.696621738405945" lon="12.694299736651066"><ele>165.0</ele><time>2026-04-27T13:15:01Z</time></trkpt><trkpt lat="43.69669771654895" lon="12.694130014039445"><ele>164.5</ele><time>2026-04-27T13:15:02Z</time></trkpt><trkpt lat="43.69677354136428" lon="12.693960814755272"><ele>164.0</ele><time>2026-04-27T13:15:03Z</time></trkpt><trkpt lat="43.696846884505575" lon="12.693792867740106"><ele>163.5</ele><time>2026-04-27T13:15:04Z</time></trkpt><trkpt lat="43.696919418081904" lon="12.69362702048158"><ele>163.0</ele><time>2026-04-27T13:15:05Z</time></trkpt><trkpt lat="43.696992306626505" lon="12.693458301117683"><ele>164.0</ele><time>2026-04-27T13:15:06Z</time></trkpt><trkpt lat="43.697065920806494" lon="12.693289675901596"><ele>165.0</ele><time>2026-04-27T13:15:07Z</time></trkpt><trkpt lat="43.69713928973207" lon="12.69311787165791"><ele>166.0</ele><time>2026-04-27T13:15:08Z</time></trkpt><trkpt lat="43.69721414083841" lon="12.69294652439491"><ele>167.0</ele><time>2026-04-27T13:15:09Z</time></trkpt><trkpt lat="43.69728874397497" lon="12.692776495630147"><ele>166.0</ele><time>2026-04-27T13:15:10Z</time></trkpt><trkpt lat="43.69736489462549" lon="12.69260357529061"><ele>165.0</ele><time>2026-04-27T13:15:11Z</time></trkpt><trkpt lat="43.69744452803568" lon="12.692426225920045"><ele>164.0</ele><time>2026-04-27T13:15:12Z</time></trkpt><trkpt lat="43.697525802133896" lon="12.692246357108525"><ele>164.0</ele><time>2026-04-27T13:15:13Z</time></trkpt><trkpt lat="43.69760730035557" lon="12.692061478857925"><ele>164.0</ele><time>2026-04-27T13:15:14Z</time></trkpt><trkpt lat="43.697686545024865" lon="12.691871689910013"><ele>164.0</ele><time>2026-04-27T13:15:15Z</time></trkpt><trkpt lat="43.697765471919816" lon="12.691675684584242"><ele>166.0</ele><time>2026-04-27T13:15:15.999Z</time></trkpt><trkpt lat="43.69783979716153" lon="12.691472922964596"><ele>168.0</ele><time>2026-04-27T13:15:16.999Z</time></trkpt><trkpt lat="43.69790932965056" lon="12.691264686382535"><ele>170.0</ele><time>2026-04-27T13:15:17.999Z</time></trkpt><trkpt lat="43.69797736690941" lon="12.691051941375639"><ele>170.0</ele><time>2026-04-27T13:15:18.999Z</time></trkpt><trkpt lat="43.69804430078249" lon="12.690836781765801"><ele>170.0</ele><time>2026-04-27T13:15:19.999Z</time></trkpt><trkpt lat="43.69811146520893" lon="12.690620939063411"><ele>170.0</ele><time>2026-04-27T13:15:20.999Z</time></trkpt><trkpt lat="43.69817822008842" lon="12.690402804313454"><ele>169.66666666666666</ele><time>2026-04-27T13:15:21.999Z</time></trkpt><trkpt lat="43.69824275830282" lon="12.69018666637036"><ele>169.33333333333334</ele><time>2026-04-27T13:15:22.999Z</time></trkpt><trkpt lat="43.698305145668705" lon="12.689974228190984"><ele>169.0</ele><time>2026-04-27T13:15:23.999Z</time></trkpt><trkpt lat="43.69837012522146" lon="12.689763032969326"><ele>169.0</ele><time>2026-04-27T13:15:24.999Z</time></trkpt><trkpt lat="43.69843603610968" lon="12.68955484313079"><ele>169.0</ele><time>2026-04-27T13:15:25.999Z</time></trkpt><trkpt lat="43.69849987529795" lon="12.689350111754008"><ele>169.0</ele><time>2026-04-27T13:15:26.999Z</time></trkpt><trkpt lat="43.6985628782455" lon="12.689146202766535"><ele>170.66666666666669</ele><time>2026-04-27T13:15:27.999Z</time></trkpt><trkpt lat="43.69862197469823" lon="12.688948519218664"><ele>172.33333333333334</ele><time>2026-04-27T13:15:28.999Z</time></trkpt><trkpt lat="43.698681493041846" lon="12.688751150538476"><ele>174.0</ele><time>2026-04-27T13:15:29.999Z</time></trkpt><trkpt lat="43.69874383732303" lon="12.68855974852059"><ele>174.25</ele><time>2026-04-27T13:15:30.999Z</time></trkpt><trkpt lat="43.698802800395676" lon="12.688369969766725"><ele>174.5</ele><time>2026-04-27T13:15:31.999Z</time></trkpt><trkpt lat="43.698861077818385" lon="12.688180411116793"><ele>174.75</ele><time>2026-04-27T13:15:32.999Z</time></trkpt><trkpt lat="43.69892127597992" lon="12.687990810627502"><ele>175.0</ele><time>2026-04-27T13:15:33.999Z</time></trkpt><trkpt lat="43.698982319105276" lon="12.687803283823277"><ele>175.75</ele><time>2026-04-27T13:15:34.999Z</time></trkpt><trkpt lat="43.69904042059204" lon="12.687614939844167"><ele>176.5</ele><time>2026-04-27T13:15:35.999Z</time></trkpt><trkpt lat="43.699099521921006" lon="12.687427428739092"><ele>177.25</ele><time>2026-04-27T13:15:36.999Z</time></trkpt><trkpt lat="43.699158975670606" lon="12.68724240984785"><ele>178.0</ele><time>2026-04-27T13:15:37.999Z</time></trkpt><trkpt lat="43.69921858182859" lon="12.687059676895691"><ele>177.75</ele><time>2026-04-27T13:15:38.999Z</time></trkpt><trkpt lat="43.69927360983244" lon="12.686878883161253"><ele>177.5</ele><time>2026-04-27T13:15:39.999Z</time></trkpt><trkpt lat="43.699324196218" lon="12.686710651487983"><ele>177.25</ele><time>2026-04-27T13:15:40.999Z</time></trkpt><trkpt lat="43.69937900125249" lon="12.68654178023362"><ele>177.0</ele><time>2026-04-27T13:15:41.999Z</time></trkpt><trkpt lat="43.699434154377066" lon="12.686373996186656"><ele>178.25</ele><time>2026-04-27T13:15:42.999Z</time></trkpt><trkpt lat="43.69948514319039" lon="12.686214335019661"><ele>179.5</ele><time>2026-04-27T13:15:43.999Z</time></trkpt><trkpt lat="43.69953377450055" lon="12.686063760868855"><ele>180.75</ele><time>2026-04-27T13:15:44.999Z</time></trkpt><trkpt lat="43.69957729290934" lon="12.685920275784389"><ele>182.0</ele><time>2026-04-27T13:15:45.999Z</time></trkpt><trkpt lat="43.6996189780685" lon="12.685784787703868"><ele>182.0</ele><time>2026-04-27T13:15:46.999Z</time></trkpt><trkpt lat="43.699657811502554" lon="12.685660846878031"><ele>182.0</ele><time>2026-04-27T13:15:47.999Z</time></trkpt><trkpt lat="43.699698277660936" lon="12.685541872593301"><ele>182.0</ele><time>2026-04-27T13:15:48.999Z</time></trkpt><trkpt lat="43.69974843677541" lon="12.68542732516074"><ele>182.0</ele><time>2026-04-27T13:15:49.999Z</time></trkpt><trkpt lat="43.699813010194994" lon="12.685332703260066"><ele>182.0</ele><time>2026-04-27T13:15:50.999Z</time></trkpt><trkpt lat="43.69989299667583" lon="12.685270489120935"><ele>182.0</ele><time>2026-04-27T13:15:51.999Z</time></trkpt><trkpt lat="43.69998084542033" lon="12.685238511349034"><ele>182.0</ele><time>2026-04-27T13:15:52.999Z</time></trkpt><trkpt lat="43.70008527221047" lon="12.6852520010921"><ele>182.0</ele><time>2026-04-27T13:15:53.999Z</time></trkpt><trkpt lat="43.70020080951354" lon="12.685291877637967"><ele>182.0</ele><time>2026-04-27T13:15:54.999Z</time></trkpt><trkpt lat="43.70032028116804" lon="12.68533701225947"><ele>182.0</ele><time>2026-04-27T13:15:55.999Z</time></trkpt><trkpt lat="43.70044494876631" lon="12.685366653493768"><ele>183.0</ele><time>2026-04-27T13:15:56.999Z</time></trkpt><trkpt lat="43.70056762715094" lon="12.685365076733648"><ele>184.0</ele><time>2026-04-27T13:15:57.999Z</time></trkpt><trkpt lat="43.70068940823868" lon="12.685328210641426"><ele>185.0</ele><time>2026-04-27T13:15:58.999Z</time></trkpt><trkpt lat="43.70080199723679" lon="12.685262144867455"><ele>186.0</ele><time>2026-04-27T13:15:59.999Z</time></trkpt><trkpt lat="43.70089865310013" lon="12.68518403695293"><ele>183.8</ele><time>2026-04-27T13:16:00.999Z</time></trkpt><trkpt lat="43.70098741788482" lon="12.68509977981433"><ele>181.60000000000002</ele><time>2026-04-27T13:16:02Z</time></trkpt><trkpt lat="43.701061840071105" lon="12.685002364798438"><ele>179.4</ele><time>2026-04-27T13:16:03Z</time></trkpt><trkpt lat="43.70112359246981" lon="12.684888726307838"><ele>177.2</ele><time>2026-04-27T13:16:04Z</time></trkpt><trkpt lat="43.701178409546074" lon="12.684756651492918"><ele>175.0</ele><time>2026-04-27T13:16:05Z</time></trkpt><trkpt lat="43.70123145751219" lon="12.684620631084018"><ele>175.0</ele><time>2026-04-27T13:16:06Z</time></trkpt><trkpt lat="43.701281899109254" lon="12.684485866007284"><ele>175.0</ele><time>2026-04-27T13:16:07Z</time></trkpt><trkpt lat="43.70133374171597" lon="12.684355988006226"><ele>175.0</ele><time>2026-04-27T13:16:08Z</time></trkpt><trkpt lat="43.701386463121885" lon="12.684229160170917"><ele>175.0</ele><time>2026-04-27T13:16:09Z</time></trkpt><trkpt lat="43.70143725744685" lon="12.684102849242985"><ele>175.0</ele><time>2026-04-27T13:16:10Z</time></trkpt><trkpt lat="43.70148805431729" lon="12.683975735089097"><ele>173.8</ele><time>2026-04-27T13:16:11Z</time></trkpt><trkpt lat="43.70154263059626" lon="12.683850699945237"><ele>172.6</ele><time>2026-04-27T13:16:12Z</time></trkpt><trkpt lat="43.701598161706706" lon="12.683732208571826"><ele>171.39999999999998</ele><time>2026-04-27T13:16:13Z</time></trkpt><trkpt lat="43.70164916042476" lon="12.683615374783477"><ele>170.2</ele><time>2026-04-27T13:16:14Z</time></trkpt><trkpt lat="43.70169657812408" lon="12.683502099082014"><ele>169.0</ele><time>2026-04-27T13:16:15Z</time></trkpt><trkpt lat="43.70173780646524" lon="12.68338535076809"><ele>168.2</ele><time>2026-04-27T13:16:16Z</time></trkpt><trkpt lat="43.70176788053528" lon="12.683262357403335"><ele>167.39999999999998</ele><time>2026-04-27T13:16:17Z</time></trkpt><trkpt lat="43.70177775595684" lon="12.683134533976274"><ele>166.6</ele><time>2026-04-27T13:16:18Z</time></trkpt><trkpt lat="43.70176572560415" lon="12.68300595224493"><ele>165.8</ele><time>2026-04-27T13:16:19Z</time></trkpt><trkpt lat="43.70174063411606" lon="12.682874658331496"><ele>165.0</ele><time>2026-04-27T13:16:20Z</time></trkpt><trkpt lat="43.70171262766598" lon="12.682738861143857"><ele>165.0</ele><time>2026-04-27T13:16:21Z</time></trkpt><trkpt lat="43.7016843865744" lon="12.682601853179905"><ele>165.0</ele><time>2026-04-27T13:16:22Z</time></trkpt><trkpt lat="43.70165657462421" lon="12.682461107825949"><ele>165.0</ele><time>2026-04-27T13:16:23Z</time></trkpt><trkpt lat="43.701629868825506" lon="12.682319013472869"><ele>165.0</ele><time>2026-04-27T13:16:24Z</time></trkpt><trkpt lat="43.70160176632198" lon="12.682178037119247"><ele>165.0</ele><time>2026-04-27T13:16:25Z</time></trkpt><trkpt lat="43.7015728156366" lon="12.682030910354374"><ele>165.75</ele><time>2026-04-27T13:16:26Z</time></trkpt><trkpt lat="43.701541712602896" lon="12.681876609435188"><ele>166.5</ele><time>2026-04-27T13:16:27Z</time></trkpt><trkpt lat="43.70150923300577" lon="12.681719207451552"><ele>167.25</ele><time>2026-04-27T13:16:28Z</time></trkpt><trkpt lat="43.70147903846615" lon="12.681558572266598"><ele>168.0</ele><time>2026-04-27T13:16:29Z</time></trkpt><trkpt lat="43.70144807058265" lon="12.681395994282518"><ele>168.0</ele><time>2026-04-27T13:16:30Z</time></trkpt><trkpt lat="43.70141848470041" lon="12.681238860036611"><ele>168.0</ele><time>2026-04-27T13:16:31Z</time></trkpt><trkpt lat="43.70138981377975" lon="12.681089674299457"><ele>168.0</ele><time>2026-04-27T13:16:32Z</time></trkpt><trkpt lat="43.701362346326114" lon="12.680949410820338"><ele>168.0</ele><time>2026-04-27T13:16:33Z</time></trkpt><trkpt lat="43.701339939548184" lon="12.680817219138737"><ele>168.0</ele><time>2026-04-27T13:16:34Z</time></trkpt><trkpt lat="43.701315854880754" lon="12.680698188471553"><ele>168.60000000000002</ele><time>2026-04-27T13:16:35Z</time></trkpt><trkpt lat="43.701286677733314" lon="12.680584069164915"><ele>169.20000000000002</ele><time>2026-04-27T13:16:36Z</time></trkpt><trkpt lat="43.70123625425044" lon="12.6804841258652"><ele>169.8</ele><time>2026-04-27T13:16:37Z</time></trkpt><trkpt lat="43.70116812288976" lon="12.68039774016454"><ele>170.4</ele><time>2026-04-27T13:16:38Z</time></trkpt><trkpt lat="43.701092412687345" lon="12.680305540153675"><ele>171.0</ele><time>2026-04-27T13:16:39Z</time></trkpt><trkpt lat="43.700986506077335" lon="12.680269030625384"><ele>169.8</ele><time>2026-04-27T13:16:40Z</time></trkpt><trkpt lat="43.70088747166303" lon="12.680211980776754"><ele>168.60000000000002</ele><time>2026-04-27T13:16:41Z</time></trkpt><trkpt lat="43.700795892256224" lon="12.680129313399021"><ele>167.4</ele><time>2026-04-27T13:16:42Z</time></trkpt><trkpt lat="43.70069639321291" lon="12.680062122356098"><ele>166.2</ele><time>2026-04-27T13:16:43Z</time></trkpt><trkpt lat="43.700592970250135" lon="12.680004959380007"><ele>165.0</ele><time>2026-04-27T13:16:44Z</time></trkpt><trkpt lat="43.70050714124574" lon="12.679915643218797"><ele>165.0</ele><time>2026-04-27T13:16:45Z</time></trkpt><trkpt lat="43.700431776131666" lon="12.6798052024992"><ele>165.0</ele><time>2026-04-27T13:16:46Z</time></trkpt><trkpt lat="43.700364810684526" lon="12.67967375563462"><ele>165.0</ele><time>2026-04-27T13:16:47Z</time></trkpt><trkpt lat="43.70030283786864" lon="12.679536599368427"><ele>165.0</ele><time>2026-04-27T13:16:48Z</time></trkpt><trkpt lat="43.70024213790876" lon="12.679394757319312"><ele>165.75</ele><time>2026-04-27T13:16:49Z</time></trkpt><trkpt lat="43.700176661045006" lon="12.679253145348524"><ele>166.5</ele><time>2026-04-27T13:16:50Z</time></trkpt><trkpt lat="43.7001006697461" lon="12.679117938842818"><ele>167.25</ele><time>2026-04-27T13:16:51Z</time></trkpt><trkpt lat="43.700025415751746" lon="12.678975256090117"><ele>168.0</ele><time>2026-04-27T13:16:52Z</time></trkpt><trkpt lat="43.69992447287031" lon="12.678854490831316"><ele>168.0</ele><time>2026-04-27T13:16:53Z</time></trkpt><trkpt lat="43.69980366388788" lon="12.678762084523807"><ele>168.0</ele><time>2026-04-27T13:16:54Z</time></trkpt><trkpt lat="43.6996912473123" lon="12.678655931114102"><ele>168.0</ele><time>2026-04-27T13:16:55Z</time></trkpt><trkpt lat="43.69957658917529" lon="12.678555548195973"><ele>168.0</ele><time>2026-04-27T13:16:56Z</time></trkpt><trkpt lat="43.69947089160111" lon="12.67844544680558"><ele>169.0</ele><time>2026-04-27T13:16:57Z</time></trkpt><trkpt lat="43.69936216869011" lon="12.678368227787029"><ele>170.0</ele><time>2026-04-27T13:16:58Z</time></trkpt><trkpt lat="43.69924751572024" lon="12.678315164379379"><ele>171.0</ele><time>2026-04-27T13:16:59Z</time></trkpt><trkpt lat="43.69913831081695" lon="12.678268760265901"><ele>172.0</ele><time>2026-04-27T13:17:00Z</time></trkpt><trkpt lat="43.699027869479536" lon="12.678221830748026"><ele>172.0</ele><time>2026-04-27T13:17:01Z</time></trkpt><trkpt lat="43.698918070340916" lon="12.678175085126144"><ele>172.0</ele><time>2026-04-27T13:17:02Z</time></trkpt><trkpt lat="43.698808438383445" lon="12.678150996959058"><ele>172.0</ele><time>2026-04-27T13:17:03Z</time></trkpt><trkpt lat="43.69870062437083" lon="12.678103617181074"><ele>172.0</ele><time>2026-04-27T13:17:04Z</time></trkpt><trkpt lat="43.69859259481289" lon="12.678057423446733"><ele>169.8</ele><time>2026-04-27T13:17:05Z</time></trkpt><trkpt lat="43.69848484152151" lon="12.678009541697058"><ele>167.6</ele><time>2026-04-27T13:17:06Z</time></trkpt><trkpt lat="43.698379225647386" lon="12.677965898748354"><ele>165.4</ele><time>2026-04-27T13:17:07Z</time></trkpt><trkpt lat="43.698277587504556" lon="12.677924879205364"><ele>163.20000000000002</ele><time>2026-04-27T13:17:08Z</time></trkpt><trkpt lat="43.698184473011295" lon="12.67786130641578"><ele>161.0</ele><time>2026-04-27T13:17:08.999Z</time></trkpt><trkpt lat="43.69808813661076" lon="12.677819651587933"><ele>161.0</ele><time>2026-04-27T13:17:09.999Z</time></trkpt><trkpt lat="43.697997032371056" lon="12.677779143640002"><ele>161.0</ele><time>2026-04-27T13:17:10.999Z</time></trkpt><trkpt lat="43.69791513161227" lon="12.677741383079969"><ele>161.0</ele><time>2026-04-27T13:17:11.999Z</time></trkpt><trkpt lat="43.697831716597555" lon="12.677720870957314"><ele>161.0</ele><time>2026-04-27T13:17:12.999Z</time></trkpt><trkpt lat="43.697763942770045" lon="12.677676223939269"><ele>161.0</ele><time>2026-04-27T13:17:13.999Z</time></trkpt><trkpt lat="43.6977029068015" lon="12.677625241841177"><ele>161.0</ele><time>2026-04-27T13:17:14.999Z</time></trkpt><trkpt lat="43.69764840697533" lon="12.677569335056452"><ele>161.66666666666666</ele><time>2026-04-27T13:17:15.999Z</time></trkpt><trkpt lat="43.69759981939491" lon="12.677512182853672"><ele>162.33333333333331</ele><time>2026-04-27T13:17:16.999Z</time></trkpt><trkpt lat="43.69755543846186" lon="12.677447285888844"><ele>163.0</ele><time>2026-04-27T13:17:17.999Z</time></trkpt><trkpt lat="43.69751157264724" lon="12.677361672367505"><ele>163.66666666666666</ele><time>2026-04-27T13:17:18.999Z</time></trkpt><trkpt lat="43.69746879157077" lon="12.677260321503816"><ele>164.33333333333334</ele><time>2026-04-27T13:17:19.999Z</time></trkpt><trkpt lat="43.69743795331557" lon="12.677142358391043"><ele>165.0</ele><time>2026-04-27T13:17:20.999Z</time></trkpt><trkpt lat="43.69741222648625" lon="12.677007122221887"><ele>166.0</ele><time>2026-04-27T13:17:21.999Z</time></trkpt><trkpt lat="43.697380491999276" lon="12.676856560218413"><ele>167.0</ele><time>2026-04-27T13:17:22.999Z</time></trkpt><trkpt lat="43.697350512883396" lon="12.67669349726431"><ele>168.0</ele><time>2026-04-27T13:17:23.999Z</time></trkpt><trkpt lat="43.697338631752245" lon="12.676525981390101"><ele>169.0</ele><time>2026-04-27T13:17:24.999Z</time></trkpt><trkpt lat="43.69731169126782" lon="12.676367168102367"><ele>169.0</ele><time>2026-04-27T13:17:25.999Z</time></trkpt><trkpt lat="43.69728495005947" lon="12.676207597609105"><ele>169.0</ele><time>2026-04-27T13:17:26.999Z</time></trkpt><trkpt lat="43.69726178204939" lon="12.676046052500919"><ele>169.0</ele><time>2026-04-27T13:17:27.999Z</time></trkpt><trkpt lat="43.69724738229242" lon="12.67587992049622"><ele>169.0</ele><time>2026-04-27T13:17:28.999Z</time></trkpt><trkpt lat="43.69724817417209" lon="12.67571463337559"><ele>170.5</ele><time>2026-04-27T13:17:29.999Z</time></trkpt><trkpt lat="43.69725851273047" lon="12.675532901383558"><ele>172.0</ele><time>2026-04-27T13:17:30.999Z</time></trkpt><trkpt lat="43.6973021706717" lon="12.675346166388598"><ele>173.5</ele><time>2026-04-27T13:17:31.999Z</time></trkpt><trkpt lat="43.697360044024926" lon="12.675159343145973"><ele>175.0</ele><time>2026-04-27T13:17:32.999Z</time></trkpt><trkpt lat="43.69740886739525" lon="12.674982528573429"><ele>175.33333333333334</ele><time>2026-04-27T13:17:33.999Z</time></trkpt><trkpt lat="43.697462035891604" lon="12.674759835950177"><ele>175.66666666666666</ele><time>2026-04-27T13:17:34.999Z</time></trkpt><trkpt lat="43.69749256994126" lon="12.674550110122514"><ele>176.0</ele><time>2026-04-27T13:17:35.999Z</time></trkpt><trkpt lat="43.69750983914966" lon="12.674335921360962"><ele>176.0</ele><time>2026-04-27T13:17:36.999Z</time></trkpt><trkpt lat="43.6975168370524" lon="12.674124382678924"><ele>176.0</ele><time>2026-04-27T13:17:37.999Z</time></trkpt><trkpt lat="43.69751902596128" lon="12.6739162804471"><ele>176.0</ele><time>2026-04-27T13:17:38.999Z</time></trkpt><trkpt lat="43.69751074818707" lon="12.67371243310451"><ele>179.75</ele><time>2026-04-27T13:17:39.999Z</time></trkpt><trkpt lat="43.69748156587451" lon="12.67352373819238"><ele>183.5</ele><time>2026-04-27T13:17:40.999Z</time></trkpt><trkpt lat="43.69743691313092" lon="12.673344397438498"><ele>187.25</ele><time>2026-04-27T13:17:41.999Z</time></trkpt><trkpt lat="43.697372632707044" lon="12.673175571909164"><ele>191.0</ele><time>2026-04-27T13:17:42.999Z</time></trkpt><trkpt lat="43.697287817349526" lon="12.673002645553845"><ele>191.0</ele><time>2026-04-27T13:17:43.999Z</time></trkpt><trkpt lat="43.69718944787214" lon="12.672825166998484"><ele>191.0</ele><time>2026-04-27T13:17:44.999Z</time></trkpt><trkpt lat="43.69709337248826" lon="12.67264645475615"><ele>191.0</ele><time>2026-04-27T13:17:45.999Z</time></trkpt><trkpt lat="43.69699755295157" lon="12.67247583852626"><ele>185.66666666666666</ele><time>2026-04-27T13:17:46.999Z</time></trkpt><trkpt lat="43.696901803315036" lon="12.672307662425586"><ele>180.33333333333334</ele><time>2026-04-27T13:17:47.999Z</time></trkpt><trkpt lat="43.69680646595028" lon="12.672144881248748"><ele>175.0</ele><time>2026-04-27T13:17:48.999Z</time></trkpt><trkpt lat="43.69670676490964" lon="12.67198919487394"><ele>176.66666666666669</ele><time>2026-04-27T13:17:49.999Z</time></trkpt><trkpt lat="43.696596647628944" lon="12.671846476871607"><ele>178.33333333333334</ele><time>2026-04-27T13:17:50.999Z</time></trkpt><trkpt lat="43.696482702625616" lon="12.67170895531387"><ele>180.0</ele><time>2026-04-27T13:17:51.999Z</time></trkpt><trkpt lat="43.69636522379184" lon="12.67156743204798"><ele>180.0</ele><time>2026-04-27T13:17:52.999Z</time></trkpt><trkpt lat="43.69624388084979" lon="12.671421149345122"><ele>180.0</ele><time>2026-04-27T13:17:53.999Z</time></trkpt><trkpt lat="43.696125724390384" lon="12.671274372955082"><ele>180.0</ele><time>2026-04-27T13:17:54.999Z</time></trkpt><trkpt lat="43.696007811300944" lon="12.671132039294209"><ele>178.5</ele><time>2026-04-27T13:17:55.999Z</time></trkpt><trkpt lat="43.695893608474904" lon="12.670993554345962"><ele>177.0</ele><time>2026-04-27T13:17:56.999Z</time></trkpt><trkpt lat="43.69578453509989" lon="12.670863688204665"><ele>175.5</ele><time>2026-04-27T13:17:57.999Z</time></trkpt><trkpt lat="43.69567871757305" lon="12.6707377915964"><ele>174.0</ele><time>2026-04-27T13:17:58.999Z</time></trkpt><trkpt lat="43.695576626685" lon="12.670615529451583"><ele>174.0</ele><time>2026-04-27T13:17:59.999Z</time></trkpt><trkpt lat="43.695479341966454" lon="12.670498107659492"><ele>174.0</ele><time>2026-04-27T13:18:00.999Z</time></trkpt><trkpt lat="43.695389131349266" lon="12.670385587103388"><ele>174.0</ele><time>2026-04-27T13:18:01.999Z</time></trkpt><trkpt lat="43.69531959053024" lon="12.670269561507995"><ele>174.0</ele><time>2026-04-27T13:18:02.999Z</time></trkpt><trkpt lat="43.695250921492644" lon="12.67016528980615"><ele>174.25</ele><time>2026-04-27T13:18:03.999Z</time></trkpt><trkpt lat="43.695188269552084" lon="12.670052228282831"><ele>174.5</ele><time>2026-04-27T13:18:04.999Z</time></trkpt><trkpt lat="43.69517796416949" lon="12.669904166103118"><ele>174.75</ele><time>2026-04-27T13:18:05.999Z</time></trkpt><trkpt lat="43.69517598360571" lon="12.669741981661566"><ele>175.0</ele><time>2026-04-27T13:18:06.999Z</time></trkpt><trkpt lat="43.69521463955256" lon="12.66956562246641"><ele>175.25</ele><time>2026-04-27T13:18:08Z</time></trkpt><trkpt lat="43.69526056001762" lon="12.669375237068927"><ele>175.5</ele><time>2026-04-27T13:18:09Z</time></trkpt><trkpt lat="43.69530529100311" lon="12.669181537016517"><ele>175.75</ele><time>2026-04-27T13:18:10Z</time></trkpt><trkpt lat="43.695345378296764" lon="12.668997653650312"><ele>176.0</ele><time>2026-04-27T13:18:11Z</time></trkpt><trkpt lat="43.69539119171507" lon="12.66882061015227"><ele>176.0</ele><time>2026-04-27T13:18:12Z</time></trkpt><trkpt lat="43.69545404876136" lon="12.668650082669306"><ele>176.0</ele><time>2026-04-27T13:18:13Z</time></trkpt><trkpt lat="43.695531070947936" lon="12.668487476381609"><ele>176.0</ele><time>2026-04-27T13:18:14Z</time></trkpt><trkpt lat="43.6956225809394" lon="12.668322966503679"><ele>176.0</ele><time>2026-04-27T13:18:15Z</time></trkpt><trkpt lat="43.695724412558754" lon="12.668156656783301"><ele>178.0</ele><time>2026-04-27T13:18:16Z</time></trkpt><trkpt lat="43.695826806084064" lon="12.667992101506588"><ele>180.0</ele><time>2026-04-27T13:18:17Z</time></trkpt><trkpt lat="43.69592955928133" lon="12.667830986322901"><ele>182.0</ele><time>2026-04-27T13:18:18Z</time></trkpt><trkpt lat="43.69603492971034" lon="12.667679450726316"><ele>182.75</ele><time>2026-04-27T13:18:19Z</time></trkpt><trkpt lat="43.69613928431553" lon="12.667536559480226"><ele>183.5</ele><time>2026-04-27T13:18:20Z</time></trkpt><trkpt lat="43.696244743340074" lon="12.66740241964601"><ele>184.25</ele><time>2026-04-27T13:18:21Z</time></trkpt><trkpt lat="43.69634831524506" lon="12.667273322947072"><ele>185.0</ele><time>2026-04-27T13:18:22Z</time></trkpt><trkpt lat="43.69645080587022" lon="12.667148832581764"><ele>185.0</ele><time>2026-04-27T13:18:23Z</time></trkpt><trkpt lat="43.69655378208895" lon="12.667024764320416"><ele>185.0</ele><time>2026-04-27T13:18:24Z</time></trkpt><trkpt lat="43.69665807990248" lon="12.666901983785117"><ele>185.0</ele><time>2026-04-27T13:18:25Z</time></trkpt><trkpt lat="43.696761746119904" lon="12.66677893932411"><ele>185.0</ele><time>2026-04-27T13:18:26Z</time></trkpt><trkpt lat="43.69686549067086" lon="12.66665010845722"><ele>185.5</ele><time>2026-04-27T13:18:27Z</time></trkpt><trkpt lat="43.696971567895204" lon="12.66652102198335"><ele>186.0</ele><time>2026-04-27T13:18:28Z</time></trkpt><trkpt lat="43.69707488118736" lon="12.666396265195896"><ele>186.5</ele><time>2026-04-27T13:18:29Z</time></trkpt><trkpt lat="43.697176700030894" lon="12.666271897420765"><ele>187.0</ele><time>2026-04-27T13:18:30Z</time></trkpt><trkpt lat="43.697278919883665" lon="12.666149224012305"><ele>187.25</ele><time>2026-04-27T13:18:31Z</time></trkpt><trkpt lat="43.69737930054755" lon="12.666029041659305"><ele>187.5</ele><time>2026-04-27T13:18:32Z</time></trkpt><trkpt lat="43.69747684018769" lon="12.665910020685835"><ele>187.75</ele><time>2026-04-27T13:18:33Z</time></trkpt><trkpt lat="43.697577180412615" lon="12.665793426921004"><ele>188.0</ele><time>2026-04-27T13:18:34Z</time></trkpt><trkpt lat="43.69767590400639" lon="12.66567158929658"><ele>188.0</ele><time>2026-04-27T13:18:35Z</time></trkpt><trkpt lat="43.69777315322577" lon="12.665547102011574"><ele>188.0</ele><time>2026-04-27T13:18:36Z</time></trkpt><trkpt lat="43.697874051644526" lon="12.665424454473897"><ele>188.0</ele><time>2026-04-27T13:18:37Z</time></trkpt><trkpt lat="43.69797672543393" lon="12.665303511205348"><ele>188.0</ele><time>2026-04-27T13:18:38Z</time></trkpt><trkpt lat="43.69807901093021" lon="12.665183450993778"><ele>188.0</ele><time>2026-04-27T13:18:39Z</time></trkpt><trkpt lat="43.698182915756156" lon="12.665061714396675"><ele>188.0</ele><time>2026-04-27T13:18:40Z</time></trkpt><trkpt lat="43.69828473300187" lon="12.66493645794455"><ele>188.0</ele><time>2026-04-27T13:18:41Z</time></trkpt><trkpt lat="43.698385238106916" lon="12.664812804637428"><ele>188.0</ele><time>2026-04-27T13:18:42Z</time></trkpt><trkpt lat="43.69848735198687" lon="12.664689878046278"><ele>188.0</ele><time>2026-04-27T13:18:43Z</time></trkpt><trkpt lat="43.69859130993915" lon="12.664566371942744"><ele>188.0</ele><time>2026-04-27T13:18:44Z</time></trkpt><trkpt lat="43.69869750057004" lon="12.664437031736528"><ele>188.0</ele><time>2026-04-27T13:18:45Z</time></trkpt><trkpt lat="43.698802213052225" lon="12.66430950945496"><ele>188.0</ele><time>2026-04-27T13:18:46Z</time></trkpt><trkpt lat="43.698908137354174" lon="12.66417925104791"><ele>189.0</ele><time>2026-04-27T13:18:47Z</time></trkpt><trkpt lat="43.699012756530294" lon="12.664054091040466"><ele>190.0</ele><time>2026-04-27T13:18:48Z</time></trkpt><trkpt lat="43.69911400863912" lon="12.663939644114272"><ele>191.0</ele><time>2026-04-27T13:18:49Z</time></trkpt><trkpt lat="43.69921020894149" lon="12.663836804495782"><ele>192.0</ele><time>2026-04-27T13:18:50Z</time></trkpt><trkpt lat="43.69929980686249" lon="12.663747332775532"><ele>192.0</ele><time>2026-04-27T13:18:51Z</time></trkpt><trkpt lat="43.699384325589286" lon="12.663669781312382"><ele>192.0</ele><time>2026-04-27T13:18:52Z</time></trkpt><trkpt lat="43.69946596244361" lon="12.663608819127612"><ele>192.0</ele><time>2026-04-27T13:18:53Z</time></trkpt><trkpt lat="43.69954607223892" lon="12.6635725629798"><ele>192.0</ele><time>2026-04-27T13:18:54Z</time></trkpt><trkpt lat="43.69962514749844" lon="12.663567058623016"><ele>192.0</ele><time>2026-04-27T13:18:55Z</time></trkpt><trkpt lat="43.69971199788232" lon="12.66359114556485"><ele>192.0</ele><time>2026-04-27T13:18:56Z</time></trkpt><trkpt lat="43.69980286935589" lon="12.66361940704388"><ele>191.6</ele><time>2026-04-27T13:18:56.999Z</time></trkpt><trkpt lat="43.69988896225153" lon="12.663626811448133"><ele>191.2</ele><time>2026-04-27T13:18:57.999Z</time></trkpt><trkpt lat="43.69997220341999" lon="12.663593611395973"><ele>190.8</ele><time>2026-04-27T13:18:58.999Z</time></trkpt><trkpt lat="43.70004994143401" lon="12.663518722744378"><ele>190.4</ele><time>2026-04-27T13:18:59.999Z</time></trkpt><trkpt lat="43.70011978375808" lon="12.663415350096582"><ele>190.0</ele><time>2026-04-27T13:19:00.999Z</time></trkpt><trkpt lat="43.70019197398565" lon="12.663305130500156"><ele>191.4</ele><time>2026-04-27T13:19:01.999Z</time></trkpt><trkpt lat="43.70027178169273" lon="12.663216662614854"><ele>192.8</ele><time>2026-04-27T13:19:02.999Z</time></trkpt><trkpt lat="43.70036620126116" lon="12.663170018944077"><ele>194.2</ele><time>2026-04-27T13:19:03.999Z</time></trkpt><trkpt lat="43.70047213846858" lon="12.663162502946879"><ele>195.6</ele><time>2026-04-27T13:19:04.999Z</time></trkpt><trkpt lat="43.70057620135884" lon="12.663197220246524"><ele>197.0</ele><time>2026-04-27T13:19:05.999Z</time></trkpt><trkpt lat="43.70069134394942" lon="12.66326501004792"><ele>197.0</ele><time>2026-04-27T13:19:06.999Z</time></trkpt><trkpt lat="43.70080457971006" lon="12.663367198005941"><ele>197.0</ele><time>2026-04-27T13:19:07.999Z</time></trkpt><trkpt lat="43.70092747656311" lon="12.663486292759266"><ele>197.0</ele><time>2026-04-27T13:19:08.999Z</time></trkpt><trkpt lat="43.70106014207831" lon="12.663602735860431"><ele>197.0</ele><time>2026-04-27T13:19:09.999Z</time></trkpt><trkpt lat="43.70119460056465" lon="12.663701092715046"><ele>196.25</ele><time>2026-04-27T13:19:10.999Z</time></trkpt><trkpt lat="43.70132875890841" lon="12.663775109291196"><ele>195.5</ele><time>2026-04-27T13:19:11.999Z</time></trkpt><trkpt lat="43.70146159014402" lon="12.663826864101756"><ele>194.75</ele><time>2026-04-27T13:19:12.999Z</time></trkpt><trkpt lat="43.70160305604217" lon="12.663854500746872"><ele>194.0</ele><time>2026-04-27T13:19:13.999Z</time></trkpt><trkpt lat="43.70174754554362" lon="12.66386787112486"><ele>194.0</ele><time>2026-04-27T13:19:14.999Z</time></trkpt><trkpt lat="43.70189201195482" lon="12.663875944348877"><ele>194.0</ele><time>2026-04-27T13:19:15.999Z</time></trkpt><trkpt lat="43.702034880504684" lon="12.663870806502533"><ele>194.0</ele><time>2026-04-27T13:19:16.999Z</time></trkpt><trkpt lat="43.70216401735254" lon="12.663845466410097"><ele>194.0</ele><time>2026-04-27T13:19:17.999Z</time></trkpt><trkpt lat="43.70228093989038" lon="12.663785376124297"><ele>194.0</ele><time>2026-04-27T13:19:18.999Z</time></trkpt><trkpt lat="43.70240465792779" lon="12.66369000807528"><ele>194.0</ele><time>2026-04-27T13:19:19.999Z</time></trkpt><trkpt lat="43.70252605211273" lon="12.663568307288054"><ele>194.0</ele><time>2026-04-27T13:19:20.999Z</time></trkpt><trkpt lat="43.70264781212125" lon="12.663430229617047"><ele>194.0</ele><time>2026-04-27T13:19:21.999Z</time></trkpt><trkpt lat="43.702778297960286" lon="12.663291067061492"><ele>198.66666666666669</ele><time>2026-04-27T13:19:22.999Z</time></trkpt><trkpt lat="43.702913125001324" lon="12.663152489768384"><ele>203.33333333333331</ele><time>2026-04-27T13:19:23.999Z</time></trkpt><trkpt lat="43.70304932749431" lon="12.66301488705722"><ele>208.0</ele><time>2026-04-27T13:19:24.999Z</time></trkpt><trkpt lat="43.70318844061379" lon="12.662882846531451"><ele>209.25</ele><time>2026-04-27T13:19:25.999Z</time></trkpt><trkpt lat="43.70332553809854" lon="12.66276832489837"><ele>210.5</ele><time>2026-04-27T13:19:26.999Z</time></trkpt><trkpt lat="43.70345155976803" lon="12.66266919291089"><ele>211.75</ele><time>2026-04-27T13:19:27.999Z</time></trkpt><trkpt lat="43.703571821940166" lon="12.662577281003747"><ele>213.0</ele><time>2026-04-27T13:19:28.999Z</time></trkpt><trkpt lat="43.70369232568428" lon="12.662482813735084"><ele>213.0</ele><time>2026-04-27T13:19:29.999Z</time></trkpt><trkpt lat="43.70380553025229" lon="12.662378943880466"><ele>213.0</ele><time>2026-04-27T13:19:30.999Z</time></trkpt><trkpt lat="43.703909221732395" lon="12.662253073333057"><ele>213.0</ele><time>2026-04-27T13:19:31.999Z</time></trkpt><trkpt lat="43.70399927009647" lon="12.662099842395206"><ele>213.0</ele><time>2026-04-27T13:19:32.999Z</time></trkpt><trkpt lat="43.7040750382916" lon="12.661924752064674"><ele>212.66666666666669</ele><time>2026-04-27T13:19:33.999Z</time></trkpt><trkpt lat="43.70413403867594" lon="12.661734269257867"><ele>212.33333333333334</ele><time>2026-04-27T13:19:34.999Z</time></trkpt><trkpt lat="43.7041692700116" lon="12.661533040627452"><ele>212.0</ele><time>2026-04-27T13:19:35.999Z</time></trkpt><trkpt lat="43.70419080316688" lon="12.661325979281033"><ele>211.0</ele><time>2026-04-27T13:19:36.999Z</time></trkpt><trkpt lat="43.70421634963695" lon="12.661112616739711"><ele>210.0</ele><time>2026-04-27T13:19:37.999Z</time></trkpt><trkpt lat="43.70425144738532" lon="12.66089493522167"><ele>209.0</ele><time>2026-04-27T13:19:38.999Z</time></trkpt><trkpt lat="43.70428680712252" lon="12.660674551703709"><ele>209.0</ele><time>2026-04-27T13:19:39.999Z</time></trkpt><trkpt lat="43.70432893166761" lon="12.660457610876247"><ele>209.0</ele><time>2026-04-27T13:19:40.999Z</time></trkpt><trkpt lat="43.70439233407589" lon="12.660245189879067"><ele>209.0</ele><time>2026-04-27T13:19:41.999Z</time></trkpt><trkpt lat="43.70448341852232" lon="12.660032838813066"><ele>207.66666666666669</ele><time>2026-04-27T13:19:42.999Z</time></trkpt><trkpt lat="43.70459996471997" lon="12.659825299626004"><ele>206.33333333333331</ele><time>2026-04-27T13:19:43.999Z</time></trkpt><trkpt lat="43.704732838431354" lon="12.659608649585225"><ele>205.0</ele><time>2026-04-27T13:19:44.999Z</time></trkpt><trkpt lat="43.70487469866119" lon="12.659371608296624"><ele>205.0</ele><time>2026-04-27T13:19:45.999Z</time></trkpt><trkpt lat="43.70502061463598" lon="12.659119774954016"><ele>205.0</ele><time>2026-04-27T13:19:46.999Z</time></trkpt><trkpt lat="43.70516935237045" lon="12.658859500559098"><ele>207.5</ele><time>2026-04-27T13:19:47.999Z</time></trkpt><trkpt lat="43.705317933098996" lon="12.658596710172887"><ele>210.0</ele><time>2026-04-27T13:19:48.999Z</time></trkpt><trkpt lat="43.70546630570011" lon="12.65833315097901"><ele>210.0</ele><time>2026-04-27T13:19:49.999Z</time></trkpt><trkpt lat="43.70560959254005" lon="12.658073566209175"><ele>210.0</ele><time>2026-04-27T13:19:50.999Z</time></trkpt><trkpt lat="43.70574112642425" lon="12.657824129872111"><ele>208.33333333333331</ele><time>2026-04-27T13:19:51.999Z</time></trkpt><trkpt lat="43.705862990789626" lon="12.657583211692053"><ele>206.66666666666666</ele><time>2026-04-27T13:19:52.999Z</time></trkpt><trkpt lat="43.70597174664169" lon="12.657351030118843"><ele>205.0</ele><time>2026-04-27T13:19:53.999Z</time></trkpt><trkpt lat="43.70606975924571" lon="12.657129934777366"><ele>206.66666666666666</ele><time>2026-04-27T13:19:54.999Z</time></trkpt><trkpt lat="43.70615866259892" lon="12.656915317886288"><ele>208.33333333333331</ele><time>2026-04-27T13:19:55.999Z</time></trkpt><trkpt lat="43.70624208016002" lon="12.656699756571173"><ele>210.0</ele><time>2026-04-27T13:19:56.999Z</time></trkpt><trkpt lat="43.70631826904781" lon="12.65648511763404"><ele>210.0</ele><time>2026-04-27T13:19:57.999Z</time></trkpt><trkpt lat="43.706387030079696" lon="12.656272946347494"><ele>210.0</ele><time>2026-04-27T13:19:58.999Z</time></trkpt><trkpt lat="43.70644138563678" lon="12.656074124936191"><ele>210.0</ele><time>2026-04-27T13:19:59.999Z</time></trkpt><trkpt lat="43.70648877310715" lon="12.655884890019612"><ele>209.25</ele><time>2026-04-27T13:20:00.999Z</time></trkpt><trkpt lat="43.706528541537146" lon="12.655708533388891"><ele>208.5</ele><time>2026-04-27T13:20:01.999Z</time></trkpt><trkpt lat="43.70656425301416" lon="12.65554089367052"><ele>207.75</ele><time>2026-04-27T13:20:02.999Z</time></trkpt><trkpt lat="43.70659662929451" lon="12.655376851445931"><ele>207.0</ele><time>2026-04-27T13:20:03.999Z</time></trkpt><trkpt lat="43.70662686932092" lon="12.6552038478439"><ele>205.75</ele><time>2026-04-27T13:20:04.999Z</time></trkpt><trkpt lat="43.70665036808906" lon="12.655040309623342"><ele>204.5</ele><time>2026-04-27T13:20:05.999Z</time></trkpt><trkpt lat="43.70666950520752" lon="12.654888692611719"><ele>203.25</ele><time>2026-04-27T13:20:06.999Z</time></trkpt><trkpt lat="43.70668805498723" lon="12.654732845325217"><ele>202.0</ele><time>2026-04-27T13:20:07.999Z</time></trkpt><trkpt lat="43.70670133882903" lon="12.654588828605062"><ele>202.8</ele><time>2026-04-27T13:20:08.999Z</time></trkpt><trkpt lat="43.70671367422106" lon="12.654437233446613"><ele>203.6</ele><time>2026-04-27T13:20:09.999Z</time></trkpt><trkpt lat="43.706722944217404" lon="12.654285990777206"><ele>204.4</ele><time>2026-04-27T13:20:10.999Z</time></trkpt><trkpt lat="43.706729957747974" lon="12.65413512473447"><ele>205.20000000000002</ele><time>2026-04-27T13:20:11.999Z</time></trkpt><trkpt lat="43.70673559041248" lon="12.653986592161877"><ele>206.0</ele><time>2026-04-27T13:20:12.999Z</time></trkpt><trkpt lat="43.70673679951649" lon="12.653836541867422"><ele>206.0</ele><time>2026-04-27T13:20:14Z</time></trkpt><trkpt lat="43.70673537415436" lon="12.653692082317443"><ele>206.0</ele><time>2026-04-27T13:20:15Z</time></trkpt><trkpt lat="43.70672606384542" lon="12.653550277666914"><ele>206.0</ele><time>2026-04-27T13:20:16Z</time></trkpt><trkpt lat="43.70671799731193" lon="12.653404335654873"><ele>206.0</ele><time>2026-04-27T13:20:17Z</time></trkpt><trkpt lat="43.70671532239475" lon="12.653251343733924"><ele>206.0</ele><time>2026-04-27T13:20:18Z</time></trkpt><trkpt lat="43.70670016470768" lon="12.653077809358946"><ele>206.33333333333334</ele><time>2026-04-27T13:20:19Z</time></trkpt><trkpt lat="43.706683633908945" lon="12.652892603034621"><ele>206.66666666666669</ele><time>2026-04-27T13:20:20Z</time></trkpt><trkpt lat="43.70664998199408" lon="12.652700420878743"><ele>207.0</ele><time>2026-04-27T13:20:21Z</time></trkpt><trkpt lat="43.70661969999093" lon="12.652450084531042"><ele>207.66666666666669</ele><time>2026-04-27T13:20:22Z</time></trkpt><trkpt lat="43.706585440809135" lon="12.652172168726707"><ele>208.33333333333334</ele><time>2026-04-27T13:20:23Z</time></trkpt><trkpt lat="43.706542961401446" lon="12.651881437975574"><ele>209.0</ele><time>2026-04-27T13:20:24Z</time></trkpt><trkpt lat="43.70648671610252" lon="12.651589202605768"><ele>210.33333333333334</ele><time>2026-04-27T13:20:25Z</time></trkpt><trkpt lat="43.70642192677417" lon="12.651307680949898"><ele>211.66666666666669</ele><time>2026-04-27T13:20:26Z</time></trkpt><trkpt lat="43.70635978747171" lon="12.65102785403885"><ele>213.0</ele><time>2026-04-27T13:20:27Z</time></trkpt><trkpt lat="43.70629440371313" lon="12.650751810779802"><ele>214.0</ele><time>2026-04-27T13:20:28Z</time></trkpt><trkpt lat="43.706234466024405" lon="12.650475041571557"><ele>215.0</ele><time>2026-04-27T13:20:29Z</time></trkpt><trkpt lat="43.706173009187644" lon="12.650200727126851"><ele>216.0</ele><time>2026-04-27T13:20:30Z</time></trkpt><trkpt lat="43.70611064836993" lon="12.649920061223542"><ele>215.66666666666669</ele><time>2026-04-27T13:20:31Z</time></trkpt><trkpt lat="43.70604603700735" lon="12.649624444330188"><ele>215.33333333333334</ele><time>2026-04-27T13:20:32Z</time></trkpt><trkpt lat="43.70598545917249" lon="12.649329342171889"><ele>215.0</ele><time>2026-04-27T13:20:33Z</time></trkpt><trkpt lat="43.70592441166628" lon="12.649048803353937"><ele>215.0</ele><time>2026-04-27T13:20:34Z</time></trkpt><trkpt lat="43.70586609993368" lon="12.648777116252063"><ele>215.0</ele><time>2026-04-27T13:20:35Z</time></trkpt><trkpt lat="43.70580326760588" lon="12.648511998565242"><ele>215.0</ele><time>2026-04-27T13:20:36Z</time></trkpt><trkpt lat="43.70574698869164" lon="12.648255055266349"><ele>215.0</ele><time>2026-04-27T13:20:37Z</time></trkpt><trkpt lat="43.70569311758817" lon="12.648001642423424"><ele>215.0</ele><time>2026-04-27T13:20:37.999Z</time></trkpt><trkpt lat="43.70564292592866" lon="12.647742444806752"><ele>215.0</ele><time>2026-04-27T13:20:38.999Z</time></trkpt><trkpt lat="43.70559674270672" lon="12.647484222832075"><ele>217.33333333333334</ele><time>2026-04-27T13:20:39.999Z</time></trkpt><trkpt lat="43.70555512037535" lon="12.647210045261687"><ele>219.66666666666669</ele><time>2026-04-27T13:20:40.999Z</time></trkpt><trkpt lat="43.70552434662083" lon="12.646923700595435"><ele>222.0</ele><time>2026-04-27T13:20:41.999Z</time></trkpt><trkpt lat="43.70552387163779" lon="12.646628088936692"><ele>224.66666666666669</ele><time>2026-04-27T13:20:42.999Z</time></trkpt><trkpt lat="43.70551965163191" lon="12.646343790564975"><ele>227.33333333333334</ele><time>2026-04-27T13:20:43.999Z</time></trkpt><trkpt lat="43.70552425159683" lon="12.646060028409849"><ele>230.0</ele><time>2026-04-27T13:20:44.999Z</time></trkpt><trkpt lat="43.70553536098218" lon="12.645795666778284"><ele>230.0</ele><time>2026-04-27T13:20:45.999Z</time></trkpt><trkpt lat="43.70556143852624" lon="12.645542661329387"><ele>230.0</ele><time>2026-04-27T13:20:46.999Z</time></trkpt><trkpt lat="43.70559068950121" lon="12.645303508835871"><ele>230.0</ele><time>2026-04-27T13:20:47.999Z</time></trkpt><trkpt lat="43.705629184146005" lon="12.645060014396375"><ele>230.66666666666669</ele><time>2026-04-27T13:20:48.999Z</time></trkpt><trkpt lat="43.705680099366965" lon="12.64481461104443"><ele>231.33333333333331</ele><time>2026-04-27T13:20:49.999Z</time></trkpt><trkpt lat="43.705740724041846" lon="12.644562095307048"><ele>232.0</ele><time>2026-04-27T13:20:50.999Z</time></trkpt><trkpt lat="43.70581219548694" lon="12.644310314512769"><ele>232.66666666666666</ele><time>2026-04-27T13:20:51.999Z</time></trkpt><trkpt lat="43.70589313803307" lon="12.644064448235873"><ele>233.33333333333331</ele><time>2026-04-27T13:20:52.999Z</time></trkpt><trkpt lat="43.70598312342208" lon="12.643820300193067"><ele>234.0</ele><time>2026-04-27T13:20:53.999Z</time></trkpt><trkpt lat="43.706083132936456" lon="12.643580052257464"><ele>230.33333333333331</ele><time>2026-04-27T13:20:54.999Z</time></trkpt><trkpt lat="43.706192181601075" lon="12.643345338762563"><ele>226.66666666666666</ele><time>2026-04-27T13:20:55.999Z</time></trkpt><trkpt lat="43.70630723652163" lon="12.64311981946484"><ele>223.0</ele><time>2026-04-27T13:20:56.999Z</time></trkpt><trkpt lat="43.70642904630358" lon="12.642893098931248"><ele>223.33333333333331</ele><time>2026-04-27T13:20:57.999Z</time></trkpt><trkpt lat="43.70655662487407" lon="12.64267783044467"><ele>223.66666666666669</ele><time>2026-04-27T13:20:58.999Z</time></trkpt><trkpt lat="43.70669266743863" lon="12.642470790200308"><ele>224.0</ele><time>2026-04-27T13:20:59.999Z</time></trkpt><trkpt lat="43.70682766864485" lon="12.64228189453983"><ele>228.0</ele><time>2026-04-27T13:21:00.999Z</time></trkpt><trkpt lat="43.706965972435725" lon="12.642104619742533"><ele>232.0</ele><time>2026-04-27T13:21:01.999Z</time></trkpt><trkpt lat="43.7071011098402" lon="12.641941319726401"><ele>236.0</ele><time>2026-04-27T13:21:02.999Z</time></trkpt><trkpt lat="43.70723687963027" lon="12.641791706795868"><ele>236.66666666666669</ele><time>2026-04-27T13:21:03.999Z</time></trkpt><trkpt lat="43.70737020770168" lon="12.641650353983653"><ele>237.33333333333331</ele><time>2026-04-27T13:21:04.999Z</time></trkpt><trkpt lat="43.70750513416592" lon="12.641516990087345"><ele>238.0</ele><time>2026-04-27T13:21:05.999Z</time></trkpt><trkpt lat="43.70764154503828" lon="12.641391648117043"><ele>247.33333333333331</ele><time>2026-04-27T13:21:06.999Z</time></trkpt><trkpt lat="43.707779971659924" lon="12.641273393647081"><ele>256.6666666666667</ele><time>2026-04-27T13:21:07.999Z</time></trkpt><trkpt lat="43.707918492160424" lon="12.641157633063228"><ele>266.0</ele><time>2026-04-27T13:21:08.999Z</time></trkpt><trkpt lat="43.70806002097829" lon="12.641044793152687"><ele>267.0</ele><time>2026-04-27T13:21:09.999Z</time></trkpt><trkpt lat="43.708206414666286" lon="12.640932368931345"><ele>268.0</ele><time>2026-04-27T13:21:10.999Z</time></trkpt><trkpt lat="43.70835571488183" lon="12.640827288796958"><ele>269.0</ele><time>2026-04-27T13:21:11.999Z</time></trkpt><trkpt lat="43.70850468167348" lon="12.64072622032255"><ele>277.6666666666667</ele><time>2026-04-27T13:21:12.999Z</time></trkpt><trkpt lat="43.70865167770677" lon="12.640627736010602"><ele>286.3333333333333</ele><time>2026-04-27T13:21:13.999Z</time></trkpt><trkpt lat="43.70880836415063" lon="12.640560829944455"><ele>295.0</ele><time>2026-04-27T13:21:14.999Z</time></trkpt><trkpt lat="43.708962619210745" lon="12.640477664747477"><ele>295.0</ele><time>2026-04-27T13:21:15.999Z</time></trkpt><trkpt lat="43.709118930173986" lon="12.640399587778415"><ele>295.0</ele><time>2026-04-27T13:21:16.999Z</time></trkpt><trkpt lat="43.70927093613097" lon="12.64033028444793"><ele>295.0</ele><time>2026-04-27T13:21:17.999Z</time></trkpt><trkpt lat="43.709418266282036" lon="12.640268402327854"><ele>296.66666666666663</ele><time>2026-04-27T13:21:18.999Z</time></trkpt><trkpt lat="43.70957178664151" lon="12.640208109563513"><ele>298.3333333333333</ele><time>2026-04-27T13:21:19.999Z</time></trkpt><trkpt lat="43.70972404670312" lon="12.640155455745923"><ele>300.0</ele><time>2026-04-27T13:21:20.999Z</time></trkpt><trkpt lat="43.70987449534395" lon="12.640106622779218"><ele>300.0</ele><time>2026-04-27T13:21:21.999Z</time></trkpt><trkpt lat="43.710025016907736" lon="12.64006358932899"><ele>300.0</ele><time>2026-04-27T13:21:22.999Z</time></trkpt><trkpt lat="43.710176138926855" lon="12.640025170018879"><ele>300.0</ele><time>2026-04-27T13:21:23.999Z</time></trkpt><trkpt lat="43.710591407884614" lon="12.63995121857124"><ele>300.6666666666667</ele><time>2026-04-27T13:21:24.999Z</time></trkpt><trkpt lat="43.71078769617425" lon="12.639917784699708"><ele>301.33333333333337</ele><time>2026-04-27T13:21:25.999Z</time></trkpt><trkpt lat="43.71098439925185" lon="12.639898938260167"><ele>302.0</ele><time>2026-04-27T13:21:26.999Z</time></trkpt><trkpt lat="43.71119075926153" lon="12.639880989020911"><ele>302.0</ele><time>2026-04-27T13:21:27.999Z</time></trkpt><trkpt lat="43.711401587880154" lon="12.639875179547222"><ele>302.0</ele><time>2026-04-27T13:21:28.999Z</time></trkpt><trkpt lat="43.711613755482134" lon="12.639901322766505"><ele>302.0</ele><time>2026-04-27T13:21:29.999Z</time></trkpt><trkpt lat="43.71181651331884" lon="12.639918530083762"><ele>302.33333333333337</ele><time>2026-04-27T13:21:30.999Z</time></trkpt><trkpt lat="43.712013454826376" lon="12.639941549813958"><ele>302.6666666666667</ele><time>2026-04-27T13:21:31.999Z</time></trkpt><trkpt lat="43.71220372861216" lon="12.639969352999687"><ele>303.0</ele><time>2026-04-27T13:21:32.999Z</time></trkpt><trkpt lat="43.71239280116696" lon="12.640000772289204"><ele>303.0</ele><time>2026-04-27T13:21:33.999Z</time></trkpt><trkpt lat="43.712576444242835" lon="12.640032196484658"><ele>303.0</ele><time>2026-04-27T13:21:34.999Z</time></trkpt><trkpt lat="43.712767114889076" lon="12.640066116218783"><ele>303.0</ele><time>2026-04-27T13:21:35.999Z</time></trkpt><trkpt lat="43.71295582602356" lon="12.640100633164483"><ele>299.6666666666667</ele><time>2026-04-27T13:21:36.999Z</time></trkpt><trkpt lat="43.713144110880116" lon="12.640135072093026"><ele>296.33333333333337</ele><time>2026-04-27T13:21:37.999Z</time></trkpt><trkpt lat="43.713329980971395" lon="12.640169069367348"><ele>293.0</ele><time>2026-04-27T13:21:38.999Z</time></trkpt><trkpt lat="43.71351753085635" lon="12.64020337388196"><ele>295.6666666666667</ele><time>2026-04-27T13:21:39.999Z</time></trkpt><trkpt lat="43.71370712950004" lon="12.640238053128524"><ele>298.3333333333333</ele><time>2026-04-27T13:21:40.999Z</time></trkpt><trkpt lat="43.71389269894399" lon="12.640271995389009"><ele>301.0</ele><time>2026-04-27T13:21:41.999Z</time></trkpt><trkpt lat="43.71407911162541" lon="12.640306091955381"><ele>304.3333333333333</ele><time>2026-04-27T13:21:42.999Z</time></trkpt><trkpt lat="43.71424609713388" lon="12.640336635009286"><ele>307.6666666666667</ele><time>2026-04-27T13:21:43.999Z</time></trkpt><trkpt lat="43.714434485331005" lon="12.64037109287766"><ele>311.0</ele><time>2026-04-27T13:21:44.999Z</time></trkpt><trkpt lat="43.714610394520406" lon="12.640403268648958"><ele>311.0</ele><time>2026-04-27T13:21:45.999Z</time></trkpt><trkpt lat="43.714785015804544" lon="12.640435210557971"><ele>311.0</ele><time>2026-04-27T13:21:46.999Z</time></trkpt><trkpt lat="43.71495473352697" lon="12.640466255502188"><ele>311.0</ele><time>2026-04-27T13:21:47.999Z</time></trkpt><trkpt lat="43.71513244413084" lon="12.640473306935448"><ele>307.33333333333337</ele><time>2026-04-27T13:21:48.999Z</time></trkpt><trkpt lat="43.71532396584879" lon="12.640512178448265"><ele>303.6666666666667</ele><time>2026-04-27T13:21:49.999Z</time></trkpt><trkpt lat="43.71545650504001" lon="12.64053147692729"><ele>300.0</ele><time>2026-04-27T13:21:51.02Z</time></trkpt><trkpt lat="43.71606671043034" lon="12.640803615810984"><ele>298.25</ele><time>2026-04-27T13:21:56.999Z</time></trkpt><trkpt lat="43.716236868514876" lon="12.640844260295031"><ele>296.5</ele><time>2026-04-27T13:21:57.999Z</time></trkpt><trkpt lat="43.716329137070865" lon="12.640723573020495"><ele>294.75</ele><time>2026-04-27T13:21:58.999Z</time></trkpt><trkpt lat="43.71645582921921" lon="12.640769211088273"><ele>293.0</ele><time>2026-04-27T13:21:59.999Z</time></trkpt><trkpt lat="43.71660565355563" lon="12.640786348299384"><ele>293.0</ele><time>2026-04-27T13:22:00.999Z</time></trkpt><trkpt lat="43.71674502321284" lon="12.640823319568584"><ele>293.0</ele><time>2026-04-27T13:22:01.999Z</time></trkpt><trkpt lat="43.71686360292185" lon="12.640855838118059"><ele>293.0</ele><time>2026-04-27T13:22:02.999Z</time></trkpt><trkpt lat="43.71699447620764" lon="12.640890923708834"><ele>293.0</ele><time>2026-04-27T13:22:03.999Z</time></trkpt><trkpt lat="43.71710748021275" lon="12.64091957389476"><ele>294.6666666666667</ele><time>2026-04-27T13:22:04.999Z</time></trkpt><trkpt lat="43.71720336909138" lon="12.640948988667256"><ele>296.33333333333337</ele><time>2026-04-27T13:22:05.999Z</time></trkpt><trkpt lat="43.717283003934085" lon="12.64098047558513"><ele>298.0</ele><time>2026-04-27T13:22:06.999Z</time></trkpt><trkpt lat="43.717347380242984" lon="12.641049780219674"><ele>299.6666666666667</ele><time>2026-04-27T13:22:07.999Z</time></trkpt><trkpt lat="43.71740378079192" lon="12.641126991717009"><ele>301.3333333333333</ele><time>2026-04-27T13:22:08.999Z</time></trkpt><trkpt lat="43.717452110707" lon="12.641206127575968"><ele>303.0</ele><time>2026-04-27T13:22:09.999Z</time></trkpt><trkpt lat="43.71750782873359" lon="12.641263419916136"><ele>303.8333333333333</ele><time>2026-04-27T13:22:10.999Z</time></trkpt><trkpt lat="43.71756801135965" lon="12.64129838304921"><ele>304.6666666666667</ele><time>2026-04-27T13:22:11.999Z</time></trkpt><trkpt lat="43.71764202538281" lon="12.641265336861766"><ele>305.5</ele><time>2026-04-27T13:22:12.999Z</time></trkpt><trkpt lat="43.717707863086396" lon="12.641198350476886"><ele>306.33333333333337</ele><time>2026-04-27T13:22:13.999Z</time></trkpt><trkpt lat="43.71775516423088" lon="12.641096135393882"><ele>307.1666666666667</ele><time>2026-04-27T13:22:14.999Z</time></trkpt><trkpt lat="43.71781819624071" lon="12.640987940091719"><ele>308.0</ele><time>2026-04-27T13:22:15.999Z</time></trkpt><trkpt lat="43.71790289075177" lon="12.640917023625443"><ele>310.5</ele><time>2026-04-27T13:22:16.999Z</time></trkpt><trkpt lat="43.71801401682396" lon="12.640861520699085"><ele>313.0</ele><time>2026-04-27T13:22:17.999Z</time></trkpt><trkpt lat="43.718130301020565" lon="12.640794128016815"><ele>315.5</ele><time>2026-04-27T13:22:18.999Z</time></trkpt><trkpt lat="43.718245055762765" lon="12.640724161132079"><ele>318.0</ele><time>2026-04-27T13:22:19.999Z</time></trkpt><trkpt lat="43.7183469515431" lon="12.6406508310328"><ele>318.0</ele><time>2026-04-27T13:22:20.999Z</time></trkpt><trkpt lat="43.718446516234124" lon="12.640577241841939"><ele>318.0</ele><time>2026-04-27T13:22:21.999Z</time></trkpt><trkpt lat="43.71855247874221" lon="12.640528800823363"><ele>318.0</ele><time>2026-04-27T13:22:22.999Z</time></trkpt><trkpt lat="43.71866667138308" lon="12.640508064561898"><ele>318.0</ele><time>2026-04-27T13:22:23.999Z</time></trkpt><trkpt lat="43.71878867910994" lon="12.64050386972361"><ele>319.75</ele><time>2026-04-27T13:22:24.999Z</time></trkpt><trkpt lat="43.71891251752342" lon="12.64049680185773"><ele>321.5</ele><time>2026-04-27T13:22:25.999Z</time></trkpt><trkpt lat="43.7190340931435" lon="12.640488172140095"><ele>323.25</ele><time>2026-04-27T13:22:26.999Z</time></trkpt><trkpt lat="43.719147983058804" lon="12.640478762237446"><ele>325.0</ele><time>2026-04-27T13:22:27.999Z</time></trkpt><trkpt lat="43.71926370749692" lon="12.640475925339258"><ele>325.0</ele><time>2026-04-27T13:22:28.999Z</time></trkpt><trkpt lat="43.719375563859316" lon="12.640470584660076"><ele>325.0</ele><time>2026-04-27T13:22:29.999Z</time></trkpt><trkpt lat="43.719495006285804" lon="12.640491300871847"><ele>325.0</ele><time>2026-04-27T13:22:30.999Z</time></trkpt><trkpt lat="43.71962064088191" lon="12.640539664351845"><ele>325.0</ele><time>2026-04-27T13:22:31.999Z</time></trkpt><trkpt lat="43.719744180913565" lon="12.640619780581522"><ele>324.75</ele><time>2026-04-27T13:22:32.999Z</time></trkpt><trkpt lat="43.71985862133025" lon="12.640726160103338"><ele>324.5</ele><time>2026-04-27T13:22:33.999Z</time></trkpt><trkpt lat="43.71995999192491" lon="12.640839741664225"><ele>324.25</ele><time>2026-04-27T13:22:34.999Z</time></trkpt><trkpt lat="43.72005376133694" lon="12.640951864778454"><ele>324.0</ele><time>2026-04-27T13:22:35.999Z</time></trkpt><trkpt lat="43.72014032661" lon="12.641066462385922"><ele>325.25</ele><time>2026-04-27T13:22:36.999Z</time></trkpt><trkpt lat="43.72021649583105" lon="12.641195905098975"><ele>326.5</ele><time>2026-04-27T13:22:37.999Z</time></trkpt><trkpt lat="43.720271051542355" lon="12.641343683811378"><ele>327.75</ele><time>2026-04-27T13:22:38.999Z</time></trkpt><trkpt lat="43.72030457742047" lon="12.64150428650599"><ele>329.0</ele><time>2026-04-27T13:22:39.999Z</time></trkpt><trkpt lat="43.7203241335109" lon="12.641663752040447"><ele>327.75</ele><time>2026-04-27T13:22:40.999Z</time></trkpt><trkpt lat="43.72035678530793" lon="12.64181698751227"><ele>326.5</ele><time>2026-04-27T13:22:41.999Z</time></trkpt><trkpt lat="43.720423619912104" lon="12.641963800994679"><ele>325.25</ele><time>2026-04-27T13:22:42.999Z</time></trkpt><trkpt lat="43.720510904952114" lon="12.64210855732378"><ele>324.0</ele><time>2026-04-27T13:22:43.999Z</time></trkpt><trkpt lat="43.720614208566026" lon="12.642245912849287"><ele>324.0</ele><time>2026-04-27T13:22:44.999Z</time></trkpt><trkpt lat="43.72071698868812" lon="12.642375783493298"><ele>324.0</ele><time>2026-04-27T13:22:45.999Z</time></trkpt><trkpt lat="43.720812702405276" lon="12.642504203951027"><ele>324.0</ele><time>2026-04-27T13:22:46.999Z</time></trkpt><trkpt lat="43.72091276180883" lon="12.642623832587784"><ele>324.0</ele><time>2026-04-27T13:22:47.999Z</time></trkpt><trkpt lat="43.72102077109677" lon="12.642722632807455"><ele>325.75</ele><time>2026-04-27T13:22:48.999Z</time></trkpt><trkpt lat="43.721134873591566" lon="12.642804601506784"><ele>327.5</ele><time>2026-04-27T13:22:49.999Z</time></trkpt><trkpt lat="43.72124679091025" lon="12.642882246854837"><ele>329.25</ele><time>2026-04-27T13:22:50.999Z</time></trkpt><trkpt lat="43.72135514796366" lon="12.642965932052265"><ele>331.0</ele><time>2026-04-27T13:22:51.999Z</time></trkpt><trkpt lat="43.721454320368814" lon="12.64306983949951"><ele>331.0</ele><time>2026-04-27T13:22:52.999Z</time></trkpt><trkpt lat="43.72152701801684" lon="12.643202167648601"><ele>331.0</ele><time>2026-04-27T13:22:53.999Z</time></trkpt><trkpt lat="43.72159298803803" lon="12.643346983353059"><ele>331.0</ele><time>2026-04-27T13:22:54.999Z</time></trkpt><trkpt lat="43.72165884536211" lon="12.643495309172426"><ele>331.0</ele><time>2026-04-27T13:22:55.999Z</time></trkpt><trkpt lat="43.72172880150996" lon="12.643633288251449"><ele>333.5</ele><time>2026-04-27T13:22:56.999Z</time></trkpt><trkpt lat="43.721814888460955" lon="12.643743895755465"><ele>336.0</ele><time>2026-04-27T13:22:57.999Z</time></trkpt><trkpt lat="43.72191595084665" lon="12.643824197086403"><ele>338.5</ele><time>2026-04-27T13:22:58.999Z</time></trkpt><trkpt lat="43.722026786801166" lon="12.643886220694737"><ele>341.0</ele><time>2026-04-27T13:22:59.999Z</time></trkpt><trkpt lat="43.72214071572256" lon="12.643952603494364"><ele>341.0</ele><time>2026-04-27T13:23:00.999Z</time></trkpt><trkpt lat="43.722252314462615" lon="12.644040042371554"><ele>341.0</ele><time>2026-04-27T13:23:01.999Z</time></trkpt><trkpt lat="43.72235941846797" lon="12.644143147262373"><ele>341.0</ele><time>2026-04-27T13:23:02.999Z</time></trkpt><trkpt lat="43.72245681605582" lon="12.644260426466472"><ele>341.0</ele><time>2026-04-27T13:23:03.999Z</time></trkpt><trkpt lat="43.72254874130224" lon="12.64438286940257"><ele>341.75</ele><time>2026-04-27T13:23:04.999Z</time></trkpt><trkpt lat="43.72264121913104" lon="12.644504528312414"><ele>342.5</ele><time>2026-04-27T13:23:05.999Z</time></trkpt><trkpt lat="43.72273773493543" lon="12.644627070981041"><ele>343.25</ele><time>2026-04-27T13:23:06.999Z</time></trkpt><trkpt lat="43.72283818000254" lon="12.644746068962787"><ele>344.0</ele><time>2026-04-27T13:23:07.999Z</time></trkpt><trkpt lat="43.722940432322865" lon="12.644860246233572"><ele>344.0</ele><time>2026-04-27T13:23:08.999Z</time></trkpt><trkpt lat="43.723044528099074" lon="12.644969940681817"><ele>344.0</ele><time>2026-04-27T13:23:09.999Z</time></trkpt><trkpt lat="43.72314690326177" lon="12.645074449239633"><ele>344.0</ele><time>2026-04-27T13:23:10.999Z</time></trkpt><trkpt lat="43.72324368499488" lon="12.64518526913077"><ele>344.0</ele><time>2026-04-27T13:23:11.999Z</time></trkpt><trkpt lat="43.723332878677276" lon="12.645310712943834"><ele>345.25</ele><time>2026-04-27T13:23:12.999Z</time></trkpt><trkpt lat="43.72340639858452" lon="12.645455805116834"><ele>346.5</ele><time>2026-04-27T13:23:13.999Z</time></trkpt><trkpt lat="43.72346976356877" lon="12.645616652933755"><ele>347.75</ele><time>2026-04-27T13:23:14.999Z</time></trkpt><trkpt lat="43.723528249566634" lon="12.645787643979828"><ele>349.0</ele><time>2026-04-27T13:23:15.999Z</time></trkpt><trkpt lat="43.72357981951405" lon="12.64595514227352"><ele>349.0</ele><time>2026-04-27T13:23:17Z</time></trkpt><trkpt lat="43.723627169481986" lon="12.64610729248719"><ele>349.0</ele><time>2026-04-27T13:23:18Z</time></trkpt><trkpt lat="43.72368744103893" lon="12.64624608811368"><ele>349.0</ele><time>2026-04-27T13:23:19Z</time></trkpt><trkpt lat="43.72376891218597" lon="12.646362822708534"><ele>349.0</ele><time>2026-04-27T13:23:20Z</time></trkpt><trkpt lat="43.723875651060524" lon="12.646453844407375"><ele>351.75</ele><time>2026-04-27T13:23:21Z</time></trkpt><trkpt lat="43.72399820875848" lon="12.646509738541441"><ele>354.5</ele><time>2026-04-27T13:23:22Z</time></trkpt><trkpt lat="43.72413316085099" lon="12.646535226333558"><ele>357.25</ele><time>2026-04-27T13:23:23Z</time></trkpt><trkpt lat="43.724274560580874" lon="12.646544974779118"><ele>360.0</ele><time>2026-04-27T13:23:24Z</time></trkpt><trkpt lat="43.72440766205515" lon="12.646534263124632"><ele>361.75</ele><time>2026-04-27T13:23:25Z</time></trkpt><trkpt lat="43.724524443271996" lon="12.646495206112993"><ele>363.5</ele><time>2026-04-27T13:23:26Z</time></trkpt><trkpt lat="43.72462688400139" lon="12.646420520366052"><ele>365.25</ele><time>2026-04-27T13:23:27Z</time></trkpt><trkpt lat="43.72470385882653" lon="12.646308956648733"><ele>367.0</ele><time>2026-04-27T13:23:28Z</time></trkpt><trkpt lat="43.72477467552491" lon="12.64615080073809"><ele>366.75</ele><time>2026-04-27T13:23:29Z</time></trkpt><trkpt lat="43.72484222276577" lon="12.64597292074389"><ele>366.5</ele><time>2026-04-27T13:23:30Z</time></trkpt><trkpt lat="43.72491171768513" lon="12.645783648815446"><ele>366.25</ele><time>2026-04-27T13:23:31Z</time></trkpt><trkpt lat="43.72498184354733" lon="12.645602454717812"><ele>366.0</ele><time>2026-04-27T13:23:32Z</time></trkpt><trkpt lat="43.72506236938861" lon="12.645438208552351"><ele>364.25</ele><time>2026-04-27T13:23:33Z</time></trkpt><trkpt lat="43.725155161144635" lon="12.645292688299582"><ele>362.5</ele><time>2026-04-27T13:23:34Z</time></trkpt><trkpt lat="43.725254565382606" lon="12.645163663453244"><ele>360.75</ele><time>2026-04-27T13:23:35Z</time></trkpt><trkpt lat="43.72534828795712" lon="12.645042943479412"><ele>359.0</ele><time>2026-04-27T13:23:36Z</time></trkpt><trkpt lat="43.72542510102791" lon="12.644919829549176"><ele>362.2</ele><time>2026-04-27T13:23:37Z</time></trkpt><trkpt lat="43.72548000835933" lon="12.644797989105548"><ele>365.4</ele><time>2026-04-27T13:23:38Z</time></trkpt><trkpt lat="43.72551610192816" lon="12.644670719332256"><ele>368.6</ele><time>2026-04-27T13:23:39Z</time></trkpt><trkpt lat="43.72553258128689" lon="12.644533392547528"><ele>371.8</ele><time>2026-04-27T13:23:40Z</time></trkpt><trkpt lat="43.72551721858953" lon="12.644399429369416"><ele>375.0</ele><time>2026-04-27T13:23:41Z</time></trkpt><trkpt lat="43.72547388299489" lon="12.644264615514775"><ele>375.5</ele><time>2026-04-27T13:23:42Z</time></trkpt><trkpt lat="43.72542936767263" lon="12.644136346433902"><ele>376.0</ele><time>2026-04-27T13:23:43Z</time></trkpt><trkpt lat="43.725337017197155" lon="12.643993540085088"><ele>376.5</ele><time>2026-04-27T13:23:44Z</time></trkpt><trkpt lat="43.725247404967114" lon="12.643860988764892"><ele>377.0</ele><time>2026-04-27T13:23:45Z</time></trkpt><trkpt lat="43.72516794316243" lon="12.64373921424849"><ele>376.25</ele><time>2026-04-27T13:23:46Z</time></trkpt><trkpt lat="43.72509144372172" lon="12.643618813601659"><ele>375.5</ele><time>2026-04-27T13:23:47Z</time></trkpt><trkpt lat="43.72502850798562" lon="12.64348272005262"><ele>374.75</ele><time>2026-04-27T13:23:48Z</time></trkpt><trkpt lat="43.72498561645907" lon="12.643341209804955"><ele>374.0</ele><time>2026-04-27T13:23:49Z</time></trkpt><trkpt lat="43.724954591876916" lon="12.643187559011249"><ele>374.0</ele><time>2026-04-27T13:23:50Z</time></trkpt><trkpt lat="43.724951349667684" lon="12.643039368815197"><ele>374.0</ele><time>2026-04-27T13:23:51Z</time></trkpt><trkpt lat="43.72497570817311" lon="12.642904493348624"><ele>374.0</ele><time>2026-04-27T13:23:52Z</time></trkpt><trkpt lat="43.72503241515805" lon="12.642777182967007"><ele>374.0</ele><time>2026-04-27T13:23:53Z</time></trkpt><trkpt lat="43.72509710879094" lon="12.642622132990395"><ele>374.0</ele><time>2026-04-27T13:23:54Z</time></trkpt><trkpt lat="43.72516443062565" lon="12.642467320408326"><ele>374.5</ele><time>2026-04-27T13:23:55Z</time></trkpt><trkpt lat="43.72522193021828" lon="12.642292498193385"><ele>375.0</ele><time>2026-04-27T13:23:56Z</time></trkpt><trkpt lat="43.72529526244694" lon="12.642137995842779"><ele>375.5</ele><time>2026-04-27T13:23:57Z</time></trkpt><trkpt lat="43.72536052113836" lon="12.641993710448547"><ele>376.0</ele><time>2026-04-27T13:23:58Z</time></trkpt><trkpt lat="43.72541929281038" lon="12.641856362841184"><ele>377.16666666666663</ele><time>2026-04-27T13:23:59Z</time></trkpt><trkpt lat="43.7254682585038" lon="12.641733102821533"><ele>378.3333333333333</ele><time>2026-04-27T13:24:00Z</time></trkpt><trkpt lat="43.725512281301754" lon="12.641628209407017"><ele>379.5</ele><time>2026-04-27T13:24:01Z</time></trkpt><trkpt lat="43.72555096888777" lon="12.64153998945996"><ele>380.6666666666667</ele><time>2026-04-27T13:24:02Z</time></trkpt><trkpt lat="43.72561779295411" lon="12.641459704409083"><ele>381.83333333333337</ele><time>2026-04-27T13:24:04Z</time></trkpt><trkpt lat="43.725680070759175" lon="12.641429754358045"><ele>383.0</ele><time>2026-04-27T13:24:11Z</time></trkpt><trkpt lat="43.72574693912959" lon="12.6414185997833"><ele>383.0</ele><time>2026-04-27T13:24:12Z</time></trkpt><trkpt lat="43.72582027209587" lon="12.641414145406406"><ele>383.0</ele><time>2026-04-27T13:24:13Z</time></trkpt><trkpt lat="43.72589037375766" lon="12.64139984344353"><ele>383.0</ele><time>2026-04-27T13:24:14Z</time></trkpt><trkpt lat="43.725951814189166" lon="12.641358001228127"><ele>383.0</ele><time>2026-04-27T13:24:15Z</time></trkpt><trkpt lat="43.72599953488226" lon="12.641281832706222"><ele>383.0</ele><time>2026-04-27T13:24:16Z</time></trkpt><trkpt lat="43.72601640355503" lon="12.641167823808056"><ele>383.0</ele><time>2026-04-27T13:24:17Z</time></trkpt><trkpt lat="43.726012501686796" lon="12.641074377241573"><ele>383.0</ele><time>2026-04-27T13:24:18Z</time></trkpt><trkpt lat="43.72599769375907" lon="12.640983118964567"><ele>382.4</ele><time>2026-04-27T13:24:19Z</time></trkpt><trkpt lat="43.726000912594486" lon="12.640883021578723"><ele>381.79999999999995</ele><time>2026-04-27T13:24:20Z</time></trkpt><trkpt lat="43.72604074816899" lon="12.640775426514539"><ele>381.2</ele><time>2026-04-27T13:24:21Z</time></trkpt><trkpt lat="43.72610694763918" lon="12.64067466213496"><ele>380.6</ele><time>2026-04-27T13:24:22Z</time></trkpt><trkpt lat="43.726189196667995" lon="12.640576442349639"><ele>380.0</ele><time>2026-04-27T13:24:23Z</time></trkpt><trkpt lat="43.72627349271291" lon="12.640473632947561"><ele>380.2</ele><time>2026-04-27T13:24:24Z</time></trkpt><trkpt lat="43.72636501824363" lon="12.640377181774278"><ele>380.4</ele><time>2026-04-27T13:24:25Z</time></trkpt><trkpt lat="43.72644237765593" lon="12.640296172095223"><ele>380.6</ele><time>2026-04-27T13:24:26Z</time></trkpt><trkpt lat="43.72650695613241" lon="12.640225011692303"><ele>380.8</ele><time>2026-04-27T13:24:27Z</time></trkpt><trkpt lat="43.72655872229741" lon="12.640135557236366"><ele>381.0</ele><time>2026-04-27T13:24:28Z</time></trkpt><trkpt lat="43.72660050525468" lon="12.640038227490644"><ele>381.0</ele><time>2026-04-27T13:24:29Z</time></trkpt><trkpt lat="43.726625974437525" lon="12.639938788689967"><ele>381.0</ele><time>2026-04-27T13:24:30Z</time></trkpt><trkpt lat="43.72665086440418" lon="12.639844799092259"><ele>381.0</ele><time>2026-04-27T13:24:31Z</time></trkpt><trkpt lat="43.72668854971257" lon="12.639739549739824"><ele>381.0</ele><time>2026-04-27T13:24:32Z</time></trkpt><trkpt lat="43.726737778400235" lon="12.639640845652949"><ele>381.0</ele><time>2026-04-27T13:24:33Z</time></trkpt><trkpt lat="43.726795745030465" lon="12.639541887342629"><ele>381.0</ele><time>2026-04-27T13:24:34Z</time></trkpt><trkpt lat="43.72686257425456" lon="12.639445873441833"><ele>382.0</ele><time>2026-04-27T13:24:35Z</time></trkpt><trkpt lat="43.72691737816405" lon="12.639332719868651"><ele>383.0</ele><time>2026-04-27T13:24:36Z</time></trkpt><trkpt lat="43.72701490180686" lon="12.63926885719691"><ele>384.0</ele><time>2026-04-27T13:24:37Z</time></trkpt><trkpt lat="43.72709738251891" lon="12.639188381849266"><ele>385.0</ele><time>2026-04-27T13:24:38Z</time></trkpt><trkpt lat="43.72717962800799" lon="12.639108004348426"><ele>386.0</ele><time>2026-04-27T13:24:39Z</time></trkpt><trkpt lat="43.72726023732661" lon="12.639032862303115"><ele>386.0</ele><time>2026-04-27T13:24:40Z</time></trkpt><trkpt lat="43.7273426362347" lon="12.638959924229688"><ele>386.0</ele><time>2026-04-27T13:24:41Z</time></trkpt><trkpt lat="43.727421675380164" lon="12.638888007623978"><ele>386.0</ele><time>2026-04-27T13:24:42Z</time></trkpt><trkpt lat="43.727500124194755" lon="12.6388194810442"><ele>386.0</ele><time>2026-04-27T13:24:43Z</time></trkpt><trkpt lat="43.727579227314585" lon="12.638749467620597"><ele>386.0</ele><time>2026-04-27T13:24:44Z</time></trkpt><trkpt lat="43.727667269371835" lon="12.638683735882845"><ele>387.75</ele><time>2026-04-27T13:24:45Z</time></trkpt><trkpt lat="43.727759504082485" lon="12.638615975611923"><ele>389.5</ele><time>2026-04-27T13:24:46Z</time></trkpt><trkpt lat="43.727865062352485" lon="12.638550024576949"><ele>391.25</ele><time>2026-04-27T13:24:47Z</time></trkpt><trkpt lat="43.72797264364325" lon="12.638492629414335"><ele>393.0</ele><time>2026-04-27T13:24:48Z</time></trkpt><trkpt lat="43.72808716014917" lon="12.638427245792743"><ele>393.0</ele><time>2026-04-27T13:24:49Z</time></trkpt><trkpt lat="43.72820462567896" lon="12.638359233269945"><ele>393.0</ele><time>2026-04-27T13:24:50Z</time></trkpt><trkpt lat="43.728331281257624" lon="12.638299334032414"><ele>393.0</ele><time>2026-04-27T13:24:51Z</time></trkpt><trkpt lat="43.728456750614654" lon="12.638222625087467"><ele>393.0</ele><time>2026-04-27T13:24:52Z</time></trkpt><trkpt lat="43.728580278611346" lon="12.63816419564846"><ele>392.0</ele><time>2026-04-27T13:24:53Z</time></trkpt><trkpt lat="43.728698537408754" lon="12.63810334928666"><ele>391.0</ele><time>2026-04-27T13:24:54Z</time></trkpt><trkpt lat="43.728819017536445" lon="12.63807100295637"><ele>390.0</ele><time>2026-04-27T13:24:55Z</time></trkpt><trkpt lat="43.7289454771493" lon="12.638055974209744"><ele>389.0</ele><time>2026-04-27T13:24:56Z</time></trkpt><trkpt lat="43.72907203951701" lon="12.638075489694883"><ele>389.0</ele><time>2026-04-27T13:24:57Z</time></trkpt><trkpt lat="43.72920691464591" lon="12.638117131791287"><ele>389.0</ele><time>2026-04-27T13:24:58Z</time></trkpt><trkpt lat="43.729345189172975" lon="12.638176886950584"><ele>389.0</ele><time>2026-04-27T13:24:59Z</time></trkpt><trkpt lat="43.7294914358057" lon="12.63823877992437"><ele>389.0</ele><time>2026-04-27T13:25:00Z</time></trkpt><trkpt lat="43.72963838614639" lon="12.63829821595646"><ele>391.0</ele><time>2026-04-27T13:25:01Z</time></trkpt><trkpt lat="43.72978840742366" lon="12.638363785802843"><ele>393.0</ele><time>2026-04-27T13:25:02Z</time></trkpt><trkpt lat="43.729932391651396" lon="12.638419803390535"><ele>395.0</ele><time>2026-04-27T13:25:03Z</time></trkpt><trkpt lat="43.730068355056794" lon="12.638460544101145"><ele>397.0</ele><time>2026-04-27T13:25:04Z</time></trkpt><trkpt lat="43.73019277816459" lon="12.638477933223754"><ele>395.0</ele><time>2026-04-27T13:25:05Z</time></trkpt><trkpt lat="43.730308346425495" lon="12.638469886475677"><ele>393.0</ele><time>2026-04-27T13:25:06Z</time></trkpt><trkpt lat="43.730424381953206" lon="12.638426204298163"><ele>391.0</ele><time>2026-04-27T13:25:07Z</time></trkpt><trkpt lat="43.73053467584243" lon="12.638354199326464"><ele>389.0</ele><time>2026-04-27T13:25:08Z</time></trkpt><trkpt lat="43.73063266113869" lon="12.638250162321686"><ele>389.0</ele><time>2026-04-27T13:25:09Z</time></trkpt><trkpt lat="43.730715081440266" lon="12.63812458344342"><ele>389.0</ele><time>2026-04-27T13:25:10Z</time></trkpt><trkpt lat="43.730780973024494" lon="12.637992011337476"><ele>389.0</ele><time>2026-04-27T13:25:11Z</time></trkpt><trkpt lat="43.73083075796929" lon="12.637838003220889"><ele>389.0</ele><time>2026-04-27T13:25:12Z</time></trkpt><trkpt lat="43.73085969642301" lon="12.637670497155218"><ele>391.5</ele><time>2026-04-27T13:25:13Z</time></trkpt><trkpt lat="43.73086577507949" lon="12.63751238718052"><ele>394.0</ele><time>2026-04-27T13:25:14Z</time></trkpt><trkpt lat="43.7308480327492" lon="12.637349290864991"><ele>396.5</ele><time>2026-04-27T13:25:15Z</time></trkpt><trkpt lat="43.73081043487282" lon="12.637182992848812"><ele>399.0</ele><time>2026-04-27T13:25:16Z</time></trkpt><trkpt lat="43.73075811820541" lon="12.637014516709584"><ele>399.0</ele><time>2026-04-27T13:25:17Z</time></trkpt><trkpt lat="43.73070725531614" lon="12.636823494796827"><ele>399.0</ele><time>2026-04-27T13:25:18Z</time></trkpt><trkpt lat="43.730649526134506" lon="12.636621221361166"><ele>399.0</ele><time>2026-04-27T13:25:19Z</time></trkpt><trkpt lat="43.730593809052316" lon="12.63642139715119"><ele>399.0</ele><time>2026-04-27T13:25:20Z</time></trkpt><trkpt lat="43.73053586307267" lon="12.636229308775333"><ele>399.0</ele><time>2026-04-27T13:25:21Z</time></trkpt><trkpt lat="43.730487649182606" lon="12.636048860406307"><ele>399.0</ele><time>2026-04-27T13:25:22Z</time></trkpt><trkpt lat="43.7304398074496" lon="12.635865748182342"><ele>399.0</ele><time>2026-04-27T13:25:23Z</time></trkpt><trkpt lat="43.73040313634378" lon="12.635680028275434"><ele>398.0</ele><time>2026-04-27T13:25:24Z</time></trkpt><trkpt lat="43.73037362026159" lon="12.63548677533362"><ele>397.0</ele><time>2026-04-27T13:25:25Z</time></trkpt><trkpt lat="43.73034477274435" lon="12.63529096582813"><ele>396.0</ele><time>2026-04-27T13:25:26Z</time></trkpt><trkpt lat="43.73032023671575" lon="12.635082548487766"><ele>395.0</ele><time>2026-04-27T13:25:27Z</time></trkpt><trkpt lat="43.73029326142465" lon="12.634870392307537"><ele>394.66666666666663</ele><time>2026-04-27T13:25:28Z</time></trkpt><trkpt lat="43.730266357990466" lon="12.634660137800926"><ele>394.33333333333337</ele><time>2026-04-27T13:25:29Z</time></trkpt><trkpt lat="43.7302392874744" lon="12.634451812851063"><ele>394.0</ele><time>2026-04-27T13:25:30Z</time></trkpt><trkpt lat="43.73021290258675" lon="12.634252353686751"><ele>399.79999999999995</ele><time>2026-04-27T13:25:31Z</time></trkpt><trkpt lat="43.73018765000891" lon="12.634073334321164"><ele>405.59999999999997</ele><time>2026-04-27T13:25:32Z</time></trkpt><trkpt lat="43.730162564490186" lon="12.633909793406541"><ele>411.4</ele><time>2026-04-27T13:25:33Z</time></trkpt><trkpt lat="43.730142627681" lon="12.633769639133579"><ele>417.2</ele><time>2026-04-27T13:25:34Z</time></trkpt><trkpt lat="43.73013277031296" lon="12.633664750526195"><ele>423.0</ele><time>2026-04-27T13:25:35Z</time></trkpt><trkpt lat="43.730146935981345" lon="12.633494438523096"><ele>423.2</ele><time>2026-04-27T13:25:37Z</time></trkpt><trkpt lat="43.730176386874334" lon="12.633412057187384"><ele>423.4</ele><time>2026-04-27T13:25:38Z</time></trkpt><trkpt lat="43.7301953346236" lon="12.633245536981072"><ele>423.59999999999997</ele><time>2026-04-27T13:25:40Z</time></trkpt><trkpt lat="43.7301714279841" lon="12.633141406666175"><ele>423.79999999999995</ele><time>2026-04-27T13:25:41Z</time></trkpt><trkpt lat="43.73013026449098" lon="12.633018937436969"><ele>424.0</ele><time>2026-04-27T13:25:42Z</time></trkpt><trkpt lat="43.73010014163092" lon="12.632884096793127"><ele>424.2</ele><time>2026-04-27T13:25:43Z</time></trkpt><trkpt lat="43.730087652013815" lon="12.632745604245054"><ele>424.4</ele><time>2026-04-27T13:25:44Z</time></trkpt><trkpt lat="43.730100533278105" lon="12.632625921155471"><ele>424.6</ele><time>2026-04-27T13:25:45Z</time></trkpt><trkpt lat="43.73012633665422" lon="12.632513487063585"><ele>424.8</ele><time>2026-04-27T13:25:46Z</time></trkpt><trkpt lat="43.73018766833003" lon="12.632403686312468"><ele>425.0</ele><time>2026-04-27T13:25:47Z</time></trkpt><trkpt lat="43.7302650601047" lon="12.63232561695595"><ele>425.0</ele><time>2026-04-27T13:25:48Z</time></trkpt><trkpt lat="43.73036072964582" lon="12.632284014008533"><ele>425.0</ele><time>2026-04-27T13:25:49Z</time></trkpt><trkpt lat="43.7304567559875" lon="12.63226876589497"><ele>425.0</ele><time>2026-04-27T13:25:50Z</time></trkpt><trkpt lat="43.73055781620513" lon="12.632279391338317"><ele>425.0</ele><time>2026-04-27T13:25:51Z</time></trkpt><trkpt lat="43.73065754689935" lon="12.632324055062004"><ele>425.0</ele><time>2026-04-27T13:25:52Z</time></trkpt><trkpt lat="43.7307497885321" lon="12.632397761689068"><ele>425.0</ele><time>2026-04-27T13:25:53Z</time></trkpt><trkpt lat="43.730838186300936" lon="12.63247845406604"><ele>425.0</ele><time>2026-04-27T13:25:54Z</time></trkpt><trkpt lat="43.73092313308602" lon="12.632565533767774"><ele>425.0</ele><time>2026-04-27T13:25:55Z</time></trkpt><trkpt lat="43.73101967645566" lon="12.632646436489468"><ele>425.0</ele><time>2026-04-27T13:25:56Z</time></trkpt><trkpt lat="43.731117084701026" lon="12.632721784776404"><ele>425.0</ele><time>2026-04-27T13:25:57Z</time></trkpt><trkpt lat="43.731210744898455" lon="12.632791010815879"><ele>422.8</ele><time>2026-04-27T13:25:58Z</time></trkpt><trkpt lat="43.731307629762526" lon="12.632840145524769"><ele>420.6</ele><time>2026-04-27T13:25:59Z</time></trkpt><trkpt lat="43.73140951686573" lon="12.63286512080517"><ele>418.4</ele><time>2026-04-27T13:26:00Z</time></trkpt><trkpt lat="43.731519707831914" lon="12.632866231086497"><ele>416.2</ele><time>2026-04-27T13:26:01Z</time></trkpt><trkpt lat="43.73163999189096" lon="12.632857079260662"><ele>414.0</ele><time>2026-04-27T13:26:02Z</time></trkpt><trkpt lat="43.73176305918112" lon="12.632840858641242"><ele>414.0</ele><time>2026-04-27T13:26:03Z</time></trkpt><trkpt lat="43.73188643790649" lon="12.632829477705151"><ele>414.0</ele><time>2026-04-27T13:26:04Z</time></trkpt><trkpt lat="43.732014073455666" lon="12.63281941588264"><ele>414.0</ele><time>2026-04-27T13:26:05Z</time></trkpt><trkpt lat="43.73213687774202" lon="12.632810388446577"><ele>414.0</ele><time>2026-04-27T13:26:06Z</time></trkpt><trkpt lat="43.732249034620786" lon="12.632802350149024"><ele>418.79999999999995</ele><time>2026-04-27T13:26:07Z</time></trkpt><trkpt lat="43.73235275704806" lon="12.632793917483335"><ele>423.59999999999997</ele><time>2026-04-27T13:26:08Z</time></trkpt><trkpt lat="43.7324567392859" lon="12.63278532835452"><ele>428.4</ele><time>2026-04-27T13:26:09Z</time></trkpt><trkpt lat="43.73255412668076" lon="12.632778781741136"><ele>433.2</ele><time>2026-04-27T13:26:10Z</time></trkpt><trkpt lat="43.73263637469715" lon="12.632775434599754"><ele>438.0</ele><time>2026-04-27T13:26:11Z</time></trkpt><trkpt lat="43.73274425152761" lon="12.632791965315084"><ele>437.59999999999997</ele><time>2026-04-27T13:26:13Z</time></trkpt><trkpt lat="43.73279097154096" lon="12.632882427023464"><ele>437.19999999999993</ele><time>2026-04-27T13:26:15Z</time></trkpt><trkpt lat="43.73285819346048" lon="12.632932240317993"><ele>436.8</ele><time>2026-04-27T13:26:17Z</time></trkpt><trkpt lat="43.73295474581229" lon="12.632863905542115"><ele>436.4</ele><time>2026-04-27T13:26:19Z</time></trkpt><trkpt lat="43.73289641773096" lon="12.632954093322054"><ele>436.0</ele><time>2026-04-27T13:31:50Z</time></trkpt><trkpt lat="43.73304633307469" lon="12.632815341356855"><ele>436.33333333333337</ele><time>2026-04-27T13:36:25Z</time></trkpt><trkpt lat="43.733092349160884" lon="12.632701435077076"><ele>436.6666666666667</ele><time>2026-04-27T13:36:27Z</time></trkpt><trkpt lat="43.73314152878087" lon="12.632627074445068"><ele>437.0</ele><time>2026-04-27T13:36:30Z</time></trkpt><trkpt lat="43.733174969883905" lon="12.63251154584107"><ele>437.33333333333337</ele><time>2026-04-27T13:36:37Z</time></trkpt><trkpt lat="43.733228200546655" lon="12.632410177574256"><ele>437.6666666666667</ele><time>2026-04-27T13:36:39Z</time></trkpt><trkpt lat="43.73327568987589" lon="12.632330121930096"><ele>438.0</ele><time>2026-04-27T13:36:42Z</time></trkpt><trkpt lat="43.73334041964286" lon="12.632220110624752"><ele>438.0</ele><time>2026-04-27T13:36:45Z</time></trkpt><trkpt lat="43.73343558305088" lon="12.632117180467535"><ele>437.99999999999994</ele><time>2026-04-27T13:36:47Z</time></trkpt><trkpt lat="43.733510315317766" lon="12.632082135603454"><ele>437.99999999999994</ele><time>2026-04-27T13:36:48Z</time></trkpt><trkpt lat="43.733593602511995" lon="12.632067717683704"><ele>438.0</ele><time>2026-04-27T13:36:49Z</time></trkpt><trkpt lat="43.73367899637822" lon="12.632061935619001"><ele>438.0</ele><time>2026-04-27T13:36:50Z</time></trkpt><trkpt lat="43.73377002287626" lon="12.632062432433887"><ele>437.8333333333333</ele><time>2026-04-27T13:36:51Z</time></trkpt><trkpt lat="43.73386046088552" lon="12.632065878486646"><ele>437.66666666666663</ele><time>2026-04-27T13:36:52Z</time></trkpt><trkpt lat="43.73395273140924" lon="12.632068948386424"><ele>437.5</ele><time>2026-04-27T13:36:53Z</time></trkpt><trkpt lat="43.73404565641198" lon="12.632068525805728"><ele>437.3333333333333</ele><time>2026-04-27T13:36:54Z</time></trkpt><trkpt lat="43.73413305876302" lon="12.632069531674254"><ele>437.16666666666663</ele><time>2026-04-27T13:36:55Z</time></trkpt><trkpt lat="43.734208197531856" lon="12.63207358605547"><ele>437.0</ele><time>2026-04-27T13:36:56Z</time></trkpt><trkpt lat="43.73427264754405" lon="12.632078598302922"><ele>437.16666666666663</ele><time>2026-04-27T13:36:57Z</time></trkpt><trkpt lat="43.73440187749429" lon="12.632085489378184"><ele>437.3333333333333</ele><time>2026-04-27T13:36:59Z</time></trkpt><trkpt lat="43.73447087656579" lon="12.632088210999871"><ele>437.5</ele><time>2026-04-27T13:37:00Z</time></trkpt><trkpt lat="43.73454439478299" lon="12.632088793510817"><ele>437.66666666666663</ele><time>2026-04-27T13:37:01Z</time></trkpt><trkpt lat="43.73462167899567" lon="12.63208498728006"><ele>437.8333333333333</ele><time>2026-04-27T13:37:02Z</time></trkpt><trkpt lat="43.73470204267795" lon="12.63208102200599"><ele>438.0</ele><time>2026-04-27T13:37:03Z</time></trkpt><trkpt lat="43.73477909982041" lon="12.632081066750986"><ele>438.0</ele><time>2026-04-27T13:37:04Z</time></trkpt><trkpt lat="43.73489458373383" lon="12.632077665213805"><ele>437.99999999999994</ele><time>2026-04-27T13:37:06Z</time></trkpt><trkpt lat="43.73501034039245" lon="12.632080456375549"><ele>437.99999999999994</ele><time>2026-04-27T13:37:08Z</time></trkpt><trkpt lat="43.73507992372064" lon="12.632086686610721"><ele>438.0</ele><time>2026-04-27T13:37:09Z</time></trkpt><trkpt lat="43.73515569546694" lon="12.63209591123725"><ele>438.0</ele><time>2026-04-27T13:37:10Z</time></trkpt><trkpt lat="43.73523912251612" lon="12.632118784491075"><ele>438.59999999999997</ele><time>2026-04-27T13:37:11Z</time></trkpt><trkpt lat="43.73533121418059" lon="12.632145241346459"><ele>439.19999999999993</ele><time>2026-04-27T13:37:12Z</time></trkpt><trkpt lat="43.73543030133057" lon="12.63218208277327"><ele>439.8</ele><time>2026-04-27T13:37:13Z</time></trkpt><trkpt lat="43.73553232070635" lon="12.63223177269616"><ele>440.4</ele><time>2026-04-27T13:37:14Z</time></trkpt><trkpt lat="43.73562935548125" lon="12.632288699274639"><ele>441.0</ele><time>2026-04-27T13:37:15Z</time></trkpt><trkpt lat="43.735724778141936" lon="12.63234709866554"><ele>441.0</ele><time>2026-04-27T13:37:16Z</time></trkpt><trkpt lat="43.735816520175355" lon="12.632403163531556"><ele>441.0</ele><time>2026-04-27T13:37:17Z</time></trkpt><trkpt lat="43.73591037285635" lon="12.632455353871762"><ele>441.0</ele><time>2026-04-27T13:37:18Z</time></trkpt><trkpt lat="43.73601284058717" lon="12.63250083024288"><ele>441.0</ele><time>2026-04-27T13:37:19Z</time></trkpt><trkpt lat="43.73611880201507" lon="12.632530425158562"><ele>441.0</ele><time>2026-04-27T13:37:20Z</time></trkpt><trkpt lat="43.736221626308065" lon="12.632549705440164"><ele>441.3333333333333</ele><time>2026-04-27T13:37:21Z</time></trkpt><trkpt lat="43.736323422537545" lon="12.632560270590757"><ele>441.66666666666663</ele><time>2026-04-27T13:37:22Z</time></trkpt><trkpt lat="43.73641279310062" lon="12.632568032989942"><ele>442.0</ele><time>2026-04-27T13:37:23Z</time></trkpt><trkpt lat="43.736493704037414" lon="12.632573571955103"><ele>442.3333333333333</ele><time>2026-04-27T13:37:24Z</time></trkpt><trkpt lat="43.73657091945372" lon="12.632580754786549"><ele>442.66666666666663</ele><time>2026-04-27T13:37:25Z</time></trkpt><trkpt lat="43.736655647942165" lon="12.63258559891103"><ele>443.0</ele><time>2026-04-27T13:37:26Z</time></trkpt><trkpt lat="43.73674188123475" lon="12.632584825408674"><ele>442.99999999999994</ele><time>2026-04-27T13:37:27Z</time></trkpt><trkpt lat="43.73682755016369" lon="12.632577044547121"><ele>443.0</ele><time>2026-04-27T13:37:28Z</time></trkpt><trkpt lat="43.73690608089661" lon="12.632559604317006"><ele>443.0</ele><time>2026-04-27T13:37:29Z</time></trkpt><trkpt lat="43.736990597096074" lon="12.632541997876167"><ele>443.0</ele><time>2026-04-27T13:37:30Z</time></trkpt><trkpt lat="43.73707714254105" lon="12.632517485891293"><ele>442.99999999999994</ele><time>2026-04-27T13:37:31Z</time></trkpt><trkpt lat="43.73716721238164" lon="12.63248211578074"><ele>443.0</ele><time>2026-04-27T13:37:32Z</time></trkpt><trkpt lat="43.737261482530904" lon="12.63243142983551"><ele>442.8333333333333</ele><time>2026-04-27T13:37:33Z</time></trkpt><trkpt lat="43.73735015092062" lon="12.632378734472825"><ele>442.66666666666663</ele><time>2026-04-27T13:37:34Z</time></trkpt><trkpt lat="43.73743119580994" lon="12.632329836087882"><ele>442.5</ele><time>2026-04-27T13:37:35Z</time></trkpt><trkpt lat="43.7375109740491" lon="12.632282025894972"><ele>442.33333333333337</ele><time>2026-04-27T13:37:36Z</time></trkpt><trkpt lat="43.73758645152414" lon="12.632238531602109"><ele>442.1666666666667</ele><time>2026-04-27T13:37:37Z</time></trkpt><trkpt lat="43.73766030181677" lon="12.63219254662867"><ele>442.0</ele><time>2026-04-27T13:37:38Z</time></trkpt><trkpt lat="43.73773229258804" lon="12.632149103421014"><ele>441.00000000000006</ele><time>2026-04-27T13:37:39Z</time></trkpt><trkpt lat="43.737807544844735" lon="12.632101931229316"><ele>440.0</ele><time>2026-04-27T13:37:40Z</time></trkpt><trkpt lat="43.73787952066355" lon="12.632055163025228"><ele>439.0</ele><time>2026-04-27T13:37:41Z</time></trkpt><trkpt lat="43.737947590762545" lon="12.631998948073589"><ele>438.0</ele><time>2026-04-27T13:37:42Z</time></trkpt><trkpt lat="43.738017023024376" lon="12.631940089899482"><ele>437.00000000000006</ele><time>2026-04-27T13:37:43Z</time></trkpt><trkpt lat="43.738085779348474" lon="12.631880726284223"><ele>436.0</ele><time>2026-04-27T13:37:44Z</time></trkpt><trkpt lat="43.738153613703844" lon="12.631822218468894"><ele>437.57142857142856</ele><time>2026-04-27T13:37:45Z</time></trkpt><trkpt lat="43.73821348043405" lon="12.63176661568347"><ele>439.14285714285717</ele><time>2026-04-27T13:37:46Z</time></trkpt><trkpt lat="43.73826756185354" lon="12.63171787805888"><ele>440.71428571428567</ele><time>2026-04-27T13:37:47Z</time></trkpt><trkpt lat="43.7383217443284" lon="12.631669045893343"><ele>442.2857142857143</ele><time>2026-04-27T13:37:48Z</time></trkpt><trkpt lat="43.73837664533846" lon="12.631618400927845"><ele>443.85714285714283</ele><time>2026-04-27T13:37:49Z</time></trkpt><trkpt lat="43.738437180796396" lon="12.631561856117182"><ele>445.4285714285714</ele><time>2026-04-27T13:37:50Z</time></trkpt><trkpt lat="43.738506396208116" lon="12.63150809720158"><ele>447.0</ele><time>2026-04-27T13:37:51Z</time></trkpt><trkpt lat="43.73858025278781" lon="12.63146136860437"><ele>447.0</ele><time>2026-04-27T13:37:52Z</time></trkpt><trkpt lat="43.73865810474091" lon="12.631418000998224"><ele>447.0</ele><time>2026-04-27T13:37:53Z</time></trkpt><trkpt lat="43.73873967249649" lon="12.631382964199695"><ele>447.0</ele><time>2026-04-27T13:37:54Z</time></trkpt><trkpt lat="43.73882061178461" lon="12.631358170222635"><ele>447.0</ele><time>2026-04-27T13:37:55Z</time></trkpt><trkpt lat="43.738900431873276" lon="12.631350422618851"><ele>447.0</ele><time>2026-04-27T13:37:56Z</time></trkpt><trkpt lat="43.738984574088576" lon="12.631350708083138"><ele>447.0</ele><time>2026-04-27T13:37:57Z</time></trkpt><trkpt lat="43.73906983817152" lon="12.6313585108396"><ele>447.0</ele><time>2026-04-27T13:37:58Z</time></trkpt><trkpt lat="43.739156389394026" lon="12.631377902539503"><ele>447.0</ele><time>2026-04-27T13:37:59Z</time></trkpt><trkpt lat="43.73923833726717" lon="12.631407673673028"><ele>447.0</ele><time>2026-04-27T13:38:00Z</time></trkpt><trkpt lat="43.739318059070946" lon="12.631440609281663"><ele>447.0</ele><time>2026-04-27T13:38:01Z</time></trkpt><trkpt lat="43.739395949960546" lon="12.631478653504715"><ele>447.0</ele><time>2026-04-27T13:38:02Z</time></trkpt><trkpt lat="43.73947225688082" lon="12.631517314802979"><ele>447.0</ele><time>2026-04-27T13:38:03Z</time></trkpt><trkpt lat="43.73954704419565" lon="12.631556803041885"><ele>446.40000000000003</ele><time>2026-04-27T13:38:04Z</time></trkpt><trkpt lat="43.7396269009519" lon="12.631590605738937"><ele>445.80000000000007</ele><time>2026-04-27T13:38:05Z</time></trkpt><trkpt lat="43.73971270982134" lon="12.631620585336053"><ele>445.2</ele><time>2026-04-27T13:38:06Z</time></trkpt><trkpt lat="43.73980273410901" lon="12.631672262565658"><ele>444.6</ele><time>2026-04-27T13:38:07Z</time></trkpt><trkpt lat="43.73991614838368" lon="12.631712347845454"><ele>444.0</ele><time>2026-04-27T13:38:08Z</time></trkpt><trkpt lat="43.74004255219419" lon="12.631746691235197"><ele>444.0</ele><time>2026-04-27T13:38:09Z</time></trkpt><trkpt lat="43.74018072896795" lon="12.631780991752862"><ele>444.0</ele><time>2026-04-27T13:38:10Z</time></trkpt><trkpt lat="43.7403290110791" lon="12.631814393004937"><ele>444.0</ele><time>2026-04-27T13:38:11Z</time></trkpt><trkpt lat="43.740477403722494" lon="12.631847053560232"><ele>444.0</ele><time>2026-04-27T13:38:12Z</time></trkpt><trkpt lat="43.74062120315443" lon="12.631858575312236"><ele>443.25</ele><time>2026-04-27T13:38:13Z</time></trkpt><trkpt lat="43.740757393507" lon="12.63189887021638"><ele>442.5</ele><time>2026-04-27T13:38:14Z</time></trkpt><trkpt lat="43.74089167221267" lon="12.631924039940046"><ele>441.75</ele><time>2026-04-27T13:38:15Z</time></trkpt><trkpt lat="43.74102045006493" lon="12.631950057226172"><ele>441.0</ele><time>2026-04-27T13:38:16Z</time></trkpt><trkpt lat="43.74114664816174" lon="12.631973430298904"><ele>441.0</ele><time>2026-04-27T13:38:17Z</time></trkpt><trkpt lat="43.74127231178966" lon="12.631996122580553"><ele>441.0</ele><time>2026-04-27T13:38:18Z</time></trkpt><trkpt lat="43.74139617789158" lon="12.63201700024246"><ele>441.0</ele><time>2026-04-27T13:38:19Z</time></trkpt><trkpt lat="43.74152161605957" lon="12.632032837027502"><ele>441.0</ele><time>2026-04-27T13:38:20Z</time></trkpt><trkpt lat="43.741643422473075" lon="12.632058130437265"><ele>441.0</ele><time>2026-04-27T13:38:21Z</time></trkpt><trkpt lat="43.741760478648885" lon="12.63206999091775"><ele>441.0</ele><time>2026-04-27T13:38:22Z</time></trkpt><trkpt lat="43.74187184398464" lon="12.63208491814922"><ele>441.0</ele><time>2026-04-27T13:38:23Z</time></trkpt><trkpt lat="43.74197639270018" lon="12.632108667269206"><ele>441.0</ele><time>2026-04-27T13:38:24Z</time></trkpt><trkpt lat="43.742080528394006" lon="12.632148775643822"><ele>441.0</ele><time>2026-04-27T13:38:25Z</time></trkpt><trkpt lat="43.74217305236072" lon="12.632217981601944"><ele>439.75</ele><time>2026-04-27T13:38:26Z</time></trkpt><trkpt lat="43.74226842941826" lon="12.632317404201746"><ele>438.5</ele><time>2026-04-27T13:38:27Z</time></trkpt><trkpt lat="43.74232702120629" lon="12.632467828142378"><ele>437.25</ele><time>2026-04-27T13:38:28Z</time></trkpt><trkpt lat="43.7423746528518" lon="12.632631110234412"><ele>436.0</ele><time>2026-04-27T13:38:29Z</time></trkpt><trkpt lat="43.74241746774724" lon="12.632802226666643"><ele>436.75</ele><time>2026-04-27T13:38:30Z</time></trkpt><trkpt lat="43.74246295872616" lon="12.632971289503683"><ele>437.5</ele><time>2026-04-27T13:38:31Z</time></trkpt><trkpt lat="43.74250859743512" lon="12.63313922161618"><ele>438.25</ele><time>2026-04-27T13:38:32Z</time></trkpt><trkpt lat="43.74255549173922" lon="12.633305918287574"><ele>439.0</ele><time>2026-04-27T13:38:33Z</time></trkpt><trkpt lat="43.74260058186257" lon="12.6334685321013"><ele>439.0</ele><time>2026-04-27T13:38:34Z</time></trkpt><trkpt lat="43.74264956110347" lon="12.633624409707393"><ele>439.0</ele><time>2026-04-27T13:38:35Z</time></trkpt><trkpt lat="43.74270833219428" lon="12.63376971817137"><ele>439.0</ele><time>2026-04-27T13:38:36Z</time></trkpt><trkpt lat="43.742781535956816" lon="12.633898289875495"><ele>439.0</ele><time>2026-04-27T13:38:37Z</time></trkpt><trkpt lat="43.742865513798044" lon="12.634014440855067"><ele>439.25</ele><time>2026-04-27T13:38:38Z</time></trkpt><trkpt lat="43.74295088067105" lon="12.634130758038117"><ele>439.5</ele><time>2026-04-27T13:38:39Z</time></trkpt><trkpt lat="43.74304052147958" lon="12.634247601405407"><ele>439.75</ele><time>2026-04-27T13:38:40Z</time></trkpt><trkpt lat="43.74313296771914" lon="12.634366486652471"><ele>440.0</ele><time>2026-04-27T13:38:41Z</time></trkpt><trkpt lat="43.74323135323289" lon="12.63448793787617"><ele>438.25</ele><time>2026-04-27T13:38:42Z</time></trkpt><trkpt lat="43.743332976971054" lon="12.634613635007357"><ele>436.5</ele><time>2026-04-27T13:38:43Z</time></trkpt><trkpt lat="43.743438121525" lon="12.63473899790422"><ele>434.75</ele><time>2026-04-27T13:38:44Z</time></trkpt><trkpt lat="43.74354519656102" lon="12.63486920108706"><ele>433.0</ele><time>2026-04-27T13:38:45Z</time></trkpt><trkpt lat="43.743655706041196" lon="12.634999521475791"><ele>433.0</ele><time>2026-04-27T13:38:46Z</time></trkpt><trkpt lat="43.74376828833576" lon="12.635133387698314"><ele>433.0</ele><time>2026-04-27T13:38:47Z</time></trkpt><trkpt lat="43.743883099121504" lon="12.635270449550665"><ele>433.0</ele><time>2026-04-27T13:38:48Z</time></trkpt><trkpt lat="43.74400024430412" lon="12.63540745338072"><ele>430.0</ele><time>2026-04-27T13:38:49Z</time></trkpt><trkpt lat="43.74411794550032" lon="12.635543060399257"><ele>427.0</ele><time>2026-04-27T13:38:50Z</time></trkpt><trkpt lat="43.74423701126476" lon="12.635681042724048"><ele>424.0</ele><time>2026-04-27T13:38:51Z</time></trkpt><trkpt lat="43.744357276226815" lon="12.635818391525584"><ele>423.33333333333337</ele><time>2026-04-27T13:38:52Z</time></trkpt><trkpt lat="43.74447682822559" lon="12.63595866997544"><ele>422.66666666666663</ele><time>2026-04-27T13:38:53Z</time></trkpt><trkpt lat="43.74459340005632" lon="12.636097769793336"><ele>422.0</ele><time>2026-04-27T13:38:54Z</time></trkpt><trkpt lat="43.74470707939403" lon="12.636240111816903"><ele>422.0</ele><time>2026-04-27T13:38:55Z</time></trkpt><trkpt lat="43.74482091207541" lon="12.63638188954767"><ele>422.0</ele><time>2026-04-27T13:38:56Z</time></trkpt><trkpt lat="43.74493373508718" lon="12.636521310553933"><ele>422.0</ele><time>2026-04-27T13:38:57Z</time></trkpt><trkpt lat="43.74504652456461" lon="12.636653486999416"><ele>422.0</ele><time>2026-04-27T13:38:58Z</time></trkpt><trkpt lat="43.74516722846033" lon="12.636768955826765"><ele>422.0</ele><time>2026-04-27T13:38:59Z</time></trkpt><trkpt lat="43.745291855236935" lon="12.636865980158841"><ele>422.0</ele><time>2026-04-27T13:39:00Z</time></trkpt><trkpt lat="43.745431796824924" lon="12.636940372742261"><ele>422.0</ele><time>2026-04-27T13:39:01Z</time></trkpt><trkpt lat="43.745583912530186" lon="12.63699619829398"><ele>419.0</ele><time>2026-04-27T13:39:02Z</time></trkpt><trkpt lat="43.745736796655066" lon="12.637073386172077"><ele>416.0</ele><time>2026-04-27T13:39:03Z</time></trkpt><trkpt lat="43.745892347386444" lon="12.63713450124178"><ele>413.0</ele><time>2026-04-27T13:39:04Z</time></trkpt><trkpt lat="43.746045062721" lon="12.637206870549619"><ele>413.0</ele><time>2026-04-27T13:39:05Z</time></trkpt><trkpt lat="43.74619371869834" lon="12.637296390064007"><ele>413.0</ele><time>2026-04-27T13:39:06Z</time></trkpt><trkpt lat="43.74634040978778" lon="12.637383542321157"><ele>413.0</ele><time>2026-04-27T13:39:07Z</time></trkpt><trkpt lat="43.746473017687116" lon="12.637501810510097"><ele>413.0</ele><time>2026-04-27T13:39:08Z</time></trkpt><trkpt lat="43.74661024340711" lon="12.637615512551706"><ele>413.0</ele><time>2026-04-27T13:39:09Z</time></trkpt><trkpt lat="43.74674602485933" lon="12.637718826659839"><ele>413.0</ele><time>2026-04-27T13:39:10Z</time></trkpt><trkpt lat="43.746873570558115" lon="12.637809663490994"><ele>411.25</ele><time>2026-04-27T13:39:11Z</time></trkpt><trkpt lat="43.747001913547685" lon="12.637897129583179"><ele>409.5</ele><time>2026-04-27T13:39:12Z</time></trkpt><trkpt lat="43.74712811291166" lon="12.637977233436462"><ele>407.75</ele><time>2026-04-27T13:39:13Z</time></trkpt><trkpt lat="43.74724947547594" lon="12.638046557104804"><ele>406.0</ele><time>2026-04-27T13:39:14Z</time></trkpt><trkpt lat="43.74736489004786" lon="12.63810109893021"><ele>406.0</ele><time>2026-04-27T13:39:15Z</time></trkpt><trkpt lat="43.74747698783738" lon="12.638131126289203"><ele>406.0</ele><time>2026-04-27T13:39:16Z</time></trkpt><trkpt lat="43.74760203559596" lon="12.638134936150388"><ele>406.0</ele><time>2026-04-27T13:39:17Z</time></trkpt><trkpt lat="43.747734090951155" lon="12.638114276618383"><ele>406.0</ele><time>2026-04-27T13:39:18Z</time></trkpt><trkpt lat="43.74787339485118" lon="12.638078484560976"><ele>405.25</ele><time>2026-04-27T13:39:19Z</time></trkpt><trkpt lat="43.74802166933866" lon="12.638039914128502"><ele>404.5</ele><time>2026-04-27T13:39:20Z</time></trkpt><trkpt lat="43.748162106078894" lon="12.638016680636001"><ele>403.75</ele><time>2026-04-27T13:39:21Z</time></trkpt><trkpt lat="43.748297286469466" lon="12.63801798248229"><ele>403.0</ele><time>2026-04-27T13:39:22Z</time></trkpt><trkpt lat="43.748430807321704" lon="12.638050811601099"><ele>403.0</ele><time>2026-04-27T13:39:23Z</time></trkpt><trkpt lat="43.748555219678074" lon="12.638116639562547"><ele>403.0</ele><time>2026-04-27T13:39:24Z</time></trkpt><trkpt lat="43.74867138444876" lon="12.638206256951879"><ele>403.0</ele><time>2026-04-27T13:39:25Z</time></trkpt><trkpt lat="43.74877923964686" lon="12.638307223229127"><ele>403.0</ele><time>2026-04-27T13:39:26Z</time></trkpt><trkpt lat="43.74888416318359" lon="12.63839857181049"><ele>403.0</ele><time>2026-04-27T13:39:27Z</time></trkpt><trkpt lat="43.7489861068467" lon="12.638470067051676"><ele>403.0</ele><time>2026-04-27T13:39:28Z</time></trkpt><trkpt lat="43.749081013951184" lon="12.638515125411358"><ele>403.0</ele><time>2026-04-27T13:39:29Z</time></trkpt><trkpt lat="43.7491791856415" lon="12.638529514884617"><ele>403.0</ele><time>2026-04-27T13:39:30Z</time></trkpt><trkpt lat="43.74928972211427" lon="12.63851501540669"><ele>403.0</ele><time>2026-04-27T13:39:31Z</time></trkpt><trkpt lat="43.749399618297545" lon="12.638463886542926"><ele>401.0</ele><time>2026-04-27T13:39:32Z</time></trkpt><trkpt lat="43.749506033835466" lon="12.638405527322039"><ele>399.0</ele><time>2026-04-27T13:39:33Z</time></trkpt><trkpt lat="43.74961505946469" lon="12.638359587147173"><ele>397.0</ele><time>2026-04-27T13:39:34Z</time></trkpt><trkpt lat="43.74973151764936" lon="12.638340888235826"><ele>395.0</ele><time>2026-04-27T13:39:35Z</time></trkpt><trkpt lat="43.749850992632865" lon="12.63835805925515"><ele>395.0</ele><time>2026-04-27T13:39:36Z</time></trkpt><trkpt lat="43.7499750978372" lon="12.638404287383446"><ele>395.0</ele><time>2026-04-27T13:39:37Z</time></trkpt><trkpt lat="43.750104996364406" lon="12.638486631473425"><ele>395.0</ele><time>2026-04-27T13:39:38Z</time></trkpt><trkpt lat="43.75023616417942" lon="12.638599593576895"><ele>395.0</ele><time>2026-04-27T13:39:39Z</time></trkpt><trkpt lat="43.75037161730487" lon="12.638718805892282"><ele>393.3333333333333</ele><time>2026-04-27T13:39:40Z</time></trkpt><trkpt lat="43.75050831191486" lon="12.638838886760624"><ele>391.66666666666663</ele><time>2026-04-27T13:39:41Z</time></trkpt><trkpt lat="43.75064030038494" lon="12.638950909481478"><ele>390.0</ele><time>2026-04-27T13:39:42Z</time></trkpt><trkpt lat="43.75076891295072" lon="12.639055313310253"><ele>390.0</ele><time>2026-04-27T13:39:43Z</time></trkpt><trkpt lat="43.750895587065564" lon="12.639151409164894"><ele>390.0</ele><time>2026-04-27T13:39:44Z</time></trkpt><trkpt lat="43.751024021409734" lon="12.639245596268257"><ele>390.0</ele><time>2026-04-27T13:39:45Z</time></trkpt><trkpt lat="43.75115846862031" lon="12.639330255844103"><ele>390.0</ele><time>2026-04-27T13:39:46Z</time></trkpt><trkpt lat="43.751299525590326" lon="12.6393936395937"><ele>389.66666666666663</ele><time>2026-04-27T13:39:47Z</time></trkpt><trkpt lat="43.75145609056054" lon="12.639442597948056"><ele>389.3333333333333</ele><time>2026-04-27T13:39:48Z</time></trkpt><trkpt lat="43.7516238626096" lon="12.639483920503404"><ele>389.0</ele><time>2026-04-27T13:39:49Z</time></trkpt><trkpt lat="43.75179153772041" lon="12.639523644695325"><ele>389.0</ele><time>2026-04-27T13:39:50Z</time></trkpt><trkpt lat="43.751949653189314" lon="12.63956136955714"><ele>389.0</ele><time>2026-04-27T13:39:51Z</time></trkpt><trkpt lat="43.75210298303868" lon="12.639597102466944"><ele>389.0</ele><time>2026-04-27T13:39:52Z</time></trkpt><trkpt lat="43.752255146610494" lon="12.639633569208202"><ele>389.0</ele><time>2026-04-27T13:39:53Z</time></trkpt><trkpt lat="43.75240622097399" lon="12.639667890951513"><ele>389.0</ele><time>2026-04-27T13:39:54Z</time></trkpt><trkpt lat="43.75255047199744" lon="12.639704381099515"><ele>389.0</ele><time>2026-04-27T13:39:55Z</time></trkpt><trkpt lat="43.75268381210474" lon="12.639743844201464"><ele>389.0</ele><time>2026-04-27T13:39:56Z</time></trkpt><trkpt lat="43.75281105451195" lon="12.639797780043986"><ele>390.5</ele><time>2026-04-27T13:39:57Z</time></trkpt><trkpt lat="43.75294004896493" lon="12.639874986921331"><ele>392.0</ele><time>2026-04-27T13:39:58Z</time></trkpt><trkpt lat="43.75306284636154" lon="12.639970296153122"><ele>393.5</ele><time>2026-04-27T13:39:59Z</time></trkpt><trkpt lat="43.75318309760488" lon="12.640077405438094"><ele>395.0</ele><time>2026-04-27T13:40:00Z</time></trkpt><trkpt lat="43.753305113495436" lon="12.640194447159331"><ele>394.66666666666663</ele><time>2026-04-27T13:40:01Z</time></trkpt><trkpt lat="43.75342891289126" lon="12.640315341032197"><ele>394.33333333333337</ele><time>2026-04-27T13:40:02Z</time></trkpt><trkpt lat="43.75355652468431" lon="12.640433794763242"><ele>394.0</ele><time>2026-04-27T13:40:03Z</time></trkpt><trkpt lat="43.75368506083602" lon="12.640553076758996"><ele>394.0</ele><time>2026-04-27T13:40:04Z</time></trkpt><trkpt lat="43.75380886070718" lon="12.640668363394857"><ele>394.0</ele><time>2026-04-27T13:40:05Z</time></trkpt><trkpt lat="43.753926832410045" lon="12.640784932382696"><ele>394.0</ele><time>2026-04-27T13:40:06Z</time></trkpt><trkpt lat="43.75403399172614" lon="12.640917521565074"><ele>394.0</ele><time>2026-04-27T13:40:07Z</time></trkpt><trkpt lat="43.75414783160241" lon="12.641026611953219"><ele>394.0</ele><time>2026-04-27T13:40:08Z</time></trkpt><trkpt lat="43.754263924221156" lon="12.64112760963745"><ele>394.0</ele><time>2026-04-27T13:40:09Z</time></trkpt><trkpt lat="43.75439061960853" lon="12.641207748504009"><ele>394.0</ele><time>2026-04-27T13:40:10Z</time></trkpt><trkpt lat="43.75453132804638" lon="12.641265776606113"><ele>394.0</ele><time>2026-04-27T13:40:11Z</time></trkpt><trkpt lat="43.75468271969966" lon="12.6413125430732"><ele>395.6666666666667</ele><time>2026-04-27T13:40:12Z</time></trkpt><trkpt lat="43.7548323215083" lon="12.641359459155177"><ele>397.33333333333337</ele><time>2026-04-27T13:40:13Z</time></trkpt><trkpt lat="43.754990123987646" lon="12.641403918349138"><ele>399.0</ele><time>2026-04-27T13:40:14Z</time></trkpt><trkpt lat="43.75514755809468" lon="12.64145428659901"><ele>397.0</ele><time>2026-04-27T13:40:15Z</time></trkpt><trkpt lat="43.75530213404578" lon="12.641511120478942"><ele>395.0</ele><time>2026-04-27T13:40:16Z</time></trkpt><trkpt lat="43.75544560733924" lon="12.64158557922801"><ele>393.0</ele><time>2026-04-27T13:40:17Z</time></trkpt><trkpt lat="43.75558309968577" lon="12.641684560110651"><ele>393.0</ele><time>2026-04-27T13:40:18Z</time></trkpt><trkpt lat="43.75572404558886" lon="12.641797999769244"><ele>393.0</ele><time>2026-04-27T13:40:19Z</time></trkpt><trkpt lat="43.75587334849134" lon="12.641913084627301"><ele>393.0</ele><time>2026-04-27T13:40:20Z</time></trkpt><trkpt lat="43.75603253472784" lon="12.64202856598588"><ele>393.33333333333337</ele><time>2026-04-27T13:40:21Z</time></trkpt><trkpt lat="43.75619644549285" lon="12.642141975881083"><ele>393.6666666666667</ele><time>2026-04-27T13:40:22Z</time></trkpt><trkpt lat="43.756364656245644" lon="12.642259314091712"><ele>394.0</ele><time>2026-04-27T13:40:23Z</time></trkpt><trkpt lat="43.756534943922475" lon="12.642374414415574"><ele>394.0</ele><time>2026-04-27T13:40:24Z</time></trkpt><trkpt lat="43.75670566750965" lon="12.6424913226774"><ele>394.0</ele><time>2026-04-27T13:40:25Z</time></trkpt><trkpt lat="43.756876080349215" lon="12.642606403099157"><ele>394.0</ele><time>2026-04-27T13:40:26Z</time></trkpt><trkpt lat="43.75704802465683" lon="12.642716585497615"><ele>397.33333333333337</ele><time>2026-04-27T13:40:27Z</time></trkpt><trkpt lat="43.75721799375542" lon="12.642818225018138"><ele>400.66666666666663</ele><time>2026-04-27T13:40:28Z</time></trkpt><trkpt lat="43.757384831037776" lon="12.64291566649647"><ele>404.0</ele><time>2026-04-27T13:40:29Z</time></trkpt><trkpt lat="43.75754411130959" lon="12.64300302341062"><ele>404.0</ele><time>2026-04-27T13:40:30Z</time></trkpt><trkpt lat="43.75769140293331" lon="12.64308220792619"><ele>404.0</ele><time>2026-04-27T13:40:31Z</time></trkpt><trkpt lat="43.7578333690792" lon="12.643159704141556"><ele>404.0</ele><time>2026-04-27T13:40:32Z</time></trkpt><trkpt lat="43.75796265946595" lon="12.643245383912866"><ele>404.0</ele><time>2026-04-27T13:40:33Z</time></trkpt><trkpt lat="43.75807634201323" lon="12.64334030890575"><ele>404.0</ele><time>2026-04-27T13:40:34Z</time></trkpt><trkpt lat="43.75817864901766" lon="12.643444503092669"><ele>404.0</ele><time>2026-04-27T13:40:35Z</time></trkpt><trkpt lat="43.75827657282186" lon="12.643560201514337"><ele>404.0</ele><time>2026-04-27T13:40:36Z</time></trkpt><trkpt lat="43.75837159901868" lon="12.643687283123171"><ele>402.25</ele><time>2026-04-27T13:40:37Z</time></trkpt><trkpt lat="43.75847027599082" lon="12.643816981941937"><ele>400.5</ele><time>2026-04-27T13:40:38Z</time></trkpt><trkpt lat="43.75856986733797" lon="12.643943355960452"><ele>398.75</ele><time>2026-04-27T13:40:39Z</time></trkpt><trkpt lat="43.758672530146754" lon="12.644063355544052"><ele>397.0</ele><time>2026-04-27T13:40:40Z</time></trkpt><trkpt lat="43.75877460772533" lon="12.6441774969161"><ele>397.0</ele><time>2026-04-27T13:40:41Z</time></trkpt><trkpt lat="43.75888234817422" lon="12.644282367400605"><ele>397.0</ele><time>2026-04-27T13:40:42Z</time></trkpt><trkpt lat="43.75899924973363" lon="12.644380478699244"><ele>397.0</ele><time>2026-04-27T13:40:43Z</time></trkpt><trkpt lat="43.759123181069675" lon="12.644466763807921"><ele>397.0</ele><time>2026-04-27T13:40:44Z</time></trkpt><trkpt lat="43.75925166391761" lon="12.644549274607389"><ele>394.75</ele><time>2026-04-27T13:40:45Z</time></trkpt><trkpt lat="43.75938243983794" lon="12.644625398332346"><ele>392.5</ele><time>2026-04-27T13:40:46Z</time></trkpt><trkpt lat="43.75951054487871" lon="12.644699820865958"><ele>390.25</ele><time>2026-04-27T13:40:47Z</time></trkpt><trkpt lat="43.759638176809815" lon="12.64477513530958"><ele>388.0</ele><time>2026-04-27T13:40:48Z</time></trkpt><trkpt lat="43.759756719753085" lon="12.644849902775848"><ele>388.0</ele><time>2026-04-27T13:40:49Z</time></trkpt><trkpt lat="43.759866769193245" lon="12.64491932640461"><ele>388.0</ele><time>2026-04-27T13:40:50Z</time></trkpt><trkpt lat="43.759968099935044" lon="12.644989039421246"><ele>388.0</ele><time>2026-04-27T13:40:51Z</time></trkpt><trkpt lat="43.76006201176776" lon="12.645059038778808"><ele>388.0</ele><time>2026-04-27T13:40:52Z</time></trkpt><trkpt lat="43.76014846290278" lon="12.645127550891702"><ele>388.0</ele><time>2026-04-27T13:40:53Z</time></trkpt><trkpt lat="43.76023477074489" lon="12.64519765747808"><ele>386.75</ele><time>2026-04-27T13:40:54Z</time></trkpt><trkpt lat="43.76032416210375" lon="12.645272315947121"><ele>385.5</ele><time>2026-04-27T13:40:55Z</time></trkpt><trkpt lat="43.760418993681306" lon="12.645355946500468"><ele>384.25</ele><time>2026-04-27T13:40:56Z</time></trkpt><trkpt lat="43.760516814337976" lon="12.64545169809283"><ele>383.0</ele><time>2026-04-27T13:40:57Z</time></trkpt><trkpt lat="43.760615905077884" lon="12.645562895430537"><ele>383.0</ele><time>2026-04-27T13:40:58Z</time></trkpt><trkpt lat="43.76071628913882" lon="12.645682423220931"><ele>383.0</ele><time>2026-04-27T13:40:59Z</time></trkpt><trkpt lat="43.76081701798054" lon="12.645805122826891"><ele>383.0</ele><time>2026-04-27T13:41:00Z</time></trkpt><trkpt lat="43.76090804688805" lon="12.645927265326796"><ele>383.0</ele><time>2026-04-27T13:41:01Z</time></trkpt><trkpt lat="43.76099012410174" lon="12.646053185744467"><ele>382.4</ele><time>2026-04-27T13:41:02Z</time></trkpt><trkpt lat="43.76105727062636" lon="12.646180539104108"><ele>381.79999999999995</ele><time>2026-04-27T13:41:03Z</time></trkpt><trkpt lat="43.76111300283365" lon="12.646303882966773"><ele>381.2</ele><time>2026-04-27T13:41:04Z</time></trkpt><trkpt lat="43.761160500472016" lon="12.646424093836552"><ele>380.6</ele><time>2026-04-27T13:41:05Z</time></trkpt><trkpt lat="43.761202773066486" lon="12.64653291763889"><ele>380.0</ele><time>2026-04-27T13:41:06Z</time></trkpt><trkpt lat="43.761236075584854" lon="12.646619114248987"><ele>380.0</ele><time>2026-04-27T13:41:07Z</time></trkpt><trkpt lat="43.76128399005085" lon="12.646731059239903"><ele>380.0</ele><time>2026-04-27T13:41:09Z</time></trkpt><trkpt lat="43.76131710479082" lon="12.646810624999311"><ele>380.0</ele><time>2026-04-27T13:41:11Z</time></trkpt><trkpt lat="43.761406679513286" lon="12.646780314496613"><ele>380.0</ele><time>2026-04-27T13:41:12Z</time></trkpt><trkpt lat="43.76151654993957" lon="12.646746398956841"><ele>380.0</ele><time>2026-04-27T13:41:14Z</time></trkpt><trkpt lat="43.76159695179202" lon="12.646698757345447"><ele>380.0</ele><time>2026-04-27T13:41:16Z</time></trkpt><trkpt lat="43.76165003958398" lon="12.646603674102298"><ele>380.0</ele><time>2026-04-27T13:41:18Z</time></trkpt><trkpt lat="43.76162453792663" lon="12.646458939309719"><ele>380.0</ele><time>2026-04-27T13:41:20Z</time></trkpt><trkpt lat="43.76153016994744" lon="12.646360283787935"><ele>380.0</ele><time>2026-04-27T13:41:22Z</time></trkpt><trkpt lat="43.76142234934272" lon="12.646271011530288"><ele>380.0</ele><time>2026-04-27T13:41:24Z</time></trkpt><trkpt lat="43.76136433680947" lon="12.646158642166949"><ele>380.0</ele><time>2026-04-27T13:41:26Z</time></trkpt><trkpt lat="43.76137266902611" lon="12.646066465025054"><ele>380.0</ele><time>2026-04-27T13:41:28Z</time></trkpt><trkpt lat="43.76144382155671" lon="12.646028796041866"><ele>380.0</ele><time>2026-04-27T13:41:30Z</time></trkpt><trkpt lat="43.76152987917784" lon="12.646086201826595"><ele>380.0</ele><time>2026-04-27T13:41:32Z</time></trkpt><trkpt lat="43.76159507960277" lon="12.646100253047898"><ele>380.0</ele><time>2026-04-27T13:41:33Z</time></trkpt><trkpt lat="43.76171244148112" lon="12.64617559384992"><ele>380.0</ele><time>2026-04-27T13:41:35Z</time></trkpt><trkpt lat="43.76178388734346" lon="12.646212948847845"><ele>376.0</ele><time>2026-04-27T13:41:36Z</time></trkpt><trkpt lat="43.76186534828484" lon="12.64625090383257"><ele>372.0</ele><time>2026-04-27T13:41:37Z</time></trkpt><trkpt lat="43.7619439806781" lon="12.646306247533097"><ele>368.0</ele><time>2026-04-27T13:41:38Z</time></trkpt><trkpt lat="43.76203413531521" lon="12.646344750127327"><ele>364.0</ele><time>2026-04-27T13:41:39Z</time></trkpt><trkpt lat="43.76212112508127" lon="12.64638036930381"><ele>360.0</ele><time>2026-04-27T13:41:40Z</time></trkpt><trkpt lat="43.76220957588239" lon="12.646419340811029"><ele>360.0</ele><time>2026-04-27T13:41:41Z</time></trkpt><trkpt lat="43.762305169427314" lon="12.646455501795826"><ele>360.0</ele><time>2026-04-27T13:41:42Z</time></trkpt><trkpt lat="43.76241135201393" lon="12.646488263189273"><ele>360.0</ele><time>2026-04-27T13:41:43Z</time></trkpt><trkpt lat="43.76250372086437" lon="12.646519338981443"><ele>360.0</ele><time>2026-04-27T13:41:44Z</time></trkpt><trkpt lat="43.76259818647341" lon="12.646547145469585"><ele>360.0</ele><time>2026-04-27T13:41:45Z</time></trkpt><trkpt lat="43.76269014855604" lon="12.64656771652134"><ele>357.6</ele><time>2026-04-27T13:41:46Z</time></trkpt><trkpt lat="43.762777907472916" lon="12.64660638125595"><ele>355.2</ele><time>2026-04-27T13:41:47Z</time></trkpt><trkpt lat="43.762872275678184" lon="12.646616993201837"><ele>352.79999999999995</ele><time>2026-04-27T13:41:48Z</time></trkpt><trkpt lat="43.76296855954396" lon="12.646596070219978"><ele>350.4</ele><time>2026-04-27T13:41:49Z</time></trkpt><trkpt lat="43.763067962214" lon="12.646602319633137"><ele>348.0</ele><time>2026-04-27T13:41:50Z</time></trkpt><trkpt lat="43.76317049842676" lon="12.64660041188586"><ele>348.0</ele><time>2026-04-27T13:41:51Z</time></trkpt><trkpt lat="43.76327720887809" lon="12.646608993369968"><ele>348.0</ele><time>2026-04-27T13:41:52Z</time></trkpt><trkpt lat="43.76338422401561" lon="12.646586698933774"><ele>348.0</ele><time>2026-04-27T13:41:53Z</time></trkpt><trkpt lat="43.76347579196345" lon="12.646533386669976"><ele>348.0</ele><time>2026-04-27T13:41:54Z</time></trkpt><trkpt lat="43.763570005092596" lon="12.646504142250349"><ele>348.0</ele><time>2026-04-27T13:41:55Z</time></trkpt><trkpt lat="43.76366185517005" lon="12.646470297584706"><ele>344.79999999999995</ele><time>2026-04-27T13:41:56Z</time></trkpt><trkpt lat="43.76375849116562" lon="12.646428820606786"><ele>341.6</ele><time>2026-04-27T13:41:57Z</time></trkpt><trkpt lat="43.76385415527861" lon="12.646385014682455"><ele>338.4</ele><time>2026-04-27T13:41:58Z</time></trkpt><trkpt lat="43.76395452935076" lon="12.646356218000852"><ele>335.20000000000005</ele><time>2026-04-27T13:41:59Z</time></trkpt><trkpt lat="43.764055817767236" lon="12.646321830326666"><ele>332.0</ele><time>2026-04-27T13:42:00Z</time></trkpt><trkpt lat="43.76415661051464" lon="12.646300037525782"><ele>332.0</ele><time>2026-04-27T13:42:01Z</time></trkpt><trkpt lat="43.76427603207866" lon="12.646275742391898"><ele>332.0</ele><time>2026-04-27T13:42:02Z</time></trkpt><trkpt lat="43.76438073673872" lon="12.646257073335441"><ele>332.0</ele><time>2026-04-27T13:42:03Z</time></trkpt><trkpt lat="43.76447577134542" lon="12.646231554549864"><ele>332.0</ele><time>2026-04-27T13:42:04Z</time></trkpt><trkpt lat="43.76457788447896" lon="12.646197449334998"><ele>332.0</ele><time>2026-04-27T13:42:05Z</time></trkpt><trkpt lat="43.76467663806696" lon="12.646153460689836"><ele>327.40000000000003</ele><time>2026-04-27T13:42:06Z</time></trkpt><trkpt lat="43.76477006595732" lon="12.646097812811664"><ele>322.8</ele><time>2026-04-27T13:42:07Z</time></trkpt><trkpt lat="43.76485503790312" lon="12.64603280649261"><ele>318.2</ele><time>2026-04-27T13:42:08Z</time></trkpt><trkpt lat="43.76493583925467" lon="12.645948643818986"><ele>313.6</ele><time>2026-04-27T13:42:09Z</time></trkpt><trkpt lat="43.76500681082664" lon="12.645845929800155"><ele>309.0</ele><time>2026-04-27T13:42:10Z</time></trkpt><trkpt lat="43.76506308662729" lon="12.645736290823194"><ele>309.0</ele><time>2026-04-27T13:42:11Z</time></trkpt><trkpt lat="43.765106171038624" lon="12.645628281566491"><ele>309.0</ele><time>2026-04-27T13:42:12Z</time></trkpt><trkpt lat="43.76513889089118" lon="12.645512468867913"><ele>309.0</ele><time>2026-04-27T13:42:13Z</time></trkpt><trkpt lat="43.76516143959242" lon="12.645385291471033"><ele>309.0</ele><time>2026-04-27T13:42:14Z</time></trkpt><trkpt lat="43.765185414134606" lon="12.64525082923753"><ele>309.0</ele><time>2026-04-27T13:42:15Z</time></trkpt><trkpt lat="43.76521119063782" lon="12.645114601257367"><ele>307.8</ele><time>2026-04-27T13:42:16Z</time></trkpt><trkpt lat="43.76523550583126" lon="12.644977457421307"><ele>306.59999999999997</ele><time>2026-04-27T13:42:17Z</time></trkpt><trkpt lat="43.76526108314942" lon="12.64484292250088"><ele>305.4</ele><time>2026-04-27T13:42:18Z</time></trkpt><trkpt lat="43.7652934511606" lon="12.644712402360708"><ele>304.2</ele><time>2026-04-27T13:42:19Z</time></trkpt><trkpt lat="43.765336859134294" lon="12.644598873366506"><ele>303.0</ele><time>2026-04-27T13:42:20Z</time></trkpt><trkpt lat="43.76539682509172" lon="12.644490800829281"><ele>304.1666666666667</ele><time>2026-04-27T13:42:21Z</time></trkpt><trkpt lat="43.76545786446656" lon="12.644382148424057"><ele>305.3333333333333</ele><time>2026-04-27T13:42:22Z</time></trkpt><trkpt lat="43.765508744944675" lon="12.644275757214105"><ele>306.5</ele><time>2026-04-27T13:42:23Z</time></trkpt><trkpt lat="43.76555004867338" lon="12.644189022822724"><ele>307.66666666666663</ele><time>2026-04-27T13:42:24Z</time></trkpt><trkpt lat="43.765581558175434" lon="12.644093328013955"><ele>308.8333333333333</ele><time>2026-04-27T13:42:25Z</time></trkpt><trkpt lat="43.7656055827847" lon="12.643981647884443"><ele>310.0</ele><time>2026-04-27T13:42:26Z</time></trkpt><trkpt lat="43.76561559942314" lon="12.643863625207869"><ele>310.0</ele><time>2026-04-27T13:42:27Z</time></trkpt><trkpt lat="43.76562946105475" lon="12.64375890167094"><ele>310.0</ele><time>2026-04-27T13:42:28Z</time></trkpt><trkpt lat="43.765656235183236" lon="12.64365689557487"><ele>310.0</ele><time>2026-04-27T13:42:29Z</time></trkpt><trkpt lat="43.76569770482073" lon="12.64356144381952"><ele>310.0</ele><time>2026-04-27T13:42:30Z</time></trkpt><trkpt lat="43.765753104583" lon="12.643473263041741"><ele>310.0</ele><time>2026-04-27T13:42:31Z</time></trkpt><trkpt lat="43.76580935604698" lon="12.64338634813452"><ele>310.0</ele><time>2026-04-27T13:42:32Z</time></trkpt><trkpt lat="43.76586955213704" lon="12.643291106894335"><ele>308.4</ele><time>2026-04-27T13:42:33Z</time></trkpt><trkpt lat="43.7659286744918" lon="12.643189049636792"><ele>306.8</ele><time>2026-04-27T13:42:34Z</time></trkpt><trkpt lat="43.76599575373151" lon="12.6430926180685"><ele>305.2</ele><time>2026-04-27T13:42:35Z</time></trkpt><trkpt lat="43.766067375473625" lon="12.643006898761856"><ele>303.6</ele><time>2026-04-27T13:42:36Z</time></trkpt><trkpt lat="43.76613955963826" lon="12.642936636490992"><ele>302.0</ele><time>2026-04-27T13:42:37Z</time></trkpt><trkpt lat="43.76621610296422" lon="12.642861766101955"><ele>300.6</ele><time>2026-04-27T13:42:38Z</time></trkpt><trkpt lat="43.766285884245875" lon="12.642787965102151"><ele>299.2</ele><time>2026-04-27T13:42:39Z</time></trkpt><trkpt lat="43.76634927679685" lon="12.642680403396755"><ele>297.8</ele><time>2026-04-27T13:42:40Z</time></trkpt><trkpt lat="43.766410045875574" lon="12.642559628395672"><ele>296.4</ele><time>2026-04-27T13:42:41Z</time></trkpt><trkpt lat="43.76646488858094" lon="12.642426787997163"><ele>295.0</ele><time>2026-04-27T13:42:42Z</time></trkpt><trkpt lat="43.76650430959837" lon="12.642290529462164"><ele>295.0</ele><time>2026-04-27T13:42:43Z</time></trkpt><trkpt lat="43.76653011798204" lon="12.64215035605461"><ele>295.0</ele><time>2026-04-27T13:42:44Z</time></trkpt><trkpt lat="43.766563220459915" lon="12.642033595697127"><ele>295.0</ele><time>2026-04-27T13:42:45Z</time></trkpt><trkpt lat="43.766597303043035" lon="12.64195157404283"><ele>295.0</ele><time>2026-04-27T13:42:46Z</time></trkpt><trkpt lat="43.76665162363636" lon="12.641867817177747"><ele>295.0</ele><time>2026-04-27T13:42:47Z</time></trkpt><trkpt lat="43.76671646868648" lon="12.641804944205397"><ele>295.0</ele><time>2026-04-27T13:42:48Z</time></trkpt><trkpt lat="43.766783156233565" lon="12.641753919357885"><ele>295.0</ele><time>2026-04-27T13:42:49Z</time></trkpt><trkpt lat="43.76684732648284" lon="12.64169761734143"><ele>295.0</ele><time>2026-04-27T13:42:50Z</time></trkpt><trkpt lat="43.76690914028643" lon="12.641611418952918"><ele>295.0</ele><time>2026-04-27T13:42:51Z</time></trkpt><trkpt lat="43.766966249620886" lon="12.641503373602248"><ele>295.0</ele><time>2026-04-27T13:42:52Z</time></trkpt><trkpt lat="43.767026230379045" lon="12.641377190102586"><ele>295.0</ele><time>2026-04-27T13:42:53Z</time></trkpt><trkpt lat="43.76708482166995" lon="12.641238313557048"><ele>295.5</ele><time>2026-04-27T13:42:54Z</time></trkpt><trkpt lat="43.76714330254152" lon="12.641091436653905"><ele>296.0</ele><time>2026-04-27T13:42:55Z</time></trkpt><trkpt lat="43.76719880825294" lon="12.640939256059212"><ele>296.5</ele><time>2026-04-27T13:42:56Z</time></trkpt><trkpt lat="43.76724471027713" lon="12.640784822110893"><ele>297.0</ele><time>2026-04-27T13:42:57Z</time></trkpt><trkpt lat="43.767282211775466" lon="12.640628210385723"><ele>297.0</ele><time>2026-04-27T13:42:58Z</time></trkpt><trkpt lat="43.76731493658085" lon="12.640476962408103"><ele>297.0</ele><time>2026-04-27T13:42:59Z</time></trkpt><trkpt lat="43.76733092568467" lon="12.640336112470807"><ele>297.0</ele><time>2026-04-27T13:43:00Z</time></trkpt><trkpt lat="43.76733435829297" lon="12.640209641895174"><ele>297.0</ele><time>2026-04-27T13:43:01Z</time></trkpt><trkpt lat="43.767335679903574" lon="12.640099657943848"><ele>297.0</ele><time>2026-04-27T13:43:02Z</time></trkpt><trkpt lat="43.76735449676844" lon="12.639999879158553"><ele>297.4</ele><time>2026-04-27T13:43:03Z</time></trkpt><trkpt lat="43.767387714210784" lon="12.639895580885389"><ele>297.79999999999995</ele><time>2026-04-27T13:43:04Z</time></trkpt><trkpt lat="43.767433840810206" lon="12.63977136729606"><ele>298.2</ele><time>2026-04-27T13:43:05Z</time></trkpt><trkpt lat="43.76748730568834" lon="12.639636330981347"><ele>298.59999999999997</ele><time>2026-04-27T13:43:06Z</time></trkpt><trkpt lat="43.767535737669704" lon="12.639488879504599"><ele>299.0</ele><time>2026-04-27T13:43:07Z</time></trkpt><trkpt lat="43.76757094686794" lon="12.639338124083192"><ele>299.0</ele><time>2026-04-27T13:43:08Z</time></trkpt><trkpt lat="43.767592789860466" lon="12.63919464784516"><ele>299.0</ele><time>2026-04-27T13:43:09Z</time></trkpt><trkpt lat="43.767597232254005" lon="12.639058752388717"><ele>299.0</ele><time>2026-04-27T13:43:10Z</time></trkpt><trkpt lat="43.7675928031958" lon="12.63891504401412"><ele>299.0</ele><time>2026-04-27T13:43:11Z</time></trkpt><trkpt lat="43.767585273810646" lon="12.63877854736046"><ele>299.0</ele><time>2026-04-27T13:43:12Z</time></trkpt><trkpt lat="43.76757739983261" lon="12.638659632102437"><ele>299.1666666666667</ele><time>2026-04-27T13:43:13Z</time></trkpt><trkpt lat="43.767575354918804" lon="12.638571052281579"><ele>299.33333333333337</ele><time>2026-04-27T13:43:14Z</time></trkpt><trkpt lat="43.76757904736128" lon="12.638477423520127"><ele>299.5</ele><time>2026-04-27T13:43:15Z</time></trkpt><trkpt lat="43.7676001528803" lon="12.638394742122868"><ele>299.6666666666667</ele><time>2026-04-27T13:43:16Z</time></trkpt><trkpt lat="43.76766547249611" lon="12.638271748146192"><ele>299.8333333333333</ele><time>2026-04-27T13:43:18Z</time></trkpt><trkpt lat="43.76777205658495" lon="12.638220267082845"><ele>300.0</ele><time>2026-04-27T13:43:20Z</time></trkpt><trkpt lat="43.76783539189065" lon="12.638210250903091"><ele>300.0</ele><time>2026-04-27T13:43:21Z</time></trkpt><trkpt lat="43.767909769597836" lon="12.638220020017148"><ele>300.0</ele><time>2026-04-27T13:43:22Z</time></trkpt><trkpt lat="43.767991868119964" lon="12.638246914462767"><ele>300.0</ele><time>2026-04-27T13:43:23Z</time></trkpt><trkpt lat="43.76808552785531" lon="12.638258712957116"><ele>300.0</ele><time>2026-04-27T13:43:24Z</time></trkpt><trkpt lat="43.76818680927633" lon="12.638260509222683"><ele>300.0</ele><time>2026-04-27T13:43:25Z</time></trkpt><trkpt lat="43.76828660906289" lon="12.63825906945246"><ele>300.0</ele><time>2026-04-27T13:43:26Z</time></trkpt><trkpt lat="43.76838865243649" lon="12.638254198241704"><ele>300.0</ele><time>2026-04-27T13:43:27Z</time></trkpt><trkpt lat="43.76848827038879" lon="12.638241638226365"><ele>300.0</ele><time>2026-04-27T13:43:28Z</time></trkpt><trkpt lat="43.76858421153191" lon="12.638218747573172"><ele>300.0</ele><time>2026-04-27T13:43:29Z</time></trkpt><trkpt lat="43.768676132077836" lon="12.63818321557345"><ele>300.0</ele><time>2026-04-27T13:43:30Z</time></trkpt><trkpt lat="43.76876348717516" lon="12.638146558032954"><ele>298.0</ele><time>2026-04-27T13:43:31Z</time></trkpt><trkpt lat="43.76885126052448" lon="12.638111750876439"><ele>296.0</ele><time>2026-04-27T13:43:32Z</time></trkpt><trkpt lat="43.76894655578154" lon="12.638069292662832"><ele>294.0</ele><time>2026-04-27T13:43:33Z</time></trkpt><trkpt lat="43.7690437150683" lon="12.638019145132999"><ele>292.0</ele><time>2026-04-27T13:43:34Z</time></trkpt><trkpt lat="43.76914078413406" lon="12.637972935592238"><ele>290.0</ele><time>2026-04-27T13:43:35Z</time></trkpt><trkpt lat="43.7692458971869" lon="12.637934256343875"><ele>290.0</ele><time>2026-04-27T13:43:36Z</time></trkpt><trkpt lat="43.76935520407484" lon="12.637900956513615"><ele>290.0</ele><time>2026-04-27T13:43:37Z</time></trkpt><trkpt lat="43.76946773536393" lon="12.637869937767505"><ele>290.0</ele><time>2026-04-27T13:43:38Z</time></trkpt><trkpt lat="43.76957890464355" lon="12.637842786194723"><ele>290.0</ele><time>2026-04-27T13:43:39Z</time></trkpt><trkpt lat="43.76968644810542" lon="12.637822450023737"><ele>290.0</ele><time>2026-04-27T13:43:40Z</time></trkpt><trkpt lat="43.769789608402206" lon="12.637807662488628"><ele>288.8</ele><time>2026-04-27T13:43:41Z</time></trkpt><trkpt lat="43.76989055537294" lon="12.63778782167791"><ele>287.6</ele><time>2026-04-27T13:43:42Z</time></trkpt><trkpt lat="43.76999168787669" lon="12.637762073690228"><ele>286.4</ele><time>2026-04-27T13:43:43Z</time></trkpt><trkpt lat="43.77008889263715" lon="12.637734223388469"><ele>285.2</ele><time>2026-04-27T13:43:44Z</time></trkpt><trkpt lat="43.770183289372525" lon="12.637707119147699"><ele>284.0</ele><time>2026-04-27T13:43:45Z</time></trkpt><trkpt lat="43.77026598707096" lon="12.637684396944666"><ele>281.4</ele><time>2026-04-27T13:43:46Z</time></trkpt><trkpt lat="43.770335010837655" lon="12.637667516039771"><ele>278.79999999999995</ele><time>2026-04-27T13:43:47Z</time></trkpt><trkpt lat="43.77039928377447" lon="12.637659255677935"><ele>276.20000000000005</ele><time>2026-04-27T13:43:48Z</time></trkpt><trkpt lat="43.77049047634688" lon="12.637727478114805"><ele>273.6</ele><time>2026-04-27T13:43:50Z</time></trkpt><trkpt lat="43.77052515531503" lon="12.637890132964015"><ele>271.0</ele><time>2026-04-27T13:43:52Z</time></trkpt><trkpt lat="43.77054807813113" lon="12.638055163283395"><ele>270.5</ele><time>2026-04-27T13:43:54Z</time></trkpt><trkpt lat="43.77058833391238" lon="12.638124020850013"><ele>270.0</ele><time>2026-04-27T13:43:55Z</time></trkpt><trkpt lat="43.77064675264612" lon="12.638170616612058"><ele>269.5</ele><time>2026-04-27T13:43:56Z</time></trkpt><trkpt lat="43.77072134603287" lon="12.638175721328864"><ele>269.0</ele><time>2026-04-27T13:43:57Z</time></trkpt><trkpt lat="43.77080699541937" lon="12.638143456719167"><ele>268.5</ele><time>2026-04-27T13:43:58Z</time></trkpt><trkpt lat="43.770891862074095" lon="12.63808061715889"><ele>268.0</ele><time>2026-04-27T13:43:59Z</time></trkpt><trkpt lat="43.770985308292026" lon="12.638018369358356"><ele>267.0</ele><time>2026-04-27T13:44:00Z</time></trkpt><trkpt lat="43.771079584433025" lon="12.637956585772846"><ele>266.0</ele><time>2026-04-27T13:44:01Z</time></trkpt><trkpt lat="43.77117429075623" lon="12.637909868259927"><ele>265.0</ele><time>2026-04-27T13:44:02Z</time></trkpt><trkpt lat="43.771268737940204" lon="12.63787275970221"><ele>264.0</ele><time>2026-04-27T13:44:03Z</time></trkpt><trkpt lat="43.77135954946007" lon="12.63783715738348"><ele>263.0</ele><time>2026-04-27T13:44:04Z</time></trkpt><trkpt lat="43.7714467542856" lon="12.637800773333586"><ele>263.0</ele><time>2026-04-27T13:44:05Z</time></trkpt><trkpt lat="43.77153577353268" lon="12.63775185756756"><ele>263.0</ele><time>2026-04-27T13:44:06Z</time></trkpt><trkpt lat="43.77162543451279" lon="12.637686237952744"><ele>263.0</ele><time>2026-04-27T13:44:07Z</time></trkpt><trkpt lat="43.77171182020988" lon="12.637604662987028"><ele>263.0</ele><time>2026-04-27T13:44:08Z</time></trkpt><trkpt lat="43.77179853316058" lon="12.637518972792975"><ele>263.0</ele><time>2026-04-27T13:44:09Z</time></trkpt><trkpt lat="43.77187918509378" lon="12.637437942677375"><ele>261.0</ele><time>2026-04-27T13:44:10Z</time></trkpt><trkpt lat="43.77194654215671" lon="12.637373922247448"><ele>259.0</ele><time>2026-04-27T13:44:11Z</time></trkpt><trkpt lat="43.77200782589214" lon="12.637328668739219"><ele>257.0</ele><time>2026-04-27T13:44:12Z</time></trkpt><trkpt lat="43.77207214280236" lon="12.637289914300297"><ele>255.0</ele><time>2026-04-27T13:44:13Z</time></trkpt><trkpt lat="43.77214478879223" lon="12.637324005349594"><ele>253.00000000000003</ele><time>2026-04-27T13:44:14Z</time></trkpt><trkpt lat="43.77222595792902" lon="12.637392245208277"><ele>251.0</ele><time>2026-04-27T13:44:15Z</time></trkpt><trkpt lat="43.77230468809384" lon="12.637480119932366"><ele>251.0</ele><time>2026-04-27T13:44:16Z</time></trkpt><trkpt lat="43.7723765016648" lon="12.637576206591348"><ele>251.00000000000003</ele><time>2026-04-27T13:44:17Z</time></trkpt><trkpt lat="43.77243827528708" lon="12.637680766817596"><ele>251.00000000000003</ele><time>2026-04-27T13:44:18Z</time></trkpt><trkpt lat="43.77248813002934" lon="12.637798371985735"><ele>251.0</ele><time>2026-04-27T13:44:19Z</time></trkpt><trkpt lat="43.772534658014976" lon="12.63791381361683"><ele>251.0</ele><time>2026-04-27T13:44:20Z</time></trkpt><trkpt lat="43.77258842574985" lon="12.638002297754475"><ele>250.20000000000002</ele><time>2026-04-27T13:44:21Z</time></trkpt><trkpt lat="43.772661861036596" lon="12.638062952376067"><ele>249.40000000000003</ele><time>2026-04-27T13:44:22Z</time></trkpt><trkpt lat="43.772752970626385" lon="12.63811593726366"><ele>248.6</ele><time>2026-04-27T13:44:23Z</time></trkpt><trkpt lat="43.77284890954165" lon="12.638191761609372"><ele>247.8</ele><time>2026-04-27T13:44:24Z</time></trkpt><trkpt lat="43.772964165051384" lon="12.638228066066121"><ele>247.0</ele><time>2026-04-27T13:44:25Z</time></trkpt><trkpt lat="43.7730708176244" lon="12.638290550178388"><ele>244.8</ele><time>2026-04-27T13:44:26Z</time></trkpt><trkpt lat="43.77317659350969" lon="12.638353652948446"><ele>242.6</ele><time>2026-04-27T13:44:27Z</time></trkpt><trkpt lat="43.773278733023396" lon="12.638415267885124"><ele>240.40000000000003</ele><time>2026-04-27T13:44:28Z</time></trkpt><trkpt lat="43.77337210000479" lon="12.638480953794863"><ele>238.20000000000002</ele><time>2026-04-27T13:44:29Z</time></trkpt><trkpt lat="43.77344257800759" lon="12.63854599711048"><ele>236.0</ele><time>2026-04-27T13:44:30Z</time></trkpt><trkpt lat="43.77349073709094" lon="12.63860656045257"><ele>233.00000000000003</ele><time>2026-04-27T13:44:31Z</time></trkpt><trkpt lat="43.77352861438912" lon="12.63869033539809"><ele>230.0</ele><time>2026-04-27T13:44:32Z</time></trkpt><trkpt lat="43.773551753328896" lon="12.638791453134507"><ele>227.0</ele><time>2026-04-27T13:44:33Z</time></trkpt><trkpt lat="43.773565553305794" lon="12.638890734167097"><ele>224.0</ele><time>2026-04-27T13:44:34Z</time></trkpt><trkpt lat="43.77358468474536" lon="12.63898137227706"><ele>221.00000000000003</ele><time>2026-04-27T13:44:35Z</time></trkpt><trkpt lat="43.773664801385216" lon="12.639099738280356"><ele>218.0</ele><time>2026-04-27T13:44:37Z</time></trkpt><trkpt lat="43.7737295646616" lon="12.639123758166434"><ele>218.00000000000003</ele><time>2026-04-27T13:44:38Z</time></trkpt><trkpt lat="43.77380735105071" lon="12.639127880049069"><ele>218.0</ele><time>2026-04-27T13:44:39Z</time></trkpt><trkpt lat="43.77389084335646" lon="12.639116469310567"><ele>218.0</ele><time>2026-04-27T13:44:40Z</time></trkpt><trkpt lat="43.77397062755115" lon="12.639097249377146"><ele>218.0</ele><time>2026-04-27T13:44:41Z</time></trkpt><trkpt lat="43.77403392498534" lon="12.639070649613876"><ele>218.00000000000003</ele><time>2026-04-27T13:44:42Z</time></trkpt><trkpt lat="43.774135534829796" lon="12.638974553503068"><ele>218.0</ele><time>2026-04-27T13:44:44Z</time></trkpt><trkpt lat="43.77415933368334" lon="12.638875434368249"><ele>218.00000000000003</ele><time>2026-04-27T13:44:45Z</time></trkpt><trkpt lat="43.77418054082518" lon="12.638780924136315"><ele>218.0</ele><time>2026-04-27T13:44:46Z</time></trkpt><trkpt lat="43.77420362314125" lon="12.638696044954427"><ele>218.0</ele><time>2026-04-27T13:44:47Z</time></trkpt><trkpt lat="43.774299438176016" lon="12.638608483453995"><ele>218.0</ele><time>2026-04-27T13:44:49Z</time></trkpt><trkpt lat="43.77436853260553" lon="12.63862237564688"><ele>218.00000000000003</ele><time>2026-04-27T13:44:50Z</time></trkpt><trkpt lat="43.77444899946226" lon="12.638670486410438"><ele>218.0</ele><time>2026-04-27T13:44:51Z</time></trkpt><trkpt lat="43.77453301839577" lon="12.638732794239507"><ele>215.0</ele><time>2026-04-27T13:44:52Z</time></trkpt><trkpt lat="43.77462504421542" lon="12.63879239480382"><ele>212.0</ele><time>2026-04-27T13:44:53Z</time></trkpt><trkpt lat="43.774719903117074" lon="12.63883981995015"><ele>209.0</ele><time>2026-04-27T13:44:54Z</time></trkpt><trkpt lat="43.77481689759563" lon="12.638873679884277"><ele>206.0</ele><time>2026-04-27T13:44:55Z</time></trkpt><trkpt lat="43.77491422336745" lon="12.638907778823922"><ele>203.0</ele><time>2026-04-27T13:44:56Z</time></trkpt><trkpt lat="43.77500268513434" lon="12.63895201254105"><ele>203.0</ele><time>2026-04-27T13:44:57Z</time></trkpt><trkpt lat="43.775077003122135" lon="12.639020627983696"><ele>203.0</ele><time>2026-04-27T13:44:58Z</time></trkpt><trkpt lat="43.77513785622651" lon="12.639123598846158"><ele>203.0</ele><time>2026-04-27T13:44:59Z</time></trkpt><trkpt lat="43.77518399616834" lon="12.639240234090055"><ele>203.0</ele><time>2026-04-27T13:45:00Z</time></trkpt><trkpt lat="43.77523904910244" lon="12.639340155364675"><ele>203.0</ele><time>2026-04-27T13:45:01Z</time></trkpt><trkpt lat="43.77531049546126" lon="12.639433243588467"><ele>201.0</ele><time>2026-04-27T13:45:02Z</time></trkpt><trkpt lat="43.775394169159995" lon="12.63952158188967"><ele>199.0</ele><time>2026-04-27T13:45:03Z</time></trkpt><trkpt lat="43.77548513171027" lon="12.639606120345046"><ele>197.0</ele><time>2026-04-27T13:45:04Z</time></trkpt><trkpt lat="43.775584642631294" lon="12.639678721324453"><ele>195.0</ele><time>2026-04-27T13:45:05Z</time></trkpt><trkpt lat="43.77568735017474" lon="12.639740017523268"><ele>193.0</ele><time>2026-04-27T13:45:06Z</time></trkpt><trkpt lat="43.77578785389911" lon="12.639801568889501"><ele>193.0</ele><time>2026-04-27T13:45:07Z</time></trkpt><trkpt lat="43.775878037861105" lon="12.63985410792235"><ele>193.0</ele><time>2026-04-27T13:45:08Z</time></trkpt><trkpt lat="43.77597160616819" lon="12.639883963204861"><ele>193.0</ele><time>2026-04-27T13:45:09Z</time></trkpt><trkpt lat="43.77607518671325" lon="12.639883022097658"><ele>193.0</ele><time>2026-04-27T13:45:10Z</time></trkpt><trkpt lat="43.77619112240022" lon="12.639857789273483"><ele>193.0</ele><time>2026-04-27T13:45:11Z</time></trkpt><trkpt lat="43.77630873583992" lon="12.639855812439611"><ele>191.60000000000002</ele><time>2026-04-27T13:45:12Z</time></trkpt><trkpt lat="43.77641668147684" lon="12.639846161059369"><ele>190.20000000000002</ele><time>2026-04-27T13:45:13Z</time></trkpt><trkpt lat="43.77652192602487" lon="12.639850410890263"><ele>188.8</ele><time>2026-04-27T13:45:14Z</time></trkpt><trkpt lat="43.77663021224017" lon="12.639838198207958"><ele>187.4</ele><time>2026-04-27T13:45:15Z</time></trkpt><trkpt lat="43.77673154957086" lon="12.639846112240974"><ele>186.0</ele><time>2026-04-27T13:45:16Z</time></trkpt><trkpt lat="43.77682793959624" lon="12.639855356495804"><ele>184.20000000000002</ele><time>2026-04-27T13:45:17Z</time></trkpt><trkpt lat="43.7769251860658" lon="12.639816335421557"><ele>182.4</ele><time>2026-04-27T13:45:18Z</time></trkpt><trkpt lat="43.77702327654589" lon="12.6397647821872"><ele>180.6</ele><time>2026-04-27T13:45:19Z</time></trkpt><trkpt lat="43.77712781370657" lon="12.63971006124836"><ele>178.8</ele><time>2026-04-27T13:45:20Z</time></trkpt><trkpt lat="43.77724035730438" lon="12.639652531940097"><ele>177.0</ele><time>2026-04-27T13:45:21Z</time></trkpt><trkpt lat="43.77735365033937" lon="12.639594619513522"><ele>177.0</ele><time>2026-04-27T13:45:22Z</time></trkpt><trkpt lat="43.77746579100179" lon="12.639537296140121"><ele>177.0</ele><time>2026-04-27T13:45:23Z</time></trkpt><trkpt lat="43.777572326699335" lon="12.639459352880397"><ele>177.0</ele><time>2026-04-27T13:45:24Z</time></trkpt><trkpt lat="43.777684549382215" lon="12.639403170294736"><ele>177.0</ele><time>2026-04-27T13:45:25Z</time></trkpt><trkpt lat="43.77779666303228" lon="12.639350834294781"><ele>174.0</ele><time>2026-04-27T13:45:26Z</time></trkpt><trkpt lat="43.7779083487431" lon="12.639297294308628"><ele>171.0</ele><time>2026-04-27T13:45:27Z</time></trkpt><trkpt lat="43.77800548692671" lon="12.63924731759564"><ele>168.0</ele><time>2026-04-27T13:45:28Z</time></trkpt><trkpt lat="43.77808862224942" lon="12.63919943407283"><ele>165.0</ele><time>2026-04-27T13:45:29Z</time></trkpt><trkpt lat="43.778170017550984" lon="12.63913610412037"><ele>162.0</ele><time>2026-04-27T13:45:30Z</time></trkpt><trkpt lat="43.77824366827652" lon="12.639057601790597"><ele>162.0</ele><time>2026-04-27T13:45:31Z</time></trkpt><trkpt lat="43.77831763413388" lon="12.638966270097796"><ele>162.0</ele><time>2026-04-27T13:45:32Z</time></trkpt><trkpt lat="43.77839893606504" lon="12.638871750305606"><ele>162.0</ele><time>2026-04-27T13:45:33Z</time></trkpt><trkpt lat="43.778482881839544" lon="12.63878554140139"><ele>162.0</ele><time>2026-04-27T13:45:34Z</time></trkpt><trkpt lat="43.77856946759057" lon="12.638702311216324"><ele>162.0</ele><time>2026-04-27T13:45:35Z</time></trkpt><trkpt lat="43.778663351201764" lon="12.63864712370851"><ele>160.0</ele><time>2026-04-27T13:45:36Z</time></trkpt><trkpt lat="43.7787282596749" lon="12.63856237687205"><ele>158.0</ele><time>2026-04-27T13:45:37Z</time></trkpt><trkpt lat="43.778796659892876" lon="12.638507402293225"><ele>156.0</ele><time>2026-04-27T13:45:38Z</time></trkpt><trkpt lat="43.7788641189411" lon="12.638468670216707"><ele>154.0</ele><time>2026-04-27T13:45:39Z</time></trkpt><trkpt lat="43.77893047867861" lon="12.638448151636739"><ele>152.0</ele><time>2026-04-27T13:45:40Z</time></trkpt><trkpt lat="43.778999591942274" lon="12.638454977149472"><ele>150.0</ele><time>2026-04-27T13:45:41Z</time></trkpt><trkpt lat="43.779064186681204" lon="12.63847910606261"><ele>148.0</ele><time>2026-04-27T13:45:42Z</time></trkpt><trkpt lat="43.77918103644628" lon="12.638511803585"><ele>148.0</ele><time>2026-04-27T13:45:44Z</time></trkpt><trkpt lat="43.77929988076619" lon="12.63844837149797"><ele>148.0</ele><time>2026-04-27T13:45:46Z</time></trkpt><trkpt lat="43.77935504398355" lon="12.638394293474352"><ele>148.0</ele><time>2026-04-27T13:45:47Z</time></trkpt><trkpt lat="43.77940860650621" lon="12.638337244165669"><ele>148.0</ele><time>2026-04-27T13:45:48Z</time></trkpt><trkpt lat="43.77947444075689" lon="12.638290234938891"><ele>148.0</ele><time>2026-04-27T13:45:49Z</time></trkpt><trkpt lat="43.7795290306489" lon="12.638203517449655"><ele>148.0</ele><time>2026-04-27T13:45:50Z</time></trkpt><trkpt lat="43.77956734828367" lon="12.638093895892794"><ele>143.16666666666669</ele><time>2026-04-27T13:45:51Z</time></trkpt><trkpt lat="43.77961257825428" lon="12.637993852030444"><ele>138.33333333333334</ele><time>2026-04-27T13:45:52Z</time></trkpt><trkpt lat="43.779649752910125" lon="12.637885878751979"><ele>133.5</ele><time>2026-04-27T13:45:53Z</time></trkpt><trkpt lat="43.77967664169398" lon="12.637776135021523"><ele>128.66666666666666</ele><time>2026-04-27T13:45:54Z</time></trkpt><trkpt lat="43.779692979179906" lon="12.637682095936858"><ele>123.83333333333333</ele><time>2026-04-27T13:45:55Z</time></trkpt><trkpt lat="43.77970310924436" lon="12.637516952147434"><ele>119.0</ele><time>2026-04-27T13:45:57Z</time></trkpt><trkpt lat="43.77969422311216" lon="12.637368591669278"><ele>118.83333333333333</ele><time>2026-04-27T13:45:59Z</time></trkpt><trkpt lat="43.77970293198227" lon="12.637234309879489"><ele>118.66666666666666</ele><time>2026-04-27T13:46:01Z</time></trkpt><trkpt lat="43.77976688442637" lon="12.637173594500146"><ele>118.5</ele><time>2026-04-27T13:46:03Z</time></trkpt><trkpt lat="43.779862244098766" lon="12.637203941320191"><ele>118.33333333333334</ele><time>2026-04-27T13:46:05Z</time></trkpt><trkpt lat="43.77991817943568" lon="12.6372473444167"><ele>118.16666666666667</ele><time>2026-04-27T13:46:06Z</time></trkpt><trkpt lat="43.779984805898685" lon="12.637300518813326"><ele>118.0</ele><time>2026-04-27T13:46:07Z</time></trkpt><trkpt lat="43.78006212981574" lon="12.637353085397468"><ele>118.0</ele><time>2026-04-27T13:46:08Z</time></trkpt><trkpt lat="43.780146248465" lon="12.637399310622516"><ele>118.00000000000001</ele><time>2026-04-27T13:46:09Z</time></trkpt><trkpt lat="43.78023660339976" lon="12.637436469101567"><ele>118.00000000000001</ele><time>2026-04-27T13:46:10Z</time></trkpt><trkpt lat="43.780333078586054" lon="12.637464548817562"><ele>118.0</ele><time>2026-04-27T13:46:11Z</time></trkpt><trkpt lat="43.78042290346756" lon="12.637478385045291"><ele>118.0</ele><time>2026-04-27T13:46:12Z</time></trkpt><trkpt lat="43.780501764594874" lon="12.637477640007985"><ele>115.16666666666667</ele><time>2026-04-27T13:46:13Z</time></trkpt><trkpt lat="43.78056520452817" lon="12.637467005932217"><ele>112.33333333333334</ele><time>2026-04-27T13:46:14Z</time></trkpt><trkpt lat="43.780670023595874" lon="12.63742701030144"><ele>109.5</ele><time>2026-04-27T13:46:16Z</time></trkpt><trkpt lat="43.78070854618473" lon="12.637354929927302"><ele>106.66666666666666</ele><time>2026-04-27T13:46:17Z</time></trkpt><trkpt lat="43.78072135607639" lon="12.637262153470155"><ele>103.83333333333333</ele><time>2026-04-27T13:46:18Z</time></trkpt><trkpt lat="43.780705307866086" lon="12.637163212191805"><ele>101.0</ele><time>2026-04-27T13:46:19Z</time></trkpt><trkpt lat="43.780655741460144" lon="12.637083019113938"><ele>101.0</ele><time>2026-04-27T13:46:20Z</time></trkpt><trkpt lat="43.78062169587587" lon="12.636999339086415"><ele>101.0</ele><time>2026-04-27T13:46:21Z</time></trkpt><trkpt lat="43.78059543417152" lon="12.63691802722061"><ele>101.0</ele><time>2026-04-27T13:46:22Z</time></trkpt><trkpt lat="43.7806040741677" lon="12.63676876832105"><ele>101.0</ele><time>2026-04-27T13:46:24Z</time></trkpt><trkpt lat="43.78071806044089" lon="12.636667367836377"><ele>101.0</ele><time>2026-04-27T13:46:26Z</time></trkpt><trkpt lat="43.780796840525866" lon="12.636605476818671"><ele>100.83333333333333</ele><time>2026-04-27T13:46:27Z</time></trkpt><trkpt lat="43.78087193381347" lon="12.63653116467028"><ele>100.66666666666666</ele><time>2026-04-27T13:46:28Z</time></trkpt><trkpt lat="43.7809441367517" lon="12.636456204555865"><ele>100.5</ele><time>2026-04-27T13:46:29Z</time></trkpt><trkpt lat="43.78101035413313" lon="12.636385588622794"><ele>100.33333333333334</ele><time>2026-04-27T13:46:30Z</time></trkpt><trkpt lat="43.781068746025504" lon="12.636321503253232"><ele>100.16666666666667</ele><time>2026-04-27T13:46:31Z</time></trkpt><trkpt lat="43.781119314703545" lon="12.636266003927341"><ele>100.0</ele><time>2026-04-27T13:46:32Z</time></trkpt><trkpt lat="43.78120313908211" lon="12.636159457105403"><ele>100.33333333333334</ele><time>2026-04-27T13:46:34Z</time></trkpt><trkpt lat="43.78126404725308" lon="12.636122975869819"><ele>100.66666666666667</ele><time>2026-04-27T13:46:35Z</time></trkpt><trkpt lat="43.78134171206331" lon="12.636092757985498"><ele>101.0</ele><time>2026-04-27T13:46:36Z</time></trkpt><trkpt lat="43.781414254787805" lon="12.636016640739811"><ele>101.33333333333334</ele><time>2026-04-27T13:46:37Z</time></trkpt><trkpt lat="43.78146568617353" lon="12.635898502129814"><ele>101.66666666666667</ele><time>2026-04-27T13:46:38Z</time></trkpt><trkpt lat="43.781539607126945" lon="12.635802027451986"><ele>102.0</ele><time>2026-04-27T13:46:39Z</time></trkpt><trkpt lat="43.78160207347789" lon="12.635677366910823"><ele>102.0</ele><time>2026-04-27T13:46:40Z</time></trkpt><trkpt lat="43.7816552042373" lon="12.635555532279122"><ele>102.0</ele><time>2026-04-27T13:46:41Z</time></trkpt><trkpt lat="43.781704114783466" lon="12.635441483365234"><ele>102.0</ele><time>2026-04-27T13:46:42Z</time></trkpt><trkpt lat="43.78173261726515" lon="12.635329092266021"><ele>102.0</ele><time>2026-04-27T13:46:43Z</time></trkpt><trkpt lat="43.781773990125586" lon="12.635254143817113"><ele>102.0</ele><time>2026-04-27T13:46:44Z</time></trkpt><trkpt lat="43.78183648437382" lon="12.635114585190493"><ele>103.57142857142857</ele><time>2026-04-27T13:46:46Z</time></trkpt><trkpt lat="43.7818282515579" lon="12.6350212998459"><ele>105.14285714285714</ele><time>2026-04-27T13:46:47Z</time></trkpt><trkpt lat="43.7817799042272" lon="12.634937288078445"><ele>106.71428571428572</ele><time>2026-04-27T13:46:48Z</time></trkpt><trkpt lat="43.781717753901965" lon="12.63488481758312"><ele>108.28571428571428</ele><time>2026-04-27T13:46:49Z</time></trkpt><trkpt lat="43.78166785271622" lon="12.634810245317938"><ele>109.85714285714285</ele><time>2026-04-27T13:46:50Z</time></trkpt><trkpt lat="43.78163925118864" lon="12.634729195181446"><ele>111.42857142857143</ele><time>2026-04-27T13:46:51Z</time></trkpt><trkpt lat="43.78159335852175" lon="12.63463583869519"><ele>113.0</ele><time>2026-04-27T13:46:53Z</time></trkpt><trkpt lat="43.781588484341135" lon="12.634518544453172"><ele>115.60000000000001</ele><time>2026-04-27T13:46:55Z</time></trkpt><trkpt lat="43.78168835513764" lon="12.634448222970637"><ele>118.20000000000002</ele><time>2026-04-27T13:46:57Z</time></trkpt><trkpt lat="43.781799910544684" lon="12.634391326289268"><ele>120.8</ele><time>2026-04-27T13:46:59Z</time></trkpt><trkpt lat="43.78185943329596" lon="12.634337854165869"><ele>123.4</ele><time>2026-04-27T13:47:00Z</time></trkpt><trkpt lat="43.78191296514021" lon="12.63426782216344"><ele>126.0</ele><time>2026-04-27T13:47:01Z</time></trkpt><trkpt lat="43.78197772948016" lon="12.634215777873974"><ele>126.0</ele><time>2026-04-27T13:47:02Z</time></trkpt><trkpt lat="43.782049437754324" lon="12.63416143269852"><ele>126.0</ele><time>2026-04-27T13:47:03Z</time></trkpt><trkpt lat="43.78211392747046" lon="12.634113000730082"><ele>126.0</ele><time>2026-04-27T13:47:04Z</time></trkpt><trkpt lat="43.78217003941257" lon="12.634070318059754"><ele>126.0</ele><time>2026-04-27T13:47:05Z</time></trkpt><trkpt lat="43.78228064468359" lon="12.63400741757838"><ele>126.0</ele><time>2026-04-27T13:47:07Z</time></trkpt><trkpt lat="43.78234066646727" lon="12.63397096630613"><ele>126.0</ele><time>2026-04-27T13:47:08Z</time></trkpt><trkpt lat="43.78240608275823" lon="12.633934914384241"><ele>126.0</ele><time>2026-04-27T13:47:09Z</time></trkpt><trkpt lat="43.782452607178186" lon="12.633858555691779"><ele>126.0</ele><time>2026-04-27T13:47:10Z</time></trkpt><trkpt lat="43.782453918225805" lon="12.633730904152847"><ele>126.0</ele><time>2026-04-27T13:47:11Z</time></trkpt><trkpt lat="43.78249003353034" lon="12.6336149191943"><ele>126.0</ele><time>2026-04-27T13:47:12Z</time></trkpt><trkpt lat="43.782533355028555" lon="12.633494784752543"><ele>126.0</ele><time>2026-04-27T13:47:13Z</time></trkpt><trkpt lat="43.78258308388969" lon="12.633371474585887"><ele>125.8</ele><time>2026-04-27T13:47:14Z</time></trkpt><trkpt lat="43.78264982741437" lon="12.633260043274078"><ele>125.6</ele><time>2026-04-27T13:47:15Z</time></trkpt><trkpt lat="43.782705234676726" lon="12.633150496232473"><ele>125.4</ele><time>2026-04-27T13:47:16Z</time></trkpt><trkpt lat="43.782751900681916" lon="12.633030762115203"><ele>125.2</ele><time>2026-04-27T13:47:17Z</time></trkpt><trkpt lat="43.78281633094635" lon="12.632931657222112"><ele>125.0</ele><time>2026-04-27T13:47:18Z</time></trkpt><trkpt lat="43.78288119073657" lon="12.63283506944382"><ele>124.6</ele><time>2026-04-27T13:47:19Z</time></trkpt><trkpt lat="43.78295718418752" lon="12.63275732746693"><ele>124.2</ele><time>2026-04-27T13:47:20Z</time></trkpt><trkpt lat="43.78301881162154" lon="12.632661052545375"><ele>123.80000000000001</ele><time>2026-04-27T13:47:21Z</time></trkpt><trkpt lat="43.78308109230248" lon="12.632560621750244"><ele>123.4</ele><time>2026-04-27T13:47:22Z</time></trkpt><trkpt lat="43.78313389818348" lon="12.632437674911005"><ele>123.0</ele><time>2026-04-27T13:47:23Z</time></trkpt><trkpt lat="43.78321117933205" lon="12.632336759810654"><ele>123.0</ele><time>2026-04-27T13:47:24Z</time></trkpt><trkpt lat="43.783277240918785" lon="12.632213784555447"><ele>123.0</ele><time>2026-04-27T13:47:25Z</time></trkpt><trkpt lat="43.78332830452156" lon="12.632073784359743"><ele>123.0</ele><time>2026-04-27T13:47:26Z</time></trkpt><trkpt lat="43.783401996457144" lon="12.631954916811742"><ele>123.0</ele><time>2026-04-27T13:47:27Z</time></trkpt><trkpt lat="43.783442171583815" lon="12.631797057951923"><ele>122.75</ele><time>2026-04-27T13:47:28Z</time></trkpt><trkpt lat="43.78348840496338" lon="12.63163910886065"><ele>122.5</ele><time>2026-04-27T13:47:29Z</time></trkpt><trkpt lat="43.78353376011446" lon="12.63146977975428"><ele>122.25</ele><time>2026-04-27T13:47:30Z</time></trkpt><trkpt lat="43.783580231630644" lon="12.631296815339935"><ele>122.0</ele><time>2026-04-27T13:47:31Z</time></trkpt><trkpt lat="43.78362561007254" lon="12.631139060278379"><ele>122.6</ele><time>2026-04-27T13:47:32Z</time></trkpt><trkpt lat="43.78366507342201" lon="12.630990615573713"><ele>123.19999999999999</ele><time>2026-04-27T13:47:33Z</time></trkpt><trkpt lat="43.783704346116906" lon="12.630851128437817"><ele>123.8</ele><time>2026-04-27T13:47:34Z</time></trkpt><trkpt lat="43.78374144761493" lon="12.630721218954323"><ele>124.4</ele><time>2026-04-27T13:47:35Z</time></trkpt><trkpt lat="43.783776924808784" lon="12.630604663229226"><ele>125.0</ele><time>2026-04-27T13:47:36Z</time></trkpt><trkpt lat="43.783819773908455" lon="12.630487545651475"><ele>125.0</ele><time>2026-04-27T13:47:37Z</time></trkpt><trkpt lat="43.783867233890696" lon="12.630353162059897"><ele>125.0</ele><time>2026-04-27T13:47:38Z</time></trkpt><trkpt lat="43.78392376074015" lon="12.630210695436137"><ele>125.0</ele><time>2026-04-27T13:47:39Z</time></trkpt><trkpt lat="43.78399691880936" lon="12.630066117079547"><ele>125.0</ele><time>2026-04-27T13:47:40Z</time></trkpt><trkpt lat="43.78408476353032" lon="12.629924287683021"><ele>124.75</ele><time>2026-04-27T13:47:41Z</time></trkpt><trkpt lat="43.784182414933845" lon="12.629786861260378"><ele>124.5</ele><time>2026-04-27T13:47:42Z</time></trkpt><trkpt lat="43.78427889966887" lon="12.629651353653939"><ele>124.25</ele><time>2026-04-27T13:47:43Z</time></trkpt><trkpt lat="43.78437526642431" lon="12.629517541437492"><ele>124.0</ele><time>2026-04-27T13:47:44Z</time></trkpt><trkpt lat="43.78446286580725" lon="12.629379391751122"><ele>123.5</ele><time>2026-04-27T13:47:45Z</time></trkpt><trkpt lat="43.784544584755366" lon="12.62923154583712"><ele>123.0</ele><time>2026-04-27T13:47:46Z</time></trkpt><trkpt lat="43.784633243017545" lon="12.629077652371425"><ele>122.5</ele><time>2026-04-27T13:47:47Z</time></trkpt><trkpt lat="43.78470919691959" lon="12.628898319807305"><ele>122.0</ele><time>2026-04-27T13:47:48Z</time></trkpt><trkpt lat="43.78477563841872" lon="12.628718536474159"><ele>122.5</ele><time>2026-04-27T13:47:49Z</time></trkpt><trkpt lat="43.784835651769704" lon="12.62854320752329"><ele>123.0</ele><time>2026-04-27T13:47:50Z</time></trkpt><trkpt lat="43.784893485020504" lon="12.628374247729898"><ele>123.5</ele><time>2026-04-27T13:47:51Z</time></trkpt><trkpt lat="43.78495053666516" lon="12.628208804200304"><ele>124.0</ele><time>2026-04-27T13:47:52Z</time></trkpt><trkpt lat="43.78499386104919" lon="12.62803451115418"><ele>124.0</ele><time>2026-04-27T13:47:53Z</time></trkpt><trkpt lat="43.78505053816528" lon="12.627871670902216"><ele>124.0</ele><time>2026-04-27T13:47:54Z</time></trkpt><trkpt lat="43.78510649003802" lon="12.627710102239813"><ele>124.0</ele><time>2026-04-27T13:47:55Z</time></trkpt><trkpt lat="43.78515958699492" lon="12.627552430384378"><ele>124.0</ele><time>2026-04-27T13:47:56Z</time></trkpt><trkpt lat="43.78521265073221" lon="12.627401107080424"><ele>123.6</ele><time>2026-04-27T13:47:57Z</time></trkpt><trkpt lat="43.78526524297127" lon="12.627251397639284"><ele>123.2</ele><time>2026-04-27T13:47:58Z</time></trkpt><trkpt lat="43.78531517209213" lon="12.627107957180867"><ele>122.79999999999998</ele><time>2026-04-27T13:47:59Z</time></trkpt><trkpt lat="43.78536161718458" lon="12.626968215039673"><ele>122.39999999999999</ele><time>2026-04-27T13:48:00Z</time></trkpt><trkpt lat="43.78541709289664" lon="12.626849619419158"><ele>122.0</ele><time>2026-04-27T13:48:01Z</time></trkpt><trkpt lat="43.78544921882398" lon="12.62673019401899"><ele>121.99999999999999</ele><time>2026-04-27T13:48:02Z</time></trkpt><trkpt lat="43.78546542440169" lon="12.626613280338935"><ele>122.0</ele><time>2026-04-27T13:48:03Z</time></trkpt><trkpt lat="43.78544104009442" lon="12.626497260147815"><ele>122.0</ele><time>2026-04-27T13:48:04Z</time></trkpt><trkpt lat="43.785420931694745" lon="12.62638842178277"><ele>122.0</ele><time>2026-04-27T13:48:05Z</time></trkpt><trkpt lat="43.78539737684247" lon="12.626294388681503"><ele>121.99999999999999</ele><time>2026-04-27T13:48:06Z</time></trkpt><trkpt lat="43.785346491637284" lon="12.626193109764472"><ele>122.0</ele><time>2026-04-27T13:48:08Z</time></trkpt><trkpt lat="43.78530352440197" lon="12.626092882832948"><ele>122.0</ele><time>2026-04-27T13:48:12Z</time></trkpt><trkpt lat="43.78528130104336" lon="12.626000050985775"><ele>121.99999999999999</ele><time>2026-04-27T13:48:25Z</time></trkpt><trkpt lat="43.78537596073107" lon="12.62595745319071"><ele>121.99999999999999</ele><time>2026-04-27T13:48:26Z</time></trkpt><trkpt lat="43.785388448828456" lon="12.625826289788337"><ele>122.0</ele><time>2026-04-27T13:48:27Z</time></trkpt><trkpt lat="43.78548921126504" lon="12.625831533229274"><ele>122.0</ele><time>2026-04-27T13:48:28Z</time></trkpt><trkpt lat="43.785558153357954" lon="12.625757947357666"><ele>122.0</ele><time>2026-04-27T13:48:29Z</time></trkpt><trkpt lat="43.78563531911268" lon="12.625676220133771"><ele>121.99999999999999</ele><time>2026-04-27T13:48:30Z</time></trkpt><trkpt lat="43.785720724400186" lon="12.62558324645394"><ele>121.99999999999999</ele><time>2026-04-27T13:48:31Z</time></trkpt><trkpt lat="43.78581144323902" lon="12.625479379148873"><ele>122.0</ele><time>2026-04-27T13:48:32Z</time></trkpt><trkpt lat="43.78590683484228" lon="12.625367371199951"><ele>122.0</ele><time>2026-04-27T13:48:33Z</time></trkpt><trkpt lat="43.78600216967689" lon="12.625252493966851"><ele>119.75</ele><time>2026-04-27T13:48:34Z</time></trkpt><trkpt lat="43.78610157069245" lon="12.625141379605516"><ele>117.5</ele><time>2026-04-27T13:48:35Z</time></trkpt><trkpt lat="43.7861995477899" lon="12.625029547944596"><ele>115.25</ele><time>2026-04-27T13:48:36Z</time></trkpt><trkpt lat="43.786294021787434" lon="12.62492202913592"><ele>113.0</ele><time>2026-04-27T13:48:37Z</time></trkpt><trkpt lat="43.78638288204292" lon="12.624818674156625"><ele>113.0</ele><time>2026-04-27T13:48:38Z</time></trkpt><trkpt lat="43.786462543722735" lon="12.624716039926296"><ele>113.00000000000001</ele><time>2026-04-27T13:48:39Z</time></trkpt><trkpt lat="43.786531294947444" lon="12.624607172653894"><ele>113.00000000000001</ele><time>2026-04-27T13:48:40Z</time></trkpt><trkpt lat="43.7866029355438" lon="12.624502413106793"><ele>113.0</ele><time>2026-04-27T13:48:41Z</time></trkpt><trkpt lat="43.78664231863911" lon="12.624369268224745"><ele>113.0</ele><time>2026-04-27T13:48:42Z</time></trkpt><trkpt lat="43.78665267852531" lon="12.624211478561545"><ele>113.25</ele><time>2026-04-27T13:48:43Z</time></trkpt><trkpt lat="43.786641793151965" lon="12.624048230813168"><ele>113.5</ele><time>2026-04-27T13:48:44Z</time></trkpt><trkpt lat="43.786623293350615" lon="12.623866810616283"><ele>113.75</ele><time>2026-04-27T13:48:45Z</time></trkpt><trkpt lat="43.78658897554352" lon="12.62369128438514"><ele>114.0</ele><time>2026-04-27T13:48:46Z</time></trkpt><trkpt lat="43.786587472833915" lon="12.623504570927867"><ele>114.0</ele><time>2026-04-27T13:48:47Z</time></trkpt><trkpt lat="43.786562825070796" lon="12.623324251586574"><ele>114.0</ele><time>2026-04-27T13:48:48Z</time></trkpt><trkpt lat="43.786576799026356" lon="12.623148275213568"><ele>114.0</ele><time>2026-04-27T13:48:49Z</time></trkpt><trkpt lat="43.78661555146173" lon="12.622984426316577"><ele>114.0</ele><time>2026-04-27T13:48:50Z</time></trkpt><trkpt lat="43.78668286120106" lon="12.622837301218212"><ele>112.75</ele><time>2026-04-27T13:48:51Z</time></trkpt><trkpt lat="43.786773622340455" lon="12.622715504167385"><ele>111.5</ele><time>2026-04-27T13:48:52Z</time></trkpt><trkpt lat="43.786882503353645" lon="12.62262888213502"><ele>110.25</ele><time>2026-04-27T13:48:53Z</time></trkpt><trkpt lat="43.78700141111475" lon="12.622566055835708"><ele>109.0</ele><time>2026-04-27T13:48:54Z</time></trkpt><trkpt lat="43.7871266515544" lon="12.622507934290836"><ele>108.0</ele><time>2026-04-27T13:48:55Z</time></trkpt><trkpt lat="43.787254214850634" lon="12.622447003041048"><ele>107.0</ele><time>2026-04-27T13:48:56Z</time></trkpt><trkpt lat="43.787381550109856" lon="12.622378769572737"><ele>106.0</ele><time>2026-04-27T13:48:57Z</time></trkpt><trkpt lat="43.78750703897793" lon="12.622307438715904"><ele>105.0</ele><time>2026-04-27T13:48:58Z</time></trkpt><trkpt lat="43.7876402383623" lon="12.62226171011481"><ele>105.0</ele><time>2026-04-27T13:48:59Z</time></trkpt><trkpt lat="43.78776288208661" lon="12.622177762905237"><ele>105.0</ele><time>2026-04-27T13:49:00Z</time></trkpt><trkpt lat="43.787897926508" lon="12.622136045436719"><ele>105.0</ele><time>2026-04-27T13:49:01Z</time></trkpt><trkpt lat="43.78804653481562" lon="12.622117356658174"><ele>105.0</ele><time>2026-04-27T13:49:02Z</time></trkpt><trkpt lat="43.788212197548" lon="12.622116221243372"><ele>105.0</ele><time>2026-04-27T13:49:03Z</time></trkpt><trkpt lat="43.78838706560943" lon="12.62211629669886"><ele>105.0</ele><time>2026-04-27T13:49:04Z</time></trkpt><trkpt lat="43.788567307708895" lon="12.622117415647072"><ele>105.0</ele><time>2026-04-27T13:49:05Z</time></trkpt><trkpt lat="43.78875185412199" lon="12.622121826701026"><ele>106.0</ele><time>2026-04-27T13:49:06Z</time></trkpt><trkpt lat="43.78893931017458" lon="12.622124898152437"><ele>107.0</ele><time>2026-04-27T13:49:07Z</time></trkpt><trkpt lat="43.78912748435212" lon="12.6221298710421"><ele>108.0</ele><time>2026-04-27T13:49:08Z</time></trkpt><trkpt lat="43.789314735906835" lon="12.62212821807401"><ele>107.66666666666666</ele><time>2026-04-27T13:49:09Z</time></trkpt><trkpt lat="43.789494353893865" lon="12.622115299004209"><ele>107.33333333333333</ele><time>2026-04-27T13:49:10Z</time></trkpt><trkpt lat="43.78966617999836" lon="12.622087306905879"><ele>107.0</ele><time>2026-04-27T13:49:11Z</time></trkpt><trkpt lat="43.789831872177054" lon="12.62204304710411"><ele>107.0</ele><time>2026-04-27T13:49:12Z</time></trkpt><trkpt lat="43.789998167116664" lon="12.621983085786733"><ele>107.0</ele><time>2026-04-27T13:49:13Z</time></trkpt><trkpt lat="43.79017418808977" lon="12.621943060327187"><ele>107.0</ele><time>2026-04-27T13:49:14Z</time></trkpt><trkpt lat="43.790346008341245" lon="12.621858424916065"><ele>109.66666666666666</ele><time>2026-04-27T13:49:15Z</time></trkpt><trkpt lat="43.79052509124865" lon="12.621795608926496"><ele>112.33333333333334</ele><time>2026-04-27T13:49:16Z</time></trkpt><trkpt lat="43.79070705526312" lon="12.621731499061351"><ele>115.0</ele><time>2026-04-27T13:49:17Z</time></trkpt><trkpt lat="43.79088398762347" lon="12.621668781557219"><ele>113.0</ele><time>2026-04-27T13:49:18Z</time></trkpt><trkpt lat="43.79105152492633" lon="12.621608115711057"><ele>111.0</ele><time>2026-04-27T13:49:19Z</time></trkpt><trkpt lat="43.79121170659648" lon="12.621573783348106"><ele>109.0</ele><time>2026-04-27T13:49:20Z</time></trkpt><trkpt lat="43.79134407775621" lon="12.621500645824762"><ele>109.0</ele><time>2026-04-27T13:49:21Z</time></trkpt><trkpt lat="43.79146564637744" lon="12.62144341316998"><ele>109.0</ele><time>2026-04-27T13:49:22Z</time></trkpt><trkpt lat="43.791577265823534" lon="12.6213581886398"><ele>109.0</ele><time>2026-04-27T13:49:23Z</time></trkpt><trkpt lat="43.79168961205891" lon="12.621237579141138"><ele>109.0</ele><time>2026-04-27T13:49:24Z</time></trkpt><trkpt lat="43.791807132146104" lon="12.621087538859058"><ele>109.33333333333334</ele><time>2026-04-27T13:49:25Z</time></trkpt><trkpt lat="43.79194029557424" lon="12.620939210696248"><ele>109.66666666666666</ele><time>2026-04-27T13:49:26Z</time></trkpt><trkpt lat="43.79205217446006" lon="12.620749240225134"><ele>110.0</ele><time>2026-04-27T13:49:27Z</time></trkpt><trkpt lat="43.79217326725889" lon="12.620563321077363"><ele>110.0</ele><time>2026-04-27T13:49:28Z</time></trkpt><trkpt lat="43.79229010482664" lon="12.620370884485041"><ele>110.0</ele><time>2026-04-27T13:49:29Z</time></trkpt><trkpt lat="43.79240573863602" lon="12.620180063359886"><ele>110.0</ele><time>2026-04-27T13:49:30Z</time></trkpt><trkpt lat="43.792510070029905" lon="12.620004941285215"><ele>110.33333333333333</ele><time>2026-04-27T13:49:31Z</time></trkpt><trkpt lat="43.792607072987174" lon="12.619842167722544"><ele>110.66666666666666</ele><time>2026-04-27T13:49:32Z</time></trkpt><trkpt lat="43.792706217808686" lon="12.619681912984445"><ele>111.0</ele><time>2026-04-27T13:49:33Z</time></trkpt><trkpt lat="43.79280384281473" lon="12.619521371763373"><ele>111.0</ele><time>2026-04-27T13:49:34Z</time></trkpt><trkpt lat="43.79290142851415" lon="12.619364348853848"><ele>111.0</ele><time>2026-04-27T13:49:35Z</time></trkpt><trkpt lat="43.7930045047048" lon="12.619215366437405"><ele>111.0</ele><time>2026-04-27T13:49:36Z</time></trkpt><trkpt lat="43.79311398025269" lon="12.619080051963845"><ele>111.0</ele><time>2026-04-27T13:49:37Z</time></trkpt><trkpt lat="43.79322842019079" lon="12.618974315485994"><ele>111.0</ele><time>2026-04-27T13:49:38Z</time></trkpt><trkpt lat="43.793344468099654" lon="12.618904081546141"><ele>111.0</ele><time>2026-04-27T13:49:39Z</time></trkpt><trkpt lat="43.793465928056776" lon="12.618863592232598"><ele>111.0</ele><time>2026-04-27T13:49:40Z</time></trkpt><trkpt lat="43.793598278986046" lon="12.618840676116314"><ele>111.0</ele><time>2026-04-27T13:49:41Z</time></trkpt><trkpt lat="43.79373838149867" lon="12.618833468351104"><ele>109.5</ele><time>2026-04-27T13:49:42Z</time></trkpt><trkpt lat="43.79388206636819" lon="12.618829195546253"><ele>108.0</ele><time>2026-04-27T13:49:43Z</time></trkpt><trkpt lat="43.79403009339523" lon="12.618823118829676"><ele>106.5</ele><time>2026-04-27T13:49:44Z</time></trkpt><trkpt lat="43.794179040211425" lon="12.61881595872964"><ele>105.0</ele><time>2026-04-27T13:49:45Z</time></trkpt><trkpt lat="43.794329405133006" lon="12.618810731976247"><ele>105.25</ele><time>2026-04-27T13:49:46Z</time></trkpt><trkpt lat="43.79448200929068" lon="12.618805145648503"><ele>105.5</ele><time>2026-04-27T13:49:47Z</time></trkpt><trkpt lat="43.79463406435754" lon="12.618799820070471"><ele>105.75</ele><time>2026-04-27T13:49:48Z</time></trkpt><trkpt lat="43.7947743634289" lon="12.618794484246248"><ele>106.0</ele><time>2026-04-27T13:49:49Z</time></trkpt><trkpt lat="43.794905993739924" lon="12.618791287380676"><ele>106.0</ele><time>2026-04-27T13:49:50Z</time></trkpt><trkpt lat="43.79503637159371" lon="12.61878917664264"><ele>106.0</ele><time>2026-04-27T13:49:51Z</time></trkpt><trkpt lat="43.79517032336913" lon="12.618784314617342"><ele>106.0</ele><time>2026-04-27T13:49:52Z</time></trkpt><trkpt lat="43.79530321771761" lon="12.618777606926354"><ele>106.0</ele><time>2026-04-27T13:49:53Z</time></trkpt><trkpt lat="43.79543436000221" lon="12.618769192508067"><ele>106.19999999999999</ele><time>2026-04-27T13:49:54Z</time></trkpt><trkpt lat="43.795554661333" lon="12.618759738880117"><ele>106.39999999999999</ele><time>2026-04-27T13:49:55Z</time></trkpt><trkpt lat="43.795663837333315" lon="12.61875054445539"><ele>106.6</ele><time>2026-04-27T13:49:56Z</time></trkpt><trkpt lat="43.79576403578688" lon="12.618743535580215"><ele>106.8</ele><time>2026-04-27T13:49:57Z</time></trkpt><trkpt lat="43.79586799732082" lon="12.618734393523944"><ele>107.0</ele><time>2026-04-27T13:49:58Z</time></trkpt><trkpt lat="43.795963674059394" lon="12.618724292828894"><ele>107.16666666666666</ele><time>2026-04-27T13:49:59Z</time></trkpt><trkpt lat="43.79604901230912" lon="12.618740302448332"><ele>107.33333333333333</ele><time>2026-04-27T13:50:00Z</time></trkpt><trkpt lat="43.79612361576643" lon="12.618735677197014"><ele>107.5</ele><time>2026-04-27T13:50:01Z</time></trkpt><trkpt lat="43.79618943530011" lon="12.618732201854412"><ele>107.66666666666666</ele><time>2026-04-27T13:50:02Z</time></trkpt><trkpt lat="43.796256531213075" lon="12.618728486626207"><ele>107.83333333333333</ele><time>2026-04-27T13:50:03Z</time></trkpt><trkpt lat="43.796321841098816" lon="12.618724870126249"><ele>108.0</ele><time>2026-04-27T13:50:04Z</time></trkpt><trkpt lat="43.79638494010787" lon="12.618555640631147"><ele>108.5</ele><time>2026-04-27T13:50:05Z</time></trkpt><trkpt lat="43.79644570150663" lon="12.618452580304702"><ele>109.0</ele><time>2026-04-27T13:50:06Z</time></trkpt><trkpt lat="43.796511992437594" lon="12.618333225258947"><ele>109.5</ele><time>2026-04-27T13:50:07Z</time></trkpt><trkpt lat="43.796585735529064" lon="12.61820270285233"><ele>110.0</ele><time>2026-04-27T13:50:08Z</time></trkpt><trkpt lat="43.796665737262536" lon="12.618066299704294"><ele>110.0</ele><time>2026-04-27T13:50:09Z</time></trkpt><trkpt lat="43.79675062206636" lon="12.617922771184695"><ele>110.0</ele><time>2026-04-27T13:50:10Z</time></trkpt><trkpt lat="43.79683187365862" lon="12.617783399740954"><ele>110.0</ele><time>2026-04-27T13:50:11Z</time></trkpt><trkpt lat="43.796907954765416" lon="12.617658501585145"><ele>110.0</ele><time>2026-04-27T13:50:12Z</time></trkpt><trkpt lat="43.79698101548576" lon="12.617550602678678"><ele>110.25</ele><time>2026-04-27T13:50:13Z</time></trkpt><trkpt lat="43.79706206754388" lon="12.617437912011322"><ele>110.5</ele><time>2026-04-27T13:50:14Z</time></trkpt><trkpt lat="43.79715240456642" lon="12.617312733760732"><ele>110.75</ele><time>2026-04-27T13:50:15Z</time></trkpt><trkpt lat="43.7972571615591" lon="12.617179325782036"><ele>111.0</ele><time>2026-04-27T13:50:16Z</time></trkpt><trkpt lat="43.79737947548063" lon="12.617028569708069"><ele>110.33333333333334</ele><time>2026-04-27T13:50:17Z</time></trkpt><trkpt lat="43.7975127105795" lon="12.61686660865539"><ele>109.66666666666667</ele><time>2026-04-27T13:50:18Z</time></trkpt><trkpt lat="43.797656598241424" lon="12.616694095802892"><ele>109.0</ele><time>2026-04-27T13:50:19Z</time></trkpt><trkpt lat="43.7978075490752" lon="12.61651383599207"><ele>109.0</ele><time>2026-04-27T13:50:20Z</time></trkpt><trkpt lat="43.79796620475047" lon="12.61632472340521"><ele>109.0</ele><time>2026-04-27T13:50:21Z</time></trkpt><trkpt lat="43.79813089297944" lon="12.616128388521998"><ele>109.0</ele><time>2026-04-27T13:50:22Z</time></trkpt><trkpt lat="43.798298888326265" lon="12.615927430695372"><ele>108.0</ele><time>2026-04-27T13:50:23Z</time></trkpt><trkpt lat="43.7984686630654" lon="12.615725257232436"><ele>107.0</ele><time>2026-04-27T13:50:24Z</time></trkpt><trkpt lat="43.79865083698469" lon="12.615538489943491"><ele>107.0</ele><time>2026-04-27T13:50:25Z</time></trkpt><trkpt lat="43.7988138284785" lon="12.615315486537567"><ele>107.0</ele><time>2026-04-27T13:50:26Z</time></trkpt><trkpt lat="43.79898858377762" lon="12.615108243261606"><ele>107.0</ele><time>2026-04-27T13:50:27Z</time></trkpt><trkpt lat="43.79916510766699" lon="12.614898408211916"><ele>107.0</ele><time>2026-04-27T13:50:28Z</time></trkpt><trkpt lat="43.799352940111376" lon="12.614705254698487"><ele>107.0</ele><time>2026-04-27T13:50:29Z</time></trkpt><trkpt lat="43.79953235002413" lon="12.614492149892092"><ele>107.0</ele><time>2026-04-27T13:50:30Z</time></trkpt><trkpt lat="43.799714728409974" lon="12.61427551910963"><ele>107.0</ele><time>2026-04-27T13:50:31Z</time></trkpt><trkpt lat="43.79989878731868" lon="12.614056892763394"><ele>107.0</ele><time>2026-04-27T13:50:32Z</time></trkpt><trkpt lat="43.80008372583137" lon="12.613837221026769"><ele>107.5</ele><time>2026-04-27T13:50:33Z</time></trkpt><trkpt lat="43.80026972616421" lon="12.613616288044868"><ele>108.0</ele><time>2026-04-27T13:50:34Z</time></trkpt><trkpt lat="43.80045492901444" lon="12.613396302350488"><ele>108.0</ele><time>2026-04-27T13:50:35Z</time></trkpt><trkpt lat="43.80063929027712" lon="12.613177316252001"><ele>108.0</ele><time>2026-04-27T13:50:36Z</time></trkpt><trkpt lat="43.800824148334065" lon="12.612957740077835"><ele>108.5</ele><time>2026-04-27T13:50:37Z</time></trkpt><trkpt lat="43.80099729283863" lon="12.612722882766032"><ele>109.0</ele><time>2026-04-27T13:50:38Z</time></trkpt><trkpt lat="43.80118099444139" lon="12.612507232291847"><ele>109.5</ele><time>2026-04-27T13:50:39Z</time></trkpt><trkpt lat="43.80136206450904" lon="12.61229318154333"><ele>110.0</ele><time>2026-04-27T13:50:40Z</time></trkpt><trkpt lat="43.801554016449046" lon="12.612094800274186"><ele>110.0</ele><time>2026-04-27T13:50:41Z</time></trkpt><trkpt lat="43.801722815774" lon="12.611865089796249"><ele>110.0</ele><time>2026-04-27T13:50:42Z</time></trkpt><trkpt lat="43.801898921569915" lon="12.611656415607664"><ele>110.0</ele><time>2026-04-27T13:50:43Z</time></trkpt><trkpt lat="43.80207158262908" lon="12.611449679604615"><ele>110.0</ele><time>2026-04-27T13:50:44Z</time></trkpt><trkpt lat="43.802253314209395" lon="12.611262758471446"><ele>110.0</ele><time>2026-04-27T13:50:45Z</time></trkpt><trkpt lat="43.80242397205744" lon="12.611059705186086"><ele>110.0</ele><time>2026-04-27T13:50:46Z</time></trkpt><trkpt lat="43.80259442986405" lon="12.610856889916116"><ele>110.33333333333333</ele><time>2026-04-27T13:50:47Z</time></trkpt><trkpt lat="43.80275210274087" lon="12.610639439866114"><ele>110.66666666666666</ele><time>2026-04-27T13:50:48Z</time></trkpt><trkpt lat="43.80292049169938" lon="12.610439805221935"><ele>111.0</ele><time>2026-04-27T13:50:49Z</time></trkpt><trkpt lat="43.80308974150442" lon="12.610241206599541"><ele>111.33333333333334</ele><time>2026-04-27T13:50:50Z</time></trkpt><trkpt lat="43.80325722452015" lon="12.610044644419364"><ele>111.66666666666667</ele><time>2026-04-27T13:50:51Z</time></trkpt><trkpt lat="43.80342443096494" lon="12.609849327778957"><ele>112.0</ele><time>2026-04-27T13:50:52Z</time></trkpt><trkpt lat="43.803591901776315" lon="12.60965630284859"><ele>114.33333333333334</ele><time>2026-04-27T13:50:53Z</time></trkpt><trkpt lat="43.80376292726626" lon="12.609472011184039"><ele>116.66666666666666</ele><time>2026-04-27T13:50:54Z</time></trkpt><trkpt lat="43.803936842380594" lon="12.609296731385447"><ele>119.0</ele><time>2026-04-27T13:50:55Z</time></trkpt><trkpt lat="43.80411417204703" lon="12.609131016165511"><ele>119.0</ele><time>2026-04-27T13:50:56Z</time></trkpt><trkpt lat="43.80429891655719" lon="12.608973218779854"><ele>119.0</ele><time>2026-04-27T13:50:57Z</time></trkpt><trkpt lat="43.804486425135174" lon="12.608830835931188"><ele>119.0</ele><time>2026-04-27T13:50:58Z</time></trkpt><trkpt lat="43.804678224999655" lon="12.608700490437236"><ele>119.0</ele><time>2026-04-27T13:50:59Z</time></trkpt><trkpt lat="43.8048713178553" lon="12.60858383947308"><ele>119.0</ele><time>2026-04-27T13:51:00Z</time></trkpt><trkpt lat="43.80506573098036" lon="12.608481827401066"><ele>119.0</ele><time>2026-04-27T13:51:01Z</time></trkpt><trkpt lat="43.80526028269465" lon="12.608392883246461"><ele>119.0</ele><time>2026-04-27T13:51:02Z</time></trkpt><trkpt lat="43.80545374475658" lon="12.608311534850449"><ele>119.0</ele><time>2026-04-27T13:51:03Z</time></trkpt><trkpt lat="43.80564609796806" lon="12.608231191270697"><ele>119.0</ele><time>2026-04-27T13:51:04Z</time></trkpt><trkpt lat="43.805840482127834" lon="12.608155212066537"><ele>119.33333333333333</ele><time>2026-04-27T13:51:05Z</time></trkpt><trkpt lat="43.80603296275864" lon="12.608078543179467"><ele>119.66666666666666</ele><time>2026-04-27T13:51:06Z</time></trkpt><trkpt lat="43.80622450150061" lon="12.608001426895985"><ele>120.0</ele><time>2026-04-27T13:51:07Z</time></trkpt><trkpt lat="43.80641129126844" lon="12.607924204157069"><ele>120.0</ele><time>2026-04-27T13:51:08Z</time></trkpt><trkpt lat="43.80659173721798" lon="12.607849096370543"><ele>120.0</ele><time>2026-04-27T13:51:09Z</time></trkpt><trkpt lat="43.80676908892073" lon="12.60777536599847"><ele>120.0</ele><time>2026-04-27T13:51:10Z</time></trkpt><trkpt lat="43.80694313982335" lon="12.607706474006728"><ele>120.66666666666666</ele><time>2026-04-27T13:51:11Z</time></trkpt><trkpt lat="43.807111957412445" lon="12.607637764904782"><ele>121.33333333333333</ele><time>2026-04-27T13:51:12Z</time></trkpt><trkpt lat="43.80727685075159" lon="12.607569322831099"><ele>122.0</ele><time>2026-04-27T13:51:13Z</time></trkpt><trkpt lat="43.80744377295555" lon="12.607500272686137"><ele>122.0</ele><time>2026-04-27T13:51:14Z</time></trkpt><trkpt lat="43.807609700871375" lon="12.607432142139485"><ele>122.0</ele><time>2026-04-27T13:51:15Z</time></trkpt><trkpt lat="43.807775597443296" lon="12.607365221316886"><ele>122.0</ele><time>2026-04-27T13:51:16Z</time></trkpt><trkpt lat="43.80794342434778" lon="12.607300526376948"><ele>122.66666666666666</ele><time>2026-04-27T13:51:17Z</time></trkpt><trkpt lat="43.80810996181176" lon="12.607233300788085"><ele>123.33333333333334</ele><time>2026-04-27T13:51:18Z</time></trkpt><trkpt lat="43.80827720039011" lon="12.607164872356861"><ele>124.0</ele><time>2026-04-27T13:51:19Z</time></trkpt><trkpt lat="43.80844635371201" lon="12.607094548718079"><ele>124.33333333333334</ele><time>2026-04-27T13:51:20Z</time></trkpt><trkpt lat="43.808613887639794" lon="12.60702044824695"><ele>124.66666666666666</ele><time>2026-04-27T13:51:21Z</time></trkpt><trkpt lat="43.808779006724826" lon="12.606937692041107"><ele>125.0</ele><time>2026-04-27T13:51:22Z</time></trkpt><trkpt lat="43.80894178605303" lon="12.606845268671623"><ele>125.0</ele><time>2026-04-27T13:51:23Z</time></trkpt><trkpt lat="43.809101871775134" lon="12.60673942429987"><ele>125.0</ele><time>2026-04-27T13:51:24Z</time></trkpt><trkpt lat="43.809253730327086" lon="12.606625492734409"><ele>125.0</ele><time>2026-04-27T13:51:25Z</time></trkpt><trkpt lat="43.80939640076703" lon="12.606508017602323"><ele>125.0</ele><time>2026-04-27T13:51:26Z</time></trkpt><trkpt lat="43.80952822934867" lon="12.606383922231998"><ele>125.0</ele><time>2026-04-27T13:51:27Z</time></trkpt><trkpt lat="43.80965366559893" lon="12.606249567662351"><ele>125.0</ele><time>2026-04-27T13:51:28Z</time></trkpt><trkpt lat="43.80977496490656" lon="12.606113259379534"><ele>124.66666666666666</ele><time>2026-04-27T13:51:29Z</time></trkpt><trkpt lat="43.80990275931158" lon="12.605976718716727"><ele>124.33333333333334</ele><time>2026-04-27T13:51:30Z</time></trkpt><trkpt lat="43.81002852528975" lon="12.605831055216232"><ele>124.0</ele><time>2026-04-27T13:51:31Z</time></trkpt><trkpt lat="43.81015203918823" lon="12.605674078022428"><ele>125.0</ele><time>2026-04-27T13:51:32Z</time></trkpt><trkpt lat="43.810238225155416" lon="12.60547805818414"><ele>126.0</ele><time>2026-04-27T13:51:33Z</time></trkpt><trkpt lat="43.810341806131696" lon="12.605296512620379"><ele>127.0</ele><time>2026-04-27T13:51:34Z</time></trkpt><trkpt lat="43.81043518299398" lon="12.60510924075828"><ele>127.0</ele><time>2026-04-27T13:51:35Z</time></trkpt><trkpt lat="43.81051894225931" lon="12.604921374140972"><ele>127.0</ele><time>2026-04-27T13:51:36Z</time></trkpt><trkpt lat="43.81059788228544" lon="12.604736834629755"><ele>127.0</ele><time>2026-04-27T13:51:37Z</time></trkpt><trkpt lat="43.810665268901694" lon="12.604545832211025"><ele>126.33333333333334</ele><time>2026-04-27T13:51:38Z</time></trkpt><trkpt lat="43.81072532942631" lon="12.604356778858723"><ele>125.66666666666666</ele><time>2026-04-27T13:51:39Z</time></trkpt><trkpt lat="43.810778511120574" lon="12.604158255187473"><ele>125.0</ele><time>2026-04-27T13:51:40Z</time></trkpt><trkpt lat="43.81082961737321" lon="12.603957058451131"><ele>125.0</ele><time>2026-04-27T13:51:41Z</time></trkpt><trkpt lat="43.81087642986677" lon="12.6037541876084"><ele>125.0</ele><time>2026-04-27T13:51:42Z</time></trkpt><trkpt lat="43.810922064061586" lon="12.603548025005836"><ele>125.0</ele><time>2026-04-27T13:51:43Z</time></trkpt><trkpt lat="43.810965256799236" lon="12.60333420616929"><ele>127.0</ele><time>2026-04-27T13:51:44Z</time></trkpt><trkpt lat="43.81101412511472" lon="12.603120225385615"><ele>129.0</ele><time>2026-04-27T13:51:45Z</time></trkpt><trkpt lat="43.81105990545521" lon="12.602914685309099"><ele>131.0</ele><time>2026-04-27T13:51:46Z</time></trkpt><trkpt lat="43.811103232424266" lon="12.602721473560829"><ele>131.0</ele><time>2026-04-27T13:51:47Z</time></trkpt><trkpt lat="43.81113575459885" lon="12.602538263012685"><ele>131.0</ele><time>2026-04-27T13:51:48Z</time></trkpt><trkpt lat="43.81116518920245" lon="12.602364498861128"><ele>131.0</ele><time>2026-04-27T13:51:49Z</time></trkpt><trkpt lat="43.81119254169095" lon="12.602208975261123"><ele>131.0</ele><time>2026-04-27T13:51:50Z</time></trkpt><trkpt lat="43.81122053352497" lon="12.602067456163258"><ele>131.0</ele><time>2026-04-27T13:51:51Z</time></trkpt><trkpt lat="43.8112590710701" lon="12.601949635398938"><ele>131.0</ele><time>2026-04-27T13:51:52Z</time></trkpt><trkpt lat="43.81131126013971" lon="12.601863171885684"><ele>131.0</ele><time>2026-04-27T13:51:53Z</time></trkpt><trkpt lat="43.81138413527727" lon="12.601796757182047"><ele>131.0</ele><time>2026-04-27T13:51:54Z</time></trkpt><trkpt lat="43.81147767228203" lon="12.60175867022333"><ele>131.0</ele><time>2026-04-27T13:51:55Z</time></trkpt><trkpt lat="43.81158063134453" lon="12.601757238718113"><ele>131.0</ele><time>2026-04-27T13:51:56Z</time></trkpt><trkpt lat="43.81168828098962" lon="12.601739115061028"><ele>131.0</ele><time>2026-04-27T13:51:57Z</time></trkpt><trkpt lat="43.81180051500087" lon="12.601720963372028"><ele>131.0</ele><time>2026-04-27T13:51:58Z</time></trkpt><trkpt lat="43.81192075072058" lon="12.601702863124446"><ele>131.0</ele><time>2026-04-27T13:51:59Z</time></trkpt><trkpt lat="43.81204328946169" lon="12.601685526542981"><ele>132.33333333333331</ele><time>2026-04-27T13:52:00Z</time></trkpt><trkpt lat="43.81214497733259" lon="12.601641706170602"><ele>133.66666666666666</ele><time>2026-04-27T13:52:01Z</time></trkpt><trkpt lat="43.81224618077278" lon="12.601653757783891"><ele>135.0</ele><time>2026-04-27T13:52:02Z</time></trkpt><trkpt lat="43.812324619239114" lon="12.601616324624562"><ele>136.33333333333334</ele><time>2026-04-27T13:52:03Z</time></trkpt><trkpt lat="43.812380440053076" lon="12.601548982791984"><ele>137.66666666666669</ele><time>2026-04-27T13:52:04Z</time></trkpt><trkpt lat="43.81243670783589" lon="12.601472890497394"><ele>139.0</ele><time>2026-04-27T13:52:05Z</time></trkpt><trkpt lat="43.812447051828336" lon="12.601328251312054"><ele>139.0</ele><time>2026-04-27T13:52:06Z</time></trkpt><trkpt lat="43.81245828083343" lon="12.601180508419002"><ele>139.0</ele><time>2026-04-27T13:52:07Z</time></trkpt><trkpt lat="43.812452257403365" lon="12.601016303606281"><ele>139.0</ele><time>2026-04-27T13:52:08Z</time></trkpt><trkpt lat="43.81244495462854" lon="12.600839777552922"><ele>139.0</ele><time>2026-04-27T13:52:09Z</time></trkpt><trkpt lat="43.81243789165089" lon="12.600654718444343"><ele>139.0</ele><time>2026-04-27T13:52:10Z</time></trkpt><trkpt lat="43.812431133414805" lon="12.60046080601535"><ele>139.0</ele><time>2026-04-27T13:52:11Z</time></trkpt><trkpt lat="43.8124229427434" lon="12.60027963873576"><ele>139.0</ele><time>2026-04-27T13:52:12Z</time></trkpt><trkpt lat="43.812417792593365" lon="12.60011193100361"><ele>139.0</ele><time>2026-04-27T13:52:13Z</time></trkpt><trkpt lat="43.812418314467294" lon="12.599953484290673"><ele>139.0</ele><time>2026-04-27T13:52:14Z</time></trkpt><trkpt lat="43.812446130944686" lon="12.599814683934044"><ele>139.0</ele><time>2026-04-27T13:52:15Z</time></trkpt><trkpt lat="43.81246503696395" lon="12.599690551205592"><ele>139.0</ele><time>2026-04-27T13:52:16Z</time></trkpt><trkpt lat="43.81247696019414" lon="12.599574856501636"><ele>139.0</ele><time>2026-04-27T13:52:17Z</time></trkpt><trkpt lat="43.812523687846344" lon="12.599479018537707"><ele>139.0</ele><time>2026-04-27T13:52:18Z</time></trkpt><trkpt lat="43.812592973071965" lon="12.599389972107366"><ele>140.0</ele><time>2026-04-27T13:52:19Z</time></trkpt><trkpt lat="43.81267577576692" lon="12.599332029565321"><ele>141.0</ele><time>2026-04-27T13:52:20Z</time></trkpt><trkpt lat="43.812771722012215" lon="12.599298292206177"><ele>142.0</ele><time>2026-04-27T13:52:21Z</time></trkpt><trkpt lat="43.812883581713656" lon="12.59928580504397"><ele>143.0</ele><time>2026-04-27T13:52:22Z</time></trkpt><trkpt lat="43.813003775091765" lon="12.599302007670733"><ele>144.0</ele><time>2026-04-27T13:52:23Z</time></trkpt><trkpt lat="43.81312989952117" lon="12.599339001165875"><ele>144.0</ele><time>2026-04-27T13:52:24Z</time></trkpt><trkpt lat="43.813270941528025" lon="12.59938190848908"><ele>144.0</ele><time>2026-04-27T13:52:25Z</time></trkpt><trkpt lat="43.813423995403916" lon="12.599431573696423"><ele>144.0</ele><time>2026-04-27T13:52:26Z</time></trkpt><trkpt lat="43.81358303586124" lon="12.599483573435954"><ele>145.66666666666666</ele><time>2026-04-27T13:52:27Z</time></trkpt><trkpt lat="43.81374954034366" lon="12.599533627851768"><ele>147.33333333333331</ele><time>2026-04-27T13:52:28Z</time></trkpt><trkpt lat="43.81392226842251" lon="12.59958818518893"><ele>149.0</ele><time>2026-04-27T13:52:29Z</time></trkpt><trkpt lat="43.814102223164426" lon="12.599644006205608"><ele>149.0</ele><time>2026-04-27T13:52:30Z</time></trkpt><trkpt lat="43.81428760326358" lon="12.599698446391022"><ele>149.0</ele><time>2026-04-27T13:52:31Z</time></trkpt><trkpt lat="43.814479729639025" lon="12.599753167336345"><ele>149.0</ele><time>2026-04-27T13:52:32Z</time></trkpt><trkpt lat="43.81467456566743" lon="12.599808916351506"><ele>150.0</ele><time>2026-04-27T13:52:33Z</time></trkpt><trkpt lat="43.81486502791759" lon="12.599866606832176"><ele>151.0</ele><time>2026-04-27T13:52:34Z</time></trkpt><trkpt lat="43.815047261721176" lon="12.59992378919369"><ele>152.0</ele><time>2026-04-27T13:52:35Z</time></trkpt><trkpt lat="43.81521721430348" lon="12.599976201744164"><ele>153.0</ele><time>2026-04-27T13:52:36Z</time></trkpt><trkpt lat="43.81537353461886" lon="12.600021985453772"><ele>154.0</ele><time>2026-04-27T13:52:37Z</time></trkpt><trkpt lat="43.81551661538806" lon="12.600063408767014"><ele>155.0</ele><time>2026-04-27T13:52:38Z</time></trkpt><trkpt lat="43.81564116518786" lon="12.600101891036891"><ele>156.0</ele><time>2026-04-27T13:52:39Z</time></trkpt><trkpt lat="43.8157596709758" lon="12.60013724395486"><ele>156.0</ele><time>2026-04-27T13:52:40Z</time></trkpt><trkpt lat="43.81587468946009" lon="12.600181578695437"><ele>156.0</ele><time>2026-04-27T13:52:41Z</time></trkpt><trkpt lat="43.81598154407206" lon="12.600244045278593"><ele>156.0</ele><time>2026-04-27T13:52:42Z</time></trkpt><trkpt lat="43.81608034729761" lon="12.600329145819268"><ele>156.0</ele><time>2026-04-27T13:52:43Z</time></trkpt><trkpt lat="43.816168017202024" lon="12.600439189987158"><ele>159.25</ele><time>2026-04-27T13:52:44Z</time></trkpt><trkpt lat="43.81624434557388" lon="12.600565543807763"><ele>162.5</ele><time>2026-04-27T13:52:45Z</time></trkpt><trkpt lat="43.81630774534717" lon="12.600711549021336"><ele>165.75</ele><time>2026-04-27T13:52:46Z</time></trkpt><trkpt lat="43.816351449556514" lon="12.600873433610246"><ele>169.0</ele><time>2026-04-27T13:52:47Z</time></trkpt><trkpt lat="43.81637241105128" lon="12.601045596867394"><ele>170.25</ele><time>2026-04-27T13:52:48Z</time></trkpt><trkpt lat="43.816377883727924" lon="12.60123535338587"><ele>171.5</ele><time>2026-04-27T13:52:49Z</time></trkpt><trkpt lat="43.81636496106558" lon="12.601431026250644"><ele>172.75</ele><time>2026-04-27T13:52:50Z</time></trkpt><trkpt lat="43.81633824750557" lon="12.601638873334188"><ele>174.0</ele><time>2026-04-27T13:52:51Z</time></trkpt><trkpt lat="43.816308000979" lon="12.601859180848063"><ele>176.0</ele><time>2026-04-27T13:52:52Z</time></trkpt><trkpt lat="43.8162810497392" lon="12.602094420638995"><ele>178.0</ele><time>2026-04-27T13:52:53Z</time></trkpt><trkpt lat="43.816246569001535" lon="12.602342931626694"><ele>180.0</ele><time>2026-04-27T13:52:54Z</time></trkpt><trkpt lat="43.816215605089916" lon="12.602593632959929"><ele>182.0</ele><time>2026-04-27T13:52:55Z</time></trkpt><trkpt lat="43.81618740840071" lon="12.602838780867025"><ele>184.0</ele><time>2026-04-27T13:52:56Z</time></trkpt><trkpt lat="43.816159765854245" lon="12.603074723747667"><ele>186.0</ele><time>2026-04-27T13:52:57Z</time></trkpt><trkpt lat="43.8161325020883" lon="12.60330448286837"><ele>186.0</ele><time>2026-04-27T13:52:58Z</time></trkpt><trkpt lat="43.816107064329" lon="12.603526464299595"><ele>186.0</ele><time>2026-04-27T13:52:59Z</time></trkpt><trkpt lat="43.81608094968479" lon="12.6037490103669"><ele>186.0</ele><time>2026-04-27T13:53:00Z</time></trkpt><trkpt lat="43.816055639187724" lon="12.603971287485361"><ele>184.33333333333334</ele><time>2026-04-27T13:53:01Z</time></trkpt><trkpt lat="43.81602830651074" lon="12.604187946934482"><ele>182.66666666666669</ele><time>2026-04-27T13:53:02Z</time></trkpt><trkpt lat="43.81600160235533" lon="12.604406407234444"><ele>181.0</ele><time>2026-04-27T13:53:03Z</time></trkpt><trkpt lat="43.81597689778736" lon="12.604624894079304"><ele>181.0</ele><time>2026-04-27T13:53:04Z</time></trkpt><trkpt lat="43.81595088299137" lon="12.604833992845784"><ele>181.0</ele><time>2026-04-27T13:53:05Z</time></trkpt><trkpt lat="43.81592638727147" lon="12.605023429977985"><ele>181.0</ele><time>2026-04-27T13:53:06Z</time></trkpt><trkpt lat="43.81590566045666" lon="12.605189430015562"><ele>181.0</ele><time>2026-04-27T13:53:07Z</time></trkpt><trkpt lat="43.815886802318005" lon="12.605340073075936"><ele>181.0</ele><time>2026-04-27T13:53:08Z</time></trkpt><trkpt lat="43.81587263761819" lon="12.6054829717486"><ele>181.0</ele><time>2026-04-27T13:53:09Z</time></trkpt><trkpt lat="43.81586971206234" lon="12.605603113708746"><ele>181.0</ele><time>2026-04-27T13:53:10Z</time></trkpt><trkpt lat="43.81588474712298" lon="12.605711594246724"><ele>181.0</ele><time>2026-04-27T13:53:11Z</time></trkpt><trkpt lat="43.81592092168884" lon="12.605811412401703"><ele>181.0</ele><time>2026-04-27T13:53:12Z</time></trkpt><trkpt lat="43.815974924521036" lon="12.60588592251919"><ele>181.0</ele><time>2026-04-27T13:53:13Z</time></trkpt><trkpt lat="43.81604526489698" lon="12.605914234917217"><ele>185.0</ele><time>2026-04-27T13:53:14Z</time></trkpt><trkpt lat="43.8161264465325" lon="12.605904662458032"><ele>189.0</ele><time>2026-04-27T13:53:15Z</time></trkpt><trkpt lat="43.8161991221259" lon="12.605856547297568"><ele>193.0</ele><time>2026-04-27T13:53:16Z</time></trkpt><trkpt lat="43.81625518777314" lon="12.605766631332605"><ele>197.0</ele><time>2026-04-27T13:53:17Z</time></trkpt><trkpt lat="43.8163016579141" lon="12.605643075016301"><ele>201.0</ele><time>2026-04-27T13:53:18Z</time></trkpt><trkpt lat="43.81634678437968" lon="12.605498123342093"><ele>201.0</ele><time>2026-04-27T13:53:19Z</time></trkpt><trkpt lat="43.81639916004002" lon="12.605331302074747"><ele>201.0</ele><time>2026-04-27T13:53:20Z</time></trkpt><trkpt lat="43.81645573538184" lon="12.605152027525806"><ele>201.0</ele><time>2026-04-27T13:53:21Z</time></trkpt><trkpt lat="43.81651697232752" lon="12.604975120384262"><ele>201.0</ele><time>2026-04-27T13:53:22Z</time></trkpt><trkpt lat="43.816590353374124" lon="12.604809245442093"><ele>201.75</ele><time>2026-04-27T13:53:23Z</time></trkpt><trkpt lat="43.81667611367304" lon="12.604668060554431"><ele>202.5</ele><time>2026-04-27T13:53:24Z</time></trkpt><trkpt lat="43.816776158041755" lon="12.604545038409285"><ele>203.25</ele><time>2026-04-27T13:53:25Z</time></trkpt><trkpt lat="43.81688850110201" lon="12.604437980142672"><ele>204.0</ele><time>2026-04-27T13:53:26Z</time></trkpt><trkpt lat="43.817006718933435" lon="12.604343399513015"><ele>205.75</ele><time>2026-04-27T13:53:27Z</time></trkpt><trkpt lat="43.81711737255568" lon="12.604251538892871"><ele>207.5</ele><time>2026-04-27T13:53:28Z</time></trkpt><trkpt lat="43.81721627654923" lon="12.604161861646675"><ele>209.25</ele><time>2026-04-27T13:53:29Z</time></trkpt><trkpt lat="43.817294603835094" lon="12.604068607201691"><ele>211.0</ele><time>2026-04-27T13:53:30Z</time></trkpt><trkpt lat="43.81735681656308" lon="12.603954097588337"><ele>211.0</ele><time>2026-04-27T13:53:31Z</time></trkpt><trkpt lat="43.81739220240386" lon="12.603816000267802"><ele>211.0</ele><time>2026-04-27T13:53:32Z</time></trkpt><trkpt lat="43.817412151606874" lon="12.60366062830265"><ele>211.0</ele><time>2026-04-27T13:53:33Z</time></trkpt><trkpt lat="43.817440249267804" lon="12.603500002413211"><ele>211.0</ele><time>2026-04-27T13:53:34Z</time></trkpt><trkpt lat="43.817457724635894" lon="12.603345911301679"><ele>210.75</ele><time>2026-04-27T13:53:35Z</time></trkpt><trkpt lat="43.81748790671485" lon="12.60321072986766"><ele>210.5</ele><time>2026-04-27T13:53:36Z</time></trkpt><trkpt lat="43.81752004771063" lon="12.603060406616706"><ele>210.25</ele><time>2026-04-27T13:53:37Z</time></trkpt><trkpt lat="43.81758998002223" lon="12.602912472897415"><ele>210.0</ele><time>2026-04-27T13:53:38Z</time></trkpt><trkpt lat="43.81767071139657" lon="12.602758105826402"><ele>214.0</ele><time>2026-04-27T13:53:39Z</time></trkpt><trkpt lat="43.81775086215372" lon="12.6025958742354"><ele>218.0</ele><time>2026-04-27T13:53:40Z</time></trkpt><trkpt lat="43.817821175807794" lon="12.602445369532374"><ele>222.0</ele><time>2026-04-27T13:53:41Z</time></trkpt><trkpt lat="43.817886451190596" lon="12.602320961824624"><ele>226.0</ele><time>2026-04-27T13:53:41.999Z</time></trkpt><trkpt lat="43.81796222805227" lon="12.602206698602936"><ele>226.0</ele><time>2026-04-27T13:53:42.999Z</time></trkpt><trkpt lat="43.81805289903464" lon="12.602124813359577"><ele>226.0</ele><time>2026-04-27T13:53:43.999Z</time></trkpt><trkpt lat="43.81816264918974" lon="12.602078199446137"><ele>226.0</ele><time>2026-04-27T13:53:44.999Z</time></trkpt><trkpt lat="43.81827285839142" lon="12.602068705383992"><ele>226.0</ele><time>2026-04-27T13:53:45.999Z</time></trkpt><trkpt lat="43.81838709929296" lon="12.60210408779977"><ele>226.0</ele><time>2026-04-27T13:53:46.999Z</time></trkpt><trkpt lat="43.81850594851095" lon="12.602173736098184"><ele>226.0</ele><time>2026-04-27T13:53:47.999Z</time></trkpt><trkpt lat="43.81862795400742" lon="12.602256494602416"><ele>226.0</ele><time>2026-04-27T13:53:49Z</time></trkpt><trkpt lat="43.818760999988484" lon="12.602336079776366"><ele>226.0</ele><time>2026-04-27T13:53:50Z</time></trkpt><trkpt lat="43.818901319122354" lon="12.602419710268082"><ele>226.0</ele><time>2026-04-27T13:53:51Z</time></trkpt><trkpt lat="43.819043565916076" lon="12.602503891285679"><ele>226.0</ele><time>2026-04-27T13:53:52Z</time></trkpt><trkpt lat="43.81917321294996" lon="12.602578841150294"><ele>226.0</ele><time>2026-04-27T13:53:53Z</time></trkpt><trkpt lat="43.81929069720607" lon="12.602648448119895"><ele>226.0</ele><time>2026-04-27T13:53:54Z</time></trkpt><trkpt lat="43.819395919326446" lon="12.602720029943233"><ele>226.5</ele><time>2026-04-27T13:53:55Z</time></trkpt><trkpt lat="43.81948995401502" lon="12.6027989487622"><ele>227.0</ele><time>2026-04-27T13:53:56Z</time></trkpt><trkpt lat="43.819567808218586" lon="12.602900721233715"><ele>227.5</ele><time>2026-04-27T13:53:57Z</time></trkpt><trkpt lat="43.819632722922215" lon="12.603034857765266"><ele>228.0</ele><time>2026-04-27T13:53:58Z</time></trkpt><trkpt lat="43.819674841964705" lon="12.603190382490006"><ele>228.0</ele><time>2026-04-27T13:53:59Z</time></trkpt><trkpt lat="43.81969132598457" lon="12.603354167090892"><ele>228.0</ele><time>2026-04-27T13:54:00Z</time></trkpt><trkpt lat="43.81968220613689" lon="12.603524924691934"><ele>228.0</ele><time>2026-04-27T13:54:01Z</time></trkpt><trkpt lat="43.819652781575954" lon="12.603700234984412"><ele>228.0</ele><time>2026-04-27T13:54:02Z</time></trkpt><trkpt lat="43.81960766354779" lon="12.60387810199852"><ele>229.5</ele><time>2026-04-27T13:54:03Z</time></trkpt><trkpt lat="43.819547566382965" lon="12.60404902202716"><ele>231.0</ele><time>2026-04-27T13:54:04Z</time></trkpt><trkpt lat="43.81947143642262" lon="12.604207567366155"><ele>232.5</ele><time>2026-04-27T13:54:05Z</time></trkpt><trkpt lat="43.819380118547706" lon="12.60434443609519"><ele>234.0</ele><time>2026-04-27T13:54:06Z</time></trkpt><trkpt lat="43.81928124753176" lon="12.604463194410595"><ele>236.0</ele><time>2026-04-27T13:54:07Z</time></trkpt><trkpt lat="43.81918172409318" lon="12.604570800411388"><ele>238.0</ele><time>2026-04-27T13:54:08Z</time></trkpt><trkpt lat="43.81909107525845" lon="12.60469125449482"><ele>240.0</ele><time>2026-04-27T13:54:09Z</time></trkpt><trkpt lat="43.819012968587955" lon="12.604822778877299"><ele>242.0</ele><time>2026-04-27T13:54:10Z</time></trkpt><trkpt lat="43.81895090544419" lon="12.604963591885149"><ele>242.0</ele><time>2026-04-27T13:54:11Z</time></trkpt><trkpt lat="43.81890156039253" lon="12.605117685442055"><ele>242.0</ele><time>2026-04-27T13:54:12Z</time></trkpt><trkpt lat="43.818858618629896" lon="12.605280332196779"><ele>242.0</ele><time>2026-04-27T13:54:13Z</time></trkpt><trkpt lat="43.8188282618226" lon="12.60543321001757"><ele>242.0</ele><time>2026-04-27T13:54:14Z</time></trkpt><trkpt lat="43.81881040549888" lon="12.605578888764411"><ele>243.75</ele><time>2026-04-27T13:54:15Z</time></trkpt><trkpt lat="43.81881398482659" lon="12.605731726098204"><ele>245.5</ele><time>2026-04-27T13:54:16Z</time></trkpt><trkpt lat="43.818842671999164" lon="12.605886332948534"><ele>247.25</ele><time>2026-04-27T13:54:17Z</time></trkpt><trkpt lat="43.818900020939196" lon="12.606025232925216"><ele>249.0</ele><time>2026-04-27T13:54:18Z</time></trkpt><trkpt lat="43.8189817065052" lon="12.606148124324074"><ele>249.75</ele><time>2026-04-27T13:54:19Z</time></trkpt><trkpt lat="43.81908565168238" lon="12.606239080215676"><ele>250.5</ele><time>2026-04-27T13:54:20Z</time></trkpt><trkpt lat="43.819207745247134" lon="12.606306227156553"><ele>251.25</ele><time>2026-04-27T13:54:21Z</time></trkpt><trkpt lat="43.81933961004036" lon="12.60635502672563"><ele>252.0</ele><time>2026-04-27T13:54:22Z</time></trkpt><trkpt lat="43.81947538853088" lon="12.606399694064347"><ele>253.75</ele><time>2026-04-27T13:54:23Z</time></trkpt><trkpt lat="43.819608961946784" lon="12.606455736485257"><ele>255.5</ele><time>2026-04-27T13:54:24Z</time></trkpt><trkpt lat="43.8197417918984" lon="12.606527915668027"><ele>257.25</ele><time>2026-04-27T13:54:25Z</time></trkpt><trkpt lat="43.81987142688156" lon="12.606625175132722"><ele>259.0</ele><time>2026-04-27T13:54:26Z</time></trkpt><trkpt lat="43.81999897755509" lon="12.606749355880806"><ele>259.0</ele><time>2026-04-27T13:54:27Z</time></trkpt><trkpt lat="43.820127736908574" lon="12.606885983010882"><ele>259.0</ele><time>2026-04-27T13:54:28Z</time></trkpt><trkpt lat="43.82025614643748" lon="12.607019135501945"><ele>259.0</ele><time>2026-04-27T13:54:29Z</time></trkpt><trkpt lat="43.820385490542364" lon="12.607152078639384"><ele>262.0</ele><time>2026-04-27T13:54:30Z</time></trkpt><trkpt lat="43.82051318604617" lon="12.607283551277412"><ele>265.0</ele><time>2026-04-27T13:54:31Z</time></trkpt><trkpt lat="43.82062773273094" lon="12.6073986667902"><ele>268.0</ele><time>2026-04-27T13:54:32Z</time></trkpt><trkpt lat="43.82072877773693" lon="12.607492619981054"><ele>271.0</ele><time>2026-04-27T13:54:33Z</time></trkpt><trkpt lat="43.82081696540539" lon="12.607569177244539"><ele>271.0</ele><time>2026-04-27T13:54:34Z</time></trkpt><trkpt lat="43.820910239179256" lon="12.607622079848445"><ele>271.0</ele><time>2026-04-27T13:54:35Z</time></trkpt><trkpt lat="43.82101500715362" lon="12.607639349166806"><ele>271.0</ele><time>2026-04-27T13:54:36Z</time></trkpt><trkpt lat="43.82113090517867" lon="12.607621098054388"><ele>271.0</ele><time>2026-04-27T13:54:37Z</time></trkpt><trkpt lat="43.82125618684642" lon="12.607581373202633"><ele>272.0</ele><time>2026-04-27T13:54:38Z</time></trkpt><trkpt lat="43.821390390672235" lon="12.607537590991868"><ele>273.0</ele><time>2026-04-27T13:54:39Z</time></trkpt><trkpt lat="43.82153919927528" lon="12.607493534535031"><ele>274.0</ele><time>2026-04-27T13:54:40Z</time></trkpt><trkpt lat="43.821691885398494" lon="12.60744857693686"><ele>275.0</ele><time>2026-04-27T13:54:41Z</time></trkpt><trkpt lat="43.82183631248155" lon="12.607413498170523"><ele>277.0</ele><time>2026-04-27T13:54:42Z</time></trkpt><trkpt lat="43.82196783023972" lon="12.607380453163348"><ele>279.0</ele><time>2026-04-27T13:54:43Z</time></trkpt><trkpt lat="43.82209622884755" lon="12.607353137583294"><ele>281.0</ele><time>2026-04-27T13:54:44Z</time></trkpt><trkpt lat="43.82221910690345" lon="12.607337929146503"><ele>283.0</ele><time>2026-04-27T13:54:45Z</time></trkpt><trkpt lat="43.822325818557026" lon="12.607343353187984"><ele>283.0</ele><time>2026-04-27T13:54:46Z</time></trkpt><trkpt lat="43.822429731019966" lon="12.607376634855854"><ele>283.0</ele><time>2026-04-27T13:54:47Z</time></trkpt><trkpt lat="43.82252502878183" lon="12.607448488155347"><ele>283.0</ele><time>2026-04-27T13:54:48Z</time></trkpt><trkpt lat="43.82261084504773" lon="12.607546689539612"><ele>283.0</ele><time>2026-04-27T13:54:49Z</time></trkpt><trkpt lat="43.822687494295515" lon="12.607655818947462"><ele>283.0</ele><time>2026-04-27T13:54:50Z</time></trkpt><trkpt lat="43.822764806661375" lon="12.607749794320215"><ele>283.5</ele><time>2026-04-27T13:54:51Z</time></trkpt><trkpt lat="43.822855282346936" lon="12.607804766684247"><ele>284.0</ele><time>2026-04-27T13:54:52Z</time></trkpt><trkpt lat="43.82296408030573" lon="12.60782425922861"><ele>284.5</ele><time>2026-04-27T13:54:53Z</time></trkpt><trkpt lat="43.823084481421326" lon="12.607825779404045"><ele>285.0</ele><time>2026-04-27T13:54:54Z</time></trkpt><trkpt lat="43.823216835259835" lon="12.60781993427885"><ele>285.0</ele><time>2026-04-27T13:54:55Z</time></trkpt><trkpt lat="43.82335884397257" lon="12.607815349355556"><ele>285.0</ele><time>2026-04-27T13:54:56Z</time></trkpt><trkpt lat="43.82351284078273" lon="12.607818749970942"><ele>285.0</ele><time>2026-04-27T13:54:57Z</time></trkpt><trkpt lat="43.82366847435979" lon="12.60781742412694"><ele>287.6666666666667</ele><time>2026-04-27T13:54:58Z</time></trkpt><trkpt lat="43.82382383503567" lon="12.607817238007009"><ele>290.33333333333337</ele><time>2026-04-27T13:54:59Z</time></trkpt><trkpt lat="43.82397897293868" lon="12.60781501961717"><ele>293.0</ele><time>2026-04-27T13:55:00Z</time></trkpt><trkpt lat="43.82413310656964" lon="12.607791991423456"><ele>293.0</ele><time>2026-04-27T13:55:01Z</time></trkpt><trkpt lat="43.824273237906446" lon="12.607753352770455"><ele>293.0</ele><time>2026-04-27T13:55:02Z</time></trkpt><trkpt lat="43.824392630864466" lon="12.607712921934368"><ele>293.0</ele><time>2026-04-27T13:55:03Z</time></trkpt><trkpt lat="43.82449738177784" lon="12.607675845703437"><ele>293.0</ele><time>2026-04-27T13:55:04Z</time></trkpt><trkpt lat="43.82459079261724" lon="12.607670630436008"><ele>292.6666666666667</ele><time>2026-04-27T13:55:05Z</time></trkpt><trkpt lat="43.82466709600921" lon="12.607639757387265"><ele>292.33333333333337</ele><time>2026-04-27T13:55:06Z</time></trkpt><trkpt lat="43.82474407221466" lon="12.607661700989027"><ele>292.0</ele><time>2026-04-27T13:55:07Z</time></trkpt><trkpt lat="43.8247981225" lon="12.607723932563779"><ele>291.6666666666667</ele><time>2026-04-27T13:55:08Z</time></trkpt><trkpt lat="43.82483690691315" lon="12.607830643155227"><ele>291.3333333333333</ele><time>2026-04-27T13:55:09Z</time></trkpt><trkpt lat="43.82484414473919" lon="12.607951670550895"><ele>291.0</ele><time>2026-04-27T13:55:09.999Z</time></trkpt><trkpt lat="43.8248175775633" lon="12.608053163341502"><ele>293.75</ele><time>2026-04-27T13:55:10.999Z</time></trkpt><trkpt lat="43.82475039167198" lon="12.60813279038648"><ele>296.5</ele><time>2026-04-27T13:55:11.999Z</time></trkpt><trkpt lat="43.8246547890769" lon="12.60819642097529"><ele>299.25</ele><time>2026-04-27T13:55:12.999Z</time></trkpt><trkpt lat="43.824541798060366" lon="12.608263850906035"><ele>302.0</ele><time>2026-04-27T13:55:13.999Z</time></trkpt><trkpt lat="43.82441391354512" lon="12.60833692518643"><ele>302.6666666666667</ele><time>2026-04-27T13:55:14.999Z</time></trkpt><trkpt lat="43.824274301741056" lon="12.608410934806313"><ele>303.3333333333333</ele><time>2026-04-27T13:55:15.999Z</time></trkpt><trkpt lat="43.82412642315069" lon="12.608478593206609"><ele>304.0</ele><time>2026-04-27T13:55:16.999Z</time></trkpt><trkpt lat="43.8239717719387" lon="12.608536994252342"><ele>304.0</ele><time>2026-04-27T13:55:17.999Z</time></trkpt><trkpt lat="43.823824037956456" lon="12.60859328781562"><ele>304.0</ele><time>2026-04-27T13:55:18.999Z</time></trkpt><trkpt lat="43.82368975865034" lon="12.608642014673142"><ele>304.0</ele><time>2026-04-27T13:55:19.999Z</time></trkpt><trkpt lat="43.823573837411566" lon="12.608693680049628"><ele>304.0</ele><time>2026-04-27T13:55:20.999Z</time></trkpt><trkpt lat="43.82348915437128" lon="12.608748415134256"><ele>305.3333333333333</ele><time>2026-04-27T13:55:21.999Z</time></trkpt><trkpt lat="43.823425555403354" lon="12.608813657740155"><ele>306.66666666666663</ele><time>2026-04-27T13:55:22.999Z</time></trkpt><trkpt lat="43.82338245128469" lon="12.608892937964486"><ele>308.0</ele><time>2026-04-27T13:55:23.999Z</time></trkpt><trkpt lat="43.82336126294463" lon="12.608987716917909"><ele>309.3333333333333</ele><time>2026-04-27T13:55:24.999Z</time></trkpt><trkpt lat="43.82337124076186" lon="12.6090847851757"><ele>310.6666666666667</ele><time>2026-04-27T13:55:25.999Z</time></trkpt><trkpt lat="43.82341331962258" lon="12.609177587287316"><ele>312.0</ele><time>2026-04-27T13:55:26.999Z</time></trkpt><trkpt lat="43.82347765550231" lon="12.609242591543442"><ele>313.0</ele><time>2026-04-27T13:55:27.999Z</time></trkpt><trkpt lat="43.823553886422964" lon="12.609274181676222"><ele>314.0</ele><time>2026-04-27T13:55:28.999Z</time></trkpt><trkpt lat="43.82364359954167" lon="12.609269406137313"><ele>315.0</ele><time>2026-04-27T13:55:29.999Z</time></trkpt><trkpt lat="43.82374653286715" lon="12.609283714342771"><ele>316.0</ele><time>2026-04-27T13:55:30.999Z</time></trkpt><trkpt lat="43.82386869646951" lon="12.609268762023321"><ele>317.0</ele><time>2026-04-27T13:55:31.999Z</time></trkpt><trkpt lat="43.82399613134063" lon="12.609249339305613"><ele>317.0</ele><time>2026-04-27T13:55:32.999Z</time></trkpt><trkpt lat="43.82412959132533" lon="12.60920900875489"><ele>317.0</ele><time>2026-04-27T13:55:33.999Z</time></trkpt><trkpt lat="43.82427277582111" lon="12.609211916483051"><ele>317.0</ele><time>2026-04-27T13:55:34.999Z</time></trkpt><trkpt lat="43.82441155602749" lon="12.609194939533158"><ele>317.0</ele><time>2026-04-27T13:55:35.999Z</time></trkpt><trkpt lat="43.824537212350705" lon="12.609179685494539"><ele>316.8</ele><time>2026-04-27T13:55:36.999Z</time></trkpt><trkpt lat="43.82465313107016" lon="12.60916988227836"><ele>316.6</ele><time>2026-04-27T13:55:37.999Z</time></trkpt><trkpt lat="43.824760969260296" lon="12.609145260758668"><ele>316.40000000000003</ele><time>2026-04-27T13:55:38.999Z</time></trkpt><trkpt lat="43.82485458648165" lon="12.609170912055017"><ele>316.2</ele><time>2026-04-27T13:55:39.999Z</time></trkpt><trkpt lat="43.824933693554115" lon="12.609226454960755"><ele>316.0</ele><time>2026-04-27T13:55:40.999Z</time></trkpt><trkpt lat="43.82500315763064" lon="12.609316908109712"><ele>316.0</ele><time>2026-04-27T13:55:41.999Z</time></trkpt><trkpt lat="43.82505205651217" lon="12.60943018667724"><ele>316.0</ele><time>2026-04-27T13:55:42.999Z</time></trkpt><trkpt lat="43.82508879446646" lon="12.609562329384726"><ele>316.0</ele><time>2026-04-27T13:55:43.999Z</time></trkpt><trkpt lat="43.825106968850974" lon="12.609718997442194"><ele>316.0</ele><time>2026-04-27T13:55:44.999Z</time></trkpt><trkpt lat="43.825154276807794" lon="12.609886747031801"><ele>316.0</ele><time>2026-04-27T13:55:45.999Z</time></trkpt><trkpt lat="43.82518642907512" lon="12.61007413254868"><ele>315.75</ele><time>2026-04-27T13:55:46.999Z</time></trkpt><trkpt lat="43.82522082416923" lon="12.610267921502512"><ele>315.5</ele><time>2026-04-27T13:55:47.999Z</time></trkpt><trkpt lat="43.82525639545884" lon="12.61046299035811"><ele>315.25</ele><time>2026-04-27T13:55:48.999Z</time></trkpt><trkpt lat="43.82529305039491" lon="12.61064836819718"><ele>315.0</ele><time>2026-04-27T13:55:49.999Z</time></trkpt><trkpt lat="43.82533232055963" lon="12.610813973130165"><ele>318.0</ele><time>2026-04-27T13:55:50.999Z</time></trkpt><trkpt lat="43.82538662451589" lon="12.610964372825245"><ele>321.0</ele><time>2026-04-27T13:55:51.999Z</time></trkpt><trkpt lat="43.82546040006959" lon="12.611090741604048"><ele>324.0</ele><time>2026-04-27T13:55:52.999Z</time></trkpt><trkpt lat="43.825551243170324" lon="12.611192288794081"><ele>327.0</ele><time>2026-04-27T13:55:54Z</time></trkpt><trkpt lat="43.825657249391476" lon="12.611270843091221"><ele>329.25</ele><time>2026-04-27T13:55:55Z</time></trkpt><trkpt lat="43.825777462216394" lon="12.611320724386054"><ele>331.5</ele><time>2026-04-27T13:55:56Z</time></trkpt><trkpt lat="43.825912223824666" lon="12.611345169876529"><ele>333.75</ele><time>2026-04-27T13:55:57Z</time></trkpt><trkpt lat="43.82605696017857" lon="12.61134982201096"><ele>336.0</ele><time>2026-04-27T13:55:58Z</time></trkpt><trkpt lat="43.826213793506554" lon="12.611374981598242"><ele>339.0</ele><time>2026-04-27T13:55:59Z</time></trkpt><trkpt lat="43.826375740263906" lon="12.611378175577515"><ele>342.0</ele><time>2026-04-27T13:56:00Z</time></trkpt><trkpt lat="43.82653014790362" lon="12.611385022492996"><ele>345.0</ele><time>2026-04-27T13:56:01Z</time></trkpt><trkpt lat="43.82667076649572" lon="12.611398631086242"><ele>345.0</ele><time>2026-04-27T13:56:02Z</time></trkpt><trkpt lat="43.8268078967259" lon="12.611414326011644"><ele>345.0</ele><time>2026-04-27T13:56:03Z</time></trkpt><trkpt lat="43.826938547965284" lon="12.611480797469042"><ele>345.0</ele><time>2026-04-27T13:56:04Z</time></trkpt><trkpt lat="43.827064076976974" lon="12.611565759203001"><ele>345.0</ele><time>2026-04-27T13:56:05Z</time></trkpt><trkpt lat="43.827187792094314" lon="12.611669331544068"><ele>344.75</ele><time>2026-04-27T13:56:06Z</time></trkpt><trkpt lat="43.82731097188646" lon="12.611780834013611"><ele>344.5</ele><time>2026-04-27T13:56:07Z</time></trkpt><trkpt lat="43.82741610252956" lon="12.611876971533297"><ele>344.25</ele><time>2026-04-27T13:56:08Z</time></trkpt><trkpt lat="43.82751243701389" lon="12.611957349182477"><ele>344.0</ele><time>2026-04-27T13:56:09Z</time></trkpt><trkpt lat="43.82761523660351" lon="12.612021043970042"><ele>344.75</ele><time>2026-04-27T13:56:10Z</time></trkpt><trkpt lat="43.82772019938693" lon="12.612046096761988"><ele>345.5</ele><time>2026-04-27T13:56:11Z</time></trkpt><trkpt lat="43.82783172724176" lon="12.612031199584138"><ele>346.25</ele><time>2026-04-27T13:56:12Z</time></trkpt><trkpt lat="43.82795653076293" lon="12.611984015220091"><ele>347.0</ele><time>2026-04-27T13:56:13Z</time></trkpt><trkpt lat="43.82809197648123" lon="12.61191400980446"><ele>347.0</ele><time>2026-04-27T13:56:14Z</time></trkpt><trkpt lat="43.828238842851604" lon="12.611838823605531"><ele>347.0</ele><time>2026-04-27T13:56:15Z</time></trkpt><trkpt lat="43.82839641855518" lon="12.611762655265064"><ele>347.0</ele><time>2026-04-27T13:56:16Z</time></trkpt><trkpt lat="43.82855633145253" lon="12.611683741129816"><ele>347.6666666666667</ele><time>2026-04-27T13:56:17Z</time></trkpt><trkpt lat="43.82871921016604" lon="12.611606614853638"><ele>348.3333333333333</ele><time>2026-04-27T13:56:18Z</time></trkpt><trkpt lat="43.82888572919309" lon="12.611528184783921"><ele>349.0</ele><time>2026-04-27T13:56:19Z</time></trkpt><trkpt lat="43.82905556347905" lon="12.611446544683009"><ele>349.0</ele><time>2026-04-27T13:56:20Z</time></trkpt><trkpt lat="43.82923035598035" lon="12.611362196097046"><ele>349.0</ele><time>2026-04-27T13:56:21Z</time></trkpt><trkpt lat="43.829409410148095" lon="12.611277027023423"><ele>349.0</ele><time>2026-04-27T13:56:22Z</time></trkpt><trkpt lat="43.829592645526716" lon="12.611192053422496"><ele>348.66666666666663</ele><time>2026-04-27T13:56:23Z</time></trkpt><trkpt lat="43.8297780104942" lon="12.611105309550585"><ele>348.3333333333333</ele><time>2026-04-27T13:56:24Z</time></trkpt><trkpt lat="43.82996029993148" lon="12.611017452760386"><ele>348.0</ele><time>2026-04-27T13:56:25Z</time></trkpt><trkpt lat="43.83013549251087" lon="12.610932995265117"><ele>348.6666666666667</ele><time>2026-04-27T13:56:26Z</time></trkpt><trkpt lat="43.83030478126652" lon="12.61085330214327"><ele>349.33333333333337</ele><time>2026-04-27T13:56:27Z</time></trkpt><trkpt lat="43.830468983671494" lon="12.610772636990868"><ele>350.0</ele><time>2026-04-27T13:56:28Z</time></trkpt><trkpt lat="43.83062706703061" lon="12.61069739739214"><ele>350.0</ele><time>2026-04-27T13:56:29Z</time></trkpt><trkpt lat="43.83078169479806" lon="12.610626083297657"><ele>350.0</ele><time>2026-04-27T13:56:30Z</time></trkpt><trkpt lat="43.8309365288044" lon="12.610550602764896"><ele>350.0</ele><time>2026-04-27T13:56:31Z</time></trkpt><trkpt lat="43.831085392144516" lon="12.610469237845132"><ele>349.75</ele><time>2026-04-27T13:56:32Z</time></trkpt><trkpt lat="43.83121798438072" lon="12.61038394102786"><ele>349.5</ele><time>2026-04-27T13:56:33Z</time></trkpt><trkpt lat="43.831332255326195" lon="12.610295974485714"><ele>349.25</ele><time>2026-04-27T13:56:34Z</time></trkpt><trkpt lat="43.8314296345763" lon="12.61019993541732"><ele>349.0</ele><time>2026-04-27T13:56:35Z</time></trkpt><trkpt lat="43.83150648516261" lon="12.610091577422569"><ele>349.79999999999995</ele><time>2026-04-27T13:56:36Z</time></trkpt><trkpt lat="43.8315688168812" lon="12.60995963287346"><ele>350.59999999999997</ele><time>2026-04-27T13:56:37Z</time></trkpt><trkpt lat="43.831609562659374" lon="12.609812998300987"><ele>351.4</ele><time>2026-04-27T13:56:38Z</time></trkpt><trkpt lat="43.83164117260431" lon="12.609660737647221"><ele>352.2</ele><time>2026-04-27T13:56:39Z</time></trkpt><trkpt lat="43.83169193947309" lon="12.609529100834234"><ele>353.0</ele><time>2026-04-27T13:56:40Z</time></trkpt><trkpt lat="43.83172024533341" lon="12.609403336119676"><ele>353.0</ele><time>2026-04-27T13:56:41Z</time></trkpt><trkpt lat="43.831794396773866" lon="12.609301603095588"><ele>353.0</ele><time>2026-04-27T13:56:42Z</time></trkpt><trkpt lat="43.831888308216875" lon="12.609216102261682"><ele>353.0</ele><time>2026-04-27T13:56:43Z</time></trkpt><trkpt lat="43.8320030293595" lon="12.609144531436776"><ele>353.0</ele><time>2026-04-27T13:56:44Z</time></trkpt><trkpt lat="43.83213174294485" lon="12.609085921367356"><ele>354.33333333333337</ele><time>2026-04-27T13:56:45Z</time></trkpt><trkpt lat="43.832276898691134" lon="12.609026113423605"><ele>355.6666666666667</ele><time>2026-04-27T13:56:46Z</time></trkpt><trkpt lat="43.83243794418715" lon="12.608956859755882"><ele>357.0</ele><time>2026-04-27T13:56:47Z</time></trkpt><trkpt lat="43.83261269558728" lon="12.608882529614622"><ele>355.3333333333333</ele><time>2026-04-27T13:56:47.999Z</time></trkpt><trkpt lat="43.83279631730573" lon="12.608805564774599"><ele>353.66666666666663</ele><time>2026-04-27T13:56:48.999Z</time></trkpt><trkpt lat="43.83298861061455" lon="12.608727454669335"><ele>352.0</ele><time>2026-04-27T13:56:49.999Z</time></trkpt><trkpt lat="43.83318882421294" lon="12.608646433652405"><ele>352.0</ele><time>2026-04-27T13:56:50.999Z</time></trkpt><trkpt lat="43.83339465325205" lon="12.608563331072515"><ele>352.0</ele><time>2026-04-27T13:56:51.999Z</time></trkpt><trkpt lat="43.833605731367605" lon="12.608476690814628"><ele>352.0</ele><time>2026-04-27T13:56:52.999Z</time></trkpt><trkpt lat="43.833816414940074" lon="12.608385580377316"><ele>353.66666666666663</ele><time>2026-04-27T13:56:53.999Z</time></trkpt><trkpt lat="43.834030553364855" lon="12.608312811907773"><ele>355.3333333333333</ele><time>2026-04-27T13:56:54.999Z</time></trkpt><trkpt lat="43.83422910248586" lon="12.608179909415739"><ele>357.0</ele><time>2026-04-27T13:56:55.999Z</time></trkpt><trkpt lat="43.83442513720784" lon="12.60806146415999"><ele>357.3333333333333</ele><time>2026-04-27T13:56:56.999Z</time></trkpt><trkpt lat="43.834617237254754" lon="12.607943682814449"><ele>357.66666666666663</ele><time>2026-04-27T13:56:57.999Z</time></trkpt><trkpt lat="43.834805871424535" lon="12.607831612167622"><ele>358.0</ele><time>2026-04-27T13:56:58.999Z</time></trkpt><trkpt lat="43.83498213933836" lon="12.607726903843853"><ele>362.3333333333333</ele><time>2026-04-27T13:56:59.999Z</time></trkpt><trkpt lat="43.8351542991891" lon="12.607628445180358"><ele>366.6666666666667</ele><time>2026-04-27T13:57:00.999Z</time></trkpt><trkpt lat="43.835321024058665" lon="12.607529705410363"><ele>371.0</ele><time>2026-04-27T13:57:01.999Z</time></trkpt><trkpt lat="43.83547482027699" lon="12.607434493026973"><ele>371.0</ele><time>2026-04-27T13:57:02.999Z</time></trkpt><trkpt lat="43.83561673759748" lon="12.607339738746164"><ele>371.0</ele><time>2026-04-27T13:57:03.999Z</time></trkpt><trkpt lat="43.83575533797773" lon="12.607227395567902"><ele>371.0</ele><time>2026-04-27T13:57:04.999Z</time></trkpt><trkpt lat="43.83589340805687" lon="12.607095183006473"><ele>370.6666666666667</ele><time>2026-04-27T13:57:05.999Z</time></trkpt><trkpt lat="43.83603095821592" lon="12.606951357722453"><ele>370.3333333333333</ele><time>2026-04-27T13:57:06.999Z</time></trkpt><trkpt lat="43.83617212305888" lon="12.606801625794633"><ele>370.0</ele><time>2026-04-27T13:57:07.999Z</time></trkpt><trkpt lat="43.836317350945535" lon="12.606645323060947"><ele>370.0</ele><time>2026-04-27T13:57:08.999Z</time></trkpt><trkpt lat="43.83647631278349" lon="12.606502832536465"><ele>370.0</ele><time>2026-04-27T13:57:09.999Z</time></trkpt><trkpt lat="43.836622795242675" lon="12.60634742341621"><ele>370.0</ele><time>2026-04-27T13:57:10.999Z</time></trkpt><trkpt lat="43.83676417615023" lon="12.606197936201763"><ele>376.0</ele><time>2026-04-27T13:57:11.999Z</time></trkpt><trkpt lat="43.83689300365876" lon="12.606053842984297"><ele>382.0</ele><time>2026-04-27T13:57:12.999Z</time></trkpt><trkpt lat="43.8370300007767" lon="12.605947715845293"><ele>388.0</ele><time>2026-04-27T13:57:13.999Z</time></trkpt><trkpt lat="43.83716476386722" lon="12.60585071231879"><ele>388.0</ele><time>2026-04-27T13:57:14.999Z</time></trkpt><trkpt lat="43.837301889484515" lon="12.6057574984804"><ele>388.0</ele><time>2026-04-27T13:57:15.999Z</time></trkpt><trkpt lat="43.83743471580711" lon="12.605649817104958"><ele>388.0</ele><time>2026-04-27T13:57:16.999Z</time></trkpt><trkpt lat="43.837571728518704" lon="12.605559608963317"><ele>391.0</ele><time>2026-04-27T13:57:17.999Z</time></trkpt><trkpt lat="43.837694042525584" lon="12.60543524214854"><ele>394.0</ele><time>2026-04-27T13:57:18.999Z</time></trkpt><trkpt lat="43.83781099330355" lon="12.605294088065484"><ele>397.0</ele><time>2026-04-27T13:57:19.999Z</time></trkpt><trkpt lat="43.837917676311775" lon="12.605133082351582"><ele>397.0</ele><time>2026-04-27T13:57:20.999Z</time></trkpt><trkpt lat="43.83803831162769" lon="12.605001979182795"><ele>397.0</ele><time>2026-04-27T13:57:21.999Z</time></trkpt><trkpt lat="43.83815034606605" lon="12.604873174373157"><ele>397.0</ele><time>2026-04-27T13:57:22.999Z</time></trkpt><trkpt lat="43.838251772648455" lon="12.604734848205688"><ele>397.0</ele><time>2026-04-27T13:57:23.999Z</time></trkpt><trkpt lat="43.83835837622323" lon="12.604598617988193"><ele>399.0</ele><time>2026-04-27T13:57:24.999Z</time></trkpt><trkpt lat="43.838456378028376" lon="12.604415249715386"><ele>401.0</ele><time>2026-04-27T13:57:25.999Z</time></trkpt><trkpt lat="43.8385387399937" lon="12.60420563848611"><ele>403.0</ele><time>2026-04-27T13:57:26.999Z</time></trkpt><trkpt lat="43.83865569578619" lon="12.604012119330116"><ele>403.0</ele><time>2026-04-27T13:57:27.999Z</time></trkpt><trkpt lat="43.83875947987194" lon="12.603810383169717"><ele>403.0</ele><time>2026-04-27T13:57:28.999Z</time></trkpt><trkpt lat="43.838856615625346" lon="12.603615142111845"><ele>403.0</ele><time>2026-04-27T13:57:29.999Z</time></trkpt><trkpt lat="43.838943121228745" lon="12.603435297359319"><ele>402.0</ele><time>2026-04-27T13:57:30.999Z</time></trkpt><trkpt lat="43.83901721420449" lon="12.603261455020188"><ele>401.0</ele><time>2026-04-27T13:57:31.999Z</time></trkpt><trkpt lat="43.83911044852255" lon="12.603128074172655"><ele>400.0</ele><time>2026-04-27T13:57:32.999Z</time></trkpt><trkpt lat="43.839213558463925" lon="12.603029907397064"><ele>399.0</ele><time>2026-04-27T13:57:33.999Z</time></trkpt><trkpt lat="43.83932391436139" lon="12.60297092001389"><ele>399.0</ele><time>2026-04-27T13:57:34.999Z</time></trkpt><trkpt lat="43.839448259141996" lon="12.602941655604512"><ele>399.0</ele><time>2026-04-27T13:57:35.999Z</time></trkpt><trkpt lat="43.83957875708652" lon="12.602939991365162"><ele>399.0</ele><time>2026-04-27T13:57:36.999Z</time></trkpt><trkpt lat="43.839698195622745" lon="12.602947513637279"><ele>399.0</ele><time>2026-04-27T13:57:37.999Z</time></trkpt><trkpt lat="43.83980272621149" lon="12.6029486588138"><ele>399.0</ele><time>2026-04-27T13:57:38.999Z</time></trkpt><trkpt lat="43.839904033972374" lon="12.60292192593996"><ele>399.0</ele><time>2026-04-27T13:57:39.999Z</time></trkpt><trkpt lat="43.83999513574181" lon="12.602857066414522"><ele>399.0</ele><time>2026-04-27T13:57:40.999Z</time></trkpt><trkpt lat="43.840083915385414" lon="12.602779856428077"><ele>399.0</ele><time>2026-04-27T13:57:41.999Z</time></trkpt><trkpt lat="43.84013352250315" lon="12.602633520693354"><ele>399.0</ele><time>2026-04-27T13:57:42.999Z</time></trkpt><trkpt lat="43.8401992189347" lon="12.602506008951394"><ele>398.5</ele><time>2026-04-27T13:57:43.999Z</time></trkpt><trkpt lat="43.840248910146705" lon="12.602363926878416"><ele>398.0</ele><time>2026-04-27T13:57:44.999Z</time></trkpt><trkpt lat="43.84029858572831" lon="12.602221889648717"><ele>397.5</ele><time>2026-04-27T13:57:45.999Z</time></trkpt><trkpt lat="43.84034925984665" lon="12.602078926394702"><ele>397.0</ele><time>2026-04-27T13:57:46.999Z</time></trkpt><trkpt lat="43.840401472443645" lon="12.601934876350974"><ele>398.0</ele><time>2026-04-27T13:57:47.999Z</time></trkpt><trkpt lat="43.840453826630885" lon="12.601790434901085"><ele>399.0</ele><time>2026-04-27T13:57:48.999Z</time></trkpt><trkpt lat="43.84050658427256" lon="12.601644880328571"><ele>400.0</ele><time>2026-04-27T13:57:49.999Z</time></trkpt><trkpt lat="43.840559143830774" lon="12.601499872271578"><ele>401.0</ele><time>2026-04-27T13:57:50.999Z</time></trkpt><trkpt lat="43.84061111573647" lon="12.60135648551205"><ele>401.0</ele><time>2026-04-27T13:57:51.999Z</time></trkpt><trkpt lat="43.84066133198661" lon="12.601220299275539"><ele>401.0</ele><time>2026-04-27T13:57:52.999Z</time></trkpt><trkpt lat="43.84071031727889" lon="12.601085276944017"><ele>401.0</ele><time>2026-04-27T13:57:53.999Z</time></trkpt><trkpt lat="43.84075944812928" lon="12.600949853454525"><ele>401.0</ele><time>2026-04-27T13:57:54.999Z</time></trkpt><trkpt lat="43.84080954480053" lon="12.600811767722558"><ele>401.0</ele><time>2026-04-27T13:57:55.999Z</time></trkpt><trkpt lat="43.84084153968052" lon="12.600663990268965"><ele>400.5</ele><time>2026-04-27T13:57:56.999Z</time></trkpt><trkpt lat="43.840891575081535" lon="12.600522791585727"><ele>400.0</ele><time>2026-04-27T13:57:57.999Z</time></trkpt><trkpt lat="43.84094131733789" lon="12.60037818086828"><ele>399.5</ele><time>2026-04-27T13:57:58.999Z</time></trkpt><trkpt lat="43.840993805562256" lon="12.600233890215666"><ele>399.0</ele><time>2026-04-27T13:58:00Z</time></trkpt><trkpt lat="43.841065667433725" lon="12.600105655123254"><ele>398.0</ele><time>2026-04-27T13:58:01Z</time></trkpt><trkpt lat="43.841102818825625" lon="12.599952796917318"><ele>397.0</ele><time>2026-04-27T13:58:02Z</time></trkpt><trkpt lat="43.84115563361092" lon="12.599811196606234"><ele>396.0</ele><time>2026-04-27T13:58:03Z</time></trkpt><trkpt lat="43.84120672286681" lon="12.5996692103093"><ele>395.0</ele><time>2026-04-27T13:58:04Z</time></trkpt><trkpt lat="43.8412555021175" lon="12.599530491494017"><ele>396.2</ele><time>2026-04-27T13:58:05Z</time></trkpt><trkpt lat="43.8413209875314" lon="12.59940185531786"><ele>397.4</ele><time>2026-04-27T13:58:06Z</time></trkpt><trkpt lat="43.84137077242146" lon="12.599264399595684"><ele>398.6</ele><time>2026-04-27T13:58:07Z</time></trkpt><trkpt lat="43.841406334839824" lon="12.59911598156666"><ele>399.8</ele><time>2026-04-27T13:58:08Z</time></trkpt><trkpt lat="43.84145570390642" lon="12.59897953729591"><ele>401.0</ele><time>2026-04-27T13:58:09Z</time></trkpt><trkpt lat="43.84150593168612" lon="12.598841465297188"><ele>401.0</ele><time>2026-04-27T13:58:10Z</time></trkpt><trkpt lat="43.841557620597136" lon="12.598704076626422"><ele>401.0</ele><time>2026-04-27T13:58:11Z</time></trkpt><trkpt lat="43.84160780166463" lon="12.598565330865405"><ele>401.0</ele><time>2026-04-27T13:58:12Z</time></trkpt><trkpt lat="43.84165687124539" lon="12.598425220545833"><ele>401.0</ele><time>2026-04-27T13:58:13Z</time></trkpt><trkpt lat="43.841707853124795" lon="12.598284389989931"><ele>400.75</ele><time>2026-04-27T13:58:14Z</time></trkpt><trkpt lat="43.8417735785534" lon="12.59815189133931"><ele>400.5</ele><time>2026-04-27T13:58:15Z</time></trkpt><trkpt lat="43.84182525850963" lon="12.598010609566515"><ele>400.25</ele><time>2026-04-27T13:58:16Z</time></trkpt><trkpt lat="43.84187695830373" lon="12.597869013585756"><ele>400.0</ele><time>2026-04-27T13:58:17Z</time></trkpt><trkpt lat="43.841909984649924" lon="12.597716683172408"><ele>400.0</ele><time>2026-04-27T13:58:18Z</time></trkpt><trkpt lat="43.841960568707535" lon="12.597576393052824"><ele>400.0</ele><time>2026-04-27T13:58:19Z</time></trkpt><trkpt lat="43.842010831820346" lon="12.59743801935477"><ele>400.0</ele><time>2026-04-27T13:58:20Z</time></trkpt><trkpt lat="43.84206294347681" lon="12.597299044353017"><ele>400.0</ele><time>2026-04-27T13:58:21Z</time></trkpt><trkpt lat="43.842128784262805" lon="12.59717297020224"><ele>400.0</ele><time>2026-04-27T13:58:22Z</time></trkpt><trkpt lat="43.84218277588302" lon="12.597035463548309"><ele>400.0</ele><time>2026-04-27T13:58:23Z</time></trkpt><trkpt lat="43.84223752985367" lon="12.596900565686674"><ele>400.0</ele><time>2026-04-27T13:58:24Z</time></trkpt><trkpt lat="43.842293692171445" lon="12.596766591860947"><ele>400.0</ele><time>2026-04-27T13:58:25Z</time></trkpt><trkpt lat="43.84235122982223" lon="12.596632420100049"><ele>400.0</ele><time>2026-04-27T13:58:26Z</time></trkpt><trkpt lat="43.842395175524096" lon="12.596489500101228"><ele>400.8</ele><time>2026-04-27T13:58:27Z</time></trkpt><trkpt lat="43.842455422301676" lon="12.596358891152018"><ele>401.6</ele><time>2026-04-27T13:58:28Z</time></trkpt><trkpt lat="43.84251616447965" lon="12.596230888922985"><ele>402.4</ele><time>2026-04-27T13:58:29Z</time></trkpt><trkpt lat="43.842577688809996" lon="12.596102155644708"><ele>403.2</ele><time>2026-04-27T13:58:30Z</time></trkpt><trkpt lat="43.84265271251148" lon="12.595982905852793"><ele>404.0</ele><time>2026-04-27T13:58:31Z</time></trkpt><trkpt lat="43.84271444741574" lon="12.595854028931006"><ele>404.0</ele><time>2026-04-27T13:58:32Z</time></trkpt><trkpt lat="43.84277357947412" lon="12.595728648578962"><ele>404.0</ele><time>2026-04-27T13:58:33Z</time></trkpt><trkpt lat="43.842830795891686" lon="12.595605307583593"><ele>404.0</ele><time>2026-04-27T13:58:34Z</time></trkpt><trkpt lat="43.842886331162205" lon="12.59548489524841"><ele>404.0</ele><time>2026-04-27T13:58:35Z</time></trkpt><trkpt lat="43.84294293213851" lon="12.595371085649028"><ele>404.0</ele><time>2026-04-27T13:58:35.999Z</time></trkpt><trkpt lat="43.84300026319301" lon="12.595267131438105"><ele>405.7142857142857</ele><time>2026-04-27T13:58:36.999Z</time></trkpt><trkpt lat="43.84304049261084" lon="12.595167344072122"><ele>407.42857142857144</ele><time>2026-04-27T13:58:37.999Z</time></trkpt><trkpt lat="43.8430880490112" lon="12.595099098327285"><ele>409.1428571428571</ele><time>2026-04-27T13:58:38.999Z</time></trkpt><trkpt lat="43.843132550376986" lon="12.595037104444529"><ele>410.8571428571429</ele><time>2026-04-27T13:58:39.999Z</time></trkpt><trkpt lat="43.84318302292328" lon="12.594968447751517"><ele>412.5714285714286</ele><time>2026-04-27T13:58:40.999Z</time></trkpt><trkpt lat="43.84323650306586" lon="12.594894826050975"><ele>414.2857142857143</ele><time>2026-04-27T13:58:41.999Z</time></trkpt><trkpt lat="43.843292610065525" lon="12.59481564102885"><ele>416.0</ele><time>2026-04-27T13:58:42.999Z</time></trkpt><trkpt lat="43.843364325099486" lon="12.594749156549689"><ele>416.0</ele><time>2026-04-27T13:58:43.999Z</time></trkpt><trkpt lat="43.843414661387854" lon="12.594647085613428"><ele>416.0</ele><time>2026-04-27T13:58:44.999Z</time></trkpt><trkpt lat="43.843489365991765" lon="12.594574957314817"><ele>416.0</ele><time>2026-04-27T13:58:45.999Z</time></trkpt><trkpt lat="43.84355407889675" lon="12.594484803280308"><ele>416.0</ele><time>2026-04-27T13:58:46.999Z</time></trkpt><trkpt lat="43.84360723553554" lon="12.594375659936464"><ele>416.0</ele><time>2026-04-27T13:58:47.999Z</time></trkpt><trkpt lat="43.843669866618654" lon="12.594278520945274"><ele>416.16666666666663</ele><time>2026-04-27T13:58:48.999Z</time></trkpt><trkpt lat="43.84372761201386" lon="12.594182514699279"><ele>416.3333333333333</ele><time>2026-04-27T13:58:49.999Z</time></trkpt><trkpt lat="43.84378289612929" lon="12.594093890324249"><ele>416.5</ele><time>2026-04-27T13:58:50.999Z</time></trkpt><trkpt lat="43.843836745899964" lon="12.594008545122232"><ele>416.66666666666663</ele><time>2026-04-27T13:58:51.999Z</time></trkpt><trkpt lat="43.843890390349316" lon="12.593929641159159"><ele>416.8333333333333</ele><time>2026-04-27T13:58:52.999Z</time></trkpt><trkpt lat="43.843950691403485" lon="12.593864302812042"><ele>417.0</ele><time>2026-04-27T13:58:53.999Z</time></trkpt><trkpt lat="43.8440160243466" lon="12.593809362605393"><ele>417.0</ele><time>2026-04-27T13:58:54.999Z</time></trkpt><trkpt lat="43.8440857228509" lon="12.593762030578267"><ele>417.0</ele><time>2026-04-27T13:58:55.999Z</time></trkpt><trkpt lat="43.84416269984308" lon="12.593738973826763"><ele>417.0</ele><time>2026-04-27T13:58:56.999Z</time></trkpt><trkpt lat="43.84423444462492" lon="12.593696925190516"><ele>417.0</ele><time>2026-04-27T13:58:57.999Z</time></trkpt><trkpt lat="43.84430503856835" lon="12.593651834138623"><ele>417.0</ele><time>2026-04-27T13:58:58.999Z</time></trkpt><trkpt lat="43.844374814340775" lon="12.593602795193368"><ele>417.0</ele><time>2026-04-27T13:58:59.999Z</time></trkpt><trkpt lat="43.84444688932795" lon="12.593553464813104"><ele>416.6666666666667</ele><time>2026-04-27T13:59:00.999Z</time></trkpt><trkpt lat="43.84452110336264" lon="12.593502670405336"><ele>416.33333333333337</ele><time>2026-04-27T13:59:01.999Z</time></trkpt><trkpt lat="43.844595838602935" lon="12.593451664720595"><ele>416.0</ele><time>2026-04-27T13:59:02.999Z</time></trkpt><trkpt lat="43.84467148293425" lon="12.593401098404044"><ele>415.6666666666667</ele><time>2026-04-27T13:59:03.999Z</time></trkpt><trkpt lat="43.84475075930348" lon="12.593348104197654"><ele>415.33333333333337</ele><time>2026-04-27T13:59:04.999Z</time></trkpt><trkpt lat="43.84483045650611" lon="12.593294828620968"><ele>415.0</ele><time>2026-04-27T13:59:05.999Z</time></trkpt><trkpt lat="43.84491206095158" lon="12.593240279003963"><ele>415.0</ele><time>2026-04-27T13:59:06.999Z</time></trkpt><trkpt lat="43.84499202750128" lon="12.593185419515846"><ele>415.0</ele><time>2026-04-27T13:59:07.999Z</time></trkpt><trkpt lat="43.845073926095395" lon="12.593129629633083"><ele>415.0</ele><time>2026-04-27T13:59:08.999Z</time></trkpt><trkpt lat="43.84515741649627" lon="12.593072755363483"><ele>415.0</ele><time>2026-04-27T13:59:09.999Z</time></trkpt><trkpt lat="43.84524099467857" lon="12.593015720951675"><ele>415.0</ele><time>2026-04-27T13:59:10.999Z</time></trkpt><trkpt lat="43.84532500522161" lon="12.592958148426266"><ele>414.83333333333337</ele><time>2026-04-27T13:59:11.999Z</time></trkpt><trkpt lat="43.84540849979275" lon="12.592900929503774"><ele>414.6666666666667</ele><time>2026-04-27T13:59:12.999Z</time></trkpt><trkpt lat="43.84549317418742" lon="12.592842902033773"><ele>414.5</ele><time>2026-04-27T13:59:13.999Z</time></trkpt><trkpt lat="43.84557515032248" lon="12.592786723694399"><ele>414.33333333333337</ele><time>2026-04-27T13:59:14.999Z</time></trkpt><trkpt lat="43.845648409543564" lon="12.592736214593758"><ele>414.1666666666667</ele><time>2026-04-27T13:59:15.999Z</time></trkpt><trkpt lat="43.84570766944471" lon="12.592666667601927"><ele>414.0</ele><time>2026-04-27T13:59:16.999Z</time></trkpt><trkpt lat="43.84578219041064" lon="12.592633934390605"><ele>414.0</ele><time>2026-04-27T13:59:17.999Z</time></trkpt><trkpt lat="43.845842160053074" lon="12.59256802963426"><ele>414.0</ele><time>2026-04-27T13:59:18.999Z</time></trkpt><trkpt lat="43.845877447754944" lon="12.592456221686081"><ele>414.0</ele><time>2026-04-27T13:59:19.999Z</time></trkpt><trkpt lat="43.84588767978494" lon="12.592345086430832"><ele>414.0</ele><time>2026-04-27T13:59:20.999Z</time></trkpt><trkpt lat="43.84584948886172" lon="12.592226934606046"><ele>414.0</ele><time>2026-04-27T13:59:21.999Z</time></trkpt><trkpt lat="43.8457921358915" lon="12.592148927631808"><ele>414.0</ele><time>2026-04-27T13:59:22.999Z</time></trkpt><trkpt lat="43.845722319878945" lon="12.592086743176228"><ele>414.0</ele><time>2026-04-27T13:59:23.999Z</time></trkpt><trkpt lat="43.845641843912894" lon="12.592034829002507"><ele>414.0</ele><time>2026-04-27T13:59:24.999Z</time></trkpt><trkpt lat="43.84555860214804" lon="12.591987903108935"><ele>414.0</ele><time>2026-04-27T13:59:25.999Z</time></trkpt><trkpt lat="43.84547274029311" lon="12.591933693671205"><ele>414.0</ele><time>2026-04-27T13:59:26.999Z</time></trkpt><trkpt lat="43.8453862084438" lon="12.591874718717754"><ele>414.0</ele><time>2026-04-27T13:59:27.999Z</time></trkpt><trkpt lat="43.84530299777004" lon="12.59181917294026"><ele>414.0</ele><time>2026-04-27T13:59:28.999Z</time></trkpt><trkpt lat="43.845226973468" lon="12.591768669250982"><ele>414.0</ele><time>2026-04-27T13:59:29.999Z</time></trkpt><trkpt lat="43.845156610065324" lon="12.59172173094924"><ele>414.0</ele><time>2026-04-27T13:59:30.999Z</time></trkpt><trkpt lat="43.84509050430941" lon="12.591672597429218"><ele>414.0</ele><time>2026-04-27T13:59:31.999Z</time></trkpt><trkpt lat="43.84502338471038" lon="12.591603124388817"><ele>414.0</ele><time>2026-04-27T13:59:32.999Z</time></trkpt><trkpt lat="43.84497589996112" lon="12.591515651078684"><ele>414.0</ele><time>2026-04-27T13:59:33.999Z</time></trkpt><trkpt lat="43.84496141305805" lon="12.591418060519352"><ele>414.0</ele><time>2026-04-27T13:59:34.999Z</time></trkpt><trkpt lat="43.84498000151583" lon="12.591327791845329"><ele>414.0</ele><time>2026-04-27T13:59:35.999Z</time></trkpt><trkpt lat="43.84504208455764" lon="12.591257660292522"><ele>414.0</ele><time>2026-04-27T13:59:36.999Z</time></trkpt><trkpt lat="43.84510595662277" lon="12.591172738759173"><ele>414.0</ele><time>2026-04-27T13:59:37.999Z</time></trkpt><trkpt lat="43.845196237538914" lon="12.591109970665258"><ele>414.0</ele><time>2026-04-27T13:59:38.999Z</time></trkpt><trkpt lat="43.84529686580007" lon="12.59103876314508"><ele>411.5</ele><time>2026-04-27T13:59:39.999Z</time></trkpt><trkpt lat="43.84540620324638" lon="12.590954575821636"><ele>409.0</ele><time>2026-04-27T13:59:40.999Z</time></trkpt><trkpt lat="43.8455204766883" lon="12.590864833774638"><ele>406.5</ele><time>2026-04-27T13:59:41.999Z</time></trkpt><trkpt lat="43.84563644458595" lon="12.590776407589601"><ele>404.0</ele><time>2026-04-27T13:59:42.999Z</time></trkpt><trkpt lat="43.845746698367485" lon="12.590693469036667"><ele>404.0</ele><time>2026-04-27T13:59:43.999Z</time></trkpt><trkpt lat="43.84585152233846" lon="12.590614532930346"><ele>404.0</ele><time>2026-04-27T13:59:44.999Z</time></trkpt><trkpt lat="43.84595274302043" lon="12.590536529842863"><ele>404.0</ele><time>2026-04-27T13:59:45.999Z</time></trkpt><trkpt lat="43.846052132326335" lon="12.590469038274794"><ele>404.0</ele><time>2026-04-27T13:59:46.999Z</time></trkpt><trkpt lat="43.84615103167446" lon="12.590412451874444"><ele>403.25</ele><time>2026-04-27T13:59:47.999Z</time></trkpt><trkpt lat="43.846251347194695" lon="12.59037335328987"><ele>402.5</ele><time>2026-04-27T13:59:48.999Z</time></trkpt><trkpt lat="43.84636176493814" lon="12.590343344683538"><ele>401.75</ele><time>2026-04-27T13:59:49.999Z</time></trkpt><trkpt lat="43.84647869786336" lon="12.59032469229689"><ele>401.0</ele><time>2026-04-27T13:59:50.999Z</time></trkpt><trkpt lat="43.84659762242751" lon="12.59030475903371"><ele>399.0</ele><time>2026-04-27T13:59:51.999Z</time></trkpt><trkpt lat="43.846710587425" lon="12.590285726404694"><ele>397.0</ele><time>2026-04-27T13:59:52.999Z</time></trkpt><trkpt lat="43.846816791965885" lon="12.590261883715662"><ele>395.0</ele><time>2026-04-27T13:59:53.999Z</time></trkpt><trkpt lat="43.84691539563508" lon="12.590219567280435"><ele>393.0</ele><time>2026-04-27T13:59:54.999Z</time></trkpt><trkpt lat="43.84700434354699" lon="12.590149953714443"><ele>391.0</ele><time>2026-04-27T13:59:55.999Z</time></trkpt><trkpt lat="43.84710127667426" lon="12.59007144880429"><ele>390.0</ele><time>2026-04-27T13:59:56.999Z</time></trkpt><trkpt lat="43.84716729400706" lon="12.589933562898661"><ele>389.0</ele><time>2026-04-27T13:59:57.999Z</time></trkpt><trkpt lat="43.847252490884664" lon="12.589816888674012"><ele>388.0</ele><time>2026-04-27T13:59:58.999Z</time></trkpt><trkpt lat="43.84731796622089" lon="12.589694169851242"><ele>387.0</ele><time>2026-04-27T13:59:59.999Z</time></trkpt><trkpt lat="43.847383011916776" lon="12.589582838952104"><ele>386.1666666666667</ele><time>2026-04-27T14:00:00.999Z</time></trkpt><trkpt lat="43.84743482371715" lon="12.589479196398731"><ele>385.3333333333333</ele><time>2026-04-27T14:00:01.999Z</time></trkpt><trkpt lat="43.847508419201446" lon="12.58942283720942"><ele>384.5</ele><time>2026-04-27T14:00:02.999Z</time></trkpt><trkpt lat="43.84758586181928" lon="12.589410335740215"><ele>383.66666666666663</ele><time>2026-04-27T14:00:03.999Z</time></trkpt><trkpt lat="43.84765487006935" lon="12.589441491454531"><ele>382.8333333333333</ele><time>2026-04-27T14:00:04.999Z</time></trkpt><trkpt lat="43.84770906063554" lon="12.589507041307153"><ele>382.0</ele><time>2026-04-27T14:00:06Z</time></trkpt><trkpt lat="43.84774567018847" lon="12.58961029196233"><ele>379.0</ele><time>2026-04-27T14:00:07Z</time></trkpt><trkpt lat="43.8477541007048" lon="12.589730062441046"><ele>376.0</ele><time>2026-04-27T14:00:08Z</time></trkpt><trkpt lat="43.84774102118485" lon="12.589859261293952"><ele>373.0</ele><time>2026-04-27T14:00:09Z</time></trkpt><trkpt lat="43.84772730467503" lon="12.590007243416204"><ele>370.0</ele><time>2026-04-27T14:00:10Z</time></trkpt><trkpt lat="43.847724867869005" lon="12.590170147751186"><ele>367.0</ele><time>2026-04-27T14:00:11Z</time></trkpt><trkpt lat="43.8477345688186" lon="12.590343802001746"><ele>366.75</ele><time>2026-04-27T14:00:12Z</time></trkpt><trkpt lat="43.84775036606386" lon="12.590514964299668"><ele>366.5</ele><time>2026-04-27T14:00:13Z</time></trkpt><trkpt lat="43.847766472858204" lon="12.59068186939793"><ele>366.25</ele><time>2026-04-27T14:00:14Z</time></trkpt><trkpt lat="43.84776519694123" lon="12.590842610146217"><ele>366.0</ele><time>2026-04-27T14:00:15Z</time></trkpt><trkpt lat="43.847750953105994" lon="12.590994464340527"><ele>366.0</ele><time>2026-04-27T14:00:16Z</time></trkpt><trkpt lat="43.84772513176075" lon="12.591138224948871"><ele>366.0</ele><time>2026-04-27T14:00:17Z</time></trkpt><trkpt lat="43.847699457978806" lon="12.59127568930087"><ele>366.0</ele><time>2026-04-27T14:00:18Z</time></trkpt><trkpt lat="43.84767947299393" lon="12.591408702150234"><ele>366.0</ele><time>2026-04-27T14:00:19Z</time></trkpt><trkpt lat="43.84766208959533" lon="12.59153659313041"><ele>366.0</ele><time>2026-04-27T14:00:20Z</time></trkpt><trkpt lat="43.84765677547569" lon="12.591658155958235"><ele>366.6</ele><time>2026-04-27T14:00:21Z</time></trkpt><trkpt lat="43.84768005959229" lon="12.591769386096939"><ele>367.20000000000005</ele><time>2026-04-27T14:00:22Z</time></trkpt><trkpt lat="43.84772976443904" lon="12.591862819229835"><ele>367.79999999999995</ele><time>2026-04-27T14:00:23Z</time></trkpt><trkpt lat="43.84780321206281" lon="12.591934794419256"><ele>368.4</ele><time>2026-04-27T14:00:24Z</time></trkpt><trkpt lat="43.847898517124186" lon="12.591986145844386"><ele>369.0</ele><time>2026-04-27T14:00:25Z</time></trkpt><trkpt lat="43.84801071327967" lon="12.592021522510533"><ele>370.25</ele><time>2026-04-27T14:00:26Z</time></trkpt><trkpt lat="43.84813020506824" lon="12.592051448999129"><ele>371.5</ele><time>2026-04-27T14:00:27Z</time></trkpt><trkpt lat="43.848250274513745" lon="12.592083722285883"><ele>372.75</ele><time>2026-04-27T14:00:28Z</time></trkpt><trkpt lat="43.84836146405856" lon="12.592117937291459"><ele>374.0</ele><time>2026-04-27T14:00:29Z</time></trkpt><trkpt lat="43.84846201988606" lon="12.592159717704062"><ele>369.6</ele><time>2026-04-27T14:00:30Z</time></trkpt><trkpt lat="43.848539832800526" lon="12.59221360096239"><ele>365.2</ele><time>2026-04-27T14:00:31Z</time></trkpt><trkpt lat="43.848602730512845" lon="12.592295385583435"><ele>360.8</ele><time>2026-04-27T14:00:32Z</time></trkpt><trkpt lat="43.84864405437976" lon="12.592401643952867"><ele>356.40000000000003</ele><time>2026-04-27T14:00:33Z</time></trkpt><trkpt lat="43.848662542567816" lon="12.592540640127254"><ele>352.0</ele><time>2026-04-27T14:00:34Z</time></trkpt><trkpt lat="43.84865492409208" lon="12.592694202627513"><ele>352.0</ele><time>2026-04-27T14:00:35Z</time></trkpt><trkpt lat="43.84863650485955" lon="12.592843168105535"><ele>352.0</ele><time>2026-04-27T14:00:35.999Z</time></trkpt><trkpt lat="43.84862854647185" lon="12.592975812878128"><ele>352.0</ele><time>2026-04-27T14:00:36.999Z</time></trkpt><trkpt lat="43.84863735215437" lon="12.593084935344487"><ele>352.0</ele><time>2026-04-27T14:00:37.999Z</time></trkpt><trkpt lat="43.848661686885066" lon="12.59319182144717"><ele>352.0</ele><time>2026-04-27T14:00:38.999Z</time></trkpt><trkpt lat="43.84869832221609" lon="12.593311786553652"><ele>352.0</ele><time>2026-04-27T14:00:40Z</time></trkpt><trkpt lat="43.84875199436822" lon="12.59344207555327"><ele>352.0</ele><time>2026-04-27T14:00:41Z</time></trkpt><trkpt lat="43.84882018356726" lon="12.593559819837777"><ele>352.0</ele><time>2026-04-27T14:00:42Z</time></trkpt><trkpt lat="43.84890055521683" lon="12.593663721931623"><ele>352.0</ele><time>2026-04-27T14:00:43Z</time></trkpt><trkpt lat="43.84898014061181" lon="12.59377141970543"><ele>352.0</ele><time>2026-04-27T14:00:44Z</time></trkpt><trkpt lat="43.849045853502716" lon="12.593893208739221"><ele>352.75</ele><time>2026-04-27T14:00:45Z</time></trkpt><trkpt lat="43.84908761718821" lon="12.594026220740917"><ele>353.5</ele><time>2026-04-27T14:00:46Z</time></trkpt><trkpt lat="43.84911211480487" lon="12.594176486735094"><ele>354.25</ele><time>2026-04-27T14:00:47Z</time></trkpt><trkpt lat="43.84912033274381" lon="12.594340256965891"><ele>355.0</ele><time>2026-04-27T14:00:48Z</time></trkpt><trkpt lat="43.84912146731597" lon="12.594505096619814"><ele>356.5</ele><time>2026-04-27T14:00:49Z</time></trkpt><trkpt lat="43.84913533657499" lon="12.594665387522667"><ele>358.0</ele><time>2026-04-27T14:00:50Z</time></trkpt><trkpt lat="43.84917083003221" lon="12.594812042748494"><ele>359.5</ele><time>2026-04-27T14:00:51Z</time></trkpt><trkpt lat="43.849232355263844" lon="12.594947547250946"><ele>361.0</ele><time>2026-04-27T14:00:52Z</time></trkpt><trkpt lat="43.84930418482641" lon="12.595081553182034"><ele>356.5</ele><time>2026-04-27T14:00:53Z</time></trkpt><trkpt lat="43.84938229866478" lon="12.595209353233576"><ele>352.0</ele><time>2026-04-27T14:00:54Z</time></trkpt><trkpt lat="43.84945663902579" lon="12.595347032605696"><ele>347.5</ele><time>2026-04-27T14:00:55Z</time></trkpt><trkpt lat="43.84952117113149" lon="12.5954977487081"><ele>343.0</ele><time>2026-04-27T14:00:56Z</time></trkpt><trkpt lat="43.849580997238206" lon="12.595650215728261"><ele>343.0</ele><time>2026-04-27T14:00:57Z</time></trkpt><trkpt lat="43.849641347817034" lon="12.595790007202703"><ele>343.0</ele><time>2026-04-27T14:00:58Z</time></trkpt><trkpt lat="43.84970491871409" lon="12.595920766278507"><ele>343.0</ele><time>2026-04-27T14:00:59Z</time></trkpt><trkpt lat="43.84977487461173" lon="12.596038433149888"><ele>343.0</ele><time>2026-04-27T14:01:00Z</time></trkpt><trkpt lat="43.849853766645126" lon="12.596151605126613"><ele>343.25</ele><time>2026-04-27T14:01:01Z</time></trkpt><trkpt lat="43.849935346232485" lon="12.596263548421234"><ele>343.5</ele><time>2026-04-27T14:01:02Z</time></trkpt><trkpt lat="43.85001657640793" lon="12.596379633730264"><ele>343.75</ele><time>2026-04-27T14:01:03Z</time></trkpt><trkpt lat="43.85009724409097" lon="12.596495613152536"><ele>344.0</ele><time>2026-04-27T14:01:04Z</time></trkpt><trkpt lat="43.85018050627849" lon="12.596612138792423"><ele>344.0</ele><time>2026-04-27T14:01:05Z</time></trkpt><trkpt lat="43.85026451669057" lon="12.596730725476434"><ele>344.0</ele><time>2026-04-27T14:01:06Z</time></trkpt><trkpt lat="43.85034591511187" lon="12.596855324668626"><ele>344.0</ele><time>2026-04-27T14:01:07Z</time></trkpt><trkpt lat="43.85042106027533" lon="12.596986347503307"><ele>344.0</ele><time>2026-04-27T14:01:08Z</time></trkpt><trkpt lat="43.85049379249912" lon="12.597121321061765"><ele>343.5</ele><time>2026-04-27T14:01:09Z</time></trkpt><trkpt lat="43.850562761228254" lon="12.597256572151009"><ele>343.0</ele><time>2026-04-27T14:01:10Z</time></trkpt><trkpt lat="43.850628887814786" lon="12.597392273564385"><ele>342.5</ele><time>2026-04-27T14:01:11Z</time></trkpt><trkpt lat="43.85069537754332" lon="12.59752990659936"><ele>342.0</ele><time>2026-04-27T14:01:12Z</time></trkpt><trkpt lat="43.850761404019195" lon="12.59766733670247"><ele>342.0</ele><time>2026-04-27T14:01:13Z</time></trkpt><trkpt lat="43.85082833432351" lon="12.597805036302583"><ele>342.0</ele><time>2026-04-27T14:01:14Z</time></trkpt><trkpt lat="43.85089402831958" lon="12.597938719151971"><ele>342.0</ele><time>2026-04-27T14:01:15Z</time></trkpt><trkpt lat="43.85095956432474" lon="12.598061347496165"><ele>342.0</ele><time>2026-04-27T14:01:16Z</time></trkpt><trkpt lat="43.851030079581804" lon="12.598165595512532"><ele>339.40000000000003</ele><time>2026-04-27T14:01:17Z</time></trkpt><trkpt lat="43.851107816342" lon="12.598246267893831"><ele>336.8</ele><time>2026-04-27T14:01:18Z</time></trkpt><trkpt lat="43.85119270536504" lon="12.59830374171609"><ele>334.2</ele><time>2026-04-27T14:01:19Z</time></trkpt><trkpt lat="43.85129439799656" lon="12.598337906480056"><ele>331.6</ele><time>2026-04-27T14:01:20Z</time></trkpt><trkpt lat="43.851403166573725" lon="12.598339099576389"><ele>329.0</ele><time>2026-04-27T14:01:21Z</time></trkpt><trkpt lat="43.85151244354172" lon="12.598330287935324"><ele>329.0</ele><time>2026-04-27T14:01:22Z</time></trkpt><trkpt lat="43.851619928501535" lon="12.598314937648581"><ele>329.0</ele><time>2026-04-27T14:01:23Z</time></trkpt><trkpt lat="43.85173043180886" lon="12.598296390593696"><ele>329.0</ele><time>2026-04-27T14:01:24Z</time></trkpt><trkpt lat="43.85184500453861" lon="12.598278917341517"><ele>329.0</ele><time>2026-04-27T14:01:25Z</time></trkpt><trkpt lat="43.85196097667882" lon="12.598258214752923"><ele>326.75</ele><time>2026-04-27T14:01:26Z</time></trkpt><trkpt lat="43.85207735749985" lon="12.598239294530979"><ele>324.5</ele><time>2026-04-27T14:01:27Z</time></trkpt><trkpt lat="43.85219186551209" lon="12.598218748029504"><ele>322.25</ele><time>2026-04-27T14:01:28Z</time></trkpt><trkpt lat="43.85230556308573" lon="12.598198976230824"><ele>320.0</ele><time>2026-04-27T14:01:29Z</time></trkpt><trkpt lat="43.85241247488801" lon="12.598180616922344"><ele>320.0</ele><time>2026-04-27T14:01:30Z</time></trkpt><trkpt lat="43.85251982897698" lon="12.598158884247292"><ele>320.0</ele><time>2026-04-27T14:01:31Z</time></trkpt><trkpt lat="43.852626759429455" lon="12.59813767278979"><ele>320.0</ele><time>2026-04-27T14:01:32Z</time></trkpt><trkpt lat="43.852734689902434" lon="12.598119383827264"><ele>320.0</ele><time>2026-04-27T14:01:33Z</time></trkpt><trkpt lat="43.852846076985834" lon="12.59810260199011"><ele>320.0</ele><time>2026-04-27T14:01:34Z</time></trkpt><trkpt lat="43.852956150348376" lon="12.598086885238702"><ele>320.25</ele><time>2026-04-27T14:01:35Z</time></trkpt><trkpt lat="43.853074229219395" lon="12.598075129717335"><ele>320.5</ele><time>2026-04-27T14:01:36Z</time></trkpt><trkpt lat="43.85319569265857" lon="12.598074459393784"><ele>320.75</ele><time>2026-04-27T14:01:37Z</time></trkpt><trkpt lat="43.85331788741908" lon="12.598084336667982"><ele>321.0</ele><time>2026-04-27T14:01:38Z</time></trkpt><trkpt lat="43.85343886514292" lon="12.598101620339795"><ele>321.25</ele><time>2026-04-27T14:01:39Z</time></trkpt><trkpt lat="43.85355831208524" lon="12.598126426490092"><ele>321.5</ele><time>2026-04-27T14:01:40Z</time></trkpt><trkpt lat="43.85367638125826" lon="12.59815416097867"><ele>321.75</ele><time>2026-04-27T14:01:41Z</time></trkpt><trkpt lat="43.85379118413598" lon="12.598183919209415"><ele>322.0</ele><time>2026-04-27T14:01:42Z</time></trkpt><trkpt lat="43.85390842250988" lon="12.598212954896733"><ele>322.0</ele><time>2026-04-27T14:01:43Z</time></trkpt><trkpt lat="43.854024862825334" lon="12.598242805448992"><ele>322.0</ele><time>2026-04-27T14:01:44Z</time></trkpt><trkpt lat="43.85413971603011" lon="12.598275162153742"><ele>322.0</ele><time>2026-04-27T14:01:45Z</time></trkpt><trkpt lat="43.8542551627579" lon="12.598307726787077"><ele>322.0</ele><time>2026-04-27T14:01:46Z</time></trkpt><trkpt lat="43.8543695120786" lon="12.598339798871589"><ele>323.25</ele><time>2026-04-27T14:01:47Z</time></trkpt><trkpt lat="43.85448205059245" lon="12.598372743305141"><ele>324.5</ele><time>2026-04-27T14:01:48Z</time></trkpt><trkpt lat="43.85459443782591" lon="12.598404990530677"><ele>325.75</ele><time>2026-04-27T14:01:49Z</time></trkpt><trkpt lat="43.85470564537314" lon="12.598435237255071"><ele>327.0</ele><time>2026-04-27T14:01:50Z</time></trkpt><trkpt lat="43.8548156195421" lon="12.598466514845974"><ele>327.0</ele><time>2026-04-27T14:01:51Z</time></trkpt><trkpt lat="43.85492419378694" lon="12.598497207215695"><ele>327.0</ele><time>2026-04-27T14:01:52Z</time></trkpt><trkpt lat="43.85503471368859" lon="12.59852584638333"><ele>327.0</ele><time>2026-04-27T14:01:53Z</time></trkpt><trkpt lat="43.85514692253437" lon="12.598545529933265"><ele>327.0</ele><time>2026-04-27T14:01:54Z</time></trkpt><trkpt lat="43.85526010043337" lon="12.598550518726677"><ele>327.5</ele><time>2026-04-27T14:01:55Z</time></trkpt><trkpt lat="43.855374261648755" lon="12.598537722201435"><ele>328.0</ele><time>2026-04-27T14:01:56Z</time></trkpt><trkpt lat="43.855488516680474" lon="12.598510919904681"><ele>328.5</ele><time>2026-04-27T14:01:57Z</time></trkpt><trkpt lat="43.85560050637143" lon="12.598476449727357"><ele>329.0</ele><time>2026-04-27T14:01:58Z</time></trkpt><trkpt lat="43.855721573518856" lon="12.598455844730776"><ele>329.0</ele><time>2026-04-27T14:01:59Z</time></trkpt><trkpt lat="43.855839869292545" lon="12.598408274001052"><ele>329.0</ele><time>2026-04-27T14:02:00Z</time></trkpt><trkpt lat="43.85595655576971" lon="12.598339904804865"><ele>329.0</ele><time>2026-04-27T14:02:01Z</time></trkpt><trkpt lat="43.85608404332082" lon="12.598295201045408"><ele>329.0</ele><time>2026-04-27T14:02:02Z</time></trkpt><trkpt lat="43.85621445295996" lon="12.598244498751724"><ele>331.25</ele><time>2026-04-27T14:02:03Z</time></trkpt><trkpt lat="43.85634964756258" lon="12.598192680993945"><ele>333.5</ele><time>2026-04-27T14:02:04Z</time></trkpt><trkpt lat="43.856488605105035" lon="12.59813710383341"><ele>335.75</ele><time>2026-04-27T14:02:05Z</time></trkpt><trkpt lat="43.856622233232436" lon="12.598066078680143"><ele>338.0</ele><time>2026-04-27T14:02:06Z</time></trkpt><trkpt lat="43.856756547931916" lon="12.597999991638051"><ele>338.0</ele><time>2026-04-27T14:02:07Z</time></trkpt><trkpt lat="43.85688007985536" lon="12.597903801287764"><ele>338.0</ele><time>2026-04-27T14:02:08Z</time></trkpt><trkpt lat="43.85700013489162" lon="12.597800343327942"><ele>338.0</ele><time>2026-04-27T14:02:09Z</time></trkpt><trkpt lat="43.85711525390615" lon="12.597695546116821"><ele>338.0</ele><time>2026-04-27T14:02:10Z</time></trkpt><trkpt lat="43.857229282479835" lon="12.597591327654106"><ele>338.0</ele><time>2026-04-27T14:02:11Z</time></trkpt><trkpt lat="43.85734460372909" lon="12.5974944281703"><ele>338.0</ele><time>2026-04-27T14:02:12.001Z</time></trkpt><trkpt lat="43.85746427531051" lon="12.59740661084485"><ele>338.0</ele><time>2026-04-27T14:02:13.001Z</time></trkpt><trkpt lat="43.85759258523147" lon="12.597329225712874"><ele>338.0</ele><time>2026-04-27T14:02:14.001Z</time></trkpt><trkpt lat="43.85773413477728" lon="12.597255949006616"><ele>338.6666666666667</ele><time>2026-04-27T14:02:15.001Z</time></trkpt><trkpt lat="43.85788277068778" lon="12.597170959300742"><ele>339.3333333333333</ele><time>2026-04-27T14:02:16.001Z</time></trkpt><trkpt lat="43.85804703081975" lon="12.597126863778668"><ele>340.0</ele><time>2026-04-27T14:02:17.001Z</time></trkpt><trkpt lat="43.858197593776325" lon="12.597043208384163"><ele>338.75</ele><time>2026-04-27T14:02:18.001Z</time></trkpt><trkpt lat="43.858340890176585" lon="12.596985098782735"><ele>337.5</ele><time>2026-04-27T14:02:19.001Z</time></trkpt><trkpt lat="43.85847860210465" lon="12.596927610845746"><ele>336.25</ele><time>2026-04-27T14:02:20.001Z</time></trkpt><trkpt lat="43.85861035925451" lon="12.59687897648757"><ele>335.0</ele><time>2026-04-27T14:02:21.001Z</time></trkpt><trkpt lat="43.85873389167159" lon="12.596836195908248"><ele>334.4</ele><time>2026-04-27T14:02:22.001Z</time></trkpt><trkpt lat="43.858848411835844" lon="12.596792147700198"><ele>333.8</ele><time>2026-04-27T14:02:23.001Z</time></trkpt><trkpt lat="43.85895220332005" lon="12.596752153126216"><ele>333.20000000000005</ele><time>2026-04-27T14:02:24.001Z</time></trkpt><trkpt lat="43.85905075422125" lon="12.596722741275256"><ele>332.6</ele><time>2026-04-27T14:02:25.001Z</time></trkpt><trkpt lat="43.85914387665184" lon="12.59671461733944"><ele>332.0</ele><time>2026-04-27T14:02:26.001Z</time></trkpt><trkpt lat="43.8592348853486" lon="12.596752100507972"><ele>329.5</ele><time>2026-04-27T14:02:27.001Z</time></trkpt><trkpt lat="43.85931635108377" lon="12.596836283609226"><ele>327.0</ele><time>2026-04-27T14:02:28.001Z</time></trkpt><trkpt lat="43.859373262547486" lon="12.596962671206061"><ele>324.5</ele><time>2026-04-27T14:02:29.001Z</time></trkpt><trkpt lat="43.85941752426296" lon="12.59712299487368"><ele>322.0</ele><time>2026-04-27T14:02:30.001Z</time></trkpt><trkpt lat="43.85945595418911" lon="12.597308423515829"><ele>322.0</ele><time>2026-04-27T14:02:31.001Z</time></trkpt><trkpt lat="43.85949508770904" lon="12.59750999213147"><ele>322.0</ele><time>2026-04-27T14:02:32.001Z</time></trkpt><trkpt lat="43.85953515869317" lon="12.597711879537547"><ele>322.0</ele><time>2026-04-27T14:02:33.001Z</time></trkpt><trkpt lat="43.85957778658893" lon="12.59790291771524"><ele>322.0</ele><time>2026-04-27T14:02:34.001Z</time></trkpt><trkpt lat="43.859626744865274" lon="12.598077561042377"><ele>323.25</ele><time>2026-04-27T14:02:35.001Z</time></trkpt><trkpt lat="43.859685483248676" lon="12.598237157544677"><ele>324.5</ele><time>2026-04-27T14:02:36Z</time></trkpt><trkpt lat="43.859759802100804" lon="12.598376069749467"><ele>325.75</ele><time>2026-04-27T14:02:37Z</time></trkpt><trkpt lat="43.85985943181131" lon="12.598505486692597"><ele>327.0</ele><time>2026-04-27T14:02:38Z</time></trkpt><trkpt lat="43.85997805208489" lon="12.598625181826907"><ele>326.0</ele><time>2026-04-27T14:02:39Z</time></trkpt><trkpt lat="43.860107975724596" lon="12.598743693257424"><ele>325.0</ele><time>2026-04-27T14:02:40Z</time></trkpt><trkpt lat="43.860243500083996" lon="12.598868845852179"><ele>324.0</ele><time>2026-04-27T14:02:41Z</time></trkpt><trkpt lat="43.86038394987205" lon="12.598998706235129"><ele>323.6666666666667</ele><time>2026-04-27T14:02:42Z</time></trkpt><trkpt lat="43.8605243415393" lon="12.599131874280474"><ele>323.33333333333337</ele><time>2026-04-27T14:02:43Z</time></trkpt><trkpt lat="43.86066565087734" lon="12.599263007066963"><ele>323.0</ele><time>2026-04-27T14:02:44Z</time></trkpt><trkpt lat="43.860805850235096" lon="12.59938831881313"><ele>321.0</ele><time>2026-04-27T14:02:45Z</time></trkpt><trkpt lat="43.86094321934545" lon="12.599510281228207"><ele>319.0</ele><time>2026-04-27T14:02:46Z</time></trkpt><trkpt lat="43.86107705733865" lon="12.599637312177297"><ele>317.0</ele><time>2026-04-27T14:02:47Z</time></trkpt><trkpt lat="43.861207073160905" lon="12.599779858757591"><ele>317.0</ele><time>2026-04-27T14:02:48Z</time></trkpt><trkpt lat="43.8613354068526" lon="12.599931270765685"><ele>317.0</ele><time>2026-04-27T14:02:49Z</time></trkpt><trkpt lat="43.86146288709997" lon="12.600084876538274"><ele>317.0</ele><time>2026-04-27T14:02:50Z</time></trkpt><trkpt lat="43.86159071892854" lon="12.600243260106787"><ele>315.0</ele><time>2026-04-27T14:02:51Z</time></trkpt><trkpt lat="43.86171944446223" lon="12.600400442201083"><ele>313.0</ele><time>2026-04-27T14:02:52Z</time></trkpt><trkpt lat="43.861849953703214" lon="12.600556172793214"><ele>311.0</ele><time>2026-04-27T14:02:53Z</time></trkpt><trkpt lat="43.86197619777123" lon="12.600704824197301"><ele>311.0</ele><time>2026-04-27T14:02:54Z</time></trkpt><trkpt lat="43.86209067251611" lon="12.600843644014176"><ele>311.0</ele><time>2026-04-27T14:02:55Z</time></trkpt><trkpt lat="43.86218522070793" lon="12.600955739965286"><ele>311.0</ele><time>2026-04-27T14:02:56Z</time></trkpt><trkpt lat="43.862272624208074" lon="12.60105379879044"><ele>311.0</ele><time>2026-04-27T14:02:57Z</time></trkpt><trkpt lat="43.86236444160796" lon="12.60113902482222"><ele>308.0</ele><time>2026-04-27T14:02:58Z</time></trkpt><trkpt lat="43.86246441476437" lon="12.601194884392847"><ele>305.0</ele><time>2026-04-27T14:02:59Z</time></trkpt><trkpt lat="43.86257702887572" lon="12.601212536678085"><ele>302.0</ele><time>2026-04-27T14:03:00Z</time></trkpt><trkpt lat="43.86269727925383" lon="12.601218420532257"><ele>299.0</ele><time>2026-04-27T14:03:01Z</time></trkpt><trkpt lat="43.8628255931164" lon="12.601218249555375"><ele>298.25</ele><time>2026-04-27T14:03:02Z</time></trkpt><trkpt lat="43.86295842590428" lon="12.60122151132626"><ele>297.5</ele><time>2026-04-27T14:03:03Z</time></trkpt><trkpt lat="43.863092652933986" lon="12.601224572688102"><ele>296.75</ele><time>2026-04-27T14:03:04Z</time></trkpt><trkpt lat="43.86322865749656" lon="12.601235342549023"><ele>296.0</ele><time>2026-04-27T14:03:05Z</time></trkpt><trkpt lat="43.8633648543226" lon="12.601258094485324"><ele>296.5</ele><time>2026-04-27T14:03:06Z</time></trkpt><trkpt lat="43.863500847475095" lon="12.601298972752959"><ele>297.0</ele><time>2026-04-27T14:03:07Z</time></trkpt><trkpt lat="43.86363248563514" lon="12.601364267320633"><ele>297.5</ele><time>2026-04-27T14:03:08Z</time></trkpt><trkpt lat="43.863757753510775" lon="12.60145340881385"><ele>298.0</ele><time>2026-04-27T14:03:09Z</time></trkpt><trkpt lat="43.86387753431708" lon="12.601554373977581"><ele>298.0</ele><time>2026-04-27T14:03:10Z</time></trkpt><trkpt lat="43.863996435732034" lon="12.60165761830795"><ele>298.0</ele><time>2026-04-27T14:03:11Z</time></trkpt><trkpt lat="43.864118638343236" lon="12.601761617387075"><ele>298.0</ele><time>2026-04-27T14:03:12Z</time></trkpt><trkpt lat="43.864241323520105" lon="12.601869077569727"><ele>298.0</ele><time>2026-04-27T14:03:13Z</time></trkpt><trkpt lat="43.864364407629374" lon="12.601978855353948"><ele>296.0</ele><time>2026-04-27T14:03:14Z</time></trkpt><trkpt lat="43.86448855596077" lon="12.602089303083941"><ele>294.0</ele><time>2026-04-27T14:03:15Z</time></trkpt><trkpt lat="43.86461397392712" lon="12.602197078580458"><ele>292.0</ele><time>2026-04-27T14:03:16Z</time></trkpt><trkpt lat="43.864738969696596" lon="12.60230839994229"><ele>290.0</ele><time>2026-04-27T14:03:17Z</time></trkpt><trkpt lat="43.86486419543663" lon="12.602421503067239"><ele>290.0</ele><time>2026-04-27T14:03:18Z</time></trkpt><trkpt lat="43.86499009699785" lon="12.602535937606207"><ele>290.0</ele><time>2026-04-27T14:03:19Z</time></trkpt><trkpt lat="43.86511972025239" lon="12.60265199667567"><ele>290.0</ele><time>2026-04-27T14:03:20Z</time></trkpt><trkpt lat="43.86524752842738" lon="12.602772844923088"><ele>288.33333333333337</ele><time>2026-04-27T14:03:21Z</time></trkpt><trkpt lat="43.86537329302632" lon="12.602899356811145"><ele>286.6666666666667</ele><time>2026-04-27T14:03:22Z</time></trkpt><trkpt lat="43.86549552505623" lon="12.603020691445456"><ele>285.0</ele><time>2026-04-27T14:03:23Z</time></trkpt><trkpt lat="43.86561870009436" lon="12.603130379310654"><ele>285.0</ele><time>2026-04-27T14:03:24Z</time></trkpt><trkpt lat="43.86574773338432" lon="12.603223847351614"><ele>285.0</ele><time>2026-04-27T14:03:25Z</time></trkpt><trkpt lat="43.86588465563845" lon="12.603289661194017"><ele>285.0</ele><time>2026-04-27T14:03:26Z</time></trkpt><trkpt lat="43.866024901771894" lon="12.603334050902276"><ele>285.0</ele><time>2026-04-27T14:03:27Z</time></trkpt><trkpt lat="43.86617101264768" lon="12.60337319520821"><ele>285.3333333333333</ele><time>2026-04-27T14:03:28Z</time></trkpt><trkpt lat="43.866321244105066" lon="12.603419844068963"><ele>285.66666666666663</ele><time>2026-04-27T14:03:29Z</time></trkpt><trkpt lat="43.86647210815977" lon="12.60347176705803"><ele>286.0</ele><time>2026-04-27T14:03:30Z</time></trkpt><trkpt lat="43.86662267548041" lon="12.603524141715418"><ele>286.0</ele><time>2026-04-27T14:03:31Z</time></trkpt><trkpt lat="43.86677412029869" lon="12.603573742004249"><ele>286.0</ele><time>2026-04-27T14:03:32Z</time></trkpt><trkpt lat="43.86692227010119" lon="12.60362687999418"><ele>286.0</ele><time>2026-04-27T14:03:33Z</time></trkpt><trkpt lat="43.86706704648258" lon="12.603692451614949"><ele>286.0</ele><time>2026-04-27T14:03:34Z</time></trkpt><trkpt lat="43.86720556360054" lon="12.603775985260768"><ele>286.0</ele><time>2026-04-27T14:03:35Z</time></trkpt><trkpt lat="43.86734050575446" lon="12.603875049933594"><ele>286.0</ele><time>2026-04-27T14:03:36Z</time></trkpt><trkpt lat="43.867469195226505" lon="12.603982907777135"><ele>286.0</ele><time>2026-04-27T14:03:37Z</time></trkpt><trkpt lat="43.86758974365829" lon="12.60408337133257"><ele>286.0</ele><time>2026-04-27T14:03:38Z</time></trkpt><trkpt lat="43.86771128286336" lon="12.604172858001961"><ele>286.0</ele><time>2026-04-27T14:03:39Z</time></trkpt><trkpt lat="43.86784137570892" lon="12.604246505209593"><ele>286.0</ele><time>2026-04-27T14:03:40Z</time></trkpt><trkpt lat="43.86798225474345" lon="12.604302172868191"><ele>287.0</ele><time>2026-04-27T14:03:41Z</time></trkpt><trkpt lat="43.86813595259593" lon="12.604349321789337"><ele>288.0</ele><time>2026-04-27T14:03:42Z</time></trkpt><trkpt lat="43.8682967195018" lon="12.604399876698881"><ele>289.0</ele><time>2026-04-27T14:03:43Z</time></trkpt><trkpt lat="43.868458499915036" lon="12.604464522826666"><ele>287.66666666666663</ele><time>2026-04-27T14:03:44Z</time></trkpt><trkpt lat="43.868617719950365" lon="12.604539990819083"><ele>286.3333333333333</ele><time>2026-04-27T14:03:45Z</time></trkpt><trkpt lat="43.86877124038157" lon="12.604612701972833"><ele>285.0</ele><time>2026-04-27T14:03:46Z</time></trkpt><trkpt lat="43.868920389359985" lon="12.604687834756065"><ele>285.0</ele><time>2026-04-27T14:03:47Z</time></trkpt><trkpt lat="43.86906542769388" lon="12.6047689190643"><ele>285.0</ele><time>2026-04-27T14:03:48Z</time></trkpt><trkpt lat="43.86920461448997" lon="12.604852887190013"><ele>285.0</ele><time>2026-04-27T14:03:49Z</time></trkpt><trkpt lat="43.86934522489136" lon="12.60493159880079"><ele>285.6666666666667</ele><time>2026-04-27T14:03:50Z</time></trkpt><trkpt lat="43.86949104609857" lon="12.604995556953899"><ele>286.33333333333337</ele><time>2026-04-27T14:03:51Z</time></trkpt><trkpt lat="43.86964044259113" lon="12.605038320392994"><ele>287.0</ele><time>2026-04-27T14:03:52Z</time></trkpt><trkpt lat="43.869796334128935" lon="12.605058220445578"><ele>287.0</ele><time>2026-04-27T14:03:53Z</time></trkpt><trkpt lat="43.86995841218116" lon="12.605073580465701"><ele>287.0</ele><time>2026-04-27T14:03:54Z</time></trkpt><trkpt lat="43.87012493318726" lon="12.60509546879671"><ele>287.0</ele><time>2026-04-27T14:03:55Z</time></trkpt><trkpt lat="43.87029440348049" lon="12.605126767705883"><ele>288.6666666666667</ele><time>2026-04-27T14:03:56Z</time></trkpt><trkpt lat="43.870463425272725" lon="12.605163790495107"><ele>290.3333333333333</ele><time>2026-04-27T14:03:57Z</time></trkpt><trkpt lat="43.87062522919852" lon="12.605196828886658"><ele>292.0</ele><time>2026-04-27T14:03:58Z</time></trkpt><trkpt lat="43.87077484397054" lon="12.605218493688037"><ele>292.0</ele><time>2026-04-27T14:03:59Z</time></trkpt><trkpt lat="43.87092041560479" lon="12.605209371155349"><ele>292.0</ele><time>2026-04-27T14:04:00Z</time></trkpt><trkpt lat="43.87106348601803" lon="12.60517452516246"><ele>292.0</ele><time>2026-04-27T14:04:01Z</time></trkpt><trkpt lat="43.871200848114675" lon="12.605122830074679"><ele>292.0</ele><time>2026-04-27T14:04:02Z</time></trkpt><trkpt lat="43.87133757139244" lon="12.60505928013864"><ele>292.3333333333333</ele><time>2026-04-27T14:04:03Z</time></trkpt><trkpt lat="43.87147973505719" lon="12.604993767220215"><ele>292.6666666666667</ele><time>2026-04-27T14:04:04Z</time></trkpt><trkpt lat="43.87162910150089" lon="12.604941225378772"><ele>293.0</ele><time>2026-04-27T14:04:05Z</time></trkpt><trkpt lat="43.87178770272742" lon="12.604909088691567"><ele>293.0</ele><time>2026-04-27T14:04:06Z</time></trkpt><trkpt lat="43.87195339210022" lon="12.604895558170888"><ele>293.0</ele><time>2026-04-27T14:04:07Z</time></trkpt><trkpt lat="43.8721183448021" lon="12.604894600502101"><ele>293.0</ele><time>2026-04-27T14:04:08Z</time></trkpt><trkpt lat="43.87227129283728" lon="12.604907875309527"><ele>293.0</ele><time>2026-04-27T14:04:09Z</time></trkpt><trkpt lat="43.872415284921935" lon="12.604934392210605"><ele>293.0</ele><time>2026-04-27T14:04:10Z</time></trkpt><trkpt lat="43.87256013839827" lon="12.604987728526904"><ele>293.0</ele><time>2026-04-27T14:04:11Z</time></trkpt><trkpt lat="43.87270387641517" lon="12.605061996368612"><ele>293.0</ele><time>2026-04-27T14:04:12Z</time></trkpt><trkpt lat="43.87284258756524" lon="12.605158769865621"><ele>293.6666666666667</ele><time>2026-04-27T14:04:13Z</time></trkpt><trkpt lat="43.87297470513302" lon="12.605269623564885"><ele>294.3333333333333</ele><time>2026-04-27T14:04:14Z</time></trkpt><trkpt lat="43.87310559448243" lon="12.605395548099926"><ele>295.0</ele><time>2026-04-27T14:04:15Z</time></trkpt><trkpt lat="43.873236935280445" lon="12.605528234675624"><ele>295.0</ele><time>2026-04-27T14:04:16Z</time></trkpt><trkpt lat="43.87337001569437" lon="12.605655212442505"><ele>295.0</ele><time>2026-04-27T14:04:17Z</time></trkpt><trkpt lat="43.87351592237343" lon="12.605762150773918"><ele>295.0</ele><time>2026-04-27T14:04:18.001Z</time></trkpt><trkpt lat="43.87367220958961" lon="12.605863559495528"><ele>295.0</ele><time>2026-04-27T14:04:19.001Z</time></trkpt><trkpt lat="43.8738306879655" lon="12.605967029399057"><ele>295.0</ele><time>2026-04-27T14:04:20.001Z</time></trkpt><trkpt lat="43.87398989120904" lon="12.606086323443808"><ele>295.0</ele><time>2026-04-27T14:04:21.001Z</time></trkpt><trkpt lat="43.87414842067643" lon="12.606210721482759"><ele>297.0</ele><time>2026-04-27T14:04:22.001Z</time></trkpt><trkpt lat="43.87430559009908" lon="12.606333755532454"><ele>299.0</ele><time>2026-04-27T14:04:23.001Z</time></trkpt><trkpt lat="43.874457815898126" lon="12.606455069766152"><ele>301.0</ele><time>2026-04-27T14:04:24.001Z</time></trkpt><trkpt lat="43.87460814075479" lon="12.606577152257039"><ele>301.0</ele><time>2026-04-27T14:04:25.001Z</time></trkpt><trkpt lat="43.874756302956044" lon="12.60669778737056"><ele>301.0</ele><time>2026-04-27T14:04:26.001Z</time></trkpt><trkpt lat="43.87490830494125" lon="12.606798991870056"><ele>301.0</ele><time>2026-04-27T14:04:27.001Z</time></trkpt><trkpt lat="43.875070949621275" lon="12.6068754985508"><ele>300.66666666666663</ele><time>2026-04-27T14:04:28.001Z</time></trkpt><trkpt lat="43.875238794845075" lon="12.606941367184074"><ele>300.3333333333333</ele><time>2026-04-27T14:04:29.001Z</time></trkpt><trkpt lat="43.875408390115425" lon="12.607003867875678"><ele>300.0</ele><time>2026-04-27T14:04:30.001Z</time></trkpt><trkpt lat="43.87557835338619" lon="12.607066389575845"><ele>302.3333333333333</ele><time>2026-04-27T14:04:31.001Z</time></trkpt><trkpt lat="43.87574494882679" lon="12.607134242655542"><ele>304.66666666666663</ele><time>2026-04-27T14:04:32.001Z</time></trkpt><trkpt lat="43.87590742692071" lon="12.60720285416225"><ele>307.0</ele><time>2026-04-27T14:04:33.001Z</time></trkpt><trkpt lat="43.876054809583096" lon="12.607275867477943"><ele>307.0</ele><time>2026-04-27T14:04:34.001Z</time></trkpt><trkpt lat="43.876200056758954" lon="12.60737690655732"><ele>307.0</ele><time>2026-04-27T14:04:35.001Z</time></trkpt><trkpt lat="43.876342144662985" lon="12.60750133278304"><ele>307.0</ele><time>2026-04-27T14:04:36.001Z</time></trkpt><trkpt lat="43.876481054359175" lon="12.60763644614662"><ele>307.0</ele><time>2026-04-27T14:04:37Z</time></trkpt><trkpt lat="43.87660828234856" lon="12.607768172697563"><ele>307.0</ele><time>2026-04-27T14:04:38Z</time></trkpt><trkpt lat="43.876725562072195" lon="12.607888377098634"><ele>307.0</ele><time>2026-04-27T14:04:39Z</time></trkpt><trkpt lat="43.8768433249038" lon="12.607988563673313"><ele>307.0</ele><time>2026-04-27T14:04:40Z</time></trkpt><trkpt lat="43.87697285840932" lon="12.608066630180481"><ele>307.75</ele><time>2026-04-27T14:04:41Z</time></trkpt><trkpt lat="43.877108596279975" lon="12.608112612117447"><ele>308.5</ele><time>2026-04-27T14:04:42Z</time></trkpt><trkpt lat="43.87725116977501" lon="12.608129490960886"><ele>309.25</ele><time>2026-04-27T14:04:43Z</time></trkpt><trkpt lat="43.877405761939094" lon="12.608127626048022"><ele>310.0</ele><time>2026-04-27T14:04:44Z</time></trkpt><trkpt lat="43.87756943278044" lon="12.608121588121953"><ele>311.5</ele><time>2026-04-27T14:04:45Z</time></trkpt><trkpt lat="43.87772805538294" lon="12.60812167185299"><ele>313.0</ele><time>2026-04-27T14:04:46Z</time></trkpt><trkpt lat="43.87787247798987" lon="12.608133344377043"><ele>314.5</ele><time>2026-04-27T14:04:47Z</time></trkpt><trkpt lat="43.87800789319572" lon="12.608163612777147"><ele>316.0</ele><time>2026-04-27T14:04:48Z</time></trkpt><trkpt lat="43.87813629457261" lon="12.608201805762754"><ele>316.0</ele><time>2026-04-27T14:04:49Z</time></trkpt><trkpt lat="43.87825817122817" lon="12.60823601027139"><ele>316.0</ele><time>2026-04-27T14:04:50Z</time></trkpt><trkpt lat="43.87837550191262" lon="12.608263049195626"><ele>316.0</ele><time>2026-04-27T14:04:51Z</time></trkpt><trkpt lat="43.87848802464609" lon="12.60828944599918"><ele>316.0</ele><time>2026-04-27T14:04:52Z</time></trkpt><trkpt lat="43.87859415235984" lon="12.608313422564198"><ele>316.3333333333333</ele><time>2026-04-27T14:04:53Z</time></trkpt><trkpt lat="43.87869161961125" lon="12.608330981938034"><ele>316.66666666666663</ele><time>2026-04-27T14:04:54Z</time></trkpt><trkpt lat="43.87877717059207" lon="12.608345454894891"><ele>317.0</ele><time>2026-04-27T14:04:55Z</time></trkpt><trkpt lat="43.8788451213932" lon="12.608357648891866"><ele>317.3333333333333</ele><time>2026-04-27T14:04:56Z</time></trkpt><trkpt lat="43.87891208397288" lon="12.608371756393051"><ele>317.6666666666667</ele><time>2026-04-27T14:04:57Z</time></trkpt><trkpt lat="43.87898590860317" lon="12.608387672661236"><ele>318.0</ele><time>2026-04-27T14:04:58Z</time></trkpt><trkpt lat="43.879069387885544" lon="12.608409168028654"><ele>318.0</ele><time>2026-04-27T14:04:59Z</time></trkpt><trkpt lat="43.879162744466164" lon="12.6084323627966"><ele>318.0</ele><time>2026-04-27T14:05:00Z</time></trkpt><trkpt lat="43.87926604263614" lon="12.608450721932291"><ele>318.0</ele><time>2026-04-27T14:05:01Z</time></trkpt><trkpt lat="43.879376568317355" lon="12.608476381388645"><ele>318.0</ele><time>2026-04-27T14:05:02Z</time></trkpt><trkpt lat="43.87949048408284" lon="12.60851803123122"><ele>318.0</ele><time>2026-04-27T14:05:03Z</time></trkpt><trkpt lat="43.87960116912787" lon="12.60858153982442"><ele>319.5</ele><time>2026-04-27T14:05:04Z</time></trkpt><trkpt lat="43.879703211459535" lon="12.608669361028426"><ele>321.0</ele><time>2026-04-27T14:05:05Z</time></trkpt><trkpt lat="43.879795112305295" lon="12.60878193953651"><ele>322.5</ele><time>2026-04-27T14:05:06Z</time></trkpt><trkpt lat="43.87987548088772" lon="12.6089196830016"><ele>324.0</ele><time>2026-04-27T14:05:07Z</time></trkpt><trkpt lat="43.87994320867937" lon="12.609085269036754"><ele>324.0</ele><time>2026-04-27T14:05:08Z</time></trkpt><trkpt lat="43.88000194503232" lon="12.60926975401698"><ele>324.0</ele><time>2026-04-27T14:05:09Z</time></trkpt><trkpt lat="43.88005829990747" lon="12.609468420940352"><ele>324.0</ele><time>2026-04-27T14:05:10Z</time></trkpt><trkpt lat="43.88011698266137" lon="12.609675587285352"><ele>332.3333333333333</ele><time>2026-04-27T14:05:11Z</time></trkpt><trkpt lat="43.880175935799016" lon="12.609884409533521"><ele>340.66666666666663</ele><time>2026-04-27T14:05:12Z</time></trkpt><trkpt lat="43.880229234893434" lon="12.610083679401916"><ele>349.0</ele><time>2026-04-27T14:05:13Z</time></trkpt><trkpt lat="43.880280681639036" lon="12.6102748050663"><ele>347.5</ele><time>2026-04-27T14:05:14Z</time></trkpt><trkpt lat="43.880329828214265" lon="12.61045545942123"><ele>346.0</ele><time>2026-04-27T14:05:15Z</time></trkpt><trkpt lat="43.88037872422216" lon="12.610629602173924"><ele>344.5</ele><time>2026-04-27T14:05:16Z</time></trkpt><trkpt lat="43.88043934056916" lon="12.610794930082985"><ele>343.0</ele><time>2026-04-27T14:05:17Z</time></trkpt><trkpt lat="43.88051747035134" lon="12.610942330580674"><ele>343.0</ele><time>2026-04-27T14:05:18Z</time></trkpt><trkpt lat="43.88061201511669" lon="12.611074288324364"><ele>343.0</ele><time>2026-04-27T14:05:19Z</time></trkpt><trkpt lat="43.88070888114952" lon="12.61118970746726"><ele>343.0</ele><time>2026-04-27T14:05:20Z</time></trkpt><trkpt lat="43.88080232394438" lon="12.611304400066478"><ele>343.0</ele><time>2026-04-27T14:05:21Z</time></trkpt><trkpt lat="43.88088916370465" lon="12.61143640083204"><ele>343.25</ele><time>2026-04-27T14:05:22Z</time></trkpt><trkpt lat="43.88095301998814" lon="12.611598317531557"><ele>343.5</ele><time>2026-04-27T14:05:23Z</time></trkpt><trkpt lat="43.88099254073321" lon="12.611786848226622"><ele>343.75</ele><time>2026-04-27T14:05:24Z</time></trkpt><trkpt lat="43.881001537517115" lon="12.611971018133849"><ele>344.0</ele><time>2026-04-27T14:05:25Z</time></trkpt><trkpt lat="43.880996047657575" lon="12.612152083348844"><ele>344.0</ele><time>2026-04-27T14:05:26Z</time></trkpt><trkpt lat="43.88100134544298" lon="12.612324497640289"><ele>344.0</ele><time>2026-04-27T14:05:27Z</time></trkpt><trkpt lat="43.88102683801331" lon="12.612478742136753"><ele>344.0</ele><time>2026-04-27T14:05:28Z</time></trkpt><trkpt lat="43.88107520863164" lon="12.6126361482816"><ele>344.0</ele><time>2026-04-27T14:05:29Z</time></trkpt><trkpt lat="43.881148414423336" lon="12.612783314742492"><ele>342.0</ele><time>2026-04-27T14:05:30Z</time></trkpt><trkpt lat="43.88123841228212" lon="12.612918956100392"><ele>340.0</ele><time>2026-04-27T14:05:31Z</time></trkpt><trkpt lat="43.8813366179113" lon="12.613052682518523"><ele>338.0</ele><time>2026-04-27T14:05:32Z</time></trkpt><trkpt lat="43.8814326145279" lon="12.613193848213053"><ele>336.0</ele><time>2026-04-27T14:05:33Z</time></trkpt><trkpt lat="43.88151915425863" lon="12.613346211055603"><ele>336.0</ele><time>2026-04-27T14:05:34Z</time></trkpt><trkpt lat="43.881584280110076" lon="12.613510928875787"><ele>336.0</ele><time>2026-04-27T14:05:35Z</time></trkpt><trkpt lat="43.881623421501274" lon="12.613682416896754"><ele>336.0</ele><time>2026-04-27T14:05:36Z</time></trkpt><trkpt lat="43.88163714332398" lon="12.613856384339151"><ele>336.0</ele><time>2026-04-27T14:05:37Z</time></trkpt><trkpt lat="43.881636818022855" lon="12.614035094491923"><ele>336.0</ele><time>2026-04-27T14:05:38Z</time></trkpt><trkpt lat="43.88162478298077" lon="12.614215054659859"><ele>336.0</ele><time>2026-04-27T14:05:39Z</time></trkpt><trkpt lat="43.8816045543312" lon="12.614403063016203"><ele>336.0</ele><time>2026-04-27T14:05:40Z</time></trkpt><trkpt lat="43.88157353642425" lon="12.614595574793134"><ele>336.0</ele><time>2026-04-27T14:05:41Z</time></trkpt><trkpt lat="43.88153866065675" lon="12.614793507254975"><ele>337.25</ele><time>2026-04-27T14:05:42Z</time></trkpt><trkpt lat="43.881504803090024" lon="12.614997716707887"><ele>338.5</ele><time>2026-04-27T14:05:43Z</time></trkpt><trkpt lat="43.881470794586356" lon="12.615201497934525"><ele>339.75</ele><time>2026-04-27T14:05:44Z</time></trkpt><trkpt lat="43.88143736976464" lon="12.615400395294438"><ele>341.0</ele><time>2026-04-27T14:05:45Z</time></trkpt><trkpt lat="43.88140659606592" lon="12.615592649124565"><ele>341.25</ele><time>2026-04-27T14:05:46Z</time></trkpt><trkpt lat="43.881383128638944" lon="12.615786306227738"><ele>341.5</ele><time>2026-04-27T14:05:47Z</time></trkpt><trkpt lat="43.88137446706908" lon="12.615982757176798"><ele>341.75</ele><time>2026-04-27T14:05:48Z</time></trkpt><trkpt lat="43.88138171790989" lon="12.61618161965639"><ele>342.0</ele><time>2026-04-27T14:05:49Z</time></trkpt><trkpt lat="43.88139845614128" lon="12.616381792951278"><ele>342.0</ele><time>2026-04-27T14:05:50Z</time></trkpt><trkpt lat="43.8814177565721" lon="12.616580533211936"><ele>342.0</ele><time>2026-04-27T14:05:51Z</time></trkpt><trkpt lat="43.881441571332815" lon="12.616777045903621"><ele>342.0</ele><time>2026-04-27T14:05:52Z</time></trkpt><trkpt lat="43.881472953439804" lon="12.616968439009915"><ele>342.0</ele><time>2026-04-27T14:05:53Z</time></trkpt><trkpt lat="43.8815181116238" lon="12.617150233439489"><ele>343.25</ele><time>2026-04-27T14:05:54Z</time></trkpt><trkpt lat="43.88158002070456" lon="12.617324845429927"><ele>344.5</ele><time>2026-04-27T14:05:55Z</time></trkpt><trkpt lat="43.88166053630453" lon="12.617486552457004"><ele>345.75</ele><time>2026-04-27T14:05:56Z</time></trkpt><trkpt lat="43.88175372984657" lon="12.61763551238867"><ele>347.0</ele><time>2026-04-27T14:05:57Z</time></trkpt><trkpt lat="43.881850543421336" lon="12.617777270399618"><ele>346.0</ele><time>2026-04-27T14:05:58Z</time></trkpt><trkpt lat="43.88194802877775" lon="12.617919711370115"><ele>345.0</ele><time>2026-04-27T14:05:59Z</time></trkpt><trkpt lat="43.88204354533763" lon="12.618066453918157"><ele>344.0</ele><time>2026-04-27T14:06:00Z</time></trkpt><trkpt lat="43.88213053112061" lon="12.618207631341232"><ele>343.0</ele><time>2026-04-27T14:06:01Z</time></trkpt><trkpt lat="43.8822010066218" lon="12.618346708486678"><ele>343.0</ele><time>2026-04-27T14:06:02Z</time></trkpt><trkpt lat="43.88224492084362" lon="12.618494765032011"><ele>343.0</ele><time>2026-04-27T14:06:03Z</time></trkpt><trkpt lat="43.882263173488006" lon="12.618662720268633"><ele>343.0</ele><time>2026-04-27T14:06:04Z</time></trkpt><trkpt lat="43.88224770502901" lon="12.618830364723546"><ele>343.0</ele><time>2026-04-27T14:06:05Z</time></trkpt><trkpt lat="43.882204017693375" lon="12.61899125069924"><ele>343.75</ele><time>2026-04-27T14:06:06Z</time></trkpt><trkpt lat="43.88215102121781" lon="12.6191465668145"><ele>344.5</ele><time>2026-04-27T14:06:07Z</time></trkpt><trkpt lat="43.88211026308118" lon="12.619301188134864"><ele>345.25</ele><time>2026-04-27T14:06:08Z</time></trkpt><trkpt lat="43.88208167502493" lon="12.61946346703329"><ele>346.0</ele><time>2026-04-27T14:06:09Z</time></trkpt><trkpt lat="43.88206115707003" lon="12.619641197885409"><ele>346.5</ele><time>2026-04-27T14:06:10Z</time></trkpt><trkpt lat="43.88204755466313" lon="12.619829577714368"><ele>347.0</ele><time>2026-04-27T14:06:11Z</time></trkpt><trkpt lat="43.88203839875327" lon="12.620023743707046"><ele>347.5</ele><time>2026-04-27T14:06:12Z</time></trkpt><trkpt lat="43.88203308713478" lon="12.620226579204546"><ele>348.0</ele><time>2026-04-27T14:06:13Z</time></trkpt><trkpt lat="43.88203212845077" lon="12.620434237876577"><ele>348.75</ele><time>2026-04-27T14:06:14Z</time></trkpt><trkpt lat="43.882033085311505" lon="12.620635982971542"><ele>349.5</ele><time>2026-04-27T14:06:15Z</time></trkpt><trkpt lat="43.88203137990708" lon="12.620833132903396"><ele>350.25</ele><time>2026-04-27T14:06:16Z</time></trkpt><trkpt lat="43.88202789573775" lon="12.621026749394597"><ele>351.0</ele><time>2026-04-27T14:06:17Z</time></trkpt><trkpt lat="43.88201731479744" lon="12.62121615909424"><ele>351.25</ele><time>2026-04-27T14:06:18Z</time></trkpt><trkpt lat="43.88199499600073" lon="12.621397387966336"><ele>351.5</ele><time>2026-04-27T14:06:19Z</time></trkpt><trkpt lat="43.8819583019896" lon="12.621565825541735"><ele>351.75</ele><time>2026-04-27T14:06:20Z</time></trkpt><trkpt lat="43.88190792557517" lon="12.621723510768776"><ele>352.0</ele><time>2026-04-27T14:06:21Z</time></trkpt><trkpt lat="43.88184372828498" lon="12.621868618208092"><ele>351.20000000000005</ele><time>2026-04-27T14:06:22Z</time></trkpt><trkpt lat="43.88177448725397" lon="12.622002292509753"><ele>350.4</ele><time>2026-04-27T14:06:23Z</time></trkpt><trkpt lat="43.88171060276807" lon="12.62212710205391"><ele>349.6</ele><time>2026-04-27T14:06:24.001Z</time></trkpt><trkpt lat="43.881652712685195" lon="12.622241071416003"><ele>348.79999999999995</ele><time>2026-04-27T14:06:25.001Z</time></trkpt><trkpt lat="43.88160056986021" lon="12.622344365409528"><ele>348.0</ele><time>2026-04-27T14:06:26.001Z</time></trkpt><trkpt lat="43.881550807577064" lon="12.622436341750367"><ele>346.6666666666667</ele><time>2026-04-27T14:06:27.001Z</time></trkpt><trkpt lat="43.881506713638885" lon="12.622511697599297"><ele>345.3333333333333</ele><time>2026-04-27T14:06:28.001Z</time></trkpt><trkpt lat="43.88144566380332" lon="12.622610135692206"><ele>344.0</ele><time>2026-04-27T14:06:30Z</time></trkpt><trkpt lat="43.88140828496216" lon="12.622695764809217"><ele>342.66666666666663</ele><time>2026-04-27T14:06:32Z</time></trkpt><trkpt lat="43.88146364015908" lon="12.62276863962431"><ele>341.3333333333333</ele><time>2026-04-27T14:06:33Z</time></trkpt><trkpt lat="43.88158338248456" lon="12.622812042465338"><ele>340.0</ele><time>2026-04-27T14:06:35Z</time></trkpt><trkpt lat="43.8816526117504" lon="12.62283021766467"><ele>339.2857142857143</ele><time>2026-04-27T14:06:36Z</time></trkpt><trkpt lat="43.881727751123236" lon="12.622870549872198"><ele>338.57142857142856</ele><time>2026-04-27T14:06:37Z</time></trkpt><trkpt lat="43.8817987499217" lon="12.622904846849616"><ele>337.85714285714283</ele><time>2026-04-27T14:06:38Z</time></trkpt><trkpt lat="43.881872165197294" lon="12.62292992162425"><ele>337.1428571428571</ele><time>2026-04-27T14:06:39Z</time></trkpt><trkpt lat="43.88194086517443" lon="12.62292037764254"><ele>336.42857142857144</ele><time>2026-04-27T14:06:40Z</time></trkpt><trkpt lat="43.882005121778796" lon="12.62290696216643"><ele>335.71428571428567</ele><time>2026-04-27T14:06:41Z</time></trkpt><trkpt lat="43.88205821462331" lon="12.622822352167123"><ele>335.0</ele><time>2026-04-27T14:06:42Z</time></trkpt><trkpt lat="43.88207190317903" lon="12.62269354511774"><ele>337.6</ele><time>2026-04-27T14:06:43Z</time></trkpt><trkpt lat="43.88209203387925" lon="12.62256911667591"><ele>340.2</ele><time>2026-04-27T14:06:44Z</time></trkpt><trkpt lat="43.88213015719038" lon="12.622442292318059"><ele>342.79999999999995</ele><time>2026-04-27T14:06:45Z</time></trkpt><trkpt lat="43.88215910175218" lon="12.622293062919026"><ele>345.4</ele><time>2026-04-27T14:06:46Z</time></trkpt><trkpt lat="43.88219167377678" lon="12.622130262123205"><ele>348.0</ele><time>2026-04-27T14:06:47Z</time></trkpt><trkpt lat="43.882228615197455" lon="12.621958756091782"><ele>349.0</ele><time>2026-04-27T14:06:48Z</time></trkpt><trkpt lat="43.88227089987142" lon="12.621781722224064"><ele>350.0</ele><time>2026-04-27T14:06:49Z</time></trkpt><trkpt lat="43.88232269923422" lon="12.621600821830059"><ele>351.0</ele><time>2026-04-27T14:06:50Z</time></trkpt><trkpt lat="43.882382900197726" lon="12.621408407179938"><ele>352.0</ele><time>2026-04-27T14:06:51Z</time></trkpt><trkpt lat="43.88244406769213" lon="12.621212760582338"><ele>351.75</ele><time>2026-04-27T14:06:52Z</time></trkpt><trkpt lat="43.882505022216854" lon="12.621017256535781"><ele>351.5</ele><time>2026-04-27T14:06:53Z</time></trkpt><trkpt lat="43.88256121584603" lon="12.620831380396767"><ele>351.25</ele><time>2026-04-27T14:06:54Z</time></trkpt><trkpt lat="43.88261280408807" lon="12.620653252737627"><ele>351.0</ele><time>2026-04-27T14:06:55Z</time></trkpt><trkpt lat="43.882660849445585" lon="12.620482122943356"><ele>355.75</ele><time>2026-04-27T14:06:56Z</time></trkpt><trkpt lat="43.882702175817705" lon="12.620295803616067"><ele>360.5</ele><time>2026-04-27T14:06:57Z</time></trkpt><trkpt lat="43.88272172717306" lon="12.620101284796165"><ele>365.25</ele><time>2026-04-27T14:06:58Z</time></trkpt><trkpt lat="43.88273258784716" lon="12.619906093510911"><ele>370.0</ele><time>2026-04-27T14:06:59Z</time></trkpt><trkpt lat="43.882739390427936" lon="12.61972617479308"><ele>370.0</ele><time>2026-04-27T14:07:00Z</time></trkpt><trkpt lat="43.882748012981125" lon="12.619568998436218"><ele>370.0</ele><time>2026-04-27T14:07:01Z</time></trkpt><trkpt lat="43.88276219077264" lon="12.619430356790822"><ele>370.0</ele><time>2026-04-27T14:07:02Z</time></trkpt><trkpt lat="43.88279811819334" lon="12.619296418728853"><ele>370.0</ele><time>2026-04-27T14:07:03Z</time></trkpt><trkpt lat="43.88285242033446" lon="12.619163811296461"><ele>370.0</ele><time>2026-04-27T14:07:04Z</time></trkpt><trkpt lat="43.88291978417234" lon="12.61902392047692"><ele>369.0</ele><time>2026-04-27T14:07:05Z</time></trkpt><trkpt lat="43.88298550319792" lon="12.61886842201487"><ele>368.0</ele><time>2026-04-27T14:07:06Z</time></trkpt><trkpt lat="43.88304252604314" lon="12.618703625541142"><ele>367.0</ele><time>2026-04-27T14:07:07Z</time></trkpt><trkpt lat="43.88308120877336" lon="12.618525645715774"><ele>366.0</ele><time>2026-04-27T14:07:08Z</time></trkpt><trkpt lat="43.88310790477925" lon="12.618347751860307"><ele>364.0</ele><time>2026-04-27T14:07:09Z</time></trkpt><trkpt lat="43.88313553085582" lon="12.618177195366433"><ele>362.0</ele><time>2026-04-27T14:07:10Z</time></trkpt><trkpt lat="43.8831633903016" lon="12.618005197221157"><ele>360.0</ele><time>2026-04-27T14:07:11Z</time></trkpt><trkpt lat="43.8831894768383" lon="12.617830397075286"><ele>358.0</ele><time>2026-04-27T14:07:12Z</time></trkpt><trkpt lat="43.88321424609044" lon="12.61765201422827"><ele>357.5</ele><time>2026-04-27T14:07:13Z</time></trkpt><trkpt lat="43.88323751016991" lon="12.617473342205418"><ele>357.0</ele><time>2026-04-27T14:07:14Z</time></trkpt><trkpt lat="43.88326059457108" lon="12.617296050134897"><ele>356.5</ele><time>2026-04-27T14:07:15Z</time></trkpt><trkpt lat="43.88328250146358" lon="12.617118681176946"><ele>356.0</ele><time>2026-04-27T14:07:16Z</time></trkpt><trkpt lat="43.883294282076356" lon="12.616938627147416"><ele>355.75</ele><time>2026-04-27T14:07:17Z</time></trkpt><trkpt lat="43.88329869160515" lon="12.616759202950306"><ele>355.5</ele><time>2026-04-27T14:07:18Z</time></trkpt><trkpt lat="43.883269166343716" lon="12.616570384386538"><ele>355.25</ele><time>2026-04-27T14:07:19Z</time></trkpt><trkpt lat="43.8832208262055" lon="12.616381663185297"><ele>355.0</ele><time>2026-04-27T14:07:20Z</time></trkpt><trkpt lat="43.883182932636466" lon="12.616181463199876"><ele>356.0</ele><time>2026-04-27T14:07:21Z</time></trkpt><trkpt lat="43.88313799512161" lon="12.615980783948533"><ele>357.0</ele><time>2026-04-27T14:07:22Z</time></trkpt><trkpt lat="43.88310942040565" lon="12.615766532893396"><ele>358.0</ele><time>2026-04-27T14:07:23Z</time></trkpt><trkpt lat="43.883065404302634" lon="12.615560143775568"><ele>358.0</ele><time>2026-04-27T14:07:24Z</time></trkpt><trkpt lat="43.88302562654814" lon="12.615373628121947"><ele>358.0</ele><time>2026-04-27T14:07:25Z</time></trkpt><trkpt lat="43.88298980990711" lon="12.615205685149316"><ele>358.0</ele><time>2026-04-27T14:07:26Z</time></trkpt><trkpt lat="43.88296609110351" lon="12.615060618967522"><ele>358.0</ele><time>2026-04-27T14:07:27Z</time></trkpt><trkpt lat="43.882955550769005" lon="12.614931570690008"><ele>359.5</ele><time>2026-04-27T14:07:28Z</time></trkpt><trkpt lat="43.882946516419736" lon="12.614826106652288"><ele>361.0</ele><time>2026-04-27T14:07:29Z</time></trkpt><trkpt lat="43.88297718736731" lon="12.614728316703513"><ele>362.5</ele><time>2026-04-27T14:07:30Z</time></trkpt><trkpt lat="43.8830278306838" lon="12.614636505278172"><ele>364.0</ele><time>2026-04-27T14:07:31Z</time></trkpt><trkpt lat="43.883109724370975" lon="12.614572066551657"><ele>365.5</ele><time>2026-04-27T14:07:32Z</time></trkpt><trkpt lat="43.883191955337516" lon="12.614487797324376"><ele>367.0</ele><time>2026-04-27T14:07:33Z</time></trkpt><trkpt lat="43.883285455773056" lon="12.61439879699892"><ele>367.25</ele><time>2026-04-27T14:07:34Z</time></trkpt><trkpt lat="43.88338549165116" lon="12.61430800726686"><ele>367.5</ele><time>2026-04-27T14:07:35Z</time></trkpt><trkpt lat="43.88348678341086" lon="12.614200898366612"><ele>367.75</ele><time>2026-04-27T14:07:36Z</time></trkpt><trkpt lat="43.883611017615806" lon="12.61414445215812"><ele>368.0</ele><time>2026-04-27T14:07:37Z</time></trkpt><trkpt lat="43.88373574487747" lon="12.614075622180792"><ele>368.0</ele><time>2026-04-27T14:07:38Z</time></trkpt><trkpt lat="43.883864980438965" lon="12.61401167963044"><ele>368.0</ele><time>2026-04-27T14:07:39Z</time></trkpt><trkpt lat="43.88399314183386" lon="12.613933080381488"><ele>368.0</ele><time>2026-04-27T14:07:40Z</time></trkpt><trkpt lat="43.88412800566278" lon="12.613882963710326"><ele>368.0</ele><time>2026-04-27T14:07:41Z</time></trkpt><trkpt lat="43.88426506261499" lon="12.613833273265287"><ele>366.0</ele><time>2026-04-27T14:07:42Z</time></trkpt><trkpt lat="43.88439397296533" lon="12.613783663497047"><ele>364.0</ele><time>2026-04-27T14:07:43Z</time></trkpt><trkpt lat="43.88451978378364" lon="12.613735837219775"><ele>362.0</ele><time>2026-04-27T14:07:44Z</time></trkpt><trkpt lat="43.88463863907745" lon="12.61368820859497"><ele>360.0</ele><time>2026-04-27T14:07:45Z</time></trkpt><trkpt lat="43.884754005369736" lon="12.613633677393356"><ele>363.0</ele><time>2026-04-27T14:07:46Z</time></trkpt><trkpt lat="43.884864020700775" lon="12.613580049016011"><ele>366.0</ele><time>2026-04-27T14:07:47Z</time></trkpt><trkpt lat="43.884971945351055" lon="12.613519461313212"><ele>369.0</ele><time>2026-04-27T14:07:48Z</time></trkpt><trkpt lat="43.885082737335956" lon="12.613453657314626"><ele>372.0</ele><time>2026-04-27T14:07:49Z</time></trkpt><trkpt lat="43.8851930670284" lon="12.613386451155447"><ele>372.0</ele><time>2026-04-27T14:07:50Z</time></trkpt><trkpt lat="43.88530128131439" lon="12.613315358179287"><ele>372.0</ele><time>2026-04-27T14:07:51Z</time></trkpt><trkpt lat="43.88541245975487" lon="12.613255699877579"><ele>372.0</ele><time>2026-04-27T14:07:52Z</time></trkpt><trkpt lat="43.88551845738541" lon="12.613185726621847"><ele>372.0</ele><time>2026-04-27T14:07:53Z</time></trkpt><trkpt lat="43.88562942669409" lon="12.613112259636916"><ele>372.0</ele><time>2026-04-27T14:07:54Z</time></trkpt><trkpt lat="43.88574306003535" lon="12.613042279913184"><ele>372.0</ele><time>2026-04-27T14:07:55Z</time></trkpt><trkpt lat="43.88585968453738" lon="12.612980093538361"><ele>372.0</ele><time>2026-04-27T14:07:56Z</time></trkpt><trkpt lat="43.885977105479135" lon="12.612915344623667"><ele>372.0</ele><time>2026-04-27T14:07:57Z</time></trkpt><trkpt lat="43.88608863210157" lon="12.612849429917148"><ele>373.5</ele><time>2026-04-27T14:07:58Z</time></trkpt><trkpt lat="43.88620111754354" lon="12.612778141836102"><ele>375.0</ele><time>2026-04-27T14:07:59Z</time></trkpt><trkpt lat="43.886310736656256" lon="12.612709886330512"><ele>376.5</ele><time>2026-04-27T14:08:00Z</time></trkpt><trkpt lat="43.886420397132" lon="12.612642789252835"><ele>378.0</ele><time>2026-04-27T14:08:01Z</time></trkpt><trkpt lat="43.886529622386405" lon="12.61257331019067"><ele>378.0</ele><time>2026-04-27T14:08:02Z</time></trkpt><trkpt lat="43.88663912328937" lon="12.612509575708295"><ele>378.0</ele><time>2026-04-27T14:08:03Z</time></trkpt><trkpt lat="43.88674510254951" lon="12.612446437679191"><ele>378.0</ele><time>2026-04-27T14:08:04Z</time></trkpt><trkpt lat="43.88684804603631" lon="12.612384226642545"><ele>378.0</ele><time>2026-04-27T14:08:05Z</time></trkpt><trkpt lat="43.88695027397004" lon="12.612324525950687"><ele>377.0</ele><time>2026-04-27T14:08:06Z</time></trkpt><trkpt lat="43.8870530393942" lon="12.612265684729813"><ele>376.0</ele><time>2026-04-27T14:08:07Z</time></trkpt><trkpt lat="43.8871505560458" lon="12.612206242183463"><ele>375.0</ele><time>2026-04-27T14:08:08Z</time></trkpt><trkpt lat="43.887246802816456" lon="12.61214706768232"><ele>374.0</ele><time>2026-04-27T14:08:09Z</time></trkpt><trkpt lat="43.88734392551469" lon="12.61208556132508"><ele>373.0</ele><time>2026-04-27T14:08:10Z</time></trkpt><trkpt lat="43.88744239458117" lon="12.612024209385336"><ele>374.0</ele><time>2026-04-27T14:08:11Z</time></trkpt><trkpt lat="43.88754149184618" lon="12.61196037305734"><ele>375.0</ele><time>2026-04-27T14:08:12Z</time></trkpt><trkpt lat="43.88764226336421" lon="12.611896976606754"><ele>376.0</ele><time>2026-04-27T14:08:13Z</time></trkpt><trkpt lat="43.88774517008039" lon="12.61183288158121"><ele>377.0</ele><time>2026-04-27T14:08:14Z</time></trkpt><trkpt lat="43.88784631185784" lon="12.611767086758285"><ele>378.0</ele><time>2026-04-27T14:08:15Z</time></trkpt><trkpt lat="43.88794806217014" lon="12.61170214742966"><ele>378.0</ele><time>2026-04-27T14:08:16Z</time></trkpt><trkpt lat="43.8880464924399" lon="12.611633717139366"><ele>378.0</ele><time>2026-04-27T14:08:17Z</time></trkpt><trkpt lat="43.888146316512014" lon="12.611565096745839"><ele>378.0</ele><time>2026-04-27T14:08:18Z</time></trkpt><trkpt lat="43.88824563605524" lon="12.611495415783263"><ele>378.0</ele><time>2026-04-27T14:08:19Z</time></trkpt><trkpt lat="43.888346513233444" lon="12.611428195668372"><ele>378.0</ele><time>2026-04-27T14:08:20Z</time></trkpt><trkpt lat="43.88844533236253" lon="12.611366880766116"><ele>379.59999999999997</ele><time>2026-04-27T14:08:21Z</time></trkpt><trkpt lat="43.88854449245913" lon="12.611306863200669"><ele>381.2</ele><time>2026-04-27T14:08:22Z</time></trkpt><trkpt lat="43.88864794602923" lon="12.611250296970814"><ele>382.8</ele><time>2026-04-27T14:08:23Z</time></trkpt><trkpt lat="43.88874222266061" lon="12.611200972573616"><ele>384.4</ele><time>2026-04-27T14:08:24Z</time></trkpt><trkpt lat="43.888830549587624" lon="12.611159565386366"><ele>386.0</ele><time>2026-04-27T14:08:25Z</time></trkpt><trkpt lat="43.88891755152032" lon="12.611123517271611"><ele>385.99999999999994</ele><time>2026-04-27T14:08:26Z</time></trkpt><trkpt lat="43.889008386183725" lon="12.611087216320392"><ele>386.0</ele><time>2026-04-27T14:08:27Z</time></trkpt><trkpt lat="43.889096495060045" lon="12.611048980955584"><ele>386.0</ele><time>2026-04-27T14:08:28Z</time></trkpt><trkpt lat="43.889182213540934" lon="12.611013536821813"><ele>386.0</ele><time>2026-04-27T14:08:29Z</time></trkpt><trkpt lat="43.889261091467404" lon="12.610984462881715"><ele>385.99999999999994</ele><time>2026-04-27T14:08:30Z</time></trkpt><trkpt lat="43.8893352619373" lon="12.61096676711661"><ele>386.0</ele><time>2026-04-27T14:08:31Z</time></trkpt><trkpt lat="43.889410410386255" lon="12.610953722977372"><ele>386.16666666666663</ele><time>2026-04-27T14:08:32Z</time></trkpt><trkpt lat="43.88948130467528" lon="12.610942167494846"><ele>386.3333333333333</ele><time>2026-04-27T14:08:33Z</time></trkpt><trkpt lat="43.889548999820036" lon="12.610926209133375"><ele>386.5</ele><time>2026-04-27T14:08:34Z</time></trkpt><trkpt lat="43.88961124366029" lon="12.610895686274436"><ele>386.66666666666663</ele><time>2026-04-27T14:08:35Z</time></trkpt><trkpt lat="43.889673354703746" lon="12.610859690774332"><ele>386.8333333333333</ele><time>2026-04-27T14:08:36Z</time></trkpt><trkpt lat="43.88973658398391" lon="12.610818598220549"><ele>387.0</ele><time>2026-04-27T14:08:37Z</time></trkpt><trkpt lat="43.88984382113676" lon="12.610732108510637"><ele>387.0</ele><time>2026-04-27T14:08:39Z</time></trkpt><trkpt lat="43.88994773971919" lon="12.610710416658256"><ele>387.0</ele><time>2026-04-27T14:08:41Z</time></trkpt><trkpt lat="43.89005046657952" lon="12.610738737899858"><ele>387.0</ele><time>2026-04-27T14:08:43Z</time></trkpt><trkpt lat="43.890140885451615" lon="12.610760109895564"><ele>387.0</ele><time>2026-04-27T14:08:45Z</time></trkpt><trkpt lat="43.89020424529494" lon="12.610748251205793"><ele>387.0</ele><time>2026-04-27T14:08:47Z</time></trkpt><trkpt lat="43.89026775983318" lon="12.61070080034727"><ele>387.0</ele><time>2026-04-27T14:08:58Z</time></trkpt><trkpt lat="43.89032763730121" lon="12.610660281172798"><ele>387.40000000000003</ele><time>2026-04-27T14:09:02Z</time></trkpt><trkpt lat="43.8903869521448" lon="12.610579867147436"><ele>387.8</ele><time>2026-04-27T14:09:04Z</time></trkpt><trkpt lat="43.89043087728574" lon="12.61048437821645"><ele>388.2</ele><time>2026-04-27T14:09:06Z</time></trkpt><trkpt lat="43.89048799972357" lon="12.610386164573825"><ele>388.6</ele><time>2026-04-27T14:09:08Z</time></trkpt><trkpt lat="43.890520601483516" lon="12.610246074182955"><ele>389.0</ele><time>2026-04-27T14:09:10Z</time></trkpt><trkpt lat="43.890544549310334" lon="12.610099751993083"><ele>386.79999999999995</ele><time>2026-04-27T14:09:12Z</time></trkpt><trkpt lat="43.89057609469503" lon="12.609976924170992"><ele>384.59999999999997</ele><time>2026-04-27T14:09:14Z</time></trkpt><trkpt lat="43.890600754324325" lon="12.609853994220149"><ele>382.4</ele><time>2026-04-27T14:09:16Z</time></trkpt><trkpt lat="43.89061729543357" lon="12.609728067382125"><ele>380.2</ele><time>2026-04-27T14:09:18Z</time></trkpt><trkpt lat="43.8906068365012" lon="12.609590626319688"><ele>378.0</ele><time>2026-04-27T14:09:20Z</time></trkpt><trkpt lat="43.89057418708571" lon="12.609462211266191"><ele>377.5</ele><time>2026-04-27T14:09:22Z</time></trkpt><trkpt lat="43.89055286523893" lon="12.609336062895082"><ele>377.0</ele><time>2026-04-27T14:09:24Z</time></trkpt><trkpt lat="43.890565359074" lon="12.609182535637286"><ele>376.5</ele><time>2026-04-27T14:09:26Z</time></trkpt><trkpt lat="43.8905765055525" lon="12.609095851089393"><ele>376.0</ele><time>2026-04-27T14:09:27Z</time></trkpt><trkpt lat="43.89058633125952" lon="12.609001879948142"><ele>375.5</ele><time>2026-04-27T14:09:28Z</time></trkpt><trkpt lat="43.89058811281725" lon="12.608900235386685"><ele>375.0</ele><time>2026-04-27T14:09:29Z</time></trkpt><trkpt lat="43.89057863328967" lon="12.608787447851704"><ele>375.0</ele><time>2026-04-27T14:09:30Z</time></trkpt><trkpt lat="43.890568359579355" lon="12.608662253312861"><ele>375.0</ele><time>2026-04-27T14:09:31Z</time></trkpt><trkpt lat="43.89055761124889" lon="12.608531633788978"><ele>375.0</ele><time>2026-04-27T14:09:32Z</time></trkpt><trkpt lat="43.8905730199435" lon="12.608393964951874"><ele>375.0</ele><time>2026-04-27T14:09:33Z</time></trkpt><trkpt lat="43.89057104915852" lon="12.60826537682283"><ele>375.0</ele><time>2026-04-27T14:09:34Z</time></trkpt><trkpt lat="43.8905768579167" lon="12.608144058796462"><ele>374.6666666666667</ele><time>2026-04-27T14:09:35Z</time></trkpt><trkpt lat="43.89058964130726" lon="12.608027390806232"><ele>374.3333333333333</ele><time>2026-04-27T14:09:36Z</time></trkpt><trkpt lat="43.89060795826071" lon="12.607917559812119"><ele>374.0</ele><time>2026-04-27T14:09:37Z</time></trkpt><trkpt lat="43.8906289204476" lon="12.607810054682918"><ele>373.66666666666663</ele><time>2026-04-27T14:09:38Z</time></trkpt><trkpt lat="43.89065117861333" lon="12.607703533978464"><ele>373.3333333333333</ele><time>2026-04-27T14:09:39Z</time></trkpt><trkpt lat="43.89065845455914" lon="12.6075919316764"><ele>373.0</ele><time>2026-04-27T14:09:40Z</time></trkpt><trkpt lat="43.890693430572234" lon="12.607489633214781"><ele>372.8333333333333</ele><time>2026-04-27T14:09:41Z</time></trkpt><trkpt lat="43.890716077852346" lon="12.607382590154218"><ele>372.66666666666663</ele><time>2026-04-27T14:09:42Z</time></trkpt><trkpt lat="43.89073690195895" lon="12.607267783777893"><ele>372.5</ele><time>2026-04-27T14:09:43Z</time></trkpt><trkpt lat="43.89075497710107" lon="12.607147144364093"><ele>372.3333333333333</ele><time>2026-04-27T14:09:44Z</time></trkpt><trkpt lat="43.89078734632031" lon="12.607029115889603"><ele>372.1666666666667</ele><time>2026-04-27T14:09:45Z</time></trkpt><trkpt lat="43.890792890964576" lon="12.606899081537177"><ele>372.0</ele><time>2026-04-27T14:09:46Z</time></trkpt><trkpt lat="43.89081861952342" lon="12.606770566473802"><ele>371.40000000000003</ele><time>2026-04-27T14:09:47Z</time></trkpt><trkpt lat="43.890839562281556" lon="12.606648958393412"><ele>370.8</ele><time>2026-04-27T14:09:48Z</time></trkpt><trkpt lat="43.89087150823489" lon="12.606527980891833"><ele>370.2</ele><time>2026-04-27T14:09:49Z</time></trkpt><trkpt lat="43.890881509351864" lon="12.606401398118097"><ele>369.6</ele><time>2026-04-27T14:09:50Z</time></trkpt><trkpt lat="43.890883913815564" lon="12.606270365998322"><ele>369.0</ele><time>2026-04-27T14:09:51Z</time></trkpt><trkpt lat="43.89088071474044" lon="12.606138337142005"><ele>368.6</ele><time>2026-04-27T14:09:52Z</time></trkpt><trkpt lat="43.89087113152733" lon="12.605998235291722"><ele>368.2</ele><time>2026-04-27T14:09:53Z</time></trkpt><trkpt lat="43.89085594658299" lon="12.605857093347863"><ele>367.8</ele><time>2026-04-27T14:09:54Z</time></trkpt><trkpt lat="43.89086242624663" lon="12.605734798108765"><ele>367.40000000000003</ele><time>2026-04-27T14:09:55Z</time></trkpt><trkpt lat="43.89087366827411" lon="12.605617151486925"><ele>367.0</ele><time>2026-04-27T14:09:56Z</time></trkpt><trkpt lat="43.89089675515887" lon="12.605503856159226"><ele>367.0</ele><time>2026-04-27T14:09:57Z</time></trkpt><trkpt lat="43.890911366252254" lon="12.605389111900157"><ele>367.0</ele><time>2026-04-27T14:09:58Z</time></trkpt><trkpt lat="43.890941448324355" lon="12.605305503583946"><ele>367.0</ele><time>2026-04-27T14:09:59Z</time></trkpt><trkpt lat="43.89099901402194" lon="12.605251134039225"><ele>367.0</ele><time>2026-04-27T14:10:01Z</time></trkpt><trkpt lat="43.891053376212746" lon="12.605363321157476"><ele>367.0</ele><time>2026-04-27T14:10:04Z</time></trkpt><trkpt lat="43.89107283445078" lon="12.605535678828863"><ele>367.0</ele><time>2026-04-27T14:10:06Z</time></trkpt><trkpt lat="43.89107639279681" lon="12.605652676539536"><ele>361.0</ele><time>2026-04-27T14:10:07Z</time></trkpt><trkpt lat="43.89108391797698" lon="12.605784218624647"><ele>355.0</ele><time>2026-04-27T14:10:08Z</time></trkpt><trkpt lat="43.89109770430222" lon="12.605917901537596"><ele>349.0</ele><time>2026-04-27T14:10:09Z</time></trkpt><trkpt lat="43.89111166388707" lon="12.606045853519637"><ele>343.0</ele><time>2026-04-27T14:10:10Z</time></trkpt><trkpt lat="43.89112730585327" lon="12.606173374112942"><ele>337.0</ele><time>2026-04-27T14:10:11Z</time></trkpt><trkpt lat="43.891162293546635" lon="12.606303244294137"><ele>337.0</ele><time>2026-04-27T14:10:12Z</time></trkpt><trkpt lat="43.89120531784515" lon="12.606435521201503"><ele>337.0</ele><time>2026-04-27T14:10:13Z</time></trkpt><trkpt lat="43.891255028085055" lon="12.606565046692664"><ele>337.0</ele><time>2026-04-27T14:10:14Z</time></trkpt><trkpt lat="43.89130337654976" lon="12.606700784380319"><ele>337.0</ele><time>2026-04-27T14:10:15Z</time></trkpt><trkpt lat="43.891335401962934" lon="12.606834901814576"><ele>337.0</ele><time>2026-04-27T14:10:16Z</time></trkpt><trkpt lat="43.89136016570761" lon="12.60696846858847"><ele>338.40000000000003</ele><time>2026-04-27T14:10:17Z</time></trkpt><trkpt lat="43.8913827360836" lon="12.607106850389192"><ele>339.8</ele><time>2026-04-27T14:10:18Z</time></trkpt><trkpt lat="43.89141000085699" lon="12.607245644203275"><ele>341.2</ele><time>2026-04-27T14:10:19Z</time></trkpt><trkpt lat="43.891444265332574" lon="12.607366233958684"><ele>342.6</ele><time>2026-04-27T14:10:20Z</time></trkpt><trkpt lat="43.8914853413738" lon="12.607462120746973"><ele>344.0</ele><time>2026-04-27T14:10:21Z</time></trkpt><trkpt lat="43.891548831576856" lon="12.607538708222476"><ele>344.0</ele><time>2026-04-27T14:10:22Z</time></trkpt><trkpt lat="43.891632801067324" lon="12.607593468965211"><ele>344.0</ele><time>2026-04-27T14:10:23Z</time></trkpt><trkpt lat="43.891736206895715" lon="12.607641556877352"><ele>344.0</ele><time>2026-04-27T14:10:24Z</time></trkpt><trkpt lat="43.89185012271326" lon="12.607681169611553"><ele>344.0</ele><time>2026-04-27T14:10:25Z</time></trkpt><trkpt lat="43.89196684039483" lon="12.60771389134603"><ele>344.0</ele><time>2026-04-27T14:10:26Z</time></trkpt><trkpt lat="43.8920808174417" lon="12.607762700911968"><ele>341.79999999999995</ele><time>2026-04-27T14:10:27Z</time></trkpt><trkpt lat="43.89218613410457" lon="12.607785405209947"><ele>339.59999999999997</ele><time>2026-04-27T14:10:28Z</time></trkpt><trkpt lat="43.89226638034166" lon="12.60778554424375"><ele>337.4</ele><time>2026-04-27T14:10:29Z</time></trkpt><trkpt lat="43.892366376806926" lon="12.607871900776683"><ele>335.2</ele><time>2026-04-27T14:10:31Z</time></trkpt><trkpt lat="43.89241497260844" lon="12.608032845837677"><ele>333.0</ele><time>2026-04-27T14:10:33Z</time></trkpt><trkpt lat="43.89244835006366" lon="12.608178368162795"><ele>332.79999999999995</ele><time>2026-04-27T14:10:35Z</time></trkpt><trkpt lat="43.89250922055979" lon="12.608261613308485"><ele>332.6</ele><time>2026-04-27T14:10:37Z</time></trkpt><trkpt lat="43.892629643711075" lon="12.608226400323742"><ele>332.4</ele><time>2026-04-27T14:10:39Z</time></trkpt><trkpt lat="43.8927062368232" lon="12.608193761661193"><ele>332.20000000000005</ele><time>2026-04-27T14:10:40Z</time></trkpt><trkpt lat="43.8927831636375" lon="12.608134906619643"><ele>332.0</ele><time>2026-04-27T14:10:41Z</time></trkpt><trkpt lat="43.89286468355728" lon="12.608072315089107"><ele>328.40000000000003</ele><time>2026-04-27T14:10:42Z</time></trkpt><trkpt lat="43.89293868364698" lon="12.60801763001135"><ele>324.8</ele><time>2026-04-27T14:10:43Z</time></trkpt><trkpt lat="43.893024894520806" lon="12.607970031212979"><ele>321.2</ele><time>2026-04-27T14:10:45Z</time></trkpt><trkpt lat="43.893070632107346" lon="12.608087559731679"><ele>317.6</ele><time>2026-04-27T14:10:48Z</time></trkpt><trkpt lat="43.892995305746034" lon="12.608227759373184"><ele>314.0</ele><time>2026-04-27T14:10:50Z</time></trkpt><trkpt lat="43.892939545363795" lon="12.608312318227007"><ele>314.0</ele><time>2026-04-27T14:10:51Z</time></trkpt><trkpt lat="43.89289502800585" lon="12.608411380035202"><ele>314.0</ele><time>2026-04-27T14:10:52Z</time></trkpt><trkpt lat="43.892862644048016" lon="12.608508674266371"><ele>314.0</ele><time>2026-04-27T14:10:53Z</time></trkpt><trkpt lat="43.89284551895068" lon="12.608618027092437"><ele>314.0</ele><time>2026-04-27T14:10:54Z</time></trkpt><trkpt lat="43.89284474087054" lon="12.608747395925588"><ele>314.0</ele><time>2026-04-27T14:10:55Z</time></trkpt><trkpt lat="43.89285891965339" lon="12.608885340578656"><ele>314.0</ele><time>2026-04-27T14:10:56Z</time></trkpt><trkpt lat="43.89288113985085" lon="12.609007933063792"><ele>311.5</ele><time>2026-04-27T14:10:57Z</time></trkpt><trkpt lat="43.892910388038295" lon="12.6090943251169"><ele>309.0</ele><time>2026-04-27T14:10:58Z</time></trkpt><trkpt lat="43.89295254387902" lon="12.609162705483929"><ele>306.5</ele><time>2026-04-27T14:10:59Z</time></trkpt><trkpt lat="43.893024026229455" lon="12.609210677696822"><ele>304.0</ele><time>2026-04-27T14:11:00Z</time></trkpt><trkpt lat="43.89310781361573" lon="12.609228310554514"><ele>301.5</ele><time>2026-04-27T14:11:01Z</time></trkpt><trkpt lat="43.893212784920365" lon="12.609250107107593"><ele>299.0</ele><time>2026-04-27T14:11:02Z</time></trkpt><trkpt lat="43.89332961687582" lon="12.609258039833183"><ele>297.2</ele><time>2026-04-27T14:11:03Z</time></trkpt><trkpt lat="43.89344542742045" lon="12.609277494787154"><ele>295.4</ele><time>2026-04-27T14:11:04Z</time></trkpt><trkpt lat="43.893550807864536" lon="12.609304792299538"><ele>293.6</ele><time>2026-04-27T14:11:05Z</time></trkpt><trkpt lat="43.893629456423795" lon="12.609342567134782"><ele>291.8</ele><time>2026-04-27T14:11:06Z</time></trkpt><trkpt lat="43.89369405276485" lon="12.609397184311264"><ele>290.0</ele><time>2026-04-27T14:11:07Z</time></trkpt><trkpt lat="43.893766014478445" lon="12.609548368768381"><ele>288.33333333333337</ele><time>2026-04-27T14:11:09Z</time></trkpt><trkpt lat="43.89377830107446" lon="12.609662206907533"><ele>286.6666666666667</ele><time>2026-04-27T14:11:10Z</time></trkpt><trkpt lat="43.89379149287506" lon="12.609779508180287"><ele>285.0</ele><time>2026-04-27T14:11:11Z</time></trkpt><trkpt lat="43.89381784872918" lon="12.609887868157816"><ele>283.3333333333333</ele><time>2026-04-27T14:11:12Z</time></trkpt><trkpt lat="43.89385985802298" lon="12.609983942977113"><ele>281.66666666666663</ele><time>2026-04-27T14:11:13Z</time></trkpt><trkpt lat="43.89391170999297" lon="12.610056669431335"><ele>280.0</ele><time>2026-04-27T14:11:14Z</time></trkpt><trkpt lat="43.89397314214411" lon="12.610102966842694"><ele>280.0</ele><time>2026-04-27T14:11:15Z</time></trkpt><trkpt lat="43.89403555700189" lon="12.610154667457442"><ele>280.0</ele><time>2026-04-27T14:11:16Z</time></trkpt><trkpt lat="43.89411660602842" lon="12.610160662479938"><ele>280.0</ele><time>2026-04-27T14:11:17Z</time></trkpt><trkpt lat="43.89419647363904" lon="12.610143336693566"><ele>280.0</ele><time>2026-04-27T14:11:18Z</time></trkpt><trkpt lat="43.894285015025794" lon="12.610106916134589"><ele>280.0</ele><time>2026-04-27T14:11:19Z</time></trkpt><trkpt lat="43.89438631629636" lon="12.610050410020062"><ele>280.0</ele><time>2026-04-27T14:11:20Z</time></trkpt><trkpt lat="43.89449437042266" lon="12.609975710023475"><ele>276.0</ele><time>2026-04-27T14:11:21Z</time></trkpt><trkpt lat="43.89460714939203" lon="12.609883639574406"><ele>272.0</ele><time>2026-04-27T14:11:22Z</time></trkpt><trkpt lat="43.89472316770061" lon="12.609782170630208"><ele>268.0</ele><time>2026-04-27T14:11:23Z</time></trkpt><trkpt lat="43.89483667882922" lon="12.609679666644956"><ele>264.0</ele><time>2026-04-27T14:11:24Z</time></trkpt><trkpt lat="43.894948293506296" lon="12.609582352852765"><ele>263.0</ele><time>2026-04-27T14:11:25Z</time></trkpt><trkpt lat="43.89505090462989" lon="12.609474832326612"><ele>262.0</ele><time>2026-04-27T14:11:26Z</time></trkpt><trkpt lat="43.89516519387021" lon="12.609403954202836"><ele>261.0</ele><time>2026-04-27T14:11:27Z</time></trkpt><trkpt lat="43.89527704597238" lon="12.609351075192281"><ele>260.0</ele><time>2026-04-27T14:11:28Z</time></trkpt><trkpt lat="43.8953875166533" lon="12.609306529125226"><ele>260.0</ele><time>2026-04-27T14:11:29Z</time></trkpt><trkpt lat="43.895497117871244" lon="12.609262182479258"><ele>260.0</ele><time>2026-04-27T14:11:30Z</time></trkpt><trkpt lat="43.8956086152394" lon="12.609242591016377"><ele>260.0</ele><time>2026-04-27T14:11:31Z</time></trkpt><trkpt lat="43.895697245797436" lon="12.609193253402445"><ele>260.0</ele><time>2026-04-27T14:11:32Z</time></trkpt><trkpt lat="43.89577749724733" lon="12.609189613071194"><ele>260.0</ele><time>2026-04-27T14:11:33Z</time></trkpt><trkpt lat="43.89588369557737" lon="12.609167186853522"><ele>260.0</ele><time>2026-04-27T14:11:35Z</time></trkpt><trkpt lat="43.89595450154758" lon="12.609201430473567"><ele>260.0</ele><time>2026-04-27T14:11:38Z</time></trkpt><trkpt lat="43.89587523551259" lon="12.609295458110758"><ele>260.0</ele><time>2026-04-27T14:11:40Z</time></trkpt><trkpt lat="43.89581518510545" lon="12.609356936514056"><ele>260.0</ele><time>2026-04-27T14:11:41Z</time></trkpt><trkpt lat="43.895738689743354" lon="12.609418836566755"><ele>260.0</ele><time>2026-04-27T14:11:42Z</time></trkpt><trkpt lat="43.89565976549072" lon="12.609514617277402"><ele>260.0</ele><time>2026-04-27T14:11:43Z</time></trkpt><trkpt lat="43.895582797292334" lon="12.609622352635773"><ele>257.1666666666667</ele><time>2026-04-27T14:11:44Z</time></trkpt><trkpt lat="43.89551462592607" lon="12.609730122033238"><ele>254.33333333333334</ele><time>2026-04-27T14:11:45Z</time></trkpt><trkpt lat="43.895456293502214" lon="12.609835088574359"><ele>251.5</ele><time>2026-04-27T14:11:46Z</time></trkpt><trkpt lat="43.89542274730486" lon="12.609932934535104"><ele>248.66666666666669</ele><time>2026-04-27T14:11:47Z</time></trkpt><trkpt lat="43.89541559544949" lon="12.610037133005909"><ele>245.83333333333334</ele><time>2026-04-27T14:11:48Z</time></trkpt><trkpt lat="43.895439176295795" lon="12.610142735336881"><ele>243.0</ele><time>2026-04-27T14:11:49Z</time></trkpt><trkpt lat="43.89548811408833" lon="12.610252916701969"><ele>242.60000000000002</ele><time>2026-04-27T14:11:50Z</time></trkpt><trkpt lat="43.8955537449143" lon="12.610369443413648"><ele>242.20000000000002</ele><time>2026-04-27T14:11:51Z</time></trkpt><trkpt lat="43.8956253185057" lon="12.610488110950412"><ele>241.8</ele><time>2026-04-27T14:11:52Z</time></trkpt><trkpt lat="43.895689088973555" lon="12.610601631049592"><ele>241.4</ele><time>2026-04-27T14:11:53Z</time></trkpt><trkpt lat="43.89573868543596" lon="12.610722809706925"><ele>241.0</ele><time>2026-04-27T14:11:54Z</time></trkpt><trkpt lat="43.89577912599512" lon="12.610854459053895"><ele>241.0</ele><time>2026-04-27T14:11:55Z</time></trkpt><trkpt lat="43.89580631233163" lon="12.610990541807466"><ele>241.00000000000003</ele><time>2026-04-27T14:11:56Z</time></trkpt><trkpt lat="43.89581568851166" lon="12.611123493181346"><ele>241.00000000000003</ele><time>2026-04-27T14:11:57Z</time></trkpt><trkpt lat="43.895805705179804" lon="12.611253004971566"><ele>241.0</ele><time>2026-04-27T14:11:58Z</time></trkpt><trkpt lat="43.8957752362765" lon="12.611364616696846"><ele>241.0</ele><time>2026-04-27T14:11:59Z</time></trkpt><trkpt lat="43.89573726100189" lon="12.61145251933591"><ele>240.0</ele><time>2026-04-27T14:12:00Z</time></trkpt><trkpt lat="43.89572029393311" lon="12.61157647863864"><ele>239.00000000000003</ele><time>2026-04-27T14:12:02Z</time></trkpt><trkpt lat="43.89580573869157" lon="12.61168497671947"><ele>238.00000000000003</ele><time>2026-04-27T14:12:04Z</time></trkpt><trkpt lat="43.89588503153717" lon="12.611688202564993"><ele>237.0</ele><time>2026-04-27T14:12:05Z</time></trkpt><trkpt lat="43.895978936030076" lon="12.611693143598744"><ele>236.0</ele><time>2026-04-27T14:12:06Z</time></trkpt><trkpt lat="43.896087597884524" lon="12.6116554028516"><ele>232.20000000000002</ele><time>2026-04-27T14:12:07Z</time></trkpt><trkpt lat="43.89620109100386" lon="12.611607106074304"><ele>228.40000000000003</ele><time>2026-04-27T14:12:08Z</time></trkpt><trkpt lat="43.89630790657544" lon="12.611560122339444"><ele>224.6</ele><time>2026-04-27T14:12:09Z</time></trkpt><trkpt lat="43.89641113788486" lon="12.611510421794652"><ele>220.8</ele><time>2026-04-27T14:12:10Z</time></trkpt><trkpt lat="43.89650823674192" lon="12.611458517898837"><ele>217.0</ele><time>2026-04-27T14:12:11Z</time></trkpt><trkpt lat="43.896594631612786" lon="12.611398763880196"><ele>217.0</ele><time>2026-04-27T14:12:12Z</time></trkpt><trkpt lat="43.896675821228236" lon="12.611323830656952"><ele>217.0</ele><time>2026-04-27T14:12:13Z</time></trkpt><trkpt lat="43.896740857192064" lon="12.611215213177893"><ele>217.0</ele><time>2026-04-27T14:12:14Z</time></trkpt><trkpt lat="43.89678907801855" lon="12.611100539307758"><ele>217.0</ele><time>2026-04-27T14:12:15Z</time></trkpt><trkpt lat="43.89682336976757" lon="12.610965948386465"><ele>217.0</ele><time>2026-04-27T14:12:16Z</time></trkpt><trkpt lat="43.89684632900309" lon="12.610826768054473"><ele>213.6</ele><time>2026-04-27T14:12:17Z</time></trkpt><trkpt lat="43.89684863758547" lon="12.610679615842518"><ele>210.2</ele><time>2026-04-27T14:12:18Z</time></trkpt><trkpt lat="43.896840374708596" lon="12.610534379167284"><ele>206.8</ele><time>2026-04-27T14:12:19Z</time></trkpt><trkpt lat="43.89681962489978" lon="12.610405348850959"><ele>203.4</ele><time>2026-04-27T14:12:20Z</time></trkpt><trkpt lat="43.89679962307728" lon="12.610298005298414"><ele>200.0</ele><time>2026-04-27T14:12:21Z</time></trkpt><trkpt lat="43.89682416846064" lon="12.610141377456058"><ele>200.0</ele><time>2026-04-27T14:12:23Z</time></trkpt><trkpt lat="43.89693558496033" lon="12.610041233573947"><ele>200.0</ele><time>2026-04-27T14:12:25Z</time></trkpt><trkpt lat="43.8970276507835" lon="12.610027692424252"><ele>200.0</ele><time>2026-04-27T14:12:26Z</time></trkpt><trkpt lat="43.897127902771935" lon="12.6100026520233"><ele>200.0</ele><time>2026-04-27T14:12:27Z</time></trkpt><trkpt lat="43.8972273546757" lon="12.609961887708982"><ele>200.0</ele><time>2026-04-27T14:12:28Z</time></trkpt><trkpt lat="43.8973313804631" lon="12.609914761179775"><ele>200.0</ele><time>2026-04-27T14:12:29Z</time></trkpt><trkpt lat="43.897429903329936" lon="12.609876552241087"><ele>200.0</ele><time>2026-04-27T14:12:30Z</time></trkpt><trkpt lat="43.8975334696558" lon="12.609860221559591"><ele>200.0</ele><time>2026-04-27T14:12:31Z</time></trkpt><trkpt lat="43.897640179568874" lon="12.609863961855712"><ele>200.0</ele><time>2026-04-27T14:12:32Z</time></trkpt><trkpt lat="43.8977584870805" lon="12.609893912924774"><ele>200.0</ele><time>2026-04-27T14:12:33Z</time></trkpt><trkpt lat="43.89787132805385" lon="12.609936935820004"><ele>196.4</ele><time>2026-04-27T14:12:34Z</time></trkpt><trkpt lat="43.897977207304514" lon="12.609977348677866"><ele>192.8</ele><time>2026-04-27T14:12:35Z</time></trkpt><trkpt lat="43.89808182928467" lon="12.610006203347805"><ele>189.2</ele><time>2026-04-27T14:12:36Z</time></trkpt><trkpt lat="43.898185185431934" lon="12.61000897160653"><ele>185.6</ele><time>2026-04-27T14:12:37Z</time></trkpt><trkpt lat="43.89828176382944" lon="12.60998554647858"><ele>182.0</ele><time>2026-04-27T14:12:38Z</time></trkpt><trkpt lat="43.89835773681256" lon="12.609941868902434"><ele>178.83333333333331</ele><time>2026-04-27T14:12:39Z</time></trkpt><trkpt lat="43.89843006225764" lon="12.609895452934833"><ele>175.66666666666666</ele><time>2026-04-27T14:12:40Z</time></trkpt><trkpt lat="43.89848604860038" lon="12.609811002295496"><ele>172.5</ele><time>2026-04-27T14:12:41Z</time></trkpt><trkpt lat="43.89855519803829" lon="12.609706090298022"><ele>169.33333333333334</ele><time>2026-04-27T14:12:43Z</time></trkpt><trkpt lat="43.89864285567282" lon="12.60970711094264"><ele>166.16666666666669</ele><time>2026-04-27T14:12:45Z</time></trkpt><trkpt lat="43.89868490568531" lon="12.609794751472233"><ele>163.0</ele><time>2026-04-27T14:12:46Z</time></trkpt><trkpt lat="43.898700586739835" lon="12.609897152901446"><ele>163.0</ele><time>2026-04-27T14:12:47Z</time></trkpt><trkpt lat="43.89870294306271" lon="12.610022868442755"><ele>163.0</ele><time>2026-04-27T14:12:48Z</time></trkpt><trkpt lat="43.89869554073268" lon="12.610177198155695"><ele>163.0</ele><time>2026-04-27T14:12:49Z</time></trkpt><trkpt lat="43.898678640341615" lon="12.61035499533872"><ele>163.0</ele><time>2026-04-27T14:12:50Z</time></trkpt><trkpt lat="43.8986606660673" lon="12.610531449875866"><ele>162.75</ele><time>2026-04-27T14:12:51Z</time></trkpt><trkpt lat="43.898644714819625" lon="12.610704603039158"><ele>162.5</ele><time>2026-04-27T14:12:52Z</time></trkpt><trkpt lat="43.8986365076395" lon="12.610876322572706"><ele>162.25</ele><time>2026-04-27T14:12:53Z</time></trkpt><trkpt lat="43.89864057164058" lon="12.611023899094102"><ele>162.0</ele><time>2026-04-27T14:12:54Z</time></trkpt><trkpt lat="43.89866177119557" lon="12.611151353858764"><ele>161.4</ele><time>2026-04-27T14:12:55Z</time></trkpt><trkpt lat="43.8987045558951" lon="12.611275419267452"><ele>160.79999999999998</ele><time>2026-04-27T14:12:56Z</time></trkpt><trkpt lat="43.89876768988696" lon="12.611385213624857"><ele>160.2</ele><time>2026-04-27T14:12:57Z</time></trkpt><trkpt lat="43.89885012354938" lon="12.611481211425211"><ele>159.6</ele><time>2026-04-27T14:12:58Z</time></trkpt><trkpt lat="43.89894537946087" lon="12.611572876718974"><ele>159.0</ele><time>2026-04-27T14:12:59Z</time></trkpt><trkpt lat="43.89905224690903" lon="12.611650913504688"><ele>159.0</ele><time>2026-04-27T14:13:00Z</time></trkpt><trkpt lat="43.89917342253277" lon="12.611708368170927"><ele>159.0</ele><time>2026-04-27T14:13:01Z</time></trkpt><trkpt lat="43.899307868378614" lon="12.611751131483329"><ele>159.0</ele><time>2026-04-27T14:13:02Z</time></trkpt><trkpt lat="43.899451860863394" lon="12.611788260237798"><ele>159.0</ele><time>2026-04-27T14:13:03Z</time></trkpt><trkpt lat="43.8995952630415" lon="12.611824814067853"><ele>155.75</ele><time>2026-04-27T14:13:04Z</time></trkpt><trkpt lat="43.8997318072593" lon="12.61183844415448"><ele>152.5</ele><time>2026-04-27T14:13:05Z</time></trkpt><trkpt lat="43.899865569941674" lon="12.611830685928949"><ele>149.25</ele><time>2026-04-27T14:13:06Z</time></trkpt><trkpt lat="43.89999684366368" lon="12.61184526209921"><ele>146.0</ele><time>2026-04-27T14:13:07Z</time></trkpt><trkpt lat="43.90012064745373" lon="12.611841248680037"><ele>144.6</ele><time>2026-04-27T14:13:08Z</time></trkpt><trkpt lat="43.900231994665745" lon="12.611827234472798"><ele>143.2</ele><time>2026-04-27T14:13:09Z</time></trkpt><trkpt lat="43.900329741142805" lon="12.611875324046043"><ele>141.8</ele><time>2026-04-27T14:13:10Z</time></trkpt><trkpt lat="43.90041811323088" lon="12.611949910965752"><ele>140.4</ele><time>2026-04-27T14:13:11Z</time></trkpt><trkpt lat="43.90047867398324" lon="12.612058968352772"><ele>139.0</ele><time>2026-04-27T14:13:12Z</time></trkpt><trkpt lat="43.90052841179389" lon="12.612152230343879"><ele>139.0</ele><time>2026-04-27T14:13:13Z</time></trkpt><trkpt lat="43.90068037883331" lon="12.612137406644054"><ele>139.0</ele><time>2026-04-27T14:13:14Z</time></trkpt><trkpt lat="43.900800807353924" lon="12.612163301176206"><ele>139.0</ele><time>2026-04-27T14:13:15Z</time></trkpt><trkpt lat="43.90093915967075" lon="12.612186975912525"><ele>139.0</ele><time>2026-04-27T14:13:16Z</time></trkpt><trkpt lat="43.90108712015894" lon="12.612216153499249"><ele>137.0</ele><time>2026-04-27T14:13:17Z</time></trkpt><trkpt lat="43.9012458202097" lon="12.612246425609715"><ele>135.0</ele><time>2026-04-27T14:13:18Z</time></trkpt><trkpt lat="43.90140299228972" lon="12.612274552587811"><ele>133.0</ele><time>2026-04-27T14:13:19Z</time></trkpt><trkpt lat="43.90155356100567" lon="12.612303402054039"><ele>133.0</ele><time>2026-04-27T14:13:20Z</time></trkpt><trkpt lat="43.90169905767754" lon="12.612330425422897"><ele>133.0</ele><time>2026-04-27T14:13:21Z</time></trkpt><trkpt lat="43.90184050460537" lon="12.612357936091778"><ele>133.0</ele><time>2026-04-27T14:13:22Z</time></trkpt><trkpt lat="43.901976989638065" lon="12.612385859038966"><ele>133.0</ele><time>2026-04-27T14:13:23Z</time></trkpt><trkpt lat="43.90208477718714" lon="12.612405067116638"><ele>132.0</ele><time>2026-04-27T14:13:24Z</time></trkpt><trkpt lat="43.902182067664974" lon="12.612419629266357"><ele>131.0</ele><time>2026-04-27T14:13:25Z</time></trkpt><trkpt lat="43.90226687267061" lon="12.61241526176358"><ele>130.0</ele><time>2026-04-27T14:13:26Z</time></trkpt><trkpt lat="43.90234120754403" lon="12.612377558484893"><ele>129.0</ele><time>2026-04-27T14:13:27Z</time></trkpt><trkpt lat="43.90241694060006" lon="12.612325257032204"><ele>128.0</ele><time>2026-04-27T14:13:28Z</time></trkpt><trkpt lat="43.902467792347686" lon="12.612205462739388"><ele>127.0</ele><time>2026-04-27T14:13:29Z</time></trkpt><trkpt lat="43.90248882195561" lon="12.612064178715487"><ele>125.0</ele><time>2026-04-27T14:13:30Z</time></trkpt><trkpt lat="43.90246428606102" lon="12.611928992987666"><ele>122.99999999999999</ele><time>2026-04-27T14:13:31Z</time></trkpt><trkpt lat="43.902434071273184" lon="12.611810812194188"><ele>120.99999999999999</ele><time>2026-04-27T14:13:32Z</time></trkpt><trkpt lat="43.90237831145206" lon="12.611708713807248"><ele>119.0</ele><time>2026-04-27T14:13:33Z</time></trkpt><trkpt lat="43.9022985113847" lon="12.611623811564865"><ele>117.0</ele><time>2026-04-27T14:13:34Z</time></trkpt><trkpt lat="43.902194609361615" lon="12.611562391518339"><ele>117.0</ele><time>2026-04-27T14:13:35Z</time></trkpt><trkpt lat="43.90209201365153" lon="12.61150887010316"><ele>116.99999999999999</ele><time>2026-04-27T14:13:36Z</time></trkpt><trkpt lat="43.9020101312606" lon="12.611420181879508"><ele>116.99999999999999</ele><time>2026-04-27T14:13:37Z</time></trkpt><trkpt lat="43.90194574218285" lon="12.611316357263577"><ele>117.0</ele><time>2026-04-27T14:13:38Z</time></trkpt><trkpt lat="43.901891177123126" lon="12.611185503240815"><ele>117.0</ele><time>2026-04-27T14:13:39Z</time></trkpt><trkpt lat="43.90182994756707" lon="12.611044088666691"><ele>118.25</ele><time>2026-04-27T14:13:40Z</time></trkpt><trkpt lat="43.90177806579639" lon="12.610890602012068"><ele>119.5</ele><time>2026-04-27T14:13:41Z</time></trkpt><trkpt lat="43.901718939474286" lon="12.61073731605792"><ele>120.75</ele><time>2026-04-27T14:13:42Z</time></trkpt><trkpt lat="43.901661594789154" lon="12.610587374923105"><ele>122.0</ele><time>2026-04-27T14:13:43Z</time></trkpt><trkpt lat="43.901614077484275" lon="12.610436574762655"><ele>119.0</ele><time>2026-04-27T14:13:44Z</time></trkpt><trkpt lat="43.90157994225629" lon="12.610283236460473"><ele>116.0</ele><time>2026-04-27T14:13:45Z</time></trkpt><trkpt lat="43.90155997550634" lon="12.610127017053541"><ele>113.0</ele><time>2026-04-27T14:13:46Z</time></trkpt><trkpt lat="43.90155549609279" lon="12.609952861772785"><ele>110.0</ele><time>2026-04-27T14:13:47Z</time></trkpt><trkpt lat="43.901558335356604" lon="12.609764519754425"><ele>110.0</ele><time>2026-04-27T14:13:48Z</time></trkpt><trkpt lat="43.90156506603564" lon="12.609565124102637"><ele>110.0</ele><time>2026-04-27T14:13:49Z</time></trkpt><trkpt lat="43.90157249793571" lon="12.609371031574549"><ele>110.0</ele><time>2026-04-27T14:13:50Z</time></trkpt><trkpt lat="43.90157770116154" lon="12.609181410275884"><ele>110.0</ele><time>2026-04-27T14:13:51Z</time></trkpt><trkpt lat="43.90160389304539" lon="12.609000178276075"><ele>108.75</ele><time>2026-04-27T14:13:52Z</time></trkpt><trkpt lat="43.90162432105488" lon="12.60881365158519"><ele>107.5</ele><time>2026-04-27T14:13:53Z</time></trkpt><trkpt lat="43.90165722292057" lon="12.60862738789007"><ele>106.25</ele><time>2026-04-27T14:13:54Z</time></trkpt><trkpt lat="43.90169498912234" lon="12.608432239167794"><ele>105.0</ele><time>2026-04-27T14:13:55Z</time></trkpt><trkpt lat="43.90176306255368" lon="12.608250322096708"><ele>102.33333333333334</ele><time>2026-04-27T14:13:56Z</time></trkpt><trkpt lat="43.901846071769945" lon="12.60806633353889"><ele>99.66666666666667</ele><time>2026-04-27T14:13:57Z</time></trkpt><trkpt lat="43.90195415385034" lon="12.60789456531166"><ele>97.0</ele><time>2026-04-27T14:13:58Z</time></trkpt><trkpt lat="43.90205225115116" lon="12.607711229839909"><ele>97.0</ele><time>2026-04-27T14:13:59Z</time></trkpt><trkpt lat="43.902148678039225" lon="12.607522784658888"><ele>97.0</ele><time>2026-04-27T14:14:00Z</time></trkpt><trkpt lat="43.902243680917955" lon="12.607333947866076"><ele>97.0</ele><time>2026-04-27T14:14:01Z</time></trkpt><trkpt lat="43.90233577906437" lon="12.607160455309067"><ele>97.0</ele><time>2026-04-27T14:14:02Z</time></trkpt><trkpt lat="43.90242531792658" lon="12.607003579197716"><ele>97.0</ele><time>2026-04-27T14:14:03Z</time></trkpt><trkpt lat="43.9025151153242" lon="12.606861619758773"><ele>97.0</ele><time>2026-04-27T14:14:04Z</time></trkpt><trkpt lat="43.90262185443354" lon="12.606750579758609"><ele>97.0</ele><time>2026-04-27T14:14:05Z</time></trkpt><trkpt lat="43.90274832211166" lon="12.606655589790671"><ele>98.66666666666667</ele><time>2026-04-27T14:14:06Z</time></trkpt><trkpt lat="43.902884999268146" lon="12.606566030732074"><ele>100.33333333333334</ele><time>2026-04-27T14:14:07Z</time></trkpt><trkpt lat="43.90302571076672" lon="12.606479354116919"><ele>102.0</ele><time>2026-04-27T14:14:08Z</time></trkpt><trkpt lat="43.90316194287635" lon="12.606373407676564"><ele>102.0</ele><time>2026-04-27T14:14:09Z</time></trkpt><trkpt lat="43.903303108741426" lon="12.606292941190956"><ele>102.0</ele><time>2026-04-27T14:14:10Z</time></trkpt><trkpt lat="43.90342802831035" lon="12.606219862912345"><ele>102.0</ele><time>2026-04-27T14:14:11Z</time></trkpt><trkpt lat="43.90354142238689" lon="12.60614832816406"><ele>102.0</ele><time>2026-04-27T14:14:12Z</time></trkpt><trkpt lat="43.90364185370712" lon="12.606079611190516"><ele>103.19999999999999</ele><time>2026-04-27T14:14:13Z</time></trkpt><trkpt lat="43.90372487903923" lon="12.606007027092371"><ele>104.4</ele><time>2026-04-27T14:14:14Z</time></trkpt><trkpt lat="43.903799527012076" lon="12.605947309345563"><ele>105.60000000000001</ele><time>2026-04-27T14:14:15Z</time></trkpt><trkpt lat="43.90385747422844" lon="12.605844079039533"><ele>106.80000000000001</ele><time>2026-04-27T14:14:16Z</time></trkpt><trkpt lat="43.90388251627026" lon="12.605712814692195"><ele>108.0</ele><time>2026-04-27T14:14:17Z</time></trkpt><trkpt lat="43.90386211810315" lon="12.605576600863477"><ele>108.0</ele><time>2026-04-27T14:14:18Z</time></trkpt><trkpt lat="43.90383486224321" lon="12.605433515152772"><ele>108.0</ele><time>2026-04-27T14:14:19Z</time></trkpt><trkpt lat="43.90381413160247" lon="12.6052732592017"><ele>108.0</ele><time>2026-04-27T14:14:20Z</time></trkpt><trkpt lat="43.90377523556415" lon="12.605108307301226"><ele>108.0</ele><time>2026-04-27T14:14:21Z</time></trkpt><trkpt lat="43.903737373954385" lon="12.604949180920707"><ele>109.5</ele><time>2026-04-27T14:14:22Z</time></trkpt><trkpt lat="43.903710005463836" lon="12.604812841570215"><ele>111.0</ele><time>2026-04-27T14:14:23Z</time></trkpt><trkpt lat="43.903689611385325" lon="12.604687022246749"><ele>112.5</ele><time>2026-04-27T14:14:24Z</time></trkpt><trkpt lat="43.903688587558285" lon="12.604577209738467"><ele>114.0</ele><time>2026-04-27T14:14:25Z</time></trkpt><trkpt lat="43.903704083972" lon="12.604465464178695"><ele>115.5</ele><time>2026-04-27T14:14:26Z</time></trkpt><trkpt lat="43.903742823384384" lon="12.60436006941436"><ele>117.0</ele><time>2026-04-27T14:14:27Z</time></trkpt><trkpt lat="43.9037969482338" lon="12.604248926166798"><ele>117.0</ele><time>2026-04-27T14:14:28Z</time></trkpt><trkpt lat="43.903887936692406" lon="12.604166075502013"><ele>117.0</ele><time>2026-04-27T14:14:29Z</time></trkpt><trkpt lat="43.9039964229756" lon="12.604104739527735"><ele>117.0</ele><time>2026-04-27T14:14:30Z</time></trkpt><trkpt lat="43.904117751232214" lon="12.604060061357382"><ele>117.0</ele><time>2026-04-27T14:14:31Z</time></trkpt><trkpt lat="43.90424476507329" lon="12.60403494098891"><ele>118.39999999999999</ele><time>2026-04-27T14:14:32Z</time></trkpt><trkpt lat="43.90434549975249" lon="12.603981910189184"><ele>119.79999999999998</ele><time>2026-04-27T14:14:33Z</time></trkpt><trkpt lat="43.90441683018652" lon="12.603881633305768"><ele>121.2</ele><time>2026-04-27T14:14:34Z</time></trkpt><trkpt lat="43.904486748486065" lon="12.603778372313196"><ele>122.6</ele><time>2026-04-27T14:14:35Z</time></trkpt><trkpt lat="43.90453545669823" lon="12.6036476087586"><ele>124.0</ele><time>2026-04-27T14:14:36Z</time></trkpt><trkpt lat="43.90459300444006" lon="12.603495445470314"><ele>124.25</ele><time>2026-04-27T14:14:37Z</time></trkpt><trkpt lat="43.90464038595224" lon="12.603324772537453"><ele>124.5</ele><time>2026-04-27T14:14:38Z</time></trkpt><trkpt lat="43.904689790885115" lon="12.60314681113441"><ele>124.75</ele><time>2026-04-27T14:14:39Z</time></trkpt><trkpt lat="43.90473555713746" lon="12.602989579097782"><ele>125.0</ele><time>2026-04-27T14:14:40Z</time></trkpt><trkpt lat="43.90478016122081" lon="12.602855005301288"><ele>125.0</ele><time>2026-04-27T14:14:41Z</time></trkpt><trkpt lat="43.90483471174997" lon="12.60273180468166"><ele>125.0</ele><time>2026-04-27T14:14:41.999Z</time></trkpt><trkpt lat="43.90490157204023" lon="12.602607263795628"><ele>125.0</ele><time>2026-04-27T14:14:42.999Z</time></trkpt><trkpt lat="43.90499152405311" lon="12.602523620586657"><ele>125.0</ele><time>2026-04-27T14:14:43.999Z</time></trkpt><trkpt lat="43.90507819333253" lon="12.602454440752028"><ele>125.0</ele><time>2026-04-27T14:14:44.999Z</time></trkpt><trkpt lat="43.90516155867735" lon="12.60238784242476"><ele>125.8</ele><time>2026-04-27T14:14:45.999Z</time></trkpt><trkpt lat="43.905242675597876" lon="12.602321158383877"><ele>126.6</ele><time>2026-04-27T14:14:46.999Z</time></trkpt><trkpt lat="43.90534101675807" lon="12.602272646625071"><ele>127.4</ele><time>2026-04-27T14:14:48Z</time></trkpt><trkpt lat="43.90543735274302" lon="12.60219965177855"><ele>128.2</ele><time>2026-04-27T14:14:49Z</time></trkpt><trkpt lat="43.90553855091368" lon="12.602122972818496"><ele>129.0</ele><time>2026-04-27T14:14:50Z</time></trkpt><trkpt lat="43.90564184297803" lon="12.602044707319914"><ele>129.75</ele><time>2026-04-27T14:14:51Z</time></trkpt><trkpt lat="43.90574482159665" lon="12.601966234042056"><ele>130.5</ele><time>2026-04-27T14:14:52Z</time></trkpt><trkpt lat="43.90584073569264" lon="12.601871806547607"><ele>131.25</ele><time>2026-04-27T14:14:53Z</time></trkpt><trkpt lat="43.90594059079598" lon="12.601792739742539"><ele>132.0</ele><time>2026-04-27T14:14:54Z</time></trkpt><trkpt lat="43.906034602226754" lon="12.601716027485606"><ele>132.0</ele><time>2026-04-27T14:14:55Z</time></trkpt><trkpt lat="43.906121984045946" lon="12.601656363051365"><ele>132.0</ele><time>2026-04-27T14:14:56Z</time></trkpt><trkpt lat="43.90621544381196" lon="12.601614865288443"><ele>132.0</ele><time>2026-04-27T14:14:57Z</time></trkpt><trkpt lat="43.906317443048906" lon="12.601600121292812"><ele>132.0</ele><time>2026-04-27T14:14:58Z</time></trkpt><trkpt lat="43.90643590173892" lon="12.601608633594251"><ele>132.0</ele><time>2026-04-27T14:14:59Z</time></trkpt><trkpt lat="43.906557505412" lon="12.601631073023743"><ele>132.0</ele><time>2026-04-27T14:15:00Z</time></trkpt><trkpt lat="43.906690295402676" lon="12.601653840064508"><ele>132.0</ele><time>2026-04-27T14:15:01Z</time></trkpt><trkpt lat="43.90682222693626" lon="12.601673409779767"><ele>132.0</ele><time>2026-04-27T14:15:02Z</time></trkpt><trkpt lat="43.90694625565059" lon="12.601686670096605"><ele>132.0</ele><time>2026-04-27T14:15:03Z</time></trkpt><trkpt lat="43.90706936583129" lon="12.601711169808468"><ele>132.25</ele><time>2026-04-27T14:15:04Z</time></trkpt><trkpt lat="43.907189844734646" lon="12.601682707500876"><ele>132.5</ele><time>2026-04-27T14:15:05Z</time></trkpt><trkpt lat="43.907311280136" lon="12.60165829097282"><ele>132.75</ele><time>2026-04-27T14:15:06Z</time></trkpt><trkpt lat="43.907429123450285" lon="12.601623550866206"><ele>133.0</ele><time>2026-04-27T14:15:07Z</time></trkpt><trkpt lat="43.907541261122034" lon="12.601566174812504"><ele>132.5</ele><time>2026-04-27T14:15:08Z</time></trkpt><trkpt lat="43.90766853728119" lon="12.601524746956775"><ele>132.0</ele><time>2026-04-27T14:15:09Z</time></trkpt><trkpt lat="43.90779507814792" lon="12.601440369443775"><ele>131.5</ele><time>2026-04-27T14:15:10Z</time></trkpt><trkpt lat="43.90792876565831" lon="12.601347968591359"><ele>131.0</ele><time>2026-04-27T14:15:11Z</time></trkpt><trkpt lat="43.908062943708494" lon="12.601255623288075"><ele>131.0</ele><time>2026-04-27T14:15:12Z</time></trkpt><trkpt lat="43.90818748634188" lon="12.601170771801408"><ele>131.0</ele><time>2026-04-27T14:15:13Z</time></trkpt><trkpt lat="43.908304029667526" lon="12.601092078953803"><ele>131.0</ele><time>2026-04-27T14:15:14Z</time></trkpt><trkpt lat="43.90841610647818" lon="12.601016567116305"><ele>131.0</ele><time>2026-04-27T14:15:15Z</time></trkpt><trkpt lat="43.90853202014501" lon="12.60093847029004"><ele>131.25</ele><time>2026-04-27T14:15:16Z</time></trkpt><trkpt lat="43.9086484434163" lon="12.600860030075006"><ele>131.5</ele><time>2026-04-27T14:15:17Z</time></trkpt><trkpt lat="43.90876717789018" lon="12.60078003280501"><ele>131.75</ele><time>2026-04-27T14:15:18Z</time></trkpt><trkpt lat="43.90888464942263" lon="12.60070088791235"><ele>132.0</ele><time>2026-04-27T14:15:19Z</time></trkpt><trkpt lat="43.90899049992624" lon="12.600629571136276"><ele>132.0</ele><time>2026-04-27T14:15:20Z</time></trkpt><trkpt lat="43.9090880547092" lon="12.600563749784161"><ele>132.0</ele><time>2026-04-27T14:15:21Z</time></trkpt><trkpt lat="43.90918390963446" lon="12.600498972875394"><ele>132.0</ele><time>2026-04-27T14:15:22Z</time></trkpt><trkpt lat="43.90925211557016" lon="12.600450950154512"><ele>132.0</ele><time>2026-04-27T14:15:23Z</time></trkpt><trkpt lat="43.90932519800529" lon="12.60039454265124"><ele>132.0</ele><time>2026-04-27T14:15:25Z</time></trkpt><trkpt lat="43.909428624080824" lon="12.600414963292568"><ele>130.0</ele><time>2026-04-27T14:15:28Z</time></trkpt><trkpt lat="43.90949236405393" lon="12.600482462514904"><ele>128.0</ele><time>2026-04-27T14:15:29Z</time></trkpt><trkpt lat="43.90957738714312" lon="12.600515979954409"><ele>126.0</ele><time>2026-04-27T14:15:30Z</time></trkpt><trkpt lat="43.90965217153447" lon="12.600575078045066"><ele>124.0</ele><time>2026-04-27T14:15:31Z</time></trkpt><trkpt lat="43.909727896545704" lon="12.600644694879072"><ele>122.0</ele><time>2026-04-27T14:15:32Z</time></trkpt><trkpt lat="43.90979552160653" lon="12.600736599239408"><ele>120.0</ele><time>2026-04-27T14:15:33Z</time></trkpt><trkpt lat="43.90984231194652" lon="12.600835706104746"><ele>120.0</ele><time>2026-04-27T14:15:34Z</time></trkpt><trkpt lat="43.90986364060589" lon="12.600963465252626"><ele>120.0</ele><time>2026-04-27T14:15:35Z</time></trkpt><trkpt lat="43.90987769564556" lon="12.601121512664477"><ele>120.0</ele><time>2026-04-27T14:15:36Z</time></trkpt><trkpt lat="43.90989035280494" lon="12.601282915620892"><ele>120.0</ele><time>2026-04-27T14:15:37Z</time></trkpt><trkpt lat="43.909888380758275" lon="12.601433527669993"><ele>120.0</ele><time>2026-04-27T14:15:38Z</time></trkpt><trkpt lat="43.909876781762854" lon="12.601565061615743"><ele>119.6</ele><time>2026-04-27T14:15:39Z</time></trkpt><trkpt lat="43.90985609584242" lon="12.601678455413"><ele>119.2</ele><time>2026-04-27T14:15:40Z</time></trkpt><trkpt lat="43.909875203485456" lon="12.60181150265867"><ele>118.80000000000001</ele><time>2026-04-27T14:15:42Z</time></trkpt><trkpt lat="43.90998785684713" lon="12.601803742894058"><ele>118.4</ele><time>2026-04-27T14:15:44Z</time></trkpt><trkpt lat="43.91003031926501" lon="12.601735325664219"><ele>118.0</ele><time>2026-04-27T14:15:45Z</time></trkpt><trkpt lat="43.91007139839884" lon="12.601621211583774"><ele>115.25</ele><time>2026-04-27T14:15:46Z</time></trkpt><trkpt lat="43.91009342828277" lon="12.601478315778058"><ele>112.5</ele><time>2026-04-27T14:15:47Z</time></trkpt><trkpt lat="43.91011803779277" lon="12.601314184857323"><ele>109.75</ele><time>2026-04-27T14:15:48Z</time></trkpt><trkpt lat="43.910147734532025" lon="12.601127452475126"><ele>107.0</ele><time>2026-04-27T14:15:49Z</time></trkpt><trkpt lat="43.910184313643946" lon="12.600924089148592"><ele>106.75</ele><time>2026-04-27T14:15:50Z</time></trkpt><trkpt lat="43.910205309254735" lon="12.600736532276475"><ele>106.5</ele><time>2026-04-27T14:15:51Z</time></trkpt><trkpt lat="43.9102335363309" lon="12.600570618280699"><ele>106.25</ele><time>2026-04-27T14:15:52Z</time></trkpt><trkpt lat="43.91026439736623" lon="12.600415484076972"><ele>106.0</ele><time>2026-04-27T14:15:53Z</time></trkpt><trkpt lat="43.91028850161617" lon="12.600269674283721"><ele>106.75</ele><time>2026-04-27T14:15:54Z</time></trkpt><trkpt lat="43.91032739554174" lon="12.600141728230414"><ele>107.5</ele><time>2026-04-27T14:15:55Z</time></trkpt><trkpt lat="43.91039162965664" lon="12.60002627958785"><ele>108.25</ele><time>2026-04-27T14:15:56Z</time></trkpt><trkpt lat="43.91046269185456" lon="12.599882121787548"><ele>109.0</ele><time>2026-04-27T14:15:57Z</time></trkpt><trkpt lat="43.910566609162586" lon="12.599734674370342"><ele>109.0</ele><time>2026-04-27T14:15:58Z</time></trkpt><trkpt lat="43.91067741569924" lon="12.5995763900958"><ele>109.0</ele><time>2026-04-27T14:15:59Z</time></trkpt><trkpt lat="43.910786279896904" lon="12.599398684467818"><ele>109.0</ele><time>2026-04-27T14:16:00Z</time></trkpt><trkpt lat="43.910887808528045" lon="12.599239067423255"><ele>108.25</ele><time>2026-04-27T14:16:01Z</time></trkpt><trkpt lat="43.910982476326666" lon="12.599090684049036"><ele>107.5</ele><time>2026-04-27T14:16:02Z</time></trkpt><trkpt lat="43.911076787793746" lon="12.598958058251728"><ele>106.75</ele><time>2026-04-27T14:16:03Z</time></trkpt><trkpt lat="43.91116239583092" lon="12.598827965198941"><ele>106.0</ele><time>2026-04-27T14:16:04Z</time></trkpt><trkpt lat="43.91124900937621" lon="12.598714650818966"><ele>106.4</ele><time>2026-04-27T14:16:05Z</time></trkpt><trkpt lat="43.911311115162654" lon="12.598585901103705"><ele>106.8</ele><time>2026-04-27T14:16:06Z</time></trkpt><trkpt lat="43.91140586657526" lon="12.59850243168667"><ele>107.20000000000002</ele><time>2026-04-27T14:16:07Z</time></trkpt><trkpt lat="43.91150320255739" lon="12.598434391286986"><ele>107.60000000000001</ele><time>2026-04-27T14:16:08Z</time></trkpt><trkpt lat="43.911615232860825" lon="12.598391260799945"><ele>108.0</ele><time>2026-04-27T14:16:09Z</time></trkpt><trkpt lat="43.91173078901503" lon="12.598404919304862"><ele>107.75</ele><time>2026-04-27T14:16:10Z</time></trkpt><trkpt lat="43.91186430828753" lon="12.59839450331934"><ele>107.5</ele><time>2026-04-27T14:16:11Z</time></trkpt><trkpt lat="43.91200544484694" lon="12.598396885439746"><ele>107.25</ele><time>2026-04-27T14:16:12Z</time></trkpt><trkpt lat="43.91216137444905" lon="12.598395973081503"><ele>107.0</ele><time>2026-04-27T14:16:13Z</time></trkpt><trkpt lat="43.912318316141956" lon="12.598374305676158"><ele>107.0</ele><time>2026-04-27T14:16:14Z</time></trkpt><trkpt lat="43.912465475550285" lon="12.598371454941432"><ele>107.0</ele><time>2026-04-27T14:16:15Z</time></trkpt><trkpt lat="43.91261071219173" lon="12.598368330620994"><ele>107.0</ele><time>2026-04-27T14:16:16Z</time></trkpt><trkpt lat="43.912747252096324" lon="12.59841408357313"><ele>107.0</ele><time>2026-04-27T14:16:17Z</time></trkpt><trkpt lat="43.91287778557747" lon="12.59847701456113"><ele>107.25</ele><time>2026-04-27T14:16:18Z</time></trkpt><trkpt lat="43.91300090989983" lon="12.598548770253997"><ele>107.5</ele><time>2026-04-27T14:16:19Z</time></trkpt><trkpt lat="43.91311559731896" lon="12.598621286169989"><ele>107.75</ele><time>2026-04-27T14:16:20Z</time></trkpt><trkpt lat="43.91322702584755" lon="12.598694766659378"><ele>108.0</ele><time>2026-04-27T14:16:21Z</time></trkpt><trkpt lat="43.91333080779236" lon="12.598774589506686"><ele>108.25</ele><time>2026-04-27T14:16:22Z</time></trkpt><trkpt lat="43.91343493432226" lon="12.598851369460755"><ele>108.5</ele><time>2026-04-27T14:16:23Z</time></trkpt><trkpt lat="43.91354298071884" lon="12.598922840583926"><ele>108.75</ele><time>2026-04-27T14:16:24Z</time></trkpt><trkpt lat="43.91365884664495" lon="12.598998683924814"><ele>109.0</ele><time>2026-04-27T14:16:25Z</time></trkpt><trkpt lat="43.913781194383986" lon="12.599078312253633"><ele>109.0</ele><time>2026-04-27T14:16:26Z</time></trkpt><trkpt lat="43.91390967616024" lon="12.599163976707965"><ele>109.0</ele><time>2026-04-27T14:16:27Z</time></trkpt><trkpt lat="43.91404131364812" lon="12.599251847450116"><ele>109.0</ele><time>2026-04-27T14:16:28Z</time></trkpt><trkpt lat="43.91417274824978" lon="12.599337347252217"><ele>109.0</ele><time>2026-04-27T14:16:29Z</time></trkpt><trkpt lat="43.91430977747776" lon="12.599426309326136"><ele>110.0</ele><time>2026-04-27T14:16:30Z</time></trkpt><trkpt lat="43.91444829479993" lon="12.599515436444682"><ele>111.0</ele><time>2026-04-27T14:16:31Z</time></trkpt><trkpt lat="43.91458332440903" lon="12.599603859739979"><ele>112.0</ele><time>2026-04-27T14:16:32Z</time></trkpt><trkpt lat="43.914712754103604" lon="12.599689957017125"><ele>113.0</ele><time>2026-04-27T14:16:33Z</time></trkpt><trkpt lat="43.91483765195807" lon="12.599773115629276"><ele>113.0</ele><time>2026-04-27T14:16:34Z</time></trkpt><trkpt lat="43.91495459131661" lon="12.599854202559243"><ele>113.0</ele><time>2026-04-27T14:16:35Z</time></trkpt><trkpt lat="43.91507409620317" lon="12.599933382128382"><ele>113.0</ele><time>2026-04-27T14:16:36Z</time></trkpt><trkpt lat="43.915192778006805" lon="12.60000778968832"><ele>113.0</ele><time>2026-04-27T14:16:37Z</time></trkpt><trkpt lat="43.91531086116026" lon="12.600085320724828"><ele>114.0</ele><time>2026-04-27T14:16:38Z</time></trkpt><trkpt lat="43.91542543336393" lon="12.600165564249119"><ele>115.0</ele><time>2026-04-27T14:16:39Z</time></trkpt><trkpt lat="43.91553787042061" lon="12.600241587794105"><ele>116.0</ele><time>2026-04-27T14:16:40Z</time></trkpt><trkpt lat="43.915647828817534" lon="12.60031462853533"><ele>117.0</ele><time>2026-04-27T14:16:40.999Z</time></trkpt><trkpt lat="43.91575108623992" lon="12.60038464626942"><ele>117.33333333333333</ele><time>2026-04-27T14:16:41.999Z</time></trkpt><trkpt lat="43.91584209438741" lon="12.600452623007516"><ele>117.66666666666666</ele><time>2026-04-27T14:16:42.999Z</time></trkpt><trkpt lat="43.91591379104659" lon="12.600508611937796"><ele>118.0</ele><time>2026-04-27T14:16:43.999Z</time></trkpt><trkpt lat="43.91597638769383" lon="12.600555217161368"><ele>118.33333333333333</ele><time>2026-04-27T14:16:44.999Z</time></trkpt><trkpt lat="43.916076841024115" lon="12.600627732129709"><ele>118.66666666666666</ele><time>2026-04-27T14:16:46.999Z</time></trkpt><trkpt lat="43.91614427245956" lon="12.600674595966506"><ele>119.0</ele><time>2026-04-27T14:16:48.999Z</time></trkpt><trkpt lat="43.91620639507585" lon="12.600725639621132"><ele>119.49999999999999</ele><time>2026-04-27T14:16:51.999Z</time></trkpt><trkpt lat="43.91626927664401" lon="12.60074529702698"><ele>120.0</ele><time>2026-04-27T14:16:58Z</time></trkpt><trkpt lat="43.916315233323736" lon="12.60064557382561"><ele>120.5</ele><time>2026-04-27T14:16:59Z</time></trkpt><trkpt lat="43.91634323454163" lon="12.600545322577469"><ele>121.0</ele><time>2026-04-27T14:17:00Z</time></trkpt><trkpt lat="43.916367332937185" lon="12.60044500207998"><ele>121.49999999999999</ele><time>2026-04-27T14:17:01Z</time></trkpt><trkpt lat="43.91639627378321" lon="12.600348537742153"><ele>122.0</ele><time>2026-04-27T14:17:02Z</time></trkpt><trkpt lat="43.91642703549721" lon="12.600244775998602"><ele>122.0</ele><time>2026-04-27T14:17:03Z</time></trkpt><trkpt lat="43.9164762100418" lon="12.60014153787196"><ele>121.99999999999999</ele><time>2026-04-27T14:17:04Z</time></trkpt><trkpt lat="43.91651201985514" lon="12.600024403195297"><ele>121.99999999999999</ele><time>2026-04-27T14:17:05Z</time></trkpt><trkpt lat="43.91654842147062" lon="12.59990533272942"><ele>122.0</ele><time>2026-04-27T14:17:06Z</time></trkpt><trkpt lat="43.91658605139692" lon="12.59978366741314"><ele>122.0</ele><time>2026-04-27T14:17:07Z</time></trkpt><trkpt lat="43.91662508282955" lon="12.599658597339692"><ele>121.99999999999999</ele><time>2026-04-27T14:17:08Z</time></trkpt><trkpt lat="43.91666402480568" lon="12.599531986816254"><ele>122.0</ele><time>2026-04-27T14:17:09Z</time></trkpt><trkpt lat="43.916697650773635" lon="12.599421313027788"><ele>122.0</ele><time>2026-04-27T14:17:10Z</time></trkpt><trkpt lat="43.91672841942611" lon="12.5993200435797"><ele>122.0</ele><time>2026-04-27T14:17:11Z</time></trkpt><trkpt lat="43.91675686302997" lon="12.599226426616704"><ele>121.99999999999999</ele><time>2026-04-27T14:17:12Z</time></trkpt><trkpt lat="43.916786107669225" lon="12.599129280011342"><ele>122.0</ele><time>2026-04-27T14:17:13Z</time></trkpt><trkpt lat="43.91680004485628" lon="12.599023073522398"><ele>123.99999999999999</ele><time>2026-04-27T14:17:14Z</time></trkpt><trkpt lat="43.91683163871889" lon="12.59892064097688"><ele>126.0</ele><time>2026-04-27T14:17:15Z</time></trkpt><trkpt lat="43.91686549195925" lon="12.598814197360834"><ele>128.0</ele><time>2026-04-27T14:17:16Z</time></trkpt><trkpt lat="43.91690067037283" lon="12.598705645658425"><ele>130.0</ele><time>2026-04-27T14:17:17Z</time></trkpt><trkpt lat="43.91693623783042" lon="12.598591211134954"><ele>132.0</ele><time>2026-04-27T14:17:18Z</time></trkpt><trkpt lat="43.91696734897371" lon="12.598469423691752"><ele>134.0</ele><time>2026-04-27T14:17:19Z</time></trkpt><trkpt lat="43.91699742487638" lon="12.598343992400402"><ele>134.0</ele><time>2026-04-27T14:17:20Z</time></trkpt><trkpt lat="43.917023791748214" lon="12.598212300701656"><ele>134.0</ele><time>2026-04-27T14:17:21Z</time></trkpt><trkpt lat="43.91706333531783" lon="12.598081170679698"><ele>134.0</ele><time>2026-04-27T14:17:22Z</time></trkpt><trkpt lat="43.917056955947295" lon="12.597930514667414"><ele>134.0</ele><time>2026-04-27T14:17:23Z</time></trkpt><trkpt lat="43.91706301200844" lon="12.597788222949495"><ele>134.0</ele><time>2026-04-27T14:17:24Z</time></trkpt><trkpt lat="43.91705801206087" lon="12.597644669506934"><ele>133.2</ele><time>2026-04-27T14:17:25Z</time></trkpt><trkpt lat="43.91706802885446" lon="12.597507706374948"><ele>132.4</ele><time>2026-04-27T14:17:26Z</time></trkpt><trkpt lat="43.917061068682365" lon="12.597383103884232"><ele>131.6</ele><time>2026-04-27T14:17:27Z</time></trkpt><trkpt lat="43.91703873759325" lon="12.597271767167305"><ele>130.8</ele><time>2026-04-27T14:17:28Z</time></trkpt><trkpt lat="43.91703870900136" lon="12.597169035898975"><ele>130.0</ele><time>2026-04-27T14:17:29Z</time></trkpt><trkpt lat="43.9170754847476" lon="12.59699817574269"><ele>129.8</ele><time>2026-04-27T14:17:31Z</time></trkpt><trkpt lat="43.91712572348321" lon="12.59692016561071"><ele>129.6</ele><time>2026-04-27T14:17:32Z</time></trkpt><trkpt lat="43.91720182920541" lon="12.596855972773174"><ele>129.4</ele><time>2026-04-27T14:17:33Z</time></trkpt><trkpt lat="43.91728770719676" lon="12.596821281522072"><ele>129.2</ele><time>2026-04-27T14:17:34Z</time></trkpt><trkpt lat="43.91738486453937" lon="12.59681230521066"><ele>129.0</ele><time>2026-04-27T14:17:35Z</time></trkpt><trkpt lat="43.91748894475432" lon="12.596831045826747"><ele>131.5</ele><time>2026-04-27T14:17:36Z</time></trkpt><trkpt lat="43.91760352909772" lon="12.596875115893258"><ele>134.0</ele><time>2026-04-27T14:17:37Z</time></trkpt><trkpt lat="43.9177190025592" lon="12.596926801539515"><ele>136.5</ele><time>2026-04-27T14:17:38Z</time></trkpt><trkpt lat="43.91783832364299" lon="12.596995209002541"><ele>139.0</ele><time>2026-04-27T14:17:39Z</time></trkpt><trkpt lat="43.91793608483378" lon="12.597049878465436"><ele>139.0</ele><time>2026-04-27T14:17:40Z</time></trkpt><trkpt lat="43.918020422270615" lon="12.59711655207654"><ele>139.0</ele><time>2026-04-27T14:17:41Z</time></trkpt><trkpt lat="43.918076979148175" lon="12.597202097608395"><ele>139.0</ele><time>2026-04-27T14:17:42Z</time></trkpt><trkpt lat="43.918112065972046" lon="12.597307527161982"><ele>139.0</ele><time>2026-04-27T14:17:43Z</time></trkpt><trkpt lat="43.91810584115144" lon="12.597431705865606"><ele>139.0</ele><time>2026-04-27T14:17:44Z</time></trkpt><trkpt lat="43.91806088775614" lon="12.597559737708385"><ele>139.0</ele><time>2026-04-27T14:17:45Z</time></trkpt><trkpt lat="43.91799776680627" lon="12.597690529541074"><ele>139.0</ele><time>2026-04-27T14:17:46Z</time></trkpt><trkpt lat="43.91793746333072" lon="12.597828165123236"><ele>139.0</ele><time>2026-04-27T14:17:47Z</time></trkpt><trkpt lat="43.91788539899019" lon="12.597957159162483"><ele>139.0</ele><time>2026-04-27T14:17:48Z</time></trkpt><trkpt lat="43.91784224631609" lon="12.598066550133952"><ele>139.0</ele><time>2026-04-27T14:17:49Z</time></trkpt><trkpt lat="43.91781391085425" lon="12.598178124400384"><ele>140.16666666666669</ele><time>2026-04-27T14:17:50Z</time></trkpt><trkpt lat="43.9178084742368" lon="12.598274840036503"><ele>141.33333333333334</ele><time>2026-04-27T14:17:51Z</time></trkpt><trkpt lat="43.91789017404983" lon="12.598396295775933"><ele>142.5</ele><time>2026-04-27T14:17:53Z</time></trkpt><trkpt lat="43.91796527984534" lon="12.59839588907154"><ele>143.66666666666666</ele><time>2026-04-27T14:17:54Z</time></trkpt><trkpt lat="43.918040832068044" lon="12.598344963280198"><ele>144.83333333333331</ele><time>2026-04-27T14:17:55Z</time></trkpt><trkpt lat="43.91810384303664" lon="12.598273699798074"><ele>146.0</ele><time>2026-04-27T14:17:56Z</time></trkpt><trkpt lat="43.918182657345326" lon="12.598186617987416"><ele>146.0</ele><time>2026-04-27T14:17:57Z</time></trkpt><trkpt lat="43.91827385188799" lon="12.598095629305183"><ele>146.0</ele><time>2026-04-27T14:17:58Z</time></trkpt><trkpt lat="43.91837933185849" lon="12.59801851352374"><ele>146.0</ele><time>2026-04-27T14:17:59Z</time></trkpt><trkpt lat="43.918495670174835" lon="12.597965941615254"><ele>146.0</ele><time>2026-04-27T14:18:00Z</time></trkpt><trkpt lat="43.91861813550951" lon="12.597928580462854"><ele>147.0</ele><time>2026-04-27T14:18:01Z</time></trkpt><trkpt lat="43.918735825455535" lon="12.597888045262453"><ele>148.0</ele><time>2026-04-27T14:18:02Z</time></trkpt><trkpt lat="43.91883994987071" lon="12.597841640623008"><ele>149.0</ele><time>2026-04-27T14:18:03Z</time></trkpt><trkpt lat="43.9189289950404" lon="12.597771080611796"><ele>150.0</ele><time>2026-04-27T14:18:04Z</time></trkpt><trkpt lat="43.919005035402506" lon="12.597679653434945"><ele>151.0</ele><time>2026-04-27T14:18:05Z</time></trkpt><trkpt lat="43.91902988621843" lon="12.597535041602518"><ele>151.0</ele><time>2026-04-27T14:18:06Z</time></trkpt><trkpt lat="43.91900834159518" lon="12.597373831336661"><ele>151.0</ele><time>2026-04-27T14:18:07Z</time></trkpt><trkpt lat="43.91898384234662" lon="12.597195584877435"><ele>151.0</ele><time>2026-04-27T14:18:08Z</time></trkpt><trkpt lat="43.91895173926261" lon="12.597010645240308"><ele>151.0</ele><time>2026-04-27T14:18:09Z</time></trkpt><trkpt lat="43.918935632838036" lon="12.596805023203085"><ele>152.75</ele><time>2026-04-27T14:18:10Z</time></trkpt><trkpt lat="43.91890396246685" lon="12.596596497205445"><ele>154.5</ele><time>2026-04-27T14:18:11Z</time></trkpt><trkpt lat="43.9188737120547" lon="12.596396662577067"><ele>156.25</ele><time>2026-04-27T14:18:12Z</time></trkpt><trkpt lat="43.91885908322761" lon="12.596215286853866"><ele>158.0</ele><time>2026-04-27T14:18:13Z</time></trkpt><trkpt lat="43.918863673971906" lon="12.596051841717728"><ele>158.25</ele><time>2026-04-27T14:18:14Z</time></trkpt><trkpt lat="43.91889321514728" lon="12.59588585867805"><ele>158.5</ele><time>2026-04-27T14:18:15Z</time></trkpt><trkpt lat="43.91894854554777" lon="12.595743775496391"><ele>158.75</ele><time>2026-04-27T14:18:16Z</time></trkpt><trkpt lat="43.9190245454671" lon="12.595604980807593"><ele>159.0</ele><time>2026-04-27T14:18:17Z</time></trkpt><trkpt lat="43.919103604364764" lon="12.595442609366868"><ele>157.0</ele><time>2026-04-27T14:18:18Z</time></trkpt><trkpt lat="43.91921646273845" lon="12.595302766940597"><ele>155.0</ele><time>2026-04-27T14:18:19Z</time></trkpt><trkpt lat="43.919322004034214" lon="12.595141572175159"><ele>153.0</ele><time>2026-04-27T14:18:20Z</time></trkpt><trkpt lat="43.919419227697645" lon="12.594960797038604"><ele>160.33333333333334</ele><time>2026-04-27T14:18:21Z</time></trkpt><trkpt lat="43.91953920594772" lon="12.594811152401073"><ele>167.66666666666669</ele><time>2026-04-27T14:18:22Z</time></trkpt><trkpt lat="43.919647610870534" lon="12.594657590340635"><ele>175.0</ele><time>2026-04-27T14:18:23Z</time></trkpt><trkpt lat="43.919756789441436" lon="12.594510330817455"><ele>176.25</ele><time>2026-04-27T14:18:24Z</time></trkpt><trkpt lat="43.91987001176157" lon="12.594374911649721"><ele>177.5</ele><time>2026-04-27T14:18:25Z</time></trkpt><trkpt lat="43.91997435620251" lon="12.594232072975371"><ele>178.75</ele><time>2026-04-27T14:18:26Z</time></trkpt><trkpt lat="43.92009396807564" lon="12.59411452511732"><ele>180.0</ele><time>2026-04-27T14:18:27Z</time></trkpt><trkpt lat="43.92020510266262" lon="12.59400741271652"><ele>180.0</ele><time>2026-04-27T14:18:28Z</time></trkpt><trkpt lat="43.92031387148927" lon="12.593900029919277"><ele>180.0</ele><time>2026-04-27T14:18:29Z</time></trkpt><trkpt lat="43.920421276085335" lon="12.593797014988938"><ele>180.0</ele><time>2026-04-27T14:18:30Z</time></trkpt><trkpt lat="43.92053158847967" lon="12.593696881392093"><ele>180.0</ele><time>2026-04-27T14:18:31Z</time></trkpt><trkpt lat="43.920638152325495" lon="12.59358285997925"><ele>180.75</ele><time>2026-04-27T14:18:32Z</time></trkpt><trkpt lat="43.92071974429975" lon="12.593452405818006"><ele>181.5</ele><time>2026-04-27T14:18:32.999Z</time></trkpt><trkpt lat="43.92079761584899" lon="12.593326437088178"><ele>182.25</ele><time>2026-04-27T14:18:33.999Z</time></trkpt><trkpt lat="43.92085263799252" lon="12.593165734296864"><ele>183.0</ele><time>2026-04-27T14:18:34.999Z</time></trkpt><trkpt lat="43.920907025656376" lon="12.593008377358277"><ele>183.0</ele><time>2026-04-27T14:18:35.999Z</time></trkpt><trkpt lat="43.9209557350836" lon="12.592872634239539"><ele>183.0</ele><time>2026-04-27T14:18:36.999Z</time></trkpt><trkpt lat="43.92100860553637" lon="12.592766883242176"><ele>183.0</ele><time>2026-04-27T14:18:37.999Z</time></trkpt><trkpt lat="43.92107955184096" lon="12.59267073172369"><ele>183.0</ele><time>2026-04-27T14:18:38.999Z</time></trkpt><trkpt lat="43.921190850655314" lon="12.592625952083282"><ele>183.0</ele><time>2026-04-27T14:18:39.999Z</time></trkpt><trkpt lat="43.921321647233114" lon="12.592608261853313"><ele>183.0</ele><time>2026-04-27T14:18:40.999Z</time></trkpt><trkpt lat="43.92146333389434" lon="12.592593190093728"><ele>183.0</ele><time>2026-04-27T14:18:41.999Z</time></trkpt><trkpt lat="43.92161158732934" lon="12.59257272404554"><ele>183.0</ele><time>2026-04-27T14:18:42.999Z</time></trkpt><trkpt lat="43.92175363995684" lon="12.592556179833451"><ele>183.0</ele><time>2026-04-27T14:18:43.999Z</time></trkpt><trkpt lat="43.92188999945989" lon="12.592543066316747"><ele>183.0</ele><time>2026-04-27T14:18:44.999Z</time></trkpt><trkpt lat="43.92202625475569" lon="12.59253204405869"><ele>183.0</ele><time>2026-04-27T14:18:45.999Z</time></trkpt><trkpt lat="43.92215956444675" lon="12.592519253384896"><ele>183.0</ele><time>2026-04-27T14:18:46.999Z</time></trkpt><trkpt lat="43.92228198944769" lon="12.592509578850375"><ele>183.0</ele><time>2026-04-27T14:18:47.999Z</time></trkpt><trkpt lat="43.92239716672765" lon="12.592495196710619"><ele>183.0</ele><time>2026-04-27T14:18:48.999Z</time></trkpt><trkpt lat="43.92249359280276" lon="12.592454720447986"><ele>183.0</ele><time>2026-04-27T14:18:49.999Z</time></trkpt><trkpt lat="43.922581728761706" lon="12.592411758944385"><ele>183.0</ele><time>2026-04-27T14:18:50.999Z</time></trkpt><trkpt lat="43.92264049310147" lon="12.592307360095722"><ele>183.0</ele><time>2026-04-27T14:18:51.999Z</time></trkpt><trkpt lat="43.922660670570124" lon="12.592190789984148"><ele>183.0</ele><time>2026-04-27T14:18:52.999Z</time></trkpt><trkpt lat="43.922640388821826" lon="12.592055893333745"><ele>182.75</ele><time>2026-04-27T14:18:53.999Z</time></trkpt><trkpt lat="43.92258801813381" lon="12.591924688897922"><ele>182.5</ele><time>2026-04-27T14:18:54.999Z</time></trkpt><trkpt lat="43.92252435163159" lon="12.591790175791802"><ele>182.25</ele><time>2026-04-27T14:18:55.999Z</time></trkpt><trkpt lat="43.92245717484147" lon="12.591640209772898"><ele>182.0</ele><time>2026-04-27T14:18:56.999Z</time></trkpt><trkpt lat="43.92239119459047" lon="12.591492081099426"><ele>182.0</ele><time>2026-04-27T14:18:57.999Z</time></trkpt><trkpt lat="43.92233075870429" lon="12.59135461387069"><ele>182.0</ele><time>2026-04-27T14:18:58.999Z</time></trkpt><trkpt lat="43.9222797369192" lon="12.591235871982528"><ele>182.0</ele><time>2026-04-27T14:19:00Z</time></trkpt><trkpt lat="43.92224657249829" lon="12.591132200677432"><ele>182.0</ele><time>2026-04-27T14:19:01Z</time></trkpt><trkpt lat="43.92227034923362" lon="12.591022803821467"><ele>182.0</ele><time>2026-04-27T14:19:03Z</time></trkpt><trkpt lat="43.92237895295179" lon="12.59098180311292"><ele>183.39999999999998</ele><time>2026-04-27T14:19:05Z</time></trkpt><trkpt lat="43.92244267721067" lon="12.591055300748671"><ele>184.79999999999998</ele><time>2026-04-27T14:19:06Z</time></trkpt><trkpt lat="43.92250328965176" lon="12.591152668932942"><ele>186.2</ele><time>2026-04-27T14:19:07Z</time></trkpt><trkpt lat="43.92257266696904" lon="12.591257608446593"><ele>187.6</ele><time>2026-04-27T14:19:08Z</time></trkpt><trkpt lat="43.92265150266829" lon="12.591370451509658"><ele>189.0</ele><time>2026-04-27T14:19:09Z</time></trkpt><trkpt lat="43.92273451458636" lon="12.591487108354226"><ele>189.79999999999998</ele><time>2026-04-27T14:19:10Z</time></trkpt><trkpt lat="43.92281333647539" lon="12.591598040206959"><ele>190.6</ele><time>2026-04-27T14:19:11Z</time></trkpt><trkpt lat="43.9228870828556" lon="12.591702503442157"><ele>191.4</ele><time>2026-04-27T14:19:12Z</time></trkpt><trkpt lat="43.92296021750517" lon="12.591804739165244"><ele>192.2</ele><time>2026-04-27T14:19:13Z</time></trkpt><trkpt lat="43.9230330165853" lon="12.59190413233904"><ele>193.0</ele><time>2026-04-27T14:19:14Z</time></trkpt><trkpt lat="43.923105225590064" lon="12.59200103263479"><ele>192.66666666666666</ele><time>2026-04-27T14:19:15Z</time></trkpt><trkpt lat="43.923173269857266" lon="12.592095854537167"><ele>192.33333333333331</ele><time>2026-04-27T14:19:16Z</time></trkpt><trkpt lat="43.92323857965806" lon="12.592188319670138"><ele>192.0</ele><time>2026-04-27T14:19:17Z</time></trkpt><trkpt lat="43.92329971204813" lon="12.59227194796339"><ele>191.66666666666666</ele><time>2026-04-27T14:19:18Z</time></trkpt><trkpt lat="43.92335498677218" lon="12.59235016023702"><ele>191.33333333333331</ele><time>2026-04-27T14:19:19Z</time></trkpt><trkpt lat="43.92340227405808" lon="12.59242106224874"><ele>191.0</ele><time>2026-04-27T14:19:20Z</time></trkpt><trkpt lat="43.92345453291613" lon="12.592555043924541"><ele>191.8</ele><time>2026-04-27T14:19:22Z</time></trkpt><trkpt lat="43.923447675097314" lon="12.59269875889887"><ele>192.60000000000002</ele><time>2026-04-27T14:19:24Z</time></trkpt><trkpt lat="43.92340080148151" lon="12.59283081025975"><ele>193.4</ele><time>2026-04-27T14:19:26Z</time></trkpt><trkpt lat="43.92331195102029" lon="12.592947051381511"><ele>194.2</ele><time>2026-04-27T14:19:28Z</time></trkpt><trkpt lat="43.923250646752386" lon="12.593008248312158"><ele>195.0</ele><time>2026-04-27T14:19:29Z</time></trkpt><trkpt lat="43.923192354354825" lon="12.593078136263923"><ele>195.0</ele><time>2026-04-27T14:19:30Z</time></trkpt><trkpt lat="43.9231471654495" lon="12.593153271117217"><ele>195.0</ele><time>2026-04-27T14:19:31Z</time></trkpt><trkpt lat="43.92311585989016" lon="12.593237999990576"><ele>195.0</ele><time>2026-04-27T14:19:32Z</time></trkpt><trkpt lat="43.92310182427142" lon="12.593339560138196"><ele>195.0</ele><time>2026-04-27T14:19:33Z</time></trkpt><trkpt lat="43.92310824155422" lon="12.593451523994533"><ele>195.0</ele><time>2026-04-27T14:19:34Z</time></trkpt><trkpt lat="43.92313990076426" lon="12.593553233669414"><ele>195.0</ele><time>2026-04-27T14:19:35Z</time></trkpt><trkpt lat="43.92319061556662" lon="12.593644308900481"><ele>193.6</ele><time>2026-04-27T14:19:36Z</time></trkpt><trkpt lat="43.92326470784177" lon="12.593702735695857"><ele>192.2</ele><time>2026-04-27T14:19:37Z</time></trkpt><trkpt lat="43.923349691938185" lon="12.593741236472987"><ele>190.8</ele><time>2026-04-27T14:19:38Z</time></trkpt><trkpt lat="43.92344687406564" lon="12.593758617547573"><ele>189.4</ele><time>2026-04-27T14:19:39Z</time></trkpt><trkpt lat="43.92355381622218" lon="12.59376920650688"><ele>188.0</ele><time>2026-04-27T14:19:40Z</time></trkpt><trkpt lat="43.92366390797513" lon="12.59377515182036"><ele>186.60000000000002</ele><time>2026-04-27T14:19:41Z</time></trkpt><trkpt lat="43.923773180249285" lon="12.593772160781356"><ele>185.20000000000002</ele><time>2026-04-27T14:19:42Z</time></trkpt><trkpt lat="43.92388527737648" lon="12.593764216394653"><ele>183.8</ele><time>2026-04-27T14:19:43Z</time></trkpt><trkpt lat="43.923997605767745" lon="12.593753508792833"><ele>182.4</ele><time>2026-04-27T14:19:44Z</time></trkpt><trkpt lat="43.92411258497278" lon="12.59374121476325"><ele>181.0</ele><time>2026-04-27T14:19:45Z</time></trkpt><trkpt lat="43.92422820270408" lon="12.593727911362521"><ele>182.0</ele><time>2026-04-27T14:19:46Z</time></trkpt><trkpt lat="43.92434506122522" lon="12.593712949987488"><ele>183.0</ele><time>2026-04-27T14:19:47Z</time></trkpt><trkpt lat="43.92446282211377" lon="12.593697143365679"><ele>184.0</ele><time>2026-04-27T14:19:48Z</time></trkpt><trkpt lat="43.924579106719314" lon="12.593679291551947"><ele>185.0</ele><time>2026-04-27T14:19:49Z</time></trkpt><trkpt lat="43.924691772296974" lon="12.593663147782507"><ele>185.0</ele><time>2026-04-27T14:19:50Z</time></trkpt><trkpt lat="43.92480465401248" lon="12.593646282779092"><ele>185.0</ele><time>2026-04-27T14:19:51Z</time></trkpt><trkpt lat="43.92492553236075" lon="12.593627955240871"><ele>185.0</ele><time>2026-04-27T14:19:52Z</time></trkpt><trkpt lat="43.92505209039678" lon="12.593604014788038"><ele>185.0</ele><time>2026-04-27T14:19:53Z</time></trkpt><trkpt lat="43.925186510834074" lon="12.59357311567118"><ele>183.75</ele><time>2026-04-27T14:19:54Z</time></trkpt><trkpt lat="43.92532841531189" lon="12.593538106696268"><ele>182.5</ele><time>2026-04-27T14:19:55Z</time></trkpt><trkpt lat="43.92547565286942" lon="12.593497254515738"><ele>181.25</ele><time>2026-04-27T14:19:56Z</time></trkpt><trkpt lat="43.92562657736594" lon="12.593458108113824"><ele>180.0</ele><time>2026-04-27T14:19:57Z</time></trkpt><trkpt lat="43.92577035561752" lon="12.593418216120815"><ele>179.75</ele><time>2026-04-27T14:19:58Z</time></trkpt><trkpt lat="43.92591123015794" lon="12.593379970389837"><ele>179.5</ele><time>2026-04-27T14:19:59Z</time></trkpt><trkpt lat="43.9260567374873" lon="12.59334136975993"><ele>179.25</ele><time>2026-04-27T14:20:00Z</time></trkpt><trkpt lat="43.92620178298943" lon="12.593305230631819"><ele>179.0</ele><time>2026-04-27T14:20:01Z</time></trkpt><trkpt lat="43.92634770116265" lon="12.59326782253452"><ele>179.0</ele><time>2026-04-27T14:20:02Z</time></trkpt><trkpt lat="43.92649175839426" lon="12.59322847655806"><ele>179.0</ele><time>2026-04-27T14:20:03Z</time></trkpt><trkpt lat="43.926633766775296" lon="12.593186386809519"><ele>179.0</ele><time>2026-04-27T14:20:04Z</time></trkpt><trkpt lat="43.92677759310875" lon="12.593149304700013"><ele>179.0</ele><time>2026-04-27T14:20:05Z</time></trkpt><trkpt lat="43.92692842248771" lon="12.593122224117645"><ele>177.0</ele><time>2026-04-27T14:20:06Z</time></trkpt><trkpt lat="43.92708610386711" lon="12.59310949344891"><ele>175.0</ele><time>2026-04-27T14:20:07Z</time></trkpt><trkpt lat="43.92723940784426" lon="12.59311511745411"><ele>173.0</ele><time>2026-04-27T14:20:08Z</time></trkpt><trkpt lat="43.92739412179165" lon="12.593140732738341"><ele>173.0</ele><time>2026-04-27T14:20:09Z</time></trkpt><trkpt lat="43.927547453580054" lon="12.593183013563145"><ele>173.0</ele><time>2026-04-27T14:20:10Z</time></trkpt><trkpt lat="43.92770486482902" lon="12.593229928029933"><ele>173.0</ele><time>2026-04-27T14:20:11Z</time></trkpt><trkpt lat="43.92786033322203" lon="12.593283732537802"><ele>170.33333333333331</ele><time>2026-04-27T14:20:12Z</time></trkpt><trkpt lat="43.92801699679388" lon="12.593327394478075"><ele>167.66666666666666</ele><time>2026-04-27T14:20:13Z</time></trkpt><trkpt lat="43.92817473897133" lon="12.593378572531824"><ele>165.0</ele><time>2026-04-27T14:20:14Z</time></trkpt><trkpt lat="43.928337905335745" lon="12.593390548432525"><ele>164.0</ele><time>2026-04-27T14:20:15Z</time></trkpt><trkpt lat="43.92850195109958" lon="12.59337475816815"><ele>163.0</ele><time>2026-04-27T14:20:16Z</time></trkpt><trkpt lat="43.92866542480851" lon="12.593312560837576"><ele>162.0</ele><time>2026-04-27T14:20:17Z</time></trkpt><trkpt lat="43.92883106227414" lon="12.593265967478176"><ele>162.0</ele><time>2026-04-27T14:20:18Z</time></trkpt><trkpt lat="43.928995793680635" lon="12.593206551892342"><ele>162.0</ele><time>2026-04-27T14:20:19Z</time></trkpt><trkpt lat="43.92915575443356" lon="12.593150179405283"><ele>162.0</ele><time>2026-04-27T14:20:20Z</time></trkpt><trkpt lat="43.92930633205176" lon="12.593095060180865"><ele>161.33333333333334</ele><time>2026-04-27T14:20:21Z</time></trkpt><trkpt lat="43.92945325948848" lon="12.593046660857755"><ele>160.66666666666669</ele><time>2026-04-27T14:20:22Z</time></trkpt><trkpt lat="43.929604597450194" lon="12.59300185725499"><ele>160.0</ele><time>2026-04-27T14:20:23Z</time></trkpt><trkpt lat="43.92976111454843" lon="12.592962254056337"><ele>160.0</ele><time>2026-04-27T14:20:24Z</time></trkpt><trkpt lat="43.9299188566332" lon="12.592937452149346"><ele>160.0</ele><time>2026-04-27T14:20:25Z</time></trkpt><trkpt lat="43.9300793466337" lon="12.592928644844728"><ele>160.0</ele><time>2026-04-27T14:20:26Z</time></trkpt><trkpt lat="43.930240926880906" lon="12.592925785651397"><ele>159.0</ele><time>2026-04-27T14:20:27Z</time></trkpt><trkpt lat="43.930408422389675" lon="12.59292867500234"><ele>158.0</ele><time>2026-04-27T14:20:28Z</time></trkpt><trkpt lat="43.93057965309026" lon="12.592937544647464"><ele>157.0</ele><time>2026-04-27T14:20:28.999Z</time></trkpt><trkpt lat="43.93075433082408" lon="12.592949776873533"><ele>157.66666666666669</ele><time>2026-04-27T14:20:29.999Z</time></trkpt><trkpt lat="43.93092560157721" lon="12.592965072998643"><ele>158.33333333333334</ele><time>2026-04-27T14:20:30.999Z</time></trkpt><trkpt lat="43.93109373521214" lon="12.592983729376416"><ele>159.0</ele><time>2026-04-27T14:20:31.999Z</time></trkpt><trkpt lat="43.931262634342815" lon="12.593000712566088"><ele>159.0</ele><time>2026-04-27T14:20:32.999Z</time></trkpt><trkpt lat="43.93142976497272" lon="12.592999517434638"><ele>159.0</ele><time>2026-04-27T14:20:33.999Z</time></trkpt><trkpt lat="43.93159381786835" lon="12.592982573537173"><ele>159.0</ele><time>2026-04-27T14:20:34.999Z</time></trkpt><trkpt lat="43.931758116663744" lon="12.592964077779442"><ele>158.66666666666666</ele><time>2026-04-27T14:20:35.999Z</time></trkpt><trkpt lat="43.93192115854296" lon="12.592941748392862"><ele>158.33333333333331</ele><time>2026-04-27T14:20:36.999Z</time></trkpt><trkpt lat="43.93208438917117" lon="12.592920355646058"><ele>158.0</ele><time>2026-04-27T14:20:37.999Z</time></trkpt><trkpt lat="43.932244830475106" lon="12.592907896480474"><ele>158.0</ele><time>2026-04-27T14:20:38.999Z</time></trkpt><trkpt lat="43.932402303324295" lon="12.59290403036895"><ele>158.0</ele><time>2026-04-27T14:20:39.999Z</time></trkpt><trkpt lat="43.93255459030908" lon="12.592917673046891"><ele>158.0</ele><time>2026-04-27T14:20:40.999Z</time></trkpt><trkpt lat="43.93269852747689" lon="12.592957544601637"><ele>155.66666666666666</ele><time>2026-04-27T14:20:41.999Z</time></trkpt><trkpt lat="43.93283912336579" lon="12.59301953454105"><ele>153.33333333333334</ele><time>2026-04-27T14:20:42.999Z</time></trkpt><trkpt lat="43.9329829897186" lon="12.59309192627669"><ele>151.0</ele><time>2026-04-27T14:20:43.999Z</time></trkpt><trkpt lat="43.93313312304323" lon="12.593158351504808"><ele>151.0</ele><time>2026-04-27T14:20:44.999Z</time></trkpt><trkpt lat="43.93328457022889" lon="12.593221547931684"><ele>151.0</ele><time>2026-04-27T14:20:45.999Z</time></trkpt><trkpt lat="43.93344256596645" lon="12.593282328849021"><ele>151.0</ele><time>2026-04-27T14:20:46.999Z</time></trkpt><trkpt lat="43.933604911772065" lon="12.593339325189023"><ele>148.0</ele><time>2026-04-27T14:20:47.999Z</time></trkpt><trkpt lat="43.933769530325854" lon="12.593401468137383"><ele>145.0</ele><time>2026-04-27T14:20:48.999Z</time></trkpt><trkpt lat="43.93393398057573" lon="12.59346773606633"><ele>142.0</ele><time>2026-04-27T14:20:49.999Z</time></trkpt><trkpt lat="43.93409415713849" lon="12.593534306886621"><ele>140.0</ele><time>2026-04-27T14:20:50.999Z</time></trkpt><trkpt lat="43.93424942381624" lon="12.593596830398738"><ele>138.0</ele><time>2026-04-27T14:20:51.999Z</time></trkpt><trkpt lat="43.93440205205498" lon="12.593658027115909"><ele>136.0</ele><time>2026-04-27T14:20:52.999Z</time></trkpt><trkpt lat="43.934555512310645" lon="12.593700221166456"><ele>141.33333333333334</ele><time>2026-04-27T14:20:53.999Z</time></trkpt><trkpt lat="43.93471273287696" lon="12.593724261739096"><ele>146.66666666666666</ele><time>2026-04-27T14:20:54.999Z</time></trkpt><trkpt lat="43.934868922391665" lon="12.593743535188903"><ele>152.0</ele><time>2026-04-27T14:20:55.999Z</time></trkpt><trkpt lat="43.93502255277804" lon="12.593750947066798"><ele>151.5</ele><time>2026-04-27T14:20:56.999Z</time></trkpt><trkpt lat="43.935171568560975" lon="12.593762807979557"><ele>151.0</ele><time>2026-04-27T14:20:57.999Z</time></trkpt><trkpt lat="43.93531459086043" lon="12.593772163971476"><ele>150.5</ele><time>2026-04-27T14:20:58.999Z</time></trkpt><trkpt lat="43.935451218154654" lon="12.593786178850909"><ele>150.0</ele><time>2026-04-27T14:20:59.999Z</time></trkpt><trkpt lat="43.93557956275869" lon="12.593808277600518"><ele>150.0</ele><time>2026-04-27T14:21:00.999Z</time></trkpt><trkpt lat="43.9357000833619" lon="12.593833932783584"><ele>150.0</ele><time>2026-04-27T14:21:01.999Z</time></trkpt><trkpt lat="43.93581255684014" lon="12.593857790503174"><ele>150.0</ele><time>2026-04-27T14:21:02.999Z</time></trkpt><trkpt lat="43.93591874368178" lon="12.593882691393805"><ele>150.0</ele><time>2026-04-27T14:21:03.999Z</time></trkpt><trkpt lat="43.9360257103022" lon="12.593910843740487"><ele>147.8</ele><time>2026-04-27T14:21:04.999Z</time></trkpt><trkpt lat="43.936131397429534" lon="12.593948167888538"><ele>145.6</ele><time>2026-04-27T14:21:06Z</time></trkpt><trkpt lat="43.93623567210842" lon="12.593995135256444"><ele>143.4</ele><time>2026-04-27T14:21:07Z</time></trkpt><trkpt lat="43.936331398337614" lon="12.594062410837324"><ele>141.2</ele><time>2026-04-27T14:21:08Z</time></trkpt><trkpt lat="43.93642342770364" lon="12.594129981648813"><ele>139.0</ele><time>2026-04-27T14:21:09Z</time></trkpt><trkpt lat="43.93650400440838" lon="12.594186368934675"><ele>139.0</ele><time>2026-04-27T14:21:10Z</time></trkpt><trkpt lat="43.93657210192271" lon="12.59423886403643"><ele>139.0</ele><time>2026-04-27T14:21:11Z</time></trkpt><trkpt lat="43.93664129841734" lon="12.594296560012893"><ele>139.0</ele><time>2026-04-27T14:21:12Z</time></trkpt><trkpt lat="43.93671953093816" lon="12.594358797276163"><ele>139.0</ele><time>2026-04-27T14:21:13Z</time></trkpt><trkpt lat="43.93680073759371" lon="12.594428734144637"><ele>139.0</ele><time>2026-04-27T14:21:14Z</time></trkpt><trkpt lat="43.93688573860028" lon="12.59450285397266"><ele>139.0</ele><time>2026-04-27T14:21:15Z</time></trkpt><trkpt lat="43.93696807669059" lon="12.594575690725122"><ele>139.2</ele><time>2026-04-27T14:21:16Z</time></trkpt><trkpt lat="43.93705004470801" lon="12.594643489782042"><ele>139.4</ele><time>2026-04-27T14:21:17Z</time></trkpt><trkpt lat="43.937132158542674" lon="12.594709865129804"><ele>139.6</ele><time>2026-04-27T14:21:18Z</time></trkpt><trkpt lat="43.937215108116526" lon="12.594776132883089"><ele>139.8</ele><time>2026-04-27T14:21:19Z</time></trkpt><trkpt lat="43.93729974896166" lon="12.594841211775448"><ele>140.0</ele><time>2026-04-27T14:21:20Z</time></trkpt><trkpt lat="43.93738321673717" lon="12.594903696906485"><ele>140.0</ele><time>2026-04-27T14:21:21Z</time></trkpt><trkpt lat="43.93746491087816" lon="12.594960419897172"><ele>140.0</ele><time>2026-04-27T14:21:22Z</time></trkpt><trkpt lat="43.93753771992345" lon="12.595007373652503"><ele>140.0</ele><time>2026-04-27T14:21:23Z</time></trkpt><trkpt lat="43.9376072780387" lon="12.595045931811953"><ele>140.0</ele><time>2026-04-27T14:21:24Z</time></trkpt><trkpt lat="43.93767192399559" lon="12.595074573499623"><ele>140.0</ele><time>2026-04-27T14:21:25Z</time></trkpt><trkpt lat="43.93778534508694" lon="12.595107183036653"><ele>140.0</ele><time>2026-04-27T14:21:27Z</time></trkpt><trkpt lat="43.93788738555605" lon="12.595123220817042"><ele>139.8</ele><time>2026-04-27T14:21:29Z</time></trkpt><trkpt lat="43.937963140264635" lon="12.595109275868065"><ele>139.6</ele><time>2026-04-27T14:22:07Z</time></trkpt><trkpt lat="43.93807493377726" lon="12.59511967426933"><ele>139.4</ele><time>2026-04-27T14:22:09Z</time></trkpt><trkpt lat="43.93819906630994" lon="12.59511824982939"><ele>139.2</ele><time>2026-04-27T14:22:11Z</time></trkpt><trkpt lat="43.93826987921486" lon="12.59512486384893"><ele>139.0</ele><time>2026-04-27T14:22:12Z</time></trkpt><trkpt lat="43.938336001844455" lon="12.595138681103139"><ele>139.28571428571428</ele><time>2026-04-27T14:22:13Z</time></trkpt><trkpt lat="43.93840829818785" lon="12.5951476834507"><ele>139.57142857142858</ele><time>2026-04-27T14:22:14Z</time></trkpt><trkpt lat="43.93847494037877" lon="12.595189627857799"><ele>139.85714285714286</ele><time>2026-04-27T14:22:15Z</time></trkpt><trkpt lat="43.9385393605114" lon="12.595231582463743"><ele>140.14285714285714</ele><time>2026-04-27T14:22:16Z</time></trkpt><trkpt lat="43.93860489511945" lon="12.595270046284435"><ele>140.42857142857142</ele><time>2026-04-27T14:22:17Z</time></trkpt><trkpt lat="43.93867211555857" lon="12.595305533527192"><ele>140.71428571428572</ele><time>2026-04-27T14:22:18Z</time></trkpt><trkpt lat="43.938742840731564" lon="12.595339559028217"><ele>141.0</ele><time>2026-04-27T14:22:19Z</time></trkpt><trkpt lat="43.93881507155706" lon="12.595366626861958"><ele>140.33333333333334</ele><time>2026-04-27T14:22:20Z</time></trkpt><trkpt lat="43.938892746363834" lon="12.595384501575342"><ele>139.66666666666666</ele><time>2026-04-27T14:22:21Z</time></trkpt><trkpt lat="43.93897430090274" lon="12.595391168554874"><ele>139.0</ele><time>2026-04-27T14:22:22Z</time></trkpt><trkpt lat="43.93905784100302" lon="12.595421361373186"><ele>138.33333333333331</ele><time>2026-04-27T14:22:23Z</time></trkpt><trkpt lat="43.939147639175445" lon="12.595422016700114"><ele>137.66666666666666</ele><time>2026-04-27T14:22:24Z</time></trkpt><trkpt lat="43.939237906688845" lon="12.595410271137364"><ele>137.0</ele><time>2026-04-27T14:22:24.999Z</time></trkpt><trkpt lat="43.9393274644864" lon="12.595393629592373"><ele>137.0</ele><time>2026-04-27T14:22:25.999Z</time></trkpt><trkpt lat="43.939418811214196" lon="12.595376152963201"><ele>137.0</ele><time>2026-04-27T14:22:26.999Z</time></trkpt><trkpt lat="43.939513029591986" lon="12.595357581978005"><ele>137.0</ele><time>2026-04-27T14:22:27.999Z</time></trkpt><trkpt lat="43.93960669377479" lon="12.595335429884301"><ele>137.0</ele><time>2026-04-27T14:22:28.999Z</time></trkpt><trkpt lat="43.93970237114147" lon="12.595316263776708"><ele>137.0</ele><time>2026-04-27T14:22:29.999Z</time></trkpt><trkpt lat="43.939801703512686" lon="12.595334584726041"><ele>136.79999999999998</ele><time>2026-04-27T14:22:30.999Z</time></trkpt><trkpt lat="43.939897168409516" lon="12.595378989490037"><ele>136.6</ele><time>2026-04-27T14:22:31.999Z</time></trkpt><trkpt lat="43.939991876490474" lon="12.595396226839163"><ele>136.39999999999998</ele><time>2026-04-27T14:22:32.999Z</time></trkpt><trkpt lat="43.94008507102675" lon="12.59541318870335"><ele>136.2</ele><time>2026-04-27T14:22:33.999Z</time></trkpt><trkpt lat="43.940175421263305" lon="12.595429352650841"><ele>136.0</ele><time>2026-04-27T14:22:34.999Z</time></trkpt><trkpt lat="43.940258292917626" lon="12.595443954463356"><ele>135.8</ele><time>2026-04-27T14:22:35.999Z</time></trkpt><trkpt lat="43.94033405636734" lon="12.595457303817492"><ele>135.6</ele><time>2026-04-27T14:22:36.999Z</time></trkpt><trkpt lat="43.94039981981662" lon="12.595461267853743"><ele>135.4</ele><time>2026-04-27T14:22:37.999Z</time></trkpt><trkpt lat="43.940484678389225" lon="12.595555865538964"><ele>135.2</ele><time>2026-04-27T14:22:39.999Z</time></trkpt><trkpt lat="43.94056316846118" lon="12.595677377875461"><ele>135.0</ele><time>2026-04-27T14:22:41.999Z</time></trkpt><trkpt lat="43.940669645503256" lon="12.595648300662843"><ele>135.0</ele><time>2026-04-27T14:22:43.999Z</time></trkpt><trkpt lat="43.940719258916225" lon="12.59557984797435"><ele>135.0</ele><time>2026-04-27T14:22:44.999Z</time></trkpt><trkpt lat="43.94078942238997" lon="12.595532473106271"><ele>135.0</ele><time>2026-04-27T14:22:45.999Z</time></trkpt><trkpt lat="43.94088225081244" lon="12.595532873406185"><ele>135.0</ele><time>2026-04-27T14:22:46.999Z</time></trkpt><trkpt lat="43.94097708400018" lon="12.59555047806624"><ele>135.0</ele><time>2026-04-27T14:22:47.999Z</time></trkpt><trkpt lat="43.94107246363407" lon="12.595598343440924"><ele>135.0</ele><time>2026-04-27T14:22:48.999Z</time></trkpt><trkpt lat="43.941171620820874" lon="12.595625787145206"><ele>135.4</ele><time>2026-04-27T14:22:49.999Z</time></trkpt><trkpt lat="43.9412730090623" lon="12.595632868753134"><ele>135.8</ele><time>2026-04-27T14:22:50.999Z</time></trkpt><trkpt lat="43.941372204054346" lon="12.595660656572981"><ele>136.2</ele><time>2026-04-27T14:22:51.999Z</time></trkpt><trkpt lat="43.941469468934585" lon="12.59568864672793"><ele>136.6</ele><time>2026-04-27T14:22:52.999Z</time></trkpt><trkpt lat="43.94156591118244" lon="12.595715713544385"><ele>137.0</ele><time>2026-04-27T14:22:53.999Z</time></trkpt><trkpt lat="43.94166641402476" lon="12.595744298758529"><ele>136.6</ele><time>2026-04-27T14:22:54.999Z</time></trkpt><trkpt lat="43.94176533055972" lon="12.595796030727593"><ele>136.2</ele><time>2026-04-27T14:22:55.999Z</time></trkpt><trkpt lat="43.94187018962264" lon="12.59582652386309"><ele>135.8</ele><time>2026-04-27T14:22:56.999Z</time></trkpt><trkpt lat="43.94197672277894" lon="12.595857503839266"><ele>135.4</ele><time>2026-04-27T14:22:57.999Z</time></trkpt><trkpt lat="43.942086794399835" lon="12.595889724451629"><ele>135.0</ele><time>2026-04-27T14:22:58.999Z</time></trkpt><trkpt lat="43.942198199144094" lon="12.595922561526637"><ele>135.0</ele><time>2026-04-27T14:22:59.999Z</time></trkpt><trkpt lat="43.94231428775708" lon="12.59595677919199"><ele>135.0</ele><time>2026-04-27T14:23:00.999Z</time></trkpt><trkpt lat="43.94243941205598" lon="12.595995778645038"><ele>135.0</ele><time>2026-04-27T14:23:01.999Z</time></trkpt><trkpt lat="43.94257705961363" lon="12.596015675016792"><ele>135.0</ele><time>2026-04-27T14:23:02.999Z</time></trkpt><trkpt lat="43.94271876986579" lon="12.596062009290474"><ele>135.75</ele><time>2026-04-27T14:23:03.999Z</time></trkpt><trkpt lat="43.94286433824664" lon="12.596110454821766"><ele>136.5</ele><time>2026-04-27T14:23:04.999Z</time></trkpt><trkpt lat="43.94301065187195" lon="12.596156654009532"><ele>137.25</ele><time>2026-04-27T14:23:05.999Z</time></trkpt><trkpt lat="43.943148289231964" lon="12.596197324910499"><ele>138.0</ele><time>2026-04-27T14:23:06.999Z</time></trkpt><trkpt lat="43.943282818733444" lon="12.596237297330012"><ele>133.5</ele><time>2026-04-27T14:23:07.999Z</time></trkpt><trkpt lat="43.94342008624508" lon="12.596265483942608"><ele>129.0</ele><time>2026-04-27T14:23:08.999Z</time></trkpt><trkpt lat="43.94355735990544" lon="12.596268032785208"><ele>124.5</ele><time>2026-04-27T14:23:09.999Z</time></trkpt><trkpt lat="43.94368959212715" lon="12.596241374031687"><ele>120.0</ele><time>2026-04-27T14:23:10.999Z</time></trkpt><trkpt lat="43.9438115538728" lon="12.596176023278039"><ele>121.25</ele><time>2026-04-27T14:23:12Z</time></trkpt><trkpt lat="43.94393951063697" lon="12.596110764356974"><ele>122.5</ele><time>2026-04-27T14:23:13Z</time></trkpt><trkpt lat="43.94406810914204" lon="12.596022458890436"><ele>123.75</ele><time>2026-04-27T14:23:14Z</time></trkpt><trkpt lat="43.94420443573468" lon="12.59592255176414"><ele>125.0</ele><time>2026-04-27T14:23:15Z</time></trkpt><trkpt lat="43.94434471176685" lon="12.595821644626522"><ele>125.0</ele><time>2026-04-27T14:23:16Z</time></trkpt><trkpt lat="43.94448746643402" lon="12.595719709280344"><ele>125.0</ele><time>2026-04-27T14:23:17Z</time></trkpt><trkpt lat="43.94462312964609" lon="12.595622837373497"><ele>125.0</ele><time>2026-04-27T14:23:18Z</time></trkpt><trkpt lat="43.944748774417434" lon="12.595530867108453"><ele>125.0</ele><time>2026-04-27T14:23:19Z</time></trkpt><trkpt lat="43.944867662591975" lon="12.595441583077136"><ele>125.0</ele><time>2026-04-27T14:23:20Z</time></trkpt><trkpt lat="43.944985770810945" lon="12.595356576856584"><ele>125.0</ele><time>2026-04-27T14:23:21Z</time></trkpt><trkpt lat="43.94511010020415" lon="12.595272659559893"><ele>125.0</ele><time>2026-04-27T14:23:22Z</time></trkpt><trkpt lat="43.94524166032878" lon="12.595190312381877"><ele>125.25</ele><time>2026-04-27T14:23:23Z</time></trkpt><trkpt lat="43.94538791594467" lon="12.595158963491171"><ele>125.5</ele><time>2026-04-27T14:23:24Z</time></trkpt><trkpt lat="43.945531735198955" lon="12.595140519581758"><ele>125.75</ele><time>2026-04-27T14:23:25Z</time></trkpt><trkpt lat="43.945668316819734" lon="12.59513237177068"><ele>126.0</ele><time>2026-04-27T14:23:26Z</time></trkpt><trkpt lat="43.94581195319252" lon="12.595125580384165"><ele>126.66666666666666</ele><time>2026-04-27T14:23:27Z</time></trkpt><trkpt lat="43.945959752150955" lon="12.595119395143955"><ele>127.33333333333333</ele><time>2026-04-27T14:23:28Z</time></trkpt><trkpt lat="43.94611087063134" lon="12.595112606944104"><ele>128.0</ele><time>2026-04-27T14:23:29Z</time></trkpt><trkpt lat="43.946266956118954" lon="12.595103542636616"><ele>128.0</ele><time>2026-04-27T14:23:30Z</time></trkpt><trkpt lat="43.94642555502974" lon="12.595096631440178"><ele>128.0</ele><time>2026-04-27T14:23:31Z</time></trkpt><trkpt lat="43.9465855945024" lon="12.595091122690864"><ele>128.0</ele><time>2026-04-27T14:23:32Z</time></trkpt><trkpt lat="43.94674933976549" lon="12.595088465236989"><ele>128.66666666666666</ele><time>2026-04-27T14:23:33Z</time></trkpt><trkpt lat="43.946913406757275" lon="12.595085968396507"><ele>129.33333333333334</ele><time>2026-04-27T14:23:34Z</time></trkpt><trkpt lat="43.94707642888823" lon="12.595096470888658"><ele>130.0</ele><time>2026-04-27T14:23:35Z</time></trkpt><trkpt lat="43.947234570626094" lon="12.595119913703996"><ele>130.0</ele><time>2026-04-27T14:23:36Z</time></trkpt><trkpt lat="43.9473898486778" lon="12.595146046051422"><ele>130.0</ele><time>2026-04-27T14:23:37Z</time></trkpt><trkpt lat="43.947547960918826" lon="12.595169030226188"><ele>130.0</ele><time>2026-04-27T14:23:38Z</time></trkpt><trkpt lat="43.947709733752674" lon="12.595171671999088"><ele>129.33333333333334</ele><time>2026-04-27T14:23:39Z</time></trkpt><trkpt lat="43.94788267268066" lon="12.595186473380105"><ele>128.66666666666666</ele><time>2026-04-27T14:23:40Z</time></trkpt><trkpt lat="43.948063154107885" lon="12.595172709431095"><ele>128.0</ele><time>2026-04-27T14:23:41Z</time></trkpt><trkpt lat="43.94825365633332" lon="12.595135692703735"><ele>128.66666666666666</ele><time>2026-04-27T14:23:42Z</time></trkpt><trkpt lat="43.948450675900354" lon="12.595116516059948"><ele>129.33333333333334</ele><time>2026-04-27T14:23:43Z</time></trkpt><trkpt lat="43.948638100564864" lon="12.59509825458903"><ele>130.0</ele><time>2026-04-27T14:23:44Z</time></trkpt><trkpt lat="43.948819844852586" lon="12.595081836514392"><ele>130.0</ele><time>2026-04-27T14:23:45Z</time></trkpt><trkpt lat="43.948994045747995" lon="12.595064171915322"><ele>130.0</ele><time>2026-04-27T14:23:46Z</time></trkpt><trkpt lat="43.949158765305555" lon="12.595045106226175"><ele>130.0</ele><time>2026-04-27T14:23:47Z</time></trkpt><trkpt lat="43.94932147399457" lon="12.595024770895096"><ele>130.33333333333334</ele><time>2026-04-27T14:23:48Z</time></trkpt><trkpt lat="43.94948365276409" lon="12.595002721754192"><ele>130.66666666666666</ele><time>2026-04-27T14:23:49Z</time></trkpt><trkpt lat="43.9496416301845" lon="12.594976573826342"><ele>131.0</ele><time>2026-04-27T14:23:50Z</time></trkpt><trkpt lat="43.94979694608598" lon="12.594951025299784"><ele>131.0</ele><time>2026-04-27T14:23:51Z</time></trkpt><trkpt lat="43.94995611063238" lon="12.594925225524758"><ele>131.0</ele><time>2026-04-27T14:23:52Z</time></trkpt><trkpt lat="43.950112302928126" lon="12.594898890991281"><ele>131.0</ele><time>2026-04-27T14:23:53Z</time></trkpt><trkpt lat="43.950267396777875" lon="12.594875076851851"><ele>131.33333333333331</ele><time>2026-04-27T14:23:54Z</time></trkpt><trkpt lat="43.95042015969123" lon="12.59484957689064"><ele>131.66666666666666</ele><time>2026-04-27T14:23:55Z</time></trkpt><trkpt lat="43.950571477970826" lon="12.594825132744436"><ele>132.0</ele><time>2026-04-27T14:23:56Z</time></trkpt><trkpt lat="43.95072010160961" lon="12.594799432616778"><ele>132.0</ele><time>2026-04-27T14:23:57Z</time></trkpt><trkpt lat="43.95086559007242" lon="12.59477876231601"><ele>132.0</ele><time>2026-04-27T14:23:58Z</time></trkpt><trkpt lat="43.951002642155636" lon="12.594769127626172"><ele>132.0</ele><time>2026-04-27T14:23:59Z</time></trkpt><trkpt lat="43.95113371594784" lon="12.594774772298052"><ele>132.0</ele><time>2026-04-27T14:24:00Z</time></trkpt><trkpt lat="43.9512670633974" lon="12.594806420844058"><ele>132.5</ele><time>2026-04-27T14:24:01Z</time></trkpt><trkpt lat="43.95140162500796" lon="12.594856501126282"><ele>133.0</ele><time>2026-04-27T14:24:02Z</time></trkpt><trkpt lat="43.95153525025618" lon="12.594918665374882"><ele>133.5</ele><time>2026-04-27T14:24:03Z</time></trkpt><trkpt lat="43.951670183825165" lon="12.595009359097743"><ele>134.0</ele><time>2026-04-27T14:24:04Z</time></trkpt><trkpt lat="43.951803144099614" lon="12.595118135778378"><ele>134.0</ele><time>2026-04-27T14:24:05Z</time></trkpt><trkpt lat="43.951930204283414" lon="12.595244938892364"><ele>134.0</ele><time>2026-04-27T14:24:06Z</time></trkpt><trkpt lat="43.95205086698719" lon="12.595389160418573"><ele>134.0</ele><time>2026-04-27T14:24:07Z</time></trkpt><trkpt lat="43.952168294761094" lon="12.595545471907789"><ele>132.66666666666666</ele><time>2026-04-27T14:24:08Z</time></trkpt><trkpt lat="43.95228623027772" lon="12.595701761775796"><ele>131.33333333333334</ele><time>2026-04-27T14:24:09Z</time></trkpt><trkpt lat="43.9524005577203" lon="12.59585773541142"><ele>130.0</ele><time>2026-04-27T14:24:10Z</time></trkpt><trkpt lat="43.95250728442528" lon="12.596006475951757"><ele>130.5</ele><time>2026-04-27T14:24:11Z</time></trkpt><trkpt lat="43.95260705018538" lon="12.596148995287715"><ele>131.0</ele><time>2026-04-27T14:24:12Z</time></trkpt><trkpt lat="43.95269790940313" lon="12.596266129036053"><ele>131.5</ele><time>2026-04-27T14:24:13Z</time></trkpt><trkpt lat="43.952788456131984" lon="12.596360042078574"><ele>132.0</ele><time>2026-04-27T14:24:14Z</time></trkpt><trkpt lat="43.952881221275675" lon="12.596424275722615"><ele>130.0</ele><time>2026-04-27T14:24:15Z</time></trkpt><trkpt lat="43.952985785781" lon="12.596454347501371"><ele>128.0</ele><time>2026-04-27T14:24:16Z</time></trkpt><trkpt lat="43.95309963256029" lon="12.596453237855394"><ele>126.0</ele><time>2026-04-27T14:24:17Z</time></trkpt><trkpt lat="43.95322468107946" lon="12.596416199862738"><ele>124.0</ele><time>2026-04-27T14:24:18Z</time></trkpt><trkpt lat="43.953354920011485" lon="12.596382499048325"><ele>123.0</ele><time>2026-04-27T14:24:19Z</time></trkpt><trkpt lat="43.953482080392455" lon="12.596337485304538"><ele>122.0</ele><time>2026-04-27T14:24:20Z</time></trkpt><trkpt lat="43.953608926613654" lon="12.596293114922767"><ele>121.0</ele><time>2026-04-27T14:24:21Z</time></trkpt><trkpt lat="43.95374106221178" lon="12.596306081314898"><ele>120.0</ele><time>2026-04-27T14:24:21.999Z</time></trkpt><trkpt lat="43.95387495456922" lon="12.596352568804955"><ele>120.0</ele><time>2026-04-27T14:24:22.999Z</time></trkpt><trkpt lat="43.95400524991141" lon="12.596428279815688"><ele>120.0</ele><time>2026-04-27T14:24:23.999Z</time></trkpt><trkpt lat="43.954133625190096" lon="12.596513293959495"><ele>120.0</ele><time>2026-04-27T14:24:24.999Z</time></trkpt><trkpt lat="43.95427032058272" lon="12.596596280967104"><ele>120.0</ele><time>2026-04-27T14:24:25.999Z</time></trkpt><trkpt lat="43.95441228659183" lon="12.596682587742675"><ele>121.0</ele><time>2026-04-27T14:24:26.999Z</time></trkpt><trkpt lat="43.9545571264298" lon="12.596768973216358"><ele>122.0</ele><time>2026-04-27T14:24:27.999Z</time></trkpt><trkpt lat="43.95470191368327" lon="12.596858770879138"><ele>123.0</ele><time>2026-04-27T14:24:28.999Z</time></trkpt><trkpt lat="43.95485422718197" lon="12.596956179395606"><ele>120.66666666666666</ele><time>2026-04-27T14:24:29.999Z</time></trkpt><trkpt lat="43.95501327406657" lon="12.597058258873933"><ele>118.33333333333333</ele><time>2026-04-27T14:24:30.999Z</time></trkpt><trkpt lat="43.95517643942157" lon="12.597166039442133"><ele>116.0</ele><time>2026-04-27T14:24:31.999Z</time></trkpt><trkpt lat="43.95534298078972" lon="12.597277327340443"><ele>116.0</ele><time>2026-04-27T14:24:32.999Z</time></trkpt><trkpt lat="43.95551350099016" lon="12.597389126476836"><ele>116.0</ele><time>2026-04-27T14:24:33.999Z</time></trkpt><trkpt lat="43.955686603219334" lon="12.597505584329088"><ele>116.0</ele><time>2026-04-27T14:24:34.999Z</time></trkpt><trkpt lat="43.955860926221895" lon="12.597624532872482"><ele>116.0</ele><time>2026-04-27T14:24:35.999Z</time></trkpt><trkpt lat="43.95603530056259" lon="12.597745938891308"><ele>116.0</ele><time>2026-04-27T14:24:36.999Z</time></trkpt><trkpt lat="43.95620945021071" lon="12.597873338846345"><ele>116.0</ele><time>2026-04-27T14:24:37.999Z</time></trkpt><trkpt lat="43.95638053421148" lon="12.598010423206794"><ele>116.0</ele><time>2026-04-27T14:24:38.999Z</time></trkpt><trkpt lat="43.95655084241892" lon="12.598154135503153"><ele>116.0</ele><time>2026-04-27T14:24:39.999Z</time></trkpt><trkpt lat="43.95672181926648" lon="12.598299786771449"><ele>116.0</ele><time>2026-04-27T14:24:40.999Z</time></trkpt><trkpt lat="43.956893018748836" lon="12.598443422427211"><ele>115.0</ele><time>2026-04-27T14:24:41.999Z</time></trkpt><trkpt lat="43.957057003155604" lon="12.59858530260753"><ele>114.0</ele><time>2026-04-27T14:24:42.999Z</time></trkpt><trkpt lat="43.95720885596177" lon="12.598720927430382"><ele>113.0</ele><time>2026-04-27T14:24:43.999Z</time></trkpt><trkpt lat="43.957355153645565" lon="12.598849010855249"><ele>113.0</ele><time>2026-04-27T14:24:44.999Z</time></trkpt><trkpt lat="43.95749539744032" lon="12.598985483240563"><ele>113.0</ele><time>2026-04-27T14:24:45.999Z</time></trkpt><trkpt lat="43.957628488448" lon="12.599138756181967"><ele>113.0</ele><time>2026-04-27T14:24:46.999Z</time></trkpt><trkpt lat="43.95775349902419" lon="12.59930370035812"><ele>111.66666666666666</ele><time>2026-04-27T14:24:47.999Z</time></trkpt><trkpt lat="43.9578621617644" lon="12.599486714811523"><ele>110.33333333333334</ele><time>2026-04-27T14:24:48.999Z</time></trkpt><trkpt lat="43.95795745590054" lon="12.599684971017297"><ele>109.0</ele><time>2026-04-27T14:24:49.999Z</time></trkpt><trkpt lat="43.95804470725069" lon="12.5998980499019"><ele>109.0</ele><time>2026-04-27T14:24:50.999Z</time></trkpt><trkpt lat="43.9581267382226" lon="12.600119736970932"><ele>109.0</ele><time>2026-04-27T14:24:51.999Z</time></trkpt><trkpt lat="43.95821139050969" lon="12.600346747291043"><ele>109.0</ele><time>2026-04-27T14:24:52.999Z</time></trkpt><trkpt lat="43.95829591687755" lon="12.600568732023358"><ele>110.33333333333334</ele><time>2026-04-27T14:24:53.999Z</time></trkpt><trkpt lat="43.95837332971102" lon="12.600779964915592"><ele>111.66666666666666</ele><time>2026-04-27T14:24:54.999Z</time></trkpt><trkpt lat="43.958446745323876" lon="12.600981589783183"><ele>113.0</ele><time>2026-04-27T14:24:55.999Z</time></trkpt><trkpt lat="43.958514867518694" lon="12.601178418238632"><ele>114.33333333333333</ele><time>2026-04-27T14:24:56.999Z</time></trkpt><trkpt lat="43.95857566034208" lon="12.60138279601149"><ele>115.66666666666666</ele><time>2026-04-27T14:24:57.999Z</time></trkpt><trkpt lat="43.958617454697816" lon="12.601592188284073"><ele>117.0</ele><time>2026-04-27T14:24:58.999Z</time></trkpt><trkpt lat="43.95863773656089" lon="12.601808486669627"><ele>116.66666666666666</ele><time>2026-04-27T14:24:59.999Z</time></trkpt><trkpt lat="43.95864851254914" lon="12.602037223349493"><ele>116.33333333333333</ele><time>2026-04-27T14:25:00.999Z</time></trkpt><trkpt lat="43.95865852420577" lon="12.602275301095649"><ele>116.0</ele><time>2026-04-27T14:25:01.999Z</time></trkpt><trkpt lat="43.95866989119953" lon="12.6025100477856"><ele>116.0</ele><time>2026-04-27T14:25:02.999Z</time></trkpt><trkpt lat="43.958681487952084" lon="12.602733905866513"><ele>116.0</ele><time>2026-04-27T14:25:03.999Z</time></trkpt><trkpt lat="43.958693077228894" lon="12.602949036175662"><ele>116.0</ele><time>2026-04-27T14:25:04.999Z</time></trkpt><trkpt lat="43.958704092894" lon="12.603156547468375"><ele>114.0</ele><time>2026-04-27T14:25:05.999Z</time></trkpt><trkpt lat="43.95871738862852" lon="12.603346801067495"><ele>112.0</ele><time>2026-04-27T14:25:06.999Z</time></trkpt><trkpt lat="43.95873471080535" lon="12.6035192264811"><ele>110.0</ele><time>2026-04-27T14:25:07.999Z</time></trkpt><trkpt lat="43.95876532380892" lon="12.603677651681162"><ele>108.0</ele><time>2026-04-27T14:25:08.999Z</time></trkpt><trkpt lat="43.958819382469315" lon="12.603816351307518"><ele>106.25</ele><time>2026-04-27T14:25:09.999Z</time></trkpt><trkpt lat="43.95889572429886" lon="12.603926470250379"><ele>104.5</ele><time>2026-04-27T14:25:10.999Z</time></trkpt><trkpt lat="43.95899563888068" lon="12.604010077016715"><ele>102.75</ele><time>2026-04-27T14:25:11.999Z</time></trkpt><trkpt lat="43.95911386489026" lon="12.604067068291933"><ele>101.0</ele><time>2026-04-27T14:25:12.999Z</time></trkpt><trkpt lat="43.959246425080416" lon="12.604096684539275"><ele>101.0</ele><time>2026-04-27T14:25:13.999Z</time></trkpt><trkpt lat="43.95938611799815" lon="12.604104428102106"><ele>101.0</ele><time>2026-04-27T14:25:14.999Z</time></trkpt><trkpt lat="43.95952059845884" lon="12.6041037458203"><ele>101.0</ele><time>2026-04-27T14:25:15.999Z</time></trkpt><trkpt lat="43.959650151020284" lon="12.604088830063077"><ele>101.0</ele><time>2026-04-27T14:25:16.999Z</time></trkpt><trkpt lat="43.95977006602337" lon="12.604087323057064"><ele>100.99999999999999</ele><time>2026-04-27T14:25:18Z</time></trkpt><trkpt lat="43.9598709912212" lon="12.604021567417355"><ele>101.0</ele><time>2026-04-27T14:25:19Z</time></trkpt><trkpt lat="43.959949067593534" lon="12.603990008016089"><ele>101.0</ele><time>2026-04-27T14:25:20Z</time></trkpt><trkpt lat="43.96001616493083" lon="12.603986782122998"><ele>101.0</ele><time>2026-04-27T14:25:21Z</time></trkpt><trkpt lat="43.960080177417474" lon="12.604006252383781"><ele>100.99999999999999</ele><time>2026-04-27T14:25:22Z</time></trkpt><trkpt lat="43.96015768331636" lon="12.604039421493269"><ele>101.0</ele><time>2026-04-27T14:25:23Z</time></trkpt><trkpt lat="43.960245346258674" lon="12.604052781522192"><ele>100.75</ele><time>2026-04-27T14:25:24Z</time></trkpt><trkpt lat="43.96034698790795" lon="12.604041485124922"><ele>100.5</ele><time>2026-04-27T14:25:25Z</time></trkpt><trkpt lat="43.96045674678391" lon="12.604021086032606"><ele>100.25</ele><time>2026-04-27T14:25:26Z</time></trkpt><trkpt lat="43.96057414149995" lon="12.603996888665618"><ele>100.0</ele><time>2026-04-27T14:25:27Z</time></trkpt><trkpt lat="43.96069347880324" lon="12.603972463748502"><ele>100.0</ele><time>2026-04-27T14:25:28Z</time></trkpt><trkpt lat="43.96081310333246" lon="12.603950651981624"><ele>100.0</ele><time>2026-04-27T14:25:29Z</time></trkpt><trkpt lat="43.96093121760913" lon="12.603960981535305"><ele>100.0</ele><time>2026-04-27T14:25:30Z</time></trkpt><trkpt lat="43.96104579110618" lon="12.603929749147387"><ele>100.0</ele><time>2026-04-27T14:25:31Z</time></trkpt><trkpt lat="43.96116111991037" lon="12.603917868603343"><ele>99.5</ele><time>2026-04-27T14:25:32Z</time></trkpt><trkpt lat="43.96128159466694" lon="12.603925465987675"><ele>99.0</ele><time>2026-04-27T14:25:33Z</time></trkpt><trkpt lat="43.961400509474565" lon="12.603891637323358"><ele>98.5</ele><time>2026-04-27T14:25:34Z</time></trkpt><trkpt lat="43.96151893581434" lon="12.60390293538102"><ele>98.0</ele><time>2026-04-27T14:25:35Z</time></trkpt><trkpt lat="43.96163255674904" lon="12.603892149431948"><ele>97.60000000000001</ele><time>2026-04-27T14:25:36Z</time></trkpt><trkpt lat="43.96174322605732" lon="12.603882314480723"><ele>97.2</ele><time>2026-04-27T14:25:37Z</time></trkpt><trkpt lat="43.961850704693234" lon="12.603873796881418"><ele>96.8</ele><time>2026-04-27T14:25:38Z</time></trkpt><trkpt lat="43.96195662786162" lon="12.603843372912394"><ele>96.4</ele><time>2026-04-27T14:25:39Z</time></trkpt><trkpt lat="43.96206491475718" lon="12.603848243693035"><ele>96.0</ele><time>2026-04-27T14:25:40Z</time></trkpt><trkpt lat="43.96217300993111" lon="12.60385703049044"><ele>96.0</ele><time>2026-04-27T14:25:41Z</time></trkpt><trkpt lat="43.96228267154578" lon="12.603876596419624"><ele>96.0</ele><time>2026-04-27T14:25:42Z</time></trkpt><trkpt lat="43.96239217727437" lon="12.603906809184341"><ele>96.0</ele><time>2026-04-27T14:25:43Z</time></trkpt><trkpt lat="43.96249973696704" lon="12.603942227765156"><ele>96.0</ele><time>2026-04-27T14:25:44Z</time></trkpt><trkpt lat="43.96261106507594" lon="12.603978616235551"><ele>96.0</ele><time>2026-04-27T14:25:45Z</time></trkpt><trkpt lat="43.962723708614085" lon="12.604017308988432"><ele>95.5</ele><time>2026-04-27T14:25:46Z</time></trkpt><trkpt lat="43.96283907344475" lon="12.604057131717859"><ele>95.0</ele><time>2026-04-27T14:25:47Z</time></trkpt><trkpt lat="43.962956335946046" lon="12.604093350932839"><ele>94.5</ele><time>2026-04-27T14:25:48Z</time></trkpt><trkpt lat="43.96307432946071" lon="12.6041294153062"><ele>94.0</ele><time>2026-04-27T14:25:49Z</time></trkpt><trkpt lat="43.963191661029654" lon="12.604166614197723"><ele>94.0</ele><time>2026-04-27T14:25:50Z</time></trkpt><trkpt lat="43.96330252338375" lon="12.604202416160163"><ele>94.0</ele><time>2026-04-27T14:25:51Z</time></trkpt><trkpt lat="43.963409822085545" lon="12.604235435644892"><ele>94.0</ele><time>2026-04-27T14:25:52Z</time></trkpt><trkpt lat="43.96351517392762" lon="12.604264747935959"><ele>94.0</ele><time>2026-04-27T14:25:53Z</time></trkpt><trkpt lat="43.963622716496445" lon="12.604292529004455"><ele>94.0</ele><time>2026-04-27T14:25:54Z</time></trkpt><trkpt lat="43.96372933097881" lon="12.60431439693841"><ele>93.6</ele><time>2026-04-27T14:25:55Z</time></trkpt><trkpt lat="43.96383724191668" lon="12.60432017233177"><ele>93.2</ele><time>2026-04-27T14:25:56Z</time></trkpt><trkpt lat="43.96394665504026" lon="12.604340354453623"><ele>92.8</ele><time>2026-04-27T14:25:57Z</time></trkpt><trkpt lat="43.964058463664806" lon="12.604328200210599"><ele>92.39999999999999</ele><time>2026-04-27T14:25:58Z</time></trkpt><trkpt lat="43.96417130063554" lon="12.60428777541952"><ele>92.0</ele><time>2026-04-27T14:25:59Z</time></trkpt><trkpt lat="43.964287654189924" lon="12.604268221983515"><ele>90.0</ele><time>2026-04-27T14:26:00Z</time></trkpt><trkpt lat="43.96440896097101" lon="12.604244802946633"><ele>88.0</ele><time>2026-04-27T14:26:01Z</time></trkpt><trkpt lat="43.964534254148326" lon="12.604216994873152"><ele>86.0</ele><time>2026-04-27T14:26:02Z</time></trkpt><trkpt lat="43.96466326418893" lon="12.604188169625251"><ele>84.0</ele><time>2026-04-27T14:26:03Z</time></trkpt><trkpt lat="43.964792614621665" lon="12.604159330842457"><ele>84.0</ele><time>2026-04-27T14:26:04Z</time></trkpt><trkpt lat="43.96491970025359" lon="12.604129597290822"><ele>84.0</ele><time>2026-04-27T14:26:05Z</time></trkpt><trkpt lat="43.965049119745274" lon="12.604100295802837"><ele>84.0</ele><time>2026-04-27T14:26:06Z</time></trkpt><trkpt lat="43.96518324984861" lon="12.60406919363659"><ele>84.0</ele><time>2026-04-27T14:26:07Z</time></trkpt><trkpt lat="43.965318862375426" lon="12.604041513854186"><ele>81.75</ele><time>2026-04-27T14:26:08Z</time></trkpt><trkpt lat="43.96545594510471" lon="12.604006522961944"><ele>79.5</ele><time>2026-04-27T14:26:09Z</time></trkpt><trkpt lat="43.96559124761621" lon="12.603964104560747"><ele>77.25</ele><time>2026-04-27T14:26:10Z</time></trkpt><trkpt lat="43.965725201427674" lon="12.603913370540495"><ele>75.0</ele><time>2026-04-27T14:26:11Z</time></trkpt><trkpt lat="43.96585942050052" lon="12.603855408900895"><ele>75.75</ele><time>2026-04-27T14:26:12Z</time></trkpt><trkpt lat="43.9659876747727" lon="12.603787355871036"><ele>76.5</ele><time>2026-04-27T14:26:13Z</time></trkpt><trkpt lat="43.96611006923453" lon="12.603712655986627"><ele>77.25</ele><time>2026-04-27T14:26:14Z</time></trkpt><trkpt lat="43.96622641226389" lon="12.603632703319143"><ele>78.0</ele><time>2026-04-27T14:26:15Z</time></trkpt><trkpt lat="43.966338743424245" lon="12.603550907984639"><ele>78.0</ele><time>2026-04-27T14:26:16Z</time></trkpt><trkpt lat="43.966443883952195" lon="12.603464226083727"><ele>78.0</ele><time>2026-04-27T14:26:17Z</time></trkpt><trkpt lat="43.966543005770106" lon="12.603377180338567"><ele>78.0</ele><time>2026-04-27T14:26:18Z</time></trkpt><trkpt lat="43.966645833675045" lon="12.603283178767835"><ele>78.0</ele><time>2026-04-27T14:26:19Z</time></trkpt><trkpt lat="43.966749631599896" lon="12.603185903722515"><ele>78.5</ele><time>2026-04-27T14:26:20Z</time></trkpt><trkpt lat="43.96685414358876" lon="12.603084518796232"><ele>79.0</ele><time>2026-04-27T14:26:20.999Z</time></trkpt><trkpt lat="43.96695829550252" lon="12.602983776127475"><ele>79.5</ele><time>2026-04-27T14:26:21.999Z</time></trkpt><trkpt lat="43.96706300384646" lon="12.602884965345849"><ele>80.0</ele><time>2026-04-27T14:26:22.999Z</time></trkpt><trkpt lat="43.96716706802197" lon="12.602787105986167"><ele>80.0</ele><time>2026-04-27T14:26:23.999Z</time></trkpt><trkpt lat="43.967270863718404" lon="12.602687502206056"><ele>80.0</ele><time>2026-04-27T14:26:24.999Z</time></trkpt><trkpt lat="43.967376083530596" lon="12.60259041303959"><ele>80.0</ele><time>2026-04-27T14:26:25.999Z</time></trkpt><trkpt lat="43.96748106558376" lon="12.602495427741713"><ele>80.0</ele><time>2026-04-27T14:26:26.999Z</time></trkpt><trkpt lat="43.96758976111569" lon="12.602398244159383"><ele>80.25</ele><time>2026-04-27T14:26:27.999Z</time></trkpt><trkpt lat="43.96770490475919" lon="12.602307688399264"><ele>80.5</ele><time>2026-04-27T14:26:28.999Z</time></trkpt><trkpt lat="43.96782372769658" lon="12.60222875528512"><ele>80.75</ele><time>2026-04-27T14:26:29.999Z</time></trkpt><trkpt lat="43.96793899483332" lon="12.602158930994301"><ele>81.0</ele><time>2026-04-27T14:26:30.999Z</time></trkpt><trkpt lat="43.96804200937186" lon="12.602107457124331"><ele>81.0</ele><time>2026-04-27T14:26:31.999Z</time></trkpt><trkpt lat="43.96813325028542" lon="12.602071309739792"><ele>81.0</ele><time>2026-04-27T14:26:32.999Z</time></trkpt><trkpt lat="43.96821375671027" lon="12.602042910958277"><ele>81.0</ele><time>2026-04-27T14:26:33.999Z</time></trkpt><trkpt lat="43.96828257642806" lon="12.602020097993863"><ele>81.0</ele><time>2026-04-27T14:26:34.999Z</time></trkpt><trkpt lat="43.968394474635645" lon="12.602000023073943"><ele>81.0</ele><time>2026-04-27T14:26:36.999Z</time></trkpt><trkpt lat="43.9685042431574" lon="12.602029631710685"><ele>81.33333333333333</ele><time>2026-04-27T14:26:38.999Z</time></trkpt><trkpt lat="43.96857236143386" lon="12.602019294527844"><ele>81.66666666666667</ele><time>2026-04-27T14:26:39.999Z</time></trkpt><trkpt lat="43.96864467993701" lon="12.601982951148907"><ele>82.0</ele><time>2026-04-27T14:26:40.999Z</time></trkpt><trkpt lat="43.968729875114555" lon="12.601954658828086"><ele>82.33333333333334</ele><time>2026-04-27T14:26:41.999Z</time></trkpt><trkpt lat="43.968820960407584" lon="12.601935098703622"><ele>82.66666666666667</ele><time>2026-04-27T14:26:42.999Z</time></trkpt><trkpt lat="43.9689085076319" lon="12.60192213697013"><ele>83.0</ele><time>2026-04-27T14:26:43.999Z</time></trkpt><trkpt lat="43.968996349748025" lon="12.60191558950486"><ele>83.2</ele><time>2026-04-27T14:26:44.999Z</time></trkpt><trkpt lat="43.96908643343628" lon="12.601911646105375"><ele>83.4</ele><time>2026-04-27T14:26:45.999Z</time></trkpt><trkpt lat="43.96918443914718" lon="12.601915647567369"><ele>83.60000000000001</ele><time>2026-04-27T14:26:46.999Z</time></trkpt><trkpt lat="43.96929120227607" lon="12.601920111989408"><ele>83.80000000000001</ele><time>2026-04-27T14:26:47.999Z</time></trkpt><trkpt lat="43.9693990941336" lon="12.601923100088982"><ele>84.0</ele><time>2026-04-27T14:26:48.999Z</time></trkpt><trkpt lat="43.96950703549422" lon="12.601926017591776"><ele>82.8</ele><time>2026-04-27T14:26:49.999Z</time></trkpt><trkpt lat="43.969614470830955" lon="12.601928108451782"><ele>81.60000000000001</ele><time>2026-04-27T14:26:50.999Z</time></trkpt><trkpt lat="43.969720611015774" lon="12.60193175194691"><ele>80.4</ele><time>2026-04-27T14:26:51.999Z</time></trkpt><trkpt lat="43.96983511854166" lon="12.601934086237208"><ele>79.2</ele><time>2026-04-27T14:26:52.999Z</time></trkpt><trkpt lat="43.9699469881913" lon="12.601937372561874"><ele>78.0</ele><time>2026-04-27T14:26:53.999Z</time></trkpt><trkpt lat="43.970065283582585" lon="12.601941734898245"><ele>76.5</ele><time>2026-04-27T14:26:54.999Z</time></trkpt><trkpt lat="43.970181387969625" lon="12.601949455985562"><ele>75.0</ele><time>2026-04-27T14:26:55.999Z</time></trkpt><trkpt lat="43.97029823038068" lon="12.601954372138033"><ele>73.5</ele><time>2026-04-27T14:26:56.999Z</time></trkpt><trkpt lat="43.970413987603635" lon="12.601964263316471"><ele>72.0</ele><time>2026-04-27T14:26:57.999Z</time></trkpt><trkpt lat="43.970531153947135" lon="12.601978542175054"><ele>72.0</ele><time>2026-04-27T14:26:58.999Z</time></trkpt><trkpt lat="43.97064994854528" lon="12.60199319602987"><ele>72.0</ele><time>2026-04-27T14:26:59.999Z</time></trkpt><trkpt lat="43.97076791375862" lon="12.602022784475686"><ele>72.0</ele><time>2026-04-27T14:27:00.999Z</time></trkpt><trkpt lat="43.97088090691204" lon="12.602061395008267"><ele>72.0</ele><time>2026-04-27T14:27:01.999Z</time></trkpt><trkpt lat="43.970990304375974" lon="12.602110438070321"><ele>71.2</ele><time>2026-04-27T14:27:02.999Z</time></trkpt><trkpt lat="43.97109202911045" lon="12.602164203957074"><ele>70.4</ele><time>2026-04-27T14:27:03.999Z</time></trkpt><trkpt lat="43.97118577390518" lon="12.602224791029572"><ele>69.6</ele><time>2026-04-27T14:27:04.999Z</time></trkpt><trkpt lat="43.97127214525019" lon="12.602305700693517"><ele>68.8</ele><time>2026-04-27T14:27:05.999Z</time></trkpt><trkpt lat="43.97135442894089" lon="12.60239490349592"><ele>68.0</ele><time>2026-04-27T14:27:06.999Z</time></trkpt><trkpt lat="43.97143799347236" lon="12.602478974447493"><ele>68.0</ele><time>2026-04-27T14:27:07.999Z</time></trkpt><trkpt lat="43.97151598806461" lon="12.602595446874176"><ele>68.0</ele><time>2026-04-27T14:27:08.999Z</time></trkpt><trkpt lat="43.971577081412555" lon="12.602695284510537"><ele>68.0</ele><time>2026-04-27T14:27:09.999Z</time></trkpt><trkpt lat="43.97161843810544" lon="12.602797765322084"><ele>68.0</ele><time>2026-04-27T14:27:10.999Z</time></trkpt><trkpt lat="43.9716400459515" lon="12.60288304902722"><ele>68.0</ele><time>2026-04-27T14:27:11.999Z</time></trkpt><trkpt lat="43.97163659369433" lon="12.602999934693283"><ele>68.0</ele><time>2026-04-27T14:27:14.999Z</time></trkpt><trkpt lat="43.9716392435617" lon="12.603135837043942"><ele>67.5</ele><time>2026-04-27T14:27:16.999Z</time></trkpt><trkpt lat="43.97174768386573" lon="12.603244917641064"><ele>67.0</ele><time>2026-04-27T14:27:18.999Z</time></trkpt><trkpt lat="43.97180449907789" lon="12.603336069211238"><ele>66.5</ele><time>2026-04-27T14:27:19.999Z</time></trkpt><trkpt lat="43.97185451295639" lon="12.603466966738308"><ele>66.0</ele><time>2026-04-27T14:27:20.999Z</time></trkpt><trkpt lat="43.971907021284245" lon="12.603623716471041"><ele>65.75</ele><time>2026-04-27T14:27:21.999Z</time></trkpt><trkpt lat="43.97196324123973" lon="12.603791136146151"><ele>65.5</ele><time>2026-04-27T14:27:22.999Z</time></trkpt><trkpt lat="43.97202182037971" lon="12.603965415973382"><ele>65.25</ele><time>2026-04-27T14:27:24Z</time></trkpt><trkpt lat="43.97207427918402" lon="12.604130559484087"><ele>65.0</ele><time>2026-04-27T14:27:25Z</time></trkpt><trkpt lat="43.97212241457223" lon="12.604283396275903"><ele>65.0</ele><time>2026-04-27T14:27:26Z</time></trkpt><trkpt lat="43.97216756590248" lon="12.604426598481655"><ele>65.0</ele><time>2026-04-27T14:27:27Z</time></trkpt><trkpt lat="43.97221531789153" lon="12.60455314206784"><ele>65.0</ele><time>2026-04-27T14:27:28Z</time></trkpt><trkpt lat="43.972268006092335" lon="12.604674096746479"><ele>65.0</ele><time>2026-04-27T14:27:29Z</time></trkpt><trkpt lat="43.97233662679421" lon="12.604789048416542"><ele>65.0</ele><time>2026-04-27T14:27:30Z</time></trkpt><trkpt lat="43.972432005905404" lon="12.604879165258287"><ele>62.25</ele><time>2026-04-27T14:27:31Z</time></trkpt><trkpt lat="43.97253358663101" lon="12.60492771751403"><ele>59.5</ele><time>2026-04-27T14:27:32Z</time></trkpt><trkpt lat="43.972647569184744" lon="12.604921948884328"><ele>56.75</ele><time>2026-04-27T14:27:33Z</time></trkpt><trkpt lat="43.972758621215895" lon="12.604877338804748"><ele>54.0</ele><time>2026-04-27T14:27:34Z</time></trkpt><trkpt lat="43.972863823079756" lon="12.604780694197768"><ele>54.0</ele><time>2026-04-27T14:27:35Z</time></trkpt><trkpt lat="43.972959345909025" lon="12.60464723931106"><ele>54.0</ele><time>2026-04-27T14:27:36Z</time></trkpt><trkpt lat="43.973048491718735" lon="12.604500074203413"><ele>54.0</ele><time>2026-04-27T14:27:37Z</time></trkpt><trkpt lat="43.973151446871306" lon="12.604372254289226"><ele>54.0</ele><time>2026-04-27T14:27:38Z</time></trkpt><trkpt lat="43.97322543756072" lon="12.60421787067177"><ele>53.75</ele><time>2026-04-27T14:27:39Z</time></trkpt><trkpt lat="43.973325496772595" lon="12.604099433798027"><ele>53.5</ele><time>2026-04-27T14:27:40Z</time></trkpt><trkpt lat="43.973439129374476" lon="12.604005028578186"><ele>53.25</ele><time>2026-04-27T14:27:41Z</time></trkpt><trkpt lat="43.973565263423886" lon="12.603940333165783"><ele>53.0</ele><time>2026-04-27T14:27:42Z</time></trkpt><trkpt lat="43.97370047114115" lon="12.603934924300031"><ele>53.0</ele><time>2026-04-27T14:27:43Z</time></trkpt><trkpt lat="43.97383545212832" lon="12.603916408509132"><ele>53.0</ele><time>2026-04-27T14:27:44Z</time></trkpt><trkpt lat="43.973977344110814" lon="12.603925049351174"><ele>53.0</ele><time>2026-04-27T14:27:45Z</time></trkpt><trkpt lat="43.97411550662048" lon="12.603937594904922"><ele>53.0</ele><time>2026-04-27T14:27:46Z</time></trkpt><trkpt lat="43.97424398248216" lon="12.60394681522213"><ele>52.8</ele><time>2026-04-27T14:27:47Z</time></trkpt><trkpt lat="43.97436248071499" lon="12.603954146037996"><ele>52.599999999999994</ele><time>2026-04-27T14:27:48Z</time></trkpt><trkpt lat="43.9744673474664" lon="12.603937880841908"><ele>52.400000000000006</ele><time>2026-04-27T14:27:49Z</time></trkpt><trkpt lat="43.97455119202924" lon="12.603943554363093"><ele>52.2</ele><time>2026-04-27T14:27:50Z</time></trkpt><trkpt lat="43.97466367918241" lon="12.603989795991776"><ele>52.0</ele><time>2026-04-27T14:27:52Z</time></trkpt><trkpt lat="43.97473017826294" lon="12.60403885532962"><ele>52.0</ele><time>2026-04-27T14:27:53Z</time></trkpt><trkpt lat="43.97480957939528" lon="12.604055632029194"><ele>52.0</ele><time>2026-04-27T14:27:54Z</time></trkpt><trkpt lat="43.974903559025485" lon="12.604030687495333"><ele>52.0</ele><time>2026-04-27T14:27:55Z</time></trkpt><trkpt lat="43.97501996893029" lon="12.603986098709989"><ele>52.0</ele><time>2026-04-27T14:27:56Z</time></trkpt><trkpt lat="43.97515949578189" lon="12.603970007274002"><ele>52.0</ele><time>2026-04-27T14:27:57Z</time></trkpt><trkpt lat="43.97532366637273" lon="12.604001499612547"><ele>52.0</ele><time>2026-04-27T14:27:58Z</time></trkpt><trkpt lat="43.97550701127727" lon="12.603991372371336"><ele>52.0</ele><time>2026-04-27T14:27:59Z</time></trkpt><trkpt lat="43.975695297549116" lon="12.604002866800798"><ele>52.0</ele><time>2026-04-27T14:28:00Z</time></trkpt><trkpt lat="43.97588848727215" lon="12.604013572022971"><ele>52.0</ele><time>2026-04-27T14:28:01Z</time></trkpt><trkpt lat="43.976091221988646" lon="12.604026011298712"><ele>52.0</ele><time>2026-04-27T14:28:02Z</time></trkpt><trkpt lat="43.976298471120785" lon="12.604036614007388"><ele>52.0</ele><time>2026-04-27T14:28:03Z</time></trkpt><trkpt lat="43.97650749020678" lon="12.604046770815946"><ele>52.33333333333333</ele><time>2026-04-27T14:28:04Z</time></trkpt><trkpt lat="43.976716232741744" lon="12.604056849395002"><ele>52.66666666666667</ele><time>2026-04-27T14:28:05Z</time></trkpt><trkpt lat="43.976924968480716" lon="12.604063863156423"><ele>53.0</ele><time>2026-04-27T14:28:06Z</time></trkpt><trkpt lat="43.97713368952773" lon="12.60407228530795"><ele>53.0</ele><time>2026-04-27T14:28:07Z</time></trkpt><trkpt lat="43.97734176031535" lon="12.604081656825327"><ele>53.0</ele><time>2026-04-27T14:28:08Z</time></trkpt><trkpt lat="43.97754145513896" lon="12.604089868367712"><ele>53.0</ele><time>2026-04-27T14:28:09Z</time></trkpt><trkpt lat="43.97773705763877" lon="12.604097517825094"><ele>51.66666666666667</ele><time>2026-04-27T14:28:10Z</time></trkpt><trkpt lat="43.977927937069595" lon="12.604105456690188"><ele>50.33333333333333</ele><time>2026-04-27T14:28:11Z</time></trkpt><trkpt lat="43.97811446057672" lon="12.604112453375775"><ele>49.0</ele><time>2026-04-27T14:28:12Z</time></trkpt><trkpt lat="43.97829790300439" lon="12.604121028491138"><ele>49.0</ele><time>2026-04-27T14:28:13Z</time></trkpt><trkpt lat="43.97847940268677" lon="12.604126563145776"><ele>49.0</ele><time>2026-04-27T14:28:14Z</time></trkpt><trkpt lat="43.97865681656811" lon="12.604155469942082"><ele>49.0</ele><time>2026-04-27T14:28:15Z</time></trkpt><trkpt lat="43.978834218627775" lon="12.604165067522748"><ele>49.0</ele><time>2026-04-27T14:28:15.999Z</time></trkpt><trkpt lat="43.97900867636043" lon="12.60415852475235"><ele>49.0</ele><time>2026-04-27T14:28:16.999Z</time></trkpt><trkpt lat="43.979181911124506" lon="12.60419051693027"><ele>49.0</ele><time>2026-04-27T14:28:17.999Z</time></trkpt><trkpt lat="43.979347280998105" lon="12.604249043107028"><ele>49.33333333333333</ele><time>2026-04-27T14:28:18.999Z</time></trkpt><trkpt lat="43.97949890123331" lon="12.604342226658984"><ele>49.66666666666667</ele><time>2026-04-27T14:28:19.999Z</time></trkpt><trkpt lat="43.979637457382196" lon="12.6044686843518"><ele>50.0</ele><time>2026-04-27T14:28:20.999Z</time></trkpt><trkpt lat="43.979774146071335" lon="12.604607771368595"><ele>49.333333333333336</ele><time>2026-04-27T14:28:21.999Z</time></trkpt><trkpt lat="43.97990876858036" lon="12.604750044176763"><ele>48.66666666666667</ele><time>2026-04-27T14:28:22.999Z</time></trkpt><trkpt lat="43.980050082113586" lon="12.604878655826155"><ele>48.0</ele><time>2026-04-27T14:28:23.999Z</time></trkpt><trkpt lat="43.98019613279833" lon="12.604993118028636"><ele>47.333333333333336</ele><time>2026-04-27T14:28:24.999Z</time></trkpt><trkpt lat="43.98034971832273" lon="12.605095410620995"><ele>46.66666666666667</ele><time>2026-04-27T14:28:25.999Z</time></trkpt><trkpt lat="43.98050657877051" lon="12.605185205907052"><ele>46.0</ele><time>2026-04-27T14:28:26.999Z</time></trkpt><trkpt lat="43.98066611820327" lon="12.605257765470022"><ele>46.0</ele><time>2026-04-27T14:28:27.999Z</time></trkpt><trkpt lat="43.9808306897066" lon="12.605312112732978"><ele>46.0</ele><time>2026-04-27T14:28:28.999Z</time></trkpt><trkpt lat="43.98099500931414" lon="12.605368103492488"><ele>46.0</ele><time>2026-04-27T14:28:29.999Z</time></trkpt><trkpt lat="43.98116202763547" lon="12.605431985133952"><ele>45.66666666666667</ele><time>2026-04-27T14:28:30.999Z</time></trkpt><trkpt lat="43.98132802327927" lon="12.605496347647962"><ele>45.333333333333336</ele><time>2026-04-27T14:28:31.999Z</time></trkpt><trkpt lat="43.98149488196388" lon="12.605560635575005"><ele>45.0</ele><time>2026-04-27T14:28:32.999Z</time></trkpt><trkpt lat="43.98166373182685" lon="12.605625803396512"><ele>46.33333333333333</ele><time>2026-04-27T14:28:33.999Z</time></trkpt><trkpt lat="43.98183097273771" lon="12.605692681412885"><ele>47.666666666666664</ele><time>2026-04-27T14:28:34.999Z</time></trkpt><trkpt lat="43.9819988106198" lon="12.605760436438265"><ele>49.0</ele><time>2026-04-27T14:28:35.999Z</time></trkpt><trkpt lat="43.98216494831631" lon="12.605823918860358"><ele>49.0</ele><time>2026-04-27T14:28:36.999Z</time></trkpt><trkpt lat="43.98233034786778" lon="12.60588402002844"><ele>49.0</ele><time>2026-04-27T14:28:37.999Z</time></trkpt><trkpt lat="43.98249081967102" lon="12.605945915584012"><ele>49.0</ele><time>2026-04-27T14:28:38.999Z</time></trkpt><trkpt lat="43.98264637472732" lon="12.60600506423413"><ele>48.75</ele><time>2026-04-27T14:28:39.999Z</time></trkpt><trkpt lat="43.982792388787296" lon="12.606060492591979"><ele>48.5</ele><time>2026-04-27T14:28:40.999Z</time></trkpt><trkpt lat="43.98293146399492" lon="12.606109588070794"><ele>48.25</ele><time>2026-04-27T14:28:41.999Z</time></trkpt><trkpt lat="43.983066556156494" lon="12.606148363403559"><ele>48.0</ele><time>2026-04-27T14:28:42.999Z</time></trkpt><trkpt lat="43.98319753207845" lon="12.60616543524927"><ele>47.5</ele><time>2026-04-27T14:28:43.999Z</time></trkpt><trkpt lat="43.983327660313456" lon="12.606145511758898"><ele>47.0</ele><time>2026-04-27T14:28:44.999Z</time></trkpt><trkpt lat="43.98345895094976" lon="12.606086449241367"><ele>46.5</ele><time>2026-04-27T14:28:45.999Z</time></trkpt><trkpt lat="43.983587388643" lon="12.60599118386722"><ele>46.0</ele><time>2026-04-27T14:28:46.999Z</time></trkpt><trkpt lat="43.98371248521895" lon="12.605870062174374"><ele>45.66666666666667</ele><time>2026-04-27T14:28:47.999Z</time></trkpt><trkpt lat="43.9838389701154" lon="12.605753609206705"><ele>45.333333333333336</ele><time>2026-04-27T14:28:48.999Z</time></trkpt><trkpt lat="43.98397492430417" lon="12.605646081752251"><ele>45.0</ele><time>2026-04-27T14:28:49.999Z</time></trkpt><trkpt lat="43.98411593540203" lon="12.605560672710805"><ele>44.0</ele><time>2026-04-27T14:28:50.999Z</time></trkpt><trkpt lat="43.984260862743525" lon="12.605497742257986"><ele>43.0</ele><time>2026-04-27T14:28:51.999Z</time></trkpt><trkpt lat="43.98441167131833" lon="12.605470980193466"><ele>42.0</ele><time>2026-04-27T14:28:52.999Z</time></trkpt><trkpt lat="43.98456422479936" lon="12.605468905365301"><ele>42.0</ele><time>2026-04-27T14:28:53.999Z</time></trkpt><trkpt lat="43.984718072789406" lon="12.605494352574404"><ele>42.0</ele><time>2026-04-27T14:28:54.999Z</time></trkpt><trkpt lat="43.98486782372537" lon="12.60552241184109"><ele>42.0</ele><time>2026-04-27T14:28:55.999Z</time></trkpt><trkpt lat="43.98501794840712" lon="12.60555071993388"><ele>40.333333333333336</ele><time>2026-04-27T14:28:56.999Z</time></trkpt><trkpt lat="43.98516808529643" lon="12.60557809929622"><ele>38.66666666666667</ele><time>2026-04-27T14:28:57.999Z</time></trkpt><trkpt lat="43.985317624113165" lon="12.60560834000289"><ele>37.0</ele><time>2026-04-27T14:28:58.999Z</time></trkpt><trkpt lat="43.98546628624232" lon="12.605640952416511"><ele>37.0</ele><time>2026-04-27T14:28:59.999Z</time></trkpt><trkpt lat="43.98561328036812" lon="12.605681442322501"><ele>37.0</ele><time>2026-04-27T14:29:00.999Z</time></trkpt><trkpt lat="43.98575702155999" lon="12.605736520091218"><ele>37.0</ele><time>2026-04-27T14:29:01.999Z</time></trkpt><trkpt lat="43.98589639545017" lon="12.605808021624052"><ele>37.0</ele><time>2026-04-27T14:29:02.999Z</time></trkpt><trkpt lat="43.98603146356248" lon="12.605896371431038"><ele>36.75</ele><time>2026-04-27T14:29:03.999Z</time></trkpt><trkpt lat="43.98616249752889" lon="12.605996222287468"><ele>36.5</ele><time>2026-04-27T14:29:04.999Z</time></trkpt><trkpt lat="43.98629358268509" lon="12.60609259753562"><ele>36.25</ele><time>2026-04-27T14:29:05.999Z</time></trkpt><trkpt lat="43.986428680436944" lon="12.60617844521066"><ele>36.0</ele><time>2026-04-27T14:29:06.999Z</time></trkpt><trkpt lat="43.986568708518625" lon="12.606255540672544"><ele>34.25</ele><time>2026-04-27T14:29:07.999Z</time></trkpt><trkpt lat="43.986716103287215" lon="12.606314912101208"><ele>32.5</ele><time>2026-04-27T14:29:08.999Z</time></trkpt><trkpt lat="43.98686230289374" lon="12.606349010456569"><ele>30.75</ele><time>2026-04-27T14:29:09.999Z</time></trkpt><trkpt lat="43.98700673851072" lon="12.60635262771016"><ele>29.0</ele><time>2026-04-27T14:29:10.999Z</time></trkpt><trkpt lat="43.98714485507509" lon="12.60631272218788"><ele>29.0</ele><time>2026-04-27T14:29:11.999Z</time></trkpt><trkpt lat="43.98728207405579" lon="12.60622898686052"><ele>29.0</ele><time>2026-04-27T14:29:12.999Z</time></trkpt><trkpt lat="43.987414851542404" lon="12.606121286448044"><ele>29.0</ele><time>2026-04-27T14:29:13.999Z</time></trkpt><trkpt lat="43.98754588353785" lon="12.605996375457304"><ele>26.666666666666664</ele><time>2026-04-27T14:29:14.999Z</time></trkpt><trkpt lat="43.98769310836583" lon="12.605896883877596"><ele>24.333333333333332</ele><time>2026-04-27T14:29:15.999Z</time></trkpt><trkpt lat="43.98783455300204" lon="12.605775651605224"><ele>22.0</ele><time>2026-04-27T14:29:16.999Z</time></trkpt><trkpt lat="43.98797605280626" lon="12.60565450143002"><ele>22.0</ele><time>2026-04-27T14:29:17.999Z</time></trkpt><trkpt lat="43.988122714893095" lon="12.605528411887924"><ele>22.0</ele><time>2026-04-27T14:29:18.999Z</time></trkpt><trkpt lat="43.98825711232323" lon="12.605387303714394"><ele>22.0</ele><time>2026-04-27T14:29:19.999Z</time></trkpt><trkpt lat="43.98840602626674" lon="12.605286993046006"><ele>23.333333333333332</ele><time>2026-04-27T14:29:20.999Z</time></trkpt><trkpt lat="43.98854698477543" lon="12.60517022384697"><ele>24.666666666666664</ele><time>2026-04-27T14:29:21.999Z</time></trkpt><trkpt lat="43.98868099941109" lon="12.605059208508411"><ele>26.0</ele><time>2026-04-27T14:29:22.999Z</time></trkpt><trkpt lat="43.98880833395258" lon="12.604953725377499"><ele>26.0</ele><time>2026-04-27T14:29:23.999Z</time></trkpt><trkpt lat="43.988930661364115" lon="12.604852155569251"><ele>26.0</ele><time>2026-04-27T14:29:24.999Z</time></trkpt><trkpt lat="43.989048107162404" lon="12.604753599238826"><ele>26.0</ele><time>2026-04-27T14:29:25.999Z</time></trkpt><trkpt lat="43.989165912366374" lon="12.60465332280916"><ele>26.0</ele><time>2026-04-27T14:29:26.999Z</time></trkpt><trkpt lat="43.989274071536734" lon="12.60453495510654"><ele>26.5</ele><time>2026-04-27T14:29:27.999Z</time></trkpt><trkpt lat="43.98938058641355" lon="12.604446545597884"><ele>27.0</ele><time>2026-04-27T14:29:29Z</time></trkpt><trkpt lat="43.98947752902637" lon="12.604365980086886"><ele>27.5</ele><time>2026-04-27T14:29:30Z</time></trkpt><trkpt lat="43.989572480034184" lon="12.604289491518138"><ele>28.0</ele><time>2026-04-27T14:29:31Z</time></trkpt><trkpt lat="43.989664289311435" lon="12.604209142987301"><ele>28.0</ele><time>2026-04-27T14:29:32Z</time></trkpt><trkpt lat="43.989754120660706" lon="12.604133429643626"><ele>27.999999999999996</ele><time>2026-04-27T14:29:33Z</time></trkpt><trkpt lat="43.98984357851003" lon="12.60405749221264"><ele>27.999999999999996</ele><time>2026-04-27T14:29:34Z</time></trkpt><trkpt lat="43.98993024125663" lon="12.603982739436628"><ele>28.0</ele><time>2026-04-27T14:29:35Z</time></trkpt><trkpt lat="43.99002251499997" lon="12.60393166709142"><ele>28.0</ele><time>2026-04-27T14:29:36Z</time></trkpt><trkpt lat="43.99008920395641" lon="12.603849563528883"><ele>28.4</ele><time>2026-04-27T14:29:37Z</time></trkpt><trkpt lat="43.99015624362821" lon="12.603794823713619"><ele>28.799999999999997</ele><time>2026-04-27T14:29:38Z</time></trkpt><trkpt lat="43.990216851289254" lon="12.603742667263969"><ele>29.2</ele><time>2026-04-27T14:29:39Z</time></trkpt><trkpt lat="43.99027362264631" lon="12.603696691433054"><ele>29.6</ele><time>2026-04-27T14:29:40Z</time></trkpt><trkpt lat="43.99037338654679" lon="12.60361636757879"><ele>30.0</ele><time>2026-04-27T14:29:42Z</time></trkpt><trkpt lat="43.990483191775596" lon="12.60352814515661"><ele>30.0</ele><time>2026-04-27T14:29:44Z</time></trkpt><trkpt lat="43.99055166099489" lon="12.603472049431593"><ele>30.0</ele><time>2026-04-27T14:29:45Z</time></trkpt><trkpt lat="43.99061908360119" lon="12.60341797934565"><ele>30.0</ele><time>2026-04-27T14:29:46Z</time></trkpt><trkpt lat="43.990688197076366" lon="12.603360772652405"><ele>30.0</ele><time>2026-04-27T14:29:47Z</time></trkpt><trkpt lat="43.99075899964692" lon="12.603303934686426"><ele>30.0</ele><time>2026-04-27T14:29:48Z</time></trkpt><trkpt lat="43.990830550384366" lon="12.603244059320012"><ele>30.0</ele><time>2026-04-27T14:29:49Z</time></trkpt><trkpt lat="43.99090784120314" lon="12.603179677007802"><ele>30.0</ele><time>2026-04-27T14:29:50Z</time></trkpt><trkpt lat="43.990991882348126" lon="12.603108150467149"><ele>30.0</ele><time>2026-04-27T14:29:51Z</time></trkpt><trkpt lat="43.991088434052415" lon="12.603056527913703"><ele>30.0</ele><time>2026-04-27T14:29:52Z</time></trkpt><trkpt lat="43.99118169532793" lon="12.602979625548162"><ele>30.0</ele><time>2026-04-27T14:29:53Z</time></trkpt><trkpt lat="43.991274941600395" lon="12.602902735553725"><ele>30.0</ele><time>2026-04-27T14:29:54Z</time></trkpt><trkpt lat="43.99136601872985" lon="12.602827634212476"><ele>30.2</ele><time>2026-04-27T14:29:55Z</time></trkpt><trkpt lat="43.99145295626721" lon="12.602755946339359"><ele>30.4</ele><time>2026-04-27T14:29:56Z</time></trkpt><trkpt lat="43.99153503628126" lon="12.602688263994487"><ele>30.6</ele><time>2026-04-27T14:29:57Z</time></trkpt><trkpt lat="43.99161764730418" lon="12.602620142897187"><ele>30.8</ele><time>2026-04-27T14:29:58Z</time></trkpt><trkpt lat="43.99170094811666" lon="12.602554088684114"><ele>31.0</ele><time>2026-04-27T14:29:59Z</time></trkpt><trkpt lat="43.991785820830685" lon="12.602489826269723"><ele>30.4</ele><time>2026-04-27T14:30:00Z</time></trkpt><trkpt lat="43.99187251008282" lon="12.602430444459799"><ele>29.8</ele><time>2026-04-27T14:30:01Z</time></trkpt><trkpt lat="43.991962645231396" lon="12.602368091857246"><ele>29.199999999999996</ele><time>2026-04-27T14:30:02Z</time></trkpt><trkpt lat="43.992067900730326" lon="12.602331304483766"><ele>28.599999999999998</ele><time>2026-04-27T14:30:03Z</time></trkpt><trkpt lat="43.99217703728106" lon="12.60230429028188"><ele>28.0</ele><time>2026-04-27T14:30:04Z</time></trkpt><trkpt lat="43.99228915680334" lon="12.60228216028545"><ele>28.0</ele><time>2026-04-27T14:30:05Z</time></trkpt><trkpt lat="43.99240325988419" lon="12.602261601312517"><ele>28.0</ele><time>2026-04-27T14:30:06Z</time></trkpt><trkpt lat="43.99251850219894" lon="12.602243150037266"><ele>28.0</ele><time>2026-04-27T14:30:07Z</time></trkpt><trkpt lat="43.99263631231858" lon="12.602229542496106"><ele>28.0</ele><time>2026-04-27T14:30:08Z</time></trkpt><trkpt lat="43.99275511104387" lon="12.602219338323485"><ele>26.5</ele><time>2026-04-27T14:30:09Z</time></trkpt><trkpt lat="43.992874526514456" lon="12.602209239778656"><ele>25.0</ele><time>2026-04-27T14:30:10Z</time></trkpt><trkpt lat="43.992992457795225" lon="12.602198613685784"><ele>23.5</ele><time>2026-04-27T14:30:11Z</time></trkpt><trkpt lat="43.99310381190745" lon="12.60218334756451"><ele>22.0</ele><time>2026-04-27T14:30:12Z</time></trkpt><trkpt lat="43.99320986695081" lon="12.602163636064446"><ele>22.0</ele><time>2026-04-27T14:30:13Z</time></trkpt><trkpt lat="43.993313617626626" lon="12.602156813599905"><ele>22.0</ele><time>2026-04-27T14:30:13.999Z</time></trkpt><trkpt lat="43.99342410728964" lon="12.602107895886382"><ele>22.0</ele><time>2026-04-27T14:30:14.999Z</time></trkpt><trkpt lat="43.99352353519674" lon="12.602012840148374"><ele>22.0</ele><time>2026-04-27T14:30:15.999Z</time></trkpt><trkpt lat="43.993616747056016" lon="12.601922956988046"><ele>21.5</ele><time>2026-04-27T14:30:16.999Z</time></trkpt><trkpt lat="43.99369805783609" lon="12.601799737783955"><ele>21.0</ele><time>2026-04-27T14:30:17.999Z</time></trkpt><trkpt lat="43.99377654372351" lon="12.601668778095789"><ele>20.5</ele><time>2026-04-27T14:30:18.999Z</time></trkpt><trkpt lat="43.993855955211345" lon="12.601537044587179"><ele>20.0</ele><time>2026-04-27T14:30:19.999Z</time></trkpt><trkpt lat="43.993945052089536" lon="12.601428370306943"><ele>20.0</ele><time>2026-04-27T14:30:20.999Z</time></trkpt><trkpt lat="43.99400760017906" lon="12.601298366348546"><ele>20.0</ele><time>2026-04-27T14:30:21.999Z</time></trkpt><trkpt lat="43.994087774731405" lon="12.601194897884081"><ele>20.0</ele><time>2026-04-27T14:30:22.999Z</time></trkpt><trkpt lat="43.99417749957718" lon="12.601116087809418"><ele>20.0</ele><time>2026-04-27T14:30:23.999Z</time></trkpt><trkpt lat="43.99428094539143" lon="12.601087319019548"><ele>20.0</ele><time>2026-04-27T14:30:24.999Z</time></trkpt><trkpt lat="43.99438335994938" lon="12.60104878371523"><ele>20.0</ele><time>2026-04-27T14:30:25.999Z</time></trkpt><trkpt lat="43.99449345056768" lon="12.601072403708615"><ele>20.0</ele><time>2026-04-27T14:30:26.999Z</time></trkpt><trkpt lat="43.99460212576016" lon="12.601126066166541"><ele>20.0</ele><time>2026-04-27T14:30:27.999Z</time></trkpt><trkpt lat="43.99471087734971" lon="12.601216362476292"><ele>20.0</ele><time>2026-04-27T14:30:28.999Z</time></trkpt><trkpt lat="43.99481062145349" lon="12.601329423355871"><ele>20.0</ele><time>2026-04-27T14:30:29.999Z</time></trkpt><trkpt lat="43.99490101275461" lon="12.601451341795041"><ele>20.0</ele><time>2026-04-27T14:30:30.999Z</time></trkpt><trkpt lat="43.9949891746473" lon="12.601569605888082"><ele>20.0</ele><time>2026-04-27T14:30:31.999Z</time></trkpt><trkpt lat="43.99507463798851" lon="12.6016861407747"><ele>20.0</ele><time>2026-04-27T14:30:32.999Z</time></trkpt><trkpt lat="43.995157858050064" lon="12.6017967024948"><ele>20.8</ele><time>2026-04-27T14:30:33.999Z</time></trkpt><trkpt lat="43.99524041970692" lon="12.601901252730244"><ele>21.6</ele><time>2026-04-27T14:30:34.999Z</time></trkpt><trkpt lat="43.9953184469489" lon="12.602004983069559"><ele>22.4</ele><time>2026-04-27T14:30:35.999Z</time></trkpt><trkpt lat="43.99539327111574" lon="12.602106896046623"><ele>23.2</ele><time>2026-04-27T14:30:36.999Z</time></trkpt><trkpt lat="43.99546640086626" lon="12.602203737758764"><ele>24.0</ele><time>2026-04-27T14:30:37.999Z</time></trkpt><trkpt lat="43.9955375918836" lon="12.60229927722858"><ele>24.0</ele><time>2026-04-27T14:30:38.999Z</time></trkpt><trkpt lat="43.99560689157448" lon="12.60238725999175"><ele>24.0</ele><time>2026-04-27T14:30:39.999Z</time></trkpt><trkpt lat="43.995671293495356" lon="12.60246631769586"><ele>24.0</ele><time>2026-04-27T14:30:40.999Z</time></trkpt><trkpt lat="43.99573046168299" lon="12.60252915019653"><ele>24.0</ele><time>2026-04-27T14:30:41.999Z</time></trkpt><trkpt lat="43.99578351791776" lon="12.602576526647605"><ele>24.0</ele><time>2026-04-27T14:30:42.999Z</time></trkpt><trkpt lat="43.995885738571246" lon="12.602657205283366"><ele>24.0</ele><time>2026-04-27T14:30:44.999Z</time></trkpt><trkpt lat="43.99598156771659" lon="12.602743886759466"><ele>24.5</ele><time>2026-04-27T14:30:46.999Z</time></trkpt><trkpt lat="43.99606396556065" lon="12.60279430944087"><ele>25.0</ele><time>2026-04-27T14:30:48.999Z</time></trkpt><trkpt lat="43.99612594124806" lon="12.602827249590648"><ele>25.5</ele><time>2026-04-27T14:30:50.999Z</time></trkpt><trkpt lat="43.99620356612069" lon="12.602840425921022"><ele>26.0</ele><time>2026-04-27T14:31:05.999Z</time></trkpt><trkpt lat="43.99626487013334" lon="12.602869496466141"><ele>26.5</ele><time>2026-04-27T14:31:06.999Z</time></trkpt><trkpt lat="43.99634545535186" lon="12.602905115743708"><ele>27.0</ele><time>2026-04-27T14:31:07.999Z</time></trkpt><trkpt lat="43.99643726692769" lon="12.602932667373137"><ele>27.0</ele><time>2026-04-27T14:31:08.999Z</time></trkpt><trkpt lat="43.996549186902335" lon="12.602935686598855"><ele>27.0</ele><time>2026-04-27T14:31:09.999Z</time></trkpt><trkpt lat="43.9966687732173" lon="12.602917730580494"><ele>27.0</ele><time>2026-04-27T14:31:10.999Z</time></trkpt><trkpt lat="43.996791084479014" lon="12.602881371197512"><ele>27.0</ele><time>2026-04-27T14:31:11.999Z</time></trkpt><trkpt lat="43.996922667684935" lon="12.602841737180546"><ele>27.333333333333336</ele><time>2026-04-27T14:31:12.999Z</time></trkpt><trkpt lat="43.99706437132878" lon="12.60279968170364"><ele>27.666666666666668</ele><time>2026-04-27T14:31:13.999Z</time></trkpt><trkpt lat="43.99721480647947" lon="12.602752293129331"><ele>28.0</ele><time>2026-04-27T14:31:14.999Z</time></trkpt><trkpt lat="43.99736913286655" lon="12.602704745784873"><ele>27.333333333333336</ele><time>2026-04-27T14:31:15.999Z</time></trkpt><trkpt lat="43.99752971593752" lon="12.602655017288075"><ele>26.666666666666664</ele><time>2026-04-27T14:31:16.999Z</time></trkpt><trkpt lat="43.997693290701804" lon="12.602601014398076"><ele>26.0</ele><time>2026-04-27T14:31:17.999Z</time></trkpt><trkpt lat="43.99785991242294" lon="12.602548425312127"><ele>26.0</ele><time>2026-04-27T14:31:18.999Z</time></trkpt><trkpt lat="43.99802969594441" lon="12.602495582519317"><ele>26.0</ele><time>2026-04-27T14:31:19.999Z</time></trkpt><trkpt lat="43.998202323996914" lon="12.602440748659653"><ele>26.0</ele><time>2026-04-27T14:31:20.999Z</time></trkpt><trkpt lat="43.998378690636386" lon="12.602385168769446"><ele>25.666666666666664</ele><time>2026-04-27T14:31:21.999Z</time></trkpt><trkpt lat="43.99856118815282" lon="12.602351553470097"><ele>25.333333333333336</ele><time>2026-04-27T14:31:22.999Z</time></trkpt><trkpt lat="43.99874368463359" lon="12.602294461429837"><ele>25.0</ele><time>2026-04-27T14:31:23.999Z</time></trkpt><trkpt lat="43.99892270864985" lon="12.60221750019126"><ele>25.0</ele><time>2026-04-27T14:31:24.999Z</time></trkpt><trkpt lat="43.99910858729425" lon="12.602162161750032"><ele>25.0</ele><time>2026-04-27T14:31:25.999Z</time></trkpt><trkpt lat="43.99929641858913" lon="12.602104146741667"><ele>25.0</ele><time>2026-04-27T14:31:26.999Z</time></trkpt><trkpt lat="43.99948617015105" lon="12.602044284694953"><ele>25.333333333333336</ele><time>2026-04-27T14:31:27.999Z</time></trkpt><trkpt lat="43.999678173818324" lon="12.601985975861759"><ele>25.666666666666664</ele><time>2026-04-27T14:31:28.999Z</time></trkpt><trkpt lat="43.99987026710656" lon="12.601927106530244"><ele>26.0</ele><time>2026-04-27T14:31:29.999Z</time></trkpt><trkpt lat="44.000063330939554" lon="12.601866730869114"><ele>26.0</ele><time>2026-04-27T14:31:30.999Z</time></trkpt><trkpt lat="44.000258651188645" lon="12.601805891636715"><ele>26.0</ele><time>2026-04-27T14:31:31.999Z</time></trkpt><trkpt lat="44.00045520333782" lon="12.60174684672123"><ele>26.0</ele><time>2026-04-27T14:31:32.999Z</time></trkpt><trkpt lat="44.000652853511106" lon="12.601687088936782"><ele>25.333333333333332</ele><time>2026-04-27T14:31:33.999Z</time></trkpt><trkpt lat="44.00085069083781" lon="12.601625071007955"><ele>24.666666666666664</ele><time>2026-04-27T14:31:35Z</time></trkpt><trkpt lat="44.001050797789276" lon="12.60156217200386"><ele>24.0</ele><time>2026-04-27T14:31:36Z</time></trkpt><trkpt lat="44.00124786412626" lon="12.601499196981436"><ele>24.0</ele><time>2026-04-27T14:31:37Z</time></trkpt><trkpt lat="44.001443855889924" lon="12.601437450556881"><ele>24.0</ele><time>2026-04-27T14:31:38Z</time></trkpt><trkpt lat="44.00163803705918" lon="12.601376169023485"><ele>24.0</ele><time>2026-04-27T14:31:39Z</time></trkpt><trkpt lat="44.00183023818299" lon="12.601316621425148"><ele>23.333333333333332</ele><time>2026-04-27T14:31:40Z</time></trkpt><trkpt lat="44.00202073495213" lon="12.601258155874858"><ele>22.666666666666664</ele><time>2026-04-27T14:31:41Z</time></trkpt><trkpt lat="44.00221144457209" lon="12.60119842274435"><ele>22.0</ele><time>2026-04-27T14:31:42Z</time></trkpt><trkpt lat="44.00240055747545" lon="12.60113846803081"><ele>21.666666666666664</ele><time>2026-04-27T14:31:43Z</time></trkpt><trkpt lat="44.0025865228601" lon="12.601080776869827"><ele>21.333333333333332</ele><time>2026-04-27T14:31:44Z</time></trkpt><trkpt lat="44.002769500836656" lon="12.601022169175804"><ele>21.0</ele><time>2026-04-27T14:31:45Z</time></trkpt><trkpt lat="44.00294918777416" lon="12.600956207540127"><ele>21.0</ele><time>2026-04-27T14:31:46Z</time></trkpt><trkpt lat="44.00312328646222" lon="12.600873846987689"><ele>21.0</ele><time>2026-04-27T14:31:47Z</time></trkpt><trkpt lat="44.00329471047759" lon="12.600773230429203"><ele>21.0</ele><time>2026-04-27T14:31:48Z</time></trkpt><trkpt lat="44.00346119241162" lon="12.600659612678886"><ele>22.0</ele><time>2026-04-27T14:31:49Z</time></trkpt><trkpt lat="44.00362717909433" lon="12.600536357074414"><ele>23.0</ele><time>2026-04-27T14:31:50Z</time></trkpt><trkpt lat="44.00379387175112" lon="12.60040898373691"><ele>24.0</ele><time>2026-04-27T14:31:51Z</time></trkpt><trkpt lat="44.00396052724064" lon="12.600277625478718"><ele>24.0</ele><time>2026-04-27T14:31:52Z</time></trkpt><trkpt lat="44.00412737749304" lon="12.60014523439964"><ele>24.0</ele><time>2026-04-27T14:31:53Z</time></trkpt><trkpt lat="44.00429805041628" lon="12.60001204371732"><ele>24.0</ele><time>2026-04-27T14:31:54Z</time></trkpt><trkpt lat="44.00446707145329" lon="12.599880875515497"><ele>23.666666666666668</ele><time>2026-04-27T14:31:55Z</time></trkpt><trkpt lat="44.00464379838948" lon="12.599766518280818"><ele>23.333333333333336</ele><time>2026-04-27T14:31:56Z</time></trkpt><trkpt lat="44.00481377105208" lon="12.599635616346426"><ele>23.0</ele><time>2026-04-27T14:31:57Z</time></trkpt><trkpt lat="44.004982718962005" lon="12.599505063223743"><ele>23.0</ele><time>2026-04-27T14:31:58Z</time></trkpt><trkpt lat="44.005150430233364" lon="12.599374993374253"><ele>23.0</ele><time>2026-04-27T14:31:59Z</time></trkpt><trkpt lat="44.00531721811131" lon="12.599245639671034"><ele>23.0</ele><time>2026-04-27T14:32:00Z</time></trkpt><trkpt lat="44.00547011371455" lon="12.599118793690577"><ele>23.0</ele><time>2026-04-27T14:32:01Z</time></trkpt><trkpt lat="44.00562532943336" lon="12.599037211324218"><ele>23.0</ele><time>2026-04-27T14:32:02Z</time></trkpt><trkpt lat="44.00578670604095" lon="12.598977150548068"><ele>23.0</ele><time>2026-04-27T14:32:03Z</time></trkpt><trkpt lat="44.00595930810047" lon="12.598940752651373"><ele>22.666666666666668</ele><time>2026-04-27T14:32:04Z</time></trkpt><trkpt lat="44.00614238747432" lon="12.598926592077447"><ele>22.333333333333332</ele><time>2026-04-27T14:32:05Z</time></trkpt><trkpt lat="44.00632881557818" lon="12.598935481076888"><ele>22.0</ele><time>2026-04-27T14:32:06Z</time></trkpt><trkpt lat="44.00651921204358" lon="12.598963404723373"><ele>22.0</ele><time>2026-04-27T14:32:07Z</time></trkpt><trkpt lat="44.006712287776004" lon="12.598994410664675"><ele>22.0</ele><time>2026-04-27T14:32:08Z</time></trkpt><trkpt lat="44.006911191131344" lon="12.599035856895798"><ele>22.0</ele><time>2026-04-27T14:32:09Z</time></trkpt><trkpt lat="44.0070978138762" lon="12.599073841404522"><ele>22.0</ele><time>2026-04-27T14:32:10Z</time></trkpt><trkpt lat="44.007279598190514" lon="12.59911242097587"><ele>22.0</ele><time>2026-04-27T14:32:11Z</time></trkpt><trkpt lat="44.00746477925539" lon="12.599151752171679"><ele>22.0</ele><time>2026-04-27T14:32:11.999Z</time></trkpt><trkpt lat="44.00764785730819" lon="12.59919135704315"><ele>21.666666666666664</ele><time>2026-04-27T14:32:12.999Z</time></trkpt><trkpt lat="44.00782682512667" lon="12.599227255798029"><ele>21.333333333333332</ele><time>2026-04-27T14:32:13.999Z</time></trkpt><trkpt lat="44.008001209533184" lon="12.599249094612968"><ele>21.0</ele><time>2026-04-27T14:32:14.999Z</time></trkpt><trkpt lat="44.008172126475316" lon="12.599253591218618"><ele>21.333333333333332</ele><time>2026-04-27T14:32:15.999Z</time></trkpt><trkpt lat="44.008339547718904" lon="12.599240488385385"><ele>21.666666666666664</ele><time>2026-04-27T14:32:16.999Z</time></trkpt><trkpt lat="44.00850013536862" lon="12.59921938690547"><ele>22.0</ele><time>2026-04-27T14:32:17.999Z</time></trkpt><trkpt lat="44.00865304098166" lon="12.59919029153973"><ele>22.0</ele><time>2026-04-27T14:32:18.999Z</time></trkpt><trkpt lat="44.00879603801322" lon="12.59915540388096"><ele>22.0</ele><time>2026-04-27T14:32:19.999Z</time></trkpt><trkpt lat="44.00892829906214" lon="12.599123544195033"><ele>22.0</ele><time>2026-04-27T14:32:20.999Z</time></trkpt><trkpt lat="44.00905308177367" lon="12.599090957743439"><ele>22.0</ele><time>2026-04-27T14:32:21.999Z</time></trkpt><trkpt lat="44.00917085418682" lon="12.599058372788694"><ele>21.8</ele><time>2026-04-27T14:32:22.999Z</time></trkpt><trkpt lat="44.00927996751601" lon="12.599023013064212"><ele>21.6</ele><time>2026-04-27T14:32:23.999Z</time></trkpt><trkpt lat="44.00938224853088" lon="12.598990538488163"><ele>21.400000000000002</ele><time>2026-04-27T14:32:24.999Z</time></trkpt><trkpt lat="44.00947324623568" lon="12.598975024208885"><ele>21.200000000000003</ele><time>2026-04-27T14:32:25.999Z</time></trkpt><trkpt lat="44.00955290829117" lon="12.598990295132007"><ele>21.0</ele><time>2026-04-27T14:32:26.999Z</time></trkpt><trkpt lat="44.00962122507158" lon="12.59903081228767"><ele>21.0</ele><time>2026-04-27T14:32:27.999Z</time></trkpt><trkpt lat="44.00968730422928" lon="12.599063813075222"><ele>21.0</ele><time>2026-04-27T14:32:28.999Z</time></trkpt><trkpt lat="44.009763769391455" lon="12.599051885150086"><ele>21.0</ele><time>2026-04-27T14:32:29.999Z</time></trkpt><trkpt lat="44.00982984514799" lon="12.598987466047657"><ele>21.0</ele><time>2026-04-27T14:32:30.999Z</time></trkpt><trkpt lat="44.00987916135484" lon="12.598883625590966"><ele>21.0</ele><time>2026-04-27T14:32:31.999Z</time></trkpt><trkpt lat="44.0099410932233" lon="12.598769527052125"><ele>21.0</ele><time>2026-04-27T14:32:32.999Z</time></trkpt><trkpt lat="44.01003216864232" lon="12.598661935076205"><ele>19.75</ele><time>2026-04-27T14:32:33.999Z</time></trkpt><trkpt lat="44.01014873596076" lon="12.598565353528093"><ele>18.5</ele><time>2026-04-27T14:32:34.999Z</time></trkpt><trkpt lat="44.010282898182965" lon="12.59848134554631"><ele>17.25</ele><time>2026-04-27T14:32:35.999Z</time></trkpt><trkpt lat="44.01042410257776" lon="12.598391390694333"><ele>16.0</ele><time>2026-04-27T14:32:36.999Z</time></trkpt><trkpt lat="44.0105744837682" lon="12.59829239998915"><ele>16.0</ele><time>2026-04-27T14:32:37.999Z</time></trkpt><trkpt lat="44.01073262020918" lon="12.598190600011694"><ele>16.0</ele><time>2026-04-27T14:32:38.999Z</time></trkpt><trkpt lat="44.01088980010909" lon="12.59808870780975"><ele>16.0</ele><time>2026-04-27T14:32:39.999Z</time></trkpt><trkpt lat="44.01104395914545" lon="12.597987268480072"><ele>15.666666666666666</ele><time>2026-04-27T14:32:40.999Z</time></trkpt><trkpt lat="44.01119865622162" lon="12.597885438286683"><ele>15.333333333333332</ele><time>2026-04-27T14:32:41.999Z</time></trkpt><trkpt lat="44.011352288696756" lon="12.597782871287885"><ele>15.0</ele><time>2026-04-27T14:32:42.999Z</time></trkpt><trkpt lat="44.011505330053105" lon="12.597678523268337"><ele>15.0</ele><time>2026-04-27T14:32:43.999Z</time></trkpt><trkpt lat="44.01165840172052" lon="12.597576760903411"><ele>15.0</ele><time>2026-04-27T14:32:44.999Z</time></trkpt><trkpt lat="44.01181225886538" lon="12.597475878934763"><ele>15.0</ele><time>2026-04-27T14:32:45.999Z</time></trkpt><trkpt lat="44.01196896773199" lon="12.597374030955963"><ele>15.0</ele><time>2026-04-27T14:32:46.999Z</time></trkpt><trkpt lat="44.012124625861134" lon="12.597272944185082"><ele>15.0</ele><time>2026-04-27T14:32:47.999Z</time></trkpt><trkpt lat="44.01227259171809" lon="12.59717576844913"><ele>15.0</ele><time>2026-04-27T14:32:48.999Z</time></trkpt><trkpt lat="44.01240963678074" lon="12.59708514329556"><ele>14.5</ele><time>2026-04-27T14:32:49.999Z</time></trkpt><trkpt lat="44.01254040052758" lon="12.596998095527367"><ele>14.0</ele><time>2026-04-27T14:32:50.999Z</time></trkpt><trkpt lat="44.01266280117095" lon="12.596918062211657"><ele>13.5</ele><time>2026-04-27T14:32:51.999Z</time></trkpt><trkpt lat="44.01277775703108" lon="12.59684227336524"><ele>13.0</ele><time>2026-04-27T14:32:52.999Z</time></trkpt><trkpt lat="44.01288611268544" lon="12.59676961088156"><ele>13.0</ele><time>2026-04-27T14:32:53.999Z</time></trkpt><trkpt lat="44.01298685969309" lon="12.5967011338728"><ele>13.0</ele><time>2026-04-27T14:32:54.999Z</time></trkpt><trkpt lat="44.013081218737646" lon="12.596638855154254"><ele>13.0</ele><time>2026-04-27T14:32:55.999Z</time></trkpt><trkpt lat="44.01316743678399" lon="12.5965866502852"><ele>13.0</ele><time>2026-04-27T14:32:56.999Z</time></trkpt><trkpt lat="44.0132403017601" lon="12.596543967712927"><ele>13.0</ele><time>2026-04-27T14:32:57.999Z</time></trkpt><trkpt lat="44.01330464911536" lon="12.596506387466663"><ele>12.8</ele><time>2026-04-27T14:32:58.999Z</time></trkpt><trkpt lat="44.01340973840014" lon="12.596444928184601"><ele>12.600000000000001</ele><time>2026-04-27T14:33:00.999Z</time></trkpt><trkpt lat="44.013524497432535" lon="12.596433032830475"><ele>12.399999999999999</ele><time>2026-04-27T14:33:02.999Z</time></trkpt><trkpt lat="44.01364310046133" lon="12.596418432458368"><ele>12.2</ele><time>2026-04-27T14:33:04.999Z</time></trkpt><trkpt lat="44.013691702941635" lon="12.596359110967473"><ele>12.0</ele><time>2026-04-27T14:33:05.999Z</time></trkpt><trkpt lat="44.01373891370958" lon="12.596261630077"><ele>12.0</ele><time>2026-04-27T14:33:06.999Z</time></trkpt><trkpt lat="44.01380109339682" lon="12.596182170955013"><ele>12.0</ele><time>2026-04-27T14:33:07.999Z</time></trkpt><trkpt lat="44.01387754549976" lon="12.596120412146105"><ele>12.0</ele><time>2026-04-27T14:33:08.999Z</time></trkpt><trkpt lat="44.013959796960854" lon="12.5960703247424"><ele>12.0</ele><time>2026-04-27T14:33:09.999Z</time></trkpt><trkpt lat="44.01404619123566" lon="12.596012881551683"><ele>12.0</ele><time>2026-04-27T14:33:10.999Z</time></trkpt><trkpt lat="44.01413962821973" lon="12.595951877571764"><ele>11.6</ele><time>2026-04-27T14:33:11.999Z</time></trkpt><trkpt lat="44.01423858407558" lon="12.595885725285571"><ele>11.2</ele><time>2026-04-27T14:33:12.999Z</time></trkpt><trkpt lat="44.01433377733552" lon="12.5958199351401"><ele>10.8</ele><time>2026-04-27T14:33:13.999Z</time></trkpt><trkpt lat="44.01443210589587" lon="12.595757291908896"><ele>10.4</ele><time>2026-04-27T14:33:14.999Z</time></trkpt><trkpt lat="44.014530801535024" lon="12.595694663687018"><ele>10.0</ele><time>2026-04-27T14:33:15.999Z</time></trkpt><trkpt lat="44.014624018529915" lon="12.595632077929986"><ele>10.0</ele><time>2026-04-27T14:33:16.999Z</time></trkpt><trkpt lat="44.014720365273725" lon="12.595567855314101"><ele>10.0</ele><time>2026-04-27T14:33:17.999Z</time></trkpt><trkpt lat="44.014817920647936" lon="12.59550424166044"><ele>10.0</ele><time>2026-04-27T14:33:18.999Z</time></trkpt><trkpt lat="44.01491534969466" lon="12.595440201221091"><ele>10.0</ele><time>2026-04-27T14:33:19.999Z</time></trkpt><trkpt lat="44.015020898134274" lon="12.595395458297897"><ele>10.0</ele><time>2026-04-27T14:33:20.999Z</time></trkpt><trkpt lat="44.01511264040393" lon="12.59531049731744"><ele>10.4</ele><time>2026-04-27T14:33:21.999Z</time></trkpt><trkpt lat="44.01521179055623" lon="12.595244933813925"><ele>10.8</ele><time>2026-04-27T14:33:22.999Z</time></trkpt><trkpt lat="44.01531111344681" lon="12.595179054451517"><ele>11.2</ele><time>2026-04-27T14:33:23.999Z</time></trkpt><trkpt lat="44.01541151102006" lon="12.595113123277905"><ele>11.6</ele><time>2026-04-27T14:33:24.999Z</time></trkpt><trkpt lat="44.01551903279534" lon="12.595065531199367"><ele>12.0</ele><time>2026-04-27T14:33:25.999Z</time></trkpt><trkpt lat="44.01562026110545" lon="12.594998678781879"><ele>12.0</ele><time>2026-04-27T14:33:26.999Z</time></trkpt><trkpt lat="44.01572335180319" lon="12.594930596396123"><ele>12.0</ele><time>2026-04-27T14:33:27.999Z</time></trkpt><trkpt lat="44.01582789729703" lon="12.594837715750089"><ele>12.0</ele><time>2026-04-27T14:33:28.999Z</time></trkpt><trkpt lat="44.01594391137143" lon="12.594761567713249"><ele>12.0</ele><time>2026-04-27T14:33:29.999Z</time></trkpt><trkpt lat="44.01607921352252" lon="12.594698454971317"><ele>12.0</ele><time>2026-04-27T14:33:30.999Z</time></trkpt><trkpt lat="44.01622033859919" lon="12.594606237058969"><ele>12.0</ele><time>2026-04-27T14:33:31.999Z</time></trkpt><trkpt lat="44.016374413546515" lon="12.594505556569366"><ele>12.0</ele><time>2026-04-27T14:33:32.999Z</time></trkpt><trkpt lat="44.016540574513385" lon="12.594396980039875"><ele>11.0</ele><time>2026-04-27T14:33:33.999Z</time></trkpt><trkpt lat="44.01671280743314" lon="12.594285375933671"><ele>10.0</ele><time>2026-04-27T14:33:34.999Z</time></trkpt><trkpt lat="44.01688730440074" lon="12.594172304799587"><ele>9.0</ele><time>2026-04-27T14:33:35.999Z</time></trkpt><trkpt lat="44.0170565935448" lon="12.594041684740406"><ele>9.0</ele><time>2026-04-27T14:33:36.999Z</time></trkpt><trkpt lat="44.01723126830799" lon="12.593930237890156"><ele>9.0</ele><time>2026-04-27T14:33:37.999Z</time></trkpt><trkpt lat="44.01740255977156" lon="12.593818481595974"><ele>9.0</ele><time>2026-04-27T14:33:38.999Z</time></trkpt><trkpt lat="44.01757023292519" lon="12.593708292536123"><ele>9.666666666666666</ele><time>2026-04-27T14:33:39.999Z</time></trkpt><trkpt lat="44.017729775336406" lon="12.593602866378268"><ele>10.333333333333332</ele><time>2026-04-27T14:33:41Z</time></trkpt><trkpt lat="44.01788192854053" lon="12.593502381183209"><ele>11.0</ele><time>2026-04-27T14:33:42Z</time></trkpt><trkpt lat="44.018032037606496" lon="12.593399481458846"><ele>11.0</ele><time>2026-04-27T14:33:43Z</time></trkpt><trkpt lat="44.01817511082303" lon="12.593292733224654"><ele>11.0</ele><time>2026-04-27T14:33:44Z</time></trkpt><trkpt lat="44.018312487191814" lon="12.593179768252199"><ele>11.0</ele><time>2026-04-27T14:33:45Z</time></trkpt><trkpt lat="44.01844336269725" lon="12.59305861343596"><ele>10.666666666666666</ele><time>2026-04-27T14:33:46Z</time></trkpt><trkpt lat="44.01856878539037" lon="12.592923883945936"><ele>10.333333333333334</ele><time>2026-04-27T14:33:47Z</time></trkpt><trkpt lat="44.018697433674134" lon="12.592792791049451"><ele>10.0</ele><time>2026-04-27T14:33:48Z</time></trkpt><trkpt lat="44.01880150299784" lon="12.592628510914631"><ele>10.0</ele><time>2026-04-27T14:33:49Z</time></trkpt><trkpt lat="44.01889374764661" lon="12.59245749862867"><ele>10.0</ele><time>2026-04-27T14:33:50Z</time></trkpt><trkpt lat="44.01897677611649" lon="12.5922817662615"><ele>10.0</ele><time>2026-04-27T14:33:51Z</time></trkpt><trkpt lat="44.01905206698617" lon="12.592103371597473"><ele>10.0</ele><time>2026-04-27T14:33:52Z</time></trkpt><trkpt lat="44.019114067377465" lon="12.591921655647962"><ele>10.0</ele><time>2026-04-27T14:33:53Z</time></trkpt><trkpt lat="44.01917060437639" lon="12.591744805648089"><ele>10.0</ele><time>2026-04-27T14:33:54Z</time></trkpt><trkpt lat="44.019211500058255" lon="12.591558209870758"><ele>10.0</ele><time>2026-04-27T14:33:55Z</time></trkpt><trkpt lat="44.01926684705574" lon="12.591381998085675"><ele>10.0</ele><time>2026-04-27T14:33:56Z</time></trkpt><trkpt lat="44.01932070148836" lon="12.591208256131274"><ele>10.0</ele><time>2026-04-27T14:33:57Z</time></trkpt><trkpt lat="44.0193721573548" lon="12.591039962784363"><ele>10.0</ele><time>2026-04-27T14:33:58Z</time></trkpt><trkpt lat="44.01941782233752" lon="12.59088152913818"><ele>10.0</ele><time>2026-04-27T14:33:59Z</time></trkpt><trkpt lat="44.01946568792637" lon="12.590724520286857"><ele>10.6</ele><time>2026-04-27T14:34:00Z</time></trkpt><trkpt lat="44.01951131460184" lon="12.590574801998736"><ele>11.2</ele><time>2026-04-27T14:34:01Z</time></trkpt><trkpt lat="44.01955170362678" lon="12.590438720951836"><ele>11.8</ele><time>2026-04-27T14:34:02Z</time></trkpt><trkpt lat="44.0195890469958" lon="12.590314736611415"><ele>12.4</ele><time>2026-04-27T14:34:03Z</time></trkpt><trkpt lat="44.01962317080966" lon="12.590202404536214"><ele>13.0</ele><time>2026-04-27T14:34:04Z</time></trkpt><trkpt lat="44.01966818812752" lon="12.5901130603069"><ele>12.8</ele><time>2026-04-27T14:34:05Z</time></trkpt><trkpt lat="44.01969400777113" lon="12.590027959493085"><ele>12.600000000000001</ele><time>2026-04-27T14:34:06Z</time></trkpt><trkpt lat="44.019766763225604" lon="12.589942007392336"><ele>12.399999999999999</ele><time>2026-04-27T14:34:08Z</time></trkpt><trkpt lat="44.01987244199043" lon="12.590073583498524"><ele>12.2</ele><time>2026-04-27T14:34:10Z</time></trkpt><trkpt lat="44.01992526076389" lon="12.59018943750324"><ele>12.0</ele><time>2026-04-27T14:34:11Z</time></trkpt><trkpt lat="44.019988643838495" lon="12.590315656863103"><ele>11.5</ele><time>2026-04-27T14:34:12Z</time></trkpt><trkpt lat="44.02006396374579" lon="12.590453380728865"><ele>11.0</ele><time>2026-04-27T14:34:12.999Z</time></trkpt><trkpt lat="44.020144303012906" lon="12.590599864098197"><ele>10.5</ele><time>2026-04-27T14:34:13.999Z</time></trkpt><trkpt lat="44.02022938907731" lon="12.590756479099717"><ele>10.0</ele><time>2026-04-27T14:34:14.999Z</time></trkpt><trkpt lat="44.020319321971115" lon="12.590920587374796"><ele>10.0</ele><time>2026-04-27T14:34:15.999Z</time></trkpt><trkpt lat="44.02041281415562" lon="12.591089190720538"><ele>10.0</ele><time>2026-04-27T14:34:16.999Z</time></trkpt><trkpt lat="44.020510875291315" lon="12.591259514856757"><ele>10.0</ele><time>2026-04-27T14:34:17.999Z</time></trkpt><trkpt lat="44.02061299607109" lon="12.591423492314293"><ele>9.75</ele><time>2026-04-27T14:34:18.999Z</time></trkpt><trkpt lat="44.02071306685487" lon="12.5915767377879"><ele>9.5</ele><time>2026-04-27T14:34:19.999Z</time></trkpt><trkpt lat="44.0208106028577" lon="12.591724889687121"><ele>9.25</ele><time>2026-04-27T14:34:20.999Z</time></trkpt><trkpt lat="44.02090693302214" lon="12.591864406700122"><ele>9.0</ele><time>2026-04-27T14:34:21.999Z</time></trkpt><trkpt lat="44.02100206052298" lon="12.59200367411461"><ele>8.75</ele><time>2026-04-27T14:34:22.999Z</time></trkpt><trkpt lat="44.021096548319285" lon="12.592134379436866"><ele>8.5</ele><time>2026-04-27T14:34:23.999Z</time></trkpt><trkpt lat="44.02119558684725" lon="12.592251303997596"><ele>8.25</ele><time>2026-04-27T14:34:24.999Z</time></trkpt><trkpt lat="44.02130495352058" lon="12.592340276301238"><ele>8.0</ele><time>2026-04-27T14:34:25.999Z</time></trkpt><trkpt lat="44.02142663123365" lon="12.592401753869023"><ele>8.0</ele><time>2026-04-27T14:34:26.999Z</time></trkpt><trkpt lat="44.02155891927933" lon="12.592427204564661"><ele>8.0</ele><time>2026-04-27T14:34:27.999Z</time></trkpt><trkpt lat="44.02169621717759" lon="12.59243999322494"><ele>8.0</ele><time>2026-04-27T14:34:28.999Z</time></trkpt><trkpt lat="44.021836216768826" lon="12.592441584968606"><ele>8.0</ele><time>2026-04-27T14:34:29.999Z</time></trkpt><trkpt lat="44.0219675640791" lon="12.592436089152665"><ele>8.25</ele><time>2026-04-27T14:34:30.999Z</time></trkpt><trkpt lat="44.02209738692049" lon="12.592424123223166"><ele>8.5</ele><time>2026-04-27T14:34:31.999Z</time></trkpt><trkpt lat="44.02222571072868" lon="12.592407616042886"><ele>8.75</ele><time>2026-04-27T14:34:32.999Z</time></trkpt><trkpt lat="44.0223494017112" lon="12.592383294817687"><ele>9.0</ele><time>2026-04-27T14:34:33.999Z</time></trkpt><trkpt lat="44.02246834695844" lon="12.592338601434289"><ele>8.75</ele><time>2026-04-27T14:34:34.999Z</time></trkpt><trkpt lat="44.022588641660946" lon="12.592284525461363"><ele>8.5</ele><time>2026-04-27T14:34:35.999Z</time></trkpt><trkpt lat="44.022709188035215" lon="12.592235031694095"><ele>8.25</ele><time>2026-04-27T14:34:36.999Z</time></trkpt><trkpt lat="44.022827129437104" lon="12.59220258313276"><ele>8.0</ele><time>2026-04-27T14:34:37.999Z</time></trkpt><trkpt lat="44.022937704313364" lon="12.592184056253322"><ele>8.0</ele><time>2026-04-27T14:34:38.999Z</time></trkpt><trkpt lat="44.02305452056358" lon="12.59217306834937"><ele>8.0</ele><time>2026-04-27T14:34:39.999Z</time></trkpt><trkpt lat="44.02317285253995" lon="12.592165384125003"><ele>8.0</ele><time>2026-04-27T14:34:40.999Z</time></trkpt><trkpt lat="44.02329458766511" lon="12.592161291430415"><ele>8.0</ele><time>2026-04-27T14:34:41.999Z</time></trkpt><trkpt lat="44.02341621148575" lon="12.592160162343022"><ele>7.5</ele><time>2026-04-27T14:34:42.999Z</time></trkpt><trkpt lat="44.02353691523963" lon="12.592157765030473"><ele>7.0</ele><time>2026-04-27T14:34:43.999Z</time></trkpt><trkpt lat="44.02365801952121" lon="12.592159939609434"><ele>6.5</ele><time>2026-04-27T14:34:44.999Z</time></trkpt><trkpt lat="44.02378171324779" lon="12.592159392537857"><ele>6.0</ele><time>2026-04-27T14:34:45.999Z</time></trkpt><trkpt lat="44.023909850284525" lon="12.592158863625215"><ele>6.0</ele><time>2026-04-27T14:34:46.999Z</time></trkpt><trkpt lat="44.024045921427785" lon="12.5921563367266"><ele>6.0</ele><time>2026-04-27T14:34:47.999Z</time></trkpt><trkpt lat="44.02418460655478" lon="12.592153644112372"><ele>6.0</ele><time>2026-04-27T14:34:48.999Z</time></trkpt><trkpt lat="44.02432954966627" lon="12.592150563435121"><ele>6.0</ele><time>2026-04-27T14:34:49.999Z</time></trkpt><trkpt lat="44.02447842552578" lon="12.59214693397605"><ele>5.666666666666667</ele><time>2026-04-27T14:34:50.999Z</time></trkpt><trkpt lat="44.024629318872236" lon="12.592146706382113"><ele>5.333333333333334</ele><time>2026-04-27T14:34:51.999Z</time></trkpt><trkpt lat="44.02478165726292" lon="12.592143437937317"><ele>5.0</ele><time>2026-04-27T14:34:52.999Z</time></trkpt><trkpt lat="44.02493420531" lon="12.592140702273785"><ele>5.0</ele><time>2026-04-27T14:34:53.999Z</time></trkpt><trkpt lat="44.0250800520055" lon="12.592139132086915"><ele>5.0</ele><time>2026-04-27T14:34:54.999Z</time></trkpt><trkpt lat="44.02522394335021" lon="12.592138717185923"><ele>5.0</ele><time>2026-04-27T14:34:55.999Z</time></trkpt><trkpt lat="44.02536495742706" lon="12.592137474867299"><ele>5.0</ele><time>2026-04-27T14:34:56.999Z</time></trkpt><trkpt lat="44.02550255682931" lon="12.592123134317205"><ele>5.0</ele><time>2026-04-27T14:34:57.999Z</time></trkpt><trkpt lat="44.0256356710123" lon="12.592111380249689"><ele>5.0</ele><time>2026-04-27T14:34:58.999Z</time></trkpt><trkpt lat="44.02575472174311" lon="12.592055998282495"><ele>5.0</ele><time>2026-04-27T14:34:59.999Z</time></trkpt><trkpt lat="44.025858479938975" lon="12.59199092241152"><ele>5.0</ele><time>2026-04-27T14:35:00.999Z</time></trkpt><trkpt lat="44.025950981940234" lon="12.591927880006706"><ele>5.25</ele><time>2026-04-27T14:35:01.999Z</time></trkpt><trkpt lat="44.026045378012796" lon="12.591859085561634"><ele>5.5</ele><time>2026-04-27T14:35:02.999Z</time></trkpt><trkpt lat="44.02615025968582" lon="12.591782648503033"><ele>5.75</ele><time>2026-04-27T14:35:03.999Z</time></trkpt><trkpt lat="44.02625834826977" lon="12.591686286038177"><ele>6.0</ele><time>2026-04-27T14:35:04.999Z</time></trkpt><trkpt lat="44.02638249023945" lon="12.591600669240297"><ele>6.0</ele><time>2026-04-27T14:35:05.999Z</time></trkpt><trkpt lat="44.026511740718824" lon="12.591507275084343"><ele>6.0</ele><time>2026-04-27T14:35:06.999Z</time></trkpt><trkpt lat="44.02664558080083" lon="12.591411117055323"><ele>6.0</ele><time>2026-04-27T14:35:07.999Z</time></trkpt><trkpt lat="44.02678315216076" lon="12.591315050749737"><ele>7.0</ele><time>2026-04-27T14:35:08.999Z</time></trkpt><trkpt lat="44.02692324847721" lon="12.59121667395786"><ele>8.0</ele><time>2026-04-27T14:35:09.999Z</time></trkpt><trkpt lat="44.02706224910415" lon="12.59111922091543"><ele>9.0</ele><time>2026-04-27T14:35:10.999Z</time></trkpt><trkpt lat="44.02720150063682" lon="12.591022450221542"><ele>9.0</ele><time>2026-04-27T14:35:11.999Z</time></trkpt><trkpt lat="44.02733924864189" lon="12.590929899511687"><ele>9.0</ele><time>2026-04-27T14:35:12.999Z</time></trkpt><trkpt lat="44.02747723504139" lon="12.590847197562578"><ele>9.0</ele><time>2026-04-27T14:35:13.999Z</time></trkpt><trkpt lat="44.0276138764906" lon="12.590780392095697"><ele>9.0</ele><time>2026-04-27T14:35:14.999Z</time></trkpt><trkpt lat="44.02774882865217" lon="12.59072233711457"><ele>9.0</ele><time>2026-04-27T14:35:15.999Z</time></trkpt><trkpt lat="44.02787971989483" lon="12.590662661086816"><ele>9.0</ele><time>2026-04-27T14:35:16.999Z</time></trkpt><trkpt lat="44.028012957755806" lon="12.590620488985676"><ele>9.0</ele><time>2026-04-27T14:35:17.999Z</time></trkpt><trkpt lat="44.02813710926547" lon="12.590549614586745"><ele>9.0</ele><time>2026-04-27T14:35:18.999Z</time></trkpt><trkpt lat="44.0282505072977" lon="12.590473782314621"><ele>9.0</ele><time>2026-04-27T14:35:19.999Z</time></trkpt><trkpt lat="44.02835394153285" lon="12.590397606236804"><ele>9.0</ele><time>2026-04-27T14:35:20.999Z</time></trkpt><trkpt lat="44.02844692218826" lon="12.590322050644973"><ele>9.0</ele><time>2026-04-27T14:35:21.999Z</time></trkpt><trkpt lat="44.0285471941338" lon="12.590233773490622"><ele>9.0</ele><time>2026-04-27T14:35:22.999Z</time></trkpt><trkpt lat="44.02863501344638" lon="12.590140175150896"><ele>8.6</ele><time>2026-04-27T14:35:23.999Z</time></trkpt><trkpt lat="44.02870522941105" lon="12.590041160211067"><ele>8.2</ele><time>2026-04-27T14:35:24.999Z</time></trkpt><trkpt lat="44.028754183392785" lon="12.589909649350663"><ele>7.799999999999999</ele><time>2026-04-27T14:35:25.999Z</time></trkpt><trkpt lat="44.02883688570745" lon="12.58982058471535"><ele>7.3999999999999995</ele><time>2026-04-27T14:35:26.999Z</time></trkpt><trkpt lat="44.028905667327116" lon="12.589708543445726"><ele>7.0</ele><time>2026-04-27T14:35:27.999Z</time></trkpt><trkpt lat="44.028999646896594" lon="12.589638170198459"><ele>7.0</ele><time>2026-04-27T14:35:28.999Z</time></trkpt><trkpt lat="44.029105365538406" lon="12.589578221317755"><ele>6.999999999999999</ele><time>2026-04-27T14:35:29.999Z</time></trkpt><trkpt lat="44.02921551448191" lon="12.589521007944928"><ele>6.999999999999999</ele><time>2026-04-27T14:35:30.999Z</time></trkpt><trkpt lat="44.02931559107797" lon="12.589466981057782"><ele>7.0</ele><time>2026-04-27T14:35:31.999Z</time></trkpt><trkpt lat="44.02940821674746" lon="12.589412032445354"><ele>7.0</ele><time>2026-04-27T14:35:32.999Z</time></trkpt><trkpt lat="44.02949421321234" lon="12.589359826037477"><ele>7.25</ele><time>2026-04-27T14:35:33.999Z</time></trkpt><trkpt lat="44.0295938917888" lon="12.58932298105176"><ele>7.5</ele><time>2026-04-27T14:35:34.999Z</time></trkpt><trkpt lat="44.02969462086595" lon="12.589245789372393"><ele>7.75</ele><time>2026-04-27T14:35:35.999Z</time></trkpt><trkpt lat="44.029818053613965" lon="12.589193367656607"><ele>8.0</ele><time>2026-04-27T14:35:36.999Z</time></trkpt><trkpt lat="44.02995473176933" lon="12.589153569134334"><ele>8.333333333333332</ele><time>2026-04-27T14:35:37.999Z</time></trkpt><trkpt lat="44.030103145229766" lon="12.589114124628894"><ele>8.666666666666666</ele><time>2026-04-27T14:35:38.999Z</time></trkpt><trkpt lat="44.03025690671482" lon="12.589075637290538"><ele>9.0</ele><time>2026-04-27T14:35:39.999Z</time></trkpt><trkpt lat="44.03040838699547" lon="12.58904441252174"><ele>9.0</ele><time>2026-04-27T14:35:40.999Z</time></trkpt><trkpt lat="44.03055495601759" lon="12.589021676530221"><ele>9.0</ele><time>2026-04-27T14:35:41.999Z</time></trkpt><trkpt lat="44.03070081705936" lon="12.589002831635387"><ele>9.0</ele><time>2026-04-27T14:35:42.999Z</time></trkpt><trkpt lat="44.03084265346145" lon="12.588983209595717"><ele>9.0</ele><time>2026-04-27T14:35:43.999Z</time></trkpt><trkpt lat="44.03098100481735" lon="12.58895549348629"><ele>8.5</ele><time>2026-04-27T14:35:44.999Z</time></trkpt><trkpt lat="44.03111830415808" lon="12.58891715860114"><ele>8.0</ele><time>2026-04-27T14:35:45.999Z</time></trkpt><trkpt lat="44.031254526569015" lon="12.588871132249572"><ele>7.5</ele><time>2026-04-27T14:35:47Z</time></trkpt><trkpt lat="44.03139351586018" lon="12.58882159327735"><ele>7.0</ele><time>2026-04-27T14:35:48Z</time></trkpt><trkpt lat="44.03152844142295" lon="12.588765011079067"><ele>7.0</ele><time>2026-04-27T14:35:49Z</time></trkpt><trkpt lat="44.03165968084625" lon="12.588707835672048"><ele>7.0</ele><time>2026-04-27T14:35:50Z</time></trkpt><trkpt lat="44.03179023886627" lon="12.588657842033822"><ele>7.0</ele><time>2026-04-27T14:35:51Z</time></trkpt><trkpt lat="44.03192760397242" lon="12.588621077428856"><ele>7.0</ele><time>2026-04-27T14:35:52Z</time></trkpt><trkpt lat="44.03206448395424" lon="12.588601728848001"><ele>6.75</ele><time>2026-04-27T14:35:53Z</time></trkpt><trkpt lat="44.032201572725896" lon="12.588600952399563"><ele>6.5</ele><time>2026-04-27T14:35:54Z</time></trkpt><trkpt lat="44.03233825504996" lon="12.588606134380157"><ele>6.25</ele><time>2026-04-27T14:35:55Z</time></trkpt><trkpt lat="44.03247759591856" lon="12.58861230161474"><ele>6.0</ele><time>2026-04-27T14:35:56Z</time></trkpt><trkpt lat="44.03260982958739" lon="12.588610902467446"><ele>5.8</ele><time>2026-04-27T14:35:57Z</time></trkpt><trkpt lat="44.032737460838234" lon="12.588601214818643"><ele>5.6</ele><time>2026-04-27T14:35:58Z</time></trkpt><trkpt lat="44.03285653077161" lon="12.588589481602511"><ele>5.4</ele><time>2026-04-27T14:35:59Z</time></trkpt><trkpt lat="44.03296466377607" lon="12.588566804275779"><ele>5.2</ele><time>2026-04-27T14:36:00Z</time></trkpt><trkpt lat="44.03305380707885" lon="12.588533674344736"><ele>5.0</ele><time>2026-04-27T14:36:01Z</time></trkpt><trkpt lat="44.03313186551483" lon="12.588496710769869"><ele>5.0</ele><time>2026-04-27T14:36:02Z</time></trkpt><trkpt lat="44.03320151837606" lon="12.588461105371607"><ele>5.0</ele><time>2026-04-27T14:36:03Z</time></trkpt><trkpt lat="44.03326609628381" lon="12.5884233849709"><ele>5.0</ele><time>2026-04-27T14:36:04Z</time></trkpt><trkpt lat="44.03333290825459" lon="12.588401561615692"><ele>5.0</ele><time>2026-04-27T14:36:05Z</time></trkpt><trkpt lat="44.03338272450391" lon="12.588319191031568"><ele>5.0</ele><time>2026-04-27T14:36:06Z</time></trkpt><trkpt lat="44.03345595147956" lon="12.588271919856037"><ele>5.0</ele><time>2026-04-27T14:36:07Z</time></trkpt><trkpt lat="44.033544814580985" lon="12.588233401230964"><ele>5.5</ele><time>2026-04-27T14:36:08Z</time></trkpt><trkpt lat="44.03364855892977" lon="12.588187464252604"><ele>6.0</ele><time>2026-04-27T14:36:09Z</time></trkpt><trkpt lat="44.033760935604256" lon="12.588130525200162"><ele>6.5</ele><time>2026-04-27T14:36:09.999Z</time></trkpt><trkpt lat="44.033877396225634" lon="12.588063049007646"><ele>7.0</ele><time>2026-04-27T14:36:10.999Z</time></trkpt><trkpt lat="44.033993825987125" lon="12.587993951542744"><ele>7.0</ele><time>2026-04-27T14:36:11.999Z</time></trkpt><trkpt lat="44.034103088252614" lon="12.587926810237992"><ele>6.999999999999999</ele><time>2026-04-27T14:36:12.999Z</time></trkpt><trkpt lat="44.03420444767297" lon="12.587868682359632"><ele>6.999999999999999</ele><time>2026-04-27T14:36:13.999Z</time></trkpt><trkpt lat="44.03429876035057" lon="12.587816254429635"><ele>7.0</ele><time>2026-04-27T14:36:14.999Z</time></trkpt><trkpt lat="44.034394666051526" lon="12.587763706837157"><ele>7.0</ele><time>2026-04-27T14:36:15.999Z</time></trkpt><trkpt lat="44.034493132067134" lon="12.587711994644279"><ele>7.166666666666667</ele><time>2026-04-27T14:36:16.999Z</time></trkpt><trkpt lat="44.034585072947856" lon="12.58766514317311"><ele>7.333333333333334</ele><time>2026-04-27T14:36:17.999Z</time></trkpt><trkpt lat="44.03466775474734" lon="12.587621330204362"><ele>7.5</ele><time>2026-04-27T14:36:18.999Z</time></trkpt><trkpt lat="44.03474604964025" lon="12.587606765606868"><ele>7.666666666666666</ele><time>2026-04-27T14:36:19.999Z</time></trkpt><trkpt lat="44.03480732377088" lon="12.587548075852345"><ele>7.833333333333333</ele><time>2026-04-27T14:36:20.999Z</time></trkpt><trkpt lat="44.03487432958102" lon="12.587511999238247"><ele>8.0</ele><time>2026-04-27T14:36:21.999Z</time></trkpt><trkpt lat="44.034934812596866" lon="12.587477817419787"><ele>7.666666666666666</ele><time>2026-04-27T14:36:22.999Z</time></trkpt><trkpt lat="44.03499635136023" lon="12.587435001316408"><ele>7.333333333333333</ele><time>2026-04-27T14:36:23.999Z</time></trkpt><trkpt lat="44.03505471825008" lon="12.587395165870143"><ele>7.0</ele><time>2026-04-27T14:36:24.999Z</time></trkpt><trkpt lat="44.035145088168186" lon="12.587336214893014"><ele>6.666666666666666</ele><time>2026-04-27T14:36:26.999Z</time></trkpt><trkpt lat="44.0352100992101" lon="12.587318595561666"><ele>6.333333333333333</ele><time>2026-04-27T14:36:28.999Z</time></trkpt><trkpt lat="44.03528029681353" lon="12.587321082892586"><ele>6.0</ele><time>2026-04-27T14:36:30.999Z</time></trkpt><trkpt lat="44.03540185935082" lon="12.587377832351644"><ele>6.0</ele><time>2026-04-27T14:36:32.999Z</time></trkpt><trkpt lat="44.035466476081645" lon="12.587404608110504"><ele>6.0</ele><time>2026-04-27T14:36:33.999Z</time></trkpt><trkpt lat="44.03553491798672" lon="12.587439561958478"><ele>6.0</ele><time>2026-04-27T14:36:34.999Z</time></trkpt><trkpt lat="44.03562112262637" lon="12.587425904377104"><ele>6.0</ele><time>2026-04-27T14:36:35.999Z</time></trkpt><trkpt lat="44.03571173272937" lon="12.587455801017544"><ele>6.0</ele><time>2026-04-27T14:36:36.999Z</time></trkpt><trkpt lat="44.0358152398356" lon="12.587500708328765"><ele>6.0</ele><time>2026-04-27T14:36:37.999Z</time></trkpt><trkpt lat="44.03590940034838" lon="12.587614348807293"><ele>6.0</ele><time>2026-04-27T14:36:38.999Z</time></trkpt><trkpt lat="44.036027032143515" lon="12.587728654819589"><ele>6.0</ele><time>2026-04-27T14:36:39.999Z</time></trkpt><trkpt lat="44.03615772579372" lon="12.587864495491203"><ele>6.0</ele><time>2026-04-27T14:36:40.999Z</time></trkpt><trkpt lat="44.03630362897111" lon="12.58802165205906"><ele>5.666666666666667</ele><time>2026-04-27T14:36:41.999Z</time></trkpt><trkpt lat="44.03645257757484" lon="12.588191139660905"><ele>5.333333333333334</ele><time>2026-04-27T14:36:42.999Z</time></trkpt><trkpt lat="44.03660027517809" lon="12.588375589969438"><ele>5.0</ele><time>2026-04-27T14:36:43.999Z</time></trkpt><trkpt lat="44.036743738248404" lon="12.588566972176235"><ele>5.0</ele><time>2026-04-27T14:36:44.999Z</time></trkpt><trkpt lat="44.0368825513633" lon="12.58876011024563"><ele>5.0</ele><time>2026-04-27T14:36:45.999Z</time></trkpt><trkpt lat="44.03701363008874" lon="12.588940403334519"><ele>5.0</ele><time>2026-04-27T14:36:46.999Z</time></trkpt><trkpt lat="44.03713628726276" lon="12.589112446960652"><ele>5.0</ele><time>2026-04-27T14:36:47.999Z</time></trkpt><trkpt lat="44.03725056197236" lon="12.589272280320078"><ele>5.0</ele><time>2026-04-27T14:36:48.999Z</time></trkpt><trkpt lat="44.0373603138968" lon="12.589426201130474"><ele>5.0</ele><time>2026-04-27T14:36:49.999Z</time></trkpt><trkpt lat="44.037462750056555" lon="12.589567254720377"><ele>4.0</ele><time>2026-04-27T14:36:50.999Z</time></trkpt><trkpt lat="44.03756075269086" lon="12.589700075225164"><ele>3.0</ele><time>2026-04-27T14:36:51.999Z</time></trkpt><trkpt lat="44.037659637498166" lon="12.589816648666293"><ele>2.0</ele><time>2026-04-27T14:36:52.999Z</time></trkpt><trkpt lat="44.03774477949775" lon="12.589904502447848"><ele>1.0</ele><time>2026-04-27T14:36:53.999Z</time></trkpt><trkpt lat="44.037806915133" lon="12.589972525367488"><ele>1.0</ele><time>2026-04-27T14:36:54.999Z</time></trkpt><trkpt lat="44.037855175843696" lon="12.590028983374667"><ele>1.0</ele><time>2026-04-27T14:36:55.999Z</time></trkpt><trkpt lat="44.03794378358882" lon="12.590170055486137"><ele>1.0</ele><time>2026-04-27T14:36:57.999Z</time></trkpt><trkpt lat="44.03799643247133" lon="12.59026542115498"><ele>1.0</ele><time>2026-04-27T14:36:58.999Z</time></trkpt><trkpt lat="44.03804517437681" lon="12.59037166422855"><ele>1.0</ele><time>2026-04-27T14:36:59.999Z</time></trkpt><trkpt lat="44.03813641797448" lon="12.590417914372471"><ele>1.0</ele><time>2026-04-27T14:37:00.999Z</time></trkpt><trkpt lat="44.03822074082009" lon="12.590402807621443"><ele>1.0</ele><time>2026-04-27T14:37:01.999Z</time></trkpt><trkpt lat="44.03830968198414" lon="12.590330472466244"><ele>1.0</ele><time>2026-04-27T14:37:02.999Z</time></trkpt><trkpt lat="44.03838675400741" lon="12.590252810201122"><ele>1.0</ele><time>2026-04-27T14:37:03.999Z</time></trkpt><trkpt lat="44.038524793108934" lon="12.59029698357161"><ele>1.0</ele><time>2026-04-27T14:37:04.999Z</time></trkpt><trkpt lat="44.03866326901123" lon="12.59033790049658"><ele>1.6666666666666665</ele><time>2026-04-27T14:37:05.999Z</time></trkpt><trkpt lat="44.03881268200769" lon="12.590384750717371"><ele>2.3333333333333335</ele><time>2026-04-27T14:37:06.999Z</time></trkpt><trkpt lat="44.03897389304578" lon="12.590431563151135"><ele>3.0</ele><time>2026-04-27T14:37:07.999Z</time></trkpt><trkpt lat="44.03913657692286" lon="12.590482752671539"><ele>3.0</ele><time>2026-04-27T14:37:08.999Z</time></trkpt><trkpt lat="44.039286423910085" lon="12.590531537613609"><ele>3.0</ele><time>2026-04-27T14:37:09.999Z</time></trkpt><trkpt lat="44.0394274793233" lon="12.590577264220782"><ele>3.0</ele><time>2026-04-27T14:37:10.999Z</time></trkpt><trkpt lat="44.03955833345893" lon="12.590618159495309"><ele>3.0</ele><time>2026-04-27T14:37:11.999Z</time></trkpt><trkpt lat="44.039678971884044" lon="12.590654562351538"><ele>3.0</ele><time>2026-04-27T14:37:12.999Z</time></trkpt><trkpt lat="44.03977935157233" lon="12.59069137002901"><ele>3.0</ele><time>2026-04-27T14:37:13.999Z</time></trkpt><trkpt lat="44.03985890006449" lon="12.590707414678109"><ele>3.0</ele><time>2026-04-27T14:37:14.999Z</time></trkpt><trkpt lat="44.0399065847831" lon="12.590771656188792"><ele>3.0</ele><time>2026-04-27T14:37:15.999Z</time></trkpt><trkpt lat="44.039966498045594" lon="12.590847582739281"><ele>3.0</ele><time>2026-04-27T14:37:17.999Z</time></trkpt><trkpt lat="44.04001308404274" lon="12.590915453442502"><ele>3.0</ele><time>2026-04-27T14:37:20.999Z</time></trkpt><trkpt lat="44.040077901842665" lon="12.591030283323851"><ele>3.0</ele><time>2026-04-27T14:37:24.999Z</time></trkpt><trkpt lat="44.04011597172749" lon="12.591131433611928"><ele>3.0</ele><time>2026-04-27T14:37:25.999Z</time></trkpt><trkpt lat="44.04015537199714" lon="12.591243327309874"><ele>3.0</ele><time>2026-04-27T14:37:26.999Z</time></trkpt><trkpt lat="44.04020757330247" lon="12.591356961063724"><ele>3.0</ele><time>2026-04-27T14:37:27.999Z</time></trkpt><trkpt lat="44.04027566281944" lon="12.591453049909525"><ele>3.0</ele><time>2026-04-27T14:37:28.999Z</time></trkpt><trkpt lat="44.040362603411246" lon="12.591526335483882"><ele>2.8</ele><time>2026-04-27T14:37:29.999Z</time></trkpt><trkpt lat="44.04046221635446" lon="12.591576266519994"><ele>2.5999999999999996</ele><time>2026-04-27T14:37:30.999Z</time></trkpt><trkpt lat="44.04056937189868" lon="12.591597486704785"><ele>2.4000000000000004</ele><time>2026-04-27T14:37:31.999Z</time></trkpt><trkpt lat="44.04067861898011" lon="12.591586081789346"><ele>2.2</ele><time>2026-04-27T14:37:32.999Z</time></trkpt><trkpt lat="44.04078446873389" lon="12.591539050155793"><ele>2.0</ele><time>2026-04-27T14:37:33.999Z</time></trkpt><trkpt lat="44.040881015209045" lon="12.591465013225402"><ele>2.75</ele><time>2026-04-27T14:37:34.999Z</time></trkpt><trkpt lat="44.04095770953215" lon="12.591353724878784"><ele>3.5</ele><time>2026-04-27T14:37:35.999Z</time></trkpt><trkpt lat="44.04102388872326" lon="12.591230823822215"><ele>4.25</ele><time>2026-04-27T14:37:36.999Z</time></trkpt><trkpt lat="44.04108908328735" lon="12.59109954281644"><ele>5.0</ele><time>2026-04-27T14:37:37.999Z</time></trkpt><trkpt lat="44.04116314197821" lon="12.590973652899335"><ele>5.0</ele><time>2026-04-27T14:37:38.999Z</time></trkpt><trkpt lat="44.04124541710175" lon="12.590864265874226"><ele>5.0</ele><time>2026-04-27T14:37:39.999Z</time></trkpt><trkpt lat="44.04132740815413" lon="12.590764376066481"><ele>5.0</ele><time>2026-04-27T14:37:40.999Z</time></trkpt><trkpt lat="44.04140882611595" lon="12.590670755498264"><ele>5.0</ele><time>2026-04-27T14:37:41.999Z</time></trkpt><trkpt lat="44.04148636116692" lon="12.590577604619257"><ele>5.0</ele><time>2026-04-27T14:37:42.999Z</time></trkpt><trkpt lat="44.0415587157976" lon="12.590484110891177"><ele>5.0</ele><time>2026-04-27T14:37:43.999Z</time></trkpt><trkpt lat="44.0416263625421" lon="12.590395745158222"><ele>5.0</ele><time>2026-04-27T14:37:44.999Z</time></trkpt><trkpt lat="44.04168314047955" lon="12.590317804604771"><ele>5.0</ele><time>2026-04-27T14:37:45.999Z</time></trkpt><trkpt lat="44.0417354078807" lon="12.590255105982623"><ele>5.0</ele><time>2026-04-27T14:37:46.999Z</time></trkpt><trkpt lat="44.04181101544778" lon="12.590188521360252"><ele>5.0</ele><time>2026-04-27T14:37:48.999Z</time></trkpt><trkpt lat="44.04186991773671" lon="12.590150377496151"><ele>5.0</ele><time>2026-04-27T14:37:53Z</time></trkpt><trkpt lat="44.041944691984995" lon="12.590104707885395"><ele>5.0</ele><time>2026-04-27T14:37:59Z</time></trkpt><trkpt lat="44.04202949482518" lon="12.59009332567045"><ele>5.0</ele><time>2026-04-27T14:38:01Z</time></trkpt><trkpt lat="44.04212947310138" lon="12.5900557833345"><ele>5.0</ele><time>2026-04-27T14:38:03Z</time></trkpt><trkpt lat="44.04219476377108" lon="12.590115897632083"><ele>5.0</ele><time>2026-04-27T14:38:03.999Z</time></trkpt><trkpt lat="44.04227713594721" lon="12.59012436690329"><ele>5.0</ele><time>2026-04-27T14:38:05Z</time></trkpt><trkpt lat="44.042376529542814" lon="12.590129013208339"><ele>5.0</ele><time>2026-04-27T14:38:06Z</time></trkpt><trkpt lat="44.04248945432313" lon="12.590139523079847"><ele>4.75</ele><time>2026-04-27T14:38:06.999Z</time></trkpt><trkpt lat="44.04262164512355" lon="12.590171277052232"><ele>4.5</ele><time>2026-04-27T14:38:07.999Z</time></trkpt><trkpt lat="44.04276160032248" lon="12.590211290821674"><ele>4.25</ele><time>2026-04-27T14:38:08.999Z</time></trkpt><trkpt lat="44.04291190719845" lon="12.590252012294373"><ele>4.0</ele><time>2026-04-27T14:38:09.999Z</time></trkpt><trkpt lat="44.04307294910978" lon="12.590297227952604"><ele>4.0</ele><time>2026-04-27T14:38:10.999Z</time></trkpt><trkpt lat="44.04323805863472" lon="12.590340614476498"><ele>4.0</ele><time>2026-04-27T14:38:11.999Z</time></trkpt><trkpt lat="44.04340414300577" lon="12.590386768630024"><ele>4.0</ele><time>2026-04-27T14:38:12.999Z</time></trkpt><trkpt lat="44.04356964630297" lon="12.590431755993727"><ele>3.333333333333333</ele><time>2026-04-27T14:38:13.999Z</time></trkpt><trkpt lat="44.04372980868519" lon="12.590475283514449"><ele>2.6666666666666665</ele><time>2026-04-27T14:38:14.999Z</time></trkpt><trkpt lat="44.043882845164546" lon="12.590516969469236"><ele>2.0</ele><time>2026-04-27T14:38:15.999Z</time></trkpt><trkpt lat="44.044027237721416" lon="12.590558052530504"><ele>2.0</ele><time>2026-04-27T14:38:16.999Z</time></trkpt><trkpt lat="44.044162476226596" lon="12.590597369693123"><ele>2.0</ele><time>2026-04-27T14:38:17.999Z</time></trkpt><trkpt lat="44.04428550432774" lon="12.59063324450075"><ele>2.0</ele><time>2026-04-27T14:38:18.999Z</time></trkpt><trkpt lat="44.044388819433905" lon="12.590664217100883"><ele>2.0</ele><time>2026-04-27T14:38:19.999Z</time></trkpt><trkpt lat="44.04447712312396" lon="12.590692452202905"><ele>2.0</ele><time>2026-04-27T14:38:20.999Z</time></trkpt><trkpt lat="44.04455499755018" lon="12.590723658250615"><ele>2.0</ele><time>2026-04-27T14:38:21.999Z</time></trkpt><trkpt lat="44.044638920188035" lon="12.590774538988496"><ele>2.0</ele><time>2026-04-27T14:38:22.999Z</time></trkpt><trkpt lat="44.04472620264937" lon="12.590810029328422"><ele>2.0</ele><time>2026-04-27T14:38:23.999Z</time></trkpt><trkpt lat="44.0448279962976" lon="12.590818050676146"><ele>2.0</ele><time>2026-04-27T14:38:24.999Z</time></trkpt><trkpt lat="44.04494549369151" lon="12.59083776713275"><ele>2.5</ele><time>2026-04-27T14:38:25.999Z</time></trkpt><trkpt lat="44.04507669092236" lon="12.590870923191538"><ele>3.0</ele><time>2026-04-27T14:38:26.999Z</time></trkpt><trkpt lat="44.045212277475656" lon="12.590906878496794"><ele>3.5</ele><time>2026-04-27T14:38:27.999Z</time></trkpt><trkpt lat="44.04535020440815" lon="12.59093771927165"><ele>4.0</ele><time>2026-04-27T14:38:28.999Z</time></trkpt><trkpt lat="44.04547650191878" lon="12.590969305854623"><ele>4.0</ele><time>2026-04-27T14:38:29.999Z</time></trkpt><trkpt lat="44.045592739410395" lon="12.590999121430619"><ele>4.0</ele><time>2026-04-27T14:38:30.999Z</time></trkpt><trkpt lat="44.045694365134636" lon="12.591033797929972"><ele>4.0</ele><time>2026-04-27T14:38:31.999Z</time></trkpt><trkpt lat="44.04577931478128" lon="12.591077516421764"><ele>4.0</ele><time>2026-04-27T14:38:32.999Z</time></trkpt><trkpt lat="44.045838583818394" lon="12.59113870600637"><ele>4.0</ele><time>2026-04-27T14:38:33.999Z</time></trkpt><trkpt lat="44.04588219777331" lon="12.591209103564955"><ele>3.8000000000000003</ele><time>2026-04-27T14:38:35Z</time></trkpt><trkpt lat="44.04592521643348" lon="12.591324279050943"><ele>3.6000000000000005</ele><time>2026-04-27T14:38:37Z</time></trkpt><trkpt lat="44.045945851191966" lon="12.591415422793247"><ele>3.4</ele><time>2026-04-27T14:38:43Z</time></trkpt><trkpt lat="44.04594742675594" lon="12.591624887216781"><ele>3.2</ele><time>2026-04-27T14:38:45Z</time></trkpt><trkpt lat="44.045933445916525" lon="12.591748779446343"><ele>3.0</ele><time>2026-04-27T14:38:46Z</time></trkpt><trkpt lat="44.045922777159795" lon="12.591881722421215"><ele>3.0</ele><time>2026-04-27T14:38:47Z</time></trkpt><trkpt lat="44.04593010124923" lon="12.592005192638139"><ele>3.0</ele><time>2026-04-27T14:38:48Z</time></trkpt><trkpt lat="44.04596493046077" lon="12.592103614546932"><ele>3.0</ele><time>2026-04-27T14:38:49Z</time></trkpt><trkpt lat="44.046018342615625" lon="12.592194635610255"><ele>3.0</ele><time>2026-04-27T14:38:50Z</time></trkpt><trkpt lat="44.046089254778494" lon="12.59225075698129"><ele>3.0</ele><time>2026-04-27T14:38:51Z</time></trkpt><trkpt lat="44.046169926441614" lon="12.59228051521966"><ele>3.0</ele><time>2026-04-27T14:38:52Z</time></trkpt><trkpt lat="44.04625367474738" lon="12.592289383928023"><ele>2.8333333333333335</ele><time>2026-04-27T14:38:53Z</time></trkpt><trkpt lat="44.04633720356041" lon="12.59229598409252"><ele>2.6666666666666665</ele><time>2026-04-27T14:38:54Z</time></trkpt><trkpt lat="44.04641559502082" lon="12.592321063537044"><ele>2.5</ele><time>2026-04-27T14:38:55Z</time></trkpt><trkpt lat="44.046487754679184" lon="12.592372293114689"><ele>2.333333333333333</ele><time>2026-04-27T14:38:56Z</time></trkpt><trkpt lat="44.046547555644665" lon="12.592435870528822"><ele>2.1666666666666665</ele><time>2026-04-27T14:38:57Z</time></trkpt><trkpt lat="44.04659665858763" lon="12.592508416249656"><ele>2.0</ele><time>2026-04-27T14:38:58Z</time></trkpt><trkpt lat="44.04664280878771" lon="12.592585126056113"><ele>1.9999999999999998</ele><time>2026-04-27T14:38:59Z</time></trkpt><trkpt lat="44.04668607404037" lon="12.592661796782572"><ele>2.0</ele><time>2026-04-27T14:39:00Z</time></trkpt><trkpt lat="44.04675372057181" lon="12.592775403797853"><ele>2.0</ele><time>2026-04-27T14:39:02Z</time></trkpt><trkpt lat="44.04679503521418" lon="12.592850602756505"><ele>2.0</ele><time>2026-04-27T14:39:05Z</time></trkpt><trkpt lat="44.046871323573455" lon="12.592985024875697"><ele>1.9999999999999998</ele><time>2026-04-27T14:39:38Z</time></trkpt><trkpt lat="44.0469230669675" lon="12.593073543166387"><ele>2.0</ele><time>2026-04-27T14:39:39Z</time></trkpt><trkpt lat="44.04698512647262" lon="12.59318184090168"><ele>2.25</ele><time>2026-04-27T14:39:40Z</time></trkpt><trkpt lat="44.04705827898646" lon="12.59330614687651"><ele>2.5</ele><time>2026-04-27T14:39:41Z</time></trkpt><trkpt lat="44.0471368788445" lon="12.5934466058928"><ele>2.75</ele><time>2026-04-27T14:39:42Z</time></trkpt><trkpt lat="44.04722343920904" lon="12.593595725782029"><ele>3.0</ele><time>2026-04-27T14:39:43Z</time></trkpt><trkpt lat="44.047316275398934" lon="12.593753041779966"><ele>3.0</ele><time>2026-04-27T14:39:44Z</time></trkpt><trkpt lat="44.04741188904115" lon="12.593919696753305"><ele>3.0</ele><time>2026-04-27T14:39:45Z</time></trkpt><trkpt lat="44.047510528109" lon="12.594093189732074"><ele>3.0</ele><time>2026-04-27T14:39:46Z</time></trkpt><trkpt lat="44.04760885928405" lon="12.594270237732038"><ele>3.0</ele><time>2026-04-27T14:39:47Z</time></trkpt><trkpt lat="44.04770509447962" lon="12.594447153050265"><ele>3.0</ele><time>2026-04-27T14:39:48Z</time></trkpt><trkpt lat="44.04779753711607" lon="12.594626260042075"><ele>3.0</ele><time>2026-04-27T14:39:49Z</time></trkpt><trkpt lat="44.0478907605584" lon="12.594804016641254"><ele>3.0</ele><time>2026-04-27T14:39:50Z</time></trkpt><trkpt lat="44.04798147481234" lon="12.594982742265392"><ele>3.0</ele><time>2026-04-27T14:39:51Z</time></trkpt><trkpt lat="44.04807250555824" lon="12.595160680826863"><ele>3.0</ele><time>2026-04-27T14:39:52Z</time></trkpt><trkpt lat="44.0481588503122" lon="12.595329715997925"><ele>2.75</ele><time>2026-04-27T14:39:53Z</time></trkpt><trkpt lat="44.048239683107376" lon="12.595485486125023"><ele>2.5</ele><time>2026-04-27T14:39:54Z</time></trkpt><trkpt lat="44.04831514567886" lon="12.595635881404297"><ele>2.25</ele><time>2026-04-27T14:39:55Z</time></trkpt><trkpt lat="44.04838524493573" lon="12.595774995937965"><ele>2.0</ele><time>2026-04-27T14:39:56Z</time></trkpt><trkpt lat="44.04845155929826" lon="12.595907235890596"><ele>2.0</ele><time>2026-04-27T14:39:57Z</time></trkpt><trkpt lat="44.04851242698136" lon="12.596031180187813"><ele>2.0</ele><time>2026-04-27T14:39:58Z</time></trkpt><trkpt lat="44.04857028998966" lon="12.59614635539592"><ele>2.0</ele><time>2026-04-27T14:39:59Z</time></trkpt><trkpt lat="44.04862289757134" lon="12.59625119613527"><ele>2.0</ele><time>2026-04-27T14:40:00Z</time></trkpt><trkpt lat="44.04867225602772" lon="12.596345694438721"><ele>2.0</ele><time>2026-04-27T14:40:01Z</time></trkpt><trkpt lat="44.04871748071323" lon="12.596432550361333"><ele>2.0</ele><time>2026-04-27T14:40:02Z</time></trkpt><trkpt lat="44.048756417497756" lon="12.596506330657471"><ele>2.0</ele><time>2026-04-27T14:40:03Z</time></trkpt><trkpt lat="44.04881581711814" lon="12.596600877355543"><ele>2.0</ele><time>2026-04-27T14:40:05Z</time></trkpt><trkpt lat="44.04895791570961" lon="12.596505663469117"><ele>2.0</ele><time>2026-04-27T14:40:07Z</time></trkpt><trkpt lat="44.04903615307687" lon="12.596423142217581"><ele>2.0</ele><time>2026-04-27T14:40:08Z</time></trkpt><trkpt lat="44.04913356752447" lon="12.596326185156535"><ele>2.0</ele><time>2026-04-27T14:40:09Z</time></trkpt><trkpt lat="44.04923294088921" lon="12.596233947030285"><ele>2.0</ele><time>2026-04-27T14:40:10Z</time></trkpt><trkpt lat="44.049306702893546" lon="12.596146565015589"><ele>2.0</ele><time>2026-04-27T14:40:11Z</time></trkpt><trkpt lat="44.04936938554947" lon="12.596079068645883"><ele>2.0</ele><time>2026-04-27T14:40:12Z</time></trkpt><trkpt lat="44.049457399634655" lon="12.59599130016022"><ele>2.0</ele><time>2026-04-27T14:40:14Z</time></trkpt><trkpt lat="44.04952209068068" lon="12.59593929171455"><ele>2.25</ele><time>2026-04-27T14:40:15Z</time></trkpt><trkpt lat="44.04961236025394" lon="12.595858261311044"><ele>2.5</ele><time>2026-04-27T14:40:16Z</time></trkpt><trkpt lat="44.04971370523294" lon="12.595757784549715"><ele>2.75</ele><time>2026-04-27T14:40:17Z</time></trkpt><trkpt lat="44.0498252168308" lon="12.595646737290876"><ele>3.0</ele><time>2026-04-27T14:40:18Z</time></trkpt><trkpt lat="44.04993816059215" lon="12.595538011050657"><ele>3.0</ele><time>2026-04-27T14:40:19Z</time></trkpt><trkpt lat="44.050053140994876" lon="12.595429300588668"><ele>3.0</ele><time>2026-04-27T14:40:20Z</time></trkpt><trkpt lat="44.05015839546041" lon="12.595330329198163"><ele>3.0</ele><time>2026-04-27T14:40:21Z</time></trkpt><trkpt lat="44.05025557709414" lon="12.595236243447715"><ele>3.0</ele><time>2026-04-27T14:40:22Z</time></trkpt><trkpt lat="44.050347573471456" lon="12.59514514012413"><ele>2.6666666666666665</ele><time>2026-04-27T14:40:23Z</time></trkpt><trkpt lat="44.05043378667206" lon="12.595057937515916"><ele>2.3333333333333335</ele><time>2026-04-27T14:40:24Z</time></trkpt><trkpt lat="44.05051438390295" lon="12.594983774009075"><ele>2.0</ele><time>2026-04-27T14:40:25Z</time></trkpt><trkpt lat="44.050583200677806" lon="12.59492053812622"><ele>1.6666666666666665</ele><time>2026-04-27T14:40:26Z</time></trkpt><trkpt lat="44.050638694118454" lon="12.594866199871714"><ele>1.3333333333333333</ele><time>2026-04-27T14:40:27Z</time></trkpt><trkpt lat="44.05070345132604" lon="12.594804700886941"><ele>1.0</ele><time>2026-04-27T14:40:29Z</time></trkpt><trkpt lat="44.05061622295448" lon="12.594654440116937"><ele>0.9999999999999999</ele><time>2026-04-27T14:40:31Z</time></trkpt><trkpt lat="44.05055391685306" lon="12.594580645230513"><ele>1.0</ele><time>2026-04-27T14:40:33Z</time></trkpt><trkpt lat="44.05047535977621" lon="12.59457903587931"><ele>1.0</ele><time>2026-04-27T14:40:39Z</time></trkpt><trkpt lat="44.05038768930691" lon="12.594701640614195"><ele>1.0</ele><time>2026-04-27T14:40:41Z</time></trkpt><trkpt lat="44.05033046733706" lon="12.594775018941428"><ele>0.9999999999999999</ele><time>2026-04-27T14:40:42Z</time></trkpt><trkpt lat="44.05026566423047" lon="12.59483368386209"><ele>1.0</ele><time>2026-04-27T14:40:43Z</time></trkpt><trkpt lat="44.05019828701423" lon="12.594884905459269"><ele>1.0</ele><time>2026-04-27T14:40:44Z</time></trkpt><trkpt lat="44.05010289666843" lon="12.594966057540338"><ele>1.0</ele><time>2026-04-27T14:40:45Z</time></trkpt><trkpt lat="44.050008716033496" lon="12.59503567114396"><ele>1.0</ele><time>2026-04-27T14:40:46Z</time></trkpt><trkpt lat="44.049905925571075" lon="12.595095549896575"><ele>1.0</ele><time>2026-04-27T14:40:47Z</time></trkpt><trkpt lat="44.0498140981723" lon="12.595146680028785"><ele>1.0</ele><time>2026-04-27T14:40:48Z</time></trkpt><trkpt lat="44.04972532866034" lon="12.595202256117913"><ele>1.3333333333333333</ele><time>2026-04-27T14:40:49Z</time></trkpt><trkpt lat="44.04963991984016" lon="12.595254827628857"><ele>1.6666666666666665</ele><time>2026-04-27T14:40:50Z</time></trkpt><trkpt lat="44.049562122399344" lon="12.595309797228422"><ele>2.0</ele><time>2026-04-27T14:40:51Z</time></trkpt><trkpt lat="44.049500841357045" lon="12.595364368649804"><ele>2.3333333333333335</ele><time>2026-04-27T14:40:52Z</time></trkpt><trkpt lat="44.04943704475649" lon="12.595420154308446"><ele>2.6666666666666665</ele><time>2026-04-27T14:40:53Z</time></trkpt><trkpt lat="44.04937565834563" lon="12.595465636071374"><ele>3.0</ele><time>2026-04-27T14:40:54Z</time></trkpt><trkpt lat="44.04932118354479" lon="12.595511751588768"><ele>3.0</ele><time>2026-04-27T14:40:55Z</time></trkpt><trkpt lat="44.04923830897491" lon="12.59558563067397"><ele>3.0</ele><time>2026-04-27T14:40:57Z</time></trkpt><trkpt lat="44.04915659420125" lon="12.59564948553158"><ele>3.0</ele><time>2026-04-27T14:41:01Z</time></trkpt><trkpt lat="44.0490703762206" lon="12.595735753705092"><ele>3.0</ele><time>2026-04-27T14:41:03Z</time></trkpt><trkpt lat="44.04901545012723" lon="12.595786314748828"><ele>3.0</ele><time>2026-04-27T14:41:04Z</time></trkpt><trkpt lat="44.048908036833616" lon="12.595861779470136"><ele>3.2</ele><time>2026-04-27T14:41:06Z</time></trkpt><trkpt lat="44.04884949744347" lon="12.595941284384807"><ele>3.4</ele><time>2026-04-27T14:41:08Z</time></trkpt><trkpt lat="44.048777623774846" lon="12.595863626237463"><ele>3.6000000000000005</ele><time>2026-04-27T14:41:12Z</time></trkpt><trkpt lat="44.048910231937235" lon="12.595790434307302"><ele>3.8000000000000003</ele><time>2026-04-27T14:42:51Z</time></trkpt><trkpt lat="44.04883227531948" lon="12.595770635849394"><ele>4.0</ele><time>2026-04-27T14:42:53Z</time></trkpt><trkpt lat="44.04880570372232" lon="12.59593117932028"><ele>4.0</ele><time>2026-04-27T14:42:58Z</time></trkpt><trkpt lat="44.048543869882074" lon="12.595744127955358"><ele>4.0</ele><time>2026-04-27T14:44:09.136Z</time></trkpt><trkpt lat="44.04855142992692" lon="12.595974118654466"><ele>4.0</ele><time>2026-04-27T14:44:57.354Z</time></trkpt><trkpt lat="44.048543869882074" lon="12.595744127955358"><ele>4.0</ele><time>2026-04-27T14:45:29.195Z</time></trkpt><trkpt lat="44.04855172785895" lon="12.595977852635517"><ele>4.0</ele><time>2026-04-27T14:45:41.909Z</time></trkpt><trkpt lat="44.048543869882074" lon="12.595744127955358"><ele>4.0</ele><time>2026-04-27T14:46:31.544Z</time></trkpt><trkpt lat="44.04853430326484" lon="12.595944406532432"><ele>4.0</ele><time>2026-04-27T14:47:18.024Z</time></trkpt><trkpt lat="44.048555566243174" lon="12.595806536828656"><ele>4.0</ele><time>2026-04-27T14:49:21.011Z</time></trkpt><trkpt lat="44.048688663990795" lon="12.595697122344706"><ele>4.0</ele><time>2026-04-27T14:50:52.012Z</time></trkpt><trkpt lat="44.04874936254466" lon="12.595639181475946"><ele>4.0</ele><time>2026-04-27T14:50:53.012Z</time></trkpt><trkpt lat="44.04862729148026" lon="12.595776478664831"><ele>4.0</ele><time>2026-04-27T14:51:35.01Z</time></trkpt><trkpt lat="44.04867202444193" lon="12.595681278281214"><ele>4.0</ele><time>2026-04-27T14:52:28.018Z</time></trkpt><trkpt lat="44.048740452587445" lon="12.595591184651926"><ele>4.0</ele><time>2026-04-27T14:52:30.019Z</time></trkpt><trkpt lat="44.04878888807428" lon="12.595532650569881"><ele>4.0</ele><time>2026-04-27T14:52:33.02Z</time></trkpt><trkpt lat="44.04883425482069" lon="12.59545664223066"><ele>4.0</ele><time>2026-04-27T14:52:36.019Z</time></trkpt><trkpt lat="44.04875718372562" lon="12.59554316946992"><ele>4.0</ele><time>2026-04-27T14:52:50.02Z</time></trkpt><trkpt lat="44.04865619673169" lon="12.595683532246602"><ele>4.0</ele><time>2026-04-27T14:53:24Z</time></trkpt><trkpt lat="44.04863572631416" lon="12.595768490919705"><ele>4.0</ele><time>2026-04-27T14:53:28Z</time></trkpt><trkpt lat="44.04871016986142" lon="12.59571046105304"><ele>4.0</ele><time>2026-04-27T14:54:02Z</time></trkpt><trkpt lat="44.04867098150956" lon="12.595867979592358"><ele>3.9999999999999996</ele><time>2026-04-27T14:55:35Z</time></trkpt><trkpt lat="44.048568034038716" lon="12.595835074255271"><ele>4.0</ele><time>2026-04-27T14:55:37Z</time></trkpt><trkpt lat="44.04861799294039" lon="12.59576683428971"><ele>4.0</ele><time>2026-04-27T14:55:56Z</time></trkpt><trkpt lat="44.048543869882074" lon="12.595744127955358"><ele>4.0</ele><time>2026-04-27T14:57:11.014Z</time></trkpt><trkpt lat="44.048558962779964" lon="12.595829465823277"><ele>3.9999999999999996</ele><time>2026-04-27T15:00:22.012Z</time></trkpt><trkpt lat="44.04847606484489" lon="12.595869474124685"><ele>4.0</ele><time>2026-04-27T15:00:26.017Z</time></trkpt><trkpt lat="44.04856791312369" lon="12.595853537534438"><ele>3.9999999999999996</ele><time>2026-04-27T15:00:37.015Z</time></trkpt><trkpt lat="44.04862837352377" lon="12.595820928281379"><ele>4.0</ele><time>2026-04-27T15:00:38.014Z</time></trkpt><trkpt lat="44.04870074161589" lon="12.595773639030122"><ele>4.0</ele><time>2026-04-27T15:00:41.014Z</time></trkpt><trkpt lat="44.04865345184275" lon="12.595841268139745"><ele>4.0</ele><time>2026-04-27T15:00:57.017Z</time></trkpt><trkpt lat="44.04857550313437" lon="12.595823537668235"><ele>3.9999999999999996</ele><time>2026-04-27T15:01:05.018Z</time></trkpt><trkpt lat="44.04868165647792" lon="12.595685779169557"><ele>4.0</ele><time>2026-04-27T15:02:37.016Z</time></trkpt><trkpt lat="44.0486477575102" lon="12.5957617674369"><ele>3.9999999999999996</ele><time>2026-04-27T15:02:52.017Z</time></trkpt><trkpt lat="44.048608682404186" lon="12.595689656651126"><ele>4.0</ele><time>2026-04-27T15:16:07.999Z</time></trkpt><trkpt lat="44.04866049663947" lon="12.595627746536648"><ele>4.0</ele><time>2026-04-27T15:17:34.999Z</time></trkpt><trkpt lat="44.04861483808883" lon="12.595735553825412"><ele>4.0</ele><time>2026-04-27T15:18:10.999Z</time></trkpt><trkpt lat="44.04859600946831" lon="12.595823084394379"><ele>3.9999999999999996</ele><time>2026-04-27T15:18:13.999Z</time></trkpt><trkpt lat="44.04871997319751" lon="12.595770050196565"><ele>4.0</ele><time>2026-04-27T15:18:41Z</time></trkpt><trkpt lat="44.048632008042645" lon="12.595732135005825"><ele>4.0</ele><time>2026-04-27T15:18:44Z</time></trkpt><trkpt lat="44.048603937376285" lon="12.595639362639371"><ele>4.0</ele><time>2026-04-27T15:18:48.999Z</time></trkpt><trkpt lat="44.04875077830863" lon="12.595622654922538"><ele>4.0</ele><time>2026-04-27T15:18:53.999Z</time></trkpt><trkpt lat="44.04868148436786" lon="12.595577906127158"><ele>4.0</ele><time>2026-04-27T15:19:01Z</time></trkpt></trkseg></trk></gpx>